<?xml version="1.0" encoding="UTF-8" standalone="no" ?>
<gpx xmlns="http://www.topografix.com/GPX/1/1" xmlns:xsi="http://www.w3.org/2001/XMLSchema-instance" xsi:schemaLocation="http://www.topografix.com/GPX/1/1 http://www.topografix.com/GPX/1/1/gpx.xsd" version="1.1" creator="VisuGPX - https://www.visugpx.com">
  <metadata>
    <name>Marjon Rontalon Yzeron</name>
    <desc><![CDATA[Une belle balade en VAE, variée et jolie. ]]></desc>
  </metadata>
  <trk>
    <name><![CDATA[Marjon Rontalon Yzeron_1]]></name>
    <trkseg>
      <trkpt lat="45.71093" lon="4.75539">
        <ele>315.8</ele>
        <time>2025-11-11T08:35:16Z</time>
      </trkpt>
      <trkpt lat="45.71093" lon="4.75539">
        <ele>315.8</ele>
        <time>2025-11-11T08:35:17Z</time>
      </trkpt>
      <trkpt lat="45.71093" lon="4.75539">
        <ele>315.8</ele>
        <time>2025-11-11T08:35:18Z</time>
      </trkpt>
      <trkpt lat="45.71093" lon="4.75539">
        <ele>315.8</ele>
        <time>2025-11-11T08:35:19Z</time>
      </trkpt>
      <trkpt lat="45.71093" lon="4.75539">
        <ele>315.8</ele>
        <time>2025-11-11T08:35:20Z</time>
      </trkpt>
      <trkpt lat="45.71093" lon="4.75539">
        <ele>315.8</ele>
        <time>2025-11-11T08:35:21Z</time>
      </trkpt>
      <trkpt lat="45.71093" lon="4.75539">
        <ele>315.8</ele>
        <time>2025-11-11T08:35:22Z</time>
      </trkpt>
      <trkpt lat="45.71092" lon="4.75539">
        <ele>315.8</ele>
        <time>2025-11-11T08:35:23Z</time>
      </trkpt>
      <trkpt lat="45.71092" lon="4.75539">
        <ele>315.8</ele>
        <time>2025-11-11T08:35:24Z</time>
      </trkpt>
      <trkpt lat="45.71092" lon="4.75539">
        <ele>315.8</ele>
        <time>2025-11-11T08:35:25Z</time>
      </trkpt>
      <trkpt lat="45.71092" lon="4.75539">
        <ele>315.8</ele>
        <time>2025-11-11T08:35:26Z</time>
      </trkpt>
      <trkpt lat="45.71092" lon="4.75539">
        <ele>315.8</ele>
        <time>2025-11-11T08:35:27Z</time>
      </trkpt>
      <trkpt lat="45.71092" lon="4.75539">
        <ele>315.8</ele>
        <time>2025-11-11T08:35:28Z</time>
      </trkpt>
      <trkpt lat="45.71092" lon="4.7554">
        <ele>315.8</ele>
        <time>2025-11-11T08:35:29Z</time>
      </trkpt>
      <trkpt lat="45.71092" lon="4.7554">
        <ele>315.8</ele>
        <time>2025-11-11T08:35:30Z</time>
      </trkpt>
      <trkpt lat="45.71091" lon="4.7554">
        <ele>315.8</ele>
        <time>2025-11-11T08:35:31Z</time>
      </trkpt>
      <trkpt lat="45.71091" lon="4.7554">
        <ele>315.8</ele>
        <time>2025-11-11T08:35:32Z</time>
      </trkpt>
      <trkpt lat="45.71091" lon="4.7554">
        <ele>315.8</ele>
        <time>2025-11-11T08:35:33Z</time>
      </trkpt>
      <trkpt lat="45.71091" lon="4.7554">
        <ele>315.8</ele>
        <time>2025-11-11T08:35:34Z</time>
      </trkpt>
      <trkpt lat="45.71091" lon="4.75541">
        <ele>315.8</ele>
        <time>2025-11-11T08:35:35Z</time>
      </trkpt>
      <trkpt lat="45.71091" lon="4.75541">
        <ele>315.8</ele>
        <time>2025-11-11T08:35:36Z</time>
      </trkpt>
      <trkpt lat="45.71091" lon="4.75541">
        <ele>315.8</ele>
        <time>2025-11-11T08:35:37Z</time>
      </trkpt>
      <trkpt lat="45.71091" lon="4.75541">
        <ele>315.8</ele>
        <time>2025-11-11T08:35:38Z</time>
      </trkpt>
      <trkpt lat="45.71091" lon="4.75541">
        <ele>315.8</ele>
        <time>2025-11-11T08:35:39Z</time>
      </trkpt>
      <trkpt lat="45.71091" lon="4.75541">
        <ele>315.8</ele>
        <time>2025-11-11T08:35:40Z</time>
      </trkpt>
      <trkpt lat="45.71091" lon="4.75541">
        <ele>315.8</ele>
        <time>2025-11-11T08:35:41Z</time>
      </trkpt>
      <trkpt lat="45.71091" lon="4.75541">
        <ele>315.8</ele>
        <time>2025-11-11T08:35:42Z</time>
      </trkpt>
      <trkpt lat="45.71091" lon="4.75541">
        <ele>315.8</ele>
        <time>2025-11-11T08:35:43Z</time>
      </trkpt>
      <trkpt lat="45.71091" lon="4.75541">
        <ele>315.8</ele>
        <time>2025-11-11T08:35:44Z</time>
      </trkpt>
      <trkpt lat="45.71091" lon="4.75541">
        <ele>315.8</ele>
        <time>2025-11-11T08:35:45Z</time>
      </trkpt>
      <trkpt lat="45.71091" lon="4.75541">
        <ele>315.8</ele>
        <time>2025-11-11T08:35:46Z</time>
      </trkpt>
      <trkpt lat="45.71091" lon="4.75541">
        <ele>315.8</ele>
        <time>2025-11-11T08:35:47Z</time>
      </trkpt>
      <trkpt lat="45.71091" lon="4.7554">
        <ele>315.8</ele>
        <time>2025-11-11T08:35:48Z</time>
      </trkpt>
      <trkpt lat="45.7109" lon="4.75539">
        <ele>315.8</ele>
        <time>2025-11-11T08:35:49Z</time>
      </trkpt>
      <trkpt lat="45.71089" lon="4.75539">
        <ele>315.8</ele>
        <time>2025-11-11T08:35:50Z</time>
      </trkpt>
      <trkpt lat="45.71088" lon="4.75538">
        <ele>315.8</ele>
        <time>2025-11-11T08:35:51Z</time>
      </trkpt>
      <trkpt lat="45.71088" lon="4.75539">
        <ele>315.8</ele>
        <time>2025-11-11T08:35:52Z</time>
      </trkpt>
      <trkpt lat="45.71087" lon="4.7554">
        <ele>315.6</ele>
        <time>2025-11-11T08:35:53Z</time>
      </trkpt>
      <trkpt lat="45.71085" lon="4.7554">
        <ele>315.6</ele>
        <time>2025-11-11T08:35:54Z</time>
      </trkpt>
      <trkpt lat="45.71084" lon="4.7554">
        <ele>315.6</ele>
        <time>2025-11-11T08:35:55Z</time>
      </trkpt>
      <trkpt lat="45.71081" lon="4.75539">
        <ele>315.4</ele>
        <time>2025-11-11T08:35:56Z</time>
      </trkpt>
      <trkpt lat="45.71079" lon="4.75538">
        <ele>315.4</ele>
        <time>2025-11-11T08:35:57Z</time>
      </trkpt>
      <trkpt lat="45.71075" lon="4.75538">
        <ele>315.2</ele>
        <time>2025-11-11T08:35:58Z</time>
      </trkpt>
      <trkpt lat="45.71072" lon="4.75538">
        <ele>315.2</ele>
        <time>2025-11-11T08:35:59Z</time>
      </trkpt>
      <trkpt lat="45.71068" lon="4.75538">
        <ele>315</ele>
        <time>2025-11-11T08:36:00Z</time>
      </trkpt>
      <trkpt lat="45.71064" lon="4.75538">
        <ele>314.6</ele>
        <time>2025-11-11T08:36:01Z</time>
      </trkpt>
      <trkpt lat="45.7106" lon="4.75536">
        <ele>314.4</ele>
        <time>2025-11-11T08:36:02Z</time>
      </trkpt>
      <trkpt lat="45.71058" lon="4.75532">
        <ele>314.2</ele>
        <time>2025-11-11T08:36:03Z</time>
      </trkpt>
      <trkpt lat="45.71056" lon="4.75526">
        <ele>314</ele>
        <time>2025-11-11T08:36:04Z</time>
      </trkpt>
      <trkpt lat="45.71056" lon="4.75521">
        <ele>313.8</ele>
        <time>2025-11-11T08:36:05Z</time>
      </trkpt>
      <trkpt lat="45.71057" lon="4.75515">
        <ele>313.6</ele>
        <time>2025-11-11T08:36:06Z</time>
      </trkpt>
      <trkpt lat="45.71057" lon="4.75508">
        <ele>313.6</ele>
        <time>2025-11-11T08:36:07Z</time>
      </trkpt>
      <trkpt lat="45.71057" lon="4.75501">
        <ele>313.4</ele>
        <time>2025-11-11T08:36:08Z</time>
      </trkpt>
      <trkpt lat="45.71057" lon="4.75494">
        <ele>313.2</ele>
        <time>2025-11-11T08:36:09Z</time>
      </trkpt>
      <trkpt lat="45.71057" lon="4.75487">
        <ele>313.2</ele>
        <time>2025-11-11T08:36:10Z</time>
      </trkpt>
      <trkpt lat="45.71057" lon="4.75479">
        <ele>313</ele>
        <time>2025-11-11T08:36:11Z</time>
      </trkpt>
      <trkpt lat="45.71057" lon="4.75471">
        <ele>313</ele>
        <time>2025-11-11T08:36:12Z</time>
      </trkpt>
      <trkpt lat="45.71057" lon="4.75464">
        <ele>313</ele>
        <time>2025-11-11T08:36:13Z</time>
      </trkpt>
      <trkpt lat="45.71057" lon="4.75456">
        <ele>313.2</ele>
        <time>2025-11-11T08:36:14Z</time>
      </trkpt>
      <trkpt lat="45.71057" lon="4.75449">
        <ele>313.2</ele>
        <time>2025-11-11T08:36:15Z</time>
      </trkpt>
      <trkpt lat="45.71057" lon="4.75441">
        <ele>313.2</ele>
        <time>2025-11-11T08:36:16Z</time>
      </trkpt>
      <trkpt lat="45.71058" lon="4.75433">
        <ele>313.4</ele>
        <time>2025-11-11T08:36:17Z</time>
      </trkpt>
      <trkpt lat="45.71059" lon="4.75426">
        <ele>313.4</ele>
        <time>2025-11-11T08:36:18Z</time>
      </trkpt>
      <trkpt lat="45.71059" lon="4.75419">
        <ele>313.6</ele>
        <time>2025-11-11T08:36:19Z</time>
      </trkpt>
      <trkpt lat="45.71061" lon="4.75412">
        <ele>313.6</ele>
        <time>2025-11-11T08:36:20Z</time>
      </trkpt>
      <trkpt lat="45.71062" lon="4.75405">
        <ele>313.6</ele>
        <time>2025-11-11T08:36:21Z</time>
      </trkpt>
      <trkpt lat="45.71064" lon="4.75397">
        <ele>313.6</ele>
        <time>2025-11-11T08:36:22Z</time>
      </trkpt>
      <trkpt lat="45.71066" lon="4.75389">
        <ele>313.6</ele>
        <time>2025-11-11T08:36:23Z</time>
      </trkpt>
      <trkpt lat="45.71069" lon="4.7538">
        <ele>313.4</ele>
        <time>2025-11-11T08:36:24Z</time>
      </trkpt>
      <trkpt lat="45.71071" lon="4.75371">
        <ele>313</ele>
        <time>2025-11-11T08:36:25Z</time>
      </trkpt>
      <trkpt lat="45.71074" lon="4.75362">
        <ele>312.4</ele>
        <time>2025-11-11T08:36:26Z</time>
      </trkpt>
      <trkpt lat="45.71077" lon="4.75352">
        <ele>311.6</ele>
        <time>2025-11-11T08:36:27Z</time>
      </trkpt>
      <trkpt lat="45.71079" lon="4.75342">
        <ele>310.6</ele>
        <time>2025-11-11T08:36:28Z</time>
      </trkpt>
      <trkpt lat="45.71082" lon="4.75329">
        <ele>309.2</ele>
        <time>2025-11-11T08:36:29Z</time>
      </trkpt>
      <trkpt lat="45.71085" lon="4.75315">
        <ele>307.8</ele>
        <time>2025-11-11T08:36:30Z</time>
      </trkpt>
      <trkpt lat="45.7109" lon="4.75301">
        <ele>306</ele>
        <time>2025-11-11T08:36:31Z</time>
      </trkpt>
      <trkpt lat="45.71096" lon="4.75287">
        <ele>304.2</ele>
        <time>2025-11-11T08:36:32Z</time>
      </trkpt>
      <trkpt lat="45.71102" lon="4.75273">
        <ele>302.4</ele>
        <time>2025-11-11T08:36:33Z</time>
      </trkpt>
      <trkpt lat="45.71109" lon="4.75259">
        <ele>300.4</ele>
        <time>2025-11-11T08:36:34Z</time>
      </trkpt>
      <trkpt lat="45.71114" lon="4.75244">
        <ele>298.8</ele>
        <time>2025-11-11T08:36:35Z</time>
      </trkpt>
      <trkpt lat="45.71116" lon="4.75228">
        <ele>297.4</ele>
        <time>2025-11-11T08:36:36Z</time>
      </trkpt>
      <trkpt lat="45.71118" lon="4.75213">
        <ele>296.6</ele>
        <time>2025-11-11T08:36:37Z</time>
      </trkpt>
      <trkpt lat="45.71118" lon="4.75198">
        <ele>296</ele>
        <time>2025-11-11T08:36:38Z</time>
      </trkpt>
      <trkpt lat="45.71117" lon="4.75184">
        <ele>296</ele>
        <time>2025-11-11T08:36:39Z</time>
      </trkpt>
      <trkpt lat="45.71115" lon="4.75171">
        <ele>296</ele>
        <time>2025-11-11T08:36:40Z</time>
      </trkpt>
      <trkpt lat="45.71112" lon="4.75159">
        <ele>296.4</ele>
        <time>2025-11-11T08:36:41Z</time>
      </trkpt>
      <trkpt lat="45.7111" lon="4.75148">
        <ele>297</ele>
        <time>2025-11-11T08:36:42Z</time>
      </trkpt>
      <trkpt lat="45.71108" lon="4.75139">
        <ele>297.8</ele>
        <time>2025-11-11T08:36:43Z</time>
      </trkpt>
      <trkpt lat="45.71107" lon="4.7513">
        <ele>298.6</ele>
        <time>2025-11-11T08:36:44Z</time>
      </trkpt>
      <trkpt lat="45.71106" lon="4.75122">
        <ele>299.8</ele>
        <time>2025-11-11T08:36:45Z</time>
      </trkpt>
      <trkpt lat="45.71106" lon="4.75114">
        <ele>301</ele>
        <time>2025-11-11T08:36:46Z</time>
      </trkpt>
      <trkpt lat="45.71107" lon="4.75108">
        <ele>302.2</ele>
        <time>2025-11-11T08:36:47Z</time>
      </trkpt>
      <trkpt lat="45.71108" lon="4.75102">
        <ele>303.2</ele>
        <time>2025-11-11T08:36:48Z</time>
      </trkpt>
      <trkpt lat="45.7111" lon="4.75096">
        <ele>304.2</ele>
        <time>2025-11-11T08:36:49Z</time>
      </trkpt>
      <trkpt lat="45.71111" lon="4.75091">
        <ele>305.2</ele>
        <time>2025-11-11T08:36:50Z</time>
      </trkpt>
      <trkpt lat="45.71112" lon="4.75085">
        <ele>306</ele>
        <time>2025-11-11T08:36:51Z</time>
      </trkpt>
      <trkpt lat="45.71114" lon="4.75081">
        <ele>306.8</ele>
        <time>2025-11-11T08:36:52Z</time>
      </trkpt>
      <trkpt lat="45.71116" lon="4.75076">
        <ele>307.4</ele>
        <time>2025-11-11T08:36:53Z</time>
      </trkpt>
      <trkpt lat="45.71118" lon="4.75071">
        <ele>308.2</ele>
        <time>2025-11-11T08:36:54Z</time>
      </trkpt>
      <trkpt lat="45.7112" lon="4.75066">
        <ele>308.6</ele>
        <time>2025-11-11T08:36:55Z</time>
      </trkpt>
      <trkpt lat="45.71122" lon="4.7506">
        <ele>309.2</ele>
        <time>2025-11-11T08:36:56Z</time>
      </trkpt>
      <trkpt lat="45.71123" lon="4.75055">
        <ele>309.8</ele>
        <time>2025-11-11T08:36:57Z</time>
      </trkpt>
      <trkpt lat="45.71125" lon="4.7505">
        <ele>310.2</ele>
        <time>2025-11-11T08:36:58Z</time>
      </trkpt>
      <trkpt lat="45.71128" lon="4.75045">
        <ele>311.6</ele>
        <time>2025-11-11T08:36:59Z</time>
      </trkpt>
      <trkpt lat="45.7113" lon="4.75041">
        <ele>312.4</ele>
        <time>2025-11-11T08:37:00Z</time>
      </trkpt>
      <trkpt lat="45.71131" lon="4.75035">
        <ele>312.8</ele>
        <time>2025-11-11T08:37:01Z</time>
      </trkpt>
      <trkpt lat="45.71132" lon="4.7503">
        <ele>313</ele>
        <time>2025-11-11T08:37:02Z</time>
      </trkpt>
      <trkpt lat="45.71134" lon="4.75024">
        <ele>313</ele>
        <time>2025-11-11T08:37:03Z</time>
      </trkpt>
      <trkpt lat="45.71135" lon="4.75018">
        <ele>313</ele>
        <time>2025-11-11T08:37:04Z</time>
      </trkpt>
      <trkpt lat="45.71136" lon="4.75013">
        <ele>313</ele>
        <time>2025-11-11T08:37:05Z</time>
      </trkpt>
      <trkpt lat="45.71137" lon="4.75007">
        <ele>313.2</ele>
        <time>2025-11-11T08:37:06Z</time>
      </trkpt>
      <trkpt lat="45.71138" lon="4.75001">
        <ele>313.6</ele>
        <time>2025-11-11T08:37:07Z</time>
      </trkpt>
      <trkpt lat="45.71138" lon="4.74995">
        <ele>313.8</ele>
        <time>2025-11-11T08:37:08Z</time>
      </trkpt>
      <trkpt lat="45.71139" lon="4.7499">
        <ele>314.2</ele>
        <time>2025-11-11T08:37:09Z</time>
      </trkpt>
      <trkpt lat="45.7114" lon="4.74984">
        <ele>314.4</ele>
        <time>2025-11-11T08:37:10Z</time>
      </trkpt>
      <trkpt lat="45.71141" lon="4.74979">
        <ele>314.6</ele>
        <time>2025-11-11T08:37:11Z</time>
      </trkpt>
      <trkpt lat="45.71143" lon="4.74974">
        <ele>314.8</ele>
        <time>2025-11-11T08:37:12Z</time>
      </trkpt>
      <trkpt lat="45.71147" lon="4.74971">
        <ele>315</ele>
        <time>2025-11-11T08:37:13Z</time>
      </trkpt>
      <trkpt lat="45.7115" lon="4.74968">
        <ele>315.2</ele>
        <time>2025-11-11T08:37:14Z</time>
      </trkpt>
      <trkpt lat="45.71154" lon="4.74965">
        <ele>315.4</ele>
        <time>2025-11-11T08:37:15Z</time>
      </trkpt>
      <trkpt lat="45.71158" lon="4.74963">
        <ele>315.6</ele>
        <time>2025-11-11T08:37:16Z</time>
      </trkpt>
      <trkpt lat="45.71162" lon="4.74961">
        <ele>315.8</ele>
        <time>2025-11-11T08:37:17Z</time>
      </trkpt>
      <trkpt lat="45.71167" lon="4.74959">
        <ele>316</ele>
        <time>2025-11-11T08:37:18Z</time>
      </trkpt>
      <trkpt lat="45.71171" lon="4.74957">
        <ele>316.2</ele>
        <time>2025-11-11T08:37:19Z</time>
      </trkpt>
      <trkpt lat="45.71175" lon="4.74955">
        <ele>316.4</ele>
        <time>2025-11-11T08:37:20Z</time>
      </trkpt>
      <trkpt lat="45.71179" lon="4.74953">
        <ele>316.6</ele>
        <time>2025-11-11T08:37:21Z</time>
      </trkpt>
      <trkpt lat="45.71184" lon="4.74951">
        <ele>316.6</ele>
        <time>2025-11-11T08:37:22Z</time>
      </trkpt>
      <trkpt lat="45.71188" lon="4.74949">
        <ele>316.8</ele>
        <time>2025-11-11T08:37:23Z</time>
      </trkpt>
      <trkpt lat="45.71192" lon="4.74947">
        <ele>316.8</ele>
        <time>2025-11-11T08:37:24Z</time>
      </trkpt>
      <trkpt lat="45.71197" lon="4.74945">
        <ele>317</ele>
        <time>2025-11-11T08:37:25Z</time>
      </trkpt>
      <trkpt lat="45.71201" lon="4.74942">
        <ele>317</ele>
        <time>2025-11-11T08:37:26Z</time>
      </trkpt>
      <trkpt lat="45.71205" lon="4.74939">
        <ele>317.2</ele>
        <time>2025-11-11T08:37:27Z</time>
      </trkpt>
      <trkpt lat="45.71209" lon="4.74935">
        <ele>317.4</ele>
        <time>2025-11-11T08:37:28Z</time>
      </trkpt>
      <trkpt lat="45.71213" lon="4.74932">
        <ele>317.6</ele>
        <time>2025-11-11T08:37:29Z</time>
      </trkpt>
      <trkpt lat="45.71217" lon="4.74929">
        <ele>318</ele>
        <time>2025-11-11T08:37:30Z</time>
      </trkpt>
      <trkpt lat="45.71222" lon="4.74927">
        <ele>318.2</ele>
        <time>2025-11-11T08:37:31Z</time>
      </trkpt>
      <trkpt lat="45.71226" lon="4.74925">
        <ele>318.4</ele>
        <time>2025-11-11T08:37:32Z</time>
      </trkpt>
      <trkpt lat="45.71229" lon="4.7492">
        <ele>318.6</ele>
        <time>2025-11-11T08:37:33Z</time>
      </trkpt>
      <trkpt lat="45.71231" lon="4.74914">
        <ele>318.6</ele>
        <time>2025-11-11T08:37:34Z</time>
      </trkpt>
      <trkpt lat="45.71232" lon="4.74907">
        <ele>318.4</ele>
        <time>2025-11-11T08:37:35Z</time>
      </trkpt>
      <trkpt lat="45.71233" lon="4.74899">
        <ele>318</ele>
        <time>2025-11-11T08:37:36Z</time>
      </trkpt>
      <trkpt lat="45.71234" lon="4.7489">
        <ele>317.6</ele>
        <time>2025-11-11T08:37:37Z</time>
      </trkpt>
      <trkpt lat="45.71235" lon="4.74881">
        <ele>317</ele>
        <time>2025-11-11T08:37:38Z</time>
      </trkpt>
      <trkpt lat="45.71236" lon="4.74871">
        <ele>316.6</ele>
        <time>2025-11-11T08:37:39Z</time>
      </trkpt>
      <trkpt lat="45.71237" lon="4.74862">
        <ele>316</ele>
        <time>2025-11-11T08:37:40Z</time>
      </trkpt>
      <trkpt lat="45.71237" lon="4.74853">
        <ele>315.6</ele>
        <time>2025-11-11T08:37:41Z</time>
      </trkpt>
      <trkpt lat="45.71236" lon="4.74844">
        <ele>315.2</ele>
        <time>2025-11-11T08:37:42Z</time>
      </trkpt>
      <trkpt lat="45.71233" lon="4.74835">
        <ele>315</ele>
        <time>2025-11-11T08:37:43Z</time>
      </trkpt>
      <trkpt lat="45.71231" lon="4.74826">
        <ele>314.8</ele>
        <time>2025-11-11T08:37:44Z</time>
      </trkpt>
      <trkpt lat="45.71228" lon="4.74818">
        <ele>314.8</ele>
        <time>2025-11-11T08:37:45Z</time>
      </trkpt>
      <trkpt lat="45.71225" lon="4.7481">
        <ele>314.8</ele>
        <time>2025-11-11T08:37:46Z</time>
      </trkpt>
      <trkpt lat="45.71223" lon="4.74801">
        <ele>314.8</ele>
        <time>2025-11-11T08:37:47Z</time>
      </trkpt>
      <trkpt lat="45.71221" lon="4.74794">
        <ele>315</ele>
        <time>2025-11-11T08:37:48Z</time>
      </trkpt>
      <trkpt lat="45.71219" lon="4.74786">
        <ele>315</ele>
        <time>2025-11-11T08:37:49Z</time>
      </trkpt>
      <trkpt lat="45.71217" lon="4.74778">
        <ele>315.2</ele>
        <time>2025-11-11T08:37:50Z</time>
      </trkpt>
      <trkpt lat="45.71215" lon="4.7477">
        <ele>315.4</ele>
        <time>2025-11-11T08:37:51Z</time>
      </trkpt>
      <trkpt lat="45.71213" lon="4.74762">
        <ele>315.6</ele>
        <time>2025-11-11T08:37:52Z</time>
      </trkpt>
      <trkpt lat="45.71211" lon="4.74754">
        <ele>315.8</ele>
        <time>2025-11-11T08:37:53Z</time>
      </trkpt>
      <trkpt lat="45.71209" lon="4.74746">
        <ele>315.8</ele>
        <time>2025-11-11T08:37:54Z</time>
      </trkpt>
      <trkpt lat="45.71207" lon="4.74739">
        <ele>316</ele>
        <time>2025-11-11T08:37:55Z</time>
      </trkpt>
      <trkpt lat="45.71206" lon="4.74731">
        <ele>316.2</ele>
        <time>2025-11-11T08:37:56Z</time>
      </trkpt>
      <trkpt lat="45.71205" lon="4.74724">
        <ele>316.4</ele>
        <time>2025-11-11T08:37:57Z</time>
      </trkpt>
      <trkpt lat="45.71204" lon="4.74716">
        <ele>316.6</ele>
        <time>2025-11-11T08:37:58Z</time>
      </trkpt>
      <trkpt lat="45.71204" lon="4.74708">
        <ele>316.6</ele>
        <time>2025-11-11T08:37:59Z</time>
      </trkpt>
      <trkpt lat="45.71204" lon="4.74701">
        <ele>316.8</ele>
        <time>2025-11-11T08:38:00Z</time>
      </trkpt>
      <trkpt lat="45.71205" lon="4.74694">
        <ele>317</ele>
        <time>2025-11-11T08:38:01Z</time>
      </trkpt>
      <trkpt lat="45.71205" lon="4.74686">
        <ele>317</ele>
        <time>2025-11-11T08:38:02Z</time>
      </trkpt>
      <trkpt lat="45.71206" lon="4.74679">
        <ele>317.2</ele>
        <time>2025-11-11T08:38:03Z</time>
      </trkpt>
      <trkpt lat="45.71206" lon="4.74671">
        <ele>317.4</ele>
        <time>2025-11-11T08:38:04Z</time>
      </trkpt>
      <trkpt lat="45.71206" lon="4.74664">
        <ele>317.6</ele>
        <time>2025-11-11T08:38:05Z</time>
      </trkpt>
      <trkpt lat="45.71207" lon="4.74656">
        <ele>317.8</ele>
        <time>2025-11-11T08:38:06Z</time>
      </trkpt>
      <trkpt lat="45.71207" lon="4.74648">
        <ele>318</ele>
        <time>2025-11-11T08:38:07Z</time>
      </trkpt>
      <trkpt lat="45.71207" lon="4.7464">
        <ele>318</ele>
        <time>2025-11-11T08:38:08Z</time>
      </trkpt>
      <trkpt lat="45.71208" lon="4.74632">
        <ele>318.2</ele>
        <time>2025-11-11T08:38:09Z</time>
      </trkpt>
      <trkpt lat="45.71208" lon="4.74624">
        <ele>318.2</ele>
        <time>2025-11-11T08:38:10Z</time>
      </trkpt>
      <trkpt lat="45.71208" lon="4.74616">
        <ele>318.2</ele>
        <time>2025-11-11T08:38:11Z</time>
      </trkpt>
      <trkpt lat="45.71209" lon="4.74608">
        <ele>318.4</ele>
        <time>2025-11-11T08:38:12Z</time>
      </trkpt>
      <trkpt lat="45.71209" lon="4.746">
        <ele>318.4</ele>
        <time>2025-11-11T08:38:13Z</time>
      </trkpt>
      <trkpt lat="45.7121" lon="4.74593">
        <ele>318.4</ele>
        <time>2025-11-11T08:38:14Z</time>
      </trkpt>
      <trkpt lat="45.71211" lon="4.74585">
        <ele>318.4</ele>
        <time>2025-11-11T08:38:15Z</time>
      </trkpt>
      <trkpt lat="45.71213" lon="4.74577">
        <ele>318.4</ele>
        <time>2025-11-11T08:38:16Z</time>
      </trkpt>
      <trkpt lat="45.71214" lon="4.7457">
        <ele>318.4</ele>
        <time>2025-11-11T08:38:17Z</time>
      </trkpt>
      <trkpt lat="45.71216" lon="4.74564">
        <ele>318.6</ele>
        <time>2025-11-11T08:38:18Z</time>
      </trkpt>
      <trkpt lat="45.71218" lon="4.74557">
        <ele>318.8</ele>
        <time>2025-11-11T08:38:19Z</time>
      </trkpt>
      <trkpt lat="45.71219" lon="4.7455">
        <ele>318.8</ele>
        <time>2025-11-11T08:38:20Z</time>
      </trkpt>
      <trkpt lat="45.71221" lon="4.74543">
        <ele>319</ele>
        <time>2025-11-11T08:38:21Z</time>
      </trkpt>
      <trkpt lat="45.71222" lon="4.74536">
        <ele>319</ele>
        <time>2025-11-11T08:38:22Z</time>
      </trkpt>
      <trkpt lat="45.71223" lon="4.74528">
        <ele>319</ele>
        <time>2025-11-11T08:38:23Z</time>
      </trkpt>
      <trkpt lat="45.71225" lon="4.7452">
        <ele>319.2</ele>
        <time>2025-11-11T08:38:24Z</time>
      </trkpt>
      <trkpt lat="45.71225" lon="4.74513">
        <ele>319.2</ele>
        <time>2025-11-11T08:38:25Z</time>
      </trkpt>
      <trkpt lat="45.71226" lon="4.74505">
        <ele>319.2</ele>
        <time>2025-11-11T08:38:26Z</time>
      </trkpt>
      <trkpt lat="45.71226" lon="4.74498">
        <ele>319.4</ele>
        <time>2025-11-11T08:38:27Z</time>
      </trkpt>
      <trkpt lat="45.71227" lon="4.7449">
        <ele>319.6</ele>
        <time>2025-11-11T08:38:28Z</time>
      </trkpt>
      <trkpt lat="45.71227" lon="4.74483">
        <ele>319.6</ele>
        <time>2025-11-11T08:38:29Z</time>
      </trkpt>
      <trkpt lat="45.71228" lon="4.74475">
        <ele>319.8</ele>
        <time>2025-11-11T08:38:30Z</time>
      </trkpt>
      <trkpt lat="45.71228" lon="4.74467">
        <ele>319.8</ele>
        <time>2025-11-11T08:38:31Z</time>
      </trkpt>
      <trkpt lat="45.71228" lon="4.74458">
        <ele>319.6</ele>
        <time>2025-11-11T08:38:32Z</time>
      </trkpt>
      <trkpt lat="45.71228" lon="4.7445">
        <ele>319.6</ele>
        <time>2025-11-11T08:38:33Z</time>
      </trkpt>
      <trkpt lat="45.71228" lon="4.74441">
        <ele>319.4</ele>
        <time>2025-11-11T08:38:34Z</time>
      </trkpt>
      <trkpt lat="45.71229" lon="4.74432">
        <ele>319.2</ele>
        <time>2025-11-11T08:38:35Z</time>
      </trkpt>
      <trkpt lat="45.71229" lon="4.74423">
        <ele>319</ele>
        <time>2025-11-11T08:38:36Z</time>
      </trkpt>
      <trkpt lat="45.71229" lon="4.74414">
        <ele>318.8</ele>
        <time>2025-11-11T08:38:37Z</time>
      </trkpt>
      <trkpt lat="45.71228" lon="4.74404">
        <ele>318.4</ele>
        <time>2025-11-11T08:38:38Z</time>
      </trkpt>
      <trkpt lat="45.71227" lon="4.74394">
        <ele>318.2</ele>
        <time>2025-11-11T08:38:39Z</time>
      </trkpt>
      <trkpt lat="45.71226" lon="4.74384">
        <ele>317.8</ele>
        <time>2025-11-11T08:38:40Z</time>
      </trkpt>
      <trkpt lat="45.71225" lon="4.74374">
        <ele>317.4</ele>
        <time>2025-11-11T08:38:41Z</time>
      </trkpt>
      <trkpt lat="45.71223" lon="4.74364">
        <ele>317</ele>
        <time>2025-11-11T08:38:42Z</time>
      </trkpt>
      <trkpt lat="45.71223" lon="4.74356">
        <ele>316.8</ele>
        <time>2025-11-11T08:38:43Z</time>
      </trkpt>
      <trkpt lat="45.71222" lon="4.7435">
        <ele>316.8</ele>
        <time>2025-11-11T08:38:44Z</time>
      </trkpt>
      <trkpt lat="45.71222" lon="4.74347">
        <ele>317</ele>
        <time>2025-11-11T08:38:45Z</time>
      </trkpt>
      <trkpt lat="45.71221" lon="4.74346">
        <ele>317.2</ele>
        <time>2025-11-11T08:38:46Z</time>
      </trkpt>
      <trkpt lat="45.71221" lon="4.74346">
        <ele>317.4</ele>
        <time>2025-11-11T08:38:47Z</time>
      </trkpt>
      <trkpt lat="45.71221" lon="4.74346">
        <ele>317.6</ele>
        <time>2025-11-11T08:38:48Z</time>
      </trkpt>
      <trkpt lat="45.71221" lon="4.74346">
        <ele>317.8</ele>
        <time>2025-11-11T08:38:49Z</time>
      </trkpt>
      <trkpt lat="45.71221" lon="4.74346">
        <ele>317.8</ele>
        <time>2025-11-11T08:38:50Z</time>
      </trkpt>
      <trkpt lat="45.71221" lon="4.74346">
        <ele>317.8</ele>
        <time>2025-11-11T08:38:51Z</time>
      </trkpt>
      <trkpt lat="45.71221" lon="4.74346">
        <ele>317.8</ele>
        <time>2025-11-11T08:38:52Z</time>
      </trkpt>
      <trkpt lat="45.71221" lon="4.74346">
        <ele>317.8</ele>
        <time>2025-11-11T08:38:53Z</time>
      </trkpt>
      <trkpt lat="45.71221" lon="4.74346">
        <ele>317.8</ele>
        <time>2025-11-11T08:38:54Z</time>
      </trkpt>
      <trkpt lat="45.71221" lon="4.74346">
        <ele>317.8</ele>
        <time>2025-11-11T08:38:55Z</time>
      </trkpt>
      <trkpt lat="45.71221" lon="4.74346">
        <ele>317.8</ele>
        <time>2025-11-11T08:38:56Z</time>
      </trkpt>
      <trkpt lat="45.71221" lon="4.74346">
        <ele>317.8</ele>
        <time>2025-11-11T08:38:57Z</time>
      </trkpt>
      <trkpt lat="45.71221" lon="4.74346">
        <ele>317.8</ele>
        <time>2025-11-11T08:38:58Z</time>
      </trkpt>
      <trkpt lat="45.71221" lon="4.74346">
        <ele>317.6</ele>
        <time>2025-11-11T08:38:59Z</time>
      </trkpt>
      <trkpt lat="45.71221" lon="4.74346">
        <ele>317.6</ele>
        <time>2025-11-11T08:39:00Z</time>
      </trkpt>
      <trkpt lat="45.71221" lon="4.74346">
        <ele>317.6</ele>
        <time>2025-11-11T08:39:01Z</time>
      </trkpt>
      <trkpt lat="45.71221" lon="4.74346">
        <ele>317.6</ele>
        <time>2025-11-11T08:39:02Z</time>
      </trkpt>
      <trkpt lat="45.71221" lon="4.74346">
        <ele>317.6</ele>
        <time>2025-11-11T08:39:03Z</time>
      </trkpt>
      <trkpt lat="45.71221" lon="4.74346">
        <ele>317.6</ele>
        <time>2025-11-11T08:39:04Z</time>
      </trkpt>
      <trkpt lat="45.71221" lon="4.74346">
        <ele>317.6</ele>
        <time>2025-11-11T08:39:05Z</time>
      </trkpt>
      <trkpt lat="45.71221" lon="4.74346">
        <ele>317.4</ele>
        <time>2025-11-11T08:39:06Z</time>
      </trkpt>
      <trkpt lat="45.71221" lon="4.74346">
        <ele>317.4</ele>
        <time>2025-11-11T08:39:07Z</time>
      </trkpt>
      <trkpt lat="45.71221" lon="4.74346">
        <ele>317.4</ele>
        <time>2025-11-11T08:39:08Z</time>
      </trkpt>
      <trkpt lat="45.71221" lon="4.74346">
        <ele>317.4</ele>
        <time>2025-11-11T08:39:09Z</time>
      </trkpt>
      <trkpt lat="45.71221" lon="4.74346">
        <ele>317.4</ele>
        <time>2025-11-11T08:39:10Z</time>
      </trkpt>
      <trkpt lat="45.71221" lon="4.74346">
        <ele>317.4</ele>
        <time>2025-11-11T08:39:11Z</time>
      </trkpt>
      <trkpt lat="45.71221" lon="4.74346">
        <ele>317.4</ele>
        <time>2025-11-11T08:39:12Z</time>
      </trkpt>
      <trkpt lat="45.71221" lon="4.74346">
        <ele>317.4</ele>
        <time>2025-11-11T08:39:13Z</time>
      </trkpt>
      <trkpt lat="45.71221" lon="4.74346">
        <ele>317.4</ele>
        <time>2025-11-11T08:39:14Z</time>
      </trkpt>
      <trkpt lat="45.71221" lon="4.74346">
        <ele>317.4</ele>
        <time>2025-11-11T08:39:15Z</time>
      </trkpt>
      <trkpt lat="45.71221" lon="4.74346">
        <ele>317.4</ele>
        <time>2025-11-11T08:39:16Z</time>
      </trkpt>
      <trkpt lat="45.71221" lon="4.74346">
        <ele>317.4</ele>
        <time>2025-11-11T08:39:17Z</time>
      </trkpt>
      <trkpt lat="45.71221" lon="4.74346">
        <ele>317.4</ele>
        <time>2025-11-11T08:39:18Z</time>
      </trkpt>
      <trkpt lat="45.71221" lon="4.74346">
        <ele>317.4</ele>
        <time>2025-11-11T08:39:19Z</time>
      </trkpt>
      <trkpt lat="45.71221" lon="4.74346">
        <ele>317.4</ele>
        <time>2025-11-11T08:39:20Z</time>
      </trkpt>
      <trkpt lat="45.71221" lon="4.74346">
        <ele>317.2</ele>
        <time>2025-11-11T08:39:21Z</time>
      </trkpt>
      <trkpt lat="45.71221" lon="4.74346">
        <ele>317.2</ele>
        <time>2025-11-11T08:39:22Z</time>
      </trkpt>
      <trkpt lat="45.71221" lon="4.74346">
        <ele>317.2</ele>
        <time>2025-11-11T08:39:23Z</time>
      </trkpt>
      <trkpt lat="45.71221" lon="4.74346">
        <ele>317.2</ele>
        <time>2025-11-11T08:39:24Z</time>
      </trkpt>
      <trkpt lat="45.71221" lon="4.74346">
        <ele>317.2</ele>
        <time>2025-11-11T08:39:25Z</time>
      </trkpt>
      <trkpt lat="45.71221" lon="4.74346">
        <ele>317.2</ele>
        <time>2025-11-11T08:39:26Z</time>
      </trkpt>
      <trkpt lat="45.71221" lon="4.74346">
        <ele>317.2</ele>
        <time>2025-11-11T08:39:27Z</time>
      </trkpt>
      <trkpt lat="45.71221" lon="4.74346">
        <ele>317.2</ele>
        <time>2025-11-11T08:39:28Z</time>
      </trkpt>
      <trkpt lat="45.71221" lon="4.74346">
        <ele>317.2</ele>
        <time>2025-11-11T08:39:29Z</time>
      </trkpt>
      <trkpt lat="45.71221" lon="4.74346">
        <ele>317.2</ele>
        <time>2025-11-11T08:39:30Z</time>
      </trkpt>
      <trkpt lat="45.71221" lon="4.74346">
        <ele>317.2</ele>
        <time>2025-11-11T08:39:31Z</time>
      </trkpt>
      <trkpt lat="45.71221" lon="4.74346">
        <ele>317.2</ele>
        <time>2025-11-11T08:39:32Z</time>
      </trkpt>
      <trkpt lat="45.71221" lon="4.74346">
        <ele>317.2</ele>
        <time>2025-11-11T08:39:33Z</time>
      </trkpt>
      <trkpt lat="45.71221" lon="4.74346">
        <ele>317.2</ele>
        <time>2025-11-11T08:39:34Z</time>
      </trkpt>
      <trkpt lat="45.71221" lon="4.74346">
        <ele>317.2</ele>
        <time>2025-11-11T08:39:35Z</time>
      </trkpt>
      <trkpt lat="45.71221" lon="4.74346">
        <ele>317.2</ele>
        <time>2025-11-11T08:39:36Z</time>
      </trkpt>
      <trkpt lat="45.71221" lon="4.74346">
        <ele>317.2</ele>
        <time>2025-11-11T08:39:37Z</time>
      </trkpt>
      <trkpt lat="45.71221" lon="4.74344">
        <ele>317</ele>
        <time>2025-11-11T08:39:38Z</time>
      </trkpt>
      <trkpt lat="45.7122" lon="4.74341">
        <ele>317</ele>
        <time>2025-11-11T08:39:39Z</time>
      </trkpt>
      <trkpt lat="45.71219" lon="4.74337">
        <ele>316.8</ele>
        <time>2025-11-11T08:39:40Z</time>
      </trkpt>
      <trkpt lat="45.71217" lon="4.74332">
        <ele>316.8</ele>
        <time>2025-11-11T08:39:41Z</time>
      </trkpt>
      <trkpt lat="45.71215" lon="4.74326">
        <ele>316.4</ele>
        <time>2025-11-11T08:39:42Z</time>
      </trkpt>
      <trkpt lat="45.71213" lon="4.74319">
        <ele>316.2</ele>
        <time>2025-11-11T08:39:43Z</time>
      </trkpt>
      <trkpt lat="45.7121" lon="4.74311">
        <ele>315.8</ele>
        <time>2025-11-11T08:39:44Z</time>
      </trkpt>
      <trkpt lat="45.71208" lon="4.74302">
        <ele>315.4</ele>
        <time>2025-11-11T08:39:45Z</time>
      </trkpt>
      <trkpt lat="45.71205" lon="4.74293">
        <ele>315</ele>
        <time>2025-11-11T08:39:46Z</time>
      </trkpt>
      <trkpt lat="45.71202" lon="4.74284">
        <ele>314.6</ele>
        <time>2025-11-11T08:39:47Z</time>
      </trkpt>
      <trkpt lat="45.712" lon="4.74274">
        <ele>314.2</ele>
        <time>2025-11-11T08:39:48Z</time>
      </trkpt>
      <trkpt lat="45.71198" lon="4.74265">
        <ele>314</ele>
        <time>2025-11-11T08:39:49Z</time>
      </trkpt>
      <trkpt lat="45.71196" lon="4.74256">
        <ele>314</ele>
        <time>2025-11-11T08:39:50Z</time>
      </trkpt>
      <trkpt lat="45.71194" lon="4.74248">
        <ele>314</ele>
        <time>2025-11-11T08:39:51Z</time>
      </trkpt>
      <trkpt lat="45.71192" lon="4.74239">
        <ele>314</ele>
        <time>2025-11-11T08:39:52Z</time>
      </trkpt>
      <trkpt lat="45.7119" lon="4.74231">
        <ele>314.2</ele>
        <time>2025-11-11T08:39:53Z</time>
      </trkpt>
      <trkpt lat="45.71188" lon="4.74222">
        <ele>314.4</ele>
        <time>2025-11-11T08:39:54Z</time>
      </trkpt>
      <trkpt lat="45.71187" lon="4.74214">
        <ele>314.6</ele>
        <time>2025-11-11T08:39:55Z</time>
      </trkpt>
      <trkpt lat="45.71186" lon="4.74205">
        <ele>314.8</ele>
        <time>2025-11-11T08:39:56Z</time>
      </trkpt>
      <trkpt lat="45.71185" lon="4.74196">
        <ele>315</ele>
        <time>2025-11-11T08:39:57Z</time>
      </trkpt>
      <trkpt lat="45.71183" lon="4.74188">
        <ele>315.2</ele>
        <time>2025-11-11T08:39:58Z</time>
      </trkpt>
      <trkpt lat="45.71182" lon="4.74179">
        <ele>315.4</ele>
        <time>2025-11-11T08:39:59Z</time>
      </trkpt>
      <trkpt lat="45.7118" lon="4.74171">
        <ele>315.4</ele>
        <time>2025-11-11T08:40:00Z</time>
      </trkpt>
      <trkpt lat="45.71179" lon="4.74163">
        <ele>315.6</ele>
        <time>2025-11-11T08:40:01Z</time>
      </trkpt>
      <trkpt lat="45.71177" lon="4.74155">
        <ele>315.8</ele>
        <time>2025-11-11T08:40:02Z</time>
      </trkpt>
      <trkpt lat="45.71176" lon="4.74147">
        <ele>316</ele>
        <time>2025-11-11T08:40:03Z</time>
      </trkpt>
      <trkpt lat="45.71174" lon="4.74139">
        <ele>316.2</ele>
        <time>2025-11-11T08:40:04Z</time>
      </trkpt>
      <trkpt lat="45.71172" lon="4.74131">
        <ele>316.4</ele>
        <time>2025-11-11T08:40:05Z</time>
      </trkpt>
      <trkpt lat="45.71171" lon="4.74124">
        <ele>316.6</ele>
        <time>2025-11-11T08:40:06Z</time>
      </trkpt>
      <trkpt lat="45.7117" lon="4.74116">
        <ele>316.8</ele>
        <time>2025-11-11T08:40:07Z</time>
      </trkpt>
      <trkpt lat="45.71169" lon="4.74108">
        <ele>317</ele>
        <time>2025-11-11T08:40:08Z</time>
      </trkpt>
      <trkpt lat="45.71168" lon="4.74101">
        <ele>317.2</ele>
        <time>2025-11-11T08:40:09Z</time>
      </trkpt>
      <trkpt lat="45.71167" lon="4.74094">
        <ele>317.4</ele>
        <time>2025-11-11T08:40:10Z</time>
      </trkpt>
      <trkpt lat="45.71166" lon="4.74086">
        <ele>317.6</ele>
        <time>2025-11-11T08:40:11Z</time>
      </trkpt>
      <trkpt lat="45.71165" lon="4.74079">
        <ele>317.8</ele>
        <time>2025-11-11T08:40:12Z</time>
      </trkpt>
      <trkpt lat="45.71165" lon="4.74071">
        <ele>318.2</ele>
        <time>2025-11-11T08:40:13Z</time>
      </trkpt>
      <trkpt lat="45.71166" lon="4.74063">
        <ele>318.4</ele>
        <time>2025-11-11T08:40:14Z</time>
      </trkpt>
      <trkpt lat="45.71167" lon="4.74055">
        <ele>318.4</ele>
        <time>2025-11-11T08:40:15Z</time>
      </trkpt>
      <trkpt lat="45.71168" lon="4.74047">
        <ele>318.6</ele>
        <time>2025-11-11T08:40:16Z</time>
      </trkpt>
      <trkpt lat="45.71169" lon="4.74038">
        <ele>318.6</ele>
        <time>2025-11-11T08:40:17Z</time>
      </trkpt>
      <trkpt lat="45.7117" lon="4.7403">
        <ele>318.8</ele>
        <time>2025-11-11T08:40:18Z</time>
      </trkpt>
      <trkpt lat="45.7117" lon="4.74022">
        <ele>318.8</ele>
        <time>2025-11-11T08:40:19Z</time>
      </trkpt>
      <trkpt lat="45.71171" lon="4.74014">
        <ele>319</ele>
        <time>2025-11-11T08:40:20Z</time>
      </trkpt>
      <trkpt lat="45.71172" lon="4.74006">
        <ele>319.2</ele>
        <time>2025-11-11T08:40:21Z</time>
      </trkpt>
      <trkpt lat="45.71173" lon="4.73998">
        <ele>319.2</ele>
        <time>2025-11-11T08:40:22Z</time>
      </trkpt>
      <trkpt lat="45.71173" lon="4.7399">
        <ele>319.2</ele>
        <time>2025-11-11T08:40:23Z</time>
      </trkpt>
      <trkpt lat="45.71174" lon="4.73981">
        <ele>319.4</ele>
        <time>2025-11-11T08:40:24Z</time>
      </trkpt>
      <trkpt lat="45.71175" lon="4.73973">
        <ele>319.4</ele>
        <time>2025-11-11T08:40:25Z</time>
      </trkpt>
      <trkpt lat="45.71175" lon="4.73965">
        <ele>319.4</ele>
        <time>2025-11-11T08:40:26Z</time>
      </trkpt>
      <trkpt lat="45.71173" lon="4.73957">
        <ele>319.4</ele>
        <time>2025-11-11T08:40:27Z</time>
      </trkpt>
      <trkpt lat="45.71169" lon="4.73952">
        <ele>319.4</ele>
        <time>2025-11-11T08:40:28Z</time>
      </trkpt>
      <trkpt lat="45.71164" lon="4.73947">
        <ele>319.4</ele>
        <time>2025-11-11T08:40:29Z</time>
      </trkpt>
      <trkpt lat="45.71158" lon="4.73943">
        <ele>319.4</ele>
        <time>2025-11-11T08:40:30Z</time>
      </trkpt>
      <trkpt lat="45.71152" lon="4.73938">
        <ele>319.2</ele>
        <time>2025-11-11T08:40:31Z</time>
      </trkpt>
      <trkpt lat="45.71147" lon="4.73934">
        <ele>319</ele>
        <time>2025-11-11T08:40:32Z</time>
      </trkpt>
      <trkpt lat="45.71141" lon="4.73929">
        <ele>318.8</ele>
        <time>2025-11-11T08:40:33Z</time>
      </trkpt>
      <trkpt lat="45.71136" lon="4.73924">
        <ele>318.6</ele>
        <time>2025-11-11T08:40:34Z</time>
      </trkpt>
      <trkpt lat="45.71131" lon="4.73918">
        <ele>318.2</ele>
        <time>2025-11-11T08:40:35Z</time>
      </trkpt>
      <trkpt lat="45.71125" lon="4.73913">
        <ele>318.2</ele>
        <time>2025-11-11T08:40:36Z</time>
      </trkpt>
      <trkpt lat="45.7112" lon="4.73909">
        <ele>318</ele>
        <time>2025-11-11T08:40:37Z</time>
      </trkpt>
      <trkpt lat="45.71114" lon="4.73905">
        <ele>317.8</ele>
        <time>2025-11-11T08:40:38Z</time>
      </trkpt>
      <trkpt lat="45.71108" lon="4.73901">
        <ele>317.6</ele>
        <time>2025-11-11T08:40:39Z</time>
      </trkpt>
      <trkpt lat="45.71102" lon="4.73898">
        <ele>317.6</ele>
        <time>2025-11-11T08:40:40Z</time>
      </trkpt>
      <trkpt lat="45.71097" lon="4.73893">
        <ele>317.4</ele>
        <time>2025-11-11T08:40:41Z</time>
      </trkpt>
      <trkpt lat="45.71092" lon="4.73887">
        <ele>317.2</ele>
        <time>2025-11-11T08:40:42Z</time>
      </trkpt>
      <trkpt lat="45.71089" lon="4.7388">
        <ele>317.2</ele>
        <time>2025-11-11T08:40:43Z</time>
      </trkpt>
      <trkpt lat="45.71084" lon="4.73874">
        <ele>317</ele>
        <time>2025-11-11T08:40:44Z</time>
      </trkpt>
      <trkpt lat="45.71079" lon="4.73869">
        <ele>317</ele>
        <time>2025-11-11T08:40:45Z</time>
      </trkpt>
      <trkpt lat="45.71074" lon="4.73865">
        <ele>317</ele>
        <time>2025-11-11T08:40:46Z</time>
      </trkpt>
      <trkpt lat="45.71068" lon="4.73861">
        <ele>317</ele>
        <time>2025-11-11T08:40:47Z</time>
      </trkpt>
      <trkpt lat="45.71062" lon="4.73857">
        <ele>316.8</ele>
        <time>2025-11-11T08:40:48Z</time>
      </trkpt>
      <trkpt lat="45.71056" lon="4.73852">
        <ele>316.6</ele>
        <time>2025-11-11T08:40:49Z</time>
      </trkpt>
      <trkpt lat="45.71051" lon="4.73847">
        <ele>316.4</ele>
        <time>2025-11-11T08:40:50Z</time>
      </trkpt>
      <trkpt lat="45.71045" lon="4.73841">
        <ele>316.2</ele>
        <time>2025-11-11T08:40:51Z</time>
      </trkpt>
      <trkpt lat="45.7104" lon="4.73835">
        <ele>316</ele>
        <time>2025-11-11T08:40:52Z</time>
      </trkpt>
      <trkpt lat="45.71035" lon="4.7383">
        <ele>315.6</ele>
        <time>2025-11-11T08:40:53Z</time>
      </trkpt>
      <trkpt lat="45.7103" lon="4.73824">
        <ele>315.4</ele>
        <time>2025-11-11T08:40:54Z</time>
      </trkpt>
      <trkpt lat="45.71024" lon="4.73818">
        <ele>315.2</ele>
        <time>2025-11-11T08:40:55Z</time>
      </trkpt>
      <trkpt lat="45.7102" lon="4.73813">
        <ele>315</ele>
        <time>2025-11-11T08:40:56Z</time>
      </trkpt>
      <trkpt lat="45.71015" lon="4.73806">
        <ele>315</ele>
        <time>2025-11-11T08:40:57Z</time>
      </trkpt>
      <trkpt lat="45.7101" lon="4.738">
        <ele>314.8</ele>
        <time>2025-11-11T08:40:58Z</time>
      </trkpt>
      <trkpt lat="45.71006" lon="4.73794">
        <ele>314.8</ele>
        <time>2025-11-11T08:40:59Z</time>
      </trkpt>
      <trkpt lat="45.71" lon="4.73788">
        <ele>314.8</ele>
        <time>2025-11-11T08:41:00Z</time>
      </trkpt>
      <trkpt lat="45.70995" lon="4.73782">
        <ele>314.6</ele>
        <time>2025-11-11T08:41:01Z</time>
      </trkpt>
      <trkpt lat="45.7099" lon="4.73777">
        <ele>314.6</ele>
        <time>2025-11-11T08:41:02Z</time>
      </trkpt>
      <trkpt lat="45.70986" lon="4.73771">
        <ele>314.4</ele>
        <time>2025-11-11T08:41:03Z</time>
      </trkpt>
      <trkpt lat="45.70981" lon="4.73765">
        <ele>314.2</ele>
        <time>2025-11-11T08:41:04Z</time>
      </trkpt>
      <trkpt lat="45.70976" lon="4.7376">
        <ele>314.2</ele>
        <time>2025-11-11T08:41:05Z</time>
      </trkpt>
      <trkpt lat="45.70971" lon="4.73755">
        <ele>314</ele>
        <time>2025-11-11T08:41:06Z</time>
      </trkpt>
      <trkpt lat="45.70967" lon="4.7375">
        <ele>313.8</ele>
        <time>2025-11-11T08:41:07Z</time>
      </trkpt>
      <trkpt lat="45.70963" lon="4.73745">
        <ele>313.8</ele>
        <time>2025-11-11T08:41:08Z</time>
      </trkpt>
      <trkpt lat="45.7096" lon="4.7374">
        <ele>313.8</ele>
        <time>2025-11-11T08:41:09Z</time>
      </trkpt>
      <trkpt lat="45.70958" lon="4.73736">
        <ele>313.8</ele>
        <time>2025-11-11T08:41:10Z</time>
      </trkpt>
      <trkpt lat="45.70956" lon="4.73734">
        <ele>314</ele>
        <time>2025-11-11T08:41:11Z</time>
      </trkpt>
      <trkpt lat="45.70954" lon="4.73732">
        <ele>314.2</ele>
        <time>2025-11-11T08:41:12Z</time>
      </trkpt>
      <trkpt lat="45.70953" lon="4.7373">
        <ele>314.2</ele>
        <time>2025-11-11T08:41:13Z</time>
      </trkpt>
      <trkpt lat="45.70951" lon="4.73728">
        <ele>314.4</ele>
        <time>2025-11-11T08:41:14Z</time>
      </trkpt>
      <trkpt lat="45.7095" lon="4.73727">
        <ele>314.6</ele>
        <time>2025-11-11T08:41:15Z</time>
      </trkpt>
      <trkpt lat="45.70948" lon="4.73725">
        <ele>314.6</ele>
        <time>2025-11-11T08:41:16Z</time>
      </trkpt>
      <trkpt lat="45.70946" lon="4.73723">
        <ele>314.6</ele>
        <time>2025-11-11T08:41:17Z</time>
      </trkpt>
      <trkpt lat="45.70943" lon="4.7372">
        <ele>314.6</ele>
        <time>2025-11-11T08:41:18Z</time>
      </trkpt>
      <trkpt lat="45.7094" lon="4.73718">
        <ele>314.4</ele>
        <time>2025-11-11T08:41:19Z</time>
      </trkpt>
      <trkpt lat="45.70937" lon="4.73714">
        <ele>314.2</ele>
        <time>2025-11-11T08:41:20Z</time>
      </trkpt>
      <trkpt lat="45.70933" lon="4.7371">
        <ele>314.2</ele>
        <time>2025-11-11T08:41:21Z</time>
      </trkpt>
      <trkpt lat="45.70929" lon="4.73706">
        <ele>314</ele>
        <time>2025-11-11T08:41:22Z</time>
      </trkpt>
      <trkpt lat="45.70925" lon="4.73703">
        <ele>313.8</ele>
        <time>2025-11-11T08:41:23Z</time>
      </trkpt>
      <trkpt lat="45.70921" lon="4.73699">
        <ele>313.6</ele>
        <time>2025-11-11T08:41:24Z</time>
      </trkpt>
      <trkpt lat="45.70918" lon="4.73694">
        <ele>313.6</ele>
        <time>2025-11-11T08:41:25Z</time>
      </trkpt>
      <trkpt lat="45.70915" lon="4.7369">
        <ele>313.4</ele>
        <time>2025-11-11T08:41:26Z</time>
      </trkpt>
      <trkpt lat="45.70913" lon="4.73685">
        <ele>313.4</ele>
        <time>2025-11-11T08:41:27Z</time>
      </trkpt>
      <trkpt lat="45.7091" lon="4.73681">
        <ele>313.4</ele>
        <time>2025-11-11T08:41:28Z</time>
      </trkpt>
      <trkpt lat="45.70908" lon="4.73676">
        <ele>313.4</ele>
        <time>2025-11-11T08:41:29Z</time>
      </trkpt>
      <trkpt lat="45.70905" lon="4.73673">
        <ele>313.4</ele>
        <time>2025-11-11T08:41:30Z</time>
      </trkpt>
      <trkpt lat="45.70903" lon="4.73671">
        <ele>313.4</ele>
        <time>2025-11-11T08:41:31Z</time>
      </trkpt>
      <trkpt lat="45.709" lon="4.7367">
        <ele>313.6</ele>
        <time>2025-11-11T08:41:32Z</time>
      </trkpt>
      <trkpt lat="45.70898" lon="4.7367">
        <ele>313.6</ele>
        <time>2025-11-11T08:41:33Z</time>
      </trkpt>
      <trkpt lat="45.70897" lon="4.73672">
        <ele>313.8</ele>
        <time>2025-11-11T08:41:34Z</time>
      </trkpt>
      <trkpt lat="45.70897" lon="4.73673">
        <ele>313.8</ele>
        <time>2025-11-11T08:41:35Z</time>
      </trkpt>
      <trkpt lat="45.70897" lon="4.73673">
        <ele>314</ele>
        <time>2025-11-11T08:41:36Z</time>
      </trkpt>
      <trkpt lat="45.70897" lon="4.73673">
        <ele>314</ele>
        <time>2025-11-11T08:41:37Z</time>
      </trkpt>
      <trkpt lat="45.70897" lon="4.73673">
        <ele>314</ele>
        <time>2025-11-11T08:41:38Z</time>
      </trkpt>
      <trkpt lat="45.70897" lon="4.73673">
        <ele>314.2</ele>
        <time>2025-11-11T08:41:39Z</time>
      </trkpt>
      <trkpt lat="45.70897" lon="4.73673">
        <ele>314.2</ele>
        <time>2025-11-11T08:41:40Z</time>
      </trkpt>
      <trkpt lat="45.70897" lon="4.73673">
        <ele>314</ele>
        <time>2025-11-11T08:41:41Z</time>
      </trkpt>
      <trkpt lat="45.70897" lon="4.73673">
        <ele>314</ele>
        <time>2025-11-11T08:41:42Z</time>
      </trkpt>
      <trkpt lat="45.70897" lon="4.73673">
        <ele>314</ele>
        <time>2025-11-11T08:41:43Z</time>
      </trkpt>
      <trkpt lat="45.70897" lon="4.73673">
        <ele>314</ele>
        <time>2025-11-11T08:41:44Z</time>
      </trkpt>
      <trkpt lat="45.70897" lon="4.73673">
        <ele>314</ele>
        <time>2025-11-11T08:41:45Z</time>
      </trkpt>
      <trkpt lat="45.70897" lon="4.73673">
        <ele>314</ele>
        <time>2025-11-11T08:41:46Z</time>
      </trkpt>
      <trkpt lat="45.70897" lon="4.73673">
        <ele>314</ele>
        <time>2025-11-11T08:41:47Z</time>
      </trkpt>
      <trkpt lat="45.70897" lon="4.73673">
        <ele>314</ele>
        <time>2025-11-11T08:41:48Z</time>
      </trkpt>
      <trkpt lat="45.70897" lon="4.73673">
        <ele>314</ele>
        <time>2025-11-11T08:41:49Z</time>
      </trkpt>
      <trkpt lat="45.70897" lon="4.73673">
        <ele>314</ele>
        <time>2025-11-11T08:41:50Z</time>
      </trkpt>
      <trkpt lat="45.70897" lon="4.73673">
        <ele>314</ele>
        <time>2025-11-11T08:41:51Z</time>
      </trkpt>
      <trkpt lat="45.70897" lon="4.73673">
        <ele>314</ele>
        <time>2025-11-11T08:41:52Z</time>
      </trkpt>
      <trkpt lat="45.70897" lon="4.73673">
        <ele>314</ele>
        <time>2025-11-11T08:41:53Z</time>
      </trkpt>
      <trkpt lat="45.70897" lon="4.73673">
        <ele>314</ele>
        <time>2025-11-11T08:41:54Z</time>
      </trkpt>
      <trkpt lat="45.70897" lon="4.73673">
        <ele>314</ele>
        <time>2025-11-11T08:41:55Z</time>
      </trkpt>
      <trkpt lat="45.70897" lon="4.73673">
        <ele>314</ele>
        <time>2025-11-11T08:41:56Z</time>
      </trkpt>
      <trkpt lat="45.70897" lon="4.73673">
        <ele>314</ele>
        <time>2025-11-11T08:41:57Z</time>
      </trkpt>
      <trkpt lat="45.70897" lon="4.73673">
        <ele>314</ele>
        <time>2025-11-11T08:41:58Z</time>
      </trkpt>
      <trkpt lat="45.70897" lon="4.73673">
        <ele>314</ele>
        <time>2025-11-11T08:41:59Z</time>
      </trkpt>
      <trkpt lat="45.70897" lon="4.73673">
        <ele>314</ele>
        <time>2025-11-11T08:42:00Z</time>
      </trkpt>
      <trkpt lat="45.70897" lon="4.73673">
        <ele>314</ele>
        <time>2025-11-11T08:42:01Z</time>
      </trkpt>
      <trkpt lat="45.70897" lon="4.73673">
        <ele>314</ele>
        <time>2025-11-11T08:42:02Z</time>
      </trkpt>
      <trkpt lat="45.70897" lon="4.73673">
        <ele>314</ele>
        <time>2025-11-11T08:42:03Z</time>
      </trkpt>
      <trkpt lat="45.70897" lon="4.73673">
        <ele>314</ele>
        <time>2025-11-11T08:42:04Z</time>
      </trkpt>
      <trkpt lat="45.70897" lon="4.73673">
        <ele>314</ele>
        <time>2025-11-11T08:42:05Z</time>
      </trkpt>
      <trkpt lat="45.70897" lon="4.73673">
        <ele>314</ele>
        <time>2025-11-11T08:42:06Z</time>
      </trkpt>
      <trkpt lat="45.70897" lon="4.73673">
        <ele>314</ele>
        <time>2025-11-11T08:42:07Z</time>
      </trkpt>
      <trkpt lat="45.70897" lon="4.73673">
        <ele>314</ele>
        <time>2025-11-11T08:42:08Z</time>
      </trkpt>
      <trkpt lat="45.70897" lon="4.73673">
        <ele>314</ele>
        <time>2025-11-11T08:42:09Z</time>
      </trkpt>
      <trkpt lat="45.70897" lon="4.73673">
        <ele>314</ele>
        <time>2025-11-11T08:42:10Z</time>
      </trkpt>
      <trkpt lat="45.70897" lon="4.73673">
        <ele>314</ele>
        <time>2025-11-11T08:42:11Z</time>
      </trkpt>
      <trkpt lat="45.70897" lon="4.73673">
        <ele>314</ele>
        <time>2025-11-11T08:42:12Z</time>
      </trkpt>
      <trkpt lat="45.70897" lon="4.73673">
        <ele>314</ele>
        <time>2025-11-11T08:42:13Z</time>
      </trkpt>
      <trkpt lat="45.70897" lon="4.73673">
        <ele>314</ele>
        <time>2025-11-11T08:42:14Z</time>
      </trkpt>
      <trkpt lat="45.70897" lon="4.73673">
        <ele>314</ele>
        <time>2025-11-11T08:42:15Z</time>
      </trkpt>
      <trkpt lat="45.70897" lon="4.73673">
        <ele>314</ele>
        <time>2025-11-11T08:42:16Z</time>
      </trkpt>
      <trkpt lat="45.70897" lon="4.73673">
        <ele>314</ele>
        <time>2025-11-11T08:42:17Z</time>
      </trkpt>
      <trkpt lat="45.70897" lon="4.73673">
        <ele>314</ele>
        <time>2025-11-11T08:42:18Z</time>
      </trkpt>
      <trkpt lat="45.70897" lon="4.73673">
        <ele>314</ele>
        <time>2025-11-11T08:42:19Z</time>
      </trkpt>
      <trkpt lat="45.70897" lon="4.73673">
        <ele>314</ele>
        <time>2025-11-11T08:42:20Z</time>
      </trkpt>
      <trkpt lat="45.70897" lon="4.73673">
        <ele>314</ele>
        <time>2025-11-11T08:42:21Z</time>
      </trkpt>
      <trkpt lat="45.70897" lon="4.73673">
        <ele>314</ele>
        <time>2025-11-11T08:42:22Z</time>
      </trkpt>
      <trkpt lat="45.70897" lon="4.73673">
        <ele>314</ele>
        <time>2025-11-11T08:42:23Z</time>
      </trkpt>
      <trkpt lat="45.70897" lon="4.73673">
        <ele>314</ele>
        <time>2025-11-11T08:42:24Z</time>
      </trkpt>
      <trkpt lat="45.70897" lon="4.73673">
        <ele>314</ele>
        <time>2025-11-11T08:42:25Z</time>
      </trkpt>
      <trkpt lat="45.70897" lon="4.73673">
        <ele>314</ele>
        <time>2025-11-11T08:42:26Z</time>
      </trkpt>
      <trkpt lat="45.70897" lon="4.73673">
        <ele>314</ele>
        <time>2025-11-11T08:42:27Z</time>
      </trkpt>
      <trkpt lat="45.70897" lon="4.73673">
        <ele>314</ele>
        <time>2025-11-11T08:42:28Z</time>
      </trkpt>
      <trkpt lat="45.70897" lon="4.73673">
        <ele>314</ele>
        <time>2025-11-11T08:42:29Z</time>
      </trkpt>
      <trkpt lat="45.70897" lon="4.73673">
        <ele>314</ele>
        <time>2025-11-11T08:42:30Z</time>
      </trkpt>
      <trkpt lat="45.70897" lon="4.73673">
        <ele>314</ele>
        <time>2025-11-11T08:42:31Z</time>
      </trkpt>
      <trkpt lat="45.70897" lon="4.73673">
        <ele>314</ele>
        <time>2025-11-11T08:42:32Z</time>
      </trkpt>
      <trkpt lat="45.70897" lon="4.73673">
        <ele>314</ele>
        <time>2025-11-11T08:42:33Z</time>
      </trkpt>
      <trkpt lat="45.70897" lon="4.73673">
        <ele>314</ele>
        <time>2025-11-11T08:42:34Z</time>
      </trkpt>
      <trkpt lat="45.70897" lon="4.73673">
        <ele>314</ele>
        <time>2025-11-11T08:42:35Z</time>
      </trkpt>
      <trkpt lat="45.70897" lon="4.73673">
        <ele>314</ele>
        <time>2025-11-11T08:42:36Z</time>
      </trkpt>
      <trkpt lat="45.70897" lon="4.73673">
        <ele>314</ele>
        <time>2025-11-11T08:42:37Z</time>
      </trkpt>
      <trkpt lat="45.70897" lon="4.73673">
        <ele>314</ele>
        <time>2025-11-11T08:42:38Z</time>
      </trkpt>
      <trkpt lat="45.70897" lon="4.73673">
        <ele>314</ele>
        <time>2025-11-11T08:42:39Z</time>
      </trkpt>
      <trkpt lat="45.70897" lon="4.73673">
        <ele>314</ele>
        <time>2025-11-11T08:42:40Z</time>
      </trkpt>
      <trkpt lat="45.70897" lon="4.73673">
        <ele>314</ele>
        <time>2025-11-11T08:42:41Z</time>
      </trkpt>
      <trkpt lat="45.70897" lon="4.73673">
        <ele>314</ele>
        <time>2025-11-11T08:42:42Z</time>
      </trkpt>
      <trkpt lat="45.70897" lon="4.73673">
        <ele>314</ele>
        <time>2025-11-11T08:42:43Z</time>
      </trkpt>
      <trkpt lat="45.70897" lon="4.73673">
        <ele>314</ele>
        <time>2025-11-11T08:42:44Z</time>
      </trkpt>
      <trkpt lat="45.70897" lon="4.73673">
        <ele>314</ele>
        <time>2025-11-11T08:42:45Z</time>
      </trkpt>
      <trkpt lat="45.70897" lon="4.73673">
        <ele>314</ele>
        <time>2025-11-11T08:42:46Z</time>
      </trkpt>
      <trkpt lat="45.70897" lon="4.73673">
        <ele>314</ele>
        <time>2025-11-11T08:42:47Z</time>
      </trkpt>
      <trkpt lat="45.70897" lon="4.73673">
        <ele>314</ele>
        <time>2025-11-11T08:42:48Z</time>
      </trkpt>
      <trkpt lat="45.70897" lon="4.73673">
        <ele>314</ele>
        <time>2025-11-11T08:42:49Z</time>
      </trkpt>
      <trkpt lat="45.70897" lon="4.73673">
        <ele>314</ele>
        <time>2025-11-11T08:42:50Z</time>
      </trkpt>
      <trkpt lat="45.70897" lon="4.73673">
        <ele>314</ele>
        <time>2025-11-11T08:42:51Z</time>
      </trkpt>
      <trkpt lat="45.70897" lon="4.73673">
        <ele>314</ele>
        <time>2025-11-11T08:42:52Z</time>
      </trkpt>
      <trkpt lat="45.70897" lon="4.73673">
        <ele>314</ele>
        <time>2025-11-11T08:42:53Z</time>
      </trkpt>
      <trkpt lat="45.70897" lon="4.73673">
        <ele>314</ele>
        <time>2025-11-11T08:42:54Z</time>
      </trkpt>
      <trkpt lat="45.70897" lon="4.73673">
        <ele>314</ele>
        <time>2025-11-11T08:42:55Z</time>
      </trkpt>
      <trkpt lat="45.70897" lon="4.73673">
        <ele>314</ele>
        <time>2025-11-11T08:42:56Z</time>
      </trkpt>
      <trkpt lat="45.70897" lon="4.73673">
        <ele>314</ele>
        <time>2025-11-11T08:42:57Z</time>
      </trkpt>
      <trkpt lat="45.70897" lon="4.73673">
        <ele>314</ele>
        <time>2025-11-11T08:42:58Z</time>
      </trkpt>
      <trkpt lat="45.70897" lon="4.73673">
        <ele>314</ele>
        <time>2025-11-11T08:42:59Z</time>
      </trkpt>
      <trkpt lat="45.70897" lon="4.73673">
        <ele>314</ele>
        <time>2025-11-11T08:43:00Z</time>
      </trkpt>
      <trkpt lat="45.70897" lon="4.73673">
        <ele>314</ele>
        <time>2025-11-11T08:43:01Z</time>
      </trkpt>
      <trkpt lat="45.70897" lon="4.73673">
        <ele>314</ele>
        <time>2025-11-11T08:43:02Z</time>
      </trkpt>
      <trkpt lat="45.70897" lon="4.73673">
        <ele>314</ele>
        <time>2025-11-11T08:43:03Z</time>
      </trkpt>
      <trkpt lat="45.70897" lon="4.73673">
        <ele>314</ele>
        <time>2025-11-11T08:43:04Z</time>
      </trkpt>
      <trkpt lat="45.70897" lon="4.73673">
        <ele>314</ele>
        <time>2025-11-11T08:43:05Z</time>
      </trkpt>
      <trkpt lat="45.70897" lon="4.73673">
        <ele>314</ele>
        <time>2025-11-11T08:43:06Z</time>
      </trkpt>
      <trkpt lat="45.70897" lon="4.73673">
        <ele>314</ele>
        <time>2025-11-11T08:43:07Z</time>
      </trkpt>
      <trkpt lat="45.70897" lon="4.73673">
        <ele>314</ele>
        <time>2025-11-11T08:43:08Z</time>
      </trkpt>
      <trkpt lat="45.70897" lon="4.73673">
        <ele>314</ele>
        <time>2025-11-11T08:43:09Z</time>
      </trkpt>
      <trkpt lat="45.70897" lon="4.73673">
        <ele>314</ele>
        <time>2025-11-11T08:43:10Z</time>
      </trkpt>
      <trkpt lat="45.70897" lon="4.73673">
        <ele>314</ele>
        <time>2025-11-11T08:43:11Z</time>
      </trkpt>
      <trkpt lat="45.70897" lon="4.73673">
        <ele>314</ele>
        <time>2025-11-11T08:43:12Z</time>
      </trkpt>
      <trkpt lat="45.70897" lon="4.73673">
        <ele>314</ele>
        <time>2025-11-11T08:43:13Z</time>
      </trkpt>
      <trkpt lat="45.70897" lon="4.73673">
        <ele>314</ele>
        <time>2025-11-11T08:43:14Z</time>
      </trkpt>
      <trkpt lat="45.70897" lon="4.73673">
        <ele>314</ele>
        <time>2025-11-11T08:43:15Z</time>
      </trkpt>
      <trkpt lat="45.70897" lon="4.73673">
        <ele>314</ele>
        <time>2025-11-11T08:43:16Z</time>
      </trkpt>
      <trkpt lat="45.70897" lon="4.73673">
        <ele>314</ele>
        <time>2025-11-11T08:43:17Z</time>
      </trkpt>
      <trkpt lat="45.70897" lon="4.73673">
        <ele>314</ele>
        <time>2025-11-11T08:43:18Z</time>
      </trkpt>
      <trkpt lat="45.70897" lon="4.73673">
        <ele>314</ele>
        <time>2025-11-11T08:43:19Z</time>
      </trkpt>
      <trkpt lat="45.70897" lon="4.73673">
        <ele>314</ele>
        <time>2025-11-11T08:43:20Z</time>
      </trkpt>
      <trkpt lat="45.70897" lon="4.73673">
        <ele>314</ele>
        <time>2025-11-11T08:43:21Z</time>
      </trkpt>
      <trkpt lat="45.70897" lon="4.73673">
        <ele>314</ele>
        <time>2025-11-11T08:43:22Z</time>
      </trkpt>
      <trkpt lat="45.70897" lon="4.73673">
        <ele>314</ele>
        <time>2025-11-11T08:43:23Z</time>
      </trkpt>
      <trkpt lat="45.70897" lon="4.73673">
        <ele>314</ele>
        <time>2025-11-11T08:43:24Z</time>
      </trkpt>
      <trkpt lat="45.70897" lon="4.73673">
        <ele>314</ele>
        <time>2025-11-11T08:43:25Z</time>
      </trkpt>
      <trkpt lat="45.70897" lon="4.73673">
        <ele>314</ele>
        <time>2025-11-11T08:43:26Z</time>
      </trkpt>
      <trkpt lat="45.70897" lon="4.73673">
        <ele>314</ele>
        <time>2025-11-11T08:43:27Z</time>
      </trkpt>
      <trkpt lat="45.70897" lon="4.73673">
        <ele>314</ele>
        <time>2025-11-11T08:43:28Z</time>
      </trkpt>
      <trkpt lat="45.70897" lon="4.73673">
        <ele>314</ele>
        <time>2025-11-11T08:43:29Z</time>
      </trkpt>
      <trkpt lat="45.70897" lon="4.73673">
        <ele>314</ele>
        <time>2025-11-11T08:43:30Z</time>
      </trkpt>
      <trkpt lat="45.70897" lon="4.73673">
        <ele>314</ele>
        <time>2025-11-11T08:43:31Z</time>
      </trkpt>
      <trkpt lat="45.70897" lon="4.73673">
        <ele>314</ele>
        <time>2025-11-11T08:43:32Z</time>
      </trkpt>
      <trkpt lat="45.70897" lon="4.73673">
        <ele>314</ele>
        <time>2025-11-11T08:43:33Z</time>
      </trkpt>
      <trkpt lat="45.70897" lon="4.73673">
        <ele>314</ele>
        <time>2025-11-11T08:43:34Z</time>
      </trkpt>
      <trkpt lat="45.70897" lon="4.73673">
        <ele>314</ele>
        <time>2025-11-11T08:43:35Z</time>
      </trkpt>
      <trkpt lat="45.70897" lon="4.73673">
        <ele>314</ele>
        <time>2025-11-11T08:43:36Z</time>
      </trkpt>
      <trkpt lat="45.70897" lon="4.73673">
        <ele>314</ele>
        <time>2025-11-11T08:43:37Z</time>
      </trkpt>
      <trkpt lat="45.70897" lon="4.73673">
        <ele>314</ele>
        <time>2025-11-11T08:43:38Z</time>
      </trkpt>
      <trkpt lat="45.70897" lon="4.73673">
        <ele>314</ele>
        <time>2025-11-11T08:43:39Z</time>
      </trkpt>
      <trkpt lat="45.70897" lon="4.73673">
        <ele>314</ele>
        <time>2025-11-11T08:43:40Z</time>
      </trkpt>
      <trkpt lat="45.70897" lon="4.73673">
        <ele>314</ele>
        <time>2025-11-11T08:43:41Z</time>
      </trkpt>
      <trkpt lat="45.70897" lon="4.73673">
        <ele>314</ele>
        <time>2025-11-11T08:43:42Z</time>
      </trkpt>
      <trkpt lat="45.70897" lon="4.73673">
        <ele>314</ele>
        <time>2025-11-11T08:43:43Z</time>
      </trkpt>
      <trkpt lat="45.70897" lon="4.73673">
        <ele>314</ele>
        <time>2025-11-11T08:43:44Z</time>
      </trkpt>
      <trkpt lat="45.70897" lon="4.73673">
        <ele>314</ele>
        <time>2025-11-11T08:43:45Z</time>
      </trkpt>
      <trkpt lat="45.70897" lon="4.73673">
        <ele>314</ele>
        <time>2025-11-11T08:43:46Z</time>
      </trkpt>
      <trkpt lat="45.70897" lon="4.73673">
        <ele>314</ele>
        <time>2025-11-11T08:43:47Z</time>
      </trkpt>
      <trkpt lat="45.70897" lon="4.73673">
        <ele>314</ele>
        <time>2025-11-11T08:43:48Z</time>
      </trkpt>
      <trkpt lat="45.70897" lon="4.73673">
        <ele>314</ele>
        <time>2025-11-11T08:43:49Z</time>
      </trkpt>
      <trkpt lat="45.70897" lon="4.73673">
        <ele>314</ele>
        <time>2025-11-11T08:43:50Z</time>
      </trkpt>
      <trkpt lat="45.70897" lon="4.73673">
        <ele>314</ele>
        <time>2025-11-11T08:43:51Z</time>
      </trkpt>
      <trkpt lat="45.70897" lon="4.73673">
        <ele>314</ele>
        <time>2025-11-11T08:43:52Z</time>
      </trkpt>
      <trkpt lat="45.70897" lon="4.73673">
        <ele>314</ele>
        <time>2025-11-11T08:43:53Z</time>
      </trkpt>
      <trkpt lat="45.70897" lon="4.73673">
        <ele>314</ele>
        <time>2025-11-11T08:43:54Z</time>
      </trkpt>
      <trkpt lat="45.70897" lon="4.73673">
        <ele>314</ele>
        <time>2025-11-11T08:43:55Z</time>
      </trkpt>
      <trkpt lat="45.70897" lon="4.73673">
        <ele>314</ele>
        <time>2025-11-11T08:43:56Z</time>
      </trkpt>
      <trkpt lat="45.70897" lon="4.73673">
        <ele>314</ele>
        <time>2025-11-11T08:43:57Z</time>
      </trkpt>
      <trkpt lat="45.70897" lon="4.73673">
        <ele>314</ele>
        <time>2025-11-11T08:43:58Z</time>
      </trkpt>
      <trkpt lat="45.70897" lon="4.73673">
        <ele>314</ele>
        <time>2025-11-11T08:43:59Z</time>
      </trkpt>
      <trkpt lat="45.70897" lon="4.73673">
        <ele>314</ele>
        <time>2025-11-11T08:44:00Z</time>
      </trkpt>
      <trkpt lat="45.70897" lon="4.73673">
        <ele>314</ele>
        <time>2025-11-11T08:44:01Z</time>
      </trkpt>
      <trkpt lat="45.70897" lon="4.73673">
        <ele>314</ele>
        <time>2025-11-11T08:44:02Z</time>
      </trkpt>
      <trkpt lat="45.70897" lon="4.73673">
        <ele>314</ele>
        <time>2025-11-11T08:44:03Z</time>
      </trkpt>
      <trkpt lat="45.70897" lon="4.73673">
        <ele>314</ele>
        <time>2025-11-11T08:44:04Z</time>
      </trkpt>
      <trkpt lat="45.70897" lon="4.73673">
        <ele>314</ele>
        <time>2025-11-11T08:44:05Z</time>
      </trkpt>
      <trkpt lat="45.70897" lon="4.73673">
        <ele>314</ele>
        <time>2025-11-11T08:44:06Z</time>
      </trkpt>
      <trkpt lat="45.70897" lon="4.73673">
        <ele>314</ele>
        <time>2025-11-11T08:44:07Z</time>
      </trkpt>
      <trkpt lat="45.70897" lon="4.73673">
        <ele>314</ele>
        <time>2025-11-11T08:44:08Z</time>
      </trkpt>
      <trkpt lat="45.70897" lon="4.73673">
        <ele>314</ele>
        <time>2025-11-11T08:44:09Z</time>
      </trkpt>
      <trkpt lat="45.70897" lon="4.73673">
        <ele>314</ele>
        <time>2025-11-11T08:44:10Z</time>
      </trkpt>
      <trkpt lat="45.70897" lon="4.73673">
        <ele>314</ele>
        <time>2025-11-11T08:44:11Z</time>
      </trkpt>
      <trkpt lat="45.70897" lon="4.73673">
        <ele>314</ele>
        <time>2025-11-11T08:44:12Z</time>
      </trkpt>
      <trkpt lat="45.70897" lon="4.73673">
        <ele>314</ele>
        <time>2025-11-11T08:44:13Z</time>
      </trkpt>
      <trkpt lat="45.70897" lon="4.73673">
        <ele>314</ele>
        <time>2025-11-11T08:44:14Z</time>
      </trkpt>
      <trkpt lat="45.70897" lon="4.73673">
        <ele>314</ele>
        <time>2025-11-11T08:44:15Z</time>
      </trkpt>
      <trkpt lat="45.70897" lon="4.73673">
        <ele>314</ele>
        <time>2025-11-11T08:44:16Z</time>
      </trkpt>
      <trkpt lat="45.70897" lon="4.73673">
        <ele>314</ele>
        <time>2025-11-11T08:44:17Z</time>
      </trkpt>
      <trkpt lat="45.70897" lon="4.73673">
        <ele>314</ele>
        <time>2025-11-11T08:44:18Z</time>
      </trkpt>
      <trkpt lat="45.70897" lon="4.73673">
        <ele>314</ele>
        <time>2025-11-11T08:44:19Z</time>
      </trkpt>
      <trkpt lat="45.70897" lon="4.73673">
        <ele>314</ele>
        <time>2025-11-11T08:44:20Z</time>
      </trkpt>
      <trkpt lat="45.70897" lon="4.73673">
        <ele>314</ele>
        <time>2025-11-11T08:44:21Z</time>
      </trkpt>
      <trkpt lat="45.70897" lon="4.73673">
        <ele>314</ele>
        <time>2025-11-11T08:44:22Z</time>
      </trkpt>
      <trkpt lat="45.70897" lon="4.73673">
        <ele>314</ele>
        <time>2025-11-11T08:44:23Z</time>
      </trkpt>
      <trkpt lat="45.70897" lon="4.73673">
        <ele>314</ele>
        <time>2025-11-11T08:44:24Z</time>
      </trkpt>
      <trkpt lat="45.70897" lon="4.73673">
        <ele>314</ele>
        <time>2025-11-11T08:44:25Z</time>
      </trkpt>
      <trkpt lat="45.70897" lon="4.73673">
        <ele>314</ele>
        <time>2025-11-11T08:44:26Z</time>
      </trkpt>
      <trkpt lat="45.70897" lon="4.73673">
        <ele>314</ele>
        <time>2025-11-11T08:44:27Z</time>
      </trkpt>
      <trkpt lat="45.70897" lon="4.73673">
        <ele>314</ele>
        <time>2025-11-11T08:44:28Z</time>
      </trkpt>
      <trkpt lat="45.70897" lon="4.73673">
        <ele>314</ele>
        <time>2025-11-11T08:44:29Z</time>
      </trkpt>
      <trkpt lat="45.70897" lon="4.73673">
        <ele>314</ele>
        <time>2025-11-11T08:44:30Z</time>
      </trkpt>
      <trkpt lat="45.70897" lon="4.73673">
        <ele>314</ele>
        <time>2025-11-11T08:44:31Z</time>
      </trkpt>
      <trkpt lat="45.70897" lon="4.73673">
        <ele>314</ele>
        <time>2025-11-11T08:44:32Z</time>
      </trkpt>
      <trkpt lat="45.70897" lon="4.73673">
        <ele>314</ele>
        <time>2025-11-11T08:44:33Z</time>
      </trkpt>
      <trkpt lat="45.70897" lon="4.73673">
        <ele>314</ele>
        <time>2025-11-11T08:44:34Z</time>
      </trkpt>
      <trkpt lat="45.70897" lon="4.73673">
        <ele>314</ele>
        <time>2025-11-11T08:44:35Z</time>
      </trkpt>
      <trkpt lat="45.70897" lon="4.73673">
        <ele>314</ele>
        <time>2025-11-11T08:44:36Z</time>
      </trkpt>
      <trkpt lat="45.70897" lon="4.73673">
        <ele>314</ele>
        <time>2025-11-11T08:44:37Z</time>
      </trkpt>
      <trkpt lat="45.70897" lon="4.73673">
        <ele>314</ele>
        <time>2025-11-11T08:44:38Z</time>
      </trkpt>
      <trkpt lat="45.70897" lon="4.73673">
        <ele>314</ele>
        <time>2025-11-11T08:44:39Z</time>
      </trkpt>
      <trkpt lat="45.70897" lon="4.73673">
        <ele>314</ele>
        <time>2025-11-11T08:44:40Z</time>
      </trkpt>
      <trkpt lat="45.70897" lon="4.73673">
        <ele>314</ele>
        <time>2025-11-11T08:44:41Z</time>
      </trkpt>
      <trkpt lat="45.70897" lon="4.73673">
        <ele>314</ele>
        <time>2025-11-11T08:44:42Z</time>
      </trkpt>
      <trkpt lat="45.70898" lon="4.73674">
        <ele>314</ele>
        <time>2025-11-11T08:44:43Z</time>
      </trkpt>
      <trkpt lat="45.70899" lon="4.73675">
        <ele>314</ele>
        <time>2025-11-11T08:44:44Z</time>
      </trkpt>
      <trkpt lat="45.709" lon="4.73675">
        <ele>314</ele>
        <time>2025-11-11T08:44:45Z</time>
      </trkpt>
      <trkpt lat="45.70901" lon="4.73676">
        <ele>314.2</ele>
        <time>2025-11-11T08:44:46Z</time>
      </trkpt>
      <trkpt lat="45.70903" lon="4.73676">
        <ele>314</ele>
        <time>2025-11-11T08:44:47Z</time>
      </trkpt>
      <trkpt lat="45.70904" lon="4.73676">
        <ele>314</ele>
        <time>2025-11-11T08:44:48Z</time>
      </trkpt>
      <trkpt lat="45.70905" lon="4.73676">
        <ele>314</ele>
        <time>2025-11-11T08:44:49Z</time>
      </trkpt>
      <trkpt lat="45.70906" lon="4.73676">
        <ele>314</ele>
        <time>2025-11-11T08:44:50Z</time>
      </trkpt>
      <trkpt lat="45.70907" lon="4.73676">
        <ele>314.2</ele>
        <time>2025-11-11T08:44:51Z</time>
      </trkpt>
      <trkpt lat="45.70909" lon="4.73677">
        <ele>314.2</ele>
        <time>2025-11-11T08:44:52Z</time>
      </trkpt>
      <trkpt lat="45.7091" lon="4.73678">
        <ele>314.2</ele>
        <time>2025-11-11T08:44:53Z</time>
      </trkpt>
      <trkpt lat="45.7091" lon="4.73679">
        <ele>314.2</ele>
        <time>2025-11-11T08:44:54Z</time>
      </trkpt>
      <trkpt lat="45.70911" lon="4.73679">
        <ele>314.2</ele>
        <time>2025-11-11T08:44:55Z</time>
      </trkpt>
      <trkpt lat="45.70911" lon="4.73679">
        <ele>314.4</ele>
        <time>2025-11-11T08:44:56Z</time>
      </trkpt>
      <trkpt lat="45.70911" lon="4.73679">
        <ele>314.4</ele>
        <time>2025-11-11T08:44:57Z</time>
      </trkpt>
      <trkpt lat="45.70911" lon="4.73679">
        <ele>314.4</ele>
        <time>2025-11-11T08:44:58Z</time>
      </trkpt>
      <trkpt lat="45.70911" lon="4.73679">
        <ele>314.4</ele>
        <time>2025-11-11T08:44:59Z</time>
      </trkpt>
      <trkpt lat="45.70911" lon="4.73679">
        <ele>314.4</ele>
        <time>2025-11-11T08:45:00Z</time>
      </trkpt>
      <trkpt lat="45.70911" lon="4.73679">
        <ele>314.4</ele>
        <time>2025-11-11T08:45:01Z</time>
      </trkpt>
      <trkpt lat="45.70911" lon="4.73679">
        <ele>314.6</ele>
        <time>2025-11-11T08:45:02Z</time>
      </trkpt>
      <trkpt lat="45.70911" lon="4.73679">
        <ele>314.6</ele>
        <time>2025-11-11T08:45:03Z</time>
      </trkpt>
      <trkpt lat="45.70911" lon="4.73679">
        <ele>314.4</ele>
        <time>2025-11-11T08:45:04Z</time>
      </trkpt>
      <trkpt lat="45.70911" lon="4.73679">
        <ele>314.4</ele>
        <time>2025-11-11T08:45:05Z</time>
      </trkpt>
      <trkpt lat="45.70911" lon="4.73679">
        <ele>314.4</ele>
        <time>2025-11-11T08:45:06Z</time>
      </trkpt>
      <trkpt lat="45.70911" lon="4.73679">
        <ele>314.4</ele>
        <time>2025-11-11T08:45:07Z</time>
      </trkpt>
      <trkpt lat="45.70911" lon="4.73679">
        <ele>314.4</ele>
        <time>2025-11-11T08:45:08Z</time>
      </trkpt>
      <trkpt lat="45.70911" lon="4.73679">
        <ele>314.4</ele>
        <time>2025-11-11T08:45:09Z</time>
      </trkpt>
      <trkpt lat="45.70911" lon="4.73679">
        <ele>314.4</ele>
        <time>2025-11-11T08:45:10Z</time>
      </trkpt>
      <trkpt lat="45.70911" lon="4.73679">
        <ele>314.4</ele>
        <time>2025-11-11T08:45:11Z</time>
      </trkpt>
      <trkpt lat="45.70911" lon="4.73679">
        <ele>314.4</ele>
        <time>2025-11-11T08:45:12Z</time>
      </trkpt>
      <trkpt lat="45.70911" lon="4.73679">
        <ele>314.4</ele>
        <time>2025-11-11T08:45:13Z</time>
      </trkpt>
      <trkpt lat="45.70911" lon="4.73679">
        <ele>314.4</ele>
        <time>2025-11-11T08:45:14Z</time>
      </trkpt>
      <trkpt lat="45.70911" lon="4.73679">
        <ele>314.4</ele>
        <time>2025-11-11T08:45:15Z</time>
      </trkpt>
      <trkpt lat="45.70911" lon="4.73679">
        <ele>314.4</ele>
        <time>2025-11-11T08:45:16Z</time>
      </trkpt>
      <trkpt lat="45.70911" lon="4.73679">
        <ele>314.4</ele>
        <time>2025-11-11T08:45:17Z</time>
      </trkpt>
      <trkpt lat="45.70911" lon="4.73679">
        <ele>314.4</ele>
        <time>2025-11-11T08:45:18Z</time>
      </trkpt>
      <trkpt lat="45.70911" lon="4.73679">
        <ele>314.4</ele>
        <time>2025-11-11T08:45:19Z</time>
      </trkpt>
      <trkpt lat="45.70911" lon="4.73679">
        <ele>314.4</ele>
        <time>2025-11-11T08:45:20Z</time>
      </trkpt>
      <trkpt lat="45.70911" lon="4.73679">
        <ele>314.4</ele>
        <time>2025-11-11T08:45:21Z</time>
      </trkpt>
      <trkpt lat="45.70911" lon="4.73679">
        <ele>314.4</ele>
        <time>2025-11-11T08:45:22Z</time>
      </trkpt>
      <trkpt lat="45.70911" lon="4.73679">
        <ele>314.4</ele>
        <time>2025-11-11T08:45:23Z</time>
      </trkpt>
      <trkpt lat="45.70911" lon="4.73679">
        <ele>314.4</ele>
        <time>2025-11-11T08:45:24Z</time>
      </trkpt>
      <trkpt lat="45.70911" lon="4.73679">
        <ele>314.4</ele>
        <time>2025-11-11T08:45:25Z</time>
      </trkpt>
      <trkpt lat="45.70911" lon="4.73679">
        <ele>314.4</ele>
        <time>2025-11-11T08:45:26Z</time>
      </trkpt>
      <trkpt lat="45.70911" lon="4.73679">
        <ele>314.4</ele>
        <time>2025-11-11T08:45:27Z</time>
      </trkpt>
      <trkpt lat="45.70911" lon="4.73679">
        <ele>314.4</ele>
        <time>2025-11-11T08:45:28Z</time>
      </trkpt>
      <trkpt lat="45.70911" lon="4.73679">
        <ele>314.4</ele>
        <time>2025-11-11T08:45:29Z</time>
      </trkpt>
      <trkpt lat="45.70911" lon="4.73679">
        <ele>314.4</ele>
        <time>2025-11-11T08:45:30Z</time>
      </trkpt>
      <trkpt lat="45.70911" lon="4.73679">
        <ele>314.4</ele>
        <time>2025-11-11T08:45:31Z</time>
      </trkpt>
      <trkpt lat="45.70911" lon="4.73679">
        <ele>314.4</ele>
        <time>2025-11-11T08:45:32Z</time>
      </trkpt>
      <trkpt lat="45.70911" lon="4.73679">
        <ele>314.4</ele>
        <time>2025-11-11T08:45:33Z</time>
      </trkpt>
      <trkpt lat="45.70911" lon="4.73679">
        <ele>314.4</ele>
        <time>2025-11-11T08:45:34Z</time>
      </trkpt>
      <trkpt lat="45.70911" lon="4.73679">
        <ele>314.4</ele>
        <time>2025-11-11T08:45:35Z</time>
      </trkpt>
      <trkpt lat="45.70911" lon="4.73679">
        <ele>314.4</ele>
        <time>2025-11-11T08:45:36Z</time>
      </trkpt>
      <trkpt lat="45.70911" lon="4.73679">
        <ele>314.4</ele>
        <time>2025-11-11T08:45:37Z</time>
      </trkpt>
      <trkpt lat="45.70911" lon="4.73679">
        <ele>314.4</ele>
        <time>2025-11-11T08:45:38Z</time>
      </trkpt>
      <trkpt lat="45.70911" lon="4.73679">
        <ele>314.4</ele>
        <time>2025-11-11T08:45:39Z</time>
      </trkpt>
      <trkpt lat="45.70911" lon="4.73679">
        <ele>314.4</ele>
        <time>2025-11-11T08:45:40Z</time>
      </trkpt>
      <trkpt lat="45.70911" lon="4.73679">
        <ele>314.4</ele>
        <time>2025-11-11T08:45:41Z</time>
      </trkpt>
      <trkpt lat="45.70911" lon="4.73679">
        <ele>314.4</ele>
        <time>2025-11-11T08:45:42Z</time>
      </trkpt>
      <trkpt lat="45.70911" lon="4.73679">
        <ele>314.4</ele>
        <time>2025-11-11T08:45:43Z</time>
      </trkpt>
      <trkpt lat="45.70911" lon="4.73679">
        <ele>314.4</ele>
        <time>2025-11-11T08:45:44Z</time>
      </trkpt>
      <trkpt lat="45.70911" lon="4.73679">
        <ele>314.4</ele>
        <time>2025-11-11T08:45:45Z</time>
      </trkpt>
      <trkpt lat="45.70911" lon="4.73679">
        <ele>314.4</ele>
        <time>2025-11-11T08:45:46Z</time>
      </trkpt>
      <trkpt lat="45.70911" lon="4.73679">
        <ele>314.4</ele>
        <time>2025-11-11T08:45:47Z</time>
      </trkpt>
      <trkpt lat="45.70911" lon="4.73679">
        <ele>314.4</ele>
        <time>2025-11-11T08:45:48Z</time>
      </trkpt>
      <trkpt lat="45.70911" lon="4.73679">
        <ele>314.4</ele>
        <time>2025-11-11T08:45:49Z</time>
      </trkpt>
      <trkpt lat="45.70911" lon="4.73679">
        <ele>314.4</ele>
        <time>2025-11-11T08:45:50Z</time>
      </trkpt>
      <trkpt lat="45.70911" lon="4.73679">
        <ele>314.4</ele>
        <time>2025-11-11T08:45:51Z</time>
      </trkpt>
      <trkpt lat="45.70911" lon="4.73679">
        <ele>314.4</ele>
        <time>2025-11-11T08:45:52Z</time>
      </trkpt>
      <trkpt lat="45.70911" lon="4.73679">
        <ele>314.4</ele>
        <time>2025-11-11T08:45:53Z</time>
      </trkpt>
      <trkpt lat="45.70911" lon="4.73679">
        <ele>314.4</ele>
        <time>2025-11-11T08:45:54Z</time>
      </trkpt>
      <trkpt lat="45.70911" lon="4.73679">
        <ele>314.4</ele>
        <time>2025-11-11T08:45:55Z</time>
      </trkpt>
      <trkpt lat="45.70911" lon="4.73679">
        <ele>314.4</ele>
        <time>2025-11-11T08:45:56Z</time>
      </trkpt>
      <trkpt lat="45.70911" lon="4.73679">
        <ele>314.4</ele>
        <time>2025-11-11T08:45:57Z</time>
      </trkpt>
      <trkpt lat="45.70911" lon="4.73679">
        <ele>314.4</ele>
        <time>2025-11-11T08:45:58Z</time>
      </trkpt>
      <trkpt lat="45.70911" lon="4.73679">
        <ele>314.4</ele>
        <time>2025-11-11T08:45:59Z</time>
      </trkpt>
      <trkpt lat="45.70911" lon="4.73679">
        <ele>314.4</ele>
        <time>2025-11-11T08:46:00Z</time>
      </trkpt>
      <trkpt lat="45.70911" lon="4.73679">
        <ele>314.4</ele>
        <time>2025-11-11T08:46:01Z</time>
      </trkpt>
      <trkpt lat="45.70911" lon="4.73679">
        <ele>314.4</ele>
        <time>2025-11-11T08:46:02Z</time>
      </trkpt>
      <trkpt lat="45.70911" lon="4.73679">
        <ele>314.4</ele>
        <time>2025-11-11T08:46:03Z</time>
      </trkpt>
      <trkpt lat="45.70911" lon="4.73679">
        <ele>314.4</ele>
        <time>2025-11-11T08:46:04Z</time>
      </trkpt>
      <trkpt lat="45.70911" lon="4.73679">
        <ele>314.4</ele>
        <time>2025-11-11T08:46:05Z</time>
      </trkpt>
      <trkpt lat="45.70911" lon="4.73679">
        <ele>314.4</ele>
        <time>2025-11-11T08:46:06Z</time>
      </trkpt>
      <trkpt lat="45.70911" lon="4.73679">
        <ele>314.4</ele>
        <time>2025-11-11T08:46:07Z</time>
      </trkpt>
      <trkpt lat="45.70911" lon="4.73679">
        <ele>314.4</ele>
        <time>2025-11-11T08:46:08Z</time>
      </trkpt>
      <trkpt lat="45.70911" lon="4.73679">
        <ele>314.4</ele>
        <time>2025-11-11T08:46:09Z</time>
      </trkpt>
      <trkpt lat="45.70911" lon="4.73679">
        <ele>314.4</ele>
        <time>2025-11-11T08:46:10Z</time>
      </trkpt>
      <trkpt lat="45.70911" lon="4.73679">
        <ele>314.4</ele>
        <time>2025-11-11T08:46:11Z</time>
      </trkpt>
      <trkpt lat="45.70911" lon="4.73679">
        <ele>314.4</ele>
        <time>2025-11-11T08:46:12Z</time>
      </trkpt>
      <trkpt lat="45.70911" lon="4.73679">
        <ele>314.4</ele>
        <time>2025-11-11T08:46:13Z</time>
      </trkpt>
      <trkpt lat="45.70911" lon="4.73679">
        <ele>314.4</ele>
        <time>2025-11-11T08:46:14Z</time>
      </trkpt>
      <trkpt lat="45.70911" lon="4.73679">
        <ele>314.4</ele>
        <time>2025-11-11T08:46:15Z</time>
      </trkpt>
      <trkpt lat="45.70911" lon="4.73679">
        <ele>314.4</ele>
        <time>2025-11-11T08:46:16Z</time>
      </trkpt>
      <trkpt lat="45.70911" lon="4.73679">
        <ele>314.4</ele>
        <time>2025-11-11T08:46:17Z</time>
      </trkpt>
      <trkpt lat="45.70911" lon="4.73679">
        <ele>314.4</ele>
        <time>2025-11-11T08:46:18Z</time>
      </trkpt>
      <trkpt lat="45.70911" lon="4.73679">
        <ele>314.4</ele>
        <time>2025-11-11T08:46:19Z</time>
      </trkpt>
      <trkpt lat="45.70911" lon="4.73679">
        <ele>314.4</ele>
        <time>2025-11-11T08:46:20Z</time>
      </trkpt>
      <trkpt lat="45.70911" lon="4.73679">
        <ele>314.4</ele>
        <time>2025-11-11T08:46:21Z</time>
      </trkpt>
      <trkpt lat="45.70911" lon="4.73679">
        <ele>314.4</ele>
        <time>2025-11-11T08:46:22Z</time>
      </trkpt>
      <trkpt lat="45.70911" lon="4.73679">
        <ele>314.4</ele>
        <time>2025-11-11T08:46:23Z</time>
      </trkpt>
      <trkpt lat="45.70911" lon="4.73679">
        <ele>314.4</ele>
        <time>2025-11-11T08:46:24Z</time>
      </trkpt>
      <trkpt lat="45.70911" lon="4.73679">
        <ele>314.4</ele>
        <time>2025-11-11T08:46:25Z</time>
      </trkpt>
      <trkpt lat="45.70911" lon="4.73679">
        <ele>314.4</ele>
        <time>2025-11-11T08:46:26Z</time>
      </trkpt>
      <trkpt lat="45.70911" lon="4.73679">
        <ele>314.4</ele>
        <time>2025-11-11T08:46:27Z</time>
      </trkpt>
      <trkpt lat="45.70911" lon="4.73679">
        <ele>314.4</ele>
        <time>2025-11-11T08:46:28Z</time>
      </trkpt>
      <trkpt lat="45.70911" lon="4.73679">
        <ele>314.4</ele>
        <time>2025-11-11T08:46:29Z</time>
      </trkpt>
      <trkpt lat="45.70911" lon="4.73679">
        <ele>314.4</ele>
        <time>2025-11-11T08:46:30Z</time>
      </trkpt>
      <trkpt lat="45.70911" lon="4.73679">
        <ele>314.4</ele>
        <time>2025-11-11T08:46:31Z</time>
      </trkpt>
      <trkpt lat="45.70911" lon="4.73679">
        <ele>314.4</ele>
        <time>2025-11-11T08:46:32Z</time>
      </trkpt>
      <trkpt lat="45.70911" lon="4.73679">
        <ele>314.4</ele>
        <time>2025-11-11T08:46:33Z</time>
      </trkpt>
      <trkpt lat="45.70911" lon="4.73679">
        <ele>314.4</ele>
        <time>2025-11-11T08:46:34Z</time>
      </trkpt>
      <trkpt lat="45.70911" lon="4.73679">
        <ele>314.4</ele>
        <time>2025-11-11T08:46:35Z</time>
      </trkpt>
      <trkpt lat="45.70911" lon="4.73679">
        <ele>314.4</ele>
        <time>2025-11-11T08:46:36Z</time>
      </trkpt>
      <trkpt lat="45.70911" lon="4.73679">
        <ele>314.4</ele>
        <time>2025-11-11T08:46:37Z</time>
      </trkpt>
      <trkpt lat="45.70911" lon="4.73679">
        <ele>314.4</ele>
        <time>2025-11-11T08:46:38Z</time>
      </trkpt>
      <trkpt lat="45.70911" lon="4.73679">
        <ele>314.4</ele>
        <time>2025-11-11T08:46:39Z</time>
      </trkpt>
      <trkpt lat="45.70911" lon="4.73679">
        <ele>314.4</ele>
        <time>2025-11-11T08:46:40Z</time>
      </trkpt>
      <trkpt lat="45.70911" lon="4.73679">
        <ele>314.4</ele>
        <time>2025-11-11T08:46:41Z</time>
      </trkpt>
      <trkpt lat="45.70911" lon="4.73679">
        <ele>314.4</ele>
        <time>2025-11-11T08:46:42Z</time>
      </trkpt>
      <trkpt lat="45.70911" lon="4.73679">
        <ele>314.4</ele>
        <time>2025-11-11T08:46:43Z</time>
      </trkpt>
      <trkpt lat="45.70911" lon="4.73679">
        <ele>314.4</ele>
        <time>2025-11-11T08:46:44Z</time>
      </trkpt>
      <trkpt lat="45.70911" lon="4.73679">
        <ele>314.4</ele>
        <time>2025-11-11T08:46:45Z</time>
      </trkpt>
      <trkpt lat="45.70911" lon="4.73679">
        <ele>314.4</ele>
        <time>2025-11-11T08:46:46Z</time>
      </trkpt>
      <trkpt lat="45.70911" lon="4.73679">
        <ele>314.4</ele>
        <time>2025-11-11T08:46:47Z</time>
      </trkpt>
      <trkpt lat="45.70911" lon="4.73679">
        <ele>314.4</ele>
        <time>2025-11-11T08:46:48Z</time>
      </trkpt>
      <trkpt lat="45.70911" lon="4.73679">
        <ele>314.4</ele>
        <time>2025-11-11T08:46:49Z</time>
      </trkpt>
      <trkpt lat="45.70911" lon="4.73679">
        <ele>314.4</ele>
        <time>2025-11-11T08:46:50Z</time>
      </trkpt>
      <trkpt lat="45.70911" lon="4.73679">
        <ele>314.4</ele>
        <time>2025-11-11T08:46:51Z</time>
      </trkpt>
      <trkpt lat="45.70911" lon="4.73679">
        <ele>314.4</ele>
        <time>2025-11-11T08:46:52Z</time>
      </trkpt>
      <trkpt lat="45.70911" lon="4.73679">
        <ele>314.4</ele>
        <time>2025-11-11T08:46:53Z</time>
      </trkpt>
      <trkpt lat="45.70911" lon="4.73679">
        <ele>314.4</ele>
        <time>2025-11-11T08:46:54Z</time>
      </trkpt>
      <trkpt lat="45.70911" lon="4.73679">
        <ele>314.4</ele>
        <time>2025-11-11T08:46:55Z</time>
      </trkpt>
      <trkpt lat="45.70911" lon="4.73679">
        <ele>314.4</ele>
        <time>2025-11-11T08:46:56Z</time>
      </trkpt>
      <trkpt lat="45.70911" lon="4.73679">
        <ele>314.4</ele>
        <time>2025-11-11T08:46:57Z</time>
      </trkpt>
      <trkpt lat="45.70911" lon="4.73679">
        <ele>314.4</ele>
        <time>2025-11-11T08:46:58Z</time>
      </trkpt>
      <trkpt lat="45.70911" lon="4.73679">
        <ele>314.4</ele>
        <time>2025-11-11T08:46:59Z</time>
      </trkpt>
      <trkpt lat="45.70911" lon="4.73679">
        <ele>314.4</ele>
        <time>2025-11-11T08:47:00Z</time>
      </trkpt>
      <trkpt lat="45.70911" lon="4.73679">
        <ele>314.4</ele>
        <time>2025-11-11T08:47:01Z</time>
      </trkpt>
      <trkpt lat="45.70911" lon="4.73679">
        <ele>314.4</ele>
        <time>2025-11-11T08:47:02Z</time>
      </trkpt>
      <trkpt lat="45.70911" lon="4.73679">
        <ele>314.4</ele>
        <time>2025-11-11T08:47:03Z</time>
      </trkpt>
      <trkpt lat="45.70911" lon="4.73679">
        <ele>314.4</ele>
        <time>2025-11-11T08:47:04Z</time>
      </trkpt>
      <trkpt lat="45.70911" lon="4.73679">
        <ele>314.4</ele>
        <time>2025-11-11T08:47:05Z</time>
      </trkpt>
      <trkpt lat="45.70911" lon="4.73679">
        <ele>314.4</ele>
        <time>2025-11-11T08:47:06Z</time>
      </trkpt>
      <trkpt lat="45.70911" lon="4.73679">
        <ele>314.4</ele>
        <time>2025-11-11T08:47:07Z</time>
      </trkpt>
      <trkpt lat="45.70911" lon="4.73679">
        <ele>314.4</ele>
        <time>2025-11-11T08:47:08Z</time>
      </trkpt>
      <trkpt lat="45.70911" lon="4.73679">
        <ele>314.4</ele>
        <time>2025-11-11T08:47:09Z</time>
      </trkpt>
      <trkpt lat="45.70911" lon="4.73679">
        <ele>314.4</ele>
        <time>2025-11-11T08:47:10Z</time>
      </trkpt>
      <trkpt lat="45.70911" lon="4.73679">
        <ele>314.4</ele>
        <time>2025-11-11T08:47:11Z</time>
      </trkpt>
      <trkpt lat="45.70911" lon="4.73679">
        <ele>314.4</ele>
        <time>2025-11-11T08:47:12Z</time>
      </trkpt>
      <trkpt lat="45.70911" lon="4.73679">
        <ele>314.4</ele>
        <time>2025-11-11T08:47:13Z</time>
      </trkpt>
      <trkpt lat="45.70911" lon="4.73679">
        <ele>314.4</ele>
        <time>2025-11-11T08:47:14Z</time>
      </trkpt>
      <trkpt lat="45.70911" lon="4.73679">
        <ele>314.4</ele>
        <time>2025-11-11T08:47:15Z</time>
      </trkpt>
      <trkpt lat="45.70911" lon="4.73679">
        <ele>314.4</ele>
        <time>2025-11-11T08:47:16Z</time>
      </trkpt>
      <trkpt lat="45.70911" lon="4.73679">
        <ele>314.4</ele>
        <time>2025-11-11T08:47:17Z</time>
      </trkpt>
      <trkpt lat="45.70911" lon="4.73679">
        <ele>314.4</ele>
        <time>2025-11-11T08:47:18Z</time>
      </trkpt>
      <trkpt lat="45.70911" lon="4.73679">
        <ele>314.4</ele>
        <time>2025-11-11T08:47:19Z</time>
      </trkpt>
      <trkpt lat="45.70911" lon="4.73679">
        <ele>314.4</ele>
        <time>2025-11-11T08:47:20Z</time>
      </trkpt>
      <trkpt lat="45.70911" lon="4.73679">
        <ele>314.4</ele>
        <time>2025-11-11T08:47:21Z</time>
      </trkpt>
      <trkpt lat="45.70911" lon="4.73679">
        <ele>314.4</ele>
        <time>2025-11-11T08:47:22Z</time>
      </trkpt>
      <trkpt lat="45.70911" lon="4.73679">
        <ele>314.4</ele>
        <time>2025-11-11T08:47:23Z</time>
      </trkpt>
      <trkpt lat="45.70911" lon="4.73679">
        <ele>314.4</ele>
        <time>2025-11-11T08:47:24Z</time>
      </trkpt>
      <trkpt lat="45.70911" lon="4.73679">
        <ele>314.4</ele>
        <time>2025-11-11T08:47:25Z</time>
      </trkpt>
      <trkpt lat="45.70911" lon="4.73679">
        <ele>314.4</ele>
        <time>2025-11-11T08:47:26Z</time>
      </trkpt>
      <trkpt lat="45.70911" lon="4.73679">
        <ele>314.4</ele>
        <time>2025-11-11T08:47:27Z</time>
      </trkpt>
      <trkpt lat="45.70911" lon="4.73679">
        <ele>314.4</ele>
        <time>2025-11-11T08:47:28Z</time>
      </trkpt>
      <trkpt lat="45.70911" lon="4.73679">
        <ele>314.4</ele>
        <time>2025-11-11T08:47:29Z</time>
      </trkpt>
      <trkpt lat="45.70911" lon="4.73679">
        <ele>314.4</ele>
        <time>2025-11-11T08:47:30Z</time>
      </trkpt>
      <trkpt lat="45.70911" lon="4.73679">
        <ele>314.4</ele>
        <time>2025-11-11T08:47:31Z</time>
      </trkpt>
      <trkpt lat="45.70911" lon="4.73679">
        <ele>314.4</ele>
        <time>2025-11-11T08:47:32Z</time>
      </trkpt>
      <trkpt lat="45.70911" lon="4.73679">
        <ele>314.4</ele>
        <time>2025-11-11T08:47:33Z</time>
      </trkpt>
      <trkpt lat="45.70911" lon="4.73679">
        <ele>314.4</ele>
        <time>2025-11-11T08:47:34Z</time>
      </trkpt>
      <trkpt lat="45.70911" lon="4.73679">
        <ele>314.4</ele>
        <time>2025-11-11T08:47:35Z</time>
      </trkpt>
      <trkpt lat="45.70911" lon="4.73679">
        <ele>314.4</ele>
        <time>2025-11-11T08:47:36Z</time>
      </trkpt>
      <trkpt lat="45.70911" lon="4.73679">
        <ele>314.4</ele>
        <time>2025-11-11T08:47:37Z</time>
      </trkpt>
      <trkpt lat="45.70911" lon="4.73679">
        <ele>314.4</ele>
        <time>2025-11-11T08:47:38Z</time>
      </trkpt>
      <trkpt lat="45.70911" lon="4.73679">
        <ele>314.4</ele>
        <time>2025-11-11T08:47:39Z</time>
      </trkpt>
      <trkpt lat="45.70911" lon="4.73679">
        <ele>314.4</ele>
        <time>2025-11-11T08:47:40Z</time>
      </trkpt>
      <trkpt lat="45.70911" lon="4.73679">
        <ele>314.4</ele>
        <time>2025-11-11T08:47:41Z</time>
      </trkpt>
      <trkpt lat="45.70911" lon="4.73679">
        <ele>314.4</ele>
        <time>2025-11-11T08:47:42Z</time>
      </trkpt>
      <trkpt lat="45.70911" lon="4.73679">
        <ele>314.4</ele>
        <time>2025-11-11T08:47:43Z</time>
      </trkpt>
      <trkpt lat="45.70911" lon="4.73679">
        <ele>314.4</ele>
        <time>2025-11-11T08:47:44Z</time>
      </trkpt>
      <trkpt lat="45.70911" lon="4.73679">
        <ele>314.4</ele>
        <time>2025-11-11T08:47:45Z</time>
      </trkpt>
      <trkpt lat="45.70911" lon="4.73679">
        <ele>314.4</ele>
        <time>2025-11-11T08:47:46Z</time>
      </trkpt>
      <trkpt lat="45.70911" lon="4.73679">
        <ele>314.4</ele>
        <time>2025-11-11T08:47:47Z</time>
      </trkpt>
      <trkpt lat="45.70911" lon="4.73679">
        <ele>314.4</ele>
        <time>2025-11-11T08:47:48Z</time>
      </trkpt>
      <trkpt lat="45.70911" lon="4.73679">
        <ele>314.4</ele>
        <time>2025-11-11T08:47:49Z</time>
      </trkpt>
      <trkpt lat="45.70911" lon="4.73679">
        <ele>314.4</ele>
        <time>2025-11-11T08:47:50Z</time>
      </trkpt>
      <trkpt lat="45.70911" lon="4.73679">
        <ele>314.4</ele>
        <time>2025-11-11T08:47:51Z</time>
      </trkpt>
      <trkpt lat="45.70911" lon="4.73679">
        <ele>314.4</ele>
        <time>2025-11-11T08:47:52Z</time>
      </trkpt>
      <trkpt lat="45.70911" lon="4.73679">
        <ele>314.4</ele>
        <time>2025-11-11T08:47:53Z</time>
      </trkpt>
      <trkpt lat="45.70911" lon="4.73679">
        <ele>314.4</ele>
        <time>2025-11-11T08:47:54Z</time>
      </trkpt>
      <trkpt lat="45.70911" lon="4.73679">
        <ele>314.4</ele>
        <time>2025-11-11T08:47:55Z</time>
      </trkpt>
      <trkpt lat="45.70911" lon="4.73679">
        <ele>314.4</ele>
        <time>2025-11-11T08:47:56Z</time>
      </trkpt>
      <trkpt lat="45.70911" lon="4.73679">
        <ele>314.4</ele>
        <time>2025-11-11T08:47:57Z</time>
      </trkpt>
      <trkpt lat="45.70911" lon="4.73679">
        <ele>314.4</ele>
        <time>2025-11-11T08:47:58Z</time>
      </trkpt>
      <trkpt lat="45.70911" lon="4.73679">
        <ele>314.4</ele>
        <time>2025-11-11T08:47:59Z</time>
      </trkpt>
      <trkpt lat="45.70911" lon="4.73679">
        <ele>314.4</ele>
        <time>2025-11-11T08:48:00Z</time>
      </trkpt>
      <trkpt lat="45.70911" lon="4.73679">
        <ele>314.4</ele>
        <time>2025-11-11T08:48:01Z</time>
      </trkpt>
      <trkpt lat="45.70911" lon="4.73679">
        <ele>314.4</ele>
        <time>2025-11-11T08:48:02Z</time>
      </trkpt>
      <trkpt lat="45.70911" lon="4.73679">
        <ele>314.4</ele>
        <time>2025-11-11T08:48:03Z</time>
      </trkpt>
      <trkpt lat="45.70911" lon="4.73679">
        <ele>314.4</ele>
        <time>2025-11-11T08:48:04Z</time>
      </trkpt>
      <trkpt lat="45.70911" lon="4.73679">
        <ele>314.4</ele>
        <time>2025-11-11T08:48:05Z</time>
      </trkpt>
      <trkpt lat="45.70911" lon="4.73679">
        <ele>314.4</ele>
        <time>2025-11-11T08:48:06Z</time>
      </trkpt>
      <trkpt lat="45.70911" lon="4.73679">
        <ele>314.4</ele>
        <time>2025-11-11T08:48:07Z</time>
      </trkpt>
      <trkpt lat="45.70911" lon="4.73679">
        <ele>314.4</ele>
        <time>2025-11-11T08:48:08Z</time>
      </trkpt>
      <trkpt lat="45.70911" lon="4.73679">
        <ele>314.4</ele>
        <time>2025-11-11T08:48:09Z</time>
      </trkpt>
      <trkpt lat="45.70911" lon="4.73679">
        <ele>314.4</ele>
        <time>2025-11-11T08:48:10Z</time>
      </trkpt>
      <trkpt lat="45.70911" lon="4.73679">
        <ele>314.4</ele>
        <time>2025-11-11T08:48:11Z</time>
      </trkpt>
      <trkpt lat="45.70911" lon="4.73679">
        <ele>314.4</ele>
        <time>2025-11-11T08:48:12Z</time>
      </trkpt>
      <trkpt lat="45.70911" lon="4.73679">
        <ele>314.4</ele>
        <time>2025-11-11T08:48:13Z</time>
      </trkpt>
      <trkpt lat="45.70911" lon="4.73679">
        <ele>314.4</ele>
        <time>2025-11-11T08:48:14Z</time>
      </trkpt>
      <trkpt lat="45.70911" lon="4.73679">
        <ele>314.4</ele>
        <time>2025-11-11T08:48:15Z</time>
      </trkpt>
      <trkpt lat="45.70911" lon="4.73679">
        <ele>314.4</ele>
        <time>2025-11-11T08:48:16Z</time>
      </trkpt>
      <trkpt lat="45.70911" lon="4.73679">
        <ele>314.4</ele>
        <time>2025-11-11T08:48:17Z</time>
      </trkpt>
      <trkpt lat="45.70911" lon="4.73679">
        <ele>314.4</ele>
        <time>2025-11-11T08:48:18Z</time>
      </trkpt>
      <trkpt lat="45.70911" lon="4.73679">
        <ele>314.4</ele>
        <time>2025-11-11T08:48:19Z</time>
      </trkpt>
      <trkpt lat="45.70911" lon="4.73679">
        <ele>314.4</ele>
        <time>2025-11-11T08:48:20Z</time>
      </trkpt>
      <trkpt lat="45.70911" lon="4.73679">
        <ele>314.4</ele>
        <time>2025-11-11T08:48:21Z</time>
      </trkpt>
      <trkpt lat="45.70911" lon="4.73679">
        <ele>314.4</ele>
        <time>2025-11-11T08:48:22Z</time>
      </trkpt>
      <trkpt lat="45.70911" lon="4.73679">
        <ele>314.4</ele>
        <time>2025-11-11T08:48:23Z</time>
      </trkpt>
      <trkpt lat="45.70911" lon="4.73679">
        <ele>314.4</ele>
        <time>2025-11-11T08:48:24Z</time>
      </trkpt>
      <trkpt lat="45.70911" lon="4.73679">
        <ele>314.4</ele>
        <time>2025-11-11T08:48:25Z</time>
      </trkpt>
      <trkpt lat="45.70911" lon="4.73679">
        <ele>314.4</ele>
        <time>2025-11-11T08:48:26Z</time>
      </trkpt>
      <trkpt lat="45.70911" lon="4.73679">
        <ele>314.4</ele>
        <time>2025-11-11T08:48:27Z</time>
      </trkpt>
      <trkpt lat="45.70911" lon="4.73679">
        <ele>314.4</ele>
        <time>2025-11-11T08:48:28Z</time>
      </trkpt>
      <trkpt lat="45.70911" lon="4.73679">
        <ele>314.4</ele>
        <time>2025-11-11T08:48:29Z</time>
      </trkpt>
      <trkpt lat="45.70911" lon="4.73679">
        <ele>314.4</ele>
        <time>2025-11-11T08:48:30Z</time>
      </trkpt>
      <trkpt lat="45.70911" lon="4.73679">
        <ele>314.4</ele>
        <time>2025-11-11T08:48:31Z</time>
      </trkpt>
      <trkpt lat="45.70911" lon="4.73679">
        <ele>314.4</ele>
        <time>2025-11-11T08:48:32Z</time>
      </trkpt>
      <trkpt lat="45.70911" lon="4.73679">
        <ele>314.4</ele>
        <time>2025-11-11T08:48:33Z</time>
      </trkpt>
      <trkpt lat="45.70911" lon="4.73679">
        <ele>314.4</ele>
        <time>2025-11-11T08:48:34Z</time>
      </trkpt>
      <trkpt lat="45.70911" lon="4.73679">
        <ele>314.4</ele>
        <time>2025-11-11T08:48:35Z</time>
      </trkpt>
      <trkpt lat="45.70911" lon="4.73679">
        <ele>314.4</ele>
        <time>2025-11-11T08:48:36Z</time>
      </trkpt>
      <trkpt lat="45.70911" lon="4.73679">
        <ele>314.4</ele>
        <time>2025-11-11T08:48:37Z</time>
      </trkpt>
      <trkpt lat="45.70911" lon="4.73679">
        <ele>314.4</ele>
        <time>2025-11-11T08:48:38Z</time>
      </trkpt>
      <trkpt lat="45.70911" lon="4.73679">
        <ele>314.4</ele>
        <time>2025-11-11T08:48:39Z</time>
      </trkpt>
      <trkpt lat="45.70911" lon="4.73679">
        <ele>314.4</ele>
        <time>2025-11-11T08:48:40Z</time>
      </trkpt>
      <trkpt lat="45.70911" lon="4.73679">
        <ele>314.4</ele>
        <time>2025-11-11T08:48:41Z</time>
      </trkpt>
      <trkpt lat="45.70911" lon="4.73679">
        <ele>314.4</ele>
        <time>2025-11-11T08:48:42Z</time>
      </trkpt>
      <trkpt lat="45.70911" lon="4.73679">
        <ele>314.4</ele>
        <time>2025-11-11T08:48:43Z</time>
      </trkpt>
      <trkpt lat="45.70911" lon="4.73679">
        <ele>314.4</ele>
        <time>2025-11-11T08:48:44Z</time>
      </trkpt>
      <trkpt lat="45.70911" lon="4.73679">
        <ele>314.4</ele>
        <time>2025-11-11T08:48:45Z</time>
      </trkpt>
      <trkpt lat="45.70911" lon="4.73679">
        <ele>314.4</ele>
        <time>2025-11-11T08:48:46Z</time>
      </trkpt>
      <trkpt lat="45.70911" lon="4.73679">
        <ele>314.4</ele>
        <time>2025-11-11T08:48:47Z</time>
      </trkpt>
      <trkpt lat="45.70911" lon="4.73679">
        <ele>314.4</ele>
        <time>2025-11-11T08:48:48Z</time>
      </trkpt>
      <trkpt lat="45.70911" lon="4.73679">
        <ele>314.4</ele>
        <time>2025-11-11T08:48:49Z</time>
      </trkpt>
      <trkpt lat="45.70911" lon="4.73679">
        <ele>314.4</ele>
        <time>2025-11-11T08:48:50Z</time>
      </trkpt>
      <trkpt lat="45.70911" lon="4.73679">
        <ele>314.4</ele>
        <time>2025-11-11T08:48:51Z</time>
      </trkpt>
      <trkpt lat="45.70911" lon="4.73679">
        <ele>314.4</ele>
        <time>2025-11-11T08:48:52Z</time>
      </trkpt>
      <trkpt lat="45.70911" lon="4.73679">
        <ele>314.4</ele>
        <time>2025-11-11T08:48:53Z</time>
      </trkpt>
      <trkpt lat="45.70911" lon="4.73679">
        <ele>314.4</ele>
        <time>2025-11-11T08:48:54Z</time>
      </trkpt>
      <trkpt lat="45.70911" lon="4.73679">
        <ele>314.4</ele>
        <time>2025-11-11T08:48:55Z</time>
      </trkpt>
      <trkpt lat="45.70911" lon="4.73679">
        <ele>314.4</ele>
        <time>2025-11-11T08:48:56Z</time>
      </trkpt>
      <trkpt lat="45.70911" lon="4.73679">
        <ele>314.4</ele>
        <time>2025-11-11T08:48:57Z</time>
      </trkpt>
      <trkpt lat="45.70911" lon="4.73679">
        <ele>314.4</ele>
        <time>2025-11-11T08:48:58Z</time>
      </trkpt>
      <trkpt lat="45.70911" lon="4.73679">
        <ele>314.4</ele>
        <time>2025-11-11T08:48:59Z</time>
      </trkpt>
      <trkpt lat="45.70911" lon="4.73679">
        <ele>314.4</ele>
        <time>2025-11-11T08:49:00Z</time>
      </trkpt>
      <trkpt lat="45.70911" lon="4.73679">
        <ele>314.4</ele>
        <time>2025-11-11T08:49:01Z</time>
      </trkpt>
      <trkpt lat="45.70911" lon="4.73679">
        <ele>314.4</ele>
        <time>2025-11-11T08:49:02Z</time>
      </trkpt>
      <trkpt lat="45.70911" lon="4.73679">
        <ele>314.4</ele>
        <time>2025-11-11T08:49:03Z</time>
      </trkpt>
      <trkpt lat="45.70911" lon="4.73679">
        <ele>314.4</ele>
        <time>2025-11-11T08:49:04Z</time>
      </trkpt>
      <trkpt lat="45.70911" lon="4.73679">
        <ele>314.4</ele>
        <time>2025-11-11T08:49:05Z</time>
      </trkpt>
      <trkpt lat="45.70911" lon="4.73679">
        <ele>314.4</ele>
        <time>2025-11-11T08:49:06Z</time>
      </trkpt>
      <trkpt lat="45.70911" lon="4.73679">
        <ele>314.4</ele>
        <time>2025-11-11T08:49:07Z</time>
      </trkpt>
      <trkpt lat="45.70911" lon="4.73679">
        <ele>314.4</ele>
        <time>2025-11-11T08:49:08Z</time>
      </trkpt>
      <trkpt lat="45.70911" lon="4.73679">
        <ele>314.4</ele>
        <time>2025-11-11T08:49:09Z</time>
      </trkpt>
      <trkpt lat="45.70911" lon="4.73679">
        <ele>314.4</ele>
        <time>2025-11-11T08:49:10Z</time>
      </trkpt>
      <trkpt lat="45.70911" lon="4.73679">
        <ele>314.4</ele>
        <time>2025-11-11T08:49:11Z</time>
      </trkpt>
      <trkpt lat="45.70911" lon="4.73679">
        <ele>314.4</ele>
        <time>2025-11-11T08:49:12Z</time>
      </trkpt>
      <trkpt lat="45.70911" lon="4.73679">
        <ele>314.4</ele>
        <time>2025-11-11T08:49:13Z</time>
      </trkpt>
      <trkpt lat="45.70911" lon="4.73679">
        <ele>314.4</ele>
        <time>2025-11-11T08:49:14Z</time>
      </trkpt>
      <trkpt lat="45.70911" lon="4.73679">
        <ele>314.4</ele>
        <time>2025-11-11T08:49:15Z</time>
      </trkpt>
      <trkpt lat="45.70911" lon="4.73679">
        <ele>314.4</ele>
        <time>2025-11-11T08:49:16Z</time>
      </trkpt>
      <trkpt lat="45.70911" lon="4.73679">
        <ele>314.4</ele>
        <time>2025-11-11T08:49:17Z</time>
      </trkpt>
      <trkpt lat="45.70911" lon="4.73679">
        <ele>314.4</ele>
        <time>2025-11-11T08:49:18Z</time>
      </trkpt>
      <trkpt lat="45.70911" lon="4.73679">
        <ele>314.4</ele>
        <time>2025-11-11T08:49:19Z</time>
      </trkpt>
      <trkpt lat="45.70911" lon="4.73679">
        <ele>314.4</ele>
        <time>2025-11-11T08:49:20Z</time>
      </trkpt>
      <trkpt lat="45.70911" lon="4.73679">
        <ele>314.4</ele>
        <time>2025-11-11T08:49:21Z</time>
      </trkpt>
      <trkpt lat="45.70911" lon="4.73679">
        <ele>314.4</ele>
        <time>2025-11-11T08:49:22Z</time>
      </trkpt>
      <trkpt lat="45.70911" lon="4.73679">
        <ele>314.4</ele>
        <time>2025-11-11T08:49:23Z</time>
      </trkpt>
      <trkpt lat="45.70911" lon="4.73679">
        <ele>314.4</ele>
        <time>2025-11-11T08:49:24Z</time>
      </trkpt>
      <trkpt lat="45.70911" lon="4.73679">
        <ele>314.4</ele>
        <time>2025-11-11T08:49:25Z</time>
      </trkpt>
      <trkpt lat="45.70911" lon="4.73679">
        <ele>314.4</ele>
        <time>2025-11-11T08:49:26Z</time>
      </trkpt>
      <trkpt lat="45.70911" lon="4.73679">
        <ele>314.4</ele>
        <time>2025-11-11T08:49:27Z</time>
      </trkpt>
      <trkpt lat="45.70911" lon="4.73679">
        <ele>314.4</ele>
        <time>2025-11-11T08:49:28Z</time>
      </trkpt>
      <trkpt lat="45.70911" lon="4.73679">
        <ele>314.4</ele>
        <time>2025-11-11T08:49:29Z</time>
      </trkpt>
      <trkpt lat="45.70911" lon="4.73679">
        <ele>314.4</ele>
        <time>2025-11-11T08:49:30Z</time>
      </trkpt>
      <trkpt lat="45.70911" lon="4.73679">
        <ele>314.4</ele>
        <time>2025-11-11T08:49:31Z</time>
      </trkpt>
      <trkpt lat="45.70911" lon="4.73679">
        <ele>314.4</ele>
        <time>2025-11-11T08:49:32Z</time>
      </trkpt>
      <trkpt lat="45.70911" lon="4.73679">
        <ele>314.4</ele>
        <time>2025-11-11T08:49:33Z</time>
      </trkpt>
      <trkpt lat="45.70911" lon="4.73679">
        <ele>314.4</ele>
        <time>2025-11-11T08:49:34Z</time>
      </trkpt>
      <trkpt lat="45.70911" lon="4.73679">
        <ele>314.4</ele>
        <time>2025-11-11T08:49:35Z</time>
      </trkpt>
      <trkpt lat="45.70911" lon="4.73679">
        <ele>314.4</ele>
        <time>2025-11-11T08:49:36Z</time>
      </trkpt>
      <trkpt lat="45.70911" lon="4.73679">
        <ele>314.4</ele>
        <time>2025-11-11T08:49:37Z</time>
      </trkpt>
      <trkpt lat="45.70911" lon="4.73679">
        <ele>314.4</ele>
        <time>2025-11-11T08:49:38Z</time>
      </trkpt>
      <trkpt lat="45.70911" lon="4.73679">
        <ele>314.4</ele>
        <time>2025-11-11T08:49:39Z</time>
      </trkpt>
      <trkpt lat="45.70911" lon="4.73679">
        <ele>314.4</ele>
        <time>2025-11-11T08:49:40Z</time>
      </trkpt>
      <trkpt lat="45.70911" lon="4.73679">
        <ele>314.4</ele>
        <time>2025-11-11T08:49:41Z</time>
      </trkpt>
      <trkpt lat="45.70911" lon="4.73679">
        <ele>314.4</ele>
        <time>2025-11-11T08:49:42Z</time>
      </trkpt>
      <trkpt lat="45.70911" lon="4.73679">
        <ele>314.4</ele>
        <time>2025-11-11T08:49:43Z</time>
      </trkpt>
      <trkpt lat="45.70911" lon="4.73679">
        <ele>314.4</ele>
        <time>2025-11-11T08:49:44Z</time>
      </trkpt>
      <trkpt lat="45.70911" lon="4.73679">
        <ele>314.4</ele>
        <time>2025-11-11T08:49:45Z</time>
      </trkpt>
      <trkpt lat="45.70911" lon="4.73679">
        <ele>314.4</ele>
        <time>2025-11-11T08:49:46Z</time>
      </trkpt>
      <trkpt lat="45.70911" lon="4.73679">
        <ele>314.4</ele>
        <time>2025-11-11T08:49:47Z</time>
      </trkpt>
      <trkpt lat="45.70911" lon="4.73679">
        <ele>314.4</ele>
        <time>2025-11-11T08:49:48Z</time>
      </trkpt>
      <trkpt lat="45.70911" lon="4.73679">
        <ele>314.4</ele>
        <time>2025-11-11T08:49:49Z</time>
      </trkpt>
      <trkpt lat="45.70911" lon="4.73679">
        <ele>314.4</ele>
        <time>2025-11-11T08:49:50Z</time>
      </trkpt>
      <trkpt lat="45.70911" lon="4.73679">
        <ele>314.4</ele>
        <time>2025-11-11T08:49:51Z</time>
      </trkpt>
      <trkpt lat="45.70911" lon="4.73679">
        <ele>314.4</ele>
        <time>2025-11-11T08:49:52Z</time>
      </trkpt>
      <trkpt lat="45.70911" lon="4.73679">
        <ele>314.4</ele>
        <time>2025-11-11T08:49:53Z</time>
      </trkpt>
      <trkpt lat="45.70911" lon="4.73679">
        <ele>314.4</ele>
        <time>2025-11-11T08:49:54Z</time>
      </trkpt>
      <trkpt lat="45.70911" lon="4.73679">
        <ele>314.4</ele>
        <time>2025-11-11T08:49:55Z</time>
      </trkpt>
      <trkpt lat="45.70911" lon="4.73679">
        <ele>314.4</ele>
        <time>2025-11-11T08:49:56Z</time>
      </trkpt>
      <trkpt lat="45.70911" lon="4.73679">
        <ele>314.4</ele>
        <time>2025-11-11T08:49:57Z</time>
      </trkpt>
      <trkpt lat="45.70911" lon="4.73679">
        <ele>314.4</ele>
        <time>2025-11-11T08:49:58Z</time>
      </trkpt>
      <trkpt lat="45.70911" lon="4.73679">
        <ele>314.4</ele>
        <time>2025-11-11T08:49:59Z</time>
      </trkpt>
      <trkpt lat="45.70911" lon="4.73679">
        <ele>314.4</ele>
        <time>2025-11-11T08:50:00Z</time>
      </trkpt>
      <trkpt lat="45.70911" lon="4.73679">
        <ele>314.4</ele>
        <time>2025-11-11T08:50:01Z</time>
      </trkpt>
      <trkpt lat="45.70911" lon="4.73679">
        <ele>314.4</ele>
        <time>2025-11-11T08:50:02Z</time>
      </trkpt>
      <trkpt lat="45.70911" lon="4.73679">
        <ele>314.4</ele>
        <time>2025-11-11T08:50:03Z</time>
      </trkpt>
      <trkpt lat="45.70911" lon="4.73679">
        <ele>314.4</ele>
        <time>2025-11-11T08:50:04Z</time>
      </trkpt>
      <trkpt lat="45.70911" lon="4.73679">
        <ele>314.4</ele>
        <time>2025-11-11T08:50:05Z</time>
      </trkpt>
      <trkpt lat="45.70911" lon="4.73679">
        <ele>314.4</ele>
        <time>2025-11-11T08:50:06Z</time>
      </trkpt>
      <trkpt lat="45.70911" lon="4.73679">
        <ele>314.4</ele>
        <time>2025-11-11T08:50:07Z</time>
      </trkpt>
      <trkpt lat="45.70911" lon="4.73679">
        <ele>314.4</ele>
        <time>2025-11-11T08:50:08Z</time>
      </trkpt>
      <trkpt lat="45.70911" lon="4.73679">
        <ele>314.4</ele>
        <time>2025-11-11T08:50:09Z</time>
      </trkpt>
      <trkpt lat="45.70911" lon="4.73679">
        <ele>314.4</ele>
        <time>2025-11-11T08:50:10Z</time>
      </trkpt>
      <trkpt lat="45.70911" lon="4.73679">
        <ele>314.4</ele>
        <time>2025-11-11T08:50:11Z</time>
      </trkpt>
      <trkpt lat="45.70911" lon="4.73679">
        <ele>314.4</ele>
        <time>2025-11-11T08:50:12Z</time>
      </trkpt>
      <trkpt lat="45.70911" lon="4.73679">
        <ele>314.4</ele>
        <time>2025-11-11T08:50:13Z</time>
      </trkpt>
      <trkpt lat="45.70911" lon="4.73679">
        <ele>314.4</ele>
        <time>2025-11-11T08:50:14Z</time>
      </trkpt>
      <trkpt lat="45.70911" lon="4.73679">
        <ele>314.4</ele>
        <time>2025-11-11T08:50:15Z</time>
      </trkpt>
      <trkpt lat="45.70911" lon="4.73679">
        <ele>314.4</ele>
        <time>2025-11-11T08:50:16Z</time>
      </trkpt>
      <trkpt lat="45.70911" lon="4.73679">
        <ele>314.4</ele>
        <time>2025-11-11T08:50:17Z</time>
      </trkpt>
      <trkpt lat="45.70911" lon="4.73679">
        <ele>314.4</ele>
        <time>2025-11-11T08:50:18Z</time>
      </trkpt>
      <trkpt lat="45.70911" lon="4.73679">
        <ele>314.4</ele>
        <time>2025-11-11T08:50:19Z</time>
      </trkpt>
      <trkpt lat="45.70911" lon="4.73679">
        <ele>314.4</ele>
        <time>2025-11-11T08:50:20Z</time>
      </trkpt>
      <trkpt lat="45.70911" lon="4.73679">
        <ele>314.4</ele>
        <time>2025-11-11T08:50:21Z</time>
      </trkpt>
      <trkpt lat="45.70911" lon="4.73679">
        <ele>314.4</ele>
        <time>2025-11-11T08:50:22Z</time>
      </trkpt>
      <trkpt lat="45.70911" lon="4.73679">
        <ele>314.4</ele>
        <time>2025-11-11T08:50:23Z</time>
      </trkpt>
      <trkpt lat="45.70911" lon="4.73679">
        <ele>314.4</ele>
        <time>2025-11-11T08:50:24Z</time>
      </trkpt>
      <trkpt lat="45.70911" lon="4.73679">
        <ele>314.4</ele>
        <time>2025-11-11T08:50:25Z</time>
      </trkpt>
      <trkpt lat="45.70911" lon="4.73679">
        <ele>314.4</ele>
        <time>2025-11-11T08:50:26Z</time>
      </trkpt>
      <trkpt lat="45.70911" lon="4.73679">
        <ele>314.4</ele>
        <time>2025-11-11T08:50:27Z</time>
      </trkpt>
      <trkpt lat="45.70911" lon="4.73679">
        <ele>314.4</ele>
        <time>2025-11-11T08:50:28Z</time>
      </trkpt>
      <trkpt lat="45.70911" lon="4.73679">
        <ele>314.4</ele>
        <time>2025-11-11T08:50:29Z</time>
      </trkpt>
      <trkpt lat="45.70911" lon="4.73679">
        <ele>314.4</ele>
        <time>2025-11-11T08:50:30Z</time>
      </trkpt>
      <trkpt lat="45.70911" lon="4.73679">
        <ele>314.4</ele>
        <time>2025-11-11T08:50:31Z</time>
      </trkpt>
      <trkpt lat="45.70911" lon="4.73679">
        <ele>314.4</ele>
        <time>2025-11-11T08:50:32Z</time>
      </trkpt>
      <trkpt lat="45.70911" lon="4.73679">
        <ele>314.4</ele>
        <time>2025-11-11T08:50:33Z</time>
      </trkpt>
      <trkpt lat="45.70911" lon="4.73679">
        <ele>314.4</ele>
        <time>2025-11-11T08:50:34Z</time>
      </trkpt>
      <trkpt lat="45.70911" lon="4.73679">
        <ele>314.4</ele>
        <time>2025-11-11T08:50:35Z</time>
      </trkpt>
      <trkpt lat="45.70911" lon="4.73679">
        <ele>314.4</ele>
        <time>2025-11-11T08:50:36Z</time>
      </trkpt>
      <trkpt lat="45.70911" lon="4.73679">
        <ele>314.4</ele>
        <time>2025-11-11T08:50:37Z</time>
      </trkpt>
      <trkpt lat="45.70911" lon="4.73679">
        <ele>314.4</ele>
        <time>2025-11-11T08:50:38Z</time>
      </trkpt>
      <trkpt lat="45.70911" lon="4.73679">
        <ele>314.4</ele>
        <time>2025-11-11T08:50:39Z</time>
      </trkpt>
      <trkpt lat="45.70911" lon="4.73679">
        <ele>314.4</ele>
        <time>2025-11-11T08:50:40Z</time>
      </trkpt>
      <trkpt lat="45.70911" lon="4.73679">
        <ele>314.4</ele>
        <time>2025-11-11T08:50:41Z</time>
      </trkpt>
      <trkpt lat="45.70911" lon="4.73679">
        <ele>314.4</ele>
        <time>2025-11-11T08:50:42Z</time>
      </trkpt>
      <trkpt lat="45.70911" lon="4.73679">
        <ele>314.4</ele>
        <time>2025-11-11T08:50:43Z</time>
      </trkpt>
      <trkpt lat="45.70911" lon="4.73679">
        <ele>314.4</ele>
        <time>2025-11-11T08:50:44Z</time>
      </trkpt>
      <trkpt lat="45.70911" lon="4.73679">
        <ele>314.4</ele>
        <time>2025-11-11T08:50:45Z</time>
      </trkpt>
      <trkpt lat="45.70911" lon="4.73679">
        <ele>314.4</ele>
        <time>2025-11-11T08:50:46Z</time>
      </trkpt>
      <trkpt lat="45.70911" lon="4.73679">
        <ele>314.4</ele>
        <time>2025-11-11T08:50:47Z</time>
      </trkpt>
      <trkpt lat="45.70911" lon="4.73679">
        <ele>314.4</ele>
        <time>2025-11-11T08:50:48Z</time>
      </trkpt>
      <trkpt lat="45.70911" lon="4.73679">
        <ele>314.4</ele>
        <time>2025-11-11T08:50:49Z</time>
      </trkpt>
      <trkpt lat="45.70911" lon="4.73679">
        <ele>314.4</ele>
        <time>2025-11-11T08:50:50Z</time>
      </trkpt>
      <trkpt lat="45.70911" lon="4.73679">
        <ele>314.4</ele>
        <time>2025-11-11T08:50:51Z</time>
      </trkpt>
      <trkpt lat="45.70911" lon="4.73679">
        <ele>314.4</ele>
        <time>2025-11-11T08:50:52Z</time>
      </trkpt>
      <trkpt lat="45.70911" lon="4.73679">
        <ele>314.4</ele>
        <time>2025-11-11T08:50:53Z</time>
      </trkpt>
      <trkpt lat="45.70911" lon="4.73679">
        <ele>314.4</ele>
        <time>2025-11-11T08:50:54Z</time>
      </trkpt>
      <trkpt lat="45.70911" lon="4.73679">
        <ele>314.4</ele>
        <time>2025-11-11T08:50:55Z</time>
      </trkpt>
      <trkpt lat="45.70911" lon="4.73679">
        <ele>314.4</ele>
        <time>2025-11-11T08:50:56Z</time>
      </trkpt>
      <trkpt lat="45.70911" lon="4.73679">
        <ele>314.4</ele>
        <time>2025-11-11T08:50:57Z</time>
      </trkpt>
      <trkpt lat="45.70911" lon="4.73679">
        <ele>314.4</ele>
        <time>2025-11-11T08:50:58Z</time>
      </trkpt>
      <trkpt lat="45.70911" lon="4.73679">
        <ele>314.4</ele>
        <time>2025-11-11T08:50:59Z</time>
      </trkpt>
      <trkpt lat="45.70911" lon="4.73679">
        <ele>314.4</ele>
        <time>2025-11-11T08:51:00Z</time>
      </trkpt>
      <trkpt lat="45.70911" lon="4.73679">
        <ele>314.4</ele>
        <time>2025-11-11T08:51:01Z</time>
      </trkpt>
      <trkpt lat="45.70911" lon="4.73679">
        <ele>314.4</ele>
        <time>2025-11-11T08:51:02Z</time>
      </trkpt>
      <trkpt lat="45.70911" lon="4.73679">
        <ele>314.4</ele>
        <time>2025-11-11T08:51:03Z</time>
      </trkpt>
      <trkpt lat="45.70911" lon="4.73679">
        <ele>314.4</ele>
        <time>2025-11-11T08:51:04Z</time>
      </trkpt>
      <trkpt lat="45.70911" lon="4.73679">
        <ele>314.4</ele>
        <time>2025-11-11T08:51:05Z</time>
      </trkpt>
      <trkpt lat="45.70911" lon="4.73679">
        <ele>314.4</ele>
        <time>2025-11-11T08:51:06Z</time>
      </trkpt>
      <trkpt lat="45.70911" lon="4.73679">
        <ele>314.4</ele>
        <time>2025-11-11T08:51:07Z</time>
      </trkpt>
      <trkpt lat="45.70911" lon="4.73679">
        <ele>314.4</ele>
        <time>2025-11-11T08:51:08Z</time>
      </trkpt>
      <trkpt lat="45.70911" lon="4.73679">
        <ele>314.4</ele>
        <time>2025-11-11T08:51:09Z</time>
      </trkpt>
      <trkpt lat="45.70911" lon="4.73679">
        <ele>314.4</ele>
        <time>2025-11-11T08:51:10Z</time>
      </trkpt>
      <trkpt lat="45.70911" lon="4.73679">
        <ele>314.4</ele>
        <time>2025-11-11T08:51:11Z</time>
      </trkpt>
      <trkpt lat="45.70911" lon="4.73679">
        <ele>314.4</ele>
        <time>2025-11-11T08:51:12Z</time>
      </trkpt>
      <trkpt lat="45.70911" lon="4.73679">
        <ele>314.4</ele>
        <time>2025-11-11T08:51:13Z</time>
      </trkpt>
      <trkpt lat="45.70911" lon="4.73679">
        <ele>314.4</ele>
        <time>2025-11-11T08:51:14Z</time>
      </trkpt>
      <trkpt lat="45.70911" lon="4.73679">
        <ele>314.4</ele>
        <time>2025-11-11T08:51:15Z</time>
      </trkpt>
      <trkpt lat="45.70911" lon="4.73679">
        <ele>314.4</ele>
        <time>2025-11-11T08:51:16Z</time>
      </trkpt>
      <trkpt lat="45.70911" lon="4.73679">
        <ele>314.4</ele>
        <time>2025-11-11T08:51:17Z</time>
      </trkpt>
      <trkpt lat="45.70911" lon="4.73679">
        <ele>314.4</ele>
        <time>2025-11-11T08:51:18Z</time>
      </trkpt>
      <trkpt lat="45.70911" lon="4.73679">
        <ele>314.4</ele>
        <time>2025-11-11T08:51:19Z</time>
      </trkpt>
      <trkpt lat="45.70911" lon="4.73679">
        <ele>314.4</ele>
        <time>2025-11-11T08:51:20Z</time>
      </trkpt>
      <trkpt lat="45.70911" lon="4.73679">
        <ele>314.4</ele>
        <time>2025-11-11T08:51:21Z</time>
      </trkpt>
      <trkpt lat="45.70911" lon="4.73679">
        <ele>314.4</ele>
        <time>2025-11-11T08:51:22Z</time>
      </trkpt>
      <trkpt lat="45.70911" lon="4.73679">
        <ele>314.4</ele>
        <time>2025-11-11T08:51:23Z</time>
      </trkpt>
      <trkpt lat="45.70911" lon="4.73679">
        <ele>314.4</ele>
        <time>2025-11-11T08:51:24Z</time>
      </trkpt>
      <trkpt lat="45.70911" lon="4.73679">
        <ele>314.4</ele>
        <time>2025-11-11T08:51:25Z</time>
      </trkpt>
      <trkpt lat="45.70911" lon="4.73679">
        <ele>314.4</ele>
        <time>2025-11-11T08:51:26Z</time>
      </trkpt>
      <trkpt lat="45.70911" lon="4.73679">
        <ele>314.4</ele>
        <time>2025-11-11T08:51:27Z</time>
      </trkpt>
      <trkpt lat="45.70911" lon="4.73679">
        <ele>314.4</ele>
        <time>2025-11-11T08:51:28Z</time>
      </trkpt>
      <trkpt lat="45.70911" lon="4.73679">
        <ele>314.4</ele>
        <time>2025-11-11T08:51:29Z</time>
      </trkpt>
      <trkpt lat="45.70911" lon="4.73679">
        <ele>314.4</ele>
        <time>2025-11-11T08:51:30Z</time>
      </trkpt>
      <trkpt lat="45.70911" lon="4.73679">
        <ele>314.4</ele>
        <time>2025-11-11T08:51:31Z</time>
      </trkpt>
      <trkpt lat="45.70911" lon="4.73679">
        <ele>314.4</ele>
        <time>2025-11-11T08:51:32Z</time>
      </trkpt>
      <trkpt lat="45.70911" lon="4.73679">
        <ele>314.4</ele>
        <time>2025-11-11T08:51:33Z</time>
      </trkpt>
      <trkpt lat="45.70911" lon="4.73679">
        <ele>314.4</ele>
        <time>2025-11-11T08:51:34Z</time>
      </trkpt>
      <trkpt lat="45.70911" lon="4.73679">
        <ele>314.4</ele>
        <time>2025-11-11T08:51:35Z</time>
      </trkpt>
      <trkpt lat="45.70911" lon="4.73679">
        <ele>314.4</ele>
        <time>2025-11-11T08:51:36Z</time>
      </trkpt>
      <trkpt lat="45.70911" lon="4.73679">
        <ele>314.4</ele>
        <time>2025-11-11T08:51:37Z</time>
      </trkpt>
      <trkpt lat="45.70911" lon="4.73679">
        <ele>314.4</ele>
        <time>2025-11-11T08:51:38Z</time>
      </trkpt>
      <trkpt lat="45.70911" lon="4.73679">
        <ele>314.4</ele>
        <time>2025-11-11T08:51:39Z</time>
      </trkpt>
      <trkpt lat="45.70911" lon="4.73679">
        <ele>314.4</ele>
        <time>2025-11-11T08:51:40Z</time>
      </trkpt>
      <trkpt lat="45.70911" lon="4.73679">
        <ele>314.4</ele>
        <time>2025-11-11T08:51:41Z</time>
      </trkpt>
      <trkpt lat="45.70911" lon="4.73679">
        <ele>314.4</ele>
        <time>2025-11-11T08:51:42Z</time>
      </trkpt>
      <trkpt lat="45.70911" lon="4.73679">
        <ele>314.4</ele>
        <time>2025-11-11T08:51:43Z</time>
      </trkpt>
      <trkpt lat="45.70911" lon="4.73679">
        <ele>314.4</ele>
        <time>2025-11-11T08:51:44Z</time>
      </trkpt>
      <trkpt lat="45.70911" lon="4.73679">
        <ele>314.4</ele>
        <time>2025-11-11T08:51:45Z</time>
      </trkpt>
      <trkpt lat="45.70911" lon="4.73679">
        <ele>314.4</ele>
        <time>2025-11-11T08:51:46Z</time>
      </trkpt>
      <trkpt lat="45.70911" lon="4.73679">
        <ele>314.4</ele>
        <time>2025-11-11T08:51:47Z</time>
      </trkpt>
      <trkpt lat="45.70911" lon="4.73679">
        <ele>314.4</ele>
        <time>2025-11-11T08:51:48Z</time>
      </trkpt>
      <trkpt lat="45.70911" lon="4.73679">
        <ele>314.4</ele>
        <time>2025-11-11T08:51:49Z</time>
      </trkpt>
      <trkpt lat="45.70911" lon="4.73679">
        <ele>314.4</ele>
        <time>2025-11-11T08:51:50Z</time>
      </trkpt>
      <trkpt lat="45.70911" lon="4.73679">
        <ele>314.4</ele>
        <time>2025-11-11T08:51:51Z</time>
      </trkpt>
      <trkpt lat="45.70911" lon="4.73679">
        <ele>314.4</ele>
        <time>2025-11-11T08:51:52Z</time>
      </trkpt>
      <trkpt lat="45.70911" lon="4.73679">
        <ele>314.4</ele>
        <time>2025-11-11T08:51:53Z</time>
      </trkpt>
      <trkpt lat="45.70911" lon="4.73679">
        <ele>314.4</ele>
        <time>2025-11-11T08:51:54Z</time>
      </trkpt>
      <trkpt lat="45.70911" lon="4.73679">
        <ele>314.4</ele>
        <time>2025-11-11T08:51:55Z</time>
      </trkpt>
      <trkpt lat="45.70911" lon="4.73679">
        <ele>314.4</ele>
        <time>2025-11-11T08:51:56Z</time>
      </trkpt>
      <trkpt lat="45.70911" lon="4.73679">
        <ele>314.4</ele>
        <time>2025-11-11T08:51:57Z</time>
      </trkpt>
      <trkpt lat="45.70911" lon="4.73679">
        <ele>314.4</ele>
        <time>2025-11-11T08:51:58Z</time>
      </trkpt>
      <trkpt lat="45.70911" lon="4.73679">
        <ele>314.4</ele>
        <time>2025-11-11T08:51:59Z</time>
      </trkpt>
      <trkpt lat="45.70911" lon="4.73679">
        <ele>314.4</ele>
        <time>2025-11-11T08:52:00Z</time>
      </trkpt>
      <trkpt lat="45.70911" lon="4.73679">
        <ele>314.4</ele>
        <time>2025-11-11T08:52:01Z</time>
      </trkpt>
      <trkpt lat="45.70911" lon="4.73679">
        <ele>314.4</ele>
        <time>2025-11-11T08:52:02Z</time>
      </trkpt>
      <trkpt lat="45.70911" lon="4.73679">
        <ele>314.4</ele>
        <time>2025-11-11T08:52:03Z</time>
      </trkpt>
      <trkpt lat="45.70911" lon="4.73679">
        <ele>314.4</ele>
        <time>2025-11-11T08:52:04Z</time>
      </trkpt>
      <trkpt lat="45.70911" lon="4.73679">
        <ele>314.4</ele>
        <time>2025-11-11T08:52:05Z</time>
      </trkpt>
      <trkpt lat="45.70911" lon="4.73679">
        <ele>314.4</ele>
        <time>2025-11-11T08:52:06Z</time>
      </trkpt>
      <trkpt lat="45.70911" lon="4.73679">
        <ele>314.4</ele>
        <time>2025-11-11T08:52:07Z</time>
      </trkpt>
      <trkpt lat="45.70911" lon="4.73679">
        <ele>314.4</ele>
        <time>2025-11-11T08:52:08Z</time>
      </trkpt>
      <trkpt lat="45.70911" lon="4.73679">
        <ele>314.4</ele>
        <time>2025-11-11T08:52:09Z</time>
      </trkpt>
      <trkpt lat="45.70911" lon="4.73679">
        <ele>314.4</ele>
        <time>2025-11-11T08:52:10Z</time>
      </trkpt>
      <trkpt lat="45.70911" lon="4.73679">
        <ele>314.4</ele>
        <time>2025-11-11T08:52:11Z</time>
      </trkpt>
      <trkpt lat="45.70911" lon="4.73679">
        <ele>314.4</ele>
        <time>2025-11-11T08:52:12Z</time>
      </trkpt>
      <trkpt lat="45.70911" lon="4.73679">
        <ele>314.4</ele>
        <time>2025-11-11T08:52:13Z</time>
      </trkpt>
      <trkpt lat="45.70911" lon="4.73679">
        <ele>314.4</ele>
        <time>2025-11-11T08:52:14Z</time>
      </trkpt>
      <trkpt lat="45.70911" lon="4.73679">
        <ele>314.4</ele>
        <time>2025-11-11T08:52:15Z</time>
      </trkpt>
      <trkpt lat="45.70911" lon="4.73679">
        <ele>314.4</ele>
        <time>2025-11-11T08:52:16Z</time>
      </trkpt>
      <trkpt lat="45.70911" lon="4.73679">
        <ele>314.4</ele>
        <time>2025-11-11T08:52:17Z</time>
      </trkpt>
      <trkpt lat="45.70911" lon="4.73679">
        <ele>314.4</ele>
        <time>2025-11-11T08:52:18Z</time>
      </trkpt>
      <trkpt lat="45.70911" lon="4.73679">
        <ele>314.4</ele>
        <time>2025-11-11T08:52:19Z</time>
      </trkpt>
      <trkpt lat="45.70911" lon="4.73679">
        <ele>314.4</ele>
        <time>2025-11-11T08:52:20Z</time>
      </trkpt>
      <trkpt lat="45.70911" lon="4.73679">
        <ele>314.4</ele>
        <time>2025-11-11T08:52:21Z</time>
      </trkpt>
      <trkpt lat="45.70911" lon="4.73679">
        <ele>314.4</ele>
        <time>2025-11-11T08:52:22Z</time>
      </trkpt>
      <trkpt lat="45.70911" lon="4.73679">
        <ele>314.4</ele>
        <time>2025-11-11T08:52:23Z</time>
      </trkpt>
      <trkpt lat="45.70911" lon="4.73679">
        <ele>314.4</ele>
        <time>2025-11-11T08:52:24Z</time>
      </trkpt>
      <trkpt lat="45.70911" lon="4.73679">
        <ele>314.4</ele>
        <time>2025-11-11T08:52:25Z</time>
      </trkpt>
      <trkpt lat="45.70911" lon="4.73679">
        <ele>314.4</ele>
        <time>2025-11-11T08:52:26Z</time>
      </trkpt>
      <trkpt lat="45.70911" lon="4.73679">
        <ele>314.4</ele>
        <time>2025-11-11T08:52:27Z</time>
      </trkpt>
      <trkpt lat="45.70911" lon="4.73679">
        <ele>314.4</ele>
        <time>2025-11-11T08:52:28Z</time>
      </trkpt>
      <trkpt lat="45.70911" lon="4.73679">
        <ele>314.4</ele>
        <time>2025-11-11T08:52:29Z</time>
      </trkpt>
      <trkpt lat="45.70911" lon="4.73679">
        <ele>314.4</ele>
        <time>2025-11-11T08:52:30Z</time>
      </trkpt>
      <trkpt lat="45.70911" lon="4.73679">
        <ele>314.4</ele>
        <time>2025-11-11T08:52:31Z</time>
      </trkpt>
      <trkpt lat="45.70911" lon="4.73679">
        <ele>314.4</ele>
        <time>2025-11-11T08:52:32Z</time>
      </trkpt>
      <trkpt lat="45.70911" lon="4.73679">
        <ele>314.4</ele>
        <time>2025-11-11T08:52:33Z</time>
      </trkpt>
      <trkpt lat="45.70911" lon="4.73679">
        <ele>314.4</ele>
        <time>2025-11-11T08:52:34Z</time>
      </trkpt>
      <trkpt lat="45.70911" lon="4.73679">
        <ele>314.4</ele>
        <time>2025-11-11T08:52:35Z</time>
      </trkpt>
      <trkpt lat="45.70911" lon="4.73679">
        <ele>314.4</ele>
        <time>2025-11-11T08:52:36Z</time>
      </trkpt>
      <trkpt lat="45.70911" lon="4.73679">
        <ele>314.4</ele>
        <time>2025-11-11T08:52:37Z</time>
      </trkpt>
      <trkpt lat="45.70911" lon="4.73679">
        <ele>314.4</ele>
        <time>2025-11-11T08:52:38Z</time>
      </trkpt>
      <trkpt lat="45.70911" lon="4.73679">
        <ele>314.4</ele>
        <time>2025-11-11T08:52:39Z</time>
      </trkpt>
      <trkpt lat="45.70911" lon="4.73679">
        <ele>314.4</ele>
        <time>2025-11-11T08:52:40Z</time>
      </trkpt>
      <trkpt lat="45.70911" lon="4.73679">
        <ele>314.4</ele>
        <time>2025-11-11T08:52:41Z</time>
      </trkpt>
      <trkpt lat="45.70911" lon="4.73679">
        <ele>314.4</ele>
        <time>2025-11-11T08:52:42Z</time>
      </trkpt>
      <trkpt lat="45.70911" lon="4.73679">
        <ele>314.4</ele>
        <time>2025-11-11T08:52:43Z</time>
      </trkpt>
      <trkpt lat="45.70911" lon="4.73679">
        <ele>314.4</ele>
        <time>2025-11-11T08:52:44Z</time>
      </trkpt>
      <trkpt lat="45.70911" lon="4.73679">
        <ele>314.4</ele>
        <time>2025-11-11T08:52:45Z</time>
      </trkpt>
      <trkpt lat="45.70911" lon="4.73679">
        <ele>314.4</ele>
        <time>2025-11-11T08:52:46Z</time>
      </trkpt>
      <trkpt lat="45.70911" lon="4.73679">
        <ele>314.4</ele>
        <time>2025-11-11T08:52:47Z</time>
      </trkpt>
      <trkpt lat="45.70911" lon="4.73679">
        <ele>314.4</ele>
        <time>2025-11-11T08:52:48Z</time>
      </trkpt>
      <trkpt lat="45.70911" lon="4.73679">
        <ele>314.4</ele>
        <time>2025-11-11T08:52:49Z</time>
      </trkpt>
      <trkpt lat="45.70911" lon="4.73679">
        <ele>314.4</ele>
        <time>2025-11-11T08:52:50Z</time>
      </trkpt>
      <trkpt lat="45.70911" lon="4.73679">
        <ele>314.4</ele>
        <time>2025-11-11T08:52:51Z</time>
      </trkpt>
      <trkpt lat="45.70911" lon="4.73679">
        <ele>314.4</ele>
        <time>2025-11-11T08:52:52Z</time>
      </trkpt>
      <trkpt lat="45.70911" lon="4.73679">
        <ele>314.4</ele>
        <time>2025-11-11T08:52:53Z</time>
      </trkpt>
      <trkpt lat="45.70911" lon="4.73679">
        <ele>314.4</ele>
        <time>2025-11-11T08:52:54Z</time>
      </trkpt>
      <trkpt lat="45.70911" lon="4.73679">
        <ele>314.4</ele>
        <time>2025-11-11T08:52:55Z</time>
      </trkpt>
      <trkpt lat="45.70911" lon="4.73679">
        <ele>314.4</ele>
        <time>2025-11-11T08:52:56Z</time>
      </trkpt>
      <trkpt lat="45.70911" lon="4.73679">
        <ele>314.4</ele>
        <time>2025-11-11T08:52:57Z</time>
      </trkpt>
      <trkpt lat="45.70911" lon="4.73679">
        <ele>314.4</ele>
        <time>2025-11-11T08:52:58Z</time>
      </trkpt>
      <trkpt lat="45.70911" lon="4.73679">
        <ele>314.4</ele>
        <time>2025-11-11T08:52:59Z</time>
      </trkpt>
      <trkpt lat="45.70911" lon="4.73679">
        <ele>314.4</ele>
        <time>2025-11-11T08:53:00Z</time>
      </trkpt>
      <trkpt lat="45.70911" lon="4.73679">
        <ele>314.4</ele>
        <time>2025-11-11T08:53:01Z</time>
      </trkpt>
      <trkpt lat="45.70911" lon="4.73679">
        <ele>314.4</ele>
        <time>2025-11-11T08:53:02Z</time>
      </trkpt>
      <trkpt lat="45.70911" lon="4.73679">
        <ele>314.4</ele>
        <time>2025-11-11T08:53:03Z</time>
      </trkpt>
      <trkpt lat="45.70911" lon="4.73679">
        <ele>314.4</ele>
        <time>2025-11-11T08:53:04Z</time>
      </trkpt>
      <trkpt lat="45.70911" lon="4.73679">
        <ele>314.4</ele>
        <time>2025-11-11T08:53:05Z</time>
      </trkpt>
      <trkpt lat="45.70911" lon="4.73679">
        <ele>314.4</ele>
        <time>2025-11-11T08:53:06Z</time>
      </trkpt>
      <trkpt lat="45.70911" lon="4.73679">
        <ele>314.4</ele>
        <time>2025-11-11T08:53:07Z</time>
      </trkpt>
      <trkpt lat="45.70911" lon="4.73679">
        <ele>314.4</ele>
        <time>2025-11-11T08:53:08Z</time>
      </trkpt>
      <trkpt lat="45.70911" lon="4.73679">
        <ele>314.4</ele>
        <time>2025-11-11T08:53:09Z</time>
      </trkpt>
      <trkpt lat="45.70911" lon="4.73679">
        <ele>314.4</ele>
        <time>2025-11-11T08:53:10Z</time>
      </trkpt>
      <trkpt lat="45.70911" lon="4.73679">
        <ele>314.4</ele>
        <time>2025-11-11T08:53:11Z</time>
      </trkpt>
      <trkpt lat="45.70911" lon="4.73679">
        <ele>314.4</ele>
        <time>2025-11-11T08:53:12Z</time>
      </trkpt>
      <trkpt lat="45.70911" lon="4.73679">
        <ele>314.4</ele>
        <time>2025-11-11T08:53:13Z</time>
      </trkpt>
      <trkpt lat="45.70911" lon="4.73679">
        <ele>314.4</ele>
        <time>2025-11-11T08:53:14Z</time>
      </trkpt>
      <trkpt lat="45.70911" lon="4.73679">
        <ele>314.4</ele>
        <time>2025-11-11T08:53:15Z</time>
      </trkpt>
      <trkpt lat="45.70911" lon="4.73679">
        <ele>314.4</ele>
        <time>2025-11-11T08:53:16Z</time>
      </trkpt>
      <trkpt lat="45.70911" lon="4.73679">
        <ele>314.4</ele>
        <time>2025-11-11T08:53:17Z</time>
      </trkpt>
      <trkpt lat="45.70911" lon="4.73679">
        <ele>314.4</ele>
        <time>2025-11-11T08:53:18Z</time>
      </trkpt>
      <trkpt lat="45.70911" lon="4.73679">
        <ele>314.4</ele>
        <time>2025-11-11T08:53:19Z</time>
      </trkpt>
      <trkpt lat="45.70911" lon="4.73679">
        <ele>314.4</ele>
        <time>2025-11-11T08:53:20Z</time>
      </trkpt>
      <trkpt lat="45.70911" lon="4.73679">
        <ele>314.4</ele>
        <time>2025-11-11T08:53:21Z</time>
      </trkpt>
      <trkpt lat="45.70911" lon="4.73679">
        <ele>314.4</ele>
        <time>2025-11-11T08:53:22Z</time>
      </trkpt>
      <trkpt lat="45.70911" lon="4.73679">
        <ele>314.4</ele>
        <time>2025-11-11T08:53:23Z</time>
      </trkpt>
      <trkpt lat="45.70911" lon="4.73679">
        <ele>314.4</ele>
        <time>2025-11-11T08:53:24Z</time>
      </trkpt>
      <trkpt lat="45.70911" lon="4.73679">
        <ele>314.4</ele>
        <time>2025-11-11T08:53:25Z</time>
      </trkpt>
      <trkpt lat="45.70911" lon="4.73679">
        <ele>314.4</ele>
        <time>2025-11-11T08:53:26Z</time>
      </trkpt>
      <trkpt lat="45.70911" lon="4.73679">
        <ele>314.4</ele>
        <time>2025-11-11T08:53:27Z</time>
      </trkpt>
      <trkpt lat="45.70911" lon="4.73679">
        <ele>314.4</ele>
        <time>2025-11-11T08:53:28Z</time>
      </trkpt>
      <trkpt lat="45.70911" lon="4.73679">
        <ele>314.4</ele>
        <time>2025-11-11T08:53:29Z</time>
      </trkpt>
      <trkpt lat="45.70911" lon="4.73679">
        <ele>314.4</ele>
        <time>2025-11-11T08:53:30Z</time>
      </trkpt>
      <trkpt lat="45.70911" lon="4.73679">
        <ele>314.4</ele>
        <time>2025-11-11T08:53:31Z</time>
      </trkpt>
      <trkpt lat="45.70911" lon="4.73679">
        <ele>314.4</ele>
        <time>2025-11-11T08:53:32Z</time>
      </trkpt>
      <trkpt lat="45.70911" lon="4.73679">
        <ele>314.4</ele>
        <time>2025-11-11T08:53:33Z</time>
      </trkpt>
      <trkpt lat="45.70911" lon="4.73679">
        <ele>314.4</ele>
        <time>2025-11-11T08:53:34Z</time>
      </trkpt>
      <trkpt lat="45.70911" lon="4.73679">
        <ele>314.4</ele>
        <time>2025-11-11T08:53:35Z</time>
      </trkpt>
      <trkpt lat="45.70911" lon="4.73679">
        <ele>314.4</ele>
        <time>2025-11-11T08:53:36Z</time>
      </trkpt>
      <trkpt lat="45.70911" lon="4.73679">
        <ele>314.4</ele>
        <time>2025-11-11T08:53:37Z</time>
      </trkpt>
      <trkpt lat="45.70911" lon="4.73679">
        <ele>314.4</ele>
        <time>2025-11-11T08:53:38Z</time>
      </trkpt>
      <trkpt lat="45.70911" lon="4.73679">
        <ele>314.4</ele>
        <time>2025-11-11T08:53:39Z</time>
      </trkpt>
      <trkpt lat="45.70911" lon="4.73679">
        <ele>314.4</ele>
        <time>2025-11-11T08:53:40Z</time>
      </trkpt>
      <trkpt lat="45.70911" lon="4.73679">
        <ele>314.4</ele>
        <time>2025-11-11T08:53:41Z</time>
      </trkpt>
      <trkpt lat="45.70911" lon="4.73679">
        <ele>314.4</ele>
        <time>2025-11-11T08:53:42Z</time>
      </trkpt>
      <trkpt lat="45.70911" lon="4.73679">
        <ele>314.4</ele>
        <time>2025-11-11T08:53:43Z</time>
      </trkpt>
      <trkpt lat="45.70911" lon="4.73679">
        <ele>314.4</ele>
        <time>2025-11-11T08:53:44Z</time>
      </trkpt>
      <trkpt lat="45.70911" lon="4.73679">
        <ele>314.4</ele>
        <time>2025-11-11T08:53:45Z</time>
      </trkpt>
      <trkpt lat="45.70911" lon="4.73679">
        <ele>314.4</ele>
        <time>2025-11-11T08:53:46Z</time>
      </trkpt>
      <trkpt lat="45.70911" lon="4.73679">
        <ele>314.4</ele>
        <time>2025-11-11T08:53:47Z</time>
      </trkpt>
      <trkpt lat="45.70911" lon="4.73679">
        <ele>314.4</ele>
        <time>2025-11-11T08:53:48Z</time>
      </trkpt>
      <trkpt lat="45.70911" lon="4.73679">
        <ele>314.4</ele>
        <time>2025-11-11T08:53:49Z</time>
      </trkpt>
      <trkpt lat="45.70911" lon="4.73679">
        <ele>314.4</ele>
        <time>2025-11-11T08:53:50Z</time>
      </trkpt>
      <trkpt lat="45.70911" lon="4.73679">
        <ele>314.4</ele>
        <time>2025-11-11T08:53:51Z</time>
      </trkpt>
      <trkpt lat="45.70911" lon="4.73679">
        <ele>314.4</ele>
        <time>2025-11-11T08:53:52Z</time>
      </trkpt>
      <trkpt lat="45.70911" lon="4.73679">
        <ele>314.4</ele>
        <time>2025-11-11T08:53:53Z</time>
      </trkpt>
      <trkpt lat="45.70911" lon="4.73679">
        <ele>314.4</ele>
        <time>2025-11-11T08:53:54Z</time>
      </trkpt>
      <trkpt lat="45.70911" lon="4.73679">
        <ele>314.4</ele>
        <time>2025-11-11T08:53:55Z</time>
      </trkpt>
      <trkpt lat="45.70911" lon="4.73679">
        <ele>314.4</ele>
        <time>2025-11-11T08:53:56Z</time>
      </trkpt>
      <trkpt lat="45.70911" lon="4.73679">
        <ele>314.4</ele>
        <time>2025-11-11T08:53:57Z</time>
      </trkpt>
      <trkpt lat="45.70911" lon="4.73679">
        <ele>314.4</ele>
        <time>2025-11-11T08:53:58Z</time>
      </trkpt>
      <trkpt lat="45.70911" lon="4.73679">
        <ele>314.4</ele>
        <time>2025-11-11T08:53:59Z</time>
      </trkpt>
      <trkpt lat="45.70911" lon="4.73679">
        <ele>314.4</ele>
        <time>2025-11-11T08:54:00Z</time>
      </trkpt>
      <trkpt lat="45.70911" lon="4.73679">
        <ele>314.4</ele>
        <time>2025-11-11T08:54:01Z</time>
      </trkpt>
      <trkpt lat="45.70911" lon="4.73679">
        <ele>314.4</ele>
        <time>2025-11-11T08:54:02Z</time>
      </trkpt>
      <trkpt lat="45.70911" lon="4.73679">
        <ele>314.4</ele>
        <time>2025-11-11T08:54:03Z</time>
      </trkpt>
      <trkpt lat="45.70911" lon="4.73679">
        <ele>314.4</ele>
        <time>2025-11-11T08:54:04Z</time>
      </trkpt>
      <trkpt lat="45.70911" lon="4.73679">
        <ele>314.4</ele>
        <time>2025-11-11T08:54:05Z</time>
      </trkpt>
      <trkpt lat="45.70911" lon="4.73679">
        <ele>314.4</ele>
        <time>2025-11-11T08:54:06Z</time>
      </trkpt>
      <trkpt lat="45.70911" lon="4.73679">
        <ele>314.4</ele>
        <time>2025-11-11T08:54:07Z</time>
      </trkpt>
      <trkpt lat="45.70911" lon="4.73679">
        <ele>314.4</ele>
        <time>2025-11-11T08:54:08Z</time>
      </trkpt>
      <trkpt lat="45.70911" lon="4.73679">
        <ele>314.4</ele>
        <time>2025-11-11T08:54:09Z</time>
      </trkpt>
      <trkpt lat="45.70911" lon="4.73679">
        <ele>314.4</ele>
        <time>2025-11-11T08:54:10Z</time>
      </trkpt>
      <trkpt lat="45.70911" lon="4.73679">
        <ele>314.4</ele>
        <time>2025-11-11T08:54:11Z</time>
      </trkpt>
      <trkpt lat="45.70911" lon="4.73679">
        <ele>314.4</ele>
        <time>2025-11-11T08:54:12Z</time>
      </trkpt>
      <trkpt lat="45.70911" lon="4.73679">
        <ele>314.4</ele>
        <time>2025-11-11T08:54:13Z</time>
      </trkpt>
      <trkpt lat="45.70911" lon="4.73679">
        <ele>314.4</ele>
        <time>2025-11-11T08:54:14Z</time>
      </trkpt>
      <trkpt lat="45.70911" lon="4.73679">
        <ele>314.4</ele>
        <time>2025-11-11T08:54:15Z</time>
      </trkpt>
      <trkpt lat="45.70911" lon="4.73679">
        <ele>314.4</ele>
        <time>2025-11-11T08:54:16Z</time>
      </trkpt>
      <trkpt lat="45.70911" lon="4.73679">
        <ele>314.4</ele>
        <time>2025-11-11T08:54:17Z</time>
      </trkpt>
      <trkpt lat="45.70911" lon="4.73679">
        <ele>314.4</ele>
        <time>2025-11-11T08:54:18Z</time>
      </trkpt>
      <trkpt lat="45.70911" lon="4.73679">
        <ele>314.4</ele>
        <time>2025-11-11T08:54:19Z</time>
      </trkpt>
      <trkpt lat="45.70911" lon="4.73679">
        <ele>314.4</ele>
        <time>2025-11-11T08:54:20Z</time>
      </trkpt>
      <trkpt lat="45.70911" lon="4.73679">
        <ele>314.4</ele>
        <time>2025-11-11T08:54:21Z</time>
      </trkpt>
      <trkpt lat="45.70911" lon="4.73679">
        <ele>314.4</ele>
        <time>2025-11-11T08:54:22Z</time>
      </trkpt>
      <trkpt lat="45.70911" lon="4.73679">
        <ele>314.4</ele>
        <time>2025-11-11T08:54:23Z</time>
      </trkpt>
      <trkpt lat="45.70911" lon="4.73679">
        <ele>314.4</ele>
        <time>2025-11-11T08:54:24Z</time>
      </trkpt>
      <trkpt lat="45.70911" lon="4.73679">
        <ele>314.4</ele>
        <time>2025-11-11T08:54:25Z</time>
      </trkpt>
      <trkpt lat="45.70911" lon="4.73679">
        <ele>314.4</ele>
        <time>2025-11-11T08:54:26Z</time>
      </trkpt>
      <trkpt lat="45.70911" lon="4.73679">
        <ele>314.4</ele>
        <time>2025-11-11T08:54:27Z</time>
      </trkpt>
      <trkpt lat="45.70911" lon="4.73679">
        <ele>314.4</ele>
        <time>2025-11-11T08:54:28Z</time>
      </trkpt>
      <trkpt lat="45.70911" lon="4.73679">
        <ele>314.4</ele>
        <time>2025-11-11T08:54:29Z</time>
      </trkpt>
      <trkpt lat="45.70911" lon="4.73679">
        <ele>314.4</ele>
        <time>2025-11-11T08:54:30Z</time>
      </trkpt>
      <trkpt lat="45.70911" lon="4.73679">
        <ele>314.4</ele>
        <time>2025-11-11T08:54:31Z</time>
      </trkpt>
      <trkpt lat="45.70911" lon="4.73679">
        <ele>314.4</ele>
        <time>2025-11-11T08:54:32Z</time>
      </trkpt>
      <trkpt lat="45.70911" lon="4.73679">
        <ele>314.4</ele>
        <time>2025-11-11T08:54:33Z</time>
      </trkpt>
      <trkpt lat="45.70911" lon="4.73679">
        <ele>314.4</ele>
        <time>2025-11-11T08:54:34Z</time>
      </trkpt>
      <trkpt lat="45.70911" lon="4.73679">
        <ele>314.4</ele>
        <time>2025-11-11T08:54:35Z</time>
      </trkpt>
      <trkpt lat="45.70911" lon="4.73679">
        <ele>314.4</ele>
        <time>2025-11-11T08:54:36Z</time>
      </trkpt>
      <trkpt lat="45.70911" lon="4.73679">
        <ele>314.4</ele>
        <time>2025-11-11T08:54:37Z</time>
      </trkpt>
      <trkpt lat="45.70911" lon="4.73679">
        <ele>314.4</ele>
        <time>2025-11-11T08:54:38Z</time>
      </trkpt>
      <trkpt lat="45.70911" lon="4.73679">
        <ele>314.4</ele>
        <time>2025-11-11T08:54:39Z</time>
      </trkpt>
      <trkpt lat="45.70911" lon="4.73679">
        <ele>314.4</ele>
        <time>2025-11-11T08:54:40Z</time>
      </trkpt>
      <trkpt lat="45.70911" lon="4.73679">
        <ele>314.4</ele>
        <time>2025-11-11T08:54:41Z</time>
      </trkpt>
      <trkpt lat="45.70911" lon="4.73679">
        <ele>314.4</ele>
        <time>2025-11-11T08:54:42Z</time>
      </trkpt>
      <trkpt lat="45.70911" lon="4.73679">
        <ele>314.4</ele>
        <time>2025-11-11T08:54:43Z</time>
      </trkpt>
      <trkpt lat="45.70911" lon="4.73679">
        <ele>314.4</ele>
        <time>2025-11-11T08:54:44Z</time>
      </trkpt>
      <trkpt lat="45.70911" lon="4.73679">
        <ele>314.4</ele>
        <time>2025-11-11T08:54:45Z</time>
      </trkpt>
      <trkpt lat="45.70911" lon="4.73679">
        <ele>314.4</ele>
        <time>2025-11-11T08:54:46Z</time>
      </trkpt>
      <trkpt lat="45.70911" lon="4.73679">
        <ele>314.4</ele>
        <time>2025-11-11T08:54:47Z</time>
      </trkpt>
      <trkpt lat="45.70911" lon="4.73679">
        <ele>314.4</ele>
        <time>2025-11-11T08:54:48Z</time>
      </trkpt>
      <trkpt lat="45.70911" lon="4.73679">
        <ele>314.4</ele>
        <time>2025-11-11T08:54:49Z</time>
      </trkpt>
      <trkpt lat="45.70911" lon="4.73679">
        <ele>314.4</ele>
        <time>2025-11-11T08:54:50Z</time>
      </trkpt>
      <trkpt lat="45.70911" lon="4.73679">
        <ele>314.4</ele>
        <time>2025-11-11T08:54:51Z</time>
      </trkpt>
      <trkpt lat="45.70911" lon="4.73679">
        <ele>314.4</ele>
        <time>2025-11-11T08:54:52Z</time>
      </trkpt>
      <trkpt lat="45.70911" lon="4.73679">
        <ele>314.4</ele>
        <time>2025-11-11T08:54:53Z</time>
      </trkpt>
      <trkpt lat="45.70911" lon="4.73679">
        <ele>314.4</ele>
        <time>2025-11-11T08:54:54Z</time>
      </trkpt>
      <trkpt lat="45.70911" lon="4.73679">
        <ele>314.4</ele>
        <time>2025-11-11T08:54:55Z</time>
      </trkpt>
      <trkpt lat="45.70911" lon="4.73679">
        <ele>314.4</ele>
        <time>2025-11-11T08:54:56Z</time>
      </trkpt>
      <trkpt lat="45.70911" lon="4.73679">
        <ele>314.4</ele>
        <time>2025-11-11T08:54:57Z</time>
      </trkpt>
      <trkpt lat="45.70911" lon="4.73679">
        <ele>314.4</ele>
        <time>2025-11-11T08:54:58Z</time>
      </trkpt>
      <trkpt lat="45.70911" lon="4.73679">
        <ele>314.4</ele>
        <time>2025-11-11T08:54:59Z</time>
      </trkpt>
      <trkpt lat="45.70911" lon="4.73679">
        <ele>314.4</ele>
        <time>2025-11-11T08:55:00Z</time>
      </trkpt>
      <trkpt lat="45.70911" lon="4.73679">
        <ele>314.4</ele>
        <time>2025-11-11T08:55:01Z</time>
      </trkpt>
      <trkpt lat="45.70911" lon="4.73679">
        <ele>314.4</ele>
        <time>2025-11-11T08:55:02Z</time>
      </trkpt>
      <trkpt lat="45.70911" lon="4.73679">
        <ele>314.4</ele>
        <time>2025-11-11T08:55:03Z</time>
      </trkpt>
      <trkpt lat="45.70911" lon="4.73679">
        <ele>314.4</ele>
        <time>2025-11-11T08:55:04Z</time>
      </trkpt>
      <trkpt lat="45.70911" lon="4.73679">
        <ele>314.4</ele>
        <time>2025-11-11T08:55:05Z</time>
      </trkpt>
      <trkpt lat="45.70911" lon="4.73679">
        <ele>314.4</ele>
        <time>2025-11-11T08:55:06Z</time>
      </trkpt>
      <trkpt lat="45.70911" lon="4.73679">
        <ele>314.4</ele>
        <time>2025-11-11T08:55:07Z</time>
      </trkpt>
      <trkpt lat="45.70911" lon="4.73679">
        <ele>314.4</ele>
        <time>2025-11-11T08:55:08Z</time>
      </trkpt>
      <trkpt lat="45.70911" lon="4.73679">
        <ele>314.4</ele>
        <time>2025-11-11T08:55:09Z</time>
      </trkpt>
      <trkpt lat="45.70911" lon="4.73679">
        <ele>314.4</ele>
        <time>2025-11-11T08:55:10Z</time>
      </trkpt>
      <trkpt lat="45.70911" lon="4.73679">
        <ele>314.4</ele>
        <time>2025-11-11T08:55:11Z</time>
      </trkpt>
      <trkpt lat="45.70911" lon="4.73679">
        <ele>314.4</ele>
        <time>2025-11-11T08:55:12Z</time>
      </trkpt>
      <trkpt lat="45.70911" lon="4.73679">
        <ele>314.4</ele>
        <time>2025-11-11T08:55:13Z</time>
      </trkpt>
      <trkpt lat="45.70911" lon="4.73679">
        <ele>314.4</ele>
        <time>2025-11-11T08:55:14Z</time>
      </trkpt>
      <trkpt lat="45.70911" lon="4.73679">
        <ele>314.4</ele>
        <time>2025-11-11T08:55:15Z</time>
      </trkpt>
      <trkpt lat="45.70911" lon="4.73679">
        <ele>314.4</ele>
        <time>2025-11-11T08:55:16Z</time>
      </trkpt>
      <trkpt lat="45.70911" lon="4.73679">
        <ele>314.4</ele>
        <time>2025-11-11T08:55:17Z</time>
      </trkpt>
      <trkpt lat="45.70911" lon="4.73679">
        <ele>314.4</ele>
        <time>2025-11-11T08:55:18Z</time>
      </trkpt>
      <trkpt lat="45.70911" lon="4.73679">
        <ele>314.4</ele>
        <time>2025-11-11T08:55:19Z</time>
      </trkpt>
      <trkpt lat="45.70911" lon="4.73679">
        <ele>314.4</ele>
        <time>2025-11-11T08:55:20Z</time>
      </trkpt>
      <trkpt lat="45.70911" lon="4.73679">
        <ele>314.4</ele>
        <time>2025-11-11T08:55:21Z</time>
      </trkpt>
      <trkpt lat="45.70911" lon="4.73679">
        <ele>314.4</ele>
        <time>2025-11-11T08:55:22Z</time>
      </trkpt>
      <trkpt lat="45.70911" lon="4.73679">
        <ele>314.4</ele>
        <time>2025-11-11T08:55:23Z</time>
      </trkpt>
      <trkpt lat="45.70911" lon="4.73679">
        <ele>314.4</ele>
        <time>2025-11-11T08:55:24Z</time>
      </trkpt>
      <trkpt lat="45.70911" lon="4.73679">
        <ele>314.4</ele>
        <time>2025-11-11T08:55:25Z</time>
      </trkpt>
      <trkpt lat="45.70911" lon="4.73679">
        <ele>314.4</ele>
        <time>2025-11-11T08:55:26Z</time>
      </trkpt>
      <trkpt lat="45.70911" lon="4.73679">
        <ele>314.4</ele>
        <time>2025-11-11T08:55:27Z</time>
      </trkpt>
      <trkpt lat="45.70911" lon="4.73679">
        <ele>314.4</ele>
        <time>2025-11-11T08:55:28Z</time>
      </trkpt>
      <trkpt lat="45.70911" lon="4.73679">
        <ele>314.4</ele>
        <time>2025-11-11T08:55:29Z</time>
      </trkpt>
      <trkpt lat="45.70911" lon="4.73679">
        <ele>314.4</ele>
        <time>2025-11-11T08:55:30Z</time>
      </trkpt>
      <trkpt lat="45.70911" lon="4.73679">
        <ele>314.4</ele>
        <time>2025-11-11T08:55:31Z</time>
      </trkpt>
      <trkpt lat="45.70911" lon="4.73679">
        <ele>314.4</ele>
        <time>2025-11-11T08:55:32Z</time>
      </trkpt>
      <trkpt lat="45.70911" lon="4.73679">
        <ele>314.4</ele>
        <time>2025-11-11T08:55:33Z</time>
      </trkpt>
      <trkpt lat="45.70911" lon="4.73679">
        <ele>314.4</ele>
        <time>2025-11-11T08:55:34Z</time>
      </trkpt>
      <trkpt lat="45.70911" lon="4.73679">
        <ele>314.4</ele>
        <time>2025-11-11T08:55:35Z</time>
      </trkpt>
      <trkpt lat="45.70911" lon="4.73679">
        <ele>314.4</ele>
        <time>2025-11-11T08:55:36Z</time>
      </trkpt>
      <trkpt lat="45.70911" lon="4.73679">
        <ele>314.4</ele>
        <time>2025-11-11T08:55:37Z</time>
      </trkpt>
      <trkpt lat="45.70911" lon="4.73679">
        <ele>314.4</ele>
        <time>2025-11-11T08:55:38Z</time>
      </trkpt>
      <trkpt lat="45.70911" lon="4.73679">
        <ele>314.4</ele>
        <time>2025-11-11T08:55:39Z</time>
      </trkpt>
      <trkpt lat="45.70911" lon="4.73679">
        <ele>314.4</ele>
        <time>2025-11-11T08:55:40Z</time>
      </trkpt>
      <trkpt lat="45.70911" lon="4.73679">
        <ele>314.4</ele>
        <time>2025-11-11T08:55:41Z</time>
      </trkpt>
      <trkpt lat="45.70911" lon="4.73679">
        <ele>314.4</ele>
        <time>2025-11-11T08:55:42Z</time>
      </trkpt>
      <trkpt lat="45.70911" lon="4.73679">
        <ele>314.4</ele>
        <time>2025-11-11T08:55:43Z</time>
      </trkpt>
      <trkpt lat="45.70911" lon="4.73679">
        <ele>314.4</ele>
        <time>2025-11-11T08:55:44Z</time>
      </trkpt>
      <trkpt lat="45.70911" lon="4.73679">
        <ele>314.4</ele>
        <time>2025-11-11T08:55:45Z</time>
      </trkpt>
      <trkpt lat="45.70911" lon="4.73679">
        <ele>314.4</ele>
        <time>2025-11-11T08:55:46Z</time>
      </trkpt>
      <trkpt lat="45.70911" lon="4.73679">
        <ele>314.4</ele>
        <time>2025-11-11T08:55:47Z</time>
      </trkpt>
      <trkpt lat="45.70911" lon="4.73679">
        <ele>314.4</ele>
        <time>2025-11-11T08:55:48Z</time>
      </trkpt>
      <trkpt lat="45.70911" lon="4.73679">
        <ele>314.4</ele>
        <time>2025-11-11T08:55:49Z</time>
      </trkpt>
      <trkpt lat="45.70911" lon="4.73679">
        <ele>314.4</ele>
        <time>2025-11-11T08:55:50Z</time>
      </trkpt>
      <trkpt lat="45.70911" lon="4.73679">
        <ele>314.4</ele>
        <time>2025-11-11T08:55:51Z</time>
      </trkpt>
      <trkpt lat="45.70911" lon="4.73679">
        <ele>314.4</ele>
        <time>2025-11-11T08:55:52Z</time>
      </trkpt>
      <trkpt lat="45.70911" lon="4.73679">
        <ele>314.4</ele>
        <time>2025-11-11T08:55:53Z</time>
      </trkpt>
      <trkpt lat="45.70911" lon="4.73679">
        <ele>314.4</ele>
        <time>2025-11-11T08:55:54Z</time>
      </trkpt>
      <trkpt lat="45.70911" lon="4.73679">
        <ele>314.4</ele>
        <time>2025-11-11T08:55:55Z</time>
      </trkpt>
      <trkpt lat="45.70911" lon="4.73679">
        <ele>314.4</ele>
        <time>2025-11-11T08:55:56Z</time>
      </trkpt>
      <trkpt lat="45.70911" lon="4.73679">
        <ele>314.4</ele>
        <time>2025-11-11T08:55:57Z</time>
      </trkpt>
      <trkpt lat="45.70911" lon="4.73679">
        <ele>314.4</ele>
        <time>2025-11-11T08:55:58Z</time>
      </trkpt>
      <trkpt lat="45.70911" lon="4.73679">
        <ele>314.4</ele>
        <time>2025-11-11T08:55:59Z</time>
      </trkpt>
      <trkpt lat="45.70911" lon="4.73679">
        <ele>314.4</ele>
        <time>2025-11-11T08:56:00Z</time>
      </trkpt>
      <trkpt lat="45.70911" lon="4.73679">
        <ele>314.4</ele>
        <time>2025-11-11T08:56:01Z</time>
      </trkpt>
      <trkpt lat="45.70911" lon="4.73679">
        <ele>314.4</ele>
        <time>2025-11-11T08:56:02Z</time>
      </trkpt>
      <trkpt lat="45.70911" lon="4.73679">
        <ele>314.4</ele>
        <time>2025-11-11T08:56:03Z</time>
      </trkpt>
      <trkpt lat="45.70911" lon="4.73679">
        <ele>314.4</ele>
        <time>2025-11-11T08:56:04Z</time>
      </trkpt>
      <trkpt lat="45.70911" lon="4.73679">
        <ele>314.4</ele>
        <time>2025-11-11T08:56:05Z</time>
      </trkpt>
      <trkpt lat="45.70911" lon="4.73679">
        <ele>314.4</ele>
        <time>2025-11-11T08:56:06Z</time>
      </trkpt>
      <trkpt lat="45.70911" lon="4.73679">
        <ele>314.4</ele>
        <time>2025-11-11T08:56:07Z</time>
      </trkpt>
      <trkpt lat="45.70911" lon="4.73679">
        <ele>314.4</ele>
        <time>2025-11-11T08:56:08Z</time>
      </trkpt>
      <trkpt lat="45.70911" lon="4.73679">
        <ele>314.4</ele>
        <time>2025-11-11T08:56:09Z</time>
      </trkpt>
      <trkpt lat="45.70911" lon="4.73679">
        <ele>314.4</ele>
        <time>2025-11-11T08:56:10Z</time>
      </trkpt>
      <trkpt lat="45.70911" lon="4.73679">
        <ele>314.4</ele>
        <time>2025-11-11T08:56:11Z</time>
      </trkpt>
      <trkpt lat="45.70911" lon="4.73679">
        <ele>314.4</ele>
        <time>2025-11-11T08:56:12Z</time>
      </trkpt>
      <trkpt lat="45.70911" lon="4.73679">
        <ele>314.4</ele>
        <time>2025-11-11T08:56:13Z</time>
      </trkpt>
      <trkpt lat="45.70911" lon="4.73679">
        <ele>314.4</ele>
        <time>2025-11-11T08:56:14Z</time>
      </trkpt>
      <trkpt lat="45.70911" lon="4.73679">
        <ele>314.4</ele>
        <time>2025-11-11T08:56:15Z</time>
      </trkpt>
      <trkpt lat="45.70911" lon="4.73679">
        <ele>314.4</ele>
        <time>2025-11-11T08:56:16Z</time>
      </trkpt>
      <trkpt lat="45.70911" lon="4.73679">
        <ele>314.4</ele>
        <time>2025-11-11T08:56:17Z</time>
      </trkpt>
      <trkpt lat="45.70911" lon="4.73679">
        <ele>314.4</ele>
        <time>2025-11-11T08:56:18Z</time>
      </trkpt>
      <trkpt lat="45.70911" lon="4.73679">
        <ele>314.4</ele>
        <time>2025-11-11T08:56:19Z</time>
      </trkpt>
      <trkpt lat="45.70911" lon="4.73679">
        <ele>314.4</ele>
        <time>2025-11-11T08:56:20Z</time>
      </trkpt>
      <trkpt lat="45.70911" lon="4.73679">
        <ele>314.4</ele>
        <time>2025-11-11T08:56:21Z</time>
      </trkpt>
      <trkpt lat="45.70911" lon="4.73679">
        <ele>314.4</ele>
        <time>2025-11-11T08:56:22Z</time>
      </trkpt>
      <trkpt lat="45.7091" lon="4.73679">
        <ele>314.4</ele>
        <time>2025-11-11T08:56:23Z</time>
      </trkpt>
      <trkpt lat="45.7091" lon="4.73679">
        <ele>314.4</ele>
        <time>2025-11-11T08:56:24Z</time>
      </trkpt>
      <trkpt lat="45.7091" lon="4.73679">
        <ele>314.4</ele>
        <time>2025-11-11T08:56:25Z</time>
      </trkpt>
      <trkpt lat="45.7091" lon="4.73679">
        <ele>314.4</ele>
        <time>2025-11-11T08:56:26Z</time>
      </trkpt>
      <trkpt lat="45.7091" lon="4.73679">
        <ele>314.4</ele>
        <time>2025-11-11T08:56:27Z</time>
      </trkpt>
      <trkpt lat="45.7091" lon="4.73679">
        <ele>314.4</ele>
        <time>2025-11-11T08:56:28Z</time>
      </trkpt>
      <trkpt lat="45.7091" lon="4.73679">
        <ele>314.4</ele>
        <time>2025-11-11T08:56:29Z</time>
      </trkpt>
      <trkpt lat="45.7091" lon="4.73679">
        <ele>314.4</ele>
        <time>2025-11-11T08:56:30Z</time>
      </trkpt>
      <trkpt lat="45.7091" lon="4.73679">
        <ele>314.4</ele>
        <time>2025-11-11T08:56:31Z</time>
      </trkpt>
      <trkpt lat="45.7091" lon="4.73679">
        <ele>314.4</ele>
        <time>2025-11-11T08:56:32Z</time>
      </trkpt>
      <trkpt lat="45.7091" lon="4.73679">
        <ele>314.4</ele>
        <time>2025-11-11T08:56:33Z</time>
      </trkpt>
      <trkpt lat="45.7091" lon="4.73679">
        <ele>314.4</ele>
        <time>2025-11-11T08:56:34Z</time>
      </trkpt>
      <trkpt lat="45.7091" lon="4.73679">
        <ele>314.4</ele>
        <time>2025-11-11T08:56:35Z</time>
      </trkpt>
      <trkpt lat="45.7091" lon="4.73679">
        <ele>314.4</ele>
        <time>2025-11-11T08:56:36Z</time>
      </trkpt>
      <trkpt lat="45.7091" lon="4.73679">
        <ele>314.4</ele>
        <time>2025-11-11T08:56:37Z</time>
      </trkpt>
      <trkpt lat="45.7091" lon="4.73679">
        <ele>314.4</ele>
        <time>2025-11-11T08:56:38Z</time>
      </trkpt>
      <trkpt lat="45.7091" lon="4.73679">
        <ele>314.4</ele>
        <time>2025-11-11T08:56:39Z</time>
      </trkpt>
      <trkpt lat="45.70909" lon="4.73678">
        <ele>314.4</ele>
        <time>2025-11-11T08:56:40Z</time>
      </trkpt>
      <trkpt lat="45.70908" lon="4.73677">
        <ele>314.4</ele>
        <time>2025-11-11T08:56:41Z</time>
      </trkpt>
      <trkpt lat="45.70907" lon="4.73676">
        <ele>314.4</ele>
        <time>2025-11-11T08:56:42Z</time>
      </trkpt>
      <trkpt lat="45.70904" lon="4.73675">
        <ele>314.4</ele>
        <time>2025-11-11T08:56:43Z</time>
      </trkpt>
      <trkpt lat="45.70902" lon="4.73674">
        <ele>314.4</ele>
        <time>2025-11-11T08:56:44Z</time>
      </trkpt>
      <trkpt lat="45.70899" lon="4.73673">
        <ele>314.2</ele>
        <time>2025-11-11T08:56:45Z</time>
      </trkpt>
      <trkpt lat="45.70896" lon="4.73673">
        <ele>314.2</ele>
        <time>2025-11-11T08:56:46Z</time>
      </trkpt>
      <trkpt lat="45.70893" lon="4.73671">
        <ele>314</ele>
        <time>2025-11-11T08:56:47Z</time>
      </trkpt>
      <trkpt lat="45.70889" lon="4.73669">
        <ele>314</ele>
        <time>2025-11-11T08:56:48Z</time>
      </trkpt>
      <trkpt lat="45.70886" lon="4.73666">
        <ele>313.8</ele>
        <time>2025-11-11T08:56:49Z</time>
      </trkpt>
      <trkpt lat="45.70882" lon="4.73662">
        <ele>313.6</ele>
        <time>2025-11-11T08:56:50Z</time>
      </trkpt>
      <trkpt lat="45.70879" lon="4.73657">
        <ele>313.4</ele>
        <time>2025-11-11T08:56:51Z</time>
      </trkpt>
      <trkpt lat="45.70876" lon="4.73652">
        <ele>313.4</ele>
        <time>2025-11-11T08:56:52Z</time>
      </trkpt>
      <trkpt lat="45.70873" lon="4.73647">
        <ele>313.2</ele>
        <time>2025-11-11T08:56:53Z</time>
      </trkpt>
      <trkpt lat="45.70869" lon="4.73643">
        <ele>313.2</ele>
        <time>2025-11-11T08:56:54Z</time>
      </trkpt>
      <trkpt lat="45.70865" lon="4.73639">
        <ele>313.2</ele>
        <time>2025-11-11T08:56:55Z</time>
      </trkpt>
      <trkpt lat="45.70861" lon="4.73635">
        <ele>313.2</ele>
        <time>2025-11-11T08:56:56Z</time>
      </trkpt>
      <trkpt lat="45.70857" lon="4.73631">
        <ele>313</ele>
        <time>2025-11-11T08:56:57Z</time>
      </trkpt>
      <trkpt lat="45.70853" lon="4.73627">
        <ele>313</ele>
        <time>2025-11-11T08:56:58Z</time>
      </trkpt>
      <trkpt lat="45.70849" lon="4.73622">
        <ele>312.8</ele>
        <time>2025-11-11T08:56:59Z</time>
      </trkpt>
      <trkpt lat="45.70845" lon="4.73618">
        <ele>312.8</ele>
        <time>2025-11-11T08:57:00Z</time>
      </trkpt>
      <trkpt lat="45.7084" lon="4.73614">
        <ele>312.8</ele>
        <time>2025-11-11T08:57:01Z</time>
      </trkpt>
      <trkpt lat="45.70836" lon="4.7361">
        <ele>312.8</ele>
        <time>2025-11-11T08:57:02Z</time>
      </trkpt>
      <trkpt lat="45.70833" lon="4.73606">
        <ele>312.8</ele>
        <time>2025-11-11T08:57:03Z</time>
      </trkpt>
      <trkpt lat="45.70829" lon="4.73602">
        <ele>313</ele>
        <time>2025-11-11T08:57:04Z</time>
      </trkpt>
      <trkpt lat="45.70825" lon="4.73598">
        <ele>313</ele>
        <time>2025-11-11T08:57:05Z</time>
      </trkpt>
      <trkpt lat="45.7082" lon="4.73594">
        <ele>313</ele>
        <time>2025-11-11T08:57:06Z</time>
      </trkpt>
      <trkpt lat="45.70816" lon="4.73591">
        <ele>313</ele>
        <time>2025-11-11T08:57:07Z</time>
      </trkpt>
      <trkpt lat="45.70812" lon="4.73586">
        <ele>313</ele>
        <time>2025-11-11T08:57:08Z</time>
      </trkpt>
      <trkpt lat="45.70808" lon="4.73582">
        <ele>313</ele>
        <time>2025-11-11T08:57:09Z</time>
      </trkpt>
      <trkpt lat="45.70805" lon="4.73578">
        <ele>313.2</ele>
        <time>2025-11-11T08:57:10Z</time>
      </trkpt>
      <trkpt lat="45.70801" lon="4.73575">
        <ele>313.2</ele>
        <time>2025-11-11T08:57:11Z</time>
      </trkpt>
      <trkpt lat="45.70796" lon="4.73571">
        <ele>313.2</ele>
        <time>2025-11-11T08:57:12Z</time>
      </trkpt>
      <trkpt lat="45.70792" lon="4.73567">
        <ele>313.4</ele>
        <time>2025-11-11T08:57:13Z</time>
      </trkpt>
      <trkpt lat="45.70788" lon="4.73563">
        <ele>313.4</ele>
        <time>2025-11-11T08:57:14Z</time>
      </trkpt>
      <trkpt lat="45.70784" lon="4.73558">
        <ele>313.4</ele>
        <time>2025-11-11T08:57:15Z</time>
      </trkpt>
      <trkpt lat="45.70779" lon="4.73554">
        <ele>313.2</ele>
        <time>2025-11-11T08:57:16Z</time>
      </trkpt>
      <trkpt lat="45.70775" lon="4.73549">
        <ele>313.2</ele>
        <time>2025-11-11T08:57:17Z</time>
      </trkpt>
      <trkpt lat="45.7077" lon="4.73545">
        <ele>313</ele>
        <time>2025-11-11T08:57:18Z</time>
      </trkpt>
      <trkpt lat="45.70766" lon="4.7354">
        <ele>313</ele>
        <time>2025-11-11T08:57:19Z</time>
      </trkpt>
      <trkpt lat="45.70761" lon="4.73536">
        <ele>312.8</ele>
        <time>2025-11-11T08:57:20Z</time>
      </trkpt>
      <trkpt lat="45.70756" lon="4.73531">
        <ele>312.8</ele>
        <time>2025-11-11T08:57:21Z</time>
      </trkpt>
      <trkpt lat="45.70751" lon="4.73527">
        <ele>312.6</ele>
        <time>2025-11-11T08:57:22Z</time>
      </trkpt>
      <trkpt lat="45.70747" lon="4.73522">
        <ele>312.4</ele>
        <time>2025-11-11T08:57:23Z</time>
      </trkpt>
      <trkpt lat="45.70742" lon="4.73517">
        <ele>312.2</ele>
        <time>2025-11-11T08:57:24Z</time>
      </trkpt>
      <trkpt lat="45.70738" lon="4.73513">
        <ele>312.2</ele>
        <time>2025-11-11T08:57:25Z</time>
      </trkpt>
      <trkpt lat="45.70733" lon="4.73508">
        <ele>312</ele>
        <time>2025-11-11T08:57:26Z</time>
      </trkpt>
      <trkpt lat="45.70729" lon="4.73503">
        <ele>312</ele>
        <time>2025-11-11T08:57:27Z</time>
      </trkpt>
      <trkpt lat="45.70724" lon="4.73499">
        <ele>311.8</ele>
        <time>2025-11-11T08:57:28Z</time>
      </trkpt>
      <trkpt lat="45.7072" lon="4.73494">
        <ele>311.8</ele>
        <time>2025-11-11T08:57:29Z</time>
      </trkpt>
      <trkpt lat="45.70715" lon="4.73489">
        <ele>311.8</ele>
        <time>2025-11-11T08:57:30Z</time>
      </trkpt>
      <trkpt lat="45.7071" lon="4.73485">
        <ele>311.8</ele>
        <time>2025-11-11T08:57:31Z</time>
      </trkpt>
      <trkpt lat="45.70706" lon="4.7348">
        <ele>311.6</ele>
        <time>2025-11-11T08:57:32Z</time>
      </trkpt>
      <trkpt lat="45.70701" lon="4.73475">
        <ele>311.6</ele>
        <time>2025-11-11T08:57:33Z</time>
      </trkpt>
      <trkpt lat="45.70696" lon="4.7347">
        <ele>311.6</ele>
        <time>2025-11-11T08:57:34Z</time>
      </trkpt>
      <trkpt lat="45.70692" lon="4.73465">
        <ele>311.4</ele>
        <time>2025-11-11T08:57:35Z</time>
      </trkpt>
      <trkpt lat="45.70687" lon="4.73459">
        <ele>311.4</ele>
        <time>2025-11-11T08:57:36Z</time>
      </trkpt>
      <trkpt lat="45.70683" lon="4.73454">
        <ele>311.2</ele>
        <time>2025-11-11T08:57:37Z</time>
      </trkpt>
      <trkpt lat="45.70679" lon="4.73448">
        <ele>311</ele>
        <time>2025-11-11T08:57:38Z</time>
      </trkpt>
      <trkpt lat="45.70675" lon="4.73443">
        <ele>311</ele>
        <time>2025-11-11T08:57:39Z</time>
      </trkpt>
      <trkpt lat="45.7067" lon="4.73437">
        <ele>310.8</ele>
        <time>2025-11-11T08:57:40Z</time>
      </trkpt>
      <trkpt lat="45.70665" lon="4.73431">
        <ele>310.6</ele>
        <time>2025-11-11T08:57:41Z</time>
      </trkpt>
      <trkpt lat="45.70661" lon="4.73425">
        <ele>310.4</ele>
        <time>2025-11-11T08:57:42Z</time>
      </trkpt>
      <trkpt lat="45.70657" lon="4.73419">
        <ele>310.2</ele>
        <time>2025-11-11T08:57:43Z</time>
      </trkpt>
      <trkpt lat="45.70652" lon="4.73413">
        <ele>310</ele>
        <time>2025-11-11T08:57:44Z</time>
      </trkpt>
      <trkpt lat="45.70648" lon="4.73406">
        <ele>309.8</ele>
        <time>2025-11-11T08:57:45Z</time>
      </trkpt>
      <trkpt lat="45.70643" lon="4.734">
        <ele>309.6</ele>
        <time>2025-11-11T08:57:46Z</time>
      </trkpt>
      <trkpt lat="45.70639" lon="4.73394">
        <ele>309.4</ele>
        <time>2025-11-11T08:57:47Z</time>
      </trkpt>
      <trkpt lat="45.70634" lon="4.73388">
        <ele>309.2</ele>
        <time>2025-11-11T08:57:48Z</time>
      </trkpt>
      <trkpt lat="45.7063" lon="4.73382">
        <ele>309.2</ele>
        <time>2025-11-11T08:57:49Z</time>
      </trkpt>
      <trkpt lat="45.70626" lon="4.73375">
        <ele>309</ele>
        <time>2025-11-11T08:57:50Z</time>
      </trkpt>
      <trkpt lat="45.70622" lon="4.73368">
        <ele>308.8</ele>
        <time>2025-11-11T08:57:51Z</time>
      </trkpt>
      <trkpt lat="45.70617" lon="4.73362">
        <ele>308.8</ele>
        <time>2025-11-11T08:57:52Z</time>
      </trkpt>
      <trkpt lat="45.70613" lon="4.73355">
        <ele>308.8</ele>
        <time>2025-11-11T08:57:53Z</time>
      </trkpt>
      <trkpt lat="45.70609" lon="4.73349">
        <ele>308.6</ele>
        <time>2025-11-11T08:57:54Z</time>
      </trkpt>
      <trkpt lat="45.70605" lon="4.73343">
        <ele>308.6</ele>
        <time>2025-11-11T08:57:55Z</time>
      </trkpt>
      <trkpt lat="45.706" lon="4.73336">
        <ele>308.6</ele>
        <time>2025-11-11T08:57:56Z</time>
      </trkpt>
      <trkpt lat="45.70596" lon="4.7333">
        <ele>308.4</ele>
        <time>2025-11-11T08:57:57Z</time>
      </trkpt>
      <trkpt lat="45.70591" lon="4.73323">
        <ele>308.4</ele>
        <time>2025-11-11T08:57:58Z</time>
      </trkpt>
      <trkpt lat="45.70587" lon="4.73318">
        <ele>308.2</ele>
        <time>2025-11-11T08:57:59Z</time>
      </trkpt>
      <trkpt lat="45.70583" lon="4.73312">
        <ele>308.2</ele>
        <time>2025-11-11T08:58:00Z</time>
      </trkpt>
      <trkpt lat="45.70578" lon="4.73306">
        <ele>308.2</ele>
        <time>2025-11-11T08:58:01Z</time>
      </trkpt>
      <trkpt lat="45.70573" lon="4.733">
        <ele>308.2</ele>
        <time>2025-11-11T08:58:02Z</time>
      </trkpt>
      <trkpt lat="45.70568" lon="4.73295">
        <ele>308</ele>
        <time>2025-11-11T08:58:03Z</time>
      </trkpt>
      <trkpt lat="45.70564" lon="4.7329">
        <ele>308</ele>
        <time>2025-11-11T08:58:04Z</time>
      </trkpt>
      <trkpt lat="45.70559" lon="4.73285">
        <ele>308</ele>
        <time>2025-11-11T08:58:05Z</time>
      </trkpt>
      <trkpt lat="45.70554" lon="4.7328">
        <ele>308.2</ele>
        <time>2025-11-11T08:58:06Z</time>
      </trkpt>
      <trkpt lat="45.70549" lon="4.73275">
        <ele>308.2</ele>
        <time>2025-11-11T08:58:07Z</time>
      </trkpt>
      <trkpt lat="45.70544" lon="4.73271">
        <ele>308.2</ele>
        <time>2025-11-11T08:58:08Z</time>
      </trkpt>
      <trkpt lat="45.70539" lon="4.73266">
        <ele>308.2</ele>
        <time>2025-11-11T08:58:09Z</time>
      </trkpt>
      <trkpt lat="45.70534" lon="4.73263">
        <ele>308.2</ele>
        <time>2025-11-11T08:58:10Z</time>
      </trkpt>
      <trkpt lat="45.70528" lon="4.73259">
        <ele>308.2</ele>
        <time>2025-11-11T08:58:11Z</time>
      </trkpt>
      <trkpt lat="45.70523" lon="4.73256">
        <ele>308.2</ele>
        <time>2025-11-11T08:58:12Z</time>
      </trkpt>
      <trkpt lat="45.70518" lon="4.73252">
        <ele>308.2</ele>
        <time>2025-11-11T08:58:13Z</time>
      </trkpt>
      <trkpt lat="45.70512" lon="4.73248">
        <ele>308.2</ele>
        <time>2025-11-11T08:58:14Z</time>
      </trkpt>
      <trkpt lat="45.70507" lon="4.73245">
        <ele>308.2</ele>
        <time>2025-11-11T08:58:15Z</time>
      </trkpt>
      <trkpt lat="45.70502" lon="4.73241">
        <ele>308.4</ele>
        <time>2025-11-11T08:58:16Z</time>
      </trkpt>
      <trkpt lat="45.70497" lon="4.73238">
        <ele>308.4</ele>
        <time>2025-11-11T08:58:17Z</time>
      </trkpt>
      <trkpt lat="45.70492" lon="4.73234">
        <ele>308.6</ele>
        <time>2025-11-11T08:58:18Z</time>
      </trkpt>
      <trkpt lat="45.70487" lon="4.7323">
        <ele>308.6</ele>
        <time>2025-11-11T08:58:19Z</time>
      </trkpt>
      <trkpt lat="45.70481" lon="4.73226">
        <ele>308.6</ele>
        <time>2025-11-11T08:58:20Z</time>
      </trkpt>
      <trkpt lat="45.70477" lon="4.73223">
        <ele>308.6</ele>
        <time>2025-11-11T08:58:21Z</time>
      </trkpt>
      <trkpt lat="45.70471" lon="4.73219">
        <ele>308.6</ele>
        <time>2025-11-11T08:58:22Z</time>
      </trkpt>
      <trkpt lat="45.70466" lon="4.73216">
        <ele>308.6</ele>
        <time>2025-11-11T08:58:23Z</time>
      </trkpt>
      <trkpt lat="45.70461" lon="4.73212">
        <ele>308.6</ele>
        <time>2025-11-11T08:58:24Z</time>
      </trkpt>
      <trkpt lat="45.70455" lon="4.73209">
        <ele>308.6</ele>
        <time>2025-11-11T08:58:25Z</time>
      </trkpt>
      <trkpt lat="45.7045" lon="4.73206">
        <ele>308.6</ele>
        <time>2025-11-11T08:58:26Z</time>
      </trkpt>
      <trkpt lat="45.70445" lon="4.73202">
        <ele>308.6</ele>
        <time>2025-11-11T08:58:27Z</time>
      </trkpt>
      <trkpt lat="45.7044" lon="4.73198">
        <ele>308.6</ele>
        <time>2025-11-11T08:58:28Z</time>
      </trkpt>
      <trkpt lat="45.70434" lon="4.73194">
        <ele>308.6</ele>
        <time>2025-11-11T08:58:29Z</time>
      </trkpt>
      <trkpt lat="45.70429" lon="4.73191">
        <ele>308.6</ele>
        <time>2025-11-11T08:58:30Z</time>
      </trkpt>
      <trkpt lat="45.70424" lon="4.73187">
        <ele>308.6</ele>
        <time>2025-11-11T08:58:31Z</time>
      </trkpt>
      <trkpt lat="45.70418" lon="4.73183">
        <ele>308.6</ele>
        <time>2025-11-11T08:58:32Z</time>
      </trkpt>
      <trkpt lat="45.70413" lon="4.73179">
        <ele>308.6</ele>
        <time>2025-11-11T08:58:33Z</time>
      </trkpt>
      <trkpt lat="45.70407" lon="4.73176">
        <ele>308.6</ele>
        <time>2025-11-11T08:58:34Z</time>
      </trkpt>
      <trkpt lat="45.70402" lon="4.73172">
        <ele>308.6</ele>
        <time>2025-11-11T08:58:35Z</time>
      </trkpt>
      <trkpt lat="45.70397" lon="4.73168">
        <ele>308.6</ele>
        <time>2025-11-11T08:58:36Z</time>
      </trkpt>
      <trkpt lat="45.70391" lon="4.73164">
        <ele>308.8</ele>
        <time>2025-11-11T08:58:37Z</time>
      </trkpt>
      <trkpt lat="45.70386" lon="4.7316">
        <ele>308.8</ele>
        <time>2025-11-11T08:58:38Z</time>
      </trkpt>
      <trkpt lat="45.70381" lon="4.73156">
        <ele>308.8</ele>
        <time>2025-11-11T08:58:39Z</time>
      </trkpt>
      <trkpt lat="45.70376" lon="4.73151">
        <ele>308.6</ele>
        <time>2025-11-11T08:58:40Z</time>
      </trkpt>
      <trkpt lat="45.70371" lon="4.73146">
        <ele>308.6</ele>
        <time>2025-11-11T08:58:41Z</time>
      </trkpt>
      <trkpt lat="45.70366" lon="4.73141">
        <ele>308.6</ele>
        <time>2025-11-11T08:58:42Z</time>
      </trkpt>
      <trkpt lat="45.70361" lon="4.73136">
        <ele>308.6</ele>
        <time>2025-11-11T08:58:43Z</time>
      </trkpt>
      <trkpt lat="45.70357" lon="4.73131">
        <ele>308.6</ele>
        <time>2025-11-11T08:58:44Z</time>
      </trkpt>
      <trkpt lat="45.70353" lon="4.73126">
        <ele>308.6</ele>
        <time>2025-11-11T08:58:45Z</time>
      </trkpt>
      <trkpt lat="45.70349" lon="4.7312">
        <ele>308.8</ele>
        <time>2025-11-11T08:58:46Z</time>
      </trkpt>
      <trkpt lat="45.70346" lon="4.73115">
        <ele>308.8</ele>
        <time>2025-11-11T08:58:47Z</time>
      </trkpt>
      <trkpt lat="45.70342" lon="4.7311">
        <ele>309</ele>
        <time>2025-11-11T08:58:48Z</time>
      </trkpt>
      <trkpt lat="45.70338" lon="4.73104">
        <ele>309</ele>
        <time>2025-11-11T08:58:49Z</time>
      </trkpt>
      <trkpt lat="45.70334" lon="4.73099">
        <ele>309</ele>
        <time>2025-11-11T08:58:50Z</time>
      </trkpt>
      <trkpt lat="45.7033" lon="4.73094">
        <ele>308.8</ele>
        <time>2025-11-11T08:58:51Z</time>
      </trkpt>
      <trkpt lat="45.70327" lon="4.73088">
        <ele>308.8</ele>
        <time>2025-11-11T08:58:52Z</time>
      </trkpt>
      <trkpt lat="45.70323" lon="4.73083">
        <ele>308.8</ele>
        <time>2025-11-11T08:58:53Z</time>
      </trkpt>
      <trkpt lat="45.7032" lon="4.73076">
        <ele>308.8</ele>
        <time>2025-11-11T08:58:54Z</time>
      </trkpt>
      <trkpt lat="45.70316" lon="4.7307">
        <ele>308.6</ele>
        <time>2025-11-11T08:58:55Z</time>
      </trkpt>
      <trkpt lat="45.70312" lon="4.73064">
        <ele>308.6</ele>
        <time>2025-11-11T08:58:56Z</time>
      </trkpt>
      <trkpt lat="45.70308" lon="4.73058">
        <ele>308.6</ele>
        <time>2025-11-11T08:58:57Z</time>
      </trkpt>
      <trkpt lat="45.70304" lon="4.73051">
        <ele>308.6</ele>
        <time>2025-11-11T08:58:58Z</time>
      </trkpt>
      <trkpt lat="45.703" lon="4.73045">
        <ele>308.6</ele>
        <time>2025-11-11T08:58:59Z</time>
      </trkpt>
      <trkpt lat="45.70296" lon="4.73039">
        <ele>308.8</ele>
        <time>2025-11-11T08:59:00Z</time>
      </trkpt>
      <trkpt lat="45.70292" lon="4.73033">
        <ele>308.8</ele>
        <time>2025-11-11T08:59:01Z</time>
      </trkpt>
      <trkpt lat="45.70288" lon="4.73027">
        <ele>308.8</ele>
        <time>2025-11-11T08:59:02Z</time>
      </trkpt>
      <trkpt lat="45.70284" lon="4.73021">
        <ele>308.8</ele>
        <time>2025-11-11T08:59:03Z</time>
      </trkpt>
      <trkpt lat="45.7028" lon="4.73015">
        <ele>308.8</ele>
        <time>2025-11-11T08:59:04Z</time>
      </trkpt>
      <trkpt lat="45.70276" lon="4.73009">
        <ele>308.8</ele>
        <time>2025-11-11T08:59:05Z</time>
      </trkpt>
      <trkpt lat="45.70272" lon="4.73004">
        <ele>308.8</ele>
        <time>2025-11-11T08:59:06Z</time>
      </trkpt>
      <trkpt lat="45.70268" lon="4.72998">
        <ele>309</ele>
        <time>2025-11-11T08:59:07Z</time>
      </trkpt>
      <trkpt lat="45.70264" lon="4.72992">
        <ele>309</ele>
        <time>2025-11-11T08:59:08Z</time>
      </trkpt>
      <trkpt lat="45.7026" lon="4.72986">
        <ele>309.2</ele>
        <time>2025-11-11T08:59:09Z</time>
      </trkpt>
      <trkpt lat="45.70256" lon="4.7298">
        <ele>309.2</ele>
        <time>2025-11-11T08:59:10Z</time>
      </trkpt>
      <trkpt lat="45.70252" lon="4.72974">
        <ele>309.2</ele>
        <time>2025-11-11T08:59:11Z</time>
      </trkpt>
      <trkpt lat="45.70247" lon="4.72967">
        <ele>309.2</ele>
        <time>2025-11-11T08:59:12Z</time>
      </trkpt>
      <trkpt lat="45.70243" lon="4.72961">
        <ele>309.2</ele>
        <time>2025-11-11T08:59:13Z</time>
      </trkpt>
      <trkpt lat="45.70238" lon="4.72955">
        <ele>309.2</ele>
        <time>2025-11-11T08:59:14Z</time>
      </trkpt>
      <trkpt lat="45.70234" lon="4.72949">
        <ele>309</ele>
        <time>2025-11-11T08:59:15Z</time>
      </trkpt>
      <trkpt lat="45.7023" lon="4.72943">
        <ele>309</ele>
        <time>2025-11-11T08:59:16Z</time>
      </trkpt>
      <trkpt lat="45.70226" lon="4.72936">
        <ele>309</ele>
        <time>2025-11-11T08:59:17Z</time>
      </trkpt>
      <trkpt lat="45.70222" lon="4.7293">
        <ele>309</ele>
        <time>2025-11-11T08:59:18Z</time>
      </trkpt>
      <trkpt lat="45.70218" lon="4.72923">
        <ele>308.8</ele>
        <time>2025-11-11T08:59:19Z</time>
      </trkpt>
      <trkpt lat="45.70214" lon="4.72917">
        <ele>308.8</ele>
        <time>2025-11-11T08:59:20Z</time>
      </trkpt>
      <trkpt lat="45.70211" lon="4.7291">
        <ele>308.8</ele>
        <time>2025-11-11T08:59:21Z</time>
      </trkpt>
      <trkpt lat="45.70207" lon="4.72903">
        <ele>308.6</ele>
        <time>2025-11-11T08:59:22Z</time>
      </trkpt>
      <trkpt lat="45.70204" lon="4.72896">
        <ele>308.6</ele>
        <time>2025-11-11T08:59:23Z</time>
      </trkpt>
      <trkpt lat="45.70201" lon="4.72888">
        <ele>308.6</ele>
        <time>2025-11-11T08:59:24Z</time>
      </trkpt>
      <trkpt lat="45.70198" lon="4.7288">
        <ele>308.6</ele>
        <time>2025-11-11T08:59:25Z</time>
      </trkpt>
      <trkpt lat="45.70194" lon="4.72873">
        <ele>308.6</ele>
        <time>2025-11-11T08:59:26Z</time>
      </trkpt>
      <trkpt lat="45.70191" lon="4.72867">
        <ele>308.6</ele>
        <time>2025-11-11T08:59:27Z</time>
      </trkpt>
      <trkpt lat="45.70187" lon="4.7286">
        <ele>308.6</ele>
        <time>2025-11-11T08:59:28Z</time>
      </trkpt>
      <trkpt lat="45.70184" lon="4.72853">
        <ele>308.6</ele>
        <time>2025-11-11T08:59:29Z</time>
      </trkpt>
      <trkpt lat="45.70181" lon="4.72847">
        <ele>308.8</ele>
        <time>2025-11-11T08:59:30Z</time>
      </trkpt>
      <trkpt lat="45.70178" lon="4.72841">
        <ele>308.8</ele>
        <time>2025-11-11T08:59:31Z</time>
      </trkpt>
      <trkpt lat="45.70175" lon="4.72835">
        <ele>309</ele>
        <time>2025-11-11T08:59:32Z</time>
      </trkpt>
      <trkpt lat="45.70172" lon="4.72828">
        <ele>309.2</ele>
        <time>2025-11-11T08:59:33Z</time>
      </trkpt>
      <trkpt lat="45.70169" lon="4.72822">
        <ele>309.2</ele>
        <time>2025-11-11T08:59:34Z</time>
      </trkpt>
      <trkpt lat="45.70167" lon="4.72814">
        <ele>309.2</ele>
        <time>2025-11-11T08:59:35Z</time>
      </trkpt>
      <trkpt lat="45.70164" lon="4.72807">
        <ele>309.2</ele>
        <time>2025-11-11T08:59:36Z</time>
      </trkpt>
      <trkpt lat="45.70161" lon="4.72799">
        <ele>309.4</ele>
        <time>2025-11-11T08:59:37Z</time>
      </trkpt>
      <trkpt lat="45.70158" lon="4.72792">
        <ele>309.4</ele>
        <time>2025-11-11T08:59:38Z</time>
      </trkpt>
      <trkpt lat="45.70155" lon="4.72784">
        <ele>309.2</ele>
        <time>2025-11-11T08:59:39Z</time>
      </trkpt>
      <trkpt lat="45.70152" lon="4.72777">
        <ele>309.2</ele>
        <time>2025-11-11T08:59:40Z</time>
      </trkpt>
      <trkpt lat="45.70149" lon="4.7277">
        <ele>309.2</ele>
        <time>2025-11-11T08:59:41Z</time>
      </trkpt>
      <trkpt lat="45.70146" lon="4.72762">
        <ele>309.2</ele>
        <time>2025-11-11T08:59:42Z</time>
      </trkpt>
      <trkpt lat="45.70143" lon="4.72755">
        <ele>309</ele>
        <time>2025-11-11T08:59:43Z</time>
      </trkpt>
      <trkpt lat="45.7014" lon="4.72747">
        <ele>309</ele>
        <time>2025-11-11T08:59:44Z</time>
      </trkpt>
      <trkpt lat="45.70137" lon="4.7274">
        <ele>308.8</ele>
        <time>2025-11-11T08:59:45Z</time>
      </trkpt>
      <trkpt lat="45.70134" lon="4.72732">
        <ele>308.8</ele>
        <time>2025-11-11T08:59:46Z</time>
      </trkpt>
      <trkpt lat="45.70131" lon="4.72724">
        <ele>308.6</ele>
        <time>2025-11-11T08:59:47Z</time>
      </trkpt>
      <trkpt lat="45.70128" lon="4.72717">
        <ele>308.6</ele>
        <time>2025-11-11T08:59:48Z</time>
      </trkpt>
      <trkpt lat="45.70125" lon="4.72709">
        <ele>308.4</ele>
        <time>2025-11-11T08:59:49Z</time>
      </trkpt>
      <trkpt lat="45.70122" lon="4.72701">
        <ele>308.4</ele>
        <time>2025-11-11T08:59:50Z</time>
      </trkpt>
      <trkpt lat="45.70119" lon="4.72693">
        <ele>308.4</ele>
        <time>2025-11-11T08:59:51Z</time>
      </trkpt>
      <trkpt lat="45.70116" lon="4.72685">
        <ele>308.2</ele>
        <time>2025-11-11T08:59:52Z</time>
      </trkpt>
      <trkpt lat="45.70113" lon="4.72678">
        <ele>308.2</ele>
        <time>2025-11-11T08:59:53Z</time>
      </trkpt>
      <trkpt lat="45.70109" lon="4.72671">
        <ele>308.2</ele>
        <time>2025-11-11T08:59:54Z</time>
      </trkpt>
      <trkpt lat="45.70105" lon="4.72664">
        <ele>308.2</ele>
        <time>2025-11-11T08:59:55Z</time>
      </trkpt>
      <trkpt lat="45.701" lon="4.72659">
        <ele>308</ele>
        <time>2025-11-11T08:59:56Z</time>
      </trkpt>
      <trkpt lat="45.70094" lon="4.72657">
        <ele>308</ele>
        <time>2025-11-11T08:59:57Z</time>
      </trkpt>
      <trkpt lat="45.70088" lon="4.72656">
        <ele>308</ele>
        <time>2025-11-11T08:59:58Z</time>
      </trkpt>
      <trkpt lat="45.70083" lon="4.72656">
        <ele>308</ele>
        <time>2025-11-11T08:59:59Z</time>
      </trkpt>
      <trkpt lat="45.70077" lon="4.72656">
        <ele>308</ele>
        <time>2025-11-11T09:00:00Z</time>
      </trkpt>
      <trkpt lat="45.70071" lon="4.72656">
        <ele>308</ele>
        <time>2025-11-11T09:00:01Z</time>
      </trkpt>
      <trkpt lat="45.70065" lon="4.72657">
        <ele>308</ele>
        <time>2025-11-11T09:00:02Z</time>
      </trkpt>
      <trkpt lat="45.7006" lon="4.72657">
        <ele>308.2</ele>
        <time>2025-11-11T09:00:03Z</time>
      </trkpt>
      <trkpt lat="45.70055" lon="4.72657">
        <ele>308.2</ele>
        <time>2025-11-11T09:00:04Z</time>
      </trkpt>
      <trkpt lat="45.70049" lon="4.72657">
        <ele>308.2</ele>
        <time>2025-11-11T09:00:05Z</time>
      </trkpt>
      <trkpt lat="45.70043" lon="4.72658">
        <ele>308.2</ele>
        <time>2025-11-11T09:00:06Z</time>
      </trkpt>
      <trkpt lat="45.70037" lon="4.72658">
        <ele>308.2</ele>
        <time>2025-11-11T09:00:07Z</time>
      </trkpt>
      <trkpt lat="45.70031" lon="4.72658">
        <ele>308</ele>
        <time>2025-11-11T09:00:08Z</time>
      </trkpt>
      <trkpt lat="45.70025" lon="4.72659">
        <ele>308</ele>
        <time>2025-11-11T09:00:09Z</time>
      </trkpt>
      <trkpt lat="45.70019" lon="4.7266">
        <ele>307.8</ele>
        <time>2025-11-11T09:00:10Z</time>
      </trkpt>
      <trkpt lat="45.70013" lon="4.72661">
        <ele>307.8</ele>
        <time>2025-11-11T09:00:11Z</time>
      </trkpt>
      <trkpt lat="45.70007" lon="4.72663">
        <ele>307.8</ele>
        <time>2025-11-11T09:00:12Z</time>
      </trkpt>
      <trkpt lat="45.70001" lon="4.72665">
        <ele>307.6</ele>
        <time>2025-11-11T09:00:13Z</time>
      </trkpt>
      <trkpt lat="45.69995" lon="4.72668">
        <ele>307.6</ele>
        <time>2025-11-11T09:00:14Z</time>
      </trkpt>
      <trkpt lat="45.6999" lon="4.72672">
        <ele>307.4</ele>
        <time>2025-11-11T09:00:15Z</time>
      </trkpt>
      <trkpt lat="45.69984" lon="4.72676">
        <ele>307.4</ele>
        <time>2025-11-11T09:00:16Z</time>
      </trkpt>
      <trkpt lat="45.69979" lon="4.72681">
        <ele>307.2</ele>
        <time>2025-11-11T09:00:17Z</time>
      </trkpt>
      <trkpt lat="45.69973" lon="4.72685">
        <ele>307.2</ele>
        <time>2025-11-11T09:00:18Z</time>
      </trkpt>
      <trkpt lat="45.69968" lon="4.7269">
        <ele>307</ele>
        <time>2025-11-11T09:00:19Z</time>
      </trkpt>
      <trkpt lat="45.69962" lon="4.72695">
        <ele>306.8</ele>
        <time>2025-11-11T09:00:20Z</time>
      </trkpt>
      <trkpt lat="45.69957" lon="4.72699">
        <ele>306.6</ele>
        <time>2025-11-11T09:00:21Z</time>
      </trkpt>
      <trkpt lat="45.69951" lon="4.72704">
        <ele>306.2</ele>
        <time>2025-11-11T09:00:22Z</time>
      </trkpt>
      <trkpt lat="45.69945" lon="4.72709">
        <ele>306</ele>
        <time>2025-11-11T09:00:23Z</time>
      </trkpt>
      <trkpt lat="45.69939" lon="4.72713">
        <ele>305.6</ele>
        <time>2025-11-11T09:00:24Z</time>
      </trkpt>
      <trkpt lat="45.69934" lon="4.72718">
        <ele>305.4</ele>
        <time>2025-11-11T09:00:25Z</time>
      </trkpt>
      <trkpt lat="45.69928" lon="4.72723">
        <ele>305</ele>
        <time>2025-11-11T09:00:26Z</time>
      </trkpt>
      <trkpt lat="45.69922" lon="4.72727">
        <ele>304.6</ele>
        <time>2025-11-11T09:00:27Z</time>
      </trkpt>
      <trkpt lat="45.69916" lon="4.72732">
        <ele>304.4</ele>
        <time>2025-11-11T09:00:28Z</time>
      </trkpt>
      <trkpt lat="45.6991" lon="4.72737">
        <ele>304</ele>
        <time>2025-11-11T09:00:29Z</time>
      </trkpt>
      <trkpt lat="45.69904" lon="4.72741">
        <ele>303.8</ele>
        <time>2025-11-11T09:00:30Z</time>
      </trkpt>
      <trkpt lat="45.69897" lon="4.72744">
        <ele>303.6</ele>
        <time>2025-11-11T09:00:31Z</time>
      </trkpt>
      <trkpt lat="45.69891" lon="4.72747">
        <ele>303.6</ele>
        <time>2025-11-11T09:00:32Z</time>
      </trkpt>
      <trkpt lat="45.69884" lon="4.7275">
        <ele>303.4</ele>
        <time>2025-11-11T09:00:33Z</time>
      </trkpt>
      <trkpt lat="45.69878" lon="4.72752">
        <ele>303.2</ele>
        <time>2025-11-11T09:00:34Z</time>
      </trkpt>
      <trkpt lat="45.69871" lon="4.72754">
        <ele>303</ele>
        <time>2025-11-11T09:00:35Z</time>
      </trkpt>
      <trkpt lat="45.69865" lon="4.72755">
        <ele>303</ele>
        <time>2025-11-11T09:00:36Z</time>
      </trkpt>
      <trkpt lat="45.69858" lon="4.72756">
        <ele>302.8</ele>
        <time>2025-11-11T09:00:37Z</time>
      </trkpt>
      <trkpt lat="45.69852" lon="4.72756">
        <ele>302.6</ele>
        <time>2025-11-11T09:00:38Z</time>
      </trkpt>
      <trkpt lat="45.69845" lon="4.72756">
        <ele>302.6</ele>
        <time>2025-11-11T09:00:39Z</time>
      </trkpt>
      <trkpt lat="45.69839" lon="4.72756">
        <ele>302.4</ele>
        <time>2025-11-11T09:00:40Z</time>
      </trkpt>
      <trkpt lat="45.69833" lon="4.72756">
        <ele>302.4</ele>
        <time>2025-11-11T09:00:41Z</time>
      </trkpt>
      <trkpt lat="45.69826" lon="4.72755">
        <ele>302.4</ele>
        <time>2025-11-11T09:00:42Z</time>
      </trkpt>
      <trkpt lat="45.69819" lon="4.72756">
        <ele>302.2</ele>
        <time>2025-11-11T09:00:43Z</time>
      </trkpt>
      <trkpt lat="45.69812" lon="4.72756">
        <ele>301.8</ele>
        <time>2025-11-11T09:00:44Z</time>
      </trkpt>
      <trkpt lat="45.69804" lon="4.72756">
        <ele>301.2</ele>
        <time>2025-11-11T09:00:45Z</time>
      </trkpt>
      <trkpt lat="45.69797" lon="4.72756">
        <ele>300.8</ele>
        <time>2025-11-11T09:00:46Z</time>
      </trkpt>
      <trkpt lat="45.69789" lon="4.72755">
        <ele>300.2</ele>
        <time>2025-11-11T09:00:47Z</time>
      </trkpt>
      <trkpt lat="45.69781" lon="4.72755">
        <ele>299.6</ele>
        <time>2025-11-11T09:00:48Z</time>
      </trkpt>
      <trkpt lat="45.69774" lon="4.72755">
        <ele>299.4</ele>
        <time>2025-11-11T09:00:49Z</time>
      </trkpt>
      <trkpt lat="45.69767" lon="4.72755">
        <ele>299</ele>
        <time>2025-11-11T09:00:50Z</time>
      </trkpt>
      <trkpt lat="45.6976" lon="4.72755">
        <ele>299</ele>
        <time>2025-11-11T09:00:51Z</time>
      </trkpt>
      <trkpt lat="45.69754" lon="4.72754">
        <ele>298.8</ele>
        <time>2025-11-11T09:00:52Z</time>
      </trkpt>
      <trkpt lat="45.69747" lon="4.72754">
        <ele>298.8</ele>
        <time>2025-11-11T09:00:53Z</time>
      </trkpt>
      <trkpt lat="45.69741" lon="4.72755">
        <ele>298.8</ele>
        <time>2025-11-11T09:00:54Z</time>
      </trkpt>
      <trkpt lat="45.69735" lon="4.72756">
        <ele>299</ele>
        <time>2025-11-11T09:00:55Z</time>
      </trkpt>
      <trkpt lat="45.69728" lon="4.72757">
        <ele>299</ele>
        <time>2025-11-11T09:00:56Z</time>
      </trkpt>
      <trkpt lat="45.69722" lon="4.72759">
        <ele>299.2</ele>
        <time>2025-11-11T09:00:57Z</time>
      </trkpt>
      <trkpt lat="45.69716" lon="4.72761">
        <ele>299.2</ele>
        <time>2025-11-11T09:00:58Z</time>
      </trkpt>
      <trkpt lat="45.69711" lon="4.72764">
        <ele>299.2</ele>
        <time>2025-11-11T09:00:59Z</time>
      </trkpt>
      <trkpt lat="45.69706" lon="4.72767">
        <ele>299.4</ele>
        <time>2025-11-11T09:01:00Z</time>
      </trkpt>
      <trkpt lat="45.697" lon="4.7277">
        <ele>299.6</ele>
        <time>2025-11-11T09:01:01Z</time>
      </trkpt>
      <trkpt lat="45.69695" lon="4.72773">
        <ele>299.6</ele>
        <time>2025-11-11T09:01:02Z</time>
      </trkpt>
      <trkpt lat="45.6969" lon="4.72776">
        <ele>299.8</ele>
        <time>2025-11-11T09:01:03Z</time>
      </trkpt>
      <trkpt lat="45.69685" lon="4.72779">
        <ele>300</ele>
        <time>2025-11-11T09:01:04Z</time>
      </trkpt>
      <trkpt lat="45.6968" lon="4.72781">
        <ele>300.2</ele>
        <time>2025-11-11T09:01:05Z</time>
      </trkpt>
      <trkpt lat="45.69675" lon="4.72784">
        <ele>300.2</ele>
        <time>2025-11-11T09:01:06Z</time>
      </trkpt>
      <trkpt lat="45.69669" lon="4.72786">
        <ele>300.2</ele>
        <time>2025-11-11T09:01:07Z</time>
      </trkpt>
      <trkpt lat="45.69664" lon="4.72789">
        <ele>300</ele>
        <time>2025-11-11T09:01:08Z</time>
      </trkpt>
      <trkpt lat="45.69659" lon="4.72793">
        <ele>299.8</ele>
        <time>2025-11-11T09:01:09Z</time>
      </trkpt>
      <trkpt lat="45.69654" lon="4.72797">
        <ele>299.8</ele>
        <time>2025-11-11T09:01:10Z</time>
      </trkpt>
      <trkpt lat="45.69649" lon="4.72801">
        <ele>299.6</ele>
        <time>2025-11-11T09:01:11Z</time>
      </trkpt>
      <trkpt lat="45.69643" lon="4.72805">
        <ele>299.4</ele>
        <time>2025-11-11T09:01:12Z</time>
      </trkpt>
      <trkpt lat="45.69638" lon="4.72809">
        <ele>299.4</ele>
        <time>2025-11-11T09:01:13Z</time>
      </trkpt>
      <trkpt lat="45.69633" lon="4.72813">
        <ele>299.2</ele>
        <time>2025-11-11T09:01:14Z</time>
      </trkpt>
      <trkpt lat="45.69627" lon="4.72817">
        <ele>299</ele>
        <time>2025-11-11T09:01:15Z</time>
      </trkpt>
      <trkpt lat="45.69622" lon="4.72821">
        <ele>298.8</ele>
        <time>2025-11-11T09:01:16Z</time>
      </trkpt>
      <trkpt lat="45.69616" lon="4.72825">
        <ele>298.8</ele>
        <time>2025-11-11T09:01:17Z</time>
      </trkpt>
      <trkpt lat="45.69611" lon="4.72829">
        <ele>298.6</ele>
        <time>2025-11-11T09:01:18Z</time>
      </trkpt>
      <trkpt lat="45.69606" lon="4.72834">
        <ele>298.4</ele>
        <time>2025-11-11T09:01:19Z</time>
      </trkpt>
      <trkpt lat="45.696" lon="4.72838">
        <ele>298.4</ele>
        <time>2025-11-11T09:01:20Z</time>
      </trkpt>
      <trkpt lat="45.69595" lon="4.72843">
        <ele>298.2</ele>
        <time>2025-11-11T09:01:21Z</time>
      </trkpt>
      <trkpt lat="45.69589" lon="4.72848">
        <ele>297.8</ele>
        <time>2025-11-11T09:01:22Z</time>
      </trkpt>
      <trkpt lat="45.69584" lon="4.72853">
        <ele>297.6</ele>
        <time>2025-11-11T09:01:23Z</time>
      </trkpt>
      <trkpt lat="45.69579" lon="4.72858">
        <ele>297.4</ele>
        <time>2025-11-11T09:01:24Z</time>
      </trkpt>
      <trkpt lat="45.69573" lon="4.72863">
        <ele>297.2</ele>
        <time>2025-11-11T09:01:25Z</time>
      </trkpt>
      <trkpt lat="45.69568" lon="4.72868">
        <ele>297</ele>
        <time>2025-11-11T09:01:26Z</time>
      </trkpt>
      <trkpt lat="45.69562" lon="4.72872">
        <ele>296.6</ele>
        <time>2025-11-11T09:01:27Z</time>
      </trkpt>
      <trkpt lat="45.69556" lon="4.72877">
        <ele>296.4</ele>
        <time>2025-11-11T09:01:28Z</time>
      </trkpt>
      <trkpt lat="45.69551" lon="4.72882">
        <ele>296.2</ele>
        <time>2025-11-11T09:01:29Z</time>
      </trkpt>
      <trkpt lat="45.69545" lon="4.72886">
        <ele>295.8</ele>
        <time>2025-11-11T09:01:30Z</time>
      </trkpt>
      <trkpt lat="45.69539" lon="4.7289">
        <ele>295.4</ele>
        <time>2025-11-11T09:01:31Z</time>
      </trkpt>
      <trkpt lat="45.69533" lon="4.72894">
        <ele>295.2</ele>
        <time>2025-11-11T09:01:32Z</time>
      </trkpt>
      <trkpt lat="45.69527" lon="4.72898">
        <ele>294.8</ele>
        <time>2025-11-11T09:01:33Z</time>
      </trkpt>
      <trkpt lat="45.69521" lon="4.72902">
        <ele>294.4</ele>
        <time>2025-11-11T09:01:34Z</time>
      </trkpt>
      <trkpt lat="45.69514" lon="4.72906">
        <ele>294</ele>
        <time>2025-11-11T09:01:35Z</time>
      </trkpt>
      <trkpt lat="45.69507" lon="4.72911">
        <ele>293.4</ele>
        <time>2025-11-11T09:01:36Z</time>
      </trkpt>
      <trkpt lat="45.695" lon="4.72916">
        <ele>292.8</ele>
        <time>2025-11-11T09:01:37Z</time>
      </trkpt>
      <trkpt lat="45.69493" lon="4.7292">
        <ele>292</ele>
        <time>2025-11-11T09:01:38Z</time>
      </trkpt>
      <trkpt lat="45.69486" lon="4.72925">
        <ele>291.2</ele>
        <time>2025-11-11T09:01:39Z</time>
      </trkpt>
      <trkpt lat="45.69479" lon="4.72929">
        <ele>290.4</ele>
        <time>2025-11-11T09:01:40Z</time>
      </trkpt>
      <trkpt lat="45.69472" lon="4.72932">
        <ele>289.6</ele>
        <time>2025-11-11T09:01:41Z</time>
      </trkpt>
      <trkpt lat="45.69465" lon="4.72936">
        <ele>289</ele>
        <time>2025-11-11T09:01:42Z</time>
      </trkpt>
      <trkpt lat="45.69458" lon="4.7294">
        <ele>288.4</ele>
        <time>2025-11-11T09:01:43Z</time>
      </trkpt>
      <trkpt lat="45.69453" lon="4.72944">
        <ele>287.8</ele>
        <time>2025-11-11T09:01:44Z</time>
      </trkpt>
      <trkpt lat="45.69447" lon="4.72946">
        <ele>287.6</ele>
        <time>2025-11-11T09:01:45Z</time>
      </trkpt>
      <trkpt lat="45.69442" lon="4.72947">
        <ele>287.2</ele>
        <time>2025-11-11T09:01:46Z</time>
      </trkpt>
      <trkpt lat="45.69437" lon="4.72946">
        <ele>287</ele>
        <time>2025-11-11T09:01:47Z</time>
      </trkpt>
      <trkpt lat="45.69432" lon="4.72944">
        <ele>286.6</ele>
        <time>2025-11-11T09:01:48Z</time>
      </trkpt>
      <trkpt lat="45.69427" lon="4.72943">
        <ele>286.2</ele>
        <time>2025-11-11T09:01:49Z</time>
      </trkpt>
      <trkpt lat="45.69421" lon="4.72942">
        <ele>285.8</ele>
        <time>2025-11-11T09:01:50Z</time>
      </trkpt>
      <trkpt lat="45.69416" lon="4.7294">
        <ele>285.2</ele>
        <time>2025-11-11T09:01:51Z</time>
      </trkpt>
      <trkpt lat="45.6941" lon="4.72939">
        <ele>284.8</ele>
        <time>2025-11-11T09:01:52Z</time>
      </trkpt>
      <trkpt lat="45.69404" lon="4.72938">
        <ele>284.2</ele>
        <time>2025-11-11T09:01:53Z</time>
      </trkpt>
      <trkpt lat="45.69398" lon="4.72936">
        <ele>283.6</ele>
        <time>2025-11-11T09:01:54Z</time>
      </trkpt>
      <trkpt lat="45.69392" lon="4.72935">
        <ele>283</ele>
        <time>2025-11-11T09:01:55Z</time>
      </trkpt>
      <trkpt lat="45.69386" lon="4.72934">
        <ele>282.4</ele>
        <time>2025-11-11T09:01:56Z</time>
      </trkpt>
      <trkpt lat="45.6938" lon="4.72932">
        <ele>281.8</ele>
        <time>2025-11-11T09:01:57Z</time>
      </trkpt>
      <trkpt lat="45.69374" lon="4.7293">
        <ele>281.2</ele>
        <time>2025-11-11T09:01:58Z</time>
      </trkpt>
      <trkpt lat="45.69368" lon="4.72929">
        <ele>280.6</ele>
        <time>2025-11-11T09:01:59Z</time>
      </trkpt>
      <trkpt lat="45.69363" lon="4.72927">
        <ele>280</ele>
        <time>2025-11-11T09:02:00Z</time>
      </trkpt>
      <trkpt lat="45.69357" lon="4.72925">
        <ele>279.6</ele>
        <time>2025-11-11T09:02:01Z</time>
      </trkpt>
      <trkpt lat="45.69351" lon="4.72923">
        <ele>279</ele>
        <time>2025-11-11T09:02:02Z</time>
      </trkpt>
      <trkpt lat="45.69345" lon="4.72922">
        <ele>278.6</ele>
        <time>2025-11-11T09:02:03Z</time>
      </trkpt>
      <trkpt lat="45.6934" lon="4.7292">
        <ele>278.2</ele>
        <time>2025-11-11T09:02:04Z</time>
      </trkpt>
      <trkpt lat="45.69336" lon="4.72918">
        <ele>278</ele>
        <time>2025-11-11T09:02:05Z</time>
      </trkpt>
      <trkpt lat="45.69332" lon="4.72917">
        <ele>277.8</ele>
        <time>2025-11-11T09:02:06Z</time>
      </trkpt>
      <trkpt lat="45.69329" lon="4.72915">
        <ele>277.6</ele>
        <time>2025-11-11T09:02:07Z</time>
      </trkpt>
      <trkpt lat="45.69326" lon="4.72913">
        <ele>277.4</ele>
        <time>2025-11-11T09:02:08Z</time>
      </trkpt>
      <trkpt lat="45.69324" lon="4.72911">
        <ele>277.4</ele>
        <time>2025-11-11T09:02:09Z</time>
      </trkpt>
      <trkpt lat="45.69323" lon="4.72907">
        <ele>277.4</ele>
        <time>2025-11-11T09:02:10Z</time>
      </trkpt>
      <trkpt lat="45.69323" lon="4.72903">
        <ele>277.4</ele>
        <time>2025-11-11T09:02:11Z</time>
      </trkpt>
      <trkpt lat="45.69323" lon="4.72898">
        <ele>277.4</ele>
        <time>2025-11-11T09:02:12Z</time>
      </trkpt>
      <trkpt lat="45.69324" lon="4.72893">
        <ele>277</ele>
        <time>2025-11-11T09:02:13Z</time>
      </trkpt>
      <trkpt lat="45.69325" lon="4.72887">
        <ele>276.6</ele>
        <time>2025-11-11T09:02:14Z</time>
      </trkpt>
      <trkpt lat="45.69327" lon="4.72883">
        <ele>276.2</ele>
        <time>2025-11-11T09:02:15Z</time>
      </trkpt>
      <trkpt lat="45.6933" lon="4.72879">
        <ele>275.4</ele>
        <time>2025-11-11T09:02:16Z</time>
      </trkpt>
      <trkpt lat="45.69333" lon="4.72876">
        <ele>274.8</ele>
        <time>2025-11-11T09:02:17Z</time>
      </trkpt>
      <trkpt lat="45.69336" lon="4.72873">
        <ele>274</ele>
        <time>2025-11-11T09:02:18Z</time>
      </trkpt>
      <trkpt lat="45.69339" lon="4.7287">
        <ele>273.4</ele>
        <time>2025-11-11T09:02:19Z</time>
      </trkpt>
      <trkpt lat="45.69342" lon="4.72868">
        <ele>272.8</ele>
        <time>2025-11-11T09:02:20Z</time>
      </trkpt>
      <trkpt lat="45.69345" lon="4.72867">
        <ele>272.2</ele>
        <time>2025-11-11T09:02:21Z</time>
      </trkpt>
      <trkpt lat="45.69348" lon="4.72865">
        <ele>271.4</ele>
        <time>2025-11-11T09:02:22Z</time>
      </trkpt>
      <trkpt lat="45.69351" lon="4.72864">
        <ele>270.8</ele>
        <time>2025-11-11T09:02:23Z</time>
      </trkpt>
      <trkpt lat="45.69354" lon="4.72863">
        <ele>270.2</ele>
        <time>2025-11-11T09:02:24Z</time>
      </trkpt>
      <trkpt lat="45.69358" lon="4.72861">
        <ele>269.8</ele>
        <time>2025-11-11T09:02:25Z</time>
      </trkpt>
      <trkpt lat="45.69361" lon="4.72859">
        <ele>269.2</ele>
        <time>2025-11-11T09:02:26Z</time>
      </trkpt>
      <trkpt lat="45.69364" lon="4.72857">
        <ele>268.4</ele>
        <time>2025-11-11T09:02:27Z</time>
      </trkpt>
      <trkpt lat="45.69367" lon="4.72855">
        <ele>268</ele>
        <time>2025-11-11T09:02:28Z</time>
      </trkpt>
      <trkpt lat="45.69371" lon="4.72853">
        <ele>267.2</ele>
        <time>2025-11-11T09:02:29Z</time>
      </trkpt>
      <trkpt lat="45.69374" lon="4.72851">
        <ele>266.4</ele>
        <time>2025-11-11T09:02:30Z</time>
      </trkpt>
      <trkpt lat="45.69378" lon="4.72849">
        <ele>265.8</ele>
        <time>2025-11-11T09:02:31Z</time>
      </trkpt>
      <trkpt lat="45.69381" lon="4.72847">
        <ele>265</ele>
        <time>2025-11-11T09:02:32Z</time>
      </trkpt>
      <trkpt lat="45.69385" lon="4.72846">
        <ele>264.2</ele>
        <time>2025-11-11T09:02:33Z</time>
      </trkpt>
      <trkpt lat="45.69389" lon="4.72845">
        <ele>263.4</ele>
        <time>2025-11-11T09:02:34Z</time>
      </trkpt>
      <trkpt lat="45.69393" lon="4.72844">
        <ele>262.6</ele>
        <time>2025-11-11T09:02:35Z</time>
      </trkpt>
      <trkpt lat="45.69396" lon="4.72842">
        <ele>261.8</ele>
        <time>2025-11-11T09:02:36Z</time>
      </trkpt>
      <trkpt lat="45.69399" lon="4.7284">
        <ele>261.2</ele>
        <time>2025-11-11T09:02:37Z</time>
      </trkpt>
      <trkpt lat="45.69401" lon="4.72839">
        <ele>260.6</ele>
        <time>2025-11-11T09:02:38Z</time>
      </trkpt>
      <trkpt lat="45.69404" lon="4.72836">
        <ele>260.2</ele>
        <time>2025-11-11T09:02:39Z</time>
      </trkpt>
      <trkpt lat="45.69406" lon="4.72834">
        <ele>259.6</ele>
        <time>2025-11-11T09:02:40Z</time>
      </trkpt>
      <trkpt lat="45.69408" lon="4.7283">
        <ele>259.2</ele>
        <time>2025-11-11T09:02:41Z</time>
      </trkpt>
      <trkpt lat="45.69409" lon="4.72825">
        <ele>258.8</ele>
        <time>2025-11-11T09:02:42Z</time>
      </trkpt>
      <trkpt lat="45.69409" lon="4.7282">
        <ele>258.2</ele>
        <time>2025-11-11T09:02:43Z</time>
      </trkpt>
      <trkpt lat="45.69409" lon="4.72814">
        <ele>257.6</ele>
        <time>2025-11-11T09:02:44Z</time>
      </trkpt>
      <trkpt lat="45.69409" lon="4.72809">
        <ele>256.8</ele>
        <time>2025-11-11T09:02:45Z</time>
      </trkpt>
      <trkpt lat="45.69409" lon="4.72804">
        <ele>256.4</ele>
        <time>2025-11-11T09:02:46Z</time>
      </trkpt>
      <trkpt lat="45.6941" lon="4.72799">
        <ele>255.6</ele>
        <time>2025-11-11T09:02:47Z</time>
      </trkpt>
      <trkpt lat="45.6941" lon="4.72795">
        <ele>254.8</ele>
        <time>2025-11-11T09:02:48Z</time>
      </trkpt>
      <trkpt lat="45.69411" lon="4.7279">
        <ele>254.2</ele>
        <time>2025-11-11T09:02:49Z</time>
      </trkpt>
      <trkpt lat="45.69411" lon="4.72785">
        <ele>253.4</ele>
        <time>2025-11-11T09:02:50Z</time>
      </trkpt>
      <trkpt lat="45.69411" lon="4.7278">
        <ele>252.8</ele>
        <time>2025-11-11T09:02:51Z</time>
      </trkpt>
      <trkpt lat="45.69412" lon="4.72774">
        <ele>251.8</ele>
        <time>2025-11-11T09:02:52Z</time>
      </trkpt>
      <trkpt lat="45.69412" lon="4.72769">
        <ele>250.8</ele>
        <time>2025-11-11T09:02:53Z</time>
      </trkpt>
      <trkpt lat="45.69413" lon="4.72764">
        <ele>250</ele>
        <time>2025-11-11T09:02:54Z</time>
      </trkpt>
      <trkpt lat="45.69413" lon="4.72758">
        <ele>249.2</ele>
        <time>2025-11-11T09:02:55Z</time>
      </trkpt>
      <trkpt lat="45.69414" lon="4.72753">
        <ele>248.4</ele>
        <time>2025-11-11T09:02:56Z</time>
      </trkpt>
      <trkpt lat="45.69415" lon="4.72747">
        <ele>247.8</ele>
        <time>2025-11-11T09:02:57Z</time>
      </trkpt>
      <trkpt lat="45.69417" lon="4.72741">
        <ele>247</ele>
        <time>2025-11-11T09:02:58Z</time>
      </trkpt>
      <trkpt lat="45.69418" lon="4.72736">
        <ele>246.2</ele>
        <time>2025-11-11T09:02:59Z</time>
      </trkpt>
      <trkpt lat="45.69418" lon="4.72731">
        <ele>245.4</ele>
        <time>2025-11-11T09:03:00Z</time>
      </trkpt>
      <trkpt lat="45.69419" lon="4.72727">
        <ele>245</ele>
        <time>2025-11-11T09:03:01Z</time>
      </trkpt>
      <trkpt lat="45.6942" lon="4.72722">
        <ele>244.2</ele>
        <time>2025-11-11T09:03:02Z</time>
      </trkpt>
      <trkpt lat="45.69421" lon="4.72716">
        <ele>243.6</ele>
        <time>2025-11-11T09:03:03Z</time>
      </trkpt>
      <trkpt lat="45.69422" lon="4.72711">
        <ele>242.8</ele>
        <time>2025-11-11T09:03:04Z</time>
      </trkpt>
      <trkpt lat="45.69423" lon="4.72704">
        <ele>241.8</ele>
        <time>2025-11-11T09:03:05Z</time>
      </trkpt>
      <trkpt lat="45.69425" lon="4.72698">
        <ele>240.8</ele>
        <time>2025-11-11T09:03:06Z</time>
      </trkpt>
      <trkpt lat="45.69426" lon="4.72693">
        <ele>239.6</ele>
        <time>2025-11-11T09:03:07Z</time>
      </trkpt>
      <trkpt lat="45.69428" lon="4.72688">
        <ele>238.8</ele>
        <time>2025-11-11T09:03:08Z</time>
      </trkpt>
      <trkpt lat="45.69429" lon="4.72684">
        <ele>238.2</ele>
        <time>2025-11-11T09:03:09Z</time>
      </trkpt>
      <trkpt lat="45.69431" lon="4.7268">
        <ele>237.4</ele>
        <time>2025-11-11T09:03:10Z</time>
      </trkpt>
      <trkpt lat="45.69432" lon="4.72674">
        <ele>236.6</ele>
        <time>2025-11-11T09:03:11Z</time>
      </trkpt>
      <trkpt lat="45.69434" lon="4.72668">
        <ele>235.8</ele>
        <time>2025-11-11T09:03:12Z</time>
      </trkpt>
      <trkpt lat="45.69436" lon="4.72662">
        <ele>235</ele>
        <time>2025-11-11T09:03:13Z</time>
      </trkpt>
      <trkpt lat="45.69437" lon="4.72656">
        <ele>234</ele>
        <time>2025-11-11T09:03:14Z</time>
      </trkpt>
      <trkpt lat="45.69439" lon="4.72649">
        <ele>233.4</ele>
        <time>2025-11-11T09:03:15Z</time>
      </trkpt>
      <trkpt lat="45.6944" lon="4.72642">
        <ele>232.6</ele>
        <time>2025-11-11T09:03:16Z</time>
      </trkpt>
      <trkpt lat="45.69441" lon="4.72635">
        <ele>231.8</ele>
        <time>2025-11-11T09:03:17Z</time>
      </trkpt>
      <trkpt lat="45.6944" lon="4.7263">
        <ele>231.2</ele>
        <time>2025-11-11T09:03:18Z</time>
      </trkpt>
      <trkpt lat="45.69439" lon="4.72625">
        <ele>230.6</ele>
        <time>2025-11-11T09:03:19Z</time>
      </trkpt>
      <trkpt lat="45.69437" lon="4.72623">
        <ele>230.2</ele>
        <time>2025-11-11T09:03:20Z</time>
      </trkpt>
      <trkpt lat="45.69436" lon="4.72622">
        <ele>229.8</ele>
        <time>2025-11-11T09:03:21Z</time>
      </trkpt>
      <trkpt lat="45.69434" lon="4.72622">
        <ele>229.4</ele>
        <time>2025-11-11T09:03:22Z</time>
      </trkpt>
      <trkpt lat="45.69431" lon="4.72622">
        <ele>229.4</ele>
        <time>2025-11-11T09:03:23Z</time>
      </trkpt>
      <trkpt lat="45.69428" lon="4.72622">
        <ele>229</ele>
        <time>2025-11-11T09:03:24Z</time>
      </trkpt>
      <trkpt lat="45.69424" lon="4.72623">
        <ele>228.8</ele>
        <time>2025-11-11T09:03:25Z</time>
      </trkpt>
      <trkpt lat="45.69421" lon="4.72624">
        <ele>228.4</ele>
        <time>2025-11-11T09:03:26Z</time>
      </trkpt>
      <trkpt lat="45.69419" lon="4.72624">
        <ele>228.2</ele>
        <time>2025-11-11T09:03:27Z</time>
      </trkpt>
      <trkpt lat="45.69416" lon="4.72624">
        <ele>228</ele>
        <time>2025-11-11T09:03:28Z</time>
      </trkpt>
      <trkpt lat="45.69415" lon="4.72625">
        <ele>227.8</ele>
        <time>2025-11-11T09:03:29Z</time>
      </trkpt>
      <trkpt lat="45.69414" lon="4.72624">
        <ele>227.6</ele>
        <time>2025-11-11T09:03:30Z</time>
      </trkpt>
      <trkpt lat="45.69413" lon="4.72622">
        <ele>227.4</ele>
        <time>2025-11-11T09:03:31Z</time>
      </trkpt>
      <trkpt lat="45.69414" lon="4.72621">
        <ele>227.2</ele>
        <time>2025-11-11T09:03:32Z</time>
      </trkpt>
      <trkpt lat="45.69416" lon="4.7262">
        <ele>226.8</ele>
        <time>2025-11-11T09:03:33Z</time>
      </trkpt>
      <trkpt lat="45.69418" lon="4.7262">
        <ele>226.6</ele>
        <time>2025-11-11T09:03:34Z</time>
      </trkpt>
      <trkpt lat="45.69418" lon="4.72619">
        <ele>226.4</ele>
        <time>2025-11-11T09:03:35Z</time>
      </trkpt>
      <trkpt lat="45.69418" lon="4.72619">
        <ele>226.4</ele>
        <time>2025-11-11T09:03:36Z</time>
      </trkpt>
      <trkpt lat="45.69418" lon="4.72619">
        <ele>226.4</ele>
        <time>2025-11-11T09:03:37Z</time>
      </trkpt>
      <trkpt lat="45.69418" lon="4.72619">
        <ele>226.4</ele>
        <time>2025-11-11T09:03:38Z</time>
      </trkpt>
      <trkpt lat="45.69418" lon="4.72619">
        <ele>226.4</ele>
        <time>2025-11-11T09:03:39Z</time>
      </trkpt>
      <trkpt lat="45.69418" lon="4.72619">
        <ele>226.4</ele>
        <time>2025-11-11T09:03:40Z</time>
      </trkpt>
      <trkpt lat="45.69418" lon="4.72619">
        <ele>226.4</ele>
        <time>2025-11-11T09:03:41Z</time>
      </trkpt>
      <trkpt lat="45.69418" lon="4.72619">
        <ele>226.4</ele>
        <time>2025-11-11T09:03:42Z</time>
      </trkpt>
      <trkpt lat="45.69418" lon="4.72619">
        <ele>226.4</ele>
        <time>2025-11-11T09:03:43Z</time>
      </trkpt>
      <trkpt lat="45.69418" lon="4.72619">
        <ele>226.4</ele>
        <time>2025-11-11T09:03:44Z</time>
      </trkpt>
      <trkpt lat="45.69418" lon="4.72619">
        <ele>226.4</ele>
        <time>2025-11-11T09:03:45Z</time>
      </trkpt>
      <trkpt lat="45.69418" lon="4.72619">
        <ele>226.2</ele>
        <time>2025-11-11T09:03:46Z</time>
      </trkpt>
      <trkpt lat="45.69418" lon="4.72619">
        <ele>226.2</ele>
        <time>2025-11-11T09:03:47Z</time>
      </trkpt>
      <trkpt lat="45.69418" lon="4.72619">
        <ele>226.2</ele>
        <time>2025-11-11T09:03:48Z</time>
      </trkpt>
      <trkpt lat="45.69418" lon="4.72619">
        <ele>226.2</ele>
        <time>2025-11-11T09:03:49Z</time>
      </trkpt>
      <trkpt lat="45.69418" lon="4.72619">
        <ele>226.4</ele>
        <time>2025-11-11T09:03:50Z</time>
      </trkpt>
      <trkpt lat="45.69418" lon="4.72619">
        <ele>226.4</ele>
        <time>2025-11-11T09:03:51Z</time>
      </trkpt>
      <trkpt lat="45.69418" lon="4.72619">
        <ele>226.4</ele>
        <time>2025-11-11T09:03:52Z</time>
      </trkpt>
      <trkpt lat="45.69418" lon="4.72619">
        <ele>226.4</ele>
        <time>2025-11-11T09:03:53Z</time>
      </trkpt>
      <trkpt lat="45.69418" lon="4.72619">
        <ele>226.6</ele>
        <time>2025-11-11T09:03:54Z</time>
      </trkpt>
      <trkpt lat="45.69418" lon="4.72619">
        <ele>226.6</ele>
        <time>2025-11-11T09:03:55Z</time>
      </trkpt>
      <trkpt lat="45.69418" lon="4.72619">
        <ele>226.6</ele>
        <time>2025-11-11T09:03:56Z</time>
      </trkpt>
      <trkpt lat="45.69418" lon="4.72619">
        <ele>226.6</ele>
        <time>2025-11-11T09:03:57Z</time>
      </trkpt>
      <trkpt lat="45.69418" lon="4.72619">
        <ele>226.6</ele>
        <time>2025-11-11T09:03:58Z</time>
      </trkpt>
      <trkpt lat="45.69418" lon="4.72619">
        <ele>226.6</ele>
        <time>2025-11-11T09:03:59Z</time>
      </trkpt>
      <trkpt lat="45.69418" lon="4.72619">
        <ele>226.6</ele>
        <time>2025-11-11T09:04:00Z</time>
      </trkpt>
      <trkpt lat="45.69418" lon="4.72619">
        <ele>226.6</ele>
        <time>2025-11-11T09:04:01Z</time>
      </trkpt>
      <trkpt lat="45.69417" lon="4.72618">
        <ele>226.6</ele>
        <time>2025-11-11T09:04:02Z</time>
      </trkpt>
      <trkpt lat="45.69416" lon="4.72618">
        <ele>226.8</ele>
        <time>2025-11-11T09:04:03Z</time>
      </trkpt>
      <trkpt lat="45.69416" lon="4.72617">
        <ele>227</ele>
        <time>2025-11-11T09:04:04Z</time>
      </trkpt>
      <trkpt lat="45.69415" lon="4.72617">
        <ele>227.2</ele>
        <time>2025-11-11T09:04:05Z</time>
      </trkpt>
      <trkpt lat="45.69415" lon="4.72617">
        <ele>227.4</ele>
        <time>2025-11-11T09:04:06Z</time>
      </trkpt>
      <trkpt lat="45.69415" lon="4.72617">
        <ele>227.8</ele>
        <time>2025-11-11T09:04:07Z</time>
      </trkpt>
      <trkpt lat="45.69415" lon="4.72616">
        <ele>228</ele>
        <time>2025-11-11T09:04:08Z</time>
      </trkpt>
      <trkpt lat="45.69415" lon="4.72616">
        <ele>228</ele>
        <time>2025-11-11T09:04:09Z</time>
      </trkpt>
      <trkpt lat="45.69414" lon="4.72614">
        <ele>228.2</ele>
        <time>2025-11-11T09:04:10Z</time>
      </trkpt>
      <trkpt lat="45.69413" lon="4.72612">
        <ele>228.4</ele>
        <time>2025-11-11T09:04:11Z</time>
      </trkpt>
      <trkpt lat="45.69412" lon="4.72611">
        <ele>228.4</ele>
        <time>2025-11-11T09:04:12Z</time>
      </trkpt>
      <trkpt lat="45.69412" lon="4.7261">
        <ele>228.6</ele>
        <time>2025-11-11T09:04:13Z</time>
      </trkpt>
      <trkpt lat="45.69412" lon="4.72609">
        <ele>228.6</ele>
        <time>2025-11-11T09:04:14Z</time>
      </trkpt>
      <trkpt lat="45.69412" lon="4.72609">
        <ele>228.6</ele>
        <time>2025-11-11T09:04:15Z</time>
      </trkpt>
      <trkpt lat="45.69412" lon="4.72608">
        <ele>228.6</ele>
        <time>2025-11-11T09:04:16Z</time>
      </trkpt>
      <trkpt lat="45.69412" lon="4.72608">
        <ele>228.4</ele>
        <time>2025-11-11T09:04:17Z</time>
      </trkpt>
      <trkpt lat="45.69411" lon="4.72607">
        <ele>228.2</ele>
        <time>2025-11-11T09:04:18Z</time>
      </trkpt>
      <trkpt lat="45.6941" lon="4.72607">
        <ele>227.8</ele>
        <time>2025-11-11T09:04:19Z</time>
      </trkpt>
      <trkpt lat="45.6941" lon="4.72607">
        <ele>227.6</ele>
        <time>2025-11-11T09:04:20Z</time>
      </trkpt>
      <trkpt lat="45.6941" lon="4.72607">
        <ele>227.4</ele>
        <time>2025-11-11T09:04:21Z</time>
      </trkpt>
      <trkpt lat="45.6941" lon="4.72607">
        <ele>227.2</ele>
        <time>2025-11-11T09:04:22Z</time>
      </trkpt>
      <trkpt lat="45.6941" lon="4.72607">
        <ele>227.2</ele>
        <time>2025-11-11T09:04:23Z</time>
      </trkpt>
      <trkpt lat="45.69408" lon="4.72606">
        <ele>227.2</ele>
        <time>2025-11-11T09:04:24Z</time>
      </trkpt>
      <trkpt lat="45.69406" lon="4.72604">
        <ele>227.2</ele>
        <time>2025-11-11T09:04:25Z</time>
      </trkpt>
      <trkpt lat="45.69405" lon="4.72602">
        <ele>227.2</ele>
        <time>2025-11-11T09:04:26Z</time>
      </trkpt>
      <trkpt lat="45.69405" lon="4.726">
        <ele>227.4</ele>
        <time>2025-11-11T09:04:27Z</time>
      </trkpt>
      <trkpt lat="45.69406" lon="4.72599">
        <ele>227.4</ele>
        <time>2025-11-11T09:04:28Z</time>
      </trkpt>
      <trkpt lat="45.69407" lon="4.72597">
        <ele>227.6</ele>
        <time>2025-11-11T09:04:29Z</time>
      </trkpt>
      <trkpt lat="45.69408" lon="4.72596">
        <ele>227.8</ele>
        <time>2025-11-11T09:04:30Z</time>
      </trkpt>
      <trkpt lat="45.69409" lon="4.72594">
        <ele>228</ele>
        <time>2025-11-11T09:04:31Z</time>
      </trkpt>
      <trkpt lat="45.69409" lon="4.72593">
        <ele>228.2</ele>
        <time>2025-11-11T09:04:32Z</time>
      </trkpt>
      <trkpt lat="45.69409" lon="4.72591">
        <ele>228.2</ele>
        <time>2025-11-11T09:04:33Z</time>
      </trkpt>
      <trkpt lat="45.69409" lon="4.72589">
        <ele>228.4</ele>
        <time>2025-11-11T09:04:34Z</time>
      </trkpt>
      <trkpt lat="45.69409" lon="4.72587">
        <ele>228.4</ele>
        <time>2025-11-11T09:04:35Z</time>
      </trkpt>
      <trkpt lat="45.69409" lon="4.72584">
        <ele>228.4</ele>
        <time>2025-11-11T09:04:36Z</time>
      </trkpt>
      <trkpt lat="45.6941" lon="4.7258">
        <ele>228.4</ele>
        <time>2025-11-11T09:04:37Z</time>
      </trkpt>
      <trkpt lat="45.69411" lon="4.72575">
        <ele>228.4</ele>
        <time>2025-11-11T09:04:38Z</time>
      </trkpt>
      <trkpt lat="45.6941" lon="4.72571">
        <ele>228.4</ele>
        <time>2025-11-11T09:04:39Z</time>
      </trkpt>
      <trkpt lat="45.6941" lon="4.72566">
        <ele>228.2</ele>
        <time>2025-11-11T09:04:40Z</time>
      </trkpt>
      <trkpt lat="45.69411" lon="4.72562">
        <ele>228.2</ele>
        <time>2025-11-11T09:04:41Z</time>
      </trkpt>
      <trkpt lat="45.69413" lon="4.72559">
        <ele>228.2</ele>
        <time>2025-11-11T09:04:42Z</time>
      </trkpt>
      <trkpt lat="45.69414" lon="4.72557">
        <ele>228.4</ele>
        <time>2025-11-11T09:04:43Z</time>
      </trkpt>
      <trkpt lat="45.69416" lon="4.72554">
        <ele>228.4</ele>
        <time>2025-11-11T09:04:44Z</time>
      </trkpt>
      <trkpt lat="45.69416" lon="4.72552">
        <ele>228.8</ele>
        <time>2025-11-11T09:04:45Z</time>
      </trkpt>
      <trkpt lat="45.69417" lon="4.72551">
        <ele>229</ele>
        <time>2025-11-11T09:04:46Z</time>
      </trkpt>
      <trkpt lat="45.69419" lon="4.72549">
        <ele>229.2</ele>
        <time>2025-11-11T09:04:47Z</time>
      </trkpt>
      <trkpt lat="45.69422" lon="4.72548">
        <ele>229.2</ele>
        <time>2025-11-11T09:04:48Z</time>
      </trkpt>
      <trkpt lat="45.69423" lon="4.72544">
        <ele>229.2</ele>
        <time>2025-11-11T09:04:49Z</time>
      </trkpt>
      <trkpt lat="45.69424" lon="4.7254">
        <ele>229</ele>
        <time>2025-11-11T09:04:50Z</time>
      </trkpt>
      <trkpt lat="45.69424" lon="4.72535">
        <ele>228.6</ele>
        <time>2025-11-11T09:04:51Z</time>
      </trkpt>
      <trkpt lat="45.69424" lon="4.7253">
        <ele>228.4</ele>
        <time>2025-11-11T09:04:52Z</time>
      </trkpt>
      <trkpt lat="45.69423" lon="4.72525">
        <ele>228.4</ele>
        <time>2025-11-11T09:04:53Z</time>
      </trkpt>
      <trkpt lat="45.69423" lon="4.72521">
        <ele>228.4</ele>
        <time>2025-11-11T09:04:54Z</time>
      </trkpt>
      <trkpt lat="45.69423" lon="4.72517">
        <ele>228.4</ele>
        <time>2025-11-11T09:04:55Z</time>
      </trkpt>
      <trkpt lat="45.69423" lon="4.72513">
        <ele>228.4</ele>
        <time>2025-11-11T09:04:56Z</time>
      </trkpt>
      <trkpt lat="45.69423" lon="4.72509">
        <ele>228.6</ele>
        <time>2025-11-11T09:04:57Z</time>
      </trkpt>
      <trkpt lat="45.69424" lon="4.72504">
        <ele>228.6</ele>
        <time>2025-11-11T09:04:58Z</time>
      </trkpt>
      <trkpt lat="45.69425" lon="4.72499">
        <ele>228.8</ele>
        <time>2025-11-11T09:04:59Z</time>
      </trkpt>
      <trkpt lat="45.69425" lon="4.72494">
        <ele>229</ele>
        <time>2025-11-11T09:05:00Z</time>
      </trkpt>
      <trkpt lat="45.69425" lon="4.7249">
        <ele>229</ele>
        <time>2025-11-11T09:05:01Z</time>
      </trkpt>
      <trkpt lat="45.69424" lon="4.72486">
        <ele>229.2</ele>
        <time>2025-11-11T09:05:02Z</time>
      </trkpt>
      <trkpt lat="45.69423" lon="4.72482">
        <ele>229.2</ele>
        <time>2025-11-11T09:05:03Z</time>
      </trkpt>
      <trkpt lat="45.69422" lon="4.72477">
        <ele>229.4</ele>
        <time>2025-11-11T09:05:04Z</time>
      </trkpt>
      <trkpt lat="45.69421" lon="4.72472">
        <ele>229.4</ele>
        <time>2025-11-11T09:05:05Z</time>
      </trkpt>
      <trkpt lat="45.6942" lon="4.72467">
        <ele>229.6</ele>
        <time>2025-11-11T09:05:06Z</time>
      </trkpt>
      <trkpt lat="45.69419" lon="4.72462">
        <ele>229.6</ele>
        <time>2025-11-11T09:05:07Z</time>
      </trkpt>
      <trkpt lat="45.69419" lon="4.72458">
        <ele>229.6</ele>
        <time>2025-11-11T09:05:08Z</time>
      </trkpt>
      <trkpt lat="45.69418" lon="4.72454">
        <ele>229.8</ele>
        <time>2025-11-11T09:05:09Z</time>
      </trkpt>
      <trkpt lat="45.69417" lon="4.7245">
        <ele>229.8</ele>
        <time>2025-11-11T09:05:10Z</time>
      </trkpt>
      <trkpt lat="45.69416" lon="4.72447">
        <ele>230</ele>
        <time>2025-11-11T09:05:11Z</time>
      </trkpt>
      <trkpt lat="45.69415" lon="4.72443">
        <ele>230.2</ele>
        <time>2025-11-11T09:05:12Z</time>
      </trkpt>
      <trkpt lat="45.69414" lon="4.72439">
        <ele>230.2</ele>
        <time>2025-11-11T09:05:13Z</time>
      </trkpt>
      <trkpt lat="45.69413" lon="4.72435">
        <ele>230.4</ele>
        <time>2025-11-11T09:05:14Z</time>
      </trkpt>
      <trkpt lat="45.69411" lon="4.72431">
        <ele>230.6</ele>
        <time>2025-11-11T09:05:15Z</time>
      </trkpt>
      <trkpt lat="45.69411" lon="4.72427">
        <ele>230.6</ele>
        <time>2025-11-11T09:05:16Z</time>
      </trkpt>
      <trkpt lat="45.69411" lon="4.72422">
        <ele>230.8</ele>
        <time>2025-11-11T09:05:17Z</time>
      </trkpt>
      <trkpt lat="45.69411" lon="4.72419">
        <ele>230.8</ele>
        <time>2025-11-11T09:05:18Z</time>
      </trkpt>
      <trkpt lat="45.6941" lon="4.72415">
        <ele>231</ele>
        <time>2025-11-11T09:05:19Z</time>
      </trkpt>
      <trkpt lat="45.69409" lon="4.72413">
        <ele>231.2</ele>
        <time>2025-11-11T09:05:20Z</time>
      </trkpt>
      <trkpt lat="45.69409" lon="4.72408">
        <ele>231.4</ele>
        <time>2025-11-11T09:05:21Z</time>
      </trkpt>
      <trkpt lat="45.69409" lon="4.72404">
        <ele>231.6</ele>
        <time>2025-11-11T09:05:22Z</time>
      </trkpt>
      <trkpt lat="45.69408" lon="4.724">
        <ele>231.6</ele>
        <time>2025-11-11T09:05:23Z</time>
      </trkpt>
      <trkpt lat="45.69408" lon="4.72397">
        <ele>231.8</ele>
        <time>2025-11-11T09:05:24Z</time>
      </trkpt>
      <trkpt lat="45.69408" lon="4.72393">
        <ele>232</ele>
        <time>2025-11-11T09:05:25Z</time>
      </trkpt>
      <trkpt lat="45.69407" lon="4.7239">
        <ele>232.2</ele>
        <time>2025-11-11T09:05:26Z</time>
      </trkpt>
      <trkpt lat="45.69406" lon="4.72388">
        <ele>232.6</ele>
        <time>2025-11-11T09:05:27Z</time>
      </trkpt>
      <trkpt lat="45.69404" lon="4.72387">
        <ele>232.8</ele>
        <time>2025-11-11T09:05:28Z</time>
      </trkpt>
      <trkpt lat="45.69402" lon="4.72384">
        <ele>233</ele>
        <time>2025-11-11T09:05:29Z</time>
      </trkpt>
      <trkpt lat="45.694" lon="4.72382">
        <ele>233.2</ele>
        <time>2025-11-11T09:05:30Z</time>
      </trkpt>
      <trkpt lat="45.69399" lon="4.72379">
        <ele>233.4</ele>
        <time>2025-11-11T09:05:31Z</time>
      </trkpt>
      <trkpt lat="45.69397" lon="4.72376">
        <ele>233.6</ele>
        <time>2025-11-11T09:05:32Z</time>
      </trkpt>
      <trkpt lat="45.69394" lon="4.72373">
        <ele>233.6</ele>
        <time>2025-11-11T09:05:33Z</time>
      </trkpt>
      <trkpt lat="45.69392" lon="4.72369">
        <ele>233.8</ele>
        <time>2025-11-11T09:05:34Z</time>
      </trkpt>
      <trkpt lat="45.6939" lon="4.72366">
        <ele>234</ele>
        <time>2025-11-11T09:05:35Z</time>
      </trkpt>
      <trkpt lat="45.69387" lon="4.72362">
        <ele>234.2</ele>
        <time>2025-11-11T09:05:36Z</time>
      </trkpt>
      <trkpt lat="45.69384" lon="4.72358">
        <ele>234.4</ele>
        <time>2025-11-11T09:05:37Z</time>
      </trkpt>
      <trkpt lat="45.69381" lon="4.72355">
        <ele>234.4</ele>
        <time>2025-11-11T09:05:38Z</time>
      </trkpt>
      <trkpt lat="45.69378" lon="4.72351">
        <ele>234.6</ele>
        <time>2025-11-11T09:05:39Z</time>
      </trkpt>
      <trkpt lat="45.69376" lon="4.72348">
        <ele>234.6</ele>
        <time>2025-11-11T09:05:40Z</time>
      </trkpt>
      <trkpt lat="45.69373" lon="4.72344">
        <ele>234.8</ele>
        <time>2025-11-11T09:05:41Z</time>
      </trkpt>
      <trkpt lat="45.69371" lon="4.7234">
        <ele>234.8</ele>
        <time>2025-11-11T09:05:42Z</time>
      </trkpt>
      <trkpt lat="45.69367" lon="4.72337">
        <ele>234.8</ele>
        <time>2025-11-11T09:05:43Z</time>
      </trkpt>
      <trkpt lat="45.69365" lon="4.72333">
        <ele>235</ele>
        <time>2025-11-11T09:05:44Z</time>
      </trkpt>
      <trkpt lat="45.69363" lon="4.72328">
        <ele>235.2</ele>
        <time>2025-11-11T09:05:45Z</time>
      </trkpt>
      <trkpt lat="45.69361" lon="4.72324">
        <ele>235.4</ele>
        <time>2025-11-11T09:05:46Z</time>
      </trkpt>
      <trkpt lat="45.69359" lon="4.72319">
        <ele>235.6</ele>
        <time>2025-11-11T09:05:47Z</time>
      </trkpt>
      <trkpt lat="45.69358" lon="4.72314">
        <ele>236</ele>
        <time>2025-11-11T09:05:48Z</time>
      </trkpt>
      <trkpt lat="45.69356" lon="4.7231">
        <ele>236.4</ele>
        <time>2025-11-11T09:05:49Z</time>
      </trkpt>
      <trkpt lat="45.69355" lon="4.72306">
        <ele>237</ele>
        <time>2025-11-11T09:05:50Z</time>
      </trkpt>
      <trkpt lat="45.69353" lon="4.72302">
        <ele>237.4</ele>
        <time>2025-11-11T09:05:51Z</time>
      </trkpt>
      <trkpt lat="45.69352" lon="4.72298">
        <ele>238</ele>
        <time>2025-11-11T09:05:52Z</time>
      </trkpt>
      <trkpt lat="45.69351" lon="4.72295">
        <ele>238.4</ele>
        <time>2025-11-11T09:05:53Z</time>
      </trkpt>
      <trkpt lat="45.6935" lon="4.72291">
        <ele>239</ele>
        <time>2025-11-11T09:05:54Z</time>
      </trkpt>
      <trkpt lat="45.69349" lon="4.72287">
        <ele>239.4</ele>
        <time>2025-11-11T09:05:55Z</time>
      </trkpt>
      <trkpt lat="45.69348" lon="4.72283">
        <ele>240</ele>
        <time>2025-11-11T09:05:56Z</time>
      </trkpt>
      <trkpt lat="45.69347" lon="4.72279">
        <ele>240.4</ele>
        <time>2025-11-11T09:05:57Z</time>
      </trkpt>
      <trkpt lat="45.69345" lon="4.72275">
        <ele>240.8</ele>
        <time>2025-11-11T09:05:58Z</time>
      </trkpt>
      <trkpt lat="45.69344" lon="4.72271">
        <ele>241.2</ele>
        <time>2025-11-11T09:05:59Z</time>
      </trkpt>
      <trkpt lat="45.69343" lon="4.72266">
        <ele>241.6</ele>
        <time>2025-11-11T09:06:00Z</time>
      </trkpt>
      <trkpt lat="45.69343" lon="4.72262">
        <ele>241.8</ele>
        <time>2025-11-11T09:06:01Z</time>
      </trkpt>
      <trkpt lat="45.69342" lon="4.72258">
        <ele>242.2</ele>
        <time>2025-11-11T09:06:02Z</time>
      </trkpt>
      <trkpt lat="45.69341" lon="4.72254">
        <ele>242.6</ele>
        <time>2025-11-11T09:06:03Z</time>
      </trkpt>
      <trkpt lat="45.69341" lon="4.7225">
        <ele>243</ele>
        <time>2025-11-11T09:06:04Z</time>
      </trkpt>
      <trkpt lat="45.69341" lon="4.72246">
        <ele>243.4</ele>
        <time>2025-11-11T09:06:05Z</time>
      </trkpt>
      <trkpt lat="45.6934" lon="4.72241">
        <ele>243.8</ele>
        <time>2025-11-11T09:06:06Z</time>
      </trkpt>
      <trkpt lat="45.69339" lon="4.72237">
        <ele>244.2</ele>
        <time>2025-11-11T09:06:07Z</time>
      </trkpt>
      <trkpt lat="45.69339" lon="4.72233">
        <ele>244.6</ele>
        <time>2025-11-11T09:06:08Z</time>
      </trkpt>
      <trkpt lat="45.69338" lon="4.72229">
        <ele>245</ele>
        <time>2025-11-11T09:06:09Z</time>
      </trkpt>
      <trkpt lat="45.69337" lon="4.72224">
        <ele>245.4</ele>
        <time>2025-11-11T09:06:10Z</time>
      </trkpt>
      <trkpt lat="45.69336" lon="4.7222">
        <ele>245.8</ele>
        <time>2025-11-11T09:06:11Z</time>
      </trkpt>
      <trkpt lat="45.69335" lon="4.72217">
        <ele>246.2</ele>
        <time>2025-11-11T09:06:12Z</time>
      </trkpt>
      <trkpt lat="45.69334" lon="4.72213">
        <ele>246.6</ele>
        <time>2025-11-11T09:06:13Z</time>
      </trkpt>
      <trkpt lat="45.69334" lon="4.72208">
        <ele>247</ele>
        <time>2025-11-11T09:06:14Z</time>
      </trkpt>
      <trkpt lat="45.69333" lon="4.72204">
        <ele>247.4</ele>
        <time>2025-11-11T09:06:15Z</time>
      </trkpt>
      <trkpt lat="45.69333" lon="4.722">
        <ele>247.8</ele>
        <time>2025-11-11T09:06:16Z</time>
      </trkpt>
      <trkpt lat="45.69333" lon="4.72196">
        <ele>248.2</ele>
        <time>2025-11-11T09:06:17Z</time>
      </trkpt>
      <trkpt lat="45.69333" lon="4.72192">
        <ele>248.6</ele>
        <time>2025-11-11T09:06:18Z</time>
      </trkpt>
      <trkpt lat="45.69333" lon="4.72189">
        <ele>249</ele>
        <time>2025-11-11T09:06:19Z</time>
      </trkpt>
      <trkpt lat="45.69334" lon="4.72185">
        <ele>249.4</ele>
        <time>2025-11-11T09:06:20Z</time>
      </trkpt>
      <trkpt lat="45.69334" lon="4.72181">
        <ele>249.8</ele>
        <time>2025-11-11T09:06:21Z</time>
      </trkpt>
      <trkpt lat="45.69335" lon="4.72178">
        <ele>250.2</ele>
        <time>2025-11-11T09:06:22Z</time>
      </trkpt>
      <trkpt lat="45.69335" lon="4.72174">
        <ele>250.6</ele>
        <time>2025-11-11T09:06:23Z</time>
      </trkpt>
      <trkpt lat="45.69335" lon="4.7217">
        <ele>250.8</ele>
        <time>2025-11-11T09:06:24Z</time>
      </trkpt>
      <trkpt lat="45.69334" lon="4.72166">
        <ele>251.2</ele>
        <time>2025-11-11T09:06:25Z</time>
      </trkpt>
      <trkpt lat="45.69333" lon="4.72163">
        <ele>251.4</ele>
        <time>2025-11-11T09:06:26Z</time>
      </trkpt>
      <trkpt lat="45.69332" lon="4.72159">
        <ele>251.8</ele>
        <time>2025-11-11T09:06:27Z</time>
      </trkpt>
      <trkpt lat="45.69331" lon="4.72156">
        <ele>252.2</ele>
        <time>2025-11-11T09:06:28Z</time>
      </trkpt>
      <trkpt lat="45.69329" lon="4.72153">
        <ele>252.4</ele>
        <time>2025-11-11T09:06:29Z</time>
      </trkpt>
      <trkpt lat="45.69328" lon="4.7215">
        <ele>252.8</ele>
        <time>2025-11-11T09:06:30Z</time>
      </trkpt>
      <trkpt lat="45.69326" lon="4.72147">
        <ele>253.2</ele>
        <time>2025-11-11T09:06:31Z</time>
      </trkpt>
      <trkpt lat="45.69325" lon="4.72144">
        <ele>253.6</ele>
        <time>2025-11-11T09:06:32Z</time>
      </trkpt>
      <trkpt lat="45.69324" lon="4.72141">
        <ele>254</ele>
        <time>2025-11-11T09:06:33Z</time>
      </trkpt>
      <trkpt lat="45.69322" lon="4.72138">
        <ele>254.2</ele>
        <time>2025-11-11T09:06:34Z</time>
      </trkpt>
      <trkpt lat="45.69321" lon="4.72135">
        <ele>254.6</ele>
        <time>2025-11-11T09:06:35Z</time>
      </trkpt>
      <trkpt lat="45.6932" lon="4.72131">
        <ele>255</ele>
        <time>2025-11-11T09:06:36Z</time>
      </trkpt>
      <trkpt lat="45.69318" lon="4.72128">
        <ele>255.2</ele>
        <time>2025-11-11T09:06:37Z</time>
      </trkpt>
      <trkpt lat="45.69317" lon="4.72125">
        <ele>255.6</ele>
        <time>2025-11-11T09:06:38Z</time>
      </trkpt>
      <trkpt lat="45.69315" lon="4.72122">
        <ele>256</ele>
        <time>2025-11-11T09:06:39Z</time>
      </trkpt>
      <trkpt lat="45.69314" lon="4.72119">
        <ele>256.4</ele>
        <time>2025-11-11T09:06:40Z</time>
      </trkpt>
      <trkpt lat="45.69312" lon="4.72116">
        <ele>256.6</ele>
        <time>2025-11-11T09:06:41Z</time>
      </trkpt>
      <trkpt lat="45.69311" lon="4.72112">
        <ele>257</ele>
        <time>2025-11-11T09:06:42Z</time>
      </trkpt>
      <trkpt lat="45.6931" lon="4.72109">
        <ele>257.4</ele>
        <time>2025-11-11T09:06:43Z</time>
      </trkpt>
      <trkpt lat="45.69309" lon="4.72105">
        <ele>257.6</ele>
        <time>2025-11-11T09:06:44Z</time>
      </trkpt>
      <trkpt lat="45.69308" lon="4.72101">
        <ele>258</ele>
        <time>2025-11-11T09:06:45Z</time>
      </trkpt>
      <trkpt lat="45.69307" lon="4.72097">
        <ele>258.2</ele>
        <time>2025-11-11T09:06:46Z</time>
      </trkpt>
      <trkpt lat="45.69306" lon="4.72093">
        <ele>258.6</ele>
        <time>2025-11-11T09:06:47Z</time>
      </trkpt>
      <trkpt lat="45.69306" lon="4.72089">
        <ele>258.8</ele>
        <time>2025-11-11T09:06:48Z</time>
      </trkpt>
      <trkpt lat="45.69305" lon="4.72085">
        <ele>259.2</ele>
        <time>2025-11-11T09:06:49Z</time>
      </trkpt>
      <trkpt lat="45.69305" lon="4.72082">
        <ele>259.6</ele>
        <time>2025-11-11T09:06:50Z</time>
      </trkpt>
      <trkpt lat="45.69305" lon="4.72078">
        <ele>259.8</ele>
        <time>2025-11-11T09:06:51Z</time>
      </trkpt>
      <trkpt lat="45.69304" lon="4.72074">
        <ele>260.2</ele>
        <time>2025-11-11T09:06:52Z</time>
      </trkpt>
      <trkpt lat="45.69304" lon="4.7207">
        <ele>260.6</ele>
        <time>2025-11-11T09:06:53Z</time>
      </trkpt>
      <trkpt lat="45.69303" lon="4.72066">
        <ele>260.8</ele>
        <time>2025-11-11T09:06:54Z</time>
      </trkpt>
      <trkpt lat="45.69302" lon="4.72062">
        <ele>261.2</ele>
        <time>2025-11-11T09:06:55Z</time>
      </trkpt>
      <trkpt lat="45.69302" lon="4.72058">
        <ele>261.6</ele>
        <time>2025-11-11T09:06:56Z</time>
      </trkpt>
      <trkpt lat="45.69301" lon="4.72055">
        <ele>261.8</ele>
        <time>2025-11-11T09:06:57Z</time>
      </trkpt>
      <trkpt lat="45.693" lon="4.72051">
        <ele>262.2</ele>
        <time>2025-11-11T09:06:58Z</time>
      </trkpt>
      <trkpt lat="45.693" lon="4.72048">
        <ele>262.6</ele>
        <time>2025-11-11T09:06:59Z</time>
      </trkpt>
      <trkpt lat="45.69299" lon="4.72044">
        <ele>263</ele>
        <time>2025-11-11T09:07:00Z</time>
      </trkpt>
      <trkpt lat="45.69298" lon="4.72041">
        <ele>263.2</ele>
        <time>2025-11-11T09:07:01Z</time>
      </trkpt>
      <trkpt lat="45.69298" lon="4.72037">
        <ele>263.6</ele>
        <time>2025-11-11T09:07:02Z</time>
      </trkpt>
      <trkpt lat="45.69297" lon="4.72034">
        <ele>264</ele>
        <time>2025-11-11T09:07:03Z</time>
      </trkpt>
      <trkpt lat="45.69296" lon="4.7203">
        <ele>264.2</ele>
        <time>2025-11-11T09:07:04Z</time>
      </trkpt>
      <trkpt lat="45.69296" lon="4.72026">
        <ele>264.6</ele>
        <time>2025-11-11T09:07:05Z</time>
      </trkpt>
      <trkpt lat="45.69296" lon="4.72023">
        <ele>265</ele>
        <time>2025-11-11T09:07:06Z</time>
      </trkpt>
      <trkpt lat="45.69296" lon="4.72019">
        <ele>265.2</ele>
        <time>2025-11-11T09:07:07Z</time>
      </trkpt>
      <trkpt lat="45.69297" lon="4.72015">
        <ele>265.6</ele>
        <time>2025-11-11T09:07:08Z</time>
      </trkpt>
      <trkpt lat="45.69297" lon="4.72012">
        <ele>265.8</ele>
        <time>2025-11-11T09:07:09Z</time>
      </trkpt>
      <trkpt lat="45.69297" lon="4.72008">
        <ele>266</ele>
        <time>2025-11-11T09:07:10Z</time>
      </trkpt>
      <trkpt lat="45.69297" lon="4.72005">
        <ele>266.4</ele>
        <time>2025-11-11T09:07:11Z</time>
      </trkpt>
      <trkpt lat="45.69298" lon="4.72001">
        <ele>266.6</ele>
        <time>2025-11-11T09:07:12Z</time>
      </trkpt>
      <trkpt lat="45.69298" lon="4.71998">
        <ele>267</ele>
        <time>2025-11-11T09:07:13Z</time>
      </trkpt>
      <trkpt lat="45.69299" lon="4.71994">
        <ele>267.4</ele>
        <time>2025-11-11T09:07:14Z</time>
      </trkpt>
      <trkpt lat="45.69299" lon="4.71991">
        <ele>267.8</ele>
        <time>2025-11-11T09:07:15Z</time>
      </trkpt>
      <trkpt lat="45.69298" lon="4.71987">
        <ele>268</ele>
        <time>2025-11-11T09:07:16Z</time>
      </trkpt>
      <trkpt lat="45.69297" lon="4.71983">
        <ele>268.4</ele>
        <time>2025-11-11T09:07:17Z</time>
      </trkpt>
      <trkpt lat="45.69296" lon="4.7198">
        <ele>268.8</ele>
        <time>2025-11-11T09:07:18Z</time>
      </trkpt>
      <trkpt lat="45.69294" lon="4.71978">
        <ele>269.2</ele>
        <time>2025-11-11T09:07:19Z</time>
      </trkpt>
      <trkpt lat="45.69292" lon="4.71975">
        <ele>269.4</ele>
        <time>2025-11-11T09:07:20Z</time>
      </trkpt>
      <trkpt lat="45.6929" lon="4.71973">
        <ele>269.8</ele>
        <time>2025-11-11T09:07:21Z</time>
      </trkpt>
      <trkpt lat="45.69288" lon="4.71972">
        <ele>270.2</ele>
        <time>2025-11-11T09:07:22Z</time>
      </trkpt>
      <trkpt lat="45.69285" lon="4.71971">
        <ele>270.4</ele>
        <time>2025-11-11T09:07:23Z</time>
      </trkpt>
      <trkpt lat="45.69283" lon="4.71969">
        <ele>270.8</ele>
        <time>2025-11-11T09:07:24Z</time>
      </trkpt>
      <trkpt lat="45.6928" lon="4.71967">
        <ele>271</ele>
        <time>2025-11-11T09:07:25Z</time>
      </trkpt>
      <trkpt lat="45.69278" lon="4.71966">
        <ele>271.4</ele>
        <time>2025-11-11T09:07:26Z</time>
      </trkpt>
      <trkpt lat="45.69275" lon="4.71964">
        <ele>271.6</ele>
        <time>2025-11-11T09:07:27Z</time>
      </trkpt>
      <trkpt lat="45.69273" lon="4.71962">
        <ele>272</ele>
        <time>2025-11-11T09:07:28Z</time>
      </trkpt>
      <trkpt lat="45.69271" lon="4.71959">
        <ele>272.2</ele>
        <time>2025-11-11T09:07:29Z</time>
      </trkpt>
      <trkpt lat="45.6927" lon="4.71955">
        <ele>272.6</ele>
        <time>2025-11-11T09:07:30Z</time>
      </trkpt>
      <trkpt lat="45.69269" lon="4.71952">
        <ele>273</ele>
        <time>2025-11-11T09:07:31Z</time>
      </trkpt>
      <trkpt lat="45.69269" lon="4.71948">
        <ele>273.2</ele>
        <time>2025-11-11T09:07:32Z</time>
      </trkpt>
      <trkpt lat="45.6927" lon="4.71944">
        <ele>273.6</ele>
        <time>2025-11-11T09:07:33Z</time>
      </trkpt>
      <trkpt lat="45.69271" lon="4.71941">
        <ele>273.8</ele>
        <time>2025-11-11T09:07:34Z</time>
      </trkpt>
      <trkpt lat="45.69272" lon="4.71937">
        <ele>274.2</ele>
        <time>2025-11-11T09:07:35Z</time>
      </trkpt>
      <trkpt lat="45.69272" lon="4.71933">
        <ele>274.4</ele>
        <time>2025-11-11T09:07:36Z</time>
      </trkpt>
      <trkpt lat="45.69273" lon="4.71929">
        <ele>274.8</ele>
        <time>2025-11-11T09:07:37Z</time>
      </trkpt>
      <trkpt lat="45.69273" lon="4.71926">
        <ele>275</ele>
        <time>2025-11-11T09:07:38Z</time>
      </trkpt>
      <trkpt lat="45.69273" lon="4.71922">
        <ele>275.4</ele>
        <time>2025-11-11T09:07:39Z</time>
      </trkpt>
      <trkpt lat="45.69272" lon="4.71919">
        <ele>275.6</ele>
        <time>2025-11-11T09:07:40Z</time>
      </trkpt>
      <trkpt lat="45.69271" lon="4.71915">
        <ele>275.8</ele>
        <time>2025-11-11T09:07:41Z</time>
      </trkpt>
      <trkpt lat="45.6927" lon="4.71911">
        <ele>276.2</ele>
        <time>2025-11-11T09:07:42Z</time>
      </trkpt>
      <trkpt lat="45.69269" lon="4.71908">
        <ele>276.4</ele>
        <time>2025-11-11T09:07:43Z</time>
      </trkpt>
      <trkpt lat="45.69267" lon="4.71905">
        <ele>276.6</ele>
        <time>2025-11-11T09:07:44Z</time>
      </trkpt>
      <trkpt lat="45.69265" lon="4.71902">
        <ele>277</ele>
        <time>2025-11-11T09:07:45Z</time>
      </trkpt>
      <trkpt lat="45.69264" lon="4.71899">
        <ele>277.2</ele>
        <time>2025-11-11T09:07:46Z</time>
      </trkpt>
      <trkpt lat="45.69262" lon="4.71896">
        <ele>277.6</ele>
        <time>2025-11-11T09:07:47Z</time>
      </trkpt>
      <trkpt lat="45.6926" lon="4.71894">
        <ele>277.8</ele>
        <time>2025-11-11T09:07:48Z</time>
      </trkpt>
      <trkpt lat="45.69257" lon="4.71892">
        <ele>278.2</ele>
        <time>2025-11-11T09:07:49Z</time>
      </trkpt>
      <trkpt lat="45.69255" lon="4.7189">
        <ele>278.4</ele>
        <time>2025-11-11T09:07:50Z</time>
      </trkpt>
      <trkpt lat="45.69253" lon="4.71889">
        <ele>278.8</ele>
        <time>2025-11-11T09:07:51Z</time>
      </trkpt>
      <trkpt lat="45.69251" lon="4.71887">
        <ele>279.2</ele>
        <time>2025-11-11T09:07:52Z</time>
      </trkpt>
      <trkpt lat="45.69248" lon="4.71886">
        <ele>279.4</ele>
        <time>2025-11-11T09:07:53Z</time>
      </trkpt>
      <trkpt lat="45.69246" lon="4.71884">
        <ele>279.8</ele>
        <time>2025-11-11T09:07:54Z</time>
      </trkpt>
      <trkpt lat="45.69243" lon="4.71883">
        <ele>280</ele>
        <time>2025-11-11T09:07:55Z</time>
      </trkpt>
      <trkpt lat="45.6924" lon="4.71882">
        <ele>280.4</ele>
        <time>2025-11-11T09:07:56Z</time>
      </trkpt>
      <trkpt lat="45.69238" lon="4.7188">
        <ele>280.6</ele>
        <time>2025-11-11T09:07:57Z</time>
      </trkpt>
      <trkpt lat="45.69235" lon="4.71879">
        <ele>281</ele>
        <time>2025-11-11T09:07:58Z</time>
      </trkpt>
      <trkpt lat="45.69233" lon="4.71878">
        <ele>281.2</ele>
        <time>2025-11-11T09:07:59Z</time>
      </trkpt>
      <trkpt lat="45.6923" lon="4.71878">
        <ele>281.6</ele>
        <time>2025-11-11T09:08:00Z</time>
      </trkpt>
      <trkpt lat="45.69228" lon="4.71877">
        <ele>281.8</ele>
        <time>2025-11-11T09:08:01Z</time>
      </trkpt>
      <trkpt lat="45.69225" lon="4.71876">
        <ele>282.2</ele>
        <time>2025-11-11T09:08:02Z</time>
      </trkpt>
      <trkpt lat="45.69223" lon="4.71876">
        <ele>282.6</ele>
        <time>2025-11-11T09:08:03Z</time>
      </trkpt>
      <trkpt lat="45.6922" lon="4.71875">
        <ele>283</ele>
        <time>2025-11-11T09:08:04Z</time>
      </trkpt>
      <trkpt lat="45.69218" lon="4.71874">
        <ele>283.2</ele>
        <time>2025-11-11T09:08:05Z</time>
      </trkpt>
      <trkpt lat="45.69215" lon="4.71873">
        <ele>283.6</ele>
        <time>2025-11-11T09:08:06Z</time>
      </trkpt>
      <trkpt lat="45.69213" lon="4.71872">
        <ele>284</ele>
        <time>2025-11-11T09:08:07Z</time>
      </trkpt>
      <trkpt lat="45.6921" lon="4.7187">
        <ele>284.4</ele>
        <time>2025-11-11T09:08:08Z</time>
      </trkpt>
      <trkpt lat="45.69208" lon="4.71869">
        <ele>284.8</ele>
        <time>2025-11-11T09:08:09Z</time>
      </trkpt>
      <trkpt lat="45.69206" lon="4.71867">
        <ele>285</ele>
        <time>2025-11-11T09:08:10Z</time>
      </trkpt>
      <trkpt lat="45.69203" lon="4.71865">
        <ele>285.4</ele>
        <time>2025-11-11T09:08:11Z</time>
      </trkpt>
      <trkpt lat="45.69201" lon="4.71863">
        <ele>285.6</ele>
        <time>2025-11-11T09:08:12Z</time>
      </trkpt>
      <trkpt lat="45.69199" lon="4.7186">
        <ele>286</ele>
        <time>2025-11-11T09:08:13Z</time>
      </trkpt>
      <trkpt lat="45.69197" lon="4.71858">
        <ele>286.4</ele>
        <time>2025-11-11T09:08:14Z</time>
      </trkpt>
      <trkpt lat="45.69195" lon="4.71855">
        <ele>286.6</ele>
        <time>2025-11-11T09:08:15Z</time>
      </trkpt>
      <trkpt lat="45.69193" lon="4.71852">
        <ele>287</ele>
        <time>2025-11-11T09:08:16Z</time>
      </trkpt>
      <trkpt lat="45.69191" lon="4.71849">
        <ele>287.2</ele>
        <time>2025-11-11T09:08:17Z</time>
      </trkpt>
      <trkpt lat="45.6919" lon="4.71845">
        <ele>287.4</ele>
        <time>2025-11-11T09:08:18Z</time>
      </trkpt>
      <trkpt lat="45.69189" lon="4.71841">
        <ele>287.8</ele>
        <time>2025-11-11T09:08:19Z</time>
      </trkpt>
      <trkpt lat="45.69188" lon="4.71838">
        <ele>288</ele>
        <time>2025-11-11T09:08:20Z</time>
      </trkpt>
      <trkpt lat="45.69187" lon="4.71834">
        <ele>288.2</ele>
        <time>2025-11-11T09:08:21Z</time>
      </trkpt>
      <trkpt lat="45.69186" lon="4.71831">
        <ele>288.4</ele>
        <time>2025-11-11T09:08:22Z</time>
      </trkpt>
      <trkpt lat="45.69185" lon="4.71827">
        <ele>288.8</ele>
        <time>2025-11-11T09:08:23Z</time>
      </trkpt>
      <trkpt lat="45.69183" lon="4.71824">
        <ele>289</ele>
        <time>2025-11-11T09:08:24Z</time>
      </trkpt>
      <trkpt lat="45.69182" lon="4.7182">
        <ele>289.4</ele>
        <time>2025-11-11T09:08:25Z</time>
      </trkpt>
      <trkpt lat="45.69181" lon="4.71816">
        <ele>289.6</ele>
        <time>2025-11-11T09:08:26Z</time>
      </trkpt>
      <trkpt lat="45.6918" lon="4.71813">
        <ele>290</ele>
        <time>2025-11-11T09:08:27Z</time>
      </trkpt>
      <trkpt lat="45.69178" lon="4.71809">
        <ele>290.2</ele>
        <time>2025-11-11T09:08:28Z</time>
      </trkpt>
      <trkpt lat="45.69177" lon="4.71805">
        <ele>290.6</ele>
        <time>2025-11-11T09:08:29Z</time>
      </trkpt>
      <trkpt lat="45.69176" lon="4.71802">
        <ele>290.8</ele>
        <time>2025-11-11T09:08:30Z</time>
      </trkpt>
      <trkpt lat="45.69174" lon="4.71798">
        <ele>291</ele>
        <time>2025-11-11T09:08:31Z</time>
      </trkpt>
      <trkpt lat="45.69173" lon="4.71794">
        <ele>291.2</ele>
        <time>2025-11-11T09:08:32Z</time>
      </trkpt>
      <trkpt lat="45.69172" lon="4.7179">
        <ele>291.6</ele>
        <time>2025-11-11T09:08:33Z</time>
      </trkpt>
      <trkpt lat="45.69171" lon="4.71787">
        <ele>291.8</ele>
        <time>2025-11-11T09:08:34Z</time>
      </trkpt>
      <trkpt lat="45.69171" lon="4.71784">
        <ele>292</ele>
        <time>2025-11-11T09:08:35Z</time>
      </trkpt>
      <trkpt lat="45.69171" lon="4.7178">
        <ele>292.4</ele>
        <time>2025-11-11T09:08:36Z</time>
      </trkpt>
      <trkpt lat="45.69172" lon="4.71777">
        <ele>292.8</ele>
        <time>2025-11-11T09:08:37Z</time>
      </trkpt>
      <trkpt lat="45.69172" lon="4.71773">
        <ele>293</ele>
        <time>2025-11-11T09:08:38Z</time>
      </trkpt>
      <trkpt lat="45.69173" lon="4.7177">
        <ele>293.4</ele>
        <time>2025-11-11T09:08:39Z</time>
      </trkpt>
      <trkpt lat="45.69175" lon="4.71766">
        <ele>293.8</ele>
        <time>2025-11-11T09:08:40Z</time>
      </trkpt>
      <trkpt lat="45.69177" lon="4.71763">
        <ele>294</ele>
        <time>2025-11-11T09:08:41Z</time>
      </trkpt>
      <trkpt lat="45.69178" lon="4.71759">
        <ele>294.2</ele>
        <time>2025-11-11T09:08:42Z</time>
      </trkpt>
      <trkpt lat="45.6918" lon="4.71756">
        <ele>294.6</ele>
        <time>2025-11-11T09:08:43Z</time>
      </trkpt>
      <trkpt lat="45.69181" lon="4.71753">
        <ele>294.8</ele>
        <time>2025-11-11T09:08:44Z</time>
      </trkpt>
      <trkpt lat="45.69183" lon="4.7175">
        <ele>295.2</ele>
        <time>2025-11-11T09:08:45Z</time>
      </trkpt>
      <trkpt lat="45.69184" lon="4.71746">
        <ele>295.4</ele>
        <time>2025-11-11T09:08:46Z</time>
      </trkpt>
      <trkpt lat="45.69186" lon="4.71743">
        <ele>295.8</ele>
        <time>2025-11-11T09:08:47Z</time>
      </trkpt>
      <trkpt lat="45.69187" lon="4.7174">
        <ele>296</ele>
        <time>2025-11-11T09:08:48Z</time>
      </trkpt>
      <trkpt lat="45.69189" lon="4.71737">
        <ele>296.2</ele>
        <time>2025-11-11T09:08:49Z</time>
      </trkpt>
      <trkpt lat="45.6919" lon="4.71734">
        <ele>296.6</ele>
        <time>2025-11-11T09:08:50Z</time>
      </trkpt>
      <trkpt lat="45.69192" lon="4.71731">
        <ele>296.8</ele>
        <time>2025-11-11T09:08:51Z</time>
      </trkpt>
      <trkpt lat="45.69194" lon="4.71728">
        <ele>297</ele>
        <time>2025-11-11T09:08:52Z</time>
      </trkpt>
      <trkpt lat="45.69196" lon="4.71725">
        <ele>297.4</ele>
        <time>2025-11-11T09:08:53Z</time>
      </trkpt>
      <trkpt lat="45.69197" lon="4.71721">
        <ele>297.6</ele>
        <time>2025-11-11T09:08:54Z</time>
      </trkpt>
      <trkpt lat="45.69199" lon="4.71718">
        <ele>297.8</ele>
        <time>2025-11-11T09:08:55Z</time>
      </trkpt>
      <trkpt lat="45.69201" lon="4.71714">
        <ele>298</ele>
        <time>2025-11-11T09:08:56Z</time>
      </trkpt>
      <trkpt lat="45.69203" lon="4.71711">
        <ele>298.2</ele>
        <time>2025-11-11T09:08:57Z</time>
      </trkpt>
      <trkpt lat="45.69204" lon="4.71707">
        <ele>298.4</ele>
        <time>2025-11-11T09:08:58Z</time>
      </trkpt>
      <trkpt lat="45.69206" lon="4.71704">
        <ele>298.4</ele>
        <time>2025-11-11T09:08:59Z</time>
      </trkpt>
      <trkpt lat="45.69208" lon="4.717">
        <ele>298.6</ele>
        <time>2025-11-11T09:09:00Z</time>
      </trkpt>
      <trkpt lat="45.6921" lon="4.71696">
        <ele>298.6</ele>
        <time>2025-11-11T09:09:01Z</time>
      </trkpt>
      <trkpt lat="45.69212" lon="4.71692">
        <ele>298.6</ele>
        <time>2025-11-11T09:09:02Z</time>
      </trkpt>
      <trkpt lat="45.69214" lon="4.71688">
        <ele>298.8</ele>
        <time>2025-11-11T09:09:03Z</time>
      </trkpt>
      <trkpt lat="45.69216" lon="4.71685">
        <ele>298.8</ele>
        <time>2025-11-11T09:09:04Z</time>
      </trkpt>
      <trkpt lat="45.69218" lon="4.71681">
        <ele>298.8</ele>
        <time>2025-11-11T09:09:05Z</time>
      </trkpt>
      <trkpt lat="45.69219" lon="4.71678">
        <ele>299</ele>
        <time>2025-11-11T09:09:06Z</time>
      </trkpt>
      <trkpt lat="45.69221" lon="4.71674">
        <ele>299</ele>
        <time>2025-11-11T09:09:07Z</time>
      </trkpt>
      <trkpt lat="45.69223" lon="4.7167">
        <ele>299.2</ele>
        <time>2025-11-11T09:09:08Z</time>
      </trkpt>
      <trkpt lat="45.69225" lon="4.71666">
        <ele>299.2</ele>
        <time>2025-11-11T09:09:09Z</time>
      </trkpt>
      <trkpt lat="45.69227" lon="4.71662">
        <ele>299.2</ele>
        <time>2025-11-11T09:09:10Z</time>
      </trkpt>
      <trkpt lat="45.69229" lon="4.71658">
        <ele>299.2</ele>
        <time>2025-11-11T09:09:11Z</time>
      </trkpt>
      <trkpt lat="45.69231" lon="4.71655">
        <ele>299.2</ele>
        <time>2025-11-11T09:09:12Z</time>
      </trkpt>
      <trkpt lat="45.69233" lon="4.71651">
        <ele>299.2</ele>
        <time>2025-11-11T09:09:13Z</time>
      </trkpt>
      <trkpt lat="45.69235" lon="4.71647">
        <ele>299.4</ele>
        <time>2025-11-11T09:09:14Z</time>
      </trkpt>
      <trkpt lat="45.69237" lon="4.71643">
        <ele>299.4</ele>
        <time>2025-11-11T09:09:15Z</time>
      </trkpt>
      <trkpt lat="45.69239" lon="4.71639">
        <ele>299.4</ele>
        <time>2025-11-11T09:09:16Z</time>
      </trkpt>
      <trkpt lat="45.69238" lon="4.71634">
        <ele>299.6</ele>
        <time>2025-11-11T09:09:17Z</time>
      </trkpt>
      <trkpt lat="45.69237" lon="4.7163">
        <ele>299.6</ele>
        <time>2025-11-11T09:09:18Z</time>
      </trkpt>
      <trkpt lat="45.69236" lon="4.71625">
        <ele>299.6</ele>
        <time>2025-11-11T09:09:19Z</time>
      </trkpt>
      <trkpt lat="45.69234" lon="4.71621">
        <ele>299.6</ele>
        <time>2025-11-11T09:09:20Z</time>
      </trkpt>
      <trkpt lat="45.69231" lon="4.71617">
        <ele>299.6</ele>
        <time>2025-11-11T09:09:21Z</time>
      </trkpt>
      <trkpt lat="45.69229" lon="4.71613">
        <ele>299.6</ele>
        <time>2025-11-11T09:09:22Z</time>
      </trkpt>
      <trkpt lat="45.69227" lon="4.71609">
        <ele>299.6</ele>
        <time>2025-11-11T09:09:23Z</time>
      </trkpt>
      <trkpt lat="45.69225" lon="4.71604">
        <ele>299.4</ele>
        <time>2025-11-11T09:09:24Z</time>
      </trkpt>
      <trkpt lat="45.69222" lon="4.716">
        <ele>299.4</ele>
        <time>2025-11-11T09:09:25Z</time>
      </trkpt>
      <trkpt lat="45.6922" lon="4.71596">
        <ele>299.4</ele>
        <time>2025-11-11T09:09:26Z</time>
      </trkpt>
      <trkpt lat="45.69218" lon="4.71593">
        <ele>299.4</ele>
        <time>2025-11-11T09:09:27Z</time>
      </trkpt>
      <trkpt lat="45.69216" lon="4.7159">
        <ele>299.6</ele>
        <time>2025-11-11T09:09:28Z</time>
      </trkpt>
      <trkpt lat="45.69216" lon="4.71586">
        <ele>299.8</ele>
        <time>2025-11-11T09:09:29Z</time>
      </trkpt>
      <trkpt lat="45.69216" lon="4.71582">
        <ele>300</ele>
        <time>2025-11-11T09:09:30Z</time>
      </trkpt>
      <trkpt lat="45.69217" lon="4.71579">
        <ele>300.2</ele>
        <time>2025-11-11T09:09:31Z</time>
      </trkpt>
      <trkpt lat="45.69219" lon="4.71576">
        <ele>300.6</ele>
        <time>2025-11-11T09:09:32Z</time>
      </trkpt>
      <trkpt lat="45.6922" lon="4.71573">
        <ele>301</ele>
        <time>2025-11-11T09:09:33Z</time>
      </trkpt>
      <trkpt lat="45.69222" lon="4.71569">
        <ele>301.2</ele>
        <time>2025-11-11T09:09:34Z</time>
      </trkpt>
      <trkpt lat="45.69223" lon="4.71565">
        <ele>301.4</ele>
        <time>2025-11-11T09:09:35Z</time>
      </trkpt>
      <trkpt lat="45.69224" lon="4.7156">
        <ele>301.6</ele>
        <time>2025-11-11T09:09:36Z</time>
      </trkpt>
      <trkpt lat="45.69226" lon="4.71555">
        <ele>301.6</ele>
        <time>2025-11-11T09:09:37Z</time>
      </trkpt>
      <trkpt lat="45.69227" lon="4.71551">
        <ele>301.8</ele>
        <time>2025-11-11T09:09:38Z</time>
      </trkpt>
      <trkpt lat="45.69229" lon="4.71547">
        <ele>301.8</ele>
        <time>2025-11-11T09:09:39Z</time>
      </trkpt>
      <trkpt lat="45.69231" lon="4.71543">
        <ele>302</ele>
        <time>2025-11-11T09:09:40Z</time>
      </trkpt>
      <trkpt lat="45.69233" lon="4.71539">
        <ele>302</ele>
        <time>2025-11-11T09:09:41Z</time>
      </trkpt>
      <trkpt lat="45.69235" lon="4.71536">
        <ele>302.2</ele>
        <time>2025-11-11T09:09:42Z</time>
      </trkpt>
      <trkpt lat="45.69238" lon="4.71532">
        <ele>302.4</ele>
        <time>2025-11-11T09:09:43Z</time>
      </trkpt>
      <trkpt lat="45.6924" lon="4.71529">
        <ele>302.4</ele>
        <time>2025-11-11T09:09:44Z</time>
      </trkpt>
      <trkpt lat="45.69242" lon="4.71525">
        <ele>302.6</ele>
        <time>2025-11-11T09:09:45Z</time>
      </trkpt>
      <trkpt lat="45.69244" lon="4.71521">
        <ele>302.8</ele>
        <time>2025-11-11T09:09:46Z</time>
      </trkpt>
      <trkpt lat="45.69246" lon="4.71517">
        <ele>303</ele>
        <time>2025-11-11T09:09:47Z</time>
      </trkpt>
      <trkpt lat="45.69247" lon="4.71512">
        <ele>303</ele>
        <time>2025-11-11T09:09:48Z</time>
      </trkpt>
      <trkpt lat="45.69248" lon="4.71507">
        <ele>303.2</ele>
        <time>2025-11-11T09:09:49Z</time>
      </trkpt>
      <trkpt lat="45.69248" lon="4.71502">
        <ele>303.2</ele>
        <time>2025-11-11T09:09:50Z</time>
      </trkpt>
      <trkpt lat="45.69249" lon="4.71497">
        <ele>303.4</ele>
        <time>2025-11-11T09:09:51Z</time>
      </trkpt>
      <trkpt lat="45.69249" lon="4.71492">
        <ele>303.4</ele>
        <time>2025-11-11T09:09:52Z</time>
      </trkpt>
      <trkpt lat="45.69249" lon="4.71488">
        <ele>303.4</ele>
        <time>2025-11-11T09:09:53Z</time>
      </trkpt>
      <trkpt lat="45.69248" lon="4.71483">
        <ele>303.6</ele>
        <time>2025-11-11T09:09:54Z</time>
      </trkpt>
      <trkpt lat="45.69246" lon="4.71479">
        <ele>303.8</ele>
        <time>2025-11-11T09:09:55Z</time>
      </trkpt>
      <trkpt lat="45.69244" lon="4.71476">
        <ele>304</ele>
        <time>2025-11-11T09:09:56Z</time>
      </trkpt>
      <trkpt lat="45.69241" lon="4.71473">
        <ele>304.2</ele>
        <time>2025-11-11T09:09:57Z</time>
      </trkpt>
      <trkpt lat="45.69238" lon="4.71471">
        <ele>304.4</ele>
        <time>2025-11-11T09:09:58Z</time>
      </trkpt>
      <trkpt lat="45.69235" lon="4.71469">
        <ele>304.6</ele>
        <time>2025-11-11T09:09:59Z</time>
      </trkpt>
      <trkpt lat="45.69232" lon="4.71467">
        <ele>304.6</ele>
        <time>2025-11-11T09:10:00Z</time>
      </trkpt>
      <trkpt lat="45.69229" lon="4.71465">
        <ele>304.8</ele>
        <time>2025-11-11T09:10:01Z</time>
      </trkpt>
      <trkpt lat="45.69225" lon="4.71464">
        <ele>304.8</ele>
        <time>2025-11-11T09:10:02Z</time>
      </trkpt>
      <trkpt lat="45.69222" lon="4.71462">
        <ele>305</ele>
        <time>2025-11-11T09:10:03Z</time>
      </trkpt>
      <trkpt lat="45.69219" lon="4.7146">
        <ele>305</ele>
        <time>2025-11-11T09:10:04Z</time>
      </trkpt>
      <trkpt lat="45.69216" lon="4.71458">
        <ele>305</ele>
        <time>2025-11-11T09:10:05Z</time>
      </trkpt>
      <trkpt lat="45.69213" lon="4.71456">
        <ele>305.2</ele>
        <time>2025-11-11T09:10:06Z</time>
      </trkpt>
      <trkpt lat="45.6921" lon="4.71455">
        <ele>305</ele>
        <time>2025-11-11T09:10:07Z</time>
      </trkpt>
      <trkpt lat="45.69206" lon="4.71453">
        <ele>305</ele>
        <time>2025-11-11T09:10:08Z</time>
      </trkpt>
      <trkpt lat="45.69203" lon="4.71451">
        <ele>305</ele>
        <time>2025-11-11T09:10:09Z</time>
      </trkpt>
      <trkpt lat="45.69199" lon="4.71449">
        <ele>305</ele>
        <time>2025-11-11T09:10:10Z</time>
      </trkpt>
      <trkpt lat="45.69196" lon="4.71448">
        <ele>305</ele>
        <time>2025-11-11T09:10:11Z</time>
      </trkpt>
      <trkpt lat="45.69192" lon="4.71446">
        <ele>305.2</ele>
        <time>2025-11-11T09:10:12Z</time>
      </trkpt>
      <trkpt lat="45.69189" lon="4.71444">
        <ele>305.2</ele>
        <time>2025-11-11T09:10:13Z</time>
      </trkpt>
      <trkpt lat="45.69185" lon="4.71442">
        <ele>305.4</ele>
        <time>2025-11-11T09:10:14Z</time>
      </trkpt>
      <trkpt lat="45.69182" lon="4.71441">
        <ele>305.6</ele>
        <time>2025-11-11T09:10:15Z</time>
      </trkpt>
      <trkpt lat="45.69178" lon="4.71439">
        <ele>305.6</ele>
        <time>2025-11-11T09:10:16Z</time>
      </trkpt>
      <trkpt lat="45.69175" lon="4.71438">
        <ele>305.8</ele>
        <time>2025-11-11T09:10:17Z</time>
      </trkpt>
      <trkpt lat="45.69172" lon="4.71436">
        <ele>306</ele>
        <time>2025-11-11T09:10:18Z</time>
      </trkpt>
      <trkpt lat="45.69169" lon="4.71434">
        <ele>306.2</ele>
        <time>2025-11-11T09:10:19Z</time>
      </trkpt>
      <trkpt lat="45.69166" lon="4.71432">
        <ele>306.2</ele>
        <time>2025-11-11T09:10:20Z</time>
      </trkpt>
      <trkpt lat="45.69163" lon="4.7143">
        <ele>306.6</ele>
        <time>2025-11-11T09:10:21Z</time>
      </trkpt>
      <trkpt lat="45.6916" lon="4.71429">
        <ele>306.8</ele>
        <time>2025-11-11T09:10:22Z</time>
      </trkpt>
      <trkpt lat="45.69157" lon="4.71427">
        <ele>306.8</ele>
        <time>2025-11-11T09:10:23Z</time>
      </trkpt>
      <trkpt lat="45.69153" lon="4.71426">
        <ele>307</ele>
        <time>2025-11-11T09:10:24Z</time>
      </trkpt>
      <trkpt lat="45.6915" lon="4.71424">
        <ele>307</ele>
        <time>2025-11-11T09:10:25Z</time>
      </trkpt>
      <trkpt lat="45.69147" lon="4.71423">
        <ele>307.2</ele>
        <time>2025-11-11T09:10:26Z</time>
      </trkpt>
      <trkpt lat="45.69143" lon="4.71422">
        <ele>307.4</ele>
        <time>2025-11-11T09:10:27Z</time>
      </trkpt>
      <trkpt lat="45.6914" lon="4.71421">
        <ele>307.6</ele>
        <time>2025-11-11T09:10:28Z</time>
      </trkpt>
      <trkpt lat="45.69137" lon="4.7142">
        <ele>307.6</ele>
        <time>2025-11-11T09:10:29Z</time>
      </trkpt>
      <trkpt lat="45.69134" lon="4.71419">
        <ele>307.8</ele>
        <time>2025-11-11T09:10:30Z</time>
      </trkpt>
      <trkpt lat="45.6913" lon="4.71418">
        <ele>308</ele>
        <time>2025-11-11T09:10:31Z</time>
      </trkpt>
      <trkpt lat="45.69128" lon="4.71416">
        <ele>308.2</ele>
        <time>2025-11-11T09:10:32Z</time>
      </trkpt>
      <trkpt lat="45.69125" lon="4.71416">
        <ele>308.2</ele>
        <time>2025-11-11T09:10:33Z</time>
      </trkpt>
      <trkpt lat="45.69122" lon="4.71415">
        <ele>308.4</ele>
        <time>2025-11-11T09:10:34Z</time>
      </trkpt>
      <trkpt lat="45.69118" lon="4.71414">
        <ele>308.6</ele>
        <time>2025-11-11T09:10:35Z</time>
      </trkpt>
      <trkpt lat="45.69115" lon="4.71412">
        <ele>308.8</ele>
        <time>2025-11-11T09:10:36Z</time>
      </trkpt>
      <trkpt lat="45.69112" lon="4.71411">
        <ele>309</ele>
        <time>2025-11-11T09:10:37Z</time>
      </trkpt>
      <trkpt lat="45.69109" lon="4.7141">
        <ele>309</ele>
        <time>2025-11-11T09:10:38Z</time>
      </trkpt>
      <trkpt lat="45.69106" lon="4.71408">
        <ele>309.2</ele>
        <time>2025-11-11T09:10:39Z</time>
      </trkpt>
      <trkpt lat="45.69102" lon="4.71407">
        <ele>309.4</ele>
        <time>2025-11-11T09:10:40Z</time>
      </trkpt>
      <trkpt lat="45.69099" lon="4.71406">
        <ele>309.4</ele>
        <time>2025-11-11T09:10:41Z</time>
      </trkpt>
      <trkpt lat="45.69096" lon="4.71404">
        <ele>309.6</ele>
        <time>2025-11-11T09:10:42Z</time>
      </trkpt>
      <trkpt lat="45.69092" lon="4.71403">
        <ele>309.8</ele>
        <time>2025-11-11T09:10:43Z</time>
      </trkpt>
      <trkpt lat="45.69089" lon="4.71401">
        <ele>309.8</ele>
        <time>2025-11-11T09:10:44Z</time>
      </trkpt>
      <trkpt lat="45.69086" lon="4.71399">
        <ele>310</ele>
        <time>2025-11-11T09:10:45Z</time>
      </trkpt>
      <trkpt lat="45.69084" lon="4.71396">
        <ele>310</ele>
        <time>2025-11-11T09:10:46Z</time>
      </trkpt>
      <trkpt lat="45.69083" lon="4.71392">
        <ele>310.2</ele>
        <time>2025-11-11T09:10:47Z</time>
      </trkpt>
      <trkpt lat="45.69082" lon="4.71388">
        <ele>310.4</ele>
        <time>2025-11-11T09:10:48Z</time>
      </trkpt>
      <trkpt lat="45.69082" lon="4.71384">
        <ele>310.4</ele>
        <time>2025-11-11T09:10:49Z</time>
      </trkpt>
      <trkpt lat="45.69083" lon="4.71379">
        <ele>310.6</ele>
        <time>2025-11-11T09:10:50Z</time>
      </trkpt>
      <trkpt lat="45.69084" lon="4.71375">
        <ele>310.8</ele>
        <time>2025-11-11T09:10:51Z</time>
      </trkpt>
      <trkpt lat="45.69085" lon="4.71371">
        <ele>311</ele>
        <time>2025-11-11T09:10:52Z</time>
      </trkpt>
      <trkpt lat="45.69086" lon="4.71366">
        <ele>311.2</ele>
        <time>2025-11-11T09:10:53Z</time>
      </trkpt>
      <trkpt lat="45.69087" lon="4.71362">
        <ele>311.4</ele>
        <time>2025-11-11T09:10:54Z</time>
      </trkpt>
      <trkpt lat="45.69088" lon="4.71357">
        <ele>311.6</ele>
        <time>2025-11-11T09:10:55Z</time>
      </trkpt>
      <trkpt lat="45.69089" lon="4.71353">
        <ele>311.8</ele>
        <time>2025-11-11T09:10:56Z</time>
      </trkpt>
      <trkpt lat="45.69089" lon="4.71348">
        <ele>312</ele>
        <time>2025-11-11T09:10:57Z</time>
      </trkpt>
      <trkpt lat="45.6909" lon="4.71344">
        <ele>312.2</ele>
        <time>2025-11-11T09:10:58Z</time>
      </trkpt>
      <trkpt lat="45.69091" lon="4.71339">
        <ele>312.4</ele>
        <time>2025-11-11T09:10:59Z</time>
      </trkpt>
      <trkpt lat="45.69092" lon="4.71335">
        <ele>312.6</ele>
        <time>2025-11-11T09:11:00Z</time>
      </trkpt>
      <trkpt lat="45.69093" lon="4.7133">
        <ele>312.8</ele>
        <time>2025-11-11T09:11:01Z</time>
      </trkpt>
      <trkpt lat="45.69093" lon="4.71326">
        <ele>313</ele>
        <time>2025-11-11T09:11:02Z</time>
      </trkpt>
      <trkpt lat="45.69094" lon="4.71321">
        <ele>313.2</ele>
        <time>2025-11-11T09:11:03Z</time>
      </trkpt>
      <trkpt lat="45.69095" lon="4.71317">
        <ele>313.4</ele>
        <time>2025-11-11T09:11:04Z</time>
      </trkpt>
      <trkpt lat="45.69096" lon="4.71313">
        <ele>313.6</ele>
        <time>2025-11-11T09:11:05Z</time>
      </trkpt>
      <trkpt lat="45.69096" lon="4.71309">
        <ele>313.8</ele>
        <time>2025-11-11T09:11:06Z</time>
      </trkpt>
      <trkpt lat="45.69096" lon="4.71304">
        <ele>314</ele>
        <time>2025-11-11T09:11:07Z</time>
      </trkpt>
      <trkpt lat="45.69096" lon="4.71299">
        <ele>314.2</ele>
        <time>2025-11-11T09:11:08Z</time>
      </trkpt>
      <trkpt lat="45.69095" lon="4.71295">
        <ele>314.4</ele>
        <time>2025-11-11T09:11:09Z</time>
      </trkpt>
      <trkpt lat="45.69093" lon="4.71291">
        <ele>314.6</ele>
        <time>2025-11-11T09:11:10Z</time>
      </trkpt>
      <trkpt lat="45.69091" lon="4.71287">
        <ele>314.8</ele>
        <time>2025-11-11T09:11:11Z</time>
      </trkpt>
      <trkpt lat="45.69089" lon="4.71284">
        <ele>315</ele>
        <time>2025-11-11T09:11:12Z</time>
      </trkpt>
      <trkpt lat="45.69087" lon="4.7128">
        <ele>315.2</ele>
        <time>2025-11-11T09:11:13Z</time>
      </trkpt>
      <trkpt lat="45.69086" lon="4.71276">
        <ele>315.4</ele>
        <time>2025-11-11T09:11:14Z</time>
      </trkpt>
      <trkpt lat="45.69086" lon="4.71272">
        <ele>315.8</ele>
        <time>2025-11-11T09:11:15Z</time>
      </trkpt>
      <trkpt lat="45.69087" lon="4.71269">
        <ele>316</ele>
        <time>2025-11-11T09:11:16Z</time>
      </trkpt>
      <trkpt lat="45.69088" lon="4.71266">
        <ele>316.4</ele>
        <time>2025-11-11T09:11:17Z</time>
      </trkpt>
      <trkpt lat="45.6909" lon="4.71262">
        <ele>316.6</ele>
        <time>2025-11-11T09:11:18Z</time>
      </trkpt>
      <trkpt lat="45.69091" lon="4.71259">
        <ele>317</ele>
        <time>2025-11-11T09:11:19Z</time>
      </trkpt>
      <trkpt lat="45.69091" lon="4.71254">
        <ele>317.2</ele>
        <time>2025-11-11T09:11:20Z</time>
      </trkpt>
      <trkpt lat="45.6909" lon="4.7125">
        <ele>317.2</ele>
        <time>2025-11-11T09:11:21Z</time>
      </trkpt>
      <trkpt lat="45.69089" lon="4.71246">
        <ele>317.4</ele>
        <time>2025-11-11T09:11:22Z</time>
      </trkpt>
      <trkpt lat="45.69088" lon="4.71241">
        <ele>317.4</ele>
        <time>2025-11-11T09:11:23Z</time>
      </trkpt>
      <trkpt lat="45.69088" lon="4.71236">
        <ele>317.4</ele>
        <time>2025-11-11T09:11:24Z</time>
      </trkpt>
      <trkpt lat="45.69088" lon="4.71231">
        <ele>317.4</ele>
        <time>2025-11-11T09:11:25Z</time>
      </trkpt>
      <trkpt lat="45.69089" lon="4.71226">
        <ele>317.4</ele>
        <time>2025-11-11T09:11:26Z</time>
      </trkpt>
      <trkpt lat="45.69089" lon="4.71221">
        <ele>317.4</ele>
        <time>2025-11-11T09:11:27Z</time>
      </trkpt>
      <trkpt lat="45.6909" lon="4.71216">
        <ele>317.4</ele>
        <time>2025-11-11T09:11:28Z</time>
      </trkpt>
      <trkpt lat="45.69091" lon="4.71211">
        <ele>317.6</ele>
        <time>2025-11-11T09:11:29Z</time>
      </trkpt>
      <trkpt lat="45.69091" lon="4.71206">
        <ele>317.6</ele>
        <time>2025-11-11T09:11:30Z</time>
      </trkpt>
      <trkpt lat="45.69092" lon="4.71201">
        <ele>317.6</ele>
        <time>2025-11-11T09:11:31Z</time>
      </trkpt>
      <trkpt lat="45.69093" lon="4.71196">
        <ele>317.8</ele>
        <time>2025-11-11T09:11:32Z</time>
      </trkpt>
      <trkpt lat="45.69093" lon="4.71191">
        <ele>317.8</ele>
        <time>2025-11-11T09:11:33Z</time>
      </trkpt>
      <trkpt lat="45.69094" lon="4.71186">
        <ele>318</ele>
        <time>2025-11-11T09:11:34Z</time>
      </trkpt>
      <trkpt lat="45.69095" lon="4.71181">
        <ele>318</ele>
        <time>2025-11-11T09:11:35Z</time>
      </trkpt>
      <trkpt lat="45.69095" lon="4.71176">
        <ele>318</ele>
        <time>2025-11-11T09:11:36Z</time>
      </trkpt>
      <trkpt lat="45.69094" lon="4.71171">
        <ele>318</ele>
        <time>2025-11-11T09:11:37Z</time>
      </trkpt>
      <trkpt lat="45.69092" lon="4.71167">
        <ele>318.2</ele>
        <time>2025-11-11T09:11:38Z</time>
      </trkpt>
      <trkpt lat="45.69089" lon="4.71164">
        <ele>318.2</ele>
        <time>2025-11-11T09:11:39Z</time>
      </trkpt>
      <trkpt lat="45.69085" lon="4.71162">
        <ele>318.2</ele>
        <time>2025-11-11T09:11:40Z</time>
      </trkpt>
      <trkpt lat="45.69081" lon="4.7116">
        <ele>318.2</ele>
        <time>2025-11-11T09:11:41Z</time>
      </trkpt>
      <trkpt lat="45.69077" lon="4.71158">
        <ele>318.4</ele>
        <time>2025-11-11T09:11:42Z</time>
      </trkpt>
      <trkpt lat="45.69073" lon="4.71156">
        <ele>318.4</ele>
        <time>2025-11-11T09:11:43Z</time>
      </trkpt>
      <trkpt lat="45.69069" lon="4.71153">
        <ele>318.4</ele>
        <time>2025-11-11T09:11:44Z</time>
      </trkpt>
      <trkpt lat="45.69065" lon="4.71151">
        <ele>318.4</ele>
        <time>2025-11-11T09:11:45Z</time>
      </trkpt>
      <trkpt lat="45.69062" lon="4.71149">
        <ele>318.4</ele>
        <time>2025-11-11T09:11:46Z</time>
      </trkpt>
      <trkpt lat="45.69058" lon="4.71147">
        <ele>318.6</ele>
        <time>2025-11-11T09:11:47Z</time>
      </trkpt>
      <trkpt lat="45.69055" lon="4.71144">
        <ele>319</ele>
        <time>2025-11-11T09:11:48Z</time>
      </trkpt>
      <trkpt lat="45.69051" lon="4.71141">
        <ele>319.2</ele>
        <time>2025-11-11T09:11:49Z</time>
      </trkpt>
      <trkpt lat="45.69047" lon="4.71139">
        <ele>319.4</ele>
        <time>2025-11-11T09:11:50Z</time>
      </trkpt>
      <trkpt lat="45.69043" lon="4.71137">
        <ele>319.2</ele>
        <time>2025-11-11T09:11:51Z</time>
      </trkpt>
      <trkpt lat="45.69039" lon="4.71134">
        <ele>319.2</ele>
        <time>2025-11-11T09:11:52Z</time>
      </trkpt>
      <trkpt lat="45.69035" lon="4.71132">
        <ele>319</ele>
        <time>2025-11-11T09:11:53Z</time>
      </trkpt>
      <trkpt lat="45.69031" lon="4.71129">
        <ele>318.8</ele>
        <time>2025-11-11T09:11:54Z</time>
      </trkpt>
      <trkpt lat="45.69027" lon="4.71127">
        <ele>319</ele>
        <time>2025-11-11T09:11:55Z</time>
      </trkpt>
      <trkpt lat="45.69024" lon="4.71125">
        <ele>319.2</ele>
        <time>2025-11-11T09:11:56Z</time>
      </trkpt>
      <trkpt lat="45.6902" lon="4.71122">
        <ele>319.2</ele>
        <time>2025-11-11T09:11:57Z</time>
      </trkpt>
      <trkpt lat="45.69016" lon="4.7112">
        <ele>319.4</ele>
        <time>2025-11-11T09:11:58Z</time>
      </trkpt>
      <trkpt lat="45.69011" lon="4.71118">
        <ele>319.4</ele>
        <time>2025-11-11T09:11:59Z</time>
      </trkpt>
      <trkpt lat="45.69008" lon="4.71116">
        <ele>319.6</ele>
        <time>2025-11-11T09:12:00Z</time>
      </trkpt>
      <trkpt lat="45.69004" lon="4.71113">
        <ele>319.6</ele>
        <time>2025-11-11T09:12:01Z</time>
      </trkpt>
      <trkpt lat="45.69" lon="4.71112">
        <ele>319.8</ele>
        <time>2025-11-11T09:12:02Z</time>
      </trkpt>
      <trkpt lat="45.68996" lon="4.7111">
        <ele>319.8</ele>
        <time>2025-11-11T09:12:03Z</time>
      </trkpt>
      <trkpt lat="45.68992" lon="4.71107">
        <ele>319.8</ele>
        <time>2025-11-11T09:12:04Z</time>
      </trkpt>
      <trkpt lat="45.68988" lon="4.71105">
        <ele>320</ele>
        <time>2025-11-11T09:12:05Z</time>
      </trkpt>
      <trkpt lat="45.68984" lon="4.71103">
        <ele>320</ele>
        <time>2025-11-11T09:12:06Z</time>
      </trkpt>
      <trkpt lat="45.6898" lon="4.71101">
        <ele>320.2</ele>
        <time>2025-11-11T09:12:07Z</time>
      </trkpt>
      <trkpt lat="45.68976" lon="4.71099">
        <ele>320.2</ele>
        <time>2025-11-11T09:12:08Z</time>
      </trkpt>
      <trkpt lat="45.68972" lon="4.71096">
        <ele>320.4</ele>
        <time>2025-11-11T09:12:09Z</time>
      </trkpt>
      <trkpt lat="45.68968" lon="4.71094">
        <ele>320.4</ele>
        <time>2025-11-11T09:12:10Z</time>
      </trkpt>
      <trkpt lat="45.68965" lon="4.71091">
        <ele>320.4</ele>
        <time>2025-11-11T09:12:11Z</time>
      </trkpt>
      <trkpt lat="45.68961" lon="4.71087">
        <ele>320.6</ele>
        <time>2025-11-11T09:12:12Z</time>
      </trkpt>
      <trkpt lat="45.68957" lon="4.71084">
        <ele>320.6</ele>
        <time>2025-11-11T09:12:13Z</time>
      </trkpt>
      <trkpt lat="45.68953" lon="4.7108">
        <ele>320.4</ele>
        <time>2025-11-11T09:12:14Z</time>
      </trkpt>
      <trkpt lat="45.68949" lon="4.71077">
        <ele>320.4</ele>
        <time>2025-11-11T09:12:15Z</time>
      </trkpt>
      <trkpt lat="45.68945" lon="4.71074">
        <ele>320.4</ele>
        <time>2025-11-11T09:12:16Z</time>
      </trkpt>
      <trkpt lat="45.68941" lon="4.7107">
        <ele>320.2</ele>
        <time>2025-11-11T09:12:17Z</time>
      </trkpt>
      <trkpt lat="45.68937" lon="4.71067">
        <ele>320.2</ele>
        <time>2025-11-11T09:12:18Z</time>
      </trkpt>
      <trkpt lat="45.68932" lon="4.71063">
        <ele>320.2</ele>
        <time>2025-11-11T09:12:19Z</time>
      </trkpt>
      <trkpt lat="45.68928" lon="4.7106">
        <ele>320.2</ele>
        <time>2025-11-11T09:12:20Z</time>
      </trkpt>
      <trkpt lat="45.68924" lon="4.71056">
        <ele>320</ele>
        <time>2025-11-11T09:12:21Z</time>
      </trkpt>
      <trkpt lat="45.68919" lon="4.71053">
        <ele>320</ele>
        <time>2025-11-11T09:12:22Z</time>
      </trkpt>
      <trkpt lat="45.68915" lon="4.71049">
        <ele>320</ele>
        <time>2025-11-11T09:12:23Z</time>
      </trkpt>
      <trkpt lat="45.68911" lon="4.71046">
        <ele>320</ele>
        <time>2025-11-11T09:12:24Z</time>
      </trkpt>
      <trkpt lat="45.68906" lon="4.71042">
        <ele>320</ele>
        <time>2025-11-11T09:12:25Z</time>
      </trkpt>
      <trkpt lat="45.68902" lon="4.71038">
        <ele>319.8</ele>
        <time>2025-11-11T09:12:26Z</time>
      </trkpt>
      <trkpt lat="45.68898" lon="4.71035">
        <ele>320</ele>
        <time>2025-11-11T09:12:27Z</time>
      </trkpt>
      <trkpt lat="45.68894" lon="4.71031">
        <ele>320</ele>
        <time>2025-11-11T09:12:28Z</time>
      </trkpt>
      <trkpt lat="45.6889" lon="4.71028">
        <ele>320</ele>
        <time>2025-11-11T09:12:29Z</time>
      </trkpt>
      <trkpt lat="45.68885" lon="4.71024">
        <ele>320</ele>
        <time>2025-11-11T09:12:30Z</time>
      </trkpt>
      <trkpt lat="45.68881" lon="4.7102">
        <ele>320</ele>
        <time>2025-11-11T09:12:31Z</time>
      </trkpt>
      <trkpt lat="45.68877" lon="4.71017">
        <ele>320</ele>
        <time>2025-11-11T09:12:32Z</time>
      </trkpt>
      <trkpt lat="45.68873" lon="4.71013">
        <ele>320.2</ele>
        <time>2025-11-11T09:12:33Z</time>
      </trkpt>
      <trkpt lat="45.68869" lon="4.7101">
        <ele>320.2</ele>
        <time>2025-11-11T09:12:34Z</time>
      </trkpt>
      <trkpt lat="45.68865" lon="4.71007">
        <ele>320.2</ele>
        <time>2025-11-11T09:12:35Z</time>
      </trkpt>
      <trkpt lat="45.6886" lon="4.71004">
        <ele>320.4</ele>
        <time>2025-11-11T09:12:36Z</time>
      </trkpt>
      <trkpt lat="45.68856" lon="4.71001">
        <ele>320.4</ele>
        <time>2025-11-11T09:12:37Z</time>
      </trkpt>
      <trkpt lat="45.68852" lon="4.70998">
        <ele>320.4</ele>
        <time>2025-11-11T09:12:38Z</time>
      </trkpt>
      <trkpt lat="45.68847" lon="4.70995">
        <ele>320.6</ele>
        <time>2025-11-11T09:12:39Z</time>
      </trkpt>
      <trkpt lat="45.68843" lon="4.70993">
        <ele>320.6</ele>
        <time>2025-11-11T09:12:40Z</time>
      </trkpt>
      <trkpt lat="45.68839" lon="4.7099">
        <ele>320.8</ele>
        <time>2025-11-11T09:12:41Z</time>
      </trkpt>
      <trkpt lat="45.68834" lon="4.70988">
        <ele>320.8</ele>
        <time>2025-11-11T09:12:42Z</time>
      </trkpt>
      <trkpt lat="45.6883" lon="4.70986">
        <ele>321</ele>
        <time>2025-11-11T09:12:43Z</time>
      </trkpt>
      <trkpt lat="45.68826" lon="4.70984">
        <ele>321</ele>
        <time>2025-11-11T09:12:44Z</time>
      </trkpt>
      <trkpt lat="45.68821" lon="4.70982">
        <ele>321.2</ele>
        <time>2025-11-11T09:12:45Z</time>
      </trkpt>
      <trkpt lat="45.68817" lon="4.7098">
        <ele>321.2</ele>
        <time>2025-11-11T09:12:46Z</time>
      </trkpt>
      <trkpt lat="45.68813" lon="4.70979">
        <ele>321.4</ele>
        <time>2025-11-11T09:12:47Z</time>
      </trkpt>
      <trkpt lat="45.68809" lon="4.70977">
        <ele>321.4</ele>
        <time>2025-11-11T09:12:48Z</time>
      </trkpt>
      <trkpt lat="45.68805" lon="4.70976">
        <ele>321.6</ele>
        <time>2025-11-11T09:12:49Z</time>
      </trkpt>
      <trkpt lat="45.688" lon="4.70974">
        <ele>321.8</ele>
        <time>2025-11-11T09:12:50Z</time>
      </trkpt>
      <trkpt lat="45.68796" lon="4.70973">
        <ele>321.8</ele>
        <time>2025-11-11T09:12:51Z</time>
      </trkpt>
      <trkpt lat="45.68791" lon="4.70971">
        <ele>322</ele>
        <time>2025-11-11T09:12:52Z</time>
      </trkpt>
      <trkpt lat="45.68787" lon="4.7097">
        <ele>322</ele>
        <time>2025-11-11T09:12:53Z</time>
      </trkpt>
      <trkpt lat="45.68783" lon="4.70968">
        <ele>322</ele>
        <time>2025-11-11T09:12:54Z</time>
      </trkpt>
      <trkpt lat="45.68778" lon="4.70967">
        <ele>322.2</ele>
        <time>2025-11-11T09:12:55Z</time>
      </trkpt>
      <trkpt lat="45.68774" lon="4.70965">
        <ele>322.2</ele>
        <time>2025-11-11T09:12:56Z</time>
      </trkpt>
      <trkpt lat="45.6877" lon="4.70964">
        <ele>322.4</ele>
        <time>2025-11-11T09:12:57Z</time>
      </trkpt>
      <trkpt lat="45.68766" lon="4.70962">
        <ele>322.6</ele>
        <time>2025-11-11T09:12:58Z</time>
      </trkpt>
      <trkpt lat="45.68761" lon="4.70961">
        <ele>322.6</ele>
        <time>2025-11-11T09:12:59Z</time>
      </trkpt>
      <trkpt lat="45.68757" lon="4.7096">
        <ele>322.8</ele>
        <time>2025-11-11T09:13:00Z</time>
      </trkpt>
      <trkpt lat="45.68753" lon="4.70958">
        <ele>323</ele>
        <time>2025-11-11T09:13:01Z</time>
      </trkpt>
      <trkpt lat="45.68748" lon="4.70956">
        <ele>323.2</ele>
        <time>2025-11-11T09:13:02Z</time>
      </trkpt>
      <trkpt lat="45.68744" lon="4.70955">
        <ele>323.2</ele>
        <time>2025-11-11T09:13:03Z</time>
      </trkpt>
      <trkpt lat="45.68739" lon="4.70954">
        <ele>323.4</ele>
        <time>2025-11-11T09:13:04Z</time>
      </trkpt>
      <trkpt lat="45.68735" lon="4.70952">
        <ele>323.4</ele>
        <time>2025-11-11T09:13:05Z</time>
      </trkpt>
      <trkpt lat="45.68731" lon="4.70951">
        <ele>323.6</ele>
        <time>2025-11-11T09:13:06Z</time>
      </trkpt>
      <trkpt lat="45.68726" lon="4.70949">
        <ele>323.8</ele>
        <time>2025-11-11T09:13:07Z</time>
      </trkpt>
      <trkpt lat="45.68722" lon="4.70947">
        <ele>323.8</ele>
        <time>2025-11-11T09:13:08Z</time>
      </trkpt>
      <trkpt lat="45.68718" lon="4.70945">
        <ele>323.8</ele>
        <time>2025-11-11T09:13:09Z</time>
      </trkpt>
      <trkpt lat="45.68714" lon="4.70942">
        <ele>323.8</ele>
        <time>2025-11-11T09:13:10Z</time>
      </trkpt>
      <trkpt lat="45.6871" lon="4.7094">
        <ele>324</ele>
        <time>2025-11-11T09:13:11Z</time>
      </trkpt>
      <trkpt lat="45.68707" lon="4.70938">
        <ele>324</ele>
        <time>2025-11-11T09:13:12Z</time>
      </trkpt>
      <trkpt lat="45.68704" lon="4.70935">
        <ele>324.2</ele>
        <time>2025-11-11T09:13:13Z</time>
      </trkpt>
      <trkpt lat="45.687" lon="4.70933">
        <ele>324.4</ele>
        <time>2025-11-11T09:13:14Z</time>
      </trkpt>
      <trkpt lat="45.68697" lon="4.7093">
        <ele>324.6</ele>
        <time>2025-11-11T09:13:15Z</time>
      </trkpt>
      <trkpt lat="45.68694" lon="4.70927">
        <ele>324.6</ele>
        <time>2025-11-11T09:13:16Z</time>
      </trkpt>
      <trkpt lat="45.6869" lon="4.70925">
        <ele>324.8</ele>
        <time>2025-11-11T09:13:17Z</time>
      </trkpt>
      <trkpt lat="45.68686" lon="4.70922">
        <ele>324.8</ele>
        <time>2025-11-11T09:13:18Z</time>
      </trkpt>
      <trkpt lat="45.68683" lon="4.70919">
        <ele>325</ele>
        <time>2025-11-11T09:13:19Z</time>
      </trkpt>
      <trkpt lat="45.68679" lon="4.70916">
        <ele>325</ele>
        <time>2025-11-11T09:13:20Z</time>
      </trkpt>
      <trkpt lat="45.68675" lon="4.70913">
        <ele>325</ele>
        <time>2025-11-11T09:13:21Z</time>
      </trkpt>
      <trkpt lat="45.68672" lon="4.7091">
        <ele>325</ele>
        <time>2025-11-11T09:13:22Z</time>
      </trkpt>
      <trkpt lat="45.68668" lon="4.70907">
        <ele>325</ele>
        <time>2025-11-11T09:13:23Z</time>
      </trkpt>
      <trkpt lat="45.68665" lon="4.70904">
        <ele>325</ele>
        <time>2025-11-11T09:13:24Z</time>
      </trkpt>
      <trkpt lat="45.68661" lon="4.70901">
        <ele>325</ele>
        <time>2025-11-11T09:13:25Z</time>
      </trkpt>
      <trkpt lat="45.68658" lon="4.70898">
        <ele>325.2</ele>
        <time>2025-11-11T09:13:26Z</time>
      </trkpt>
      <trkpt lat="45.68654" lon="4.70894">
        <ele>325.2</ele>
        <time>2025-11-11T09:13:27Z</time>
      </trkpt>
      <trkpt lat="45.68651" lon="4.70891">
        <ele>325.2</ele>
        <time>2025-11-11T09:13:28Z</time>
      </trkpt>
      <trkpt lat="45.68648" lon="4.70888">
        <ele>325.4</ele>
        <time>2025-11-11T09:13:29Z</time>
      </trkpt>
      <trkpt lat="45.68645" lon="4.70885">
        <ele>325.4</ele>
        <time>2025-11-11T09:13:30Z</time>
      </trkpt>
      <trkpt lat="45.68642" lon="4.70882">
        <ele>325.6</ele>
        <time>2025-11-11T09:13:31Z</time>
      </trkpt>
      <trkpt lat="45.68638" lon="4.70878">
        <ele>325.6</ele>
        <time>2025-11-11T09:13:32Z</time>
      </trkpt>
      <trkpt lat="45.68636" lon="4.70875">
        <ele>325.8</ele>
        <time>2025-11-11T09:13:33Z</time>
      </trkpt>
      <trkpt lat="45.68633" lon="4.70872">
        <ele>326</ele>
        <time>2025-11-11T09:13:34Z</time>
      </trkpt>
      <trkpt lat="45.6863" lon="4.70869">
        <ele>326</ele>
        <time>2025-11-11T09:13:35Z</time>
      </trkpt>
      <trkpt lat="45.68627" lon="4.70866">
        <ele>326.2</ele>
        <time>2025-11-11T09:13:36Z</time>
      </trkpt>
      <trkpt lat="45.68624" lon="4.70864">
        <ele>326.4</ele>
        <time>2025-11-11T09:13:37Z</time>
      </trkpt>
      <trkpt lat="45.68621" lon="4.70861">
        <ele>326.6</ele>
        <time>2025-11-11T09:13:38Z</time>
      </trkpt>
      <trkpt lat="45.68618" lon="4.70858">
        <ele>326.6</ele>
        <time>2025-11-11T09:13:39Z</time>
      </trkpt>
      <trkpt lat="45.68615" lon="4.70855">
        <ele>326.8</ele>
        <time>2025-11-11T09:13:40Z</time>
      </trkpt>
      <trkpt lat="45.68612" lon="4.70852">
        <ele>327</ele>
        <time>2025-11-11T09:13:41Z</time>
      </trkpt>
      <trkpt lat="45.68609" lon="4.70849">
        <ele>327.2</ele>
        <time>2025-11-11T09:13:42Z</time>
      </trkpt>
      <trkpt lat="45.68607" lon="4.70846">
        <ele>327.2</ele>
        <time>2025-11-11T09:13:43Z</time>
      </trkpt>
      <trkpt lat="45.68604" lon="4.70843">
        <ele>327.4</ele>
        <time>2025-11-11T09:13:44Z</time>
      </trkpt>
      <trkpt lat="45.68601" lon="4.70841">
        <ele>327.6</ele>
        <time>2025-11-11T09:13:45Z</time>
      </trkpt>
      <trkpt lat="45.68598" lon="4.70838">
        <ele>327.8</ele>
        <time>2025-11-11T09:13:46Z</time>
      </trkpt>
      <trkpt lat="45.68595" lon="4.70836">
        <ele>328</ele>
        <time>2025-11-11T09:13:47Z</time>
      </trkpt>
      <trkpt lat="45.68592" lon="4.70833">
        <ele>328.2</ele>
        <time>2025-11-11T09:13:48Z</time>
      </trkpt>
      <trkpt lat="45.68589" lon="4.7083">
        <ele>328.4</ele>
        <time>2025-11-11T09:13:49Z</time>
      </trkpt>
      <trkpt lat="45.68587" lon="4.70827">
        <ele>328.6</ele>
        <time>2025-11-11T09:13:50Z</time>
      </trkpt>
      <trkpt lat="45.68584" lon="4.70825">
        <ele>328.8</ele>
        <time>2025-11-11T09:13:51Z</time>
      </trkpt>
      <trkpt lat="45.68581" lon="4.70822">
        <ele>328.8</ele>
        <time>2025-11-11T09:13:52Z</time>
      </trkpt>
      <trkpt lat="45.68579" lon="4.70819">
        <ele>329</ele>
        <time>2025-11-11T09:13:53Z</time>
      </trkpt>
      <trkpt lat="45.68576" lon="4.70816">
        <ele>329.2</ele>
        <time>2025-11-11T09:13:54Z</time>
      </trkpt>
      <trkpt lat="45.68574" lon="4.70813">
        <ele>329.4</ele>
        <time>2025-11-11T09:13:55Z</time>
      </trkpt>
      <trkpt lat="45.68571" lon="4.7081">
        <ele>329.6</ele>
        <time>2025-11-11T09:13:56Z</time>
      </trkpt>
      <trkpt lat="45.68568" lon="4.70807">
        <ele>329.8</ele>
        <time>2025-11-11T09:13:57Z</time>
      </trkpt>
      <trkpt lat="45.68566" lon="4.70803">
        <ele>330</ele>
        <time>2025-11-11T09:13:58Z</time>
      </trkpt>
      <trkpt lat="45.68563" lon="4.708">
        <ele>330.2</ele>
        <time>2025-11-11T09:13:59Z</time>
      </trkpt>
      <trkpt lat="45.68561" lon="4.70796">
        <ele>330.4</ele>
        <time>2025-11-11T09:14:00Z</time>
      </trkpt>
      <trkpt lat="45.68559" lon="4.70793">
        <ele>330.6</ele>
        <time>2025-11-11T09:14:01Z</time>
      </trkpt>
      <trkpt lat="45.68556" lon="4.7079">
        <ele>330.8</ele>
        <time>2025-11-11T09:14:02Z</time>
      </trkpt>
      <trkpt lat="45.68554" lon="4.70787">
        <ele>331</ele>
        <time>2025-11-11T09:14:03Z</time>
      </trkpt>
      <trkpt lat="45.68552" lon="4.70784">
        <ele>331.2</ele>
        <time>2025-11-11T09:14:04Z</time>
      </trkpt>
      <trkpt lat="45.68549" lon="4.70781">
        <ele>331.4</ele>
        <time>2025-11-11T09:14:05Z</time>
      </trkpt>
      <trkpt lat="45.68547" lon="4.70777">
        <ele>331.6</ele>
        <time>2025-11-11T09:14:06Z</time>
      </trkpt>
      <trkpt lat="45.68545" lon="4.70774">
        <ele>332</ele>
        <time>2025-11-11T09:14:07Z</time>
      </trkpt>
      <trkpt lat="45.68543" lon="4.70771">
        <ele>332.2</ele>
        <time>2025-11-11T09:14:08Z</time>
      </trkpt>
      <trkpt lat="45.68541" lon="4.70768">
        <ele>332.4</ele>
        <time>2025-11-11T09:14:09Z</time>
      </trkpt>
      <trkpt lat="45.68538" lon="4.70765">
        <ele>332.6</ele>
        <time>2025-11-11T09:14:10Z</time>
      </trkpt>
      <trkpt lat="45.68536" lon="4.70762">
        <ele>333</ele>
        <time>2025-11-11T09:14:11Z</time>
      </trkpt>
      <trkpt lat="45.68534" lon="4.70758">
        <ele>333.2</ele>
        <time>2025-11-11T09:14:12Z</time>
      </trkpt>
      <trkpt lat="45.68532" lon="4.70755">
        <ele>333.4</ele>
        <time>2025-11-11T09:14:13Z</time>
      </trkpt>
      <trkpt lat="45.68529" lon="4.70753">
        <ele>333.8</ele>
        <time>2025-11-11T09:14:14Z</time>
      </trkpt>
      <trkpt lat="45.68527" lon="4.7075">
        <ele>334</ele>
        <time>2025-11-11T09:14:15Z</time>
      </trkpt>
      <trkpt lat="45.68524" lon="4.70747">
        <ele>334.2</ele>
        <time>2025-11-11T09:14:16Z</time>
      </trkpt>
      <trkpt lat="45.68522" lon="4.70744">
        <ele>334.4</ele>
        <time>2025-11-11T09:14:17Z</time>
      </trkpt>
      <trkpt lat="45.6852" lon="4.70741">
        <ele>334.6</ele>
        <time>2025-11-11T09:14:18Z</time>
      </trkpt>
      <trkpt lat="45.68518" lon="4.70738">
        <ele>334.8</ele>
        <time>2025-11-11T09:14:19Z</time>
      </trkpt>
      <trkpt lat="45.68516" lon="4.70735">
        <ele>335.2</ele>
        <time>2025-11-11T09:14:20Z</time>
      </trkpt>
      <trkpt lat="45.68514" lon="4.70732">
        <ele>335.4</ele>
        <time>2025-11-11T09:14:21Z</time>
      </trkpt>
      <trkpt lat="45.68512" lon="4.70729">
        <ele>335.6</ele>
        <time>2025-11-11T09:14:22Z</time>
      </trkpt>
      <trkpt lat="45.6851" lon="4.70726">
        <ele>335.8</ele>
        <time>2025-11-11T09:14:23Z</time>
      </trkpt>
      <trkpt lat="45.68508" lon="4.70723">
        <ele>336.2</ele>
        <time>2025-11-11T09:14:24Z</time>
      </trkpt>
      <trkpt lat="45.68506" lon="4.70721">
        <ele>336.4</ele>
        <time>2025-11-11T09:14:25Z</time>
      </trkpt>
      <trkpt lat="45.68504" lon="4.70718">
        <ele>336.8</ele>
        <time>2025-11-11T09:14:26Z</time>
      </trkpt>
      <trkpt lat="45.68502" lon="4.70716">
        <ele>337</ele>
        <time>2025-11-11T09:14:27Z</time>
      </trkpt>
      <trkpt lat="45.685" lon="4.70714">
        <ele>337.2</ele>
        <time>2025-11-11T09:14:28Z</time>
      </trkpt>
      <trkpt lat="45.68498" lon="4.70711">
        <ele>337.4</ele>
        <time>2025-11-11T09:14:29Z</time>
      </trkpt>
      <trkpt lat="45.68496" lon="4.70708">
        <ele>337.6</ele>
        <time>2025-11-11T09:14:30Z</time>
      </trkpt>
      <trkpt lat="45.68494" lon="4.70705">
        <ele>337.8</ele>
        <time>2025-11-11T09:14:31Z</time>
      </trkpt>
      <trkpt lat="45.68492" lon="4.70702">
        <ele>338</ele>
        <time>2025-11-11T09:14:32Z</time>
      </trkpt>
      <trkpt lat="45.68489" lon="4.70699">
        <ele>338.4</ele>
        <time>2025-11-11T09:14:33Z</time>
      </trkpt>
      <trkpt lat="45.68487" lon="4.70696">
        <ele>338.6</ele>
        <time>2025-11-11T09:14:34Z</time>
      </trkpt>
      <trkpt lat="45.68485" lon="4.70693">
        <ele>338.8</ele>
        <time>2025-11-11T09:14:35Z</time>
      </trkpt>
      <trkpt lat="45.68483" lon="4.7069">
        <ele>338.8</ele>
        <time>2025-11-11T09:14:36Z</time>
      </trkpt>
      <trkpt lat="45.6848" lon="4.70687">
        <ele>339</ele>
        <time>2025-11-11T09:14:37Z</time>
      </trkpt>
      <trkpt lat="45.68478" lon="4.70685">
        <ele>339.2</ele>
        <time>2025-11-11T09:14:38Z</time>
      </trkpt>
      <trkpt lat="45.68476" lon="4.70682">
        <ele>339.4</ele>
        <time>2025-11-11T09:14:39Z</time>
      </trkpt>
      <trkpt lat="45.68474" lon="4.70678">
        <ele>339.6</ele>
        <time>2025-11-11T09:14:40Z</time>
      </trkpt>
      <trkpt lat="45.68472" lon="4.70675">
        <ele>339.8</ele>
        <time>2025-11-11T09:14:41Z</time>
      </trkpt>
      <trkpt lat="45.6847" lon="4.70672">
        <ele>340.2</ele>
        <time>2025-11-11T09:14:42Z</time>
      </trkpt>
      <trkpt lat="45.68468" lon="4.70668">
        <ele>340.4</ele>
        <time>2025-11-11T09:14:43Z</time>
      </trkpt>
      <trkpt lat="45.68467" lon="4.70664">
        <ele>340.6</ele>
        <time>2025-11-11T09:14:44Z</time>
      </trkpt>
      <trkpt lat="45.68466" lon="4.7066">
        <ele>341</ele>
        <time>2025-11-11T09:14:45Z</time>
      </trkpt>
      <trkpt lat="45.68464" lon="4.70657">
        <ele>341.2</ele>
        <time>2025-11-11T09:14:46Z</time>
      </trkpt>
      <trkpt lat="45.68463" lon="4.70653">
        <ele>341.4</ele>
        <time>2025-11-11T09:14:47Z</time>
      </trkpt>
      <trkpt lat="45.68461" lon="4.70649">
        <ele>341.6</ele>
        <time>2025-11-11T09:14:48Z</time>
      </trkpt>
      <trkpt lat="45.68459" lon="4.70646">
        <ele>341.8</ele>
        <time>2025-11-11T09:14:49Z</time>
      </trkpt>
      <trkpt lat="45.68456" lon="4.70644">
        <ele>342</ele>
        <time>2025-11-11T09:14:50Z</time>
      </trkpt>
      <trkpt lat="45.68453" lon="4.70641">
        <ele>342.2</ele>
        <time>2025-11-11T09:14:51Z</time>
      </trkpt>
      <trkpt lat="45.6845" lon="4.7064">
        <ele>342.2</ele>
        <time>2025-11-11T09:14:52Z</time>
      </trkpt>
      <trkpt lat="45.68447" lon="4.70637">
        <ele>342.4</ele>
        <time>2025-11-11T09:14:53Z</time>
      </trkpt>
      <trkpt lat="45.68445" lon="4.70635">
        <ele>342.6</ele>
        <time>2025-11-11T09:14:54Z</time>
      </trkpt>
      <trkpt lat="45.68442" lon="4.70632">
        <ele>342.6</ele>
        <time>2025-11-11T09:14:55Z</time>
      </trkpt>
      <trkpt lat="45.6844" lon="4.70629">
        <ele>342.8</ele>
        <time>2025-11-11T09:14:56Z</time>
      </trkpt>
      <trkpt lat="45.68437" lon="4.70626">
        <ele>342.8</ele>
        <time>2025-11-11T09:14:57Z</time>
      </trkpt>
      <trkpt lat="45.68435" lon="4.70622">
        <ele>343</ele>
        <time>2025-11-11T09:14:58Z</time>
      </trkpt>
      <trkpt lat="45.68433" lon="4.70619">
        <ele>343.2</ele>
        <time>2025-11-11T09:14:59Z</time>
      </trkpt>
      <trkpt lat="45.6843" lon="4.70614">
        <ele>343.2</ele>
        <time>2025-11-11T09:15:00Z</time>
      </trkpt>
      <trkpt lat="45.68428" lon="4.7061">
        <ele>343.4</ele>
        <time>2025-11-11T09:15:01Z</time>
      </trkpt>
      <trkpt lat="45.68425" lon="4.70606">
        <ele>343.4</ele>
        <time>2025-11-11T09:15:02Z</time>
      </trkpt>
      <trkpt lat="45.68423" lon="4.70602">
        <ele>343.4</ele>
        <time>2025-11-11T09:15:03Z</time>
      </trkpt>
      <trkpt lat="45.6842" lon="4.70598">
        <ele>343.6</ele>
        <time>2025-11-11T09:15:04Z</time>
      </trkpt>
      <trkpt lat="45.68417" lon="4.70594">
        <ele>343.6</ele>
        <time>2025-11-11T09:15:05Z</time>
      </trkpt>
      <trkpt lat="45.68415" lon="4.70589">
        <ele>343.6</ele>
        <time>2025-11-11T09:15:06Z</time>
      </trkpt>
      <trkpt lat="45.68412" lon="4.70585">
        <ele>343.8</ele>
        <time>2025-11-11T09:15:07Z</time>
      </trkpt>
      <trkpt lat="45.68409" lon="4.70581">
        <ele>343.8</ele>
        <time>2025-11-11T09:15:08Z</time>
      </trkpt>
      <trkpt lat="45.68406" lon="4.70578">
        <ele>344</ele>
        <time>2025-11-11T09:15:09Z</time>
      </trkpt>
      <trkpt lat="45.68404" lon="4.70574">
        <ele>344</ele>
        <time>2025-11-11T09:15:10Z</time>
      </trkpt>
      <trkpt lat="45.68401" lon="4.7057">
        <ele>344.2</ele>
        <time>2025-11-11T09:15:11Z</time>
      </trkpt>
      <trkpt lat="45.68399" lon="4.70566">
        <ele>344.4</ele>
        <time>2025-11-11T09:15:12Z</time>
      </trkpt>
      <trkpt lat="45.68396" lon="4.70562">
        <ele>344.4</ele>
        <time>2025-11-11T09:15:13Z</time>
      </trkpt>
      <trkpt lat="45.68394" lon="4.70558">
        <ele>344.6</ele>
        <time>2025-11-11T09:15:14Z</time>
      </trkpt>
      <trkpt lat="45.68391" lon="4.70555">
        <ele>344.8</ele>
        <time>2025-11-11T09:15:15Z</time>
      </trkpt>
      <trkpt lat="45.68388" lon="4.70552">
        <ele>344.8</ele>
        <time>2025-11-11T09:15:16Z</time>
      </trkpt>
      <trkpt lat="45.68385" lon="4.70549">
        <ele>345</ele>
        <time>2025-11-11T09:15:17Z</time>
      </trkpt>
      <trkpt lat="45.68383" lon="4.70545">
        <ele>345.2</ele>
        <time>2025-11-11T09:15:18Z</time>
      </trkpt>
      <trkpt lat="45.6838" lon="4.70542">
        <ele>345.4</ele>
        <time>2025-11-11T09:15:19Z</time>
      </trkpt>
      <trkpt lat="45.68377" lon="4.70539">
        <ele>345.6</ele>
        <time>2025-11-11T09:15:20Z</time>
      </trkpt>
      <trkpt lat="45.68374" lon="4.70535">
        <ele>345.6</ele>
        <time>2025-11-11T09:15:21Z</time>
      </trkpt>
      <trkpt lat="45.6837" lon="4.70532">
        <ele>345.8</ele>
        <time>2025-11-11T09:15:22Z</time>
      </trkpt>
      <trkpt lat="45.68367" lon="4.70528">
        <ele>346</ele>
        <time>2025-11-11T09:15:23Z</time>
      </trkpt>
      <trkpt lat="45.68363" lon="4.70525">
        <ele>346</ele>
        <time>2025-11-11T09:15:24Z</time>
      </trkpt>
      <trkpt lat="45.6836" lon="4.70522">
        <ele>346</ele>
        <time>2025-11-11T09:15:25Z</time>
      </trkpt>
      <trkpt lat="45.68356" lon="4.70518">
        <ele>346</ele>
        <time>2025-11-11T09:15:26Z</time>
      </trkpt>
      <trkpt lat="45.68353" lon="4.70513">
        <ele>346.2</ele>
        <time>2025-11-11T09:15:27Z</time>
      </trkpt>
      <trkpt lat="45.6835" lon="4.70509">
        <ele>346.2</ele>
        <time>2025-11-11T09:15:28Z</time>
      </trkpt>
      <trkpt lat="45.68347" lon="4.70505">
        <ele>346.2</ele>
        <time>2025-11-11T09:15:29Z</time>
      </trkpt>
      <trkpt lat="45.68345" lon="4.705">
        <ele>346.2</ele>
        <time>2025-11-11T09:15:30Z</time>
      </trkpt>
      <trkpt lat="45.68342" lon="4.70495">
        <ele>346.2</ele>
        <time>2025-11-11T09:15:31Z</time>
      </trkpt>
      <trkpt lat="45.68339" lon="4.7049">
        <ele>346.2</ele>
        <time>2025-11-11T09:15:32Z</time>
      </trkpt>
      <trkpt lat="45.68336" lon="4.70485">
        <ele>346.2</ele>
        <time>2025-11-11T09:15:33Z</time>
      </trkpt>
      <trkpt lat="45.68334" lon="4.7048">
        <ele>346.2</ele>
        <time>2025-11-11T09:15:34Z</time>
      </trkpt>
      <trkpt lat="45.68331" lon="4.70476">
        <ele>346.2</ele>
        <time>2025-11-11T09:15:35Z</time>
      </trkpt>
      <trkpt lat="45.68328" lon="4.7047">
        <ele>346.2</ele>
        <time>2025-11-11T09:15:36Z</time>
      </trkpt>
      <trkpt lat="45.68326" lon="4.70465">
        <ele>346.2</ele>
        <time>2025-11-11T09:15:37Z</time>
      </trkpt>
      <trkpt lat="45.68323" lon="4.7046">
        <ele>346.2</ele>
        <time>2025-11-11T09:15:38Z</time>
      </trkpt>
      <trkpt lat="45.6832" lon="4.70455">
        <ele>346.2</ele>
        <time>2025-11-11T09:15:39Z</time>
      </trkpt>
      <trkpt lat="45.68317" lon="4.7045">
        <ele>346.2</ele>
        <time>2025-11-11T09:15:40Z</time>
      </trkpt>
      <trkpt lat="45.68314" lon="4.70445">
        <ele>346.2</ele>
        <time>2025-11-11T09:15:41Z</time>
      </trkpt>
      <trkpt lat="45.6831" lon="4.7044">
        <ele>346</ele>
        <time>2025-11-11T09:15:42Z</time>
      </trkpt>
      <trkpt lat="45.68306" lon="4.70434">
        <ele>345.8</ele>
        <time>2025-11-11T09:15:43Z</time>
      </trkpt>
      <trkpt lat="45.68302" lon="4.70428">
        <ele>345.4</ele>
        <time>2025-11-11T09:15:44Z</time>
      </trkpt>
      <trkpt lat="45.68297" lon="4.70422">
        <ele>345</ele>
        <time>2025-11-11T09:15:45Z</time>
      </trkpt>
      <trkpt lat="45.68293" lon="4.70416">
        <ele>344.4</ele>
        <time>2025-11-11T09:15:46Z</time>
      </trkpt>
      <trkpt lat="45.68288" lon="4.70409">
        <ele>344</ele>
        <time>2025-11-11T09:15:47Z</time>
      </trkpt>
      <trkpt lat="45.68283" lon="4.70403">
        <ele>343.4</ele>
        <time>2025-11-11T09:15:48Z</time>
      </trkpt>
      <trkpt lat="45.68277" lon="4.70397">
        <ele>343</ele>
        <time>2025-11-11T09:15:49Z</time>
      </trkpt>
      <trkpt lat="45.68271" lon="4.70391">
        <ele>342.4</ele>
        <time>2025-11-11T09:15:50Z</time>
      </trkpt>
      <trkpt lat="45.68265" lon="4.70386">
        <ele>342</ele>
        <time>2025-11-11T09:15:51Z</time>
      </trkpt>
      <trkpt lat="45.6826" lon="4.7038">
        <ele>341.6</ele>
        <time>2025-11-11T09:15:52Z</time>
      </trkpt>
      <trkpt lat="45.68255" lon="4.70373">
        <ele>341.4</ele>
        <time>2025-11-11T09:15:53Z</time>
      </trkpt>
      <trkpt lat="45.6825" lon="4.70367">
        <ele>341.2</ele>
        <time>2025-11-11T09:15:54Z</time>
      </trkpt>
      <trkpt lat="45.68246" lon="4.70361">
        <ele>341.2</ele>
        <time>2025-11-11T09:15:55Z</time>
      </trkpt>
      <trkpt lat="45.68241" lon="4.70355">
        <ele>341.2</ele>
        <time>2025-11-11T09:15:56Z</time>
      </trkpt>
      <trkpt lat="45.68237" lon="4.70349">
        <ele>341.2</ele>
        <time>2025-11-11T09:15:57Z</time>
      </trkpt>
      <trkpt lat="45.68234" lon="4.70343">
        <ele>341.2</ele>
        <time>2025-11-11T09:15:58Z</time>
      </trkpt>
      <trkpt lat="45.68232" lon="4.70336">
        <ele>341.4</ele>
        <time>2025-11-11T09:15:59Z</time>
      </trkpt>
      <trkpt lat="45.68232" lon="4.70329">
        <ele>341.6</ele>
        <time>2025-11-11T09:16:00Z</time>
      </trkpt>
      <trkpt lat="45.68233" lon="4.70323">
        <ele>341.8</ele>
        <time>2025-11-11T09:16:01Z</time>
      </trkpt>
      <trkpt lat="45.68235" lon="4.70318">
        <ele>342</ele>
        <time>2025-11-11T09:16:02Z</time>
      </trkpt>
      <trkpt lat="45.68238" lon="4.70315">
        <ele>342.4</ele>
        <time>2025-11-11T09:16:03Z</time>
      </trkpt>
      <trkpt lat="45.68242" lon="4.70313">
        <ele>342.6</ele>
        <time>2025-11-11T09:16:04Z</time>
      </trkpt>
      <trkpt lat="45.68246" lon="4.70312">
        <ele>343</ele>
        <time>2025-11-11T09:16:05Z</time>
      </trkpt>
      <trkpt lat="45.68249" lon="4.70311">
        <ele>343.2</ele>
        <time>2025-11-11T09:16:06Z</time>
      </trkpt>
      <trkpt lat="45.68253" lon="4.70309">
        <ele>343.6</ele>
        <time>2025-11-11T09:16:07Z</time>
      </trkpt>
      <trkpt lat="45.68256" lon="4.70305">
        <ele>343.8</ele>
        <time>2025-11-11T09:16:08Z</time>
      </trkpt>
      <trkpt lat="45.68259" lon="4.70301">
        <ele>344</ele>
        <time>2025-11-11T09:16:09Z</time>
      </trkpt>
      <trkpt lat="45.68261" lon="4.70296">
        <ele>344.2</ele>
        <time>2025-11-11T09:16:10Z</time>
      </trkpt>
      <trkpt lat="45.68262" lon="4.70291">
        <ele>344.4</ele>
        <time>2025-11-11T09:16:11Z</time>
      </trkpt>
      <trkpt lat="45.68264" lon="4.70287">
        <ele>344.6</ele>
        <time>2025-11-11T09:16:12Z</time>
      </trkpt>
      <trkpt lat="45.68265" lon="4.70282">
        <ele>345</ele>
        <time>2025-11-11T09:16:13Z</time>
      </trkpt>
      <trkpt lat="45.68267" lon="4.70277">
        <ele>345.2</ele>
        <time>2025-11-11T09:16:14Z</time>
      </trkpt>
      <trkpt lat="45.68269" lon="4.70272">
        <ele>345.4</ele>
        <time>2025-11-11T09:16:15Z</time>
      </trkpt>
      <trkpt lat="45.6827" lon="4.70267">
        <ele>345.8</ele>
        <time>2025-11-11T09:16:16Z</time>
      </trkpt>
      <trkpt lat="45.68272" lon="4.70262">
        <ele>346</ele>
        <time>2025-11-11T09:16:17Z</time>
      </trkpt>
      <trkpt lat="45.68273" lon="4.70257">
        <ele>346.2</ele>
        <time>2025-11-11T09:16:18Z</time>
      </trkpt>
      <trkpt lat="45.68275" lon="4.70252">
        <ele>346.6</ele>
        <time>2025-11-11T09:16:19Z</time>
      </trkpt>
      <trkpt lat="45.68277" lon="4.70248">
        <ele>346.8</ele>
        <time>2025-11-11T09:16:20Z</time>
      </trkpt>
      <trkpt lat="45.68278" lon="4.70243">
        <ele>347.2</ele>
        <time>2025-11-11T09:16:21Z</time>
      </trkpt>
      <trkpt lat="45.68279" lon="4.70238">
        <ele>347.4</ele>
        <time>2025-11-11T09:16:22Z</time>
      </trkpt>
      <trkpt lat="45.6828" lon="4.70233">
        <ele>347.6</ele>
        <time>2025-11-11T09:16:23Z</time>
      </trkpt>
      <trkpt lat="45.68281" lon="4.70228">
        <ele>347.8</ele>
        <time>2025-11-11T09:16:24Z</time>
      </trkpt>
      <trkpt lat="45.68281" lon="4.70223">
        <ele>348</ele>
        <time>2025-11-11T09:16:25Z</time>
      </trkpt>
      <trkpt lat="45.68281" lon="4.70217">
        <ele>348.2</ele>
        <time>2025-11-11T09:16:26Z</time>
      </trkpt>
      <trkpt lat="45.68281" lon="4.70212">
        <ele>348.2</ele>
        <time>2025-11-11T09:16:27Z</time>
      </trkpt>
      <trkpt lat="45.68281" lon="4.70206">
        <ele>348.4</ele>
        <time>2025-11-11T09:16:28Z</time>
      </trkpt>
      <trkpt lat="45.68281" lon="4.702">
        <ele>348.6</ele>
        <time>2025-11-11T09:16:29Z</time>
      </trkpt>
      <trkpt lat="45.68281" lon="4.70194">
        <ele>349</ele>
        <time>2025-11-11T09:16:30Z</time>
      </trkpt>
      <trkpt lat="45.68281" lon="4.70189">
        <ele>349.2</ele>
        <time>2025-11-11T09:16:31Z</time>
      </trkpt>
      <trkpt lat="45.68281" lon="4.70183">
        <ele>349.4</ele>
        <time>2025-11-11T09:16:32Z</time>
      </trkpt>
      <trkpt lat="45.68282" lon="4.70178">
        <ele>349.6</ele>
        <time>2025-11-11T09:16:33Z</time>
      </trkpt>
      <trkpt lat="45.68284" lon="4.70172">
        <ele>349.6</ele>
        <time>2025-11-11T09:16:34Z</time>
      </trkpt>
      <trkpt lat="45.68286" lon="4.70167">
        <ele>349.8</ele>
        <time>2025-11-11T09:16:35Z</time>
      </trkpt>
      <trkpt lat="45.68289" lon="4.70162">
        <ele>349.8</ele>
        <time>2025-11-11T09:16:36Z</time>
      </trkpt>
      <trkpt lat="45.68291" lon="4.70157">
        <ele>349.8</ele>
        <time>2025-11-11T09:16:37Z</time>
      </trkpt>
      <trkpt lat="45.68293" lon="4.70151">
        <ele>349.8</ele>
        <time>2025-11-11T09:16:38Z</time>
      </trkpt>
      <trkpt lat="45.68295" lon="4.70145">
        <ele>349.6</ele>
        <time>2025-11-11T09:16:39Z</time>
      </trkpt>
      <trkpt lat="45.68297" lon="4.70139">
        <ele>349.6</ele>
        <time>2025-11-11T09:16:40Z</time>
      </trkpt>
      <trkpt lat="45.683" lon="4.70133">
        <ele>349.4</ele>
        <time>2025-11-11T09:16:41Z</time>
      </trkpt>
      <trkpt lat="45.68302" lon="4.70126">
        <ele>349.4</ele>
        <time>2025-11-11T09:16:42Z</time>
      </trkpt>
      <trkpt lat="45.68305" lon="4.7012">
        <ele>349.4</ele>
        <time>2025-11-11T09:16:43Z</time>
      </trkpt>
      <trkpt lat="45.68307" lon="4.70114">
        <ele>349.4</ele>
        <time>2025-11-11T09:16:44Z</time>
      </trkpt>
      <trkpt lat="45.6831" lon="4.70109">
        <ele>349.4</ele>
        <time>2025-11-11T09:16:45Z</time>
      </trkpt>
      <trkpt lat="45.68314" lon="4.70103">
        <ele>349.4</ele>
        <time>2025-11-11T09:16:46Z</time>
      </trkpt>
      <trkpt lat="45.68317" lon="4.70097">
        <ele>349.4</ele>
        <time>2025-11-11T09:16:47Z</time>
      </trkpt>
      <trkpt lat="45.6832" lon="4.7009">
        <ele>349.4</ele>
        <time>2025-11-11T09:16:48Z</time>
      </trkpt>
      <trkpt lat="45.68323" lon="4.70084">
        <ele>349.4</ele>
        <time>2025-11-11T09:16:49Z</time>
      </trkpt>
      <trkpt lat="45.68325" lon="4.70077">
        <ele>349.2</ele>
        <time>2025-11-11T09:16:50Z</time>
      </trkpt>
      <trkpt lat="45.68328" lon="4.70071">
        <ele>349.2</ele>
        <time>2025-11-11T09:16:51Z</time>
      </trkpt>
      <trkpt lat="45.6833" lon="4.70065">
        <ele>349</ele>
        <time>2025-11-11T09:16:52Z</time>
      </trkpt>
      <trkpt lat="45.68332" lon="4.70058">
        <ele>349</ele>
        <time>2025-11-11T09:16:53Z</time>
      </trkpt>
      <trkpt lat="45.68334" lon="4.70052">
        <ele>349</ele>
        <time>2025-11-11T09:16:54Z</time>
      </trkpt>
      <trkpt lat="45.68337" lon="4.70045">
        <ele>349</ele>
        <time>2025-11-11T09:16:55Z</time>
      </trkpt>
      <trkpt lat="45.68338" lon="4.70039">
        <ele>349</ele>
        <time>2025-11-11T09:16:56Z</time>
      </trkpt>
      <trkpt lat="45.6834" lon="4.70033">
        <ele>349.2</ele>
        <time>2025-11-11T09:16:57Z</time>
      </trkpt>
      <trkpt lat="45.68342" lon="4.70026">
        <ele>349.4</ele>
        <time>2025-11-11T09:16:58Z</time>
      </trkpt>
      <trkpt lat="45.68344" lon="4.7002">
        <ele>349.4</ele>
        <time>2025-11-11T09:16:59Z</time>
      </trkpt>
      <trkpt lat="45.68346" lon="4.70014">
        <ele>349.6</ele>
        <time>2025-11-11T09:17:00Z</time>
      </trkpt>
      <trkpt lat="45.68348" lon="4.70008">
        <ele>349.6</ele>
        <time>2025-11-11T09:17:01Z</time>
      </trkpt>
      <trkpt lat="45.6835" lon="4.70002">
        <ele>349.6</ele>
        <time>2025-11-11T09:17:02Z</time>
      </trkpt>
      <trkpt lat="45.68351" lon="4.69996">
        <ele>349.8</ele>
        <time>2025-11-11T09:17:03Z</time>
      </trkpt>
      <trkpt lat="45.68351" lon="4.69989">
        <ele>349.8</ele>
        <time>2025-11-11T09:17:04Z</time>
      </trkpt>
      <trkpt lat="45.68351" lon="4.69983">
        <ele>350</ele>
        <time>2025-11-11T09:17:05Z</time>
      </trkpt>
      <trkpt lat="45.68349" lon="4.69977">
        <ele>350</ele>
        <time>2025-11-11T09:17:06Z</time>
      </trkpt>
      <trkpt lat="45.68346" lon="4.69973">
        <ele>350.4</ele>
        <time>2025-11-11T09:17:07Z</time>
      </trkpt>
      <trkpt lat="45.68343" lon="4.69968">
        <ele>350.6</ele>
        <time>2025-11-11T09:17:08Z</time>
      </trkpt>
      <trkpt lat="45.68339" lon="4.69963">
        <ele>350.8</ele>
        <time>2025-11-11T09:17:09Z</time>
      </trkpt>
      <trkpt lat="45.68336" lon="4.69959">
        <ele>351</ele>
        <time>2025-11-11T09:17:10Z</time>
      </trkpt>
      <trkpt lat="45.68332" lon="4.69954">
        <ele>351</ele>
        <time>2025-11-11T09:17:11Z</time>
      </trkpt>
      <trkpt lat="45.68329" lon="4.69949">
        <ele>351.2</ele>
        <time>2025-11-11T09:17:12Z</time>
      </trkpt>
      <trkpt lat="45.68325" lon="4.69944">
        <ele>351.4</ele>
        <time>2025-11-11T09:17:13Z</time>
      </trkpt>
      <trkpt lat="45.68322" lon="4.6994">
        <ele>351.4</ele>
        <time>2025-11-11T09:17:14Z</time>
      </trkpt>
      <trkpt lat="45.68318" lon="4.69935">
        <ele>351.6</ele>
        <time>2025-11-11T09:17:15Z</time>
      </trkpt>
      <trkpt lat="45.68315" lon="4.6993">
        <ele>351.6</ele>
        <time>2025-11-11T09:17:16Z</time>
      </trkpt>
      <trkpt lat="45.68311" lon="4.69924">
        <ele>351.6</ele>
        <time>2025-11-11T09:17:17Z</time>
      </trkpt>
      <trkpt lat="45.68308" lon="4.69918">
        <ele>351.6</ele>
        <time>2025-11-11T09:17:18Z</time>
      </trkpt>
      <trkpt lat="45.68304" lon="4.69913">
        <ele>351.4</ele>
        <time>2025-11-11T09:17:19Z</time>
      </trkpt>
      <trkpt lat="45.68301" lon="4.69907">
        <ele>351.4</ele>
        <time>2025-11-11T09:17:20Z</time>
      </trkpt>
      <trkpt lat="45.68297" lon="4.69902">
        <ele>351.4</ele>
        <time>2025-11-11T09:17:21Z</time>
      </trkpt>
      <trkpt lat="45.68294" lon="4.69896">
        <ele>351.4</ele>
        <time>2025-11-11T09:17:22Z</time>
      </trkpt>
      <trkpt lat="45.6829" lon="4.69892">
        <ele>351.4</ele>
        <time>2025-11-11T09:17:23Z</time>
      </trkpt>
      <trkpt lat="45.68286" lon="4.69887">
        <ele>351.6</ele>
        <time>2025-11-11T09:17:24Z</time>
      </trkpt>
      <trkpt lat="45.68282" lon="4.69882">
        <ele>351.6</ele>
        <time>2025-11-11T09:17:25Z</time>
      </trkpt>
      <trkpt lat="45.68278" lon="4.69878">
        <ele>351.6</ele>
        <time>2025-11-11T09:17:26Z</time>
      </trkpt>
      <trkpt lat="45.68275" lon="4.69873">
        <ele>351.8</ele>
        <time>2025-11-11T09:17:27Z</time>
      </trkpt>
      <trkpt lat="45.68271" lon="4.69868">
        <ele>351.8</ele>
        <time>2025-11-11T09:17:28Z</time>
      </trkpt>
      <trkpt lat="45.68267" lon="4.69863">
        <ele>352</ele>
        <time>2025-11-11T09:17:29Z</time>
      </trkpt>
      <trkpt lat="45.68264" lon="4.69859">
        <ele>352</ele>
        <time>2025-11-11T09:17:30Z</time>
      </trkpt>
      <trkpt lat="45.6826" lon="4.69854">
        <ele>352</ele>
        <time>2025-11-11T09:17:31Z</time>
      </trkpt>
      <trkpt lat="45.68256" lon="4.6985">
        <ele>352.2</ele>
        <time>2025-11-11T09:17:32Z</time>
      </trkpt>
      <trkpt lat="45.68252" lon="4.69846">
        <ele>352.4</ele>
        <time>2025-11-11T09:17:33Z</time>
      </trkpt>
      <trkpt lat="45.68248" lon="4.69843">
        <ele>352.4</ele>
        <time>2025-11-11T09:17:34Z</time>
      </trkpt>
      <trkpt lat="45.68245" lon="4.69839">
        <ele>352.6</ele>
        <time>2025-11-11T09:17:35Z</time>
      </trkpt>
      <trkpt lat="45.68241" lon="4.69835">
        <ele>352.8</ele>
        <time>2025-11-11T09:17:36Z</time>
      </trkpt>
      <trkpt lat="45.68238" lon="4.69832">
        <ele>353.2</ele>
        <time>2025-11-11T09:17:37Z</time>
      </trkpt>
      <trkpt lat="45.68234" lon="4.69829">
        <ele>353.4</ele>
        <time>2025-11-11T09:17:38Z</time>
      </trkpt>
      <trkpt lat="45.68231" lon="4.69826">
        <ele>353.6</ele>
        <time>2025-11-11T09:17:39Z</time>
      </trkpt>
      <trkpt lat="45.68227" lon="4.69823">
        <ele>353.8</ele>
        <time>2025-11-11T09:17:40Z</time>
      </trkpt>
      <trkpt lat="45.68223" lon="4.6982">
        <ele>354</ele>
        <time>2025-11-11T09:17:41Z</time>
      </trkpt>
      <trkpt lat="45.6822" lon="4.69817">
        <ele>354.2</ele>
        <time>2025-11-11T09:17:42Z</time>
      </trkpt>
      <trkpt lat="45.68216" lon="4.69814">
        <ele>354.4</ele>
        <time>2025-11-11T09:17:43Z</time>
      </trkpt>
      <trkpt lat="45.68212" lon="4.69811">
        <ele>354.6</ele>
        <time>2025-11-11T09:17:44Z</time>
      </trkpt>
      <trkpt lat="45.68209" lon="4.69808">
        <ele>354.8</ele>
        <time>2025-11-11T09:17:45Z</time>
      </trkpt>
      <trkpt lat="45.68205" lon="4.69805">
        <ele>354.8</ele>
        <time>2025-11-11T09:17:46Z</time>
      </trkpt>
      <trkpt lat="45.68201" lon="4.69802">
        <ele>355</ele>
        <time>2025-11-11T09:17:47Z</time>
      </trkpt>
      <trkpt lat="45.68197" lon="4.698">
        <ele>355.2</ele>
        <time>2025-11-11T09:17:48Z</time>
      </trkpt>
      <trkpt lat="45.68193" lon="4.69797">
        <ele>355.2</ele>
        <time>2025-11-11T09:17:49Z</time>
      </trkpt>
      <trkpt lat="45.68189" lon="4.69793">
        <ele>355.4</ele>
        <time>2025-11-11T09:17:50Z</time>
      </trkpt>
      <trkpt lat="45.68186" lon="4.69791">
        <ele>355.6</ele>
        <time>2025-11-11T09:17:51Z</time>
      </trkpt>
      <trkpt lat="45.68182" lon="4.69788">
        <ele>355.8</ele>
        <time>2025-11-11T09:17:52Z</time>
      </trkpt>
      <trkpt lat="45.68178" lon="4.69786">
        <ele>356</ele>
        <time>2025-11-11T09:17:53Z</time>
      </trkpt>
      <trkpt lat="45.68174" lon="4.69782">
        <ele>356.2</ele>
        <time>2025-11-11T09:17:54Z</time>
      </trkpt>
      <trkpt lat="45.68171" lon="4.6978">
        <ele>356.4</ele>
        <time>2025-11-11T09:17:55Z</time>
      </trkpt>
      <trkpt lat="45.68167" lon="4.69777">
        <ele>356.6</ele>
        <time>2025-11-11T09:17:56Z</time>
      </trkpt>
      <trkpt lat="45.68163" lon="4.69774">
        <ele>356.8</ele>
        <time>2025-11-11T09:17:57Z</time>
      </trkpt>
      <trkpt lat="45.68159" lon="4.69772">
        <ele>357</ele>
        <time>2025-11-11T09:17:58Z</time>
      </trkpt>
      <trkpt lat="45.68155" lon="4.6977">
        <ele>357.2</ele>
        <time>2025-11-11T09:17:59Z</time>
      </trkpt>
      <trkpt lat="45.68152" lon="4.69767">
        <ele>357.4</ele>
        <time>2025-11-11T09:18:00Z</time>
      </trkpt>
      <trkpt lat="45.68148" lon="4.69764">
        <ele>357.6</ele>
        <time>2025-11-11T09:18:01Z</time>
      </trkpt>
      <trkpt lat="45.68145" lon="4.69762">
        <ele>357.8</ele>
        <time>2025-11-11T09:18:02Z</time>
      </trkpt>
      <trkpt lat="45.68141" lon="4.69759">
        <ele>358.2</ele>
        <time>2025-11-11T09:18:03Z</time>
      </trkpt>
      <trkpt lat="45.68137" lon="4.69757">
        <ele>358.4</ele>
        <time>2025-11-11T09:18:04Z</time>
      </trkpt>
      <trkpt lat="45.68134" lon="4.69755">
        <ele>358.6</ele>
        <time>2025-11-11T09:18:05Z</time>
      </trkpt>
      <trkpt lat="45.6813" lon="4.69753">
        <ele>358.8</ele>
        <time>2025-11-11T09:18:06Z</time>
      </trkpt>
      <trkpt lat="45.68127" lon="4.6975">
        <ele>359.2</ele>
        <time>2025-11-11T09:18:07Z</time>
      </trkpt>
      <trkpt lat="45.68123" lon="4.69748">
        <ele>359.4</ele>
        <time>2025-11-11T09:18:08Z</time>
      </trkpt>
      <trkpt lat="45.6812" lon="4.69746">
        <ele>359.6</ele>
        <time>2025-11-11T09:18:09Z</time>
      </trkpt>
      <trkpt lat="45.68116" lon="4.69744">
        <ele>360</ele>
        <time>2025-11-11T09:18:10Z</time>
      </trkpt>
      <trkpt lat="45.68113" lon="4.69742">
        <ele>360.2</ele>
        <time>2025-11-11T09:18:11Z</time>
      </trkpt>
      <trkpt lat="45.68109" lon="4.6974">
        <ele>360.6</ele>
        <time>2025-11-11T09:18:12Z</time>
      </trkpt>
      <trkpt lat="45.68106" lon="4.69738">
        <ele>360.8</ele>
        <time>2025-11-11T09:18:13Z</time>
      </trkpt>
      <trkpt lat="45.68103" lon="4.69736">
        <ele>361</ele>
        <time>2025-11-11T09:18:14Z</time>
      </trkpt>
      <trkpt lat="45.68099" lon="4.69733">
        <ele>361.4</ele>
        <time>2025-11-11T09:18:15Z</time>
      </trkpt>
      <trkpt lat="45.68096" lon="4.69731">
        <ele>361.6</ele>
        <time>2025-11-11T09:18:16Z</time>
      </trkpt>
      <trkpt lat="45.68092" lon="4.69729">
        <ele>361.8</ele>
        <time>2025-11-11T09:18:17Z</time>
      </trkpt>
      <trkpt lat="45.68089" lon="4.69726">
        <ele>362</ele>
        <time>2025-11-11T09:18:18Z</time>
      </trkpt>
      <trkpt lat="45.68085" lon="4.69723">
        <ele>362.2</ele>
        <time>2025-11-11T09:18:19Z</time>
      </trkpt>
      <trkpt lat="45.68082" lon="4.69719">
        <ele>362.4</ele>
        <time>2025-11-11T09:18:20Z</time>
      </trkpt>
      <trkpt lat="45.68079" lon="4.69715">
        <ele>362.4</ele>
        <time>2025-11-11T09:18:21Z</time>
      </trkpt>
      <trkpt lat="45.68075" lon="4.69711">
        <ele>362.6</ele>
        <time>2025-11-11T09:18:22Z</time>
      </trkpt>
      <trkpt lat="45.68072" lon="4.69707">
        <ele>362.8</ele>
        <time>2025-11-11T09:18:23Z</time>
      </trkpt>
      <trkpt lat="45.68069" lon="4.69703">
        <ele>363</ele>
        <time>2025-11-11T09:18:24Z</time>
      </trkpt>
      <trkpt lat="45.68067" lon="4.69699">
        <ele>363</ele>
        <time>2025-11-11T09:18:25Z</time>
      </trkpt>
      <trkpt lat="45.68063" lon="4.69694">
        <ele>363.2</ele>
        <time>2025-11-11T09:18:26Z</time>
      </trkpt>
      <trkpt lat="45.6806" lon="4.69689">
        <ele>363.2</ele>
        <time>2025-11-11T09:18:27Z</time>
      </trkpt>
      <trkpt lat="45.68057" lon="4.69684">
        <ele>363.4</ele>
        <time>2025-11-11T09:18:28Z</time>
      </trkpt>
      <trkpt lat="45.68054" lon="4.69679">
        <ele>363.4</ele>
        <time>2025-11-11T09:18:29Z</time>
      </trkpt>
      <trkpt lat="45.68051" lon="4.69674">
        <ele>363.4</ele>
        <time>2025-11-11T09:18:30Z</time>
      </trkpt>
      <trkpt lat="45.68048" lon="4.69669">
        <ele>363.4</ele>
        <time>2025-11-11T09:18:31Z</time>
      </trkpt>
      <trkpt lat="45.68045" lon="4.69665">
        <ele>363.6</ele>
        <time>2025-11-11T09:18:32Z</time>
      </trkpt>
      <trkpt lat="45.68042" lon="4.6966">
        <ele>363.6</ele>
        <time>2025-11-11T09:18:33Z</time>
      </trkpt>
      <trkpt lat="45.68039" lon="4.69655">
        <ele>363.6</ele>
        <time>2025-11-11T09:18:34Z</time>
      </trkpt>
      <trkpt lat="45.68036" lon="4.6965">
        <ele>363.8</ele>
        <time>2025-11-11T09:18:35Z</time>
      </trkpt>
      <trkpt lat="45.68033" lon="4.69645">
        <ele>363.8</ele>
        <time>2025-11-11T09:18:36Z</time>
      </trkpt>
      <trkpt lat="45.6803" lon="4.6964">
        <ele>364</ele>
        <time>2025-11-11T09:18:37Z</time>
      </trkpt>
      <trkpt lat="45.68027" lon="4.69636">
        <ele>364.2</ele>
        <time>2025-11-11T09:18:38Z</time>
      </trkpt>
      <trkpt lat="45.68024" lon="4.69631">
        <ele>364.4</ele>
        <time>2025-11-11T09:18:39Z</time>
      </trkpt>
      <trkpt lat="45.68021" lon="4.69627">
        <ele>364.6</ele>
        <time>2025-11-11T09:18:40Z</time>
      </trkpt>
      <trkpt lat="45.68018" lon="4.69622">
        <ele>364.8</ele>
        <time>2025-11-11T09:18:41Z</time>
      </trkpt>
      <trkpt lat="45.68015" lon="4.69617">
        <ele>364.8</ele>
        <time>2025-11-11T09:18:42Z</time>
      </trkpt>
      <trkpt lat="45.68011" lon="4.69612">
        <ele>364.8</ele>
        <time>2025-11-11T09:18:43Z</time>
      </trkpt>
      <trkpt lat="45.68008" lon="4.69607">
        <ele>364.8</ele>
        <time>2025-11-11T09:18:44Z</time>
      </trkpt>
      <trkpt lat="45.68005" lon="4.69602">
        <ele>365</ele>
        <time>2025-11-11T09:18:45Z</time>
      </trkpt>
      <trkpt lat="45.68002" lon="4.69597">
        <ele>365</ele>
        <time>2025-11-11T09:18:46Z</time>
      </trkpt>
      <trkpt lat="45.67999" lon="4.69592">
        <ele>365</ele>
        <time>2025-11-11T09:18:47Z</time>
      </trkpt>
      <trkpt lat="45.67996" lon="4.69587">
        <ele>365</ele>
        <time>2025-11-11T09:18:48Z</time>
      </trkpt>
      <trkpt lat="45.67993" lon="4.69581">
        <ele>365</ele>
        <time>2025-11-11T09:18:49Z</time>
      </trkpt>
      <trkpt lat="45.67989" lon="4.69576">
        <ele>365</ele>
        <time>2025-11-11T09:18:50Z</time>
      </trkpt>
      <trkpt lat="45.67986" lon="4.69571">
        <ele>365</ele>
        <time>2025-11-11T09:18:51Z</time>
      </trkpt>
      <trkpt lat="45.67982" lon="4.69565">
        <ele>365</ele>
        <time>2025-11-11T09:18:52Z</time>
      </trkpt>
      <trkpt lat="45.67979" lon="4.6956">
        <ele>365</ele>
        <time>2025-11-11T09:18:53Z</time>
      </trkpt>
      <trkpt lat="45.67975" lon="4.69554">
        <ele>365.2</ele>
        <time>2025-11-11T09:18:54Z</time>
      </trkpt>
      <trkpt lat="45.67972" lon="4.69549">
        <ele>365.2</ele>
        <time>2025-11-11T09:18:55Z</time>
      </trkpt>
      <trkpt lat="45.67968" lon="4.69543">
        <ele>365.2</ele>
        <time>2025-11-11T09:18:56Z</time>
      </trkpt>
      <trkpt lat="45.67965" lon="4.69537">
        <ele>365.4</ele>
        <time>2025-11-11T09:18:57Z</time>
      </trkpt>
      <trkpt lat="45.67961" lon="4.69532">
        <ele>365.4</ele>
        <time>2025-11-11T09:18:58Z</time>
      </trkpt>
      <trkpt lat="45.67957" lon="4.69526">
        <ele>365.6</ele>
        <time>2025-11-11T09:18:59Z</time>
      </trkpt>
      <trkpt lat="45.67954" lon="4.69521">
        <ele>365.6</ele>
        <time>2025-11-11T09:19:00Z</time>
      </trkpt>
      <trkpt lat="45.6795" lon="4.69515">
        <ele>365.6</ele>
        <time>2025-11-11T09:19:01Z</time>
      </trkpt>
      <trkpt lat="45.67946" lon="4.6951">
        <ele>365.8</ele>
        <time>2025-11-11T09:19:02Z</time>
      </trkpt>
      <trkpt lat="45.67942" lon="4.69504">
        <ele>365.8</ele>
        <time>2025-11-11T09:19:03Z</time>
      </trkpt>
      <trkpt lat="45.67938" lon="4.69498">
        <ele>365.6</ele>
        <time>2025-11-11T09:19:04Z</time>
      </trkpt>
      <trkpt lat="45.67934" lon="4.69493">
        <ele>365.4</ele>
        <time>2025-11-11T09:19:05Z</time>
      </trkpt>
      <trkpt lat="45.6793" lon="4.69487">
        <ele>365.4</ele>
        <time>2025-11-11T09:19:06Z</time>
      </trkpt>
      <trkpt lat="45.67926" lon="4.69482">
        <ele>365.2</ele>
        <time>2025-11-11T09:19:07Z</time>
      </trkpt>
      <trkpt lat="45.67922" lon="4.69476">
        <ele>365.2</ele>
        <time>2025-11-11T09:19:08Z</time>
      </trkpt>
      <trkpt lat="45.67917" lon="4.69471">
        <ele>365.2</ele>
        <time>2025-11-11T09:19:09Z</time>
      </trkpt>
      <trkpt lat="45.67913" lon="4.69466">
        <ele>365.4</ele>
        <time>2025-11-11T09:19:10Z</time>
      </trkpt>
      <trkpt lat="45.67909" lon="4.6946">
        <ele>365.4</ele>
        <time>2025-11-11T09:19:11Z</time>
      </trkpt>
      <trkpt lat="45.67904" lon="4.69455">
        <ele>365.6</ele>
        <time>2025-11-11T09:19:12Z</time>
      </trkpt>
      <trkpt lat="45.679" lon="4.6945">
        <ele>365.6</ele>
        <time>2025-11-11T09:19:13Z</time>
      </trkpt>
      <trkpt lat="45.67895" lon="4.69444">
        <ele>365.6</ele>
        <time>2025-11-11T09:19:14Z</time>
      </trkpt>
      <trkpt lat="45.6789" lon="4.69439">
        <ele>365.6</ele>
        <time>2025-11-11T09:19:15Z</time>
      </trkpt>
      <trkpt lat="45.67886" lon="4.69434">
        <ele>365.6</ele>
        <time>2025-11-11T09:19:16Z</time>
      </trkpt>
      <trkpt lat="45.6788" lon="4.6943">
        <ele>365.6</ele>
        <time>2025-11-11T09:19:17Z</time>
      </trkpt>
      <trkpt lat="45.67875" lon="4.69427">
        <ele>365.6</ele>
        <time>2025-11-11T09:19:18Z</time>
      </trkpt>
      <trkpt lat="45.6787" lon="4.69424">
        <ele>365.6</ele>
        <time>2025-11-11T09:19:19Z</time>
      </trkpt>
      <trkpt lat="45.67865" lon="4.6942">
        <ele>365.6</ele>
        <time>2025-11-11T09:19:20Z</time>
      </trkpt>
      <trkpt lat="45.67859" lon="4.69418">
        <ele>365.8</ele>
        <time>2025-11-11T09:19:21Z</time>
      </trkpt>
      <trkpt lat="45.67853" lon="4.69414">
        <ele>365.8</ele>
        <time>2025-11-11T09:19:22Z</time>
      </trkpt>
      <trkpt lat="45.67848" lon="4.69411">
        <ele>365.8</ele>
        <time>2025-11-11T09:19:23Z</time>
      </trkpt>
      <trkpt lat="45.67842" lon="4.69408">
        <ele>366</ele>
        <time>2025-11-11T09:19:24Z</time>
      </trkpt>
      <trkpt lat="45.67837" lon="4.69404">
        <ele>366</ele>
        <time>2025-11-11T09:19:25Z</time>
      </trkpt>
      <trkpt lat="45.67831" lon="4.69401">
        <ele>366</ele>
        <time>2025-11-11T09:19:26Z</time>
      </trkpt>
      <trkpt lat="45.67826" lon="4.69398">
        <ele>366</ele>
        <time>2025-11-11T09:19:27Z</time>
      </trkpt>
      <trkpt lat="45.6782" lon="4.69394">
        <ele>366</ele>
        <time>2025-11-11T09:19:28Z</time>
      </trkpt>
      <trkpt lat="45.67815" lon="4.69391">
        <ele>366</ele>
        <time>2025-11-11T09:19:29Z</time>
      </trkpt>
      <trkpt lat="45.6781" lon="4.69388">
        <ele>366.2</ele>
        <time>2025-11-11T09:19:30Z</time>
      </trkpt>
      <trkpt lat="45.67805" lon="4.69386">
        <ele>366.2</ele>
        <time>2025-11-11T09:19:31Z</time>
      </trkpt>
      <trkpt lat="45.67799" lon="4.69383">
        <ele>366.2</ele>
        <time>2025-11-11T09:19:32Z</time>
      </trkpt>
      <trkpt lat="45.67793" lon="4.69381">
        <ele>366.2</ele>
        <time>2025-11-11T09:19:33Z</time>
      </trkpt>
      <trkpt lat="45.67788" lon="4.69378">
        <ele>366.2</ele>
        <time>2025-11-11T09:19:34Z</time>
      </trkpt>
      <trkpt lat="45.67783" lon="4.69374">
        <ele>366.2</ele>
        <time>2025-11-11T09:19:35Z</time>
      </trkpt>
      <trkpt lat="45.67779" lon="4.69368">
        <ele>366</ele>
        <time>2025-11-11T09:19:36Z</time>
      </trkpt>
      <trkpt lat="45.67776" lon="4.69361">
        <ele>366</ele>
        <time>2025-11-11T09:19:37Z</time>
      </trkpt>
      <trkpt lat="45.67773" lon="4.69354">
        <ele>365.8</ele>
        <time>2025-11-11T09:19:38Z</time>
      </trkpt>
      <trkpt lat="45.6777" lon="4.69348">
        <ele>365.8</ele>
        <time>2025-11-11T09:19:39Z</time>
      </trkpt>
      <trkpt lat="45.67766" lon="4.69341">
        <ele>365.6</ele>
        <time>2025-11-11T09:19:40Z</time>
      </trkpt>
      <trkpt lat="45.67764" lon="4.69334">
        <ele>365.6</ele>
        <time>2025-11-11T09:19:41Z</time>
      </trkpt>
      <trkpt lat="45.67762" lon="4.69326">
        <ele>365.6</ele>
        <time>2025-11-11T09:19:42Z</time>
      </trkpt>
      <trkpt lat="45.67762" lon="4.69319">
        <ele>365.4</ele>
        <time>2025-11-11T09:19:43Z</time>
      </trkpt>
      <trkpt lat="45.67762" lon="4.69312">
        <ele>365.4</ele>
        <time>2025-11-11T09:19:44Z</time>
      </trkpt>
      <trkpt lat="45.6776" lon="4.69306">
        <ele>365.4</ele>
        <time>2025-11-11T09:19:45Z</time>
      </trkpt>
      <trkpt lat="45.67758" lon="4.693">
        <ele>365.4</ele>
        <time>2025-11-11T09:19:46Z</time>
      </trkpt>
      <trkpt lat="45.67754" lon="4.69297">
        <ele>365.6</ele>
        <time>2025-11-11T09:19:47Z</time>
      </trkpt>
      <trkpt lat="45.6775" lon="4.69293">
        <ele>365.8</ele>
        <time>2025-11-11T09:19:48Z</time>
      </trkpt>
      <trkpt lat="45.67746" lon="4.6929">
        <ele>366</ele>
        <time>2025-11-11T09:19:49Z</time>
      </trkpt>
      <trkpt lat="45.67741" lon="4.69285">
        <ele>366</ele>
        <time>2025-11-11T09:19:50Z</time>
      </trkpt>
      <trkpt lat="45.67738" lon="4.6928">
        <ele>366</ele>
        <time>2025-11-11T09:19:51Z</time>
      </trkpt>
      <trkpt lat="45.67734" lon="4.69274">
        <ele>366</ele>
        <time>2025-11-11T09:19:52Z</time>
      </trkpt>
      <trkpt lat="45.67731" lon="4.69269">
        <ele>366</ele>
        <time>2025-11-11T09:19:53Z</time>
      </trkpt>
      <trkpt lat="45.67727" lon="4.69263">
        <ele>366</ele>
        <time>2025-11-11T09:19:54Z</time>
      </trkpt>
      <trkpt lat="45.67724" lon="4.69258">
        <ele>366.2</ele>
        <time>2025-11-11T09:19:55Z</time>
      </trkpt>
      <trkpt lat="45.67721" lon="4.69253">
        <ele>366.4</ele>
        <time>2025-11-11T09:19:56Z</time>
      </trkpt>
      <trkpt lat="45.67718" lon="4.69248">
        <ele>366.6</ele>
        <time>2025-11-11T09:19:57Z</time>
      </trkpt>
      <trkpt lat="45.67714" lon="4.69242">
        <ele>367</ele>
        <time>2025-11-11T09:19:58Z</time>
      </trkpt>
      <trkpt lat="45.67711" lon="4.69237">
        <ele>367.2</ele>
        <time>2025-11-11T09:19:59Z</time>
      </trkpt>
      <trkpt lat="45.67708" lon="4.69233">
        <ele>367.4</ele>
        <time>2025-11-11T09:20:00Z</time>
      </trkpt>
      <trkpt lat="45.67705" lon="4.69228">
        <ele>367.6</ele>
        <time>2025-11-11T09:20:01Z</time>
      </trkpt>
      <trkpt lat="45.67701" lon="4.69223">
        <ele>368</ele>
        <time>2025-11-11T09:20:02Z</time>
      </trkpt>
      <trkpt lat="45.67698" lon="4.69219">
        <ele>368.2</ele>
        <time>2025-11-11T09:20:03Z</time>
      </trkpt>
      <trkpt lat="45.67695" lon="4.69215">
        <ele>368.4</ele>
        <time>2025-11-11T09:20:04Z</time>
      </trkpt>
      <trkpt lat="45.67691" lon="4.69211">
        <ele>368.4</ele>
        <time>2025-11-11T09:20:05Z</time>
      </trkpt>
      <trkpt lat="45.67688" lon="4.69207">
        <ele>368.6</ele>
        <time>2025-11-11T09:20:06Z</time>
      </trkpt>
      <trkpt lat="45.67684" lon="4.69204">
        <ele>368.8</ele>
        <time>2025-11-11T09:20:07Z</time>
      </trkpt>
      <trkpt lat="45.67681" lon="4.692">
        <ele>369.2</ele>
        <time>2025-11-11T09:20:08Z</time>
      </trkpt>
      <trkpt lat="45.67677" lon="4.69197">
        <ele>369.4</ele>
        <time>2025-11-11T09:20:09Z</time>
      </trkpt>
      <trkpt lat="45.67673" lon="4.69194">
        <ele>369.6</ele>
        <time>2025-11-11T09:20:10Z</time>
      </trkpt>
      <trkpt lat="45.67669" lon="4.69191">
        <ele>369.8</ele>
        <time>2025-11-11T09:20:11Z</time>
      </trkpt>
      <trkpt lat="45.67666" lon="4.69188">
        <ele>370</ele>
        <time>2025-11-11T09:20:12Z</time>
      </trkpt>
      <trkpt lat="45.67662" lon="4.69186">
        <ele>370</ele>
        <time>2025-11-11T09:20:13Z</time>
      </trkpt>
      <trkpt lat="45.67658" lon="4.69183">
        <ele>370.2</ele>
        <time>2025-11-11T09:20:14Z</time>
      </trkpt>
      <trkpt lat="45.67654" lon="4.69181">
        <ele>370.4</ele>
        <time>2025-11-11T09:20:15Z</time>
      </trkpt>
      <trkpt lat="45.6765" lon="4.6918">
        <ele>370.6</ele>
        <time>2025-11-11T09:20:16Z</time>
      </trkpt>
      <trkpt lat="45.67645" lon="4.69178">
        <ele>370.8</ele>
        <time>2025-11-11T09:20:17Z</time>
      </trkpt>
      <trkpt lat="45.67641" lon="4.69175">
        <ele>370.8</ele>
        <time>2025-11-11T09:20:18Z</time>
      </trkpt>
      <trkpt lat="45.67637" lon="4.69173">
        <ele>371</ele>
        <time>2025-11-11T09:20:19Z</time>
      </trkpt>
      <trkpt lat="45.67632" lon="4.6917">
        <ele>371.2</ele>
        <time>2025-11-11T09:20:20Z</time>
      </trkpt>
      <trkpt lat="45.67628" lon="4.69168">
        <ele>371.4</ele>
        <time>2025-11-11T09:20:21Z</time>
      </trkpt>
      <trkpt lat="45.67623" lon="4.69166">
        <ele>371.6</ele>
        <time>2025-11-11T09:20:22Z</time>
      </trkpt>
      <trkpt lat="45.67619" lon="4.69163">
        <ele>371.8</ele>
        <time>2025-11-11T09:20:23Z</time>
      </trkpt>
      <trkpt lat="45.67615" lon="4.69161">
        <ele>371.8</ele>
        <time>2025-11-11T09:20:24Z</time>
      </trkpt>
      <trkpt lat="45.6761" lon="4.69159">
        <ele>371.8</ele>
        <time>2025-11-11T09:20:25Z</time>
      </trkpt>
      <trkpt lat="45.67606" lon="4.69156">
        <ele>372</ele>
        <time>2025-11-11T09:20:26Z</time>
      </trkpt>
      <trkpt lat="45.67602" lon="4.69154">
        <ele>372</ele>
        <time>2025-11-11T09:20:27Z</time>
      </trkpt>
      <trkpt lat="45.67597" lon="4.69152">
        <ele>372.2</ele>
        <time>2025-11-11T09:20:28Z</time>
      </trkpt>
      <trkpt lat="45.67593" lon="4.69149">
        <ele>372.4</ele>
        <time>2025-11-11T09:20:29Z</time>
      </trkpt>
      <trkpt lat="45.67589" lon="4.69146">
        <ele>372.6</ele>
        <time>2025-11-11T09:20:30Z</time>
      </trkpt>
      <trkpt lat="45.67585" lon="4.69143">
        <ele>372.8</ele>
        <time>2025-11-11T09:20:31Z</time>
      </trkpt>
      <trkpt lat="45.67581" lon="4.6914">
        <ele>373</ele>
        <time>2025-11-11T09:20:32Z</time>
      </trkpt>
      <trkpt lat="45.67577" lon="4.69136">
        <ele>373.2</ele>
        <time>2025-11-11T09:20:33Z</time>
      </trkpt>
      <trkpt lat="45.67573" lon="4.69133">
        <ele>373.4</ele>
        <time>2025-11-11T09:20:34Z</time>
      </trkpt>
      <trkpt lat="45.67569" lon="4.6913">
        <ele>373.8</ele>
        <time>2025-11-11T09:20:35Z</time>
      </trkpt>
      <trkpt lat="45.67566" lon="4.69127">
        <ele>374</ele>
        <time>2025-11-11T09:20:36Z</time>
      </trkpt>
      <trkpt lat="45.67562" lon="4.69124">
        <ele>374.2</ele>
        <time>2025-11-11T09:20:37Z</time>
      </trkpt>
      <trkpt lat="45.67558" lon="4.6912">
        <ele>374.4</ele>
        <time>2025-11-11T09:20:38Z</time>
      </trkpt>
      <trkpt lat="45.67555" lon="4.69117">
        <ele>374.6</ele>
        <time>2025-11-11T09:20:39Z</time>
      </trkpt>
      <trkpt lat="45.67551" lon="4.69114">
        <ele>374.8</ele>
        <time>2025-11-11T09:20:40Z</time>
      </trkpt>
      <trkpt lat="45.67547" lon="4.6911">
        <ele>375</ele>
        <time>2025-11-11T09:20:41Z</time>
      </trkpt>
      <trkpt lat="45.67543" lon="4.69106">
        <ele>375.2</ele>
        <time>2025-11-11T09:20:42Z</time>
      </trkpt>
      <trkpt lat="45.67539" lon="4.69103">
        <ele>375.2</ele>
        <time>2025-11-11T09:20:43Z</time>
      </trkpt>
      <trkpt lat="45.67535" lon="4.69099">
        <ele>375.2</ele>
        <time>2025-11-11T09:20:44Z</time>
      </trkpt>
      <trkpt lat="45.67531" lon="4.69095">
        <ele>375.4</ele>
        <time>2025-11-11T09:20:45Z</time>
      </trkpt>
      <trkpt lat="45.67527" lon="4.69092">
        <ele>375.4</ele>
        <time>2025-11-11T09:20:46Z</time>
      </trkpt>
      <trkpt lat="45.67523" lon="4.69088">
        <ele>375.4</ele>
        <time>2025-11-11T09:20:47Z</time>
      </trkpt>
      <trkpt lat="45.67519" lon="4.69084">
        <ele>375.4</ele>
        <time>2025-11-11T09:20:48Z</time>
      </trkpt>
      <trkpt lat="45.67515" lon="4.6908">
        <ele>375.4</ele>
        <time>2025-11-11T09:20:49Z</time>
      </trkpt>
      <trkpt lat="45.67512" lon="4.69077">
        <ele>375.4</ele>
        <time>2025-11-11T09:20:50Z</time>
      </trkpt>
      <trkpt lat="45.67508" lon="4.69072">
        <ele>375.4</ele>
        <time>2025-11-11T09:20:51Z</time>
      </trkpt>
      <trkpt lat="45.67504" lon="4.69068">
        <ele>375.4</ele>
        <time>2025-11-11T09:20:52Z</time>
      </trkpt>
      <trkpt lat="45.67499" lon="4.69064">
        <ele>375.6</ele>
        <time>2025-11-11T09:20:53Z</time>
      </trkpt>
      <trkpt lat="45.67495" lon="4.6906">
        <ele>375.6</ele>
        <time>2025-11-11T09:20:54Z</time>
      </trkpt>
      <trkpt lat="45.67491" lon="4.69056">
        <ele>375.6</ele>
        <time>2025-11-11T09:20:55Z</time>
      </trkpt>
      <trkpt lat="45.67488" lon="4.69051">
        <ele>375.8</ele>
        <time>2025-11-11T09:20:56Z</time>
      </trkpt>
      <trkpt lat="45.67485" lon="4.69047">
        <ele>376</ele>
        <time>2025-11-11T09:20:57Z</time>
      </trkpt>
      <trkpt lat="45.67482" lon="4.69043">
        <ele>376.2</ele>
        <time>2025-11-11T09:20:58Z</time>
      </trkpt>
      <trkpt lat="45.67478" lon="4.69039">
        <ele>376.4</ele>
        <time>2025-11-11T09:20:59Z</time>
      </trkpt>
      <trkpt lat="45.67475" lon="4.69035">
        <ele>376.4</ele>
        <time>2025-11-11T09:21:00Z</time>
      </trkpt>
      <trkpt lat="45.67472" lon="4.6903">
        <ele>376.6</ele>
        <time>2025-11-11T09:21:01Z</time>
      </trkpt>
      <trkpt lat="45.67468" lon="4.69025">
        <ele>376.6</ele>
        <time>2025-11-11T09:21:02Z</time>
      </trkpt>
      <trkpt lat="45.67466" lon="4.69019">
        <ele>376.6</ele>
        <time>2025-11-11T09:21:03Z</time>
      </trkpt>
      <trkpt lat="45.67463" lon="4.69014">
        <ele>376.4</ele>
        <time>2025-11-11T09:21:04Z</time>
      </trkpt>
      <trkpt lat="45.67461" lon="4.69008">
        <ele>376.4</ele>
        <time>2025-11-11T09:21:05Z</time>
      </trkpt>
      <trkpt lat="45.67459" lon="4.69003">
        <ele>376.4</ele>
        <time>2025-11-11T09:21:06Z</time>
      </trkpt>
      <trkpt lat="45.67457" lon="4.68998">
        <ele>376.6</ele>
        <time>2025-11-11T09:21:07Z</time>
      </trkpt>
      <trkpt lat="45.67455" lon="4.68991">
        <ele>376.6</ele>
        <time>2025-11-11T09:21:08Z</time>
      </trkpt>
      <trkpt lat="45.67454" lon="4.68984">
        <ele>376.6</ele>
        <time>2025-11-11T09:21:09Z</time>
      </trkpt>
      <trkpt lat="45.67452" lon="4.68977">
        <ele>376.6</ele>
        <time>2025-11-11T09:21:10Z</time>
      </trkpt>
      <trkpt lat="45.6745" lon="4.6897">
        <ele>376.4</ele>
        <time>2025-11-11T09:21:11Z</time>
      </trkpt>
      <trkpt lat="45.67448" lon="4.68963">
        <ele>376.4</ele>
        <time>2025-11-11T09:21:12Z</time>
      </trkpt>
      <trkpt lat="45.67446" lon="4.68955">
        <ele>376.2</ele>
        <time>2025-11-11T09:21:13Z</time>
      </trkpt>
      <trkpt lat="45.67444" lon="4.68948">
        <ele>376.2</ele>
        <time>2025-11-11T09:21:14Z</time>
      </trkpt>
      <trkpt lat="45.67441" lon="4.6894">
        <ele>376.2</ele>
        <time>2025-11-11T09:21:15Z</time>
      </trkpt>
      <trkpt lat="45.67439" lon="4.68933">
        <ele>376</ele>
        <time>2025-11-11T09:21:16Z</time>
      </trkpt>
      <trkpt lat="45.67437" lon="4.68925">
        <ele>376</ele>
        <time>2025-11-11T09:21:17Z</time>
      </trkpt>
      <trkpt lat="45.67435" lon="4.68918">
        <ele>375.8</ele>
        <time>2025-11-11T09:21:18Z</time>
      </trkpt>
      <trkpt lat="45.67433" lon="4.6891">
        <ele>375.8</ele>
        <time>2025-11-11T09:21:19Z</time>
      </trkpt>
      <trkpt lat="45.67432" lon="4.68901">
        <ele>375.6</ele>
        <time>2025-11-11T09:21:20Z</time>
      </trkpt>
      <trkpt lat="45.67431" lon="4.68892">
        <ele>375.6</ele>
        <time>2025-11-11T09:21:21Z</time>
      </trkpt>
      <trkpt lat="45.6743" lon="4.68883">
        <ele>375.4</ele>
        <time>2025-11-11T09:21:22Z</time>
      </trkpt>
      <trkpt lat="45.6743" lon="4.68875">
        <ele>375.4</ele>
        <time>2025-11-11T09:21:23Z</time>
      </trkpt>
      <trkpt lat="45.67429" lon="4.68866">
        <ele>375.2</ele>
        <time>2025-11-11T09:21:24Z</time>
      </trkpt>
      <trkpt lat="45.67429" lon="4.68857">
        <ele>375</ele>
        <time>2025-11-11T09:21:25Z</time>
      </trkpt>
      <trkpt lat="45.67428" lon="4.68848">
        <ele>375</ele>
        <time>2025-11-11T09:21:26Z</time>
      </trkpt>
      <trkpt lat="45.67427" lon="4.6884">
        <ele>374.8</ele>
        <time>2025-11-11T09:21:27Z</time>
      </trkpt>
      <trkpt lat="45.67425" lon="4.68831">
        <ele>374.6</ele>
        <time>2025-11-11T09:21:28Z</time>
      </trkpt>
      <trkpt lat="45.67423" lon="4.68822">
        <ele>374.2</ele>
        <time>2025-11-11T09:21:29Z</time>
      </trkpt>
      <trkpt lat="45.6742" lon="4.68814">
        <ele>374</ele>
        <time>2025-11-11T09:21:30Z</time>
      </trkpt>
      <trkpt lat="45.67417" lon="4.68805">
        <ele>374</ele>
        <time>2025-11-11T09:21:31Z</time>
      </trkpt>
      <trkpt lat="45.67414" lon="4.68797">
        <ele>373.8</ele>
        <time>2025-11-11T09:21:32Z</time>
      </trkpt>
      <trkpt lat="45.67411" lon="4.68789">
        <ele>373.8</ele>
        <time>2025-11-11T09:21:33Z</time>
      </trkpt>
      <trkpt lat="45.67408" lon="4.68781">
        <ele>373.8</ele>
        <time>2025-11-11T09:21:34Z</time>
      </trkpt>
      <trkpt lat="45.67404" lon="4.68773">
        <ele>373.6</ele>
        <time>2025-11-11T09:21:35Z</time>
      </trkpt>
      <trkpt lat="45.67401" lon="4.68765">
        <ele>373.4</ele>
        <time>2025-11-11T09:21:36Z</time>
      </trkpt>
      <trkpt lat="45.67397" lon="4.68757">
        <ele>373.2</ele>
        <time>2025-11-11T09:21:37Z</time>
      </trkpt>
      <trkpt lat="45.67394" lon="4.68749">
        <ele>373</ele>
        <time>2025-11-11T09:21:38Z</time>
      </trkpt>
      <trkpt lat="45.6739" lon="4.68741">
        <ele>372.8</ele>
        <time>2025-11-11T09:21:39Z</time>
      </trkpt>
      <trkpt lat="45.67387" lon="4.68733">
        <ele>372.6</ele>
        <time>2025-11-11T09:21:40Z</time>
      </trkpt>
      <trkpt lat="45.67384" lon="4.68726">
        <ele>372.6</ele>
        <time>2025-11-11T09:21:41Z</time>
      </trkpt>
      <trkpt lat="45.6738" lon="4.68718">
        <ele>372.4</ele>
        <time>2025-11-11T09:21:42Z</time>
      </trkpt>
      <trkpt lat="45.67377" lon="4.6871">
        <ele>372.4</ele>
        <time>2025-11-11T09:21:43Z</time>
      </trkpt>
      <trkpt lat="45.67374" lon="4.68703">
        <ele>372.4</ele>
        <time>2025-11-11T09:21:44Z</time>
      </trkpt>
      <trkpt lat="45.67372" lon="4.68696">
        <ele>372.4</ele>
        <time>2025-11-11T09:21:45Z</time>
      </trkpt>
      <trkpt lat="45.67369" lon="4.68688">
        <ele>372.4</ele>
        <time>2025-11-11T09:21:46Z</time>
      </trkpt>
      <trkpt lat="45.67366" lon="4.68681">
        <ele>372.4</ele>
        <time>2025-11-11T09:21:47Z</time>
      </trkpt>
      <trkpt lat="45.67363" lon="4.68674">
        <ele>372.4</ele>
        <time>2025-11-11T09:21:48Z</time>
      </trkpt>
      <trkpt lat="45.6736" lon="4.68666">
        <ele>372.6</ele>
        <time>2025-11-11T09:21:49Z</time>
      </trkpt>
      <trkpt lat="45.67357" lon="4.6866">
        <ele>372.6</ele>
        <time>2025-11-11T09:21:50Z</time>
      </trkpt>
      <trkpt lat="45.67355" lon="4.68653">
        <ele>372.8</ele>
        <time>2025-11-11T09:21:51Z</time>
      </trkpt>
      <trkpt lat="45.67352" lon="4.68646">
        <ele>372.8</ele>
        <time>2025-11-11T09:21:52Z</time>
      </trkpt>
      <trkpt lat="45.67349" lon="4.68639">
        <ele>373</ele>
        <time>2025-11-11T09:21:53Z</time>
      </trkpt>
      <trkpt lat="45.67346" lon="4.68632">
        <ele>373</ele>
        <time>2025-11-11T09:21:54Z</time>
      </trkpt>
      <trkpt lat="45.67343" lon="4.68625">
        <ele>373</ele>
        <time>2025-11-11T09:21:55Z</time>
      </trkpt>
      <trkpt lat="45.67341" lon="4.68618">
        <ele>373.2</ele>
        <time>2025-11-11T09:21:56Z</time>
      </trkpt>
      <trkpt lat="45.67339" lon="4.68611">
        <ele>373.2</ele>
        <time>2025-11-11T09:21:57Z</time>
      </trkpt>
      <trkpt lat="45.67336" lon="4.68604">
        <ele>373.2</ele>
        <time>2025-11-11T09:21:58Z</time>
      </trkpt>
      <trkpt lat="45.67334" lon="4.68598">
        <ele>373.4</ele>
        <time>2025-11-11T09:21:59Z</time>
      </trkpt>
      <trkpt lat="45.67331" lon="4.68591">
        <ele>373.4</ele>
        <time>2025-11-11T09:22:00Z</time>
      </trkpt>
      <trkpt lat="45.67328" lon="4.68584">
        <ele>373.6</ele>
        <time>2025-11-11T09:22:01Z</time>
      </trkpt>
      <trkpt lat="45.67325" lon="4.68578">
        <ele>373.6</ele>
        <time>2025-11-11T09:22:02Z</time>
      </trkpt>
      <trkpt lat="45.67323" lon="4.68571">
        <ele>373.6</ele>
        <time>2025-11-11T09:22:03Z</time>
      </trkpt>
      <trkpt lat="45.6732" lon="4.68565">
        <ele>373.8</ele>
        <time>2025-11-11T09:22:04Z</time>
      </trkpt>
      <trkpt lat="45.67317" lon="4.68559">
        <ele>374</ele>
        <time>2025-11-11T09:22:05Z</time>
      </trkpt>
      <trkpt lat="45.67314" lon="4.68554">
        <ele>374</ele>
        <time>2025-11-11T09:22:06Z</time>
      </trkpt>
      <trkpt lat="45.6731" lon="4.6855">
        <ele>374.2</ele>
        <time>2025-11-11T09:22:07Z</time>
      </trkpt>
      <trkpt lat="45.67306" lon="4.68546">
        <ele>374.4</ele>
        <time>2025-11-11T09:22:08Z</time>
      </trkpt>
      <trkpt lat="45.67302" lon="4.68542">
        <ele>374.6</ele>
        <time>2025-11-11T09:22:09Z</time>
      </trkpt>
      <trkpt lat="45.67298" lon="4.68539">
        <ele>374.8</ele>
        <time>2025-11-11T09:22:10Z</time>
      </trkpt>
      <trkpt lat="45.67294" lon="4.68537">
        <ele>375</ele>
        <time>2025-11-11T09:22:11Z</time>
      </trkpt>
      <trkpt lat="45.6729" lon="4.68534">
        <ele>375.2</ele>
        <time>2025-11-11T09:22:12Z</time>
      </trkpt>
      <trkpt lat="45.67286" lon="4.68532">
        <ele>375.4</ele>
        <time>2025-11-11T09:22:13Z</time>
      </trkpt>
      <trkpt lat="45.67281" lon="4.6853">
        <ele>375.6</ele>
        <time>2025-11-11T09:22:14Z</time>
      </trkpt>
      <trkpt lat="45.67277" lon="4.68528">
        <ele>375.8</ele>
        <time>2025-11-11T09:22:15Z</time>
      </trkpt>
      <trkpt lat="45.67273" lon="4.68526">
        <ele>376</ele>
        <time>2025-11-11T09:22:16Z</time>
      </trkpt>
      <trkpt lat="45.67268" lon="4.68524">
        <ele>376.2</ele>
        <time>2025-11-11T09:22:17Z</time>
      </trkpt>
      <trkpt lat="45.67264" lon="4.68522">
        <ele>376.4</ele>
        <time>2025-11-11T09:22:18Z</time>
      </trkpt>
      <trkpt lat="45.6726" lon="4.6852">
        <ele>376.6</ele>
        <time>2025-11-11T09:22:19Z</time>
      </trkpt>
      <trkpt lat="45.67256" lon="4.68517">
        <ele>376.8</ele>
        <time>2025-11-11T09:22:20Z</time>
      </trkpt>
      <trkpt lat="45.67252" lon="4.68514">
        <ele>377</ele>
        <time>2025-11-11T09:22:21Z</time>
      </trkpt>
      <trkpt lat="45.67248" lon="4.68511">
        <ele>377</ele>
        <time>2025-11-11T09:22:22Z</time>
      </trkpt>
      <trkpt lat="45.67245" lon="4.68507">
        <ele>377.2</ele>
        <time>2025-11-11T09:22:23Z</time>
      </trkpt>
      <trkpt lat="45.67242" lon="4.68503">
        <ele>377.4</ele>
        <time>2025-11-11T09:22:24Z</time>
      </trkpt>
      <trkpt lat="45.67238" lon="4.68499">
        <ele>377.6</ele>
        <time>2025-11-11T09:22:25Z</time>
      </trkpt>
      <trkpt lat="45.67235" lon="4.68495">
        <ele>377.8</ele>
        <time>2025-11-11T09:22:26Z</time>
      </trkpt>
      <trkpt lat="45.67232" lon="4.68492">
        <ele>378</ele>
        <time>2025-11-11T09:22:27Z</time>
      </trkpt>
      <trkpt lat="45.67229" lon="4.68487">
        <ele>378.2</ele>
        <time>2025-11-11T09:22:28Z</time>
      </trkpt>
      <trkpt lat="45.67226" lon="4.68483">
        <ele>378.4</ele>
        <time>2025-11-11T09:22:29Z</time>
      </trkpt>
      <trkpt lat="45.67223" lon="4.68479">
        <ele>378.6</ele>
        <time>2025-11-11T09:22:30Z</time>
      </trkpt>
      <trkpt lat="45.67219" lon="4.68476">
        <ele>378.6</ele>
        <time>2025-11-11T09:22:31Z</time>
      </trkpt>
      <trkpt lat="45.67216" lon="4.68473">
        <ele>378.8</ele>
        <time>2025-11-11T09:22:32Z</time>
      </trkpt>
      <trkpt lat="45.67212" lon="4.6847">
        <ele>378.8</ele>
        <time>2025-11-11T09:22:33Z</time>
      </trkpt>
      <trkpt lat="45.67208" lon="4.68467">
        <ele>379</ele>
        <time>2025-11-11T09:22:34Z</time>
      </trkpt>
      <trkpt lat="45.67204" lon="4.68463">
        <ele>379</ele>
        <time>2025-11-11T09:22:35Z</time>
      </trkpt>
      <trkpt lat="45.67201" lon="4.68459">
        <ele>379</ele>
        <time>2025-11-11T09:22:36Z</time>
      </trkpt>
      <trkpt lat="45.67199" lon="4.68454">
        <ele>379.2</ele>
        <time>2025-11-11T09:22:37Z</time>
      </trkpt>
      <trkpt lat="45.67198" lon="4.68448">
        <ele>379.4</ele>
        <time>2025-11-11T09:22:38Z</time>
      </trkpt>
      <trkpt lat="45.67198" lon="4.68441">
        <ele>379.4</ele>
        <time>2025-11-11T09:22:39Z</time>
      </trkpt>
      <trkpt lat="45.67199" lon="4.68435">
        <ele>379.6</ele>
        <time>2025-11-11T09:22:40Z</time>
      </trkpt>
      <trkpt lat="45.67199" lon="4.68428">
        <ele>379.6</ele>
        <time>2025-11-11T09:22:41Z</time>
      </trkpt>
      <trkpt lat="45.672" lon="4.68421">
        <ele>379.6</ele>
        <time>2025-11-11T09:22:42Z</time>
      </trkpt>
      <trkpt lat="45.67201" lon="4.68415">
        <ele>379.8</ele>
        <time>2025-11-11T09:22:43Z</time>
      </trkpt>
      <trkpt lat="45.67201" lon="4.68409">
        <ele>379.8</ele>
        <time>2025-11-11T09:22:44Z</time>
      </trkpt>
      <trkpt lat="45.67201" lon="4.68403">
        <ele>379.8</ele>
        <time>2025-11-11T09:22:45Z</time>
      </trkpt>
      <trkpt lat="45.67201" lon="4.68396">
        <ele>379.8</ele>
        <time>2025-11-11T09:22:46Z</time>
      </trkpt>
      <trkpt lat="45.67201" lon="4.6839">
        <ele>380</ele>
        <time>2025-11-11T09:22:47Z</time>
      </trkpt>
      <trkpt lat="45.67201" lon="4.68384">
        <ele>380</ele>
        <time>2025-11-11T09:22:48Z</time>
      </trkpt>
      <trkpt lat="45.67201" lon="4.68378">
        <ele>380</ele>
        <time>2025-11-11T09:22:49Z</time>
      </trkpt>
      <trkpt lat="45.67201" lon="4.68371">
        <ele>380</ele>
        <time>2025-11-11T09:22:50Z</time>
      </trkpt>
      <trkpt lat="45.67201" lon="4.68365">
        <ele>380.2</ele>
        <time>2025-11-11T09:22:51Z</time>
      </trkpt>
      <trkpt lat="45.67201" lon="4.68358">
        <ele>380.4</ele>
        <time>2025-11-11T09:22:52Z</time>
      </trkpt>
      <trkpt lat="45.672" lon="4.68352">
        <ele>380.4</ele>
        <time>2025-11-11T09:22:53Z</time>
      </trkpt>
      <trkpt lat="45.672" lon="4.68345">
        <ele>380.6</ele>
        <time>2025-11-11T09:22:54Z</time>
      </trkpt>
      <trkpt lat="45.672" lon="4.68339">
        <ele>380.6</ele>
        <time>2025-11-11T09:22:55Z</time>
      </trkpt>
      <trkpt lat="45.672" lon="4.68332">
        <ele>380.8</ele>
        <time>2025-11-11T09:22:56Z</time>
      </trkpt>
      <trkpt lat="45.67199" lon="4.68325">
        <ele>381</ele>
        <time>2025-11-11T09:22:57Z</time>
      </trkpt>
      <trkpt lat="45.67199" lon="4.68319">
        <ele>381</ele>
        <time>2025-11-11T09:22:58Z</time>
      </trkpt>
      <trkpt lat="45.67199" lon="4.68312">
        <ele>381</ele>
        <time>2025-11-11T09:22:59Z</time>
      </trkpt>
      <trkpt lat="45.67198" lon="4.68305">
        <ele>381.2</ele>
        <time>2025-11-11T09:23:00Z</time>
      </trkpt>
      <trkpt lat="45.67198" lon="4.68298">
        <ele>381.2</ele>
        <time>2025-11-11T09:23:01Z</time>
      </trkpt>
      <trkpt lat="45.67198" lon="4.68291">
        <ele>381.2</ele>
        <time>2025-11-11T09:23:02Z</time>
      </trkpt>
      <trkpt lat="45.67197" lon="4.68285">
        <ele>381.4</ele>
        <time>2025-11-11T09:23:03Z</time>
      </trkpt>
      <trkpt lat="45.67197" lon="4.68278">
        <ele>381.4</ele>
        <time>2025-11-11T09:23:04Z</time>
      </trkpt>
      <trkpt lat="45.67197" lon="4.68271">
        <ele>381.4</ele>
        <time>2025-11-11T09:23:05Z</time>
      </trkpt>
      <trkpt lat="45.67196" lon="4.68264">
        <ele>381.6</ele>
        <time>2025-11-11T09:23:06Z</time>
      </trkpt>
      <trkpt lat="45.67197" lon="4.68258">
        <ele>381.6</ele>
        <time>2025-11-11T09:23:07Z</time>
      </trkpt>
      <trkpt lat="45.67196" lon="4.68252">
        <ele>381.8</ele>
        <time>2025-11-11T09:23:08Z</time>
      </trkpt>
      <trkpt lat="45.67196" lon="4.68246">
        <ele>382</ele>
        <time>2025-11-11T09:23:09Z</time>
      </trkpt>
      <trkpt lat="45.67196" lon="4.68239">
        <ele>382.2</ele>
        <time>2025-11-11T09:23:10Z</time>
      </trkpt>
      <trkpt lat="45.67196" lon="4.68234">
        <ele>382.4</ele>
        <time>2025-11-11T09:23:11Z</time>
      </trkpt>
      <trkpt lat="45.67196" lon="4.68228">
        <ele>382.4</ele>
        <time>2025-11-11T09:23:12Z</time>
      </trkpt>
      <trkpt lat="45.67196" lon="4.68222">
        <ele>382.6</ele>
        <time>2025-11-11T09:23:13Z</time>
      </trkpt>
      <trkpt lat="45.67196" lon="4.68216">
        <ele>382.8</ele>
        <time>2025-11-11T09:23:14Z</time>
      </trkpt>
      <trkpt lat="45.67196" lon="4.6821">
        <ele>383</ele>
        <time>2025-11-11T09:23:15Z</time>
      </trkpt>
      <trkpt lat="45.67196" lon="4.68205">
        <ele>383.2</ele>
        <time>2025-11-11T09:23:16Z</time>
      </trkpt>
      <trkpt lat="45.67197" lon="4.68199">
        <ele>383.2</ele>
        <time>2025-11-11T09:23:17Z</time>
      </trkpt>
      <trkpt lat="45.67197" lon="4.68193">
        <ele>383.4</ele>
        <time>2025-11-11T09:23:18Z</time>
      </trkpt>
      <trkpt lat="45.67199" lon="4.68188">
        <ele>383.6</ele>
        <time>2025-11-11T09:23:19Z</time>
      </trkpt>
      <trkpt lat="45.672" lon="4.68182">
        <ele>383.8</ele>
        <time>2025-11-11T09:23:20Z</time>
      </trkpt>
      <trkpt lat="45.67201" lon="4.68177">
        <ele>384</ele>
        <time>2025-11-11T09:23:21Z</time>
      </trkpt>
      <trkpt lat="45.67203" lon="4.68172">
        <ele>384.2</ele>
        <time>2025-11-11T09:23:22Z</time>
      </trkpt>
      <trkpt lat="45.67204" lon="4.68167">
        <ele>384.2</ele>
        <time>2025-11-11T09:23:23Z</time>
      </trkpt>
      <trkpt lat="45.67205" lon="4.68162">
        <ele>384.4</ele>
        <time>2025-11-11T09:23:24Z</time>
      </trkpt>
      <trkpt lat="45.67207" lon="4.68156">
        <ele>384.6</ele>
        <time>2025-11-11T09:23:25Z</time>
      </trkpt>
      <trkpt lat="45.67208" lon="4.68151">
        <ele>384.8</ele>
        <time>2025-11-11T09:23:26Z</time>
      </trkpt>
      <trkpt lat="45.6721" lon="4.68146">
        <ele>384.8</ele>
        <time>2025-11-11T09:23:27Z</time>
      </trkpt>
      <trkpt lat="45.67211" lon="4.68141">
        <ele>385</ele>
        <time>2025-11-11T09:23:28Z</time>
      </trkpt>
      <trkpt lat="45.67213" lon="4.68136">
        <ele>385</ele>
        <time>2025-11-11T09:23:29Z</time>
      </trkpt>
      <trkpt lat="45.67215" lon="4.68131">
        <ele>385.2</ele>
        <time>2025-11-11T09:23:30Z</time>
      </trkpt>
      <trkpt lat="45.67216" lon="4.68126">
        <ele>385.4</ele>
        <time>2025-11-11T09:23:31Z</time>
      </trkpt>
      <trkpt lat="45.67218" lon="4.68121">
        <ele>385.4</ele>
        <time>2025-11-11T09:23:32Z</time>
      </trkpt>
      <trkpt lat="45.6722" lon="4.68115">
        <ele>385.6</ele>
        <time>2025-11-11T09:23:33Z</time>
      </trkpt>
      <trkpt lat="45.67221" lon="4.6811">
        <ele>385.8</ele>
        <time>2025-11-11T09:23:34Z</time>
      </trkpt>
      <trkpt lat="45.67223" lon="4.68105">
        <ele>385.8</ele>
        <time>2025-11-11T09:23:35Z</time>
      </trkpt>
      <trkpt lat="45.67223" lon="4.681">
        <ele>385.8</ele>
        <time>2025-11-11T09:23:36Z</time>
      </trkpt>
      <trkpt lat="45.67223" lon="4.68094">
        <ele>386</ele>
        <time>2025-11-11T09:23:37Z</time>
      </trkpt>
      <trkpt lat="45.67222" lon="4.68089">
        <ele>386</ele>
        <time>2025-11-11T09:23:38Z</time>
      </trkpt>
      <trkpt lat="45.6722" lon="4.68084">
        <ele>386.2</ele>
        <time>2025-11-11T09:23:39Z</time>
      </trkpt>
      <trkpt lat="45.67218" lon="4.68079">
        <ele>386.4</ele>
        <time>2025-11-11T09:23:40Z</time>
      </trkpt>
      <trkpt lat="45.67216" lon="4.68074">
        <ele>386.6</ele>
        <time>2025-11-11T09:23:41Z</time>
      </trkpt>
      <trkpt lat="45.67215" lon="4.68069">
        <ele>386.8</ele>
        <time>2025-11-11T09:23:42Z</time>
      </trkpt>
      <trkpt lat="45.67213" lon="4.68065">
        <ele>387</ele>
        <time>2025-11-11T09:23:43Z</time>
      </trkpt>
      <trkpt lat="45.67211" lon="4.6806">
        <ele>387.2</ele>
        <time>2025-11-11T09:23:44Z</time>
      </trkpt>
      <trkpt lat="45.6721" lon="4.68055">
        <ele>387.4</ele>
        <time>2025-11-11T09:23:45Z</time>
      </trkpt>
      <trkpt lat="45.67208" lon="4.68051">
        <ele>387.8</ele>
        <time>2025-11-11T09:23:46Z</time>
      </trkpt>
      <trkpt lat="45.67207" lon="4.68046">
        <ele>388</ele>
        <time>2025-11-11T09:23:47Z</time>
      </trkpt>
      <trkpt lat="45.67206" lon="4.68042">
        <ele>388.2</ele>
        <time>2025-11-11T09:23:48Z</time>
      </trkpt>
      <trkpt lat="45.67204" lon="4.68037">
        <ele>388.4</ele>
        <time>2025-11-11T09:23:49Z</time>
      </trkpt>
      <trkpt lat="45.67202" lon="4.68033">
        <ele>388.6</ele>
        <time>2025-11-11T09:23:50Z</time>
      </trkpt>
      <trkpt lat="45.67201" lon="4.68029">
        <ele>388.6</ele>
        <time>2025-11-11T09:23:51Z</time>
      </trkpt>
      <trkpt lat="45.67199" lon="4.68025">
        <ele>388.8</ele>
        <time>2025-11-11T09:23:52Z</time>
      </trkpt>
      <trkpt lat="45.67197" lon="4.68021">
        <ele>389</ele>
        <time>2025-11-11T09:23:53Z</time>
      </trkpt>
      <trkpt lat="45.67196" lon="4.68016">
        <ele>389.2</ele>
        <time>2025-11-11T09:23:54Z</time>
      </trkpt>
      <trkpt lat="45.67194" lon="4.68012">
        <ele>389.4</ele>
        <time>2025-11-11T09:23:55Z</time>
      </trkpt>
      <trkpt lat="45.67193" lon="4.68007">
        <ele>389.6</ele>
        <time>2025-11-11T09:23:56Z</time>
      </trkpt>
      <trkpt lat="45.67191" lon="4.68003">
        <ele>390</ele>
        <time>2025-11-11T09:23:57Z</time>
      </trkpt>
      <trkpt lat="45.67189" lon="4.67998">
        <ele>390</ele>
        <time>2025-11-11T09:23:58Z</time>
      </trkpt>
      <trkpt lat="45.67188" lon="4.67992">
        <ele>390.2</ele>
        <time>2025-11-11T09:23:59Z</time>
      </trkpt>
      <trkpt lat="45.67187" lon="4.67987">
        <ele>390.4</ele>
        <time>2025-11-11T09:24:00Z</time>
      </trkpt>
      <trkpt lat="45.67185" lon="4.67982">
        <ele>390.6</ele>
        <time>2025-11-11T09:24:01Z</time>
      </trkpt>
      <trkpt lat="45.67184" lon="4.67976">
        <ele>390.6</ele>
        <time>2025-11-11T09:24:02Z</time>
      </trkpt>
      <trkpt lat="45.67183" lon="4.67971">
        <ele>390.8</ele>
        <time>2025-11-11T09:24:03Z</time>
      </trkpt>
      <trkpt lat="45.67182" lon="4.67966">
        <ele>391</ele>
        <time>2025-11-11T09:24:04Z</time>
      </trkpt>
      <trkpt lat="45.6718" lon="4.6796">
        <ele>391.2</ele>
        <time>2025-11-11T09:24:05Z</time>
      </trkpt>
      <trkpt lat="45.67179" lon="4.67955">
        <ele>391.4</ele>
        <time>2025-11-11T09:24:06Z</time>
      </trkpt>
      <trkpt lat="45.67178" lon="4.6795">
        <ele>391.6</ele>
        <time>2025-11-11T09:24:07Z</time>
      </trkpt>
      <trkpt lat="45.67177" lon="4.67945">
        <ele>391.8</ele>
        <time>2025-11-11T09:24:08Z</time>
      </trkpt>
      <trkpt lat="45.67176" lon="4.6794">
        <ele>391.8</ele>
        <time>2025-11-11T09:24:09Z</time>
      </trkpt>
      <trkpt lat="45.67175" lon="4.67935">
        <ele>392</ele>
        <time>2025-11-11T09:24:10Z</time>
      </trkpt>
      <trkpt lat="45.67173" lon="4.67929">
        <ele>392.2</ele>
        <time>2025-11-11T09:24:11Z</time>
      </trkpt>
      <trkpt lat="45.67172" lon="4.67924">
        <ele>392.4</ele>
        <time>2025-11-11T09:24:12Z</time>
      </trkpt>
      <trkpt lat="45.6717" lon="4.67919">
        <ele>392.6</ele>
        <time>2025-11-11T09:24:13Z</time>
      </trkpt>
      <trkpt lat="45.67169" lon="4.67914">
        <ele>392.8</ele>
        <time>2025-11-11T09:24:14Z</time>
      </trkpt>
      <trkpt lat="45.67167" lon="4.6791">
        <ele>393</ele>
        <time>2025-11-11T09:24:15Z</time>
      </trkpt>
      <trkpt lat="45.67166" lon="4.67905">
        <ele>393.2</ele>
        <time>2025-11-11T09:24:16Z</time>
      </trkpt>
      <trkpt lat="45.67165" lon="4.679">
        <ele>393.6</ele>
        <time>2025-11-11T09:24:17Z</time>
      </trkpt>
      <trkpt lat="45.67163" lon="4.67895">
        <ele>393.8</ele>
        <time>2025-11-11T09:24:18Z</time>
      </trkpt>
      <trkpt lat="45.67162" lon="4.67889">
        <ele>394.2</ele>
        <time>2025-11-11T09:24:19Z</time>
      </trkpt>
      <trkpt lat="45.67161" lon="4.67884">
        <ele>394.4</ele>
        <time>2025-11-11T09:24:20Z</time>
      </trkpt>
      <trkpt lat="45.6716" lon="4.67879">
        <ele>394.6</ele>
        <time>2025-11-11T09:24:21Z</time>
      </trkpt>
      <trkpt lat="45.67159" lon="4.67874">
        <ele>394.8</ele>
        <time>2025-11-11T09:24:22Z</time>
      </trkpt>
      <trkpt lat="45.67159" lon="4.67869">
        <ele>395.2</ele>
        <time>2025-11-11T09:24:23Z</time>
      </trkpt>
      <trkpt lat="45.67158" lon="4.67864">
        <ele>395.4</ele>
        <time>2025-11-11T09:24:24Z</time>
      </trkpt>
      <trkpt lat="45.67157" lon="4.67858">
        <ele>395.6</ele>
        <time>2025-11-11T09:24:25Z</time>
      </trkpt>
      <trkpt lat="45.67156" lon="4.67854">
        <ele>395.8</ele>
        <time>2025-11-11T09:24:26Z</time>
      </trkpt>
      <trkpt lat="45.67155" lon="4.67849">
        <ele>396</ele>
        <time>2025-11-11T09:24:27Z</time>
      </trkpt>
      <trkpt lat="45.67154" lon="4.67844">
        <ele>396.4</ele>
        <time>2025-11-11T09:24:28Z</time>
      </trkpt>
      <trkpt lat="45.67153" lon="4.67839">
        <ele>396.6</ele>
        <time>2025-11-11T09:24:29Z</time>
      </trkpt>
      <trkpt lat="45.67152" lon="4.67835">
        <ele>397</ele>
        <time>2025-11-11T09:24:30Z</time>
      </trkpt>
      <trkpt lat="45.67152" lon="4.6783">
        <ele>397.2</ele>
        <time>2025-11-11T09:24:31Z</time>
      </trkpt>
      <trkpt lat="45.67151" lon="4.67825">
        <ele>397.4</ele>
        <time>2025-11-11T09:24:32Z</time>
      </trkpt>
      <trkpt lat="45.6715" lon="4.6782">
        <ele>397.6</ele>
        <time>2025-11-11T09:24:33Z</time>
      </trkpt>
      <trkpt lat="45.6715" lon="4.67815">
        <ele>397.8</ele>
        <time>2025-11-11T09:24:34Z</time>
      </trkpt>
      <trkpt lat="45.67149" lon="4.67809">
        <ele>398</ele>
        <time>2025-11-11T09:24:35Z</time>
      </trkpt>
      <trkpt lat="45.67149" lon="4.67804">
        <ele>398.2</ele>
        <time>2025-11-11T09:24:36Z</time>
      </trkpt>
      <trkpt lat="45.67148" lon="4.67798">
        <ele>398.4</ele>
        <time>2025-11-11T09:24:37Z</time>
      </trkpt>
      <trkpt lat="45.67148" lon="4.67793">
        <ele>398.6</ele>
        <time>2025-11-11T09:24:38Z</time>
      </trkpt>
      <trkpt lat="45.67148" lon="4.67788">
        <ele>398.8</ele>
        <time>2025-11-11T09:24:39Z</time>
      </trkpt>
      <trkpt lat="45.67148" lon="4.67782">
        <ele>398.8</ele>
        <time>2025-11-11T09:24:40Z</time>
      </trkpt>
      <trkpt lat="45.67148" lon="4.67777">
        <ele>399</ele>
        <time>2025-11-11T09:24:41Z</time>
      </trkpt>
      <trkpt lat="45.67147" lon="4.67772">
        <ele>399.2</ele>
        <time>2025-11-11T09:24:42Z</time>
      </trkpt>
      <trkpt lat="45.67147" lon="4.67767">
        <ele>399.4</ele>
        <time>2025-11-11T09:24:43Z</time>
      </trkpt>
      <trkpt lat="45.67147" lon="4.67762">
        <ele>399.6</ele>
        <time>2025-11-11T09:24:44Z</time>
      </trkpt>
      <trkpt lat="45.67148" lon="4.67757">
        <ele>399.8</ele>
        <time>2025-11-11T09:24:45Z</time>
      </trkpt>
      <trkpt lat="45.67148" lon="4.67752">
        <ele>400</ele>
        <time>2025-11-11T09:24:46Z</time>
      </trkpt>
      <trkpt lat="45.67148" lon="4.67747">
        <ele>400.2</ele>
        <time>2025-11-11T09:24:47Z</time>
      </trkpt>
      <trkpt lat="45.67148" lon="4.67742">
        <ele>400.4</ele>
        <time>2025-11-11T09:24:48Z</time>
      </trkpt>
      <trkpt lat="45.67148" lon="4.67737">
        <ele>400.6</ele>
        <time>2025-11-11T09:24:49Z</time>
      </trkpt>
      <trkpt lat="45.67149" lon="4.67732">
        <ele>400.8</ele>
        <time>2025-11-11T09:24:50Z</time>
      </trkpt>
      <trkpt lat="45.67149" lon="4.67727">
        <ele>401</ele>
        <time>2025-11-11T09:24:51Z</time>
      </trkpt>
      <trkpt lat="45.67148" lon="4.67722">
        <ele>401.2</ele>
        <time>2025-11-11T09:24:52Z</time>
      </trkpt>
      <trkpt lat="45.67148" lon="4.67717">
        <ele>401.6</ele>
        <time>2025-11-11T09:24:53Z</time>
      </trkpt>
      <trkpt lat="45.67147" lon="4.67713">
        <ele>401.8</ele>
        <time>2025-11-11T09:24:54Z</time>
      </trkpt>
      <trkpt lat="45.67145" lon="4.67708">
        <ele>402</ele>
        <time>2025-11-11T09:24:55Z</time>
      </trkpt>
      <trkpt lat="45.67144" lon="4.67704">
        <ele>402.2</ele>
        <time>2025-11-11T09:24:56Z</time>
      </trkpt>
      <trkpt lat="45.67142" lon="4.677">
        <ele>402.4</ele>
        <time>2025-11-11T09:24:57Z</time>
      </trkpt>
      <trkpt lat="45.6714" lon="4.67695">
        <ele>402.8</ele>
        <time>2025-11-11T09:24:58Z</time>
      </trkpt>
      <trkpt lat="45.67138" lon="4.67691">
        <ele>403</ele>
        <time>2025-11-11T09:24:59Z</time>
      </trkpt>
      <trkpt lat="45.67137" lon="4.67686">
        <ele>403.4</ele>
        <time>2025-11-11T09:25:00Z</time>
      </trkpt>
      <trkpt lat="45.67135" lon="4.67682">
        <ele>403.6</ele>
        <time>2025-11-11T09:25:01Z</time>
      </trkpt>
      <trkpt lat="45.67133" lon="4.67678">
        <ele>404</ele>
        <time>2025-11-11T09:25:02Z</time>
      </trkpt>
      <trkpt lat="45.67132" lon="4.67674">
        <ele>404.2</ele>
        <time>2025-11-11T09:25:03Z</time>
      </trkpt>
      <trkpt lat="45.6713" lon="4.6767">
        <ele>404.4</ele>
        <time>2025-11-11T09:25:04Z</time>
      </trkpt>
      <trkpt lat="45.67128" lon="4.67665">
        <ele>404.8</ele>
        <time>2025-11-11T09:25:05Z</time>
      </trkpt>
      <trkpt lat="45.67127" lon="4.67661">
        <ele>405</ele>
        <time>2025-11-11T09:25:06Z</time>
      </trkpt>
      <trkpt lat="45.67125" lon="4.67656">
        <ele>405.2</ele>
        <time>2025-11-11T09:25:07Z</time>
      </trkpt>
      <trkpt lat="45.67123" lon="4.67651">
        <ele>405.4</ele>
        <time>2025-11-11T09:25:08Z</time>
      </trkpt>
      <trkpt lat="45.67121" lon="4.67645">
        <ele>405.4</ele>
        <time>2025-11-11T09:25:09Z</time>
      </trkpt>
      <trkpt lat="45.67121" lon="4.67639">
        <ele>405.4</ele>
        <time>2025-11-11T09:25:10Z</time>
      </trkpt>
      <trkpt lat="45.6712" lon="4.67633">
        <ele>405.4</ele>
        <time>2025-11-11T09:25:11Z</time>
      </trkpt>
      <trkpt lat="45.67121" lon="4.67627">
        <ele>405.4</ele>
        <time>2025-11-11T09:25:12Z</time>
      </trkpt>
      <trkpt lat="45.67121" lon="4.67621">
        <ele>405.4</ele>
        <time>2025-11-11T09:25:13Z</time>
      </trkpt>
      <trkpt lat="45.67122" lon="4.67615">
        <ele>405.2</ele>
        <time>2025-11-11T09:25:14Z</time>
      </trkpt>
      <trkpt lat="45.67123" lon="4.67609">
        <ele>405.2</ele>
        <time>2025-11-11T09:25:15Z</time>
      </trkpt>
      <trkpt lat="45.67124" lon="4.67602">
        <ele>405.2</ele>
        <time>2025-11-11T09:25:16Z</time>
      </trkpt>
      <trkpt lat="45.67125" lon="4.67596">
        <ele>405.2</ele>
        <time>2025-11-11T09:25:17Z</time>
      </trkpt>
      <trkpt lat="45.67125" lon="4.6759">
        <ele>405.2</ele>
        <time>2025-11-11T09:25:18Z</time>
      </trkpt>
      <trkpt lat="45.67126" lon="4.67584">
        <ele>405.2</ele>
        <time>2025-11-11T09:25:19Z</time>
      </trkpt>
      <trkpt lat="45.67126" lon="4.67577">
        <ele>405.2</ele>
        <time>2025-11-11T09:25:20Z</time>
      </trkpt>
      <trkpt lat="45.67126" lon="4.6757">
        <ele>405.2</ele>
        <time>2025-11-11T09:25:21Z</time>
      </trkpt>
      <trkpt lat="45.67125" lon="4.67563">
        <ele>405</ele>
        <time>2025-11-11T09:25:22Z</time>
      </trkpt>
      <trkpt lat="45.67124" lon="4.67556">
        <ele>405</ele>
        <time>2025-11-11T09:25:23Z</time>
      </trkpt>
      <trkpt lat="45.67123" lon="4.67549">
        <ele>404.8</ele>
        <time>2025-11-11T09:25:24Z</time>
      </trkpt>
      <trkpt lat="45.67122" lon="4.67542">
        <ele>404.8</ele>
        <time>2025-11-11T09:25:25Z</time>
      </trkpt>
      <trkpt lat="45.6712" lon="4.67535">
        <ele>404.6</ele>
        <time>2025-11-11T09:25:26Z</time>
      </trkpt>
      <trkpt lat="45.67119" lon="4.67528">
        <ele>404.6</ele>
        <time>2025-11-11T09:25:27Z</time>
      </trkpt>
      <trkpt lat="45.67117" lon="4.67523">
        <ele>404.6</ele>
        <time>2025-11-11T09:25:28Z</time>
      </trkpt>
      <trkpt lat="45.67114" lon="4.67517">
        <ele>404.4</ele>
        <time>2025-11-11T09:25:29Z</time>
      </trkpt>
      <trkpt lat="45.67112" lon="4.6751">
        <ele>404.4</ele>
        <time>2025-11-11T09:25:30Z</time>
      </trkpt>
      <trkpt lat="45.6711" lon="4.67504">
        <ele>404.4</ele>
        <time>2025-11-11T09:25:31Z</time>
      </trkpt>
      <trkpt lat="45.67108" lon="4.67497">
        <ele>404.4</ele>
        <time>2025-11-11T09:25:32Z</time>
      </trkpt>
      <trkpt lat="45.67106" lon="4.67491">
        <ele>404.6</ele>
        <time>2025-11-11T09:25:33Z</time>
      </trkpt>
      <trkpt lat="45.67104" lon="4.67485">
        <ele>404.6</ele>
        <time>2025-11-11T09:25:34Z</time>
      </trkpt>
      <trkpt lat="45.67102" lon="4.67479">
        <ele>404.6</ele>
        <time>2025-11-11T09:25:35Z</time>
      </trkpt>
      <trkpt lat="45.67099" lon="4.67474">
        <ele>404.8</ele>
        <time>2025-11-11T09:25:36Z</time>
      </trkpt>
      <trkpt lat="45.67097" lon="4.67468">
        <ele>405</ele>
        <time>2025-11-11T09:25:37Z</time>
      </trkpt>
      <trkpt lat="45.67095" lon="4.67462">
        <ele>405.2</ele>
        <time>2025-11-11T09:25:38Z</time>
      </trkpt>
      <trkpt lat="45.67093" lon="4.67456">
        <ele>405.4</ele>
        <time>2025-11-11T09:25:39Z</time>
      </trkpt>
      <trkpt lat="45.67092" lon="4.67451">
        <ele>405.6</ele>
        <time>2025-11-11T09:25:40Z</time>
      </trkpt>
      <trkpt lat="45.6709" lon="4.67446">
        <ele>405.8</ele>
        <time>2025-11-11T09:25:41Z</time>
      </trkpt>
      <trkpt lat="45.67088" lon="4.67441">
        <ele>406.2</ele>
        <time>2025-11-11T09:25:42Z</time>
      </trkpt>
      <trkpt lat="45.67086" lon="4.67436">
        <ele>406.4</ele>
        <time>2025-11-11T09:25:43Z</time>
      </trkpt>
      <trkpt lat="45.67084" lon="4.67432">
        <ele>406.6</ele>
        <time>2025-11-11T09:25:44Z</time>
      </trkpt>
      <trkpt lat="45.67082" lon="4.67428">
        <ele>407.2</ele>
        <time>2025-11-11T09:25:45Z</time>
      </trkpt>
      <trkpt lat="45.6708" lon="4.67423">
        <ele>407.4</ele>
        <time>2025-11-11T09:25:46Z</time>
      </trkpt>
      <trkpt lat="45.67077" lon="4.67418">
        <ele>407.6</ele>
        <time>2025-11-11T09:25:47Z</time>
      </trkpt>
      <trkpt lat="45.67075" lon="4.67413">
        <ele>408</ele>
        <time>2025-11-11T09:25:48Z</time>
      </trkpt>
      <trkpt lat="45.67073" lon="4.67409">
        <ele>408.2</ele>
        <time>2025-11-11T09:25:49Z</time>
      </trkpt>
      <trkpt lat="45.6707" lon="4.67404">
        <ele>408.4</ele>
        <time>2025-11-11T09:25:50Z</time>
      </trkpt>
      <trkpt lat="45.67067" lon="4.674">
        <ele>408.6</ele>
        <time>2025-11-11T09:25:51Z</time>
      </trkpt>
      <trkpt lat="45.67064" lon="4.67395">
        <ele>408.8</ele>
        <time>2025-11-11T09:25:52Z</time>
      </trkpt>
      <trkpt lat="45.67062" lon="4.6739">
        <ele>408.8</ele>
        <time>2025-11-11T09:25:53Z</time>
      </trkpt>
      <trkpt lat="45.67059" lon="4.67385">
        <ele>409</ele>
        <time>2025-11-11T09:25:54Z</time>
      </trkpt>
      <trkpt lat="45.67057" lon="4.67381">
        <ele>409</ele>
        <time>2025-11-11T09:25:55Z</time>
      </trkpt>
      <trkpt lat="45.67054" lon="4.67376">
        <ele>409.2</ele>
        <time>2025-11-11T09:25:56Z</time>
      </trkpt>
      <trkpt lat="45.67052" lon="4.67371">
        <ele>409.4</ele>
        <time>2025-11-11T09:25:57Z</time>
      </trkpt>
      <trkpt lat="45.67049" lon="4.67365">
        <ele>409.6</ele>
        <time>2025-11-11T09:25:58Z</time>
      </trkpt>
      <trkpt lat="45.67047" lon="4.6736">
        <ele>409.6</ele>
        <time>2025-11-11T09:25:59Z</time>
      </trkpt>
      <trkpt lat="45.67046" lon="4.67354">
        <ele>409.6</ele>
        <time>2025-11-11T09:26:00Z</time>
      </trkpt>
      <trkpt lat="45.67044" lon="4.67348">
        <ele>409.8</ele>
        <time>2025-11-11T09:26:01Z</time>
      </trkpt>
      <trkpt lat="45.67042" lon="4.67343">
        <ele>409.8</ele>
        <time>2025-11-11T09:26:02Z</time>
      </trkpt>
      <trkpt lat="45.67041" lon="4.67337">
        <ele>409.8</ele>
        <time>2025-11-11T09:26:03Z</time>
      </trkpt>
      <trkpt lat="45.67039" lon="4.67332">
        <ele>409.8</ele>
        <time>2025-11-11T09:26:04Z</time>
      </trkpt>
      <trkpt lat="45.67037" lon="4.67326">
        <ele>410</ele>
        <time>2025-11-11T09:26:05Z</time>
      </trkpt>
      <trkpt lat="45.67036" lon="4.67321">
        <ele>410.2</ele>
        <time>2025-11-11T09:26:06Z</time>
      </trkpt>
      <trkpt lat="45.67034" lon="4.67316">
        <ele>410.2</ele>
        <time>2025-11-11T09:26:07Z</time>
      </trkpt>
      <trkpt lat="45.67032" lon="4.6731">
        <ele>410.4</ele>
        <time>2025-11-11T09:26:08Z</time>
      </trkpt>
      <trkpt lat="45.67031" lon="4.67305">
        <ele>410.8</ele>
        <time>2025-11-11T09:26:09Z</time>
      </trkpt>
      <trkpt lat="45.6703" lon="4.673">
        <ele>410.8</ele>
        <time>2025-11-11T09:26:10Z</time>
      </trkpt>
      <trkpt lat="45.67028" lon="4.67294">
        <ele>411</ele>
        <time>2025-11-11T09:26:11Z</time>
      </trkpt>
      <trkpt lat="45.67027" lon="4.67289">
        <ele>411.2</ele>
        <time>2025-11-11T09:26:12Z</time>
      </trkpt>
      <trkpt lat="45.67026" lon="4.67284">
        <ele>411.6</ele>
        <time>2025-11-11T09:26:13Z</time>
      </trkpt>
      <trkpt lat="45.67024" lon="4.67279">
        <ele>411.6</ele>
        <time>2025-11-11T09:26:14Z</time>
      </trkpt>
      <trkpt lat="45.67023" lon="4.67274">
        <ele>411.6</ele>
        <time>2025-11-11T09:26:15Z</time>
      </trkpt>
      <trkpt lat="45.6702" lon="4.6727">
        <ele>411.8</ele>
        <time>2025-11-11T09:26:16Z</time>
      </trkpt>
      <trkpt lat="45.67017" lon="4.67265">
        <ele>411.6</ele>
        <time>2025-11-11T09:26:17Z</time>
      </trkpt>
      <trkpt lat="45.67014" lon="4.6726">
        <ele>411.6</ele>
        <time>2025-11-11T09:26:18Z</time>
      </trkpt>
      <trkpt lat="45.6701" lon="4.67254">
        <ele>411.4</ele>
        <time>2025-11-11T09:26:19Z</time>
      </trkpt>
      <trkpt lat="45.67007" lon="4.67249">
        <ele>411.2</ele>
        <time>2025-11-11T09:26:20Z</time>
      </trkpt>
      <trkpt lat="45.67003" lon="4.67244">
        <ele>411</ele>
        <time>2025-11-11T09:26:21Z</time>
      </trkpt>
      <trkpt lat="45.67" lon="4.67239">
        <ele>411</ele>
        <time>2025-11-11T09:26:22Z</time>
      </trkpt>
      <trkpt lat="45.66997" lon="4.67234">
        <ele>410.8</ele>
        <time>2025-11-11T09:26:23Z</time>
      </trkpt>
      <trkpt lat="45.66994" lon="4.67228">
        <ele>410.6</ele>
        <time>2025-11-11T09:26:24Z</time>
      </trkpt>
      <trkpt lat="45.66991" lon="4.67222">
        <ele>410.4</ele>
        <time>2025-11-11T09:26:25Z</time>
      </trkpt>
      <trkpt lat="45.66989" lon="4.67214">
        <ele>410</ele>
        <time>2025-11-11T09:26:26Z</time>
      </trkpt>
      <trkpt lat="45.66987" lon="4.67206">
        <ele>409.6</ele>
        <time>2025-11-11T09:26:27Z</time>
      </trkpt>
      <trkpt lat="45.66985" lon="4.67198">
        <ele>409.2</ele>
        <time>2025-11-11T09:26:28Z</time>
      </trkpt>
      <trkpt lat="45.66983" lon="4.67191">
        <ele>409</ele>
        <time>2025-11-11T09:26:29Z</time>
      </trkpt>
      <trkpt lat="45.66981" lon="4.67184">
        <ele>408.8</ele>
        <time>2025-11-11T09:26:30Z</time>
      </trkpt>
      <trkpt lat="45.6698" lon="4.67177">
        <ele>408.8</ele>
        <time>2025-11-11T09:26:31Z</time>
      </trkpt>
      <trkpt lat="45.66978" lon="4.6717">
        <ele>408.8</ele>
        <time>2025-11-11T09:26:32Z</time>
      </trkpt>
      <trkpt lat="45.66976" lon="4.67164">
        <ele>408.8</ele>
        <time>2025-11-11T09:26:33Z</time>
      </trkpt>
      <trkpt lat="45.66975" lon="4.67157">
        <ele>409</ele>
        <time>2025-11-11T09:26:34Z</time>
      </trkpt>
      <trkpt lat="45.66973" lon="4.67152">
        <ele>409</ele>
        <time>2025-11-11T09:26:35Z</time>
      </trkpt>
      <trkpt lat="45.66971" lon="4.67146">
        <ele>409.2</ele>
        <time>2025-11-11T09:26:36Z</time>
      </trkpt>
      <trkpt lat="45.66969" lon="4.6714">
        <ele>409.4</ele>
        <time>2025-11-11T09:26:37Z</time>
      </trkpt>
      <trkpt lat="45.66967" lon="4.67135">
        <ele>409.4</ele>
        <time>2025-11-11T09:26:38Z</time>
      </trkpt>
      <trkpt lat="45.66965" lon="4.6713">
        <ele>409.4</ele>
        <time>2025-11-11T09:26:39Z</time>
      </trkpt>
      <trkpt lat="45.66962" lon="4.67126">
        <ele>409.6</ele>
        <time>2025-11-11T09:26:40Z</time>
      </trkpt>
      <trkpt lat="45.66958" lon="4.67125">
        <ele>409.6</ele>
        <time>2025-11-11T09:26:41Z</time>
      </trkpt>
      <trkpt lat="45.66954" lon="4.67124">
        <ele>409.8</ele>
        <time>2025-11-11T09:26:42Z</time>
      </trkpt>
      <trkpt lat="45.66951" lon="4.67124">
        <ele>410.2</ele>
        <time>2025-11-11T09:26:43Z</time>
      </trkpt>
      <trkpt lat="45.66948" lon="4.67123">
        <ele>410.4</ele>
        <time>2025-11-11T09:26:44Z</time>
      </trkpt>
      <trkpt lat="45.66945" lon="4.67121">
        <ele>410.6</ele>
        <time>2025-11-11T09:26:45Z</time>
      </trkpt>
      <trkpt lat="45.66942" lon="4.67117">
        <ele>410.8</ele>
        <time>2025-11-11T09:26:46Z</time>
      </trkpt>
      <trkpt lat="45.6694" lon="4.67113">
        <ele>410.8</ele>
        <time>2025-11-11T09:26:47Z</time>
      </trkpt>
      <trkpt lat="45.66937" lon="4.6711">
        <ele>411</ele>
        <time>2025-11-11T09:26:48Z</time>
      </trkpt>
      <trkpt lat="45.66935" lon="4.67107">
        <ele>411.4</ele>
        <time>2025-11-11T09:26:49Z</time>
      </trkpt>
      <trkpt lat="45.66934" lon="4.67104">
        <ele>411.8</ele>
        <time>2025-11-11T09:26:50Z</time>
      </trkpt>
      <trkpt lat="45.66933" lon="4.671">
        <ele>412</ele>
        <time>2025-11-11T09:26:51Z</time>
      </trkpt>
      <trkpt lat="45.66932" lon="4.67096">
        <ele>412.6</ele>
        <time>2025-11-11T09:26:52Z</time>
      </trkpt>
      <trkpt lat="45.66932" lon="4.67092">
        <ele>412.8</ele>
        <time>2025-11-11T09:26:53Z</time>
      </trkpt>
      <trkpt lat="45.66931" lon="4.67089">
        <ele>413.2</ele>
        <time>2025-11-11T09:26:54Z</time>
      </trkpt>
      <trkpt lat="45.66931" lon="4.67086">
        <ele>413.4</ele>
        <time>2025-11-11T09:26:55Z</time>
      </trkpt>
      <trkpt lat="45.66931" lon="4.67083">
        <ele>413.8</ele>
        <time>2025-11-11T09:26:56Z</time>
      </trkpt>
      <trkpt lat="45.6693" lon="4.67079">
        <ele>414</ele>
        <time>2025-11-11T09:26:57Z</time>
      </trkpt>
      <trkpt lat="45.66929" lon="4.67075">
        <ele>414</ele>
        <time>2025-11-11T09:26:58Z</time>
      </trkpt>
      <trkpt lat="45.66927" lon="4.67072">
        <ele>414.2</ele>
        <time>2025-11-11T09:26:59Z</time>
      </trkpt>
      <trkpt lat="45.66926" lon="4.6707">
        <ele>414.4</ele>
        <time>2025-11-11T09:27:00Z</time>
      </trkpt>
      <trkpt lat="45.66924" lon="4.67067">
        <ele>414.6</ele>
        <time>2025-11-11T09:27:01Z</time>
      </trkpt>
      <trkpt lat="45.66922" lon="4.67065">
        <ele>414.8</ele>
        <time>2025-11-11T09:27:02Z</time>
      </trkpt>
      <trkpt lat="45.66921" lon="4.67062">
        <ele>414.8</ele>
        <time>2025-11-11T09:27:03Z</time>
      </trkpt>
      <trkpt lat="45.66919" lon="4.67059">
        <ele>415</ele>
        <time>2025-11-11T09:27:04Z</time>
      </trkpt>
      <trkpt lat="45.66917" lon="4.67056">
        <ele>415</ele>
        <time>2025-11-11T09:27:05Z</time>
      </trkpt>
      <trkpt lat="45.66915" lon="4.67052">
        <ele>415.2</ele>
        <time>2025-11-11T09:27:06Z</time>
      </trkpt>
      <trkpt lat="45.66913" lon="4.67048">
        <ele>415.2</ele>
        <time>2025-11-11T09:27:07Z</time>
      </trkpt>
      <trkpt lat="45.66911" lon="4.67044">
        <ele>415.2</ele>
        <time>2025-11-11T09:27:08Z</time>
      </trkpt>
      <trkpt lat="45.6691" lon="4.67041">
        <ele>415.2</ele>
        <time>2025-11-11T09:27:09Z</time>
      </trkpt>
      <trkpt lat="45.66908" lon="4.67037">
        <ele>415.2</ele>
        <time>2025-11-11T09:27:10Z</time>
      </trkpt>
      <trkpt lat="45.66907" lon="4.67033">
        <ele>415.2</ele>
        <time>2025-11-11T09:27:11Z</time>
      </trkpt>
      <trkpt lat="45.66905" lon="4.67029">
        <ele>415.2</ele>
        <time>2025-11-11T09:27:12Z</time>
      </trkpt>
      <trkpt lat="45.66903" lon="4.67025">
        <ele>415.4</ele>
        <time>2025-11-11T09:27:13Z</time>
      </trkpt>
      <trkpt lat="45.66901" lon="4.67022">
        <ele>415.4</ele>
        <time>2025-11-11T09:27:14Z</time>
      </trkpt>
      <trkpt lat="45.66899" lon="4.67018">
        <ele>415.4</ele>
        <time>2025-11-11T09:27:15Z</time>
      </trkpt>
      <trkpt lat="45.66897" lon="4.67014">
        <ele>415.6</ele>
        <time>2025-11-11T09:27:16Z</time>
      </trkpt>
      <trkpt lat="45.66895" lon="4.6701">
        <ele>415.6</ele>
        <time>2025-11-11T09:27:17Z</time>
      </trkpt>
      <trkpt lat="45.66893" lon="4.67005">
        <ele>415.6</ele>
        <time>2025-11-11T09:27:18Z</time>
      </trkpt>
      <trkpt lat="45.6689" lon="4.67001">
        <ele>415.6</ele>
        <time>2025-11-11T09:27:19Z</time>
      </trkpt>
      <trkpt lat="45.66888" lon="4.66997">
        <ele>415.8</ele>
        <time>2025-11-11T09:27:20Z</time>
      </trkpt>
      <trkpt lat="45.66886" lon="4.66992">
        <ele>415.8</ele>
        <time>2025-11-11T09:27:21Z</time>
      </trkpt>
      <trkpt lat="45.66885" lon="4.66988">
        <ele>416</ele>
        <time>2025-11-11T09:27:22Z</time>
      </trkpt>
      <trkpt lat="45.66884" lon="4.66985">
        <ele>416.2</ele>
        <time>2025-11-11T09:27:23Z</time>
      </trkpt>
      <trkpt lat="45.66882" lon="4.66981">
        <ele>416.4</ele>
        <time>2025-11-11T09:27:24Z</time>
      </trkpt>
      <trkpt lat="45.6688" lon="4.66978">
        <ele>416.6</ele>
        <time>2025-11-11T09:27:25Z</time>
      </trkpt>
      <trkpt lat="45.66879" lon="4.66975">
        <ele>416.8</ele>
        <time>2025-11-11T09:27:26Z</time>
      </trkpt>
      <trkpt lat="45.66878" lon="4.66973">
        <ele>417</ele>
        <time>2025-11-11T09:27:27Z</time>
      </trkpt>
      <trkpt lat="45.66877" lon="4.6697">
        <ele>417.2</ele>
        <time>2025-11-11T09:27:28Z</time>
      </trkpt>
      <trkpt lat="45.66876" lon="4.66967">
        <ele>417.4</ele>
        <time>2025-11-11T09:27:29Z</time>
      </trkpt>
      <trkpt lat="45.66874" lon="4.66964">
        <ele>417.6</ele>
        <time>2025-11-11T09:27:30Z</time>
      </trkpt>
      <trkpt lat="45.66872" lon="4.6696">
        <ele>417.6</ele>
        <time>2025-11-11T09:27:31Z</time>
      </trkpt>
      <trkpt lat="45.66871" lon="4.66957">
        <ele>417.8</ele>
        <time>2025-11-11T09:27:32Z</time>
      </trkpt>
      <trkpt lat="45.66869" lon="4.66955">
        <ele>418</ele>
        <time>2025-11-11T09:27:33Z</time>
      </trkpt>
      <trkpt lat="45.66868" lon="4.66952">
        <ele>418.2</ele>
        <time>2025-11-11T09:27:34Z</time>
      </trkpt>
      <trkpt lat="45.66866" lon="4.66948">
        <ele>418.4</ele>
        <time>2025-11-11T09:27:35Z</time>
      </trkpt>
      <trkpt lat="45.66863" lon="4.66945">
        <ele>418.6</ele>
        <time>2025-11-11T09:27:36Z</time>
      </trkpt>
      <trkpt lat="45.66861" lon="4.66941">
        <ele>418.6</ele>
        <time>2025-11-11T09:27:37Z</time>
      </trkpt>
      <trkpt lat="45.6686" lon="4.66937">
        <ele>418.8</ele>
        <time>2025-11-11T09:27:38Z</time>
      </trkpt>
      <trkpt lat="45.66857" lon="4.66933">
        <ele>418.8</ele>
        <time>2025-11-11T09:27:39Z</time>
      </trkpt>
      <trkpt lat="45.66855" lon="4.66929">
        <ele>418.8</ele>
        <time>2025-11-11T09:27:40Z</time>
      </trkpt>
      <trkpt lat="45.66853" lon="4.66926">
        <ele>419</ele>
        <time>2025-11-11T09:27:41Z</time>
      </trkpt>
      <trkpt lat="45.6685" lon="4.66923">
        <ele>419</ele>
        <time>2025-11-11T09:27:42Z</time>
      </trkpt>
      <trkpt lat="45.66848" lon="4.66919">
        <ele>419</ele>
        <time>2025-11-11T09:27:43Z</time>
      </trkpt>
      <trkpt lat="45.66846" lon="4.66916">
        <ele>419.2</ele>
        <time>2025-11-11T09:27:44Z</time>
      </trkpt>
      <trkpt lat="45.66845" lon="4.66912">
        <ele>419.4</ele>
        <time>2025-11-11T09:27:45Z</time>
      </trkpt>
      <trkpt lat="45.66844" lon="4.66908">
        <ele>419.4</ele>
        <time>2025-11-11T09:27:46Z</time>
      </trkpt>
      <trkpt lat="45.66843" lon="4.66905">
        <ele>419.6</ele>
        <time>2025-11-11T09:27:47Z</time>
      </trkpt>
      <trkpt lat="45.66842" lon="4.66901">
        <ele>419.8</ele>
        <time>2025-11-11T09:27:48Z</time>
      </trkpt>
      <trkpt lat="45.6684" lon="4.66897">
        <ele>420</ele>
        <time>2025-11-11T09:27:49Z</time>
      </trkpt>
      <trkpt lat="45.66839" lon="4.66893">
        <ele>420.2</ele>
        <time>2025-11-11T09:27:50Z</time>
      </trkpt>
      <trkpt lat="45.66837" lon="4.6689">
        <ele>420.2</ele>
        <time>2025-11-11T09:27:51Z</time>
      </trkpt>
      <trkpt lat="45.66836" lon="4.66888">
        <ele>420.4</ele>
        <time>2025-11-11T09:27:52Z</time>
      </trkpt>
      <trkpt lat="45.66835" lon="4.66886">
        <ele>420.6</ele>
        <time>2025-11-11T09:27:53Z</time>
      </trkpt>
      <trkpt lat="45.66833" lon="4.66883">
        <ele>420.6</ele>
        <time>2025-11-11T09:27:54Z</time>
      </trkpt>
      <trkpt lat="45.66832" lon="4.6688">
        <ele>420.6</ele>
        <time>2025-11-11T09:27:55Z</time>
      </trkpt>
      <trkpt lat="45.66831" lon="4.66878">
        <ele>420.8</ele>
        <time>2025-11-11T09:27:56Z</time>
      </trkpt>
      <trkpt lat="45.66829" lon="4.66875">
        <ele>420.8</ele>
        <time>2025-11-11T09:27:57Z</time>
      </trkpt>
      <trkpt lat="45.66828" lon="4.66872">
        <ele>420.8</ele>
        <time>2025-11-11T09:27:58Z</time>
      </trkpt>
      <trkpt lat="45.66826" lon="4.66869">
        <ele>420.8</ele>
        <time>2025-11-11T09:27:59Z</time>
      </trkpt>
      <trkpt lat="45.66824" lon="4.66866">
        <ele>420.8</ele>
        <time>2025-11-11T09:28:00Z</time>
      </trkpt>
      <trkpt lat="45.66822" lon="4.66863">
        <ele>420.8</ele>
        <time>2025-11-11T09:28:01Z</time>
      </trkpt>
      <trkpt lat="45.6682" lon="4.6686">
        <ele>421</ele>
        <time>2025-11-11T09:28:02Z</time>
      </trkpt>
      <trkpt lat="45.66818" lon="4.66858">
        <ele>421</ele>
        <time>2025-11-11T09:28:03Z</time>
      </trkpt>
      <trkpt lat="45.66816" lon="4.66856">
        <ele>421.2</ele>
        <time>2025-11-11T09:28:04Z</time>
      </trkpt>
      <trkpt lat="45.66815" lon="4.66853">
        <ele>421.4</ele>
        <time>2025-11-11T09:28:05Z</time>
      </trkpt>
      <trkpt lat="45.66814" lon="4.66852">
        <ele>421.4</ele>
        <time>2025-11-11T09:28:06Z</time>
      </trkpt>
      <trkpt lat="45.66813" lon="4.66851">
        <ele>421.6</ele>
        <time>2025-11-11T09:28:07Z</time>
      </trkpt>
      <trkpt lat="45.66812" lon="4.66851">
        <ele>421.8</ele>
        <time>2025-11-11T09:28:08Z</time>
      </trkpt>
      <trkpt lat="45.66812" lon="4.66851">
        <ele>422</ele>
        <time>2025-11-11T09:28:09Z</time>
      </trkpt>
      <trkpt lat="45.66812" lon="4.66851">
        <ele>422.2</ele>
        <time>2025-11-11T09:28:10Z</time>
      </trkpt>
      <trkpt lat="45.66812" lon="4.66851">
        <ele>422.2</ele>
        <time>2025-11-11T09:28:11Z</time>
      </trkpt>
      <trkpt lat="45.66812" lon="4.66851">
        <ele>422.2</ele>
        <time>2025-11-11T09:28:12Z</time>
      </trkpt>
      <trkpt lat="45.66812" lon="4.66851">
        <ele>422.2</ele>
        <time>2025-11-11T09:28:13Z</time>
      </trkpt>
      <trkpt lat="45.66812" lon="4.66851">
        <ele>422.2</ele>
        <time>2025-11-11T09:28:14Z</time>
      </trkpt>
      <trkpt lat="45.66812" lon="4.66851">
        <ele>422.2</ele>
        <time>2025-11-11T09:28:15Z</time>
      </trkpt>
      <trkpt lat="45.66812" lon="4.66851">
        <ele>422.2</ele>
        <time>2025-11-11T09:28:16Z</time>
      </trkpt>
      <trkpt lat="45.66812" lon="4.66851">
        <ele>422.2</ele>
        <time>2025-11-11T09:28:17Z</time>
      </trkpt>
      <trkpt lat="45.66812" lon="4.66851">
        <ele>422.2</ele>
        <time>2025-11-11T09:28:18Z</time>
      </trkpt>
      <trkpt lat="45.66812" lon="4.66851">
        <ele>422.2</ele>
        <time>2025-11-11T09:28:19Z</time>
      </trkpt>
      <trkpt lat="45.66812" lon="4.66851">
        <ele>422.2</ele>
        <time>2025-11-11T09:28:20Z</time>
      </trkpt>
      <trkpt lat="45.66812" lon="4.66851">
        <ele>422</ele>
        <time>2025-11-11T09:28:21Z</time>
      </trkpt>
      <trkpt lat="45.66812" lon="4.66851">
        <ele>422</ele>
        <time>2025-11-11T09:28:22Z</time>
      </trkpt>
      <trkpt lat="45.66812" lon="4.66851">
        <ele>422.2</ele>
        <time>2025-11-11T09:28:23Z</time>
      </trkpt>
      <trkpt lat="45.66812" lon="4.66851">
        <ele>422.2</ele>
        <time>2025-11-11T09:28:24Z</time>
      </trkpt>
      <trkpt lat="45.66812" lon="4.66851">
        <ele>422.2</ele>
        <time>2025-11-11T09:28:25Z</time>
      </trkpt>
      <trkpt lat="45.66812" lon="4.66851">
        <ele>422.2</ele>
        <time>2025-11-11T09:28:26Z</time>
      </trkpt>
      <trkpt lat="45.66812" lon="4.66851">
        <ele>422.2</ele>
        <time>2025-11-11T09:28:27Z</time>
      </trkpt>
      <trkpt lat="45.66812" lon="4.66851">
        <ele>422</ele>
        <time>2025-11-11T09:28:28Z</time>
      </trkpt>
      <trkpt lat="45.66812" lon="4.66851">
        <ele>422</ele>
        <time>2025-11-11T09:28:29Z</time>
      </trkpt>
      <trkpt lat="45.66812" lon="4.66851">
        <ele>422</ele>
        <time>2025-11-11T09:28:30Z</time>
      </trkpt>
      <trkpt lat="45.66812" lon="4.66851">
        <ele>422</ele>
        <time>2025-11-11T09:28:31Z</time>
      </trkpt>
      <trkpt lat="45.66812" lon="4.66851">
        <ele>422</ele>
        <time>2025-11-11T09:28:32Z</time>
      </trkpt>
      <trkpt lat="45.66812" lon="4.66851">
        <ele>422</ele>
        <time>2025-11-11T09:28:33Z</time>
      </trkpt>
      <trkpt lat="45.66812" lon="4.66851">
        <ele>422</ele>
        <time>2025-11-11T09:28:34Z</time>
      </trkpt>
      <trkpt lat="45.66812" lon="4.66851">
        <ele>422</ele>
        <time>2025-11-11T09:28:35Z</time>
      </trkpt>
      <trkpt lat="45.66812" lon="4.66851">
        <ele>422</ele>
        <time>2025-11-11T09:28:36Z</time>
      </trkpt>
      <trkpt lat="45.66812" lon="4.66851">
        <ele>422</ele>
        <time>2025-11-11T09:28:37Z</time>
      </trkpt>
      <trkpt lat="45.66812" lon="4.66851">
        <ele>422</ele>
        <time>2025-11-11T09:28:38Z</time>
      </trkpt>
      <trkpt lat="45.66812" lon="4.66851">
        <ele>422</ele>
        <time>2025-11-11T09:28:39Z</time>
      </trkpt>
      <trkpt lat="45.66812" lon="4.66851">
        <ele>422</ele>
        <time>2025-11-11T09:28:40Z</time>
      </trkpt>
      <trkpt lat="45.66812" lon="4.66851">
        <ele>422</ele>
        <time>2025-11-11T09:28:41Z</time>
      </trkpt>
      <trkpt lat="45.66812" lon="4.66851">
        <ele>422</ele>
        <time>2025-11-11T09:28:42Z</time>
      </trkpt>
      <trkpt lat="45.66812" lon="4.66851">
        <ele>422</ele>
        <time>2025-11-11T09:28:43Z</time>
      </trkpt>
      <trkpt lat="45.66812" lon="4.66851">
        <ele>422</ele>
        <time>2025-11-11T09:28:44Z</time>
      </trkpt>
      <trkpt lat="45.66812" lon="4.66851">
        <ele>421.8</ele>
        <time>2025-11-11T09:28:45Z</time>
      </trkpt>
      <trkpt lat="45.66812" lon="4.66851">
        <ele>421.8</ele>
        <time>2025-11-11T09:28:46Z</time>
      </trkpt>
      <trkpt lat="45.66812" lon="4.66851">
        <ele>421.8</ele>
        <time>2025-11-11T09:28:47Z</time>
      </trkpt>
      <trkpt lat="45.66812" lon="4.66851">
        <ele>421.8</ele>
        <time>2025-11-11T09:28:48Z</time>
      </trkpt>
      <trkpt lat="45.66812" lon="4.66851">
        <ele>421.8</ele>
        <time>2025-11-11T09:28:49Z</time>
      </trkpt>
      <trkpt lat="45.66812" lon="4.66851">
        <ele>421.8</ele>
        <time>2025-11-11T09:28:50Z</time>
      </trkpt>
      <trkpt lat="45.66812" lon="4.66851">
        <ele>421.8</ele>
        <time>2025-11-11T09:28:51Z</time>
      </trkpt>
      <trkpt lat="45.66812" lon="4.66851">
        <ele>421.8</ele>
        <time>2025-11-11T09:28:52Z</time>
      </trkpt>
      <trkpt lat="45.66812" lon="4.66851">
        <ele>421.8</ele>
        <time>2025-11-11T09:28:53Z</time>
      </trkpt>
      <trkpt lat="45.66812" lon="4.66851">
        <ele>421.8</ele>
        <time>2025-11-11T09:28:54Z</time>
      </trkpt>
      <trkpt lat="45.66812" lon="4.66851">
        <ele>421.8</ele>
        <time>2025-11-11T09:28:55Z</time>
      </trkpt>
      <trkpt lat="45.66812" lon="4.66851">
        <ele>421.8</ele>
        <time>2025-11-11T09:28:56Z</time>
      </trkpt>
      <trkpt lat="45.66812" lon="4.66851">
        <ele>421.8</ele>
        <time>2025-11-11T09:28:57Z</time>
      </trkpt>
      <trkpt lat="45.66812" lon="4.66851">
        <ele>421.8</ele>
        <time>2025-11-11T09:28:58Z</time>
      </trkpt>
      <trkpt lat="45.66812" lon="4.66851">
        <ele>421.8</ele>
        <time>2025-11-11T09:28:59Z</time>
      </trkpt>
      <trkpt lat="45.66812" lon="4.66851">
        <ele>421.8</ele>
        <time>2025-11-11T09:29:00Z</time>
      </trkpt>
      <trkpt lat="45.66812" lon="4.66851">
        <ele>421.8</ele>
        <time>2025-11-11T09:29:01Z</time>
      </trkpt>
      <trkpt lat="45.66812" lon="4.66851">
        <ele>421.8</ele>
        <time>2025-11-11T09:29:02Z</time>
      </trkpt>
      <trkpt lat="45.66812" lon="4.66851">
        <ele>421.8</ele>
        <time>2025-11-11T09:29:03Z</time>
      </trkpt>
      <trkpt lat="45.66812" lon="4.66851">
        <ele>421.8</ele>
        <time>2025-11-11T09:29:04Z</time>
      </trkpt>
      <trkpt lat="45.66812" lon="4.66851">
        <ele>421.8</ele>
        <time>2025-11-11T09:29:05Z</time>
      </trkpt>
      <trkpt lat="45.66812" lon="4.66851">
        <ele>421.8</ele>
        <time>2025-11-11T09:29:06Z</time>
      </trkpt>
      <trkpt lat="45.66812" lon="4.66851">
        <ele>421.8</ele>
        <time>2025-11-11T09:29:07Z</time>
      </trkpt>
      <trkpt lat="45.66812" lon="4.66851">
        <ele>421.8</ele>
        <time>2025-11-11T09:29:08Z</time>
      </trkpt>
      <trkpt lat="45.66812" lon="4.66851">
        <ele>421.8</ele>
        <time>2025-11-11T09:29:09Z</time>
      </trkpt>
      <trkpt lat="45.66812" lon="4.66851">
        <ele>421.6</ele>
        <time>2025-11-11T09:29:10Z</time>
      </trkpt>
      <trkpt lat="45.66812" lon="4.66851">
        <ele>421.6</ele>
        <time>2025-11-11T09:29:11Z</time>
      </trkpt>
      <trkpt lat="45.66812" lon="4.66851">
        <ele>421.8</ele>
        <time>2025-11-11T09:29:12Z</time>
      </trkpt>
      <trkpt lat="45.66812" lon="4.66851">
        <ele>421.8</ele>
        <time>2025-11-11T09:29:13Z</time>
      </trkpt>
      <trkpt lat="45.66812" lon="4.66851">
        <ele>421.8</ele>
        <time>2025-11-11T09:29:14Z</time>
      </trkpt>
      <trkpt lat="45.66812" lon="4.66851">
        <ele>421.8</ele>
        <time>2025-11-11T09:29:15Z</time>
      </trkpt>
      <trkpt lat="45.66812" lon="4.66851">
        <ele>421.8</ele>
        <time>2025-11-11T09:29:16Z</time>
      </trkpt>
      <trkpt lat="45.66812" lon="4.66851">
        <ele>422</ele>
        <time>2025-11-11T09:29:17Z</time>
      </trkpt>
      <trkpt lat="45.66812" lon="4.66851">
        <ele>422</ele>
        <time>2025-11-11T09:29:18Z</time>
      </trkpt>
      <trkpt lat="45.66812" lon="4.66851">
        <ele>421.8</ele>
        <time>2025-11-11T09:29:19Z</time>
      </trkpt>
      <trkpt lat="45.66812" lon="4.66851">
        <ele>421.8</ele>
        <time>2025-11-11T09:29:20Z</time>
      </trkpt>
      <trkpt lat="45.66812" lon="4.66851">
        <ele>421.8</ele>
        <time>2025-11-11T09:29:21Z</time>
      </trkpt>
      <trkpt lat="45.66812" lon="4.66851">
        <ele>421.8</ele>
        <time>2025-11-11T09:29:22Z</time>
      </trkpt>
      <trkpt lat="45.66812" lon="4.66851">
        <ele>421.8</ele>
        <time>2025-11-11T09:29:23Z</time>
      </trkpt>
      <trkpt lat="45.66812" lon="4.66851">
        <ele>421.8</ele>
        <time>2025-11-11T09:29:24Z</time>
      </trkpt>
      <trkpt lat="45.66812" lon="4.66851">
        <ele>421.8</ele>
        <time>2025-11-11T09:29:25Z</time>
      </trkpt>
      <trkpt lat="45.66812" lon="4.66851">
        <ele>421.8</ele>
        <time>2025-11-11T09:29:26Z</time>
      </trkpt>
      <trkpt lat="45.66812" lon="4.66851">
        <ele>421.8</ele>
        <time>2025-11-11T09:29:27Z</time>
      </trkpt>
      <trkpt lat="45.66812" lon="4.66851">
        <ele>421.8</ele>
        <time>2025-11-11T09:29:28Z</time>
      </trkpt>
      <trkpt lat="45.66812" lon="4.66851">
        <ele>421.8</ele>
        <time>2025-11-11T09:29:29Z</time>
      </trkpt>
      <trkpt lat="45.66812" lon="4.66851">
        <ele>421.8</ele>
        <time>2025-11-11T09:29:30Z</time>
      </trkpt>
      <trkpt lat="45.66812" lon="4.66851">
        <ele>421.8</ele>
        <time>2025-11-11T09:29:31Z</time>
      </trkpt>
      <trkpt lat="45.66812" lon="4.66851">
        <ele>421.8</ele>
        <time>2025-11-11T09:29:32Z</time>
      </trkpt>
      <trkpt lat="45.66812" lon="4.66851">
        <ele>421.8</ele>
        <time>2025-11-11T09:29:33Z</time>
      </trkpt>
      <trkpt lat="45.66812" lon="4.66851">
        <ele>421.8</ele>
        <time>2025-11-11T09:29:34Z</time>
      </trkpt>
      <trkpt lat="45.66812" lon="4.66851">
        <ele>421.8</ele>
        <time>2025-11-11T09:29:35Z</time>
      </trkpt>
      <trkpt lat="45.66812" lon="4.6685">
        <ele>421.8</ele>
        <time>2025-11-11T09:29:36Z</time>
      </trkpt>
      <trkpt lat="45.66812" lon="4.66849">
        <ele>421.8</ele>
        <time>2025-11-11T09:29:37Z</time>
      </trkpt>
      <trkpt lat="45.6681" lon="4.66848">
        <ele>421.8</ele>
        <time>2025-11-11T09:29:38Z</time>
      </trkpt>
      <trkpt lat="45.66809" lon="4.66847">
        <ele>421.8</ele>
        <time>2025-11-11T09:29:39Z</time>
      </trkpt>
      <trkpt lat="45.66808" lon="4.66847">
        <ele>421.8</ele>
        <time>2025-11-11T09:29:40Z</time>
      </trkpt>
      <trkpt lat="45.66808" lon="4.66847">
        <ele>422</ele>
        <time>2025-11-11T09:29:41Z</time>
      </trkpt>
      <trkpt lat="45.66808" lon="4.66847">
        <ele>422.2</ele>
        <time>2025-11-11T09:29:42Z</time>
      </trkpt>
      <trkpt lat="45.66808" lon="4.66847">
        <ele>422.4</ele>
        <time>2025-11-11T09:29:43Z</time>
      </trkpt>
      <trkpt lat="45.66808" lon="4.66847">
        <ele>422.4</ele>
        <time>2025-11-11T09:29:44Z</time>
      </trkpt>
      <trkpt lat="45.66806" lon="4.66846">
        <ele>422.6</ele>
        <time>2025-11-11T09:29:45Z</time>
      </trkpt>
      <trkpt lat="45.66805" lon="4.66845">
        <ele>422.6</ele>
        <time>2025-11-11T09:29:46Z</time>
      </trkpt>
      <trkpt lat="45.66803" lon="4.66843">
        <ele>422.6</ele>
        <time>2025-11-11T09:29:47Z</time>
      </trkpt>
      <trkpt lat="45.66802" lon="4.6684">
        <ele>422.6</ele>
        <time>2025-11-11T09:29:48Z</time>
      </trkpt>
      <trkpt lat="45.66799" lon="4.66836">
        <ele>422.6</ele>
        <time>2025-11-11T09:29:49Z</time>
      </trkpt>
      <trkpt lat="45.66797" lon="4.66833">
        <ele>422.6</ele>
        <time>2025-11-11T09:29:50Z</time>
      </trkpt>
      <trkpt lat="45.66794" lon="4.6683">
        <ele>422.6</ele>
        <time>2025-11-11T09:29:51Z</time>
      </trkpt>
      <trkpt lat="45.66792" lon="4.66827">
        <ele>422.8</ele>
        <time>2025-11-11T09:29:52Z</time>
      </trkpt>
      <trkpt lat="45.6679" lon="4.66823">
        <ele>422.8</ele>
        <time>2025-11-11T09:29:53Z</time>
      </trkpt>
      <trkpt lat="45.66788" lon="4.6682">
        <ele>423</ele>
        <time>2025-11-11T09:29:54Z</time>
      </trkpt>
      <trkpt lat="45.66785" lon="4.66816">
        <ele>423.2</ele>
        <time>2025-11-11T09:29:55Z</time>
      </trkpt>
      <trkpt lat="45.66783" lon="4.66813">
        <ele>423.4</ele>
        <time>2025-11-11T09:29:56Z</time>
      </trkpt>
      <trkpt lat="45.66781" lon="4.66809">
        <ele>423.6</ele>
        <time>2025-11-11T09:29:57Z</time>
      </trkpt>
      <trkpt lat="45.66779" lon="4.66806">
        <ele>423.6</ele>
        <time>2025-11-11T09:29:58Z</time>
      </trkpt>
      <trkpt lat="45.66776" lon="4.66803">
        <ele>423.8</ele>
        <time>2025-11-11T09:29:59Z</time>
      </trkpt>
      <trkpt lat="45.66774" lon="4.668">
        <ele>424</ele>
        <time>2025-11-11T09:30:00Z</time>
      </trkpt>
      <trkpt lat="45.66771" lon="4.66797">
        <ele>424.2</ele>
        <time>2025-11-11T09:30:01Z</time>
      </trkpt>
      <trkpt lat="45.66769" lon="4.66794">
        <ele>424.4</ele>
        <time>2025-11-11T09:30:02Z</time>
      </trkpt>
      <trkpt lat="45.66766" lon="4.66791">
        <ele>424.8</ele>
        <time>2025-11-11T09:30:03Z</time>
      </trkpt>
      <trkpt lat="45.66764" lon="4.66788">
        <ele>425.2</ele>
        <time>2025-11-11T09:30:04Z</time>
      </trkpt>
      <trkpt lat="45.66762" lon="4.66785">
        <ele>425.6</ele>
        <time>2025-11-11T09:30:05Z</time>
      </trkpt>
      <trkpt lat="45.6676" lon="4.66783">
        <ele>425.8</ele>
        <time>2025-11-11T09:30:06Z</time>
      </trkpt>
      <trkpt lat="45.66758" lon="4.66781">
        <ele>426.2</ele>
        <time>2025-11-11T09:30:07Z</time>
      </trkpt>
      <trkpt lat="45.66756" lon="4.66778">
        <ele>426.8</ele>
        <time>2025-11-11T09:30:08Z</time>
      </trkpt>
      <trkpt lat="45.66755" lon="4.66776">
        <ele>427.2</ele>
        <time>2025-11-11T09:30:09Z</time>
      </trkpt>
      <trkpt lat="45.66753" lon="4.66773">
        <ele>427.4</ele>
        <time>2025-11-11T09:30:10Z</time>
      </trkpt>
      <trkpt lat="45.66751" lon="4.6677">
        <ele>427.8</ele>
        <time>2025-11-11T09:30:11Z</time>
      </trkpt>
      <trkpt lat="45.6675" lon="4.66767">
        <ele>428.2</ele>
        <time>2025-11-11T09:30:12Z</time>
      </trkpt>
      <trkpt lat="45.66749" lon="4.66765">
        <ele>428.6</ele>
        <time>2025-11-11T09:30:13Z</time>
      </trkpt>
      <trkpt lat="45.66747" lon="4.66764">
        <ele>429</ele>
        <time>2025-11-11T09:30:14Z</time>
      </trkpt>
      <trkpt lat="45.66745" lon="4.66762">
        <ele>429.6</ele>
        <time>2025-11-11T09:30:15Z</time>
      </trkpt>
      <trkpt lat="45.66743" lon="4.66761">
        <ele>430</ele>
        <time>2025-11-11T09:30:16Z</time>
      </trkpt>
      <trkpt lat="45.66742" lon="4.66759">
        <ele>430.6</ele>
        <time>2025-11-11T09:30:17Z</time>
      </trkpt>
      <trkpt lat="45.6674" lon="4.66757">
        <ele>431</ele>
        <time>2025-11-11T09:30:18Z</time>
      </trkpt>
      <trkpt lat="45.66738" lon="4.66756">
        <ele>431.4</ele>
        <time>2025-11-11T09:30:19Z</time>
      </trkpt>
      <trkpt lat="45.66737" lon="4.66754">
        <ele>431.8</ele>
        <time>2025-11-11T09:30:20Z</time>
      </trkpt>
      <trkpt lat="45.66737" lon="4.66753">
        <ele>432.2</ele>
        <time>2025-11-11T09:30:21Z</time>
      </trkpt>
      <trkpt lat="45.66737" lon="4.66753">
        <ele>432.6</ele>
        <time>2025-11-11T09:30:22Z</time>
      </trkpt>
      <trkpt lat="45.66737" lon="4.66753">
        <ele>433</ele>
        <time>2025-11-11T09:30:23Z</time>
      </trkpt>
      <trkpt lat="45.66737" lon="4.66753">
        <ele>433.2</ele>
        <time>2025-11-11T09:30:24Z</time>
      </trkpt>
      <trkpt lat="45.66737" lon="4.66753">
        <ele>433.4</ele>
        <time>2025-11-11T09:30:25Z</time>
      </trkpt>
      <trkpt lat="45.66737" lon="4.66753">
        <ele>433.6</ele>
        <time>2025-11-11T09:30:26Z</time>
      </trkpt>
      <trkpt lat="45.66736" lon="4.66752">
        <ele>433.6</ele>
        <time>2025-11-11T09:30:27Z</time>
      </trkpt>
      <trkpt lat="45.66736" lon="4.66751">
        <ele>433.6</ele>
        <time>2025-11-11T09:30:28Z</time>
      </trkpt>
      <trkpt lat="45.66735" lon="4.66751">
        <ele>433.6</ele>
        <time>2025-11-11T09:30:29Z</time>
      </trkpt>
      <trkpt lat="45.66734" lon="4.66752">
        <ele>433.6</ele>
        <time>2025-11-11T09:30:30Z</time>
      </trkpt>
      <trkpt lat="45.66733" lon="4.66753">
        <ele>433.8</ele>
        <time>2025-11-11T09:30:31Z</time>
      </trkpt>
      <trkpt lat="45.66733" lon="4.66754">
        <ele>433.8</ele>
        <time>2025-11-11T09:30:32Z</time>
      </trkpt>
      <trkpt lat="45.66733" lon="4.66755">
        <ele>434</ele>
        <time>2025-11-11T09:30:33Z</time>
      </trkpt>
      <trkpt lat="45.66733" lon="4.66755">
        <ele>434</ele>
        <time>2025-11-11T09:30:34Z</time>
      </trkpt>
      <trkpt lat="45.66733" lon="4.66755">
        <ele>434.2</ele>
        <time>2025-11-11T09:30:35Z</time>
      </trkpt>
      <trkpt lat="45.66733" lon="4.66755">
        <ele>434.2</ele>
        <time>2025-11-11T09:30:36Z</time>
      </trkpt>
      <trkpt lat="45.66733" lon="4.66755">
        <ele>434.2</ele>
        <time>2025-11-11T09:30:37Z</time>
      </trkpt>
      <trkpt lat="45.66733" lon="4.66755">
        <ele>434.2</ele>
        <time>2025-11-11T09:30:38Z</time>
      </trkpt>
      <trkpt lat="45.66733" lon="4.66755">
        <ele>434.2</ele>
        <time>2025-11-11T09:30:39Z</time>
      </trkpt>
      <trkpt lat="45.66733" lon="4.66755">
        <ele>434.2</ele>
        <time>2025-11-11T09:30:40Z</time>
      </trkpt>
      <trkpt lat="45.66733" lon="4.66755">
        <ele>434.2</ele>
        <time>2025-11-11T09:30:41Z</time>
      </trkpt>
      <trkpt lat="45.66733" lon="4.66755">
        <ele>434.2</ele>
        <time>2025-11-11T09:30:42Z</time>
      </trkpt>
      <trkpt lat="45.66733" lon="4.66755">
        <ele>434.2</ele>
        <time>2025-11-11T09:30:43Z</time>
      </trkpt>
      <trkpt lat="45.66733" lon="4.66755">
        <ele>434.2</ele>
        <time>2025-11-11T09:30:44Z</time>
      </trkpt>
      <trkpt lat="45.66733" lon="4.66755">
        <ele>434.2</ele>
        <time>2025-11-11T09:30:45Z</time>
      </trkpt>
      <trkpt lat="45.66733" lon="4.66755">
        <ele>434.2</ele>
        <time>2025-11-11T09:30:46Z</time>
      </trkpt>
      <trkpt lat="45.66733" lon="4.66755">
        <ele>434.2</ele>
        <time>2025-11-11T09:30:47Z</time>
      </trkpt>
      <trkpt lat="45.66733" lon="4.66755">
        <ele>434.2</ele>
        <time>2025-11-11T09:30:48Z</time>
      </trkpt>
      <trkpt lat="45.66733" lon="4.66755">
        <ele>434.2</ele>
        <time>2025-11-11T09:30:49Z</time>
      </trkpt>
      <trkpt lat="45.66733" lon="4.66755">
        <ele>434.2</ele>
        <time>2025-11-11T09:30:50Z</time>
      </trkpt>
      <trkpt lat="45.66733" lon="4.66755">
        <ele>434.2</ele>
        <time>2025-11-11T09:30:51Z</time>
      </trkpt>
      <trkpt lat="45.66733" lon="4.66755">
        <ele>434.2</ele>
        <time>2025-11-11T09:30:52Z</time>
      </trkpt>
      <trkpt lat="45.66733" lon="4.66755">
        <ele>434</ele>
        <time>2025-11-11T09:30:53Z</time>
      </trkpt>
      <trkpt lat="45.66733" lon="4.66755">
        <ele>434</ele>
        <time>2025-11-11T09:30:54Z</time>
      </trkpt>
      <trkpt lat="45.66733" lon="4.66755">
        <ele>434</ele>
        <time>2025-11-11T09:30:55Z</time>
      </trkpt>
      <trkpt lat="45.66733" lon="4.66755">
        <ele>434</ele>
        <time>2025-11-11T09:30:56Z</time>
      </trkpt>
      <trkpt lat="45.66733" lon="4.66755">
        <ele>434</ele>
        <time>2025-11-11T09:30:57Z</time>
      </trkpt>
      <trkpt lat="45.66733" lon="4.66755">
        <ele>434</ele>
        <time>2025-11-11T09:30:58Z</time>
      </trkpt>
      <trkpt lat="45.66733" lon="4.66755">
        <ele>434</ele>
        <time>2025-11-11T09:30:59Z</time>
      </trkpt>
      <trkpt lat="45.66733" lon="4.66755">
        <ele>434</ele>
        <time>2025-11-11T09:31:00Z</time>
      </trkpt>
      <trkpt lat="45.66733" lon="4.66755">
        <ele>434</ele>
        <time>2025-11-11T09:31:01Z</time>
      </trkpt>
      <trkpt lat="45.66733" lon="4.66755">
        <ele>434</ele>
        <time>2025-11-11T09:31:02Z</time>
      </trkpt>
      <trkpt lat="45.66733" lon="4.66755">
        <ele>434</ele>
        <time>2025-11-11T09:31:03Z</time>
      </trkpt>
      <trkpt lat="45.66733" lon="4.66755">
        <ele>434</ele>
        <time>2025-11-11T09:31:04Z</time>
      </trkpt>
      <trkpt lat="45.66733" lon="4.66755">
        <ele>434</ele>
        <time>2025-11-11T09:31:05Z</time>
      </trkpt>
      <trkpt lat="45.66733" lon="4.66755">
        <ele>434</ele>
        <time>2025-11-11T09:31:06Z</time>
      </trkpt>
      <trkpt lat="45.66733" lon="4.66755">
        <ele>434</ele>
        <time>2025-11-11T09:31:07Z</time>
      </trkpt>
      <trkpt lat="45.66733" lon="4.66755">
        <ele>434</ele>
        <time>2025-11-11T09:31:08Z</time>
      </trkpt>
      <trkpt lat="45.66733" lon="4.66755">
        <ele>433.8</ele>
        <time>2025-11-11T09:31:09Z</time>
      </trkpt>
      <trkpt lat="45.66733" lon="4.66755">
        <ele>433.8</ele>
        <time>2025-11-11T09:31:10Z</time>
      </trkpt>
      <trkpt lat="45.66733" lon="4.66755">
        <ele>433.8</ele>
        <time>2025-11-11T09:31:11Z</time>
      </trkpt>
      <trkpt lat="45.66733" lon="4.66755">
        <ele>434</ele>
        <time>2025-11-11T09:31:12Z</time>
      </trkpt>
      <trkpt lat="45.66733" lon="4.66755">
        <ele>433.8</ele>
        <time>2025-11-11T09:31:13Z</time>
      </trkpt>
      <trkpt lat="45.66733" lon="4.66755">
        <ele>433.8</ele>
        <time>2025-11-11T09:31:14Z</time>
      </trkpt>
      <trkpt lat="45.66733" lon="4.66755">
        <ele>433.8</ele>
        <time>2025-11-11T09:31:15Z</time>
      </trkpt>
      <trkpt lat="45.66733" lon="4.66755">
        <ele>433.8</ele>
        <time>2025-11-11T09:31:16Z</time>
      </trkpt>
      <trkpt lat="45.66733" lon="4.66755">
        <ele>433.8</ele>
        <time>2025-11-11T09:31:17Z</time>
      </trkpt>
      <trkpt lat="45.66733" lon="4.66755">
        <ele>433.8</ele>
        <time>2025-11-11T09:31:18Z</time>
      </trkpt>
      <trkpt lat="45.66733" lon="4.66755">
        <ele>433.8</ele>
        <time>2025-11-11T09:31:19Z</time>
      </trkpt>
      <trkpt lat="45.66733" lon="4.66755">
        <ele>433.8</ele>
        <time>2025-11-11T09:31:20Z</time>
      </trkpt>
      <trkpt lat="45.66733" lon="4.66755">
        <ele>433.8</ele>
        <time>2025-11-11T09:31:21Z</time>
      </trkpt>
      <trkpt lat="45.66733" lon="4.66755">
        <ele>433.8</ele>
        <time>2025-11-11T09:31:22Z</time>
      </trkpt>
      <trkpt lat="45.66733" lon="4.66755">
        <ele>433.8</ele>
        <time>2025-11-11T09:31:23Z</time>
      </trkpt>
      <trkpt lat="45.66733" lon="4.66755">
        <ele>433.8</ele>
        <time>2025-11-11T09:31:24Z</time>
      </trkpt>
      <trkpt lat="45.66733" lon="4.66755">
        <ele>433.8</ele>
        <time>2025-11-11T09:31:25Z</time>
      </trkpt>
      <trkpt lat="45.66733" lon="4.66755">
        <ele>433.8</ele>
        <time>2025-11-11T09:31:26Z</time>
      </trkpt>
      <trkpt lat="45.66733" lon="4.66755">
        <ele>433.8</ele>
        <time>2025-11-11T09:31:27Z</time>
      </trkpt>
      <trkpt lat="45.66733" lon="4.66755">
        <ele>433.8</ele>
        <time>2025-11-11T09:31:28Z</time>
      </trkpt>
      <trkpt lat="45.66733" lon="4.66755">
        <ele>433.8</ele>
        <time>2025-11-11T09:31:29Z</time>
      </trkpt>
      <trkpt lat="45.66733" lon="4.66755">
        <ele>433.8</ele>
        <time>2025-11-11T09:31:30Z</time>
      </trkpt>
      <trkpt lat="45.66733" lon="4.66755">
        <ele>433.8</ele>
        <time>2025-11-11T09:31:31Z</time>
      </trkpt>
      <trkpt lat="45.66733" lon="4.66755">
        <ele>433.8</ele>
        <time>2025-11-11T09:31:32Z</time>
      </trkpt>
      <trkpt lat="45.66733" lon="4.66755">
        <ele>433.8</ele>
        <time>2025-11-11T09:31:33Z</time>
      </trkpt>
      <trkpt lat="45.66733" lon="4.66755">
        <ele>433.8</ele>
        <time>2025-11-11T09:31:34Z</time>
      </trkpt>
      <trkpt lat="45.66733" lon="4.66755">
        <ele>433.8</ele>
        <time>2025-11-11T09:31:35Z</time>
      </trkpt>
      <trkpt lat="45.66733" lon="4.66755">
        <ele>433.8</ele>
        <time>2025-11-11T09:31:36Z</time>
      </trkpt>
      <trkpt lat="45.66733" lon="4.66755">
        <ele>433.8</ele>
        <time>2025-11-11T09:31:37Z</time>
      </trkpt>
      <trkpt lat="45.66733" lon="4.66755">
        <ele>433.8</ele>
        <time>2025-11-11T09:31:38Z</time>
      </trkpt>
      <trkpt lat="45.66733" lon="4.66755">
        <ele>433.8</ele>
        <time>2025-11-11T09:31:39Z</time>
      </trkpt>
      <trkpt lat="45.66733" lon="4.66755">
        <ele>433.8</ele>
        <time>2025-11-11T09:31:40Z</time>
      </trkpt>
      <trkpt lat="45.66733" lon="4.66755">
        <ele>433.8</ele>
        <time>2025-11-11T09:31:41Z</time>
      </trkpt>
      <trkpt lat="45.66733" lon="4.66755">
        <ele>433.8</ele>
        <time>2025-11-11T09:31:42Z</time>
      </trkpt>
      <trkpt lat="45.66733" lon="4.66755">
        <ele>433.8</ele>
        <time>2025-11-11T09:31:43Z</time>
      </trkpt>
      <trkpt lat="45.66733" lon="4.66755">
        <ele>433.8</ele>
        <time>2025-11-11T09:31:44Z</time>
      </trkpt>
      <trkpt lat="45.66733" lon="4.66755">
        <ele>433.8</ele>
        <time>2025-11-11T09:31:45Z</time>
      </trkpt>
      <trkpt lat="45.66733" lon="4.66755">
        <ele>433.8</ele>
        <time>2025-11-11T09:31:46Z</time>
      </trkpt>
      <trkpt lat="45.66733" lon="4.66755">
        <ele>433.8</ele>
        <time>2025-11-11T09:31:47Z</time>
      </trkpt>
      <trkpt lat="45.66733" lon="4.66755">
        <ele>433.8</ele>
        <time>2025-11-11T09:31:48Z</time>
      </trkpt>
      <trkpt lat="45.66733" lon="4.66755">
        <ele>433.8</ele>
        <time>2025-11-11T09:31:49Z</time>
      </trkpt>
      <trkpt lat="45.66733" lon="4.66755">
        <ele>433.8</ele>
        <time>2025-11-11T09:31:50Z</time>
      </trkpt>
      <trkpt lat="45.66733" lon="4.66755">
        <ele>433.8</ele>
        <time>2025-11-11T09:31:51Z</time>
      </trkpt>
      <trkpt lat="45.66733" lon="4.66755">
        <ele>433.8</ele>
        <time>2025-11-11T09:31:52Z</time>
      </trkpt>
      <trkpt lat="45.66733" lon="4.66755">
        <ele>433.8</ele>
        <time>2025-11-11T09:31:53Z</time>
      </trkpt>
      <trkpt lat="45.66733" lon="4.66755">
        <ele>433.8</ele>
        <time>2025-11-11T09:31:54Z</time>
      </trkpt>
      <trkpt lat="45.66733" lon="4.66755">
        <ele>433.8</ele>
        <time>2025-11-11T09:31:55Z</time>
      </trkpt>
      <trkpt lat="45.66733" lon="4.66755">
        <ele>433.8</ele>
        <time>2025-11-11T09:31:56Z</time>
      </trkpt>
      <trkpt lat="45.66733" lon="4.66755">
        <ele>433.8</ele>
        <time>2025-11-11T09:31:57Z</time>
      </trkpt>
      <trkpt lat="45.66733" lon="4.66755">
        <ele>433.8</ele>
        <time>2025-11-11T09:31:58Z</time>
      </trkpt>
      <trkpt lat="45.66733" lon="4.66755">
        <ele>433.8</ele>
        <time>2025-11-11T09:31:59Z</time>
      </trkpt>
      <trkpt lat="45.66733" lon="4.66755">
        <ele>433.8</ele>
        <time>2025-11-11T09:32:00Z</time>
      </trkpt>
      <trkpt lat="45.66733" lon="4.66755">
        <ele>433.8</ele>
        <time>2025-11-11T09:32:01Z</time>
      </trkpt>
      <trkpt lat="45.66733" lon="4.66755">
        <ele>433.8</ele>
        <time>2025-11-11T09:32:02Z</time>
      </trkpt>
      <trkpt lat="45.66733" lon="4.66755">
        <ele>433.8</ele>
        <time>2025-11-11T09:32:03Z</time>
      </trkpt>
      <trkpt lat="45.66733" lon="4.66755">
        <ele>433.8</ele>
        <time>2025-11-11T09:32:04Z</time>
      </trkpt>
      <trkpt lat="45.66733" lon="4.66755">
        <ele>433.8</ele>
        <time>2025-11-11T09:32:05Z</time>
      </trkpt>
      <trkpt lat="45.66733" lon="4.66755">
        <ele>433.8</ele>
        <time>2025-11-11T09:32:06Z</time>
      </trkpt>
      <trkpt lat="45.66733" lon="4.66755">
        <ele>433.8</ele>
        <time>2025-11-11T09:32:07Z</time>
      </trkpt>
      <trkpt lat="45.66733" lon="4.66755">
        <ele>433.8</ele>
        <time>2025-11-11T09:32:08Z</time>
      </trkpt>
      <trkpt lat="45.66733" lon="4.66755">
        <ele>433.8</ele>
        <time>2025-11-11T09:32:09Z</time>
      </trkpt>
      <trkpt lat="45.66733" lon="4.66755">
        <ele>433.8</ele>
        <time>2025-11-11T09:32:10Z</time>
      </trkpt>
      <trkpt lat="45.66733" lon="4.66755">
        <ele>433.8</ele>
        <time>2025-11-11T09:32:11Z</time>
      </trkpt>
      <trkpt lat="45.66733" lon="4.66755">
        <ele>433.8</ele>
        <time>2025-11-11T09:32:12Z</time>
      </trkpt>
      <trkpt lat="45.66733" lon="4.66755">
        <ele>433.8</ele>
        <time>2025-11-11T09:32:13Z</time>
      </trkpt>
      <trkpt lat="45.66733" lon="4.66755">
        <ele>433.8</ele>
        <time>2025-11-11T09:32:14Z</time>
      </trkpt>
      <trkpt lat="45.66733" lon="4.66755">
        <ele>433.8</ele>
        <time>2025-11-11T09:32:15Z</time>
      </trkpt>
      <trkpt lat="45.66733" lon="4.66755">
        <ele>433.8</ele>
        <time>2025-11-11T09:32:16Z</time>
      </trkpt>
      <trkpt lat="45.66733" lon="4.66755">
        <ele>433.8</ele>
        <time>2025-11-11T09:32:17Z</time>
      </trkpt>
      <trkpt lat="45.66733" lon="4.66755">
        <ele>433.8</ele>
        <time>2025-11-11T09:32:18Z</time>
      </trkpt>
      <trkpt lat="45.66733" lon="4.66755">
        <ele>433.8</ele>
        <time>2025-11-11T09:32:19Z</time>
      </trkpt>
      <trkpt lat="45.66733" lon="4.66755">
        <ele>433.8</ele>
        <time>2025-11-11T09:32:20Z</time>
      </trkpt>
      <trkpt lat="45.66733" lon="4.66755">
        <ele>433.8</ele>
        <time>2025-11-11T09:32:21Z</time>
      </trkpt>
      <trkpt lat="45.66733" lon="4.66755">
        <ele>433.8</ele>
        <time>2025-11-11T09:32:22Z</time>
      </trkpt>
      <trkpt lat="45.66733" lon="4.66755">
        <ele>433.8</ele>
        <time>2025-11-11T09:32:23Z</time>
      </trkpt>
      <trkpt lat="45.66733" lon="4.66755">
        <ele>433.8</ele>
        <time>2025-11-11T09:32:24Z</time>
      </trkpt>
      <trkpt lat="45.66733" lon="4.66755">
        <ele>433.8</ele>
        <time>2025-11-11T09:32:25Z</time>
      </trkpt>
      <trkpt lat="45.66733" lon="4.66755">
        <ele>433.8</ele>
        <time>2025-11-11T09:32:26Z</time>
      </trkpt>
      <trkpt lat="45.66733" lon="4.66755">
        <ele>433.8</ele>
        <time>2025-11-11T09:32:27Z</time>
      </trkpt>
      <trkpt lat="45.66733" lon="4.66755">
        <ele>433.8</ele>
        <time>2025-11-11T09:32:28Z</time>
      </trkpt>
      <trkpt lat="45.66733" lon="4.66755">
        <ele>433.8</ele>
        <time>2025-11-11T09:32:29Z</time>
      </trkpt>
      <trkpt lat="45.66733" lon="4.66755">
        <ele>433.8</ele>
        <time>2025-11-11T09:32:30Z</time>
      </trkpt>
      <trkpt lat="45.66733" lon="4.66755">
        <ele>433.8</ele>
        <time>2025-11-11T09:32:31Z</time>
      </trkpt>
      <trkpt lat="45.66733" lon="4.66755">
        <ele>433.8</ele>
        <time>2025-11-11T09:32:32Z</time>
      </trkpt>
      <trkpt lat="45.66733" lon="4.66755">
        <ele>433.8</ele>
        <time>2025-11-11T09:32:33Z</time>
      </trkpt>
      <trkpt lat="45.66733" lon="4.66755">
        <ele>433.8</ele>
        <time>2025-11-11T09:32:34Z</time>
      </trkpt>
      <trkpt lat="45.66733" lon="4.66755">
        <ele>433.8</ele>
        <time>2025-11-11T09:32:35Z</time>
      </trkpt>
      <trkpt lat="45.66733" lon="4.66755">
        <ele>433.8</ele>
        <time>2025-11-11T09:32:36Z</time>
      </trkpt>
      <trkpt lat="45.66733" lon="4.66755">
        <ele>433.8</ele>
        <time>2025-11-11T09:32:37Z</time>
      </trkpt>
      <trkpt lat="45.66733" lon="4.66755">
        <ele>433.8</ele>
        <time>2025-11-11T09:32:38Z</time>
      </trkpt>
      <trkpt lat="45.66733" lon="4.66755">
        <ele>433.8</ele>
        <time>2025-11-11T09:32:39Z</time>
      </trkpt>
      <trkpt lat="45.66733" lon="4.66755">
        <ele>433.8</ele>
        <time>2025-11-11T09:32:40Z</time>
      </trkpt>
      <trkpt lat="45.66733" lon="4.66755">
        <ele>433.8</ele>
        <time>2025-11-11T09:32:41Z</time>
      </trkpt>
      <trkpt lat="45.66733" lon="4.66756">
        <ele>433.8</ele>
        <time>2025-11-11T09:32:42Z</time>
      </trkpt>
      <trkpt lat="45.66733" lon="4.66757">
        <ele>433.8</ele>
        <time>2025-11-11T09:32:43Z</time>
      </trkpt>
      <trkpt lat="45.66733" lon="4.66759">
        <ele>433.8</ele>
        <time>2025-11-11T09:32:44Z</time>
      </trkpt>
      <trkpt lat="45.66734" lon="4.6676">
        <ele>434</ele>
        <time>2025-11-11T09:32:45Z</time>
      </trkpt>
      <trkpt lat="45.66734" lon="4.66762">
        <ele>433.8</ele>
        <time>2025-11-11T09:32:46Z</time>
      </trkpt>
      <trkpt lat="45.66733" lon="4.66762">
        <ele>433.8</ele>
        <time>2025-11-11T09:32:47Z</time>
      </trkpt>
      <trkpt lat="45.66733" lon="4.66762">
        <ele>434</ele>
        <time>2025-11-11T09:32:48Z</time>
      </trkpt>
      <trkpt lat="45.66733" lon="4.66762">
        <ele>434</ele>
        <time>2025-11-11T09:32:49Z</time>
      </trkpt>
      <trkpt lat="45.66733" lon="4.66762">
        <ele>434</ele>
        <time>2025-11-11T09:32:50Z</time>
      </trkpt>
      <trkpt lat="45.66733" lon="4.66762">
        <ele>434</ele>
        <time>2025-11-11T09:32:51Z</time>
      </trkpt>
      <trkpt lat="45.66733" lon="4.66762">
        <ele>434.2</ele>
        <time>2025-11-11T09:32:52Z</time>
      </trkpt>
      <trkpt lat="45.66733" lon="4.66762">
        <ele>434.2</ele>
        <time>2025-11-11T09:32:53Z</time>
      </trkpt>
      <trkpt lat="45.66733" lon="4.66762">
        <ele>434.2</ele>
        <time>2025-11-11T09:32:54Z</time>
      </trkpt>
      <trkpt lat="45.66733" lon="4.66762">
        <ele>434.2</ele>
        <time>2025-11-11T09:32:55Z</time>
      </trkpt>
      <trkpt lat="45.66733" lon="4.66762">
        <ele>434</ele>
        <time>2025-11-11T09:32:56Z</time>
      </trkpt>
      <trkpt lat="45.66733" lon="4.66762">
        <ele>434</ele>
        <time>2025-11-11T09:32:57Z</time>
      </trkpt>
      <trkpt lat="45.66733" lon="4.66762">
        <ele>434</ele>
        <time>2025-11-11T09:32:58Z</time>
      </trkpt>
      <trkpt lat="45.66733" lon="4.66762">
        <ele>434</ele>
        <time>2025-11-11T09:32:59Z</time>
      </trkpt>
      <trkpt lat="45.66733" lon="4.66762">
        <ele>434</ele>
        <time>2025-11-11T09:33:00Z</time>
      </trkpt>
      <trkpt lat="45.66733" lon="4.66762">
        <ele>434</ele>
        <time>2025-11-11T09:33:01Z</time>
      </trkpt>
      <trkpt lat="45.66733" lon="4.66762">
        <ele>434</ele>
        <time>2025-11-11T09:33:02Z</time>
      </trkpt>
      <trkpt lat="45.66733" lon="4.66762">
        <ele>434</ele>
        <time>2025-11-11T09:33:03Z</time>
      </trkpt>
      <trkpt lat="45.66733" lon="4.66762">
        <ele>434</ele>
        <time>2025-11-11T09:33:04Z</time>
      </trkpt>
      <trkpt lat="45.66733" lon="4.66762">
        <ele>434</ele>
        <time>2025-11-11T09:33:05Z</time>
      </trkpt>
      <trkpt lat="45.66733" lon="4.66762">
        <ele>434</ele>
        <time>2025-11-11T09:33:06Z</time>
      </trkpt>
      <trkpt lat="45.66733" lon="4.66762">
        <ele>434</ele>
        <time>2025-11-11T09:33:07Z</time>
      </trkpt>
      <trkpt lat="45.66733" lon="4.66762">
        <ele>434</ele>
        <time>2025-11-11T09:33:08Z</time>
      </trkpt>
      <trkpt lat="45.66733" lon="4.66762">
        <ele>434</ele>
        <time>2025-11-11T09:33:09Z</time>
      </trkpt>
      <trkpt lat="45.66733" lon="4.66762">
        <ele>434</ele>
        <time>2025-11-11T09:33:10Z</time>
      </trkpt>
      <trkpt lat="45.66733" lon="4.66762">
        <ele>434</ele>
        <time>2025-11-11T09:33:11Z</time>
      </trkpt>
      <trkpt lat="45.66733" lon="4.66762">
        <ele>434</ele>
        <time>2025-11-11T09:33:12Z</time>
      </trkpt>
      <trkpt lat="45.66733" lon="4.66762">
        <ele>434</ele>
        <time>2025-11-11T09:33:13Z</time>
      </trkpt>
      <trkpt lat="45.66733" lon="4.66762">
        <ele>434</ele>
        <time>2025-11-11T09:33:14Z</time>
      </trkpt>
      <trkpt lat="45.66733" lon="4.66762">
        <ele>434</ele>
        <time>2025-11-11T09:33:15Z</time>
      </trkpt>
      <trkpt lat="45.66733" lon="4.66762">
        <ele>433.8</ele>
        <time>2025-11-11T09:33:16Z</time>
      </trkpt>
      <trkpt lat="45.66733" lon="4.66762">
        <ele>433.8</ele>
        <time>2025-11-11T09:33:17Z</time>
      </trkpt>
      <trkpt lat="45.66733" lon="4.66762">
        <ele>433.8</ele>
        <time>2025-11-11T09:33:18Z</time>
      </trkpt>
      <trkpt lat="45.66733" lon="4.66762">
        <ele>433.8</ele>
        <time>2025-11-11T09:33:19Z</time>
      </trkpt>
      <trkpt lat="45.66733" lon="4.66762">
        <ele>433.8</ele>
        <time>2025-11-11T09:33:20Z</time>
      </trkpt>
      <trkpt lat="45.66733" lon="4.66762">
        <ele>433.8</ele>
        <time>2025-11-11T09:33:21Z</time>
      </trkpt>
      <trkpt lat="45.66733" lon="4.66762">
        <ele>433.8</ele>
        <time>2025-11-11T09:33:22Z</time>
      </trkpt>
      <trkpt lat="45.66733" lon="4.66762">
        <ele>433.8</ele>
        <time>2025-11-11T09:33:23Z</time>
      </trkpt>
      <trkpt lat="45.66733" lon="4.66762">
        <ele>433.8</ele>
        <time>2025-11-11T09:33:24Z</time>
      </trkpt>
      <trkpt lat="45.66734" lon="4.66764">
        <ele>433.8</ele>
        <time>2025-11-11T09:33:25Z</time>
      </trkpt>
      <trkpt lat="45.66734" lon="4.66766">
        <ele>433.8</ele>
        <time>2025-11-11T09:33:26Z</time>
      </trkpt>
      <trkpt lat="45.66733" lon="4.66768">
        <ele>433.8</ele>
        <time>2025-11-11T09:33:27Z</time>
      </trkpt>
      <trkpt lat="45.66733" lon="4.66771">
        <ele>433.8</ele>
        <time>2025-11-11T09:33:28Z</time>
      </trkpt>
      <trkpt lat="45.66732" lon="4.66774">
        <ele>433.8</ele>
        <time>2025-11-11T09:33:29Z</time>
      </trkpt>
      <trkpt lat="45.66732" lon="4.66778">
        <ele>433.8</ele>
        <time>2025-11-11T09:33:30Z</time>
      </trkpt>
      <trkpt lat="45.66731" lon="4.66782">
        <ele>433.8</ele>
        <time>2025-11-11T09:33:31Z</time>
      </trkpt>
      <trkpt lat="45.6673" lon="4.66786">
        <ele>433.8</ele>
        <time>2025-11-11T09:33:32Z</time>
      </trkpt>
      <trkpt lat="45.6673" lon="4.66791">
        <ele>433.8</ele>
        <time>2025-11-11T09:33:33Z</time>
      </trkpt>
      <trkpt lat="45.66728" lon="4.66795">
        <ele>434</ele>
        <time>2025-11-11T09:33:34Z</time>
      </trkpt>
      <trkpt lat="45.66727" lon="4.668">
        <ele>434</ele>
        <time>2025-11-11T09:33:35Z</time>
      </trkpt>
      <trkpt lat="45.66726" lon="4.66805">
        <ele>434</ele>
        <time>2025-11-11T09:33:36Z</time>
      </trkpt>
      <trkpt lat="45.66724" lon="4.6681">
        <ele>434</ele>
        <time>2025-11-11T09:33:37Z</time>
      </trkpt>
      <trkpt lat="45.66722" lon="4.66815">
        <ele>434</ele>
        <time>2025-11-11T09:33:38Z</time>
      </trkpt>
      <trkpt lat="45.6672" lon="4.6682">
        <ele>433.8</ele>
        <time>2025-11-11T09:33:39Z</time>
      </trkpt>
      <trkpt lat="45.66718" lon="4.66825">
        <ele>433.8</ele>
        <time>2025-11-11T09:33:40Z</time>
      </trkpt>
      <trkpt lat="45.66715" lon="4.6683">
        <ele>433.6</ele>
        <time>2025-11-11T09:33:41Z</time>
      </trkpt>
      <trkpt lat="45.66712" lon="4.66835">
        <ele>433.6</ele>
        <time>2025-11-11T09:33:42Z</time>
      </trkpt>
      <trkpt lat="45.66708" lon="4.66839">
        <ele>433.6</ele>
        <time>2025-11-11T09:33:43Z</time>
      </trkpt>
      <trkpt lat="45.66704" lon="4.66844">
        <ele>433.6</ele>
        <time>2025-11-11T09:33:44Z</time>
      </trkpt>
      <trkpt lat="45.667" lon="4.66848">
        <ele>433.4</ele>
        <time>2025-11-11T09:33:45Z</time>
      </trkpt>
      <trkpt lat="45.66696" lon="4.66852">
        <ele>433.2</ele>
        <time>2025-11-11T09:33:46Z</time>
      </trkpt>
      <trkpt lat="45.66692" lon="4.66856">
        <ele>433.2</ele>
        <time>2025-11-11T09:33:47Z</time>
      </trkpt>
      <trkpt lat="45.66688" lon="4.66859">
        <ele>433</ele>
        <time>2025-11-11T09:33:48Z</time>
      </trkpt>
      <trkpt lat="45.66683" lon="4.66861">
        <ele>432.8</ele>
        <time>2025-11-11T09:33:49Z</time>
      </trkpt>
      <trkpt lat="45.66679" lon="4.66862">
        <ele>432.8</ele>
        <time>2025-11-11T09:33:50Z</time>
      </trkpt>
      <trkpt lat="45.66675" lon="4.6686">
        <ele>433</ele>
        <time>2025-11-11T09:33:51Z</time>
      </trkpt>
      <trkpt lat="45.66671" lon="4.66856">
        <ele>433</ele>
        <time>2025-11-11T09:33:52Z</time>
      </trkpt>
      <trkpt lat="45.66668" lon="4.66852">
        <ele>433.2</ele>
        <time>2025-11-11T09:33:53Z</time>
      </trkpt>
      <trkpt lat="45.66665" lon="4.66847">
        <ele>433.4</ele>
        <time>2025-11-11T09:33:54Z</time>
      </trkpt>
      <trkpt lat="45.66663" lon="4.66842">
        <ele>433.6</ele>
        <time>2025-11-11T09:33:55Z</time>
      </trkpt>
      <trkpt lat="45.6666" lon="4.66837">
        <ele>434</ele>
        <time>2025-11-11T09:33:56Z</time>
      </trkpt>
      <trkpt lat="45.66658" lon="4.66833">
        <ele>434.2</ele>
        <time>2025-11-11T09:33:57Z</time>
      </trkpt>
      <trkpt lat="45.66655" lon="4.66828">
        <ele>434.4</ele>
        <time>2025-11-11T09:33:58Z</time>
      </trkpt>
      <trkpt lat="45.66653" lon="4.66823">
        <ele>434.6</ele>
        <time>2025-11-11T09:33:59Z</time>
      </trkpt>
      <trkpt lat="45.66651" lon="4.66818">
        <ele>434.8</ele>
        <time>2025-11-11T09:34:00Z</time>
      </trkpt>
      <trkpt lat="45.6665" lon="4.66812">
        <ele>435.2</ele>
        <time>2025-11-11T09:34:01Z</time>
      </trkpt>
      <trkpt lat="45.66649" lon="4.66807">
        <ele>435.4</ele>
        <time>2025-11-11T09:34:02Z</time>
      </trkpt>
      <trkpt lat="45.66648" lon="4.66801">
        <ele>435.6</ele>
        <time>2025-11-11T09:34:03Z</time>
      </trkpt>
      <trkpt lat="45.66648" lon="4.66796">
        <ele>436</ele>
        <time>2025-11-11T09:34:04Z</time>
      </trkpt>
      <trkpt lat="45.66648" lon="4.6679">
        <ele>436.2</ele>
        <time>2025-11-11T09:34:05Z</time>
      </trkpt>
      <trkpt lat="45.66647" lon="4.66783">
        <ele>436.4</ele>
        <time>2025-11-11T09:34:06Z</time>
      </trkpt>
      <trkpt lat="45.66647" lon="4.66777">
        <ele>436.6</ele>
        <time>2025-11-11T09:34:07Z</time>
      </trkpt>
      <trkpt lat="45.66646" lon="4.66771">
        <ele>436.8</ele>
        <time>2025-11-11T09:34:08Z</time>
      </trkpt>
      <trkpt lat="45.66645" lon="4.66766">
        <ele>436.8</ele>
        <time>2025-11-11T09:34:09Z</time>
      </trkpt>
      <trkpt lat="45.66643" lon="4.66758">
        <ele>437</ele>
        <time>2025-11-11T09:34:10Z</time>
      </trkpt>
      <trkpt lat="45.66641" lon="4.66752">
        <ele>437</ele>
        <time>2025-11-11T09:34:11Z</time>
      </trkpt>
      <trkpt lat="45.66639" lon="4.66746">
        <ele>437</ele>
        <time>2025-11-11T09:34:12Z</time>
      </trkpt>
      <trkpt lat="45.66637" lon="4.6674">
        <ele>437</ele>
        <time>2025-11-11T09:34:13Z</time>
      </trkpt>
      <trkpt lat="45.66635" lon="4.66734">
        <ele>437</ele>
        <time>2025-11-11T09:34:14Z</time>
      </trkpt>
      <trkpt lat="45.66633" lon="4.66728">
        <ele>437.2</ele>
        <time>2025-11-11T09:34:15Z</time>
      </trkpt>
      <trkpt lat="45.6663" lon="4.66722">
        <ele>437.2</ele>
        <time>2025-11-11T09:34:16Z</time>
      </trkpt>
      <trkpt lat="45.66628" lon="4.66716">
        <ele>437.4</ele>
        <time>2025-11-11T09:34:17Z</time>
      </trkpt>
      <trkpt lat="45.66626" lon="4.6671">
        <ele>437.4</ele>
        <time>2025-11-11T09:34:18Z</time>
      </trkpt>
      <trkpt lat="45.66623" lon="4.66704">
        <ele>437.6</ele>
        <time>2025-11-11T09:34:19Z</time>
      </trkpt>
      <trkpt lat="45.66622" lon="4.66699">
        <ele>437.8</ele>
        <time>2025-11-11T09:34:20Z</time>
      </trkpt>
      <trkpt lat="45.6662" lon="4.66694">
        <ele>438</ele>
        <time>2025-11-11T09:34:21Z</time>
      </trkpt>
      <trkpt lat="45.66617" lon="4.66689">
        <ele>438.2</ele>
        <time>2025-11-11T09:34:22Z</time>
      </trkpt>
      <trkpt lat="45.66615" lon="4.66684">
        <ele>438.6</ele>
        <time>2025-11-11T09:34:23Z</time>
      </trkpt>
      <trkpt lat="45.66612" lon="4.6668">
        <ele>439</ele>
        <time>2025-11-11T09:34:24Z</time>
      </trkpt>
      <trkpt lat="45.66609" lon="4.66676">
        <ele>439.4</ele>
        <time>2025-11-11T09:34:25Z</time>
      </trkpt>
      <trkpt lat="45.66606" lon="4.66673">
        <ele>440</ele>
        <time>2025-11-11T09:34:26Z</time>
      </trkpt>
      <trkpt lat="45.66603" lon="4.6667">
        <ele>440.4</ele>
        <time>2025-11-11T09:34:27Z</time>
      </trkpt>
      <trkpt lat="45.666" lon="4.66667">
        <ele>440.8</ele>
        <time>2025-11-11T09:34:28Z</time>
      </trkpt>
      <trkpt lat="45.66596" lon="4.66664">
        <ele>441.4</ele>
        <time>2025-11-11T09:34:29Z</time>
      </trkpt>
      <trkpt lat="45.66593" lon="4.66661">
        <ele>441.8</ele>
        <time>2025-11-11T09:34:30Z</time>
      </trkpt>
      <trkpt lat="45.66589" lon="4.66658">
        <ele>442</ele>
        <time>2025-11-11T09:34:31Z</time>
      </trkpt>
      <trkpt lat="45.66586" lon="4.66655">
        <ele>442.2</ele>
        <time>2025-11-11T09:34:32Z</time>
      </trkpt>
      <trkpt lat="45.66582" lon="4.66652">
        <ele>442.4</ele>
        <time>2025-11-11T09:34:33Z</time>
      </trkpt>
      <trkpt lat="45.66578" lon="4.66649">
        <ele>442.6</ele>
        <time>2025-11-11T09:34:34Z</time>
      </trkpt>
      <trkpt lat="45.66574" lon="4.66646">
        <ele>442.6</ele>
        <time>2025-11-11T09:34:35Z</time>
      </trkpt>
      <trkpt lat="45.6657" lon="4.66643">
        <ele>442.8</ele>
        <time>2025-11-11T09:34:36Z</time>
      </trkpt>
      <trkpt lat="45.66566" lon="4.6664">
        <ele>442.8</ele>
        <time>2025-11-11T09:34:37Z</time>
      </trkpt>
      <trkpt lat="45.66562" lon="4.66637">
        <ele>443</ele>
        <time>2025-11-11T09:34:38Z</time>
      </trkpt>
      <trkpt lat="45.66558" lon="4.66634">
        <ele>443.2</ele>
        <time>2025-11-11T09:34:39Z</time>
      </trkpt>
      <trkpt lat="45.66554" lon="4.66631">
        <ele>443.4</ele>
        <time>2025-11-11T09:34:40Z</time>
      </trkpt>
      <trkpt lat="45.6655" lon="4.66629">
        <ele>443.4</ele>
        <time>2025-11-11T09:34:41Z</time>
      </trkpt>
      <trkpt lat="45.66546" lon="4.66626">
        <ele>443.6</ele>
        <time>2025-11-11T09:34:42Z</time>
      </trkpt>
      <trkpt lat="45.66542" lon="4.66623">
        <ele>443.8</ele>
        <time>2025-11-11T09:34:43Z</time>
      </trkpt>
      <trkpt lat="45.66538" lon="4.66621">
        <ele>443.8</ele>
        <time>2025-11-11T09:34:44Z</time>
      </trkpt>
      <trkpt lat="45.66534" lon="4.66618">
        <ele>444</ele>
        <time>2025-11-11T09:34:45Z</time>
      </trkpt>
      <trkpt lat="45.66531" lon="4.66615">
        <ele>444.2</ele>
        <time>2025-11-11T09:34:46Z</time>
      </trkpt>
      <trkpt lat="45.66527" lon="4.66612">
        <ele>444.4</ele>
        <time>2025-11-11T09:34:47Z</time>
      </trkpt>
      <trkpt lat="45.66523" lon="4.66609">
        <ele>444.6</ele>
        <time>2025-11-11T09:34:48Z</time>
      </trkpt>
      <trkpt lat="45.66519" lon="4.66606">
        <ele>444.8</ele>
        <time>2025-11-11T09:34:49Z</time>
      </trkpt>
      <trkpt lat="45.66515" lon="4.66602">
        <ele>444.8</ele>
        <time>2025-11-11T09:34:50Z</time>
      </trkpt>
      <trkpt lat="45.66511" lon="4.66599">
        <ele>444.8</ele>
        <time>2025-11-11T09:34:51Z</time>
      </trkpt>
      <trkpt lat="45.66507" lon="4.66596">
        <ele>444.8</ele>
        <time>2025-11-11T09:34:52Z</time>
      </trkpt>
      <trkpt lat="45.66503" lon="4.66591">
        <ele>444.8</ele>
        <time>2025-11-11T09:34:53Z</time>
      </trkpt>
      <trkpt lat="45.66499" lon="4.66588">
        <ele>444.8</ele>
        <time>2025-11-11T09:34:54Z</time>
      </trkpt>
      <trkpt lat="45.66495" lon="4.66584">
        <ele>444.8</ele>
        <time>2025-11-11T09:34:55Z</time>
      </trkpt>
      <trkpt lat="45.66491" lon="4.66581">
        <ele>444.8</ele>
        <time>2025-11-11T09:34:56Z</time>
      </trkpt>
      <trkpt lat="45.66487" lon="4.66578">
        <ele>444.8</ele>
        <time>2025-11-11T09:34:57Z</time>
      </trkpt>
      <trkpt lat="45.66482" lon="4.66576">
        <ele>444.8</ele>
        <time>2025-11-11T09:34:58Z</time>
      </trkpt>
      <trkpt lat="45.66478" lon="4.66576">
        <ele>444.8</ele>
        <time>2025-11-11T09:34:59Z</time>
      </trkpt>
      <trkpt lat="45.66472" lon="4.66577">
        <ele>444.6</ele>
        <time>2025-11-11T09:35:00Z</time>
      </trkpt>
      <trkpt lat="45.66467" lon="4.66579">
        <ele>444.4</ele>
        <time>2025-11-11T09:35:01Z</time>
      </trkpt>
      <trkpt lat="45.66461" lon="4.6658">
        <ele>444.2</ele>
        <time>2025-11-11T09:35:02Z</time>
      </trkpt>
      <trkpt lat="45.66456" lon="4.66581">
        <ele>444</ele>
        <time>2025-11-11T09:35:03Z</time>
      </trkpt>
      <trkpt lat="45.6645" lon="4.66583">
        <ele>443.8</ele>
        <time>2025-11-11T09:35:04Z</time>
      </trkpt>
      <trkpt lat="45.66445" lon="4.66584">
        <ele>443.6</ele>
        <time>2025-11-11T09:35:05Z</time>
      </trkpt>
      <trkpt lat="45.66439" lon="4.66586">
        <ele>443.6</ele>
        <time>2025-11-11T09:35:06Z</time>
      </trkpt>
      <trkpt lat="45.66433" lon="4.66588">
        <ele>443.4</ele>
        <time>2025-11-11T09:35:07Z</time>
      </trkpt>
      <trkpt lat="45.66427" lon="4.6659">
        <ele>443.2</ele>
        <time>2025-11-11T09:35:08Z</time>
      </trkpt>
      <trkpt lat="45.66421" lon="4.66592">
        <ele>443.2</ele>
        <time>2025-11-11T09:35:09Z</time>
      </trkpt>
      <trkpt lat="45.66417" lon="4.66593">
        <ele>443</ele>
        <time>2025-11-11T09:35:10Z</time>
      </trkpt>
      <trkpt lat="45.6641" lon="4.66595">
        <ele>443</ele>
        <time>2025-11-11T09:35:11Z</time>
      </trkpt>
      <trkpt lat="45.66405" lon="4.66595">
        <ele>443</ele>
        <time>2025-11-11T09:35:12Z</time>
      </trkpt>
      <trkpt lat="45.66399" lon="4.66595">
        <ele>443</ele>
        <time>2025-11-11T09:35:13Z</time>
      </trkpt>
      <trkpt lat="45.66395" lon="4.66595">
        <ele>443.2</ele>
        <time>2025-11-11T09:35:14Z</time>
      </trkpt>
      <trkpt lat="45.66389" lon="4.66594">
        <ele>443.2</ele>
        <time>2025-11-11T09:35:15Z</time>
      </trkpt>
      <trkpt lat="45.66383" lon="4.66593">
        <ele>443.4</ele>
        <time>2025-11-11T09:35:16Z</time>
      </trkpt>
      <trkpt lat="45.66378" lon="4.66592">
        <ele>443.4</ele>
        <time>2025-11-11T09:35:17Z</time>
      </trkpt>
      <trkpt lat="45.66373" lon="4.66591">
        <ele>443.6</ele>
        <time>2025-11-11T09:35:18Z</time>
      </trkpt>
      <trkpt lat="45.66368" lon="4.66589">
        <ele>443.8</ele>
        <time>2025-11-11T09:35:19Z</time>
      </trkpt>
      <trkpt lat="45.66363" lon="4.66588">
        <ele>444</ele>
        <time>2025-11-11T09:35:20Z</time>
      </trkpt>
      <trkpt lat="45.66358" lon="4.66588">
        <ele>444.2</ele>
        <time>2025-11-11T09:35:21Z</time>
      </trkpt>
      <trkpt lat="45.66353" lon="4.66587">
        <ele>444.4</ele>
        <time>2025-11-11T09:35:22Z</time>
      </trkpt>
      <trkpt lat="45.66348" lon="4.66587">
        <ele>444.4</ele>
        <time>2025-11-11T09:35:23Z</time>
      </trkpt>
      <trkpt lat="45.66344" lon="4.66588">
        <ele>444.6</ele>
        <time>2025-11-11T09:35:24Z</time>
      </trkpt>
      <trkpt lat="45.6634" lon="4.66591">
        <ele>444.8</ele>
        <time>2025-11-11T09:35:25Z</time>
      </trkpt>
      <trkpt lat="45.66337" lon="4.66596">
        <ele>444.8</ele>
        <time>2025-11-11T09:35:26Z</time>
      </trkpt>
      <trkpt lat="45.66333" lon="4.66601">
        <ele>444.8</ele>
        <time>2025-11-11T09:35:27Z</time>
      </trkpt>
      <trkpt lat="45.6633" lon="4.66607">
        <ele>444.8</ele>
        <time>2025-11-11T09:35:28Z</time>
      </trkpt>
      <trkpt lat="45.66327" lon="4.66612">
        <ele>444.6</ele>
        <time>2025-11-11T09:35:29Z</time>
      </trkpt>
      <trkpt lat="45.66323" lon="4.66617">
        <ele>444.6</ele>
        <time>2025-11-11T09:35:30Z</time>
      </trkpt>
      <trkpt lat="45.6632" lon="4.66619">
        <ele>444.6</ele>
        <time>2025-11-11T09:35:31Z</time>
      </trkpt>
      <trkpt lat="45.66316" lon="4.66618">
        <ele>444.8</ele>
        <time>2025-11-11T09:35:32Z</time>
      </trkpt>
      <trkpt lat="45.66314" lon="4.66615">
        <ele>445</ele>
        <time>2025-11-11T09:35:33Z</time>
      </trkpt>
      <trkpt lat="45.66311" lon="4.66611">
        <ele>445.2</ele>
        <time>2025-11-11T09:35:34Z</time>
      </trkpt>
      <trkpt lat="45.66308" lon="4.66608">
        <ele>445.4</ele>
        <time>2025-11-11T09:35:35Z</time>
      </trkpt>
      <trkpt lat="45.66305" lon="4.66606">
        <ele>445.6</ele>
        <time>2025-11-11T09:35:36Z</time>
      </trkpt>
      <trkpt lat="45.66301" lon="4.66603">
        <ele>445.8</ele>
        <time>2025-11-11T09:35:37Z</time>
      </trkpt>
      <trkpt lat="45.66297" lon="4.66601">
        <ele>446</ele>
        <time>2025-11-11T09:35:38Z</time>
      </trkpt>
      <trkpt lat="45.66294" lon="4.66599">
        <ele>446.4</ele>
        <time>2025-11-11T09:35:39Z</time>
      </trkpt>
      <trkpt lat="45.6629" lon="4.66597">
        <ele>446.6</ele>
        <time>2025-11-11T09:35:40Z</time>
      </trkpt>
      <trkpt lat="45.66287" lon="4.66595">
        <ele>446.8</ele>
        <time>2025-11-11T09:35:41Z</time>
      </trkpt>
      <trkpt lat="45.66284" lon="4.66594">
        <ele>447.2</ele>
        <time>2025-11-11T09:35:42Z</time>
      </trkpt>
      <trkpt lat="45.66281" lon="4.66594">
        <ele>447.4</ele>
        <time>2025-11-11T09:35:43Z</time>
      </trkpt>
      <trkpt lat="45.66278" lon="4.66592">
        <ele>447.8</ele>
        <time>2025-11-11T09:35:44Z</time>
      </trkpt>
      <trkpt lat="45.66277" lon="4.66588">
        <ele>448.2</ele>
        <time>2025-11-11T09:35:45Z</time>
      </trkpt>
      <trkpt lat="45.66277" lon="4.66583">
        <ele>448.4</ele>
        <time>2025-11-11T09:35:46Z</time>
      </trkpt>
      <trkpt lat="45.66278" lon="4.66578">
        <ele>448.6</ele>
        <time>2025-11-11T09:35:47Z</time>
      </trkpt>
      <trkpt lat="45.66279" lon="4.66572">
        <ele>448.8</ele>
        <time>2025-11-11T09:35:48Z</time>
      </trkpt>
      <trkpt lat="45.6628" lon="4.66567">
        <ele>449</ele>
        <time>2025-11-11T09:35:49Z</time>
      </trkpt>
      <trkpt lat="45.6628" lon="4.66561">
        <ele>449.2</ele>
        <time>2025-11-11T09:35:50Z</time>
      </trkpt>
      <trkpt lat="45.66281" lon="4.66556">
        <ele>449.4</ele>
        <time>2025-11-11T09:35:51Z</time>
      </trkpt>
      <trkpt lat="45.66281" lon="4.6655">
        <ele>449.6</ele>
        <time>2025-11-11T09:35:52Z</time>
      </trkpt>
      <trkpt lat="45.66282" lon="4.66545">
        <ele>449.8</ele>
        <time>2025-11-11T09:35:53Z</time>
      </trkpt>
      <trkpt lat="45.66282" lon="4.6654">
        <ele>450</ele>
        <time>2025-11-11T09:35:54Z</time>
      </trkpt>
      <trkpt lat="45.66282" lon="4.66535">
        <ele>450.2</ele>
        <time>2025-11-11T09:35:55Z</time>
      </trkpt>
      <trkpt lat="45.66281" lon="4.66529">
        <ele>450.4</ele>
        <time>2025-11-11T09:35:56Z</time>
      </trkpt>
      <trkpt lat="45.6628" lon="4.66524">
        <ele>450.8</ele>
        <time>2025-11-11T09:35:57Z</time>
      </trkpt>
      <trkpt lat="45.6628" lon="4.66518">
        <ele>451</ele>
        <time>2025-11-11T09:35:58Z</time>
      </trkpt>
      <trkpt lat="45.6628" lon="4.66512">
        <ele>451.2</ele>
        <time>2025-11-11T09:35:59Z</time>
      </trkpt>
      <trkpt lat="45.6628" lon="4.66506">
        <ele>451.6</ele>
        <time>2025-11-11T09:36:00Z</time>
      </trkpt>
      <trkpt lat="45.6628" lon="4.665">
        <ele>451.8</ele>
        <time>2025-11-11T09:36:01Z</time>
      </trkpt>
      <trkpt lat="45.66282" lon="4.66494">
        <ele>452.2</ele>
        <time>2025-11-11T09:36:02Z</time>
      </trkpt>
      <trkpt lat="45.66283" lon="4.66489">
        <ele>452.4</ele>
        <time>2025-11-11T09:36:03Z</time>
      </trkpt>
      <trkpt lat="45.66284" lon="4.66484">
        <ele>452.6</ele>
        <time>2025-11-11T09:36:04Z</time>
      </trkpt>
      <trkpt lat="45.66285" lon="4.66479">
        <ele>452.8</ele>
        <time>2025-11-11T09:36:05Z</time>
      </trkpt>
      <trkpt lat="45.66286" lon="4.66474">
        <ele>453.2</ele>
        <time>2025-11-11T09:36:06Z</time>
      </trkpt>
      <trkpt lat="45.66287" lon="4.66469">
        <ele>453.4</ele>
        <time>2025-11-11T09:36:07Z</time>
      </trkpt>
      <trkpt lat="45.66288" lon="4.66464">
        <ele>453.8</ele>
        <time>2025-11-11T09:36:08Z</time>
      </trkpt>
      <trkpt lat="45.6629" lon="4.66459">
        <ele>454.2</ele>
        <time>2025-11-11T09:36:09Z</time>
      </trkpt>
      <trkpt lat="45.66291" lon="4.66455">
        <ele>454.4</ele>
        <time>2025-11-11T09:36:10Z</time>
      </trkpt>
      <trkpt lat="45.66293" lon="4.66451">
        <ele>454.8</ele>
        <time>2025-11-11T09:36:11Z</time>
      </trkpt>
      <trkpt lat="45.66295" lon="4.66447">
        <ele>455</ele>
        <time>2025-11-11T09:36:12Z</time>
      </trkpt>
      <trkpt lat="45.66296" lon="4.66443">
        <ele>455.2</ele>
        <time>2025-11-11T09:36:13Z</time>
      </trkpt>
      <trkpt lat="45.66298" lon="4.6644">
        <ele>455.6</ele>
        <time>2025-11-11T09:36:14Z</time>
      </trkpt>
      <trkpt lat="45.663" lon="4.66437">
        <ele>455.8</ele>
        <time>2025-11-11T09:36:15Z</time>
      </trkpt>
      <trkpt lat="45.66301" lon="4.66434">
        <ele>456</ele>
        <time>2025-11-11T09:36:16Z</time>
      </trkpt>
      <trkpt lat="45.66302" lon="4.66431">
        <ele>456.4</ele>
        <time>2025-11-11T09:36:17Z</time>
      </trkpt>
      <trkpt lat="45.66303" lon="4.66427">
        <ele>456.6</ele>
        <time>2025-11-11T09:36:18Z</time>
      </trkpt>
      <trkpt lat="45.66302" lon="4.66424">
        <ele>456.8</ele>
        <time>2025-11-11T09:36:19Z</time>
      </trkpt>
      <trkpt lat="45.66302" lon="4.6642">
        <ele>457</ele>
        <time>2025-11-11T09:36:20Z</time>
      </trkpt>
      <trkpt lat="45.663" lon="4.66418">
        <ele>457.4</ele>
        <time>2025-11-11T09:36:21Z</time>
      </trkpt>
      <trkpt lat="45.66298" lon="4.66417">
        <ele>457.6</ele>
        <time>2025-11-11T09:36:22Z</time>
      </trkpt>
      <trkpt lat="45.66295" lon="4.66415">
        <ele>457.8</ele>
        <time>2025-11-11T09:36:23Z</time>
      </trkpt>
      <trkpt lat="45.66293" lon="4.66414">
        <ele>458.2</ele>
        <time>2025-11-11T09:36:24Z</time>
      </trkpt>
      <trkpt lat="45.6629" lon="4.66412">
        <ele>458.4</ele>
        <time>2025-11-11T09:36:25Z</time>
      </trkpt>
      <trkpt lat="45.66287" lon="4.66412">
        <ele>458.6</ele>
        <time>2025-11-11T09:36:26Z</time>
      </trkpt>
      <trkpt lat="45.66285" lon="4.6641">
        <ele>459</ele>
        <time>2025-11-11T09:36:27Z</time>
      </trkpt>
      <trkpt lat="45.66282" lon="4.66409">
        <ele>459.2</ele>
        <time>2025-11-11T09:36:28Z</time>
      </trkpt>
      <trkpt lat="45.66279" lon="4.66407">
        <ele>459.4</ele>
        <time>2025-11-11T09:36:29Z</time>
      </trkpt>
      <trkpt lat="45.66276" lon="4.66405">
        <ele>459.6</ele>
        <time>2025-11-11T09:36:30Z</time>
      </trkpt>
      <trkpt lat="45.66272" lon="4.66402">
        <ele>460</ele>
        <time>2025-11-11T09:36:31Z</time>
      </trkpt>
      <trkpt lat="45.66269" lon="4.66401">
        <ele>460.2</ele>
        <time>2025-11-11T09:36:32Z</time>
      </trkpt>
      <trkpt lat="45.66265" lon="4.66399">
        <ele>460.4</ele>
        <time>2025-11-11T09:36:33Z</time>
      </trkpt>
      <trkpt lat="45.66262" lon="4.66397">
        <ele>460.6</ele>
        <time>2025-11-11T09:36:34Z</time>
      </trkpt>
      <trkpt lat="45.66258" lon="4.66396">
        <ele>460.8</ele>
        <time>2025-11-11T09:36:35Z</time>
      </trkpt>
      <trkpt lat="45.66255" lon="4.66394">
        <ele>461</ele>
        <time>2025-11-11T09:36:36Z</time>
      </trkpt>
      <trkpt lat="45.66252" lon="4.66393">
        <ele>461.2</ele>
        <time>2025-11-11T09:36:37Z</time>
      </trkpt>
      <trkpt lat="45.66248" lon="4.66391">
        <ele>461.4</ele>
        <time>2025-11-11T09:36:38Z</time>
      </trkpt>
      <trkpt lat="45.66245" lon="4.66389">
        <ele>461.6</ele>
        <time>2025-11-11T09:36:39Z</time>
      </trkpt>
      <trkpt lat="45.66241" lon="4.66387">
        <ele>461.8</ele>
        <time>2025-11-11T09:36:40Z</time>
      </trkpt>
      <trkpt lat="45.66238" lon="4.66384">
        <ele>462</ele>
        <time>2025-11-11T09:36:41Z</time>
      </trkpt>
      <trkpt lat="45.66236" lon="4.66382">
        <ele>462.2</ele>
        <time>2025-11-11T09:36:42Z</time>
      </trkpt>
      <trkpt lat="45.66233" lon="4.66379">
        <ele>462.6</ele>
        <time>2025-11-11T09:36:43Z</time>
      </trkpt>
      <trkpt lat="45.66231" lon="4.66377">
        <ele>462.8</ele>
        <time>2025-11-11T09:36:44Z</time>
      </trkpt>
      <trkpt lat="45.66228" lon="4.66374">
        <ele>463</ele>
        <time>2025-11-11T09:36:45Z</time>
      </trkpt>
      <trkpt lat="45.66226" lon="4.66372">
        <ele>463.2</ele>
        <time>2025-11-11T09:36:46Z</time>
      </trkpt>
      <trkpt lat="45.66224" lon="4.66369">
        <ele>463.4</ele>
        <time>2025-11-11T09:36:47Z</time>
      </trkpt>
      <trkpt lat="45.66222" lon="4.66366">
        <ele>463.6</ele>
        <time>2025-11-11T09:36:48Z</time>
      </trkpt>
      <trkpt lat="45.6622" lon="4.66363">
        <ele>464</ele>
        <time>2025-11-11T09:36:49Z</time>
      </trkpt>
      <trkpt lat="45.66218" lon="4.66361">
        <ele>464.2</ele>
        <time>2025-11-11T09:36:50Z</time>
      </trkpt>
      <trkpt lat="45.66216" lon="4.66359">
        <ele>464.6</ele>
        <time>2025-11-11T09:36:51Z</time>
      </trkpt>
      <trkpt lat="45.66213" lon="4.66356">
        <ele>465</ele>
        <time>2025-11-11T09:36:52Z</time>
      </trkpt>
      <trkpt lat="45.66211" lon="4.66354">
        <ele>465.2</ele>
        <time>2025-11-11T09:36:53Z</time>
      </trkpt>
      <trkpt lat="45.66209" lon="4.66352">
        <ele>465.6</ele>
        <time>2025-11-11T09:36:54Z</time>
      </trkpt>
      <trkpt lat="45.66207" lon="4.66349">
        <ele>466</ele>
        <time>2025-11-11T09:36:55Z</time>
      </trkpt>
      <trkpt lat="45.66205" lon="4.66347">
        <ele>466.2</ele>
        <time>2025-11-11T09:36:56Z</time>
      </trkpt>
      <trkpt lat="45.66203" lon="4.66344">
        <ele>466.6</ele>
        <time>2025-11-11T09:36:57Z</time>
      </trkpt>
      <trkpt lat="45.66201" lon="4.66342">
        <ele>467</ele>
        <time>2025-11-11T09:36:58Z</time>
      </trkpt>
      <trkpt lat="45.662" lon="4.6634">
        <ele>467.4</ele>
        <time>2025-11-11T09:36:59Z</time>
      </trkpt>
      <trkpt lat="45.66198" lon="4.66339">
        <ele>467.8</ele>
        <time>2025-11-11T09:37:00Z</time>
      </trkpt>
      <trkpt lat="45.66196" lon="4.66337">
        <ele>468</ele>
        <time>2025-11-11T09:37:01Z</time>
      </trkpt>
      <trkpt lat="45.66195" lon="4.66335">
        <ele>468.4</ele>
        <time>2025-11-11T09:37:02Z</time>
      </trkpt>
      <trkpt lat="45.66193" lon="4.66333">
        <ele>468.6</ele>
        <time>2025-11-11T09:37:03Z</time>
      </trkpt>
      <trkpt lat="45.66191" lon="4.66332">
        <ele>469</ele>
        <time>2025-11-11T09:37:04Z</time>
      </trkpt>
      <trkpt lat="45.6619" lon="4.6633">
        <ele>469.4</ele>
        <time>2025-11-11T09:37:05Z</time>
      </trkpt>
      <trkpt lat="45.66188" lon="4.66329">
        <ele>469.6</ele>
        <time>2025-11-11T09:37:06Z</time>
      </trkpt>
      <trkpt lat="45.66186" lon="4.66328">
        <ele>470</ele>
        <time>2025-11-11T09:37:07Z</time>
      </trkpt>
      <trkpt lat="45.66185" lon="4.66326">
        <ele>470.4</ele>
        <time>2025-11-11T09:37:08Z</time>
      </trkpt>
      <trkpt lat="45.66183" lon="4.66325">
        <ele>470.6</ele>
        <time>2025-11-11T09:37:09Z</time>
      </trkpt>
      <trkpt lat="45.66181" lon="4.66324">
        <ele>471</ele>
        <time>2025-11-11T09:37:10Z</time>
      </trkpt>
      <trkpt lat="45.66179" lon="4.66323">
        <ele>471.4</ele>
        <time>2025-11-11T09:37:11Z</time>
      </trkpt>
      <trkpt lat="45.66177" lon="4.66322">
        <ele>471.6</ele>
        <time>2025-11-11T09:37:12Z</time>
      </trkpt>
      <trkpt lat="45.66176" lon="4.6632">
        <ele>472</ele>
        <time>2025-11-11T09:37:13Z</time>
      </trkpt>
      <trkpt lat="45.66174" lon="4.6632">
        <ele>472.4</ele>
        <time>2025-11-11T09:37:14Z</time>
      </trkpt>
      <trkpt lat="45.66173" lon="4.66319">
        <ele>472.6</ele>
        <time>2025-11-11T09:37:15Z</time>
      </trkpt>
      <trkpt lat="45.66171" lon="4.66318">
        <ele>473</ele>
        <time>2025-11-11T09:37:16Z</time>
      </trkpt>
      <trkpt lat="45.66169" lon="4.66317">
        <ele>473.2</ele>
        <time>2025-11-11T09:37:17Z</time>
      </trkpt>
      <trkpt lat="45.66168" lon="4.66315">
        <ele>473.6</ele>
        <time>2025-11-11T09:37:18Z</time>
      </trkpt>
      <trkpt lat="45.66166" lon="4.66314">
        <ele>473.8</ele>
        <time>2025-11-11T09:37:19Z</time>
      </trkpt>
      <trkpt lat="45.66164" lon="4.66313">
        <ele>474.2</ele>
        <time>2025-11-11T09:37:20Z</time>
      </trkpt>
      <trkpt lat="45.66163" lon="4.66312">
        <ele>474.6</ele>
        <time>2025-11-11T09:37:21Z</time>
      </trkpt>
      <trkpt lat="45.66161" lon="4.66311">
        <ele>474.8</ele>
        <time>2025-11-11T09:37:22Z</time>
      </trkpt>
      <trkpt lat="45.66158" lon="4.6631">
        <ele>475</ele>
        <time>2025-11-11T09:37:23Z</time>
      </trkpt>
      <trkpt lat="45.66156" lon="4.66308">
        <ele>475.4</ele>
        <time>2025-11-11T09:37:24Z</time>
      </trkpt>
      <trkpt lat="45.66154" lon="4.66308">
        <ele>475.6</ele>
        <time>2025-11-11T09:37:25Z</time>
      </trkpt>
      <trkpt lat="45.66152" lon="4.66307">
        <ele>475.8</ele>
        <time>2025-11-11T09:37:26Z</time>
      </trkpt>
      <trkpt lat="45.66152" lon="4.66307">
        <ele>476</ele>
        <time>2025-11-11T09:37:27Z</time>
      </trkpt>
      <trkpt lat="45.66151" lon="4.66305">
        <ele>476.4</ele>
        <time>2025-11-11T09:37:28Z</time>
      </trkpt>
      <trkpt lat="45.6615" lon="4.66304">
        <ele>476.6</ele>
        <time>2025-11-11T09:37:29Z</time>
      </trkpt>
      <trkpt lat="45.66148" lon="4.66303">
        <ele>476.8</ele>
        <time>2025-11-11T09:37:30Z</time>
      </trkpt>
      <trkpt lat="45.66147" lon="4.66302">
        <ele>477</ele>
        <time>2025-11-11T09:37:31Z</time>
      </trkpt>
      <trkpt lat="45.66146" lon="4.66301">
        <ele>477.2</ele>
        <time>2025-11-11T09:37:32Z</time>
      </trkpt>
      <trkpt lat="45.66146" lon="4.66301">
        <ele>477.4</ele>
        <time>2025-11-11T09:37:33Z</time>
      </trkpt>
      <trkpt lat="45.66146" lon="4.66301">
        <ele>477.6</ele>
        <time>2025-11-11T09:37:34Z</time>
      </trkpt>
      <trkpt lat="45.66145" lon="4.66301">
        <ele>477.8</ele>
        <time>2025-11-11T09:37:35Z</time>
      </trkpt>
      <trkpt lat="45.66144" lon="4.663">
        <ele>478</ele>
        <time>2025-11-11T09:37:36Z</time>
      </trkpt>
      <trkpt lat="45.66143" lon="4.66299">
        <ele>478</ele>
        <time>2025-11-11T09:37:37Z</time>
      </trkpt>
      <trkpt lat="45.66141" lon="4.66297">
        <ele>478.2</ele>
        <time>2025-11-11T09:37:38Z</time>
      </trkpt>
      <trkpt lat="45.66139" lon="4.66296">
        <ele>478.2</ele>
        <time>2025-11-11T09:37:39Z</time>
      </trkpt>
      <trkpt lat="45.66137" lon="4.66294">
        <ele>478.4</ele>
        <time>2025-11-11T09:37:40Z</time>
      </trkpt>
      <trkpt lat="45.66135" lon="4.66293">
        <ele>478.6</ele>
        <time>2025-11-11T09:37:41Z</time>
      </trkpt>
      <trkpt lat="45.66133" lon="4.66291">
        <ele>478.8</ele>
        <time>2025-11-11T09:37:42Z</time>
      </trkpt>
      <trkpt lat="45.66131" lon="4.6629">
        <ele>479</ele>
        <time>2025-11-11T09:37:43Z</time>
      </trkpt>
      <trkpt lat="45.6613" lon="4.66289">
        <ele>479.4</ele>
        <time>2025-11-11T09:37:44Z</time>
      </trkpt>
      <trkpt lat="45.66128" lon="4.66287">
        <ele>479.6</ele>
        <time>2025-11-11T09:37:45Z</time>
      </trkpt>
      <trkpt lat="45.66127" lon="4.66286">
        <ele>480</ele>
        <time>2025-11-11T09:37:46Z</time>
      </trkpt>
      <trkpt lat="45.66125" lon="4.66284">
        <ele>480.2</ele>
        <time>2025-11-11T09:37:47Z</time>
      </trkpt>
      <trkpt lat="45.66124" lon="4.66283">
        <ele>480.6</ele>
        <time>2025-11-11T09:37:48Z</time>
      </trkpt>
      <trkpt lat="45.66122" lon="4.66281">
        <ele>480.8</ele>
        <time>2025-11-11T09:37:49Z</time>
      </trkpt>
      <trkpt lat="45.66121" lon="4.6628">
        <ele>481</ele>
        <time>2025-11-11T09:37:50Z</time>
      </trkpt>
      <trkpt lat="45.66119" lon="4.66278">
        <ele>481.4</ele>
        <time>2025-11-11T09:37:51Z</time>
      </trkpt>
      <trkpt lat="45.66117" lon="4.66277">
        <ele>481.6</ele>
        <time>2025-11-11T09:37:52Z</time>
      </trkpt>
      <trkpt lat="45.66116" lon="4.66276">
        <ele>481.8</ele>
        <time>2025-11-11T09:37:53Z</time>
      </trkpt>
      <trkpt lat="45.66114" lon="4.66275">
        <ele>482</ele>
        <time>2025-11-11T09:37:54Z</time>
      </trkpt>
      <trkpt lat="45.66112" lon="4.66274">
        <ele>482.4</ele>
        <time>2025-11-11T09:37:55Z</time>
      </trkpt>
      <trkpt lat="45.66111" lon="4.66273">
        <ele>482.6</ele>
        <time>2025-11-11T09:37:56Z</time>
      </trkpt>
      <trkpt lat="45.66109" lon="4.66272">
        <ele>482.8</ele>
        <time>2025-11-11T09:37:57Z</time>
      </trkpt>
      <trkpt lat="45.66107" lon="4.66271">
        <ele>483.2</ele>
        <time>2025-11-11T09:37:58Z</time>
      </trkpt>
      <trkpt lat="45.66106" lon="4.6627">
        <ele>483.4</ele>
        <time>2025-11-11T09:37:59Z</time>
      </trkpt>
      <trkpt lat="45.66105" lon="4.66269">
        <ele>483.8</ele>
        <time>2025-11-11T09:38:00Z</time>
      </trkpt>
      <trkpt lat="45.66103" lon="4.66269">
        <ele>484</ele>
        <time>2025-11-11T09:38:01Z</time>
      </trkpt>
      <trkpt lat="45.66102" lon="4.66268">
        <ele>484.4</ele>
        <time>2025-11-11T09:38:02Z</time>
      </trkpt>
      <trkpt lat="45.661" lon="4.66266">
        <ele>484.6</ele>
        <time>2025-11-11T09:38:03Z</time>
      </trkpt>
      <trkpt lat="45.66098" lon="4.66265">
        <ele>484.8</ele>
        <time>2025-11-11T09:38:04Z</time>
      </trkpt>
      <trkpt lat="45.66096" lon="4.66263">
        <ele>485</ele>
        <time>2025-11-11T09:38:05Z</time>
      </trkpt>
      <trkpt lat="45.66094" lon="4.66261">
        <ele>485.2</ele>
        <time>2025-11-11T09:38:06Z</time>
      </trkpt>
      <trkpt lat="45.66093" lon="4.6626">
        <ele>485.4</ele>
        <time>2025-11-11T09:38:07Z</time>
      </trkpt>
      <trkpt lat="45.66091" lon="4.66258">
        <ele>485.6</ele>
        <time>2025-11-11T09:38:08Z</time>
      </trkpt>
      <trkpt lat="45.66089" lon="4.66257">
        <ele>486</ele>
        <time>2025-11-11T09:38:09Z</time>
      </trkpt>
      <trkpt lat="45.66088" lon="4.66256">
        <ele>486.2</ele>
        <time>2025-11-11T09:38:10Z</time>
      </trkpt>
      <trkpt lat="45.66085" lon="4.66254">
        <ele>486.6</ele>
        <time>2025-11-11T09:38:11Z</time>
      </trkpt>
      <trkpt lat="45.66084" lon="4.66252">
        <ele>486.8</ele>
        <time>2025-11-11T09:38:12Z</time>
      </trkpt>
      <trkpt lat="45.66082" lon="4.6625">
        <ele>487.2</ele>
        <time>2025-11-11T09:38:13Z</time>
      </trkpt>
      <trkpt lat="45.6608" lon="4.66249">
        <ele>487.4</ele>
        <time>2025-11-11T09:38:14Z</time>
      </trkpt>
      <trkpt lat="45.66078" lon="4.66248">
        <ele>487.6</ele>
        <time>2025-11-11T09:38:15Z</time>
      </trkpt>
      <trkpt lat="45.66076" lon="4.66246">
        <ele>487.8</ele>
        <time>2025-11-11T09:38:16Z</time>
      </trkpt>
      <trkpt lat="45.66074" lon="4.66245">
        <ele>488.2</ele>
        <time>2025-11-11T09:38:17Z</time>
      </trkpt>
      <trkpt lat="45.66072" lon="4.66244">
        <ele>488.4</ele>
        <time>2025-11-11T09:38:18Z</time>
      </trkpt>
      <trkpt lat="45.6607" lon="4.66241">
        <ele>488.6</ele>
        <time>2025-11-11T09:38:19Z</time>
      </trkpt>
      <trkpt lat="45.66069" lon="4.66238">
        <ele>488.6</ele>
        <time>2025-11-11T09:38:20Z</time>
      </trkpt>
      <trkpt lat="45.66068" lon="4.66234">
        <ele>488.8</ele>
        <time>2025-11-11T09:38:21Z</time>
      </trkpt>
      <trkpt lat="45.66068" lon="4.6623">
        <ele>489</ele>
        <time>2025-11-11T09:38:22Z</time>
      </trkpt>
      <trkpt lat="45.66069" lon="4.66227">
        <ele>489</ele>
        <time>2025-11-11T09:38:23Z</time>
      </trkpt>
      <trkpt lat="45.6607" lon="4.66224">
        <ele>489.2</ele>
        <time>2025-11-11T09:38:24Z</time>
      </trkpt>
      <trkpt lat="45.66072" lon="4.66223">
        <ele>489.4</ele>
        <time>2025-11-11T09:38:25Z</time>
      </trkpt>
      <trkpt lat="45.66074" lon="4.6622">
        <ele>489.6</ele>
        <time>2025-11-11T09:38:26Z</time>
      </trkpt>
      <trkpt lat="45.66075" lon="4.66218">
        <ele>489.8</ele>
        <time>2025-11-11T09:38:27Z</time>
      </trkpt>
      <trkpt lat="45.66077" lon="4.66215">
        <ele>490.2</ele>
        <time>2025-11-11T09:38:28Z</time>
      </trkpt>
      <trkpt lat="45.66078" lon="4.66212">
        <ele>490.4</ele>
        <time>2025-11-11T09:38:29Z</time>
      </trkpt>
      <trkpt lat="45.6608" lon="4.6621">
        <ele>490.6</ele>
        <time>2025-11-11T09:38:30Z</time>
      </trkpt>
      <trkpt lat="45.66082" lon="4.66207">
        <ele>491</ele>
        <time>2025-11-11T09:38:31Z</time>
      </trkpt>
      <trkpt lat="45.66083" lon="4.66205">
        <ele>491.4</ele>
        <time>2025-11-11T09:38:32Z</time>
      </trkpt>
      <trkpt lat="45.66085" lon="4.66202">
        <ele>491.6</ele>
        <time>2025-11-11T09:38:33Z</time>
      </trkpt>
      <trkpt lat="45.66087" lon="4.66199">
        <ele>492</ele>
        <time>2025-11-11T09:38:34Z</time>
      </trkpt>
      <trkpt lat="45.66089" lon="4.66196">
        <ele>492.4</ele>
        <time>2025-11-11T09:38:35Z</time>
      </trkpt>
      <trkpt lat="45.6609" lon="4.66194">
        <ele>492.6</ele>
        <time>2025-11-11T09:38:36Z</time>
      </trkpt>
      <trkpt lat="45.66091" lon="4.66191">
        <ele>493</ele>
        <time>2025-11-11T09:38:37Z</time>
      </trkpt>
      <trkpt lat="45.66093" lon="4.66189">
        <ele>493.4</ele>
        <time>2025-11-11T09:38:38Z</time>
      </trkpt>
      <trkpt lat="45.66094" lon="4.66186">
        <ele>493.6</ele>
        <time>2025-11-11T09:38:39Z</time>
      </trkpt>
      <trkpt lat="45.66095" lon="4.66182">
        <ele>493.8</ele>
        <time>2025-11-11T09:38:40Z</time>
      </trkpt>
      <trkpt lat="45.66097" lon="4.66179">
        <ele>494.2</ele>
        <time>2025-11-11T09:38:41Z</time>
      </trkpt>
      <trkpt lat="45.66098" lon="4.66175">
        <ele>494.4</ele>
        <time>2025-11-11T09:38:42Z</time>
      </trkpt>
      <trkpt lat="45.66098" lon="4.66171">
        <ele>494.6</ele>
        <time>2025-11-11T09:38:43Z</time>
      </trkpt>
      <trkpt lat="45.66098" lon="4.66167">
        <ele>494.8</ele>
        <time>2025-11-11T09:38:44Z</time>
      </trkpt>
      <trkpt lat="45.66098" lon="4.66163">
        <ele>495</ele>
        <time>2025-11-11T09:38:45Z</time>
      </trkpt>
      <trkpt lat="45.66098" lon="4.66159">
        <ele>495.2</ele>
        <time>2025-11-11T09:38:46Z</time>
      </trkpt>
      <trkpt lat="45.66098" lon="4.66154">
        <ele>495.4</ele>
        <time>2025-11-11T09:38:47Z</time>
      </trkpt>
      <trkpt lat="45.66097" lon="4.6615">
        <ele>495.6</ele>
        <time>2025-11-11T09:38:48Z</time>
      </trkpt>
      <trkpt lat="45.66097" lon="4.66146">
        <ele>495.8</ele>
        <time>2025-11-11T09:38:49Z</time>
      </trkpt>
      <trkpt lat="45.66096" lon="4.66142">
        <ele>496</ele>
        <time>2025-11-11T09:38:50Z</time>
      </trkpt>
      <trkpt lat="45.66095" lon="4.66138">
        <ele>496.2</ele>
        <time>2025-11-11T09:38:51Z</time>
      </trkpt>
      <trkpt lat="45.66095" lon="4.66134">
        <ele>496.4</ele>
        <time>2025-11-11T09:38:52Z</time>
      </trkpt>
      <trkpt lat="45.66094" lon="4.66129">
        <ele>496.8</ele>
        <time>2025-11-11T09:38:53Z</time>
      </trkpt>
      <trkpt lat="45.66094" lon="4.66125">
        <ele>496.8</ele>
        <time>2025-11-11T09:38:54Z</time>
      </trkpt>
      <trkpt lat="45.66095" lon="4.66121">
        <ele>497</ele>
        <time>2025-11-11T09:38:55Z</time>
      </trkpt>
      <trkpt lat="45.66095" lon="4.66117">
        <ele>497.4</ele>
        <time>2025-11-11T09:38:56Z</time>
      </trkpt>
      <trkpt lat="45.66094" lon="4.66112">
        <ele>497.6</ele>
        <time>2025-11-11T09:38:57Z</time>
      </trkpt>
      <trkpt lat="45.66093" lon="4.66108">
        <ele>497.8</ele>
        <time>2025-11-11T09:38:58Z</time>
      </trkpt>
      <trkpt lat="45.66093" lon="4.66104">
        <ele>498</ele>
        <time>2025-11-11T09:38:59Z</time>
      </trkpt>
      <trkpt lat="45.66092" lon="4.66099">
        <ele>498.4</ele>
        <time>2025-11-11T09:39:00Z</time>
      </trkpt>
      <trkpt lat="45.66091" lon="4.66095">
        <ele>498.6</ele>
        <time>2025-11-11T09:39:01Z</time>
      </trkpt>
      <trkpt lat="45.6609" lon="4.6609">
        <ele>498.8</ele>
        <time>2025-11-11T09:39:02Z</time>
      </trkpt>
      <trkpt lat="45.66089" lon="4.66085">
        <ele>499</ele>
        <time>2025-11-11T09:39:03Z</time>
      </trkpt>
      <trkpt lat="45.66089" lon="4.6608">
        <ele>499.2</ele>
        <time>2025-11-11T09:39:04Z</time>
      </trkpt>
      <trkpt lat="45.66089" lon="4.66076">
        <ele>499.2</ele>
        <time>2025-11-11T09:39:05Z</time>
      </trkpt>
      <trkpt lat="45.6609" lon="4.66071">
        <ele>499.4</ele>
        <time>2025-11-11T09:39:06Z</time>
      </trkpt>
      <trkpt lat="45.6609" lon="4.66066">
        <ele>499.8</ele>
        <time>2025-11-11T09:39:07Z</time>
      </trkpt>
      <trkpt lat="45.66091" lon="4.66061">
        <ele>500</ele>
        <time>2025-11-11T09:39:08Z</time>
      </trkpt>
      <trkpt lat="45.66091" lon="4.66057">
        <ele>500.2</ele>
        <time>2025-11-11T09:39:09Z</time>
      </trkpt>
      <trkpt lat="45.66091" lon="4.66052">
        <ele>500.6</ele>
        <time>2025-11-11T09:39:10Z</time>
      </trkpt>
      <trkpt lat="45.66091" lon="4.66048">
        <ele>500.8</ele>
        <time>2025-11-11T09:39:11Z</time>
      </trkpt>
      <trkpt lat="45.66091" lon="4.66044">
        <ele>501</ele>
        <time>2025-11-11T09:39:12Z</time>
      </trkpt>
      <trkpt lat="45.66091" lon="4.6604">
        <ele>501.4</ele>
        <time>2025-11-11T09:39:13Z</time>
      </trkpt>
      <trkpt lat="45.66091" lon="4.66036">
        <ele>501.6</ele>
        <time>2025-11-11T09:39:14Z</time>
      </trkpt>
      <trkpt lat="45.66091" lon="4.66033">
        <ele>501.8</ele>
        <time>2025-11-11T09:39:15Z</time>
      </trkpt>
      <trkpt lat="45.66091" lon="4.66029">
        <ele>502.2</ele>
        <time>2025-11-11T09:39:16Z</time>
      </trkpt>
      <trkpt lat="45.66091" lon="4.66026">
        <ele>502.4</ele>
        <time>2025-11-11T09:39:17Z</time>
      </trkpt>
      <trkpt lat="45.66091" lon="4.66023">
        <ele>502.8</ele>
        <time>2025-11-11T09:39:18Z</time>
      </trkpt>
      <trkpt lat="45.66092" lon="4.6602">
        <ele>503</ele>
        <time>2025-11-11T09:39:19Z</time>
      </trkpt>
      <trkpt lat="45.66092" lon="4.66016">
        <ele>503.2</ele>
        <time>2025-11-11T09:39:20Z</time>
      </trkpt>
      <trkpt lat="45.66091" lon="4.66012">
        <ele>503.4</ele>
        <time>2025-11-11T09:39:21Z</time>
      </trkpt>
      <trkpt lat="45.66091" lon="4.66008">
        <ele>503.4</ele>
        <time>2025-11-11T09:39:22Z</time>
      </trkpt>
      <trkpt lat="45.66092" lon="4.66005">
        <ele>503.6</ele>
        <time>2025-11-11T09:39:23Z</time>
      </trkpt>
      <trkpt lat="45.66092" lon="4.66002">
        <ele>503.8</ele>
        <time>2025-11-11T09:39:24Z</time>
      </trkpt>
      <trkpt lat="45.66091" lon="4.65998">
        <ele>504</ele>
        <time>2025-11-11T09:39:25Z</time>
      </trkpt>
      <trkpt lat="45.66092" lon="4.65994">
        <ele>504.2</ele>
        <time>2025-11-11T09:39:26Z</time>
      </trkpt>
      <trkpt lat="45.66091" lon="4.6599">
        <ele>504.2</ele>
        <time>2025-11-11T09:39:27Z</time>
      </trkpt>
      <trkpt lat="45.66091" lon="4.65986">
        <ele>504.4</ele>
        <time>2025-11-11T09:39:28Z</time>
      </trkpt>
      <trkpt lat="45.66091" lon="4.65981">
        <ele>504.6</ele>
        <time>2025-11-11T09:39:29Z</time>
      </trkpt>
      <trkpt lat="45.66091" lon="4.65976">
        <ele>504.6</ele>
        <time>2025-11-11T09:39:30Z</time>
      </trkpt>
      <trkpt lat="45.6609" lon="4.65971">
        <ele>504.8</ele>
        <time>2025-11-11T09:39:31Z</time>
      </trkpt>
      <trkpt lat="45.66089" lon="4.65966">
        <ele>505</ele>
        <time>2025-11-11T09:39:32Z</time>
      </trkpt>
      <trkpt lat="45.66088" lon="4.6596">
        <ele>505</ele>
        <time>2025-11-11T09:39:33Z</time>
      </trkpt>
      <trkpt lat="45.66087" lon="4.65955">
        <ele>505.2</ele>
        <time>2025-11-11T09:39:34Z</time>
      </trkpt>
      <trkpt lat="45.66087" lon="4.6595">
        <ele>505.2</ele>
        <time>2025-11-11T09:39:35Z</time>
      </trkpt>
      <trkpt lat="45.66087" lon="4.65945">
        <ele>505.4</ele>
        <time>2025-11-11T09:39:36Z</time>
      </trkpt>
      <trkpt lat="45.66086" lon="4.6594">
        <ele>505.6</ele>
        <time>2025-11-11T09:39:37Z</time>
      </trkpt>
      <trkpt lat="45.66085" lon="4.65935">
        <ele>505.8</ele>
        <time>2025-11-11T09:39:38Z</time>
      </trkpt>
      <trkpt lat="45.66083" lon="4.65931">
        <ele>506.2</ele>
        <time>2025-11-11T09:39:39Z</time>
      </trkpt>
      <trkpt lat="45.66082" lon="4.65926">
        <ele>506.4</ele>
        <time>2025-11-11T09:39:40Z</time>
      </trkpt>
      <trkpt lat="45.6608" lon="4.65922">
        <ele>506.6</ele>
        <time>2025-11-11T09:39:41Z</time>
      </trkpt>
      <trkpt lat="45.66078" lon="4.65917">
        <ele>506.8</ele>
        <time>2025-11-11T09:39:42Z</time>
      </trkpt>
      <trkpt lat="45.66076" lon="4.65912">
        <ele>507</ele>
        <time>2025-11-11T09:39:43Z</time>
      </trkpt>
      <trkpt lat="45.66075" lon="4.65907">
        <ele>507.2</ele>
        <time>2025-11-11T09:39:44Z</time>
      </trkpt>
      <trkpt lat="45.66073" lon="4.65902">
        <ele>507.4</ele>
        <time>2025-11-11T09:39:45Z</time>
      </trkpt>
      <trkpt lat="45.66071" lon="4.65898">
        <ele>507.6</ele>
        <time>2025-11-11T09:39:46Z</time>
      </trkpt>
      <trkpt lat="45.66069" lon="4.65893">
        <ele>507.8</ele>
        <time>2025-11-11T09:39:47Z</time>
      </trkpt>
      <trkpt lat="45.66067" lon="4.65888">
        <ele>508</ele>
        <time>2025-11-11T09:39:48Z</time>
      </trkpt>
      <trkpt lat="45.66065" lon="4.65883">
        <ele>508</ele>
        <time>2025-11-11T09:39:49Z</time>
      </trkpt>
      <trkpt lat="45.66062" lon="4.65877">
        <ele>508</ele>
        <time>2025-11-11T09:39:50Z</time>
      </trkpt>
      <trkpt lat="45.6606" lon="4.65872">
        <ele>507.8</ele>
        <time>2025-11-11T09:39:51Z</time>
      </trkpt>
      <trkpt lat="45.66057" lon="4.65866">
        <ele>507.6</ele>
        <time>2025-11-11T09:39:52Z</time>
      </trkpt>
      <trkpt lat="45.66055" lon="4.65859">
        <ele>507.4</ele>
        <time>2025-11-11T09:39:53Z</time>
      </trkpt>
      <trkpt lat="45.66052" lon="4.65853">
        <ele>507.2</ele>
        <time>2025-11-11T09:39:54Z</time>
      </trkpt>
      <trkpt lat="45.6605" lon="4.65846">
        <ele>507</ele>
        <time>2025-11-11T09:39:55Z</time>
      </trkpt>
      <trkpt lat="45.66047" lon="4.65839">
        <ele>506.8</ele>
        <time>2025-11-11T09:39:56Z</time>
      </trkpt>
      <trkpt lat="45.66045" lon="4.65832">
        <ele>506.6</ele>
        <time>2025-11-11T09:39:57Z</time>
      </trkpt>
      <trkpt lat="45.66042" lon="4.65825">
        <ele>506.4</ele>
        <time>2025-11-11T09:39:58Z</time>
      </trkpt>
      <trkpt lat="45.66039" lon="4.65818">
        <ele>506</ele>
        <time>2025-11-11T09:39:59Z</time>
      </trkpt>
      <trkpt lat="45.66037" lon="4.65812">
        <ele>505.8</ele>
        <time>2025-11-11T09:40:00Z</time>
      </trkpt>
      <trkpt lat="45.66034" lon="4.65805">
        <ele>505.6</ele>
        <time>2025-11-11T09:40:01Z</time>
      </trkpt>
      <trkpt lat="45.66031" lon="4.65799">
        <ele>505.2</ele>
        <time>2025-11-11T09:40:02Z</time>
      </trkpt>
      <trkpt lat="45.66028" lon="4.65793">
        <ele>505.2</ele>
        <time>2025-11-11T09:40:03Z</time>
      </trkpt>
      <trkpt lat="45.66025" lon="4.65788">
        <ele>505</ele>
        <time>2025-11-11T09:40:04Z</time>
      </trkpt>
      <trkpt lat="45.66021" lon="4.65783">
        <ele>505</ele>
        <time>2025-11-11T09:40:05Z</time>
      </trkpt>
      <trkpt lat="45.66018" lon="4.65778">
        <ele>505</ele>
        <time>2025-11-11T09:40:06Z</time>
      </trkpt>
      <trkpt lat="45.66014" lon="4.65773">
        <ele>505</ele>
        <time>2025-11-11T09:40:07Z</time>
      </trkpt>
      <trkpt lat="45.66011" lon="4.65769">
        <ele>505</ele>
        <time>2025-11-11T09:40:08Z</time>
      </trkpt>
      <trkpt lat="45.66007" lon="4.65765">
        <ele>505</ele>
        <time>2025-11-11T09:40:09Z</time>
      </trkpt>
      <trkpt lat="45.66004" lon="4.65761">
        <ele>505</ele>
        <time>2025-11-11T09:40:10Z</time>
      </trkpt>
      <trkpt lat="45.66" lon="4.65757">
        <ele>505</ele>
        <time>2025-11-11T09:40:11Z</time>
      </trkpt>
      <trkpt lat="45.65996" lon="4.65753">
        <ele>505</ele>
        <time>2025-11-11T09:40:12Z</time>
      </trkpt>
      <trkpt lat="45.65992" lon="4.65748">
        <ele>505</ele>
        <time>2025-11-11T09:40:13Z</time>
      </trkpt>
      <trkpt lat="45.65988" lon="4.65743">
        <ele>504.8</ele>
        <time>2025-11-11T09:40:14Z</time>
      </trkpt>
      <trkpt lat="45.65984" lon="4.6574">
        <ele>504.8</ele>
        <time>2025-11-11T09:40:15Z</time>
      </trkpt>
      <trkpt lat="45.65979" lon="4.65737">
        <ele>504.8</ele>
        <time>2025-11-11T09:40:16Z</time>
      </trkpt>
      <trkpt lat="45.65975" lon="4.65735">
        <ele>504.8</ele>
        <time>2025-11-11T09:40:17Z</time>
      </trkpt>
      <trkpt lat="45.65972" lon="4.65732">
        <ele>505</ele>
        <time>2025-11-11T09:40:18Z</time>
      </trkpt>
      <trkpt lat="45.65967" lon="4.65728">
        <ele>505</ele>
        <time>2025-11-11T09:40:19Z</time>
      </trkpt>
      <trkpt lat="45.65963" lon="4.65725">
        <ele>505</ele>
        <time>2025-11-11T09:40:20Z</time>
      </trkpt>
      <trkpt lat="45.65959" lon="4.65721">
        <ele>505</ele>
        <time>2025-11-11T09:40:21Z</time>
      </trkpt>
      <trkpt lat="45.65955" lon="4.65717">
        <ele>505</ele>
        <time>2025-11-11T09:40:22Z</time>
      </trkpt>
      <trkpt lat="45.65952" lon="4.65714">
        <ele>505.2</ele>
        <time>2025-11-11T09:40:23Z</time>
      </trkpt>
      <trkpt lat="45.65948" lon="4.6571">
        <ele>505.2</ele>
        <time>2025-11-11T09:40:24Z</time>
      </trkpt>
      <trkpt lat="45.65944" lon="4.65706">
        <ele>505.4</ele>
        <time>2025-11-11T09:40:25Z</time>
      </trkpt>
      <trkpt lat="45.65941" lon="4.65702">
        <ele>505.6</ele>
        <time>2025-11-11T09:40:26Z</time>
      </trkpt>
      <trkpt lat="45.65938" lon="4.65697">
        <ele>505.6</ele>
        <time>2025-11-11T09:40:27Z</time>
      </trkpt>
      <trkpt lat="45.65934" lon="4.65693">
        <ele>505.8</ele>
        <time>2025-11-11T09:40:28Z</time>
      </trkpt>
      <trkpt lat="45.65931" lon="4.65689">
        <ele>506</ele>
        <time>2025-11-11T09:40:29Z</time>
      </trkpt>
      <trkpt lat="45.65928" lon="4.65685">
        <ele>506.2</ele>
        <time>2025-11-11T09:40:30Z</time>
      </trkpt>
      <trkpt lat="45.65925" lon="4.65681">
        <ele>506.4</ele>
        <time>2025-11-11T09:40:31Z</time>
      </trkpt>
      <trkpt lat="45.65922" lon="4.65678">
        <ele>506.4</ele>
        <time>2025-11-11T09:40:32Z</time>
      </trkpt>
      <trkpt lat="45.65919" lon="4.65675">
        <ele>506.8</ele>
        <time>2025-11-11T09:40:33Z</time>
      </trkpt>
      <trkpt lat="45.65916" lon="4.65672">
        <ele>506.8</ele>
        <time>2025-11-11T09:40:34Z</time>
      </trkpt>
      <trkpt lat="45.65913" lon="4.65669">
        <ele>507</ele>
        <time>2025-11-11T09:40:35Z</time>
      </trkpt>
      <trkpt lat="45.6591" lon="4.65666">
        <ele>507.2</ele>
        <time>2025-11-11T09:40:36Z</time>
      </trkpt>
      <trkpt lat="45.65907" lon="4.65663">
        <ele>507.4</ele>
        <time>2025-11-11T09:40:37Z</time>
      </trkpt>
      <trkpt lat="45.65904" lon="4.6566">
        <ele>507.6</ele>
        <time>2025-11-11T09:40:38Z</time>
      </trkpt>
      <trkpt lat="45.65901" lon="4.65658">
        <ele>507.8</ele>
        <time>2025-11-11T09:40:39Z</time>
      </trkpt>
      <trkpt lat="45.65899" lon="4.65655">
        <ele>508.2</ele>
        <time>2025-11-11T09:40:40Z</time>
      </trkpt>
      <trkpt lat="45.65897" lon="4.65653">
        <ele>508.6</ele>
        <time>2025-11-11T09:40:41Z</time>
      </trkpt>
      <trkpt lat="45.65895" lon="4.65651">
        <ele>508.8</ele>
        <time>2025-11-11T09:40:42Z</time>
      </trkpt>
      <trkpt lat="45.65894" lon="4.6565">
        <ele>509.2</ele>
        <time>2025-11-11T09:40:43Z</time>
      </trkpt>
      <trkpt lat="45.65892" lon="4.65649">
        <ele>509.4</ele>
        <time>2025-11-11T09:40:44Z</time>
      </trkpt>
      <trkpt lat="45.6589" lon="4.65647">
        <ele>509.6</ele>
        <time>2025-11-11T09:40:45Z</time>
      </trkpt>
      <trkpt lat="45.65887" lon="4.65645">
        <ele>510</ele>
        <time>2025-11-11T09:40:46Z</time>
      </trkpt>
      <trkpt lat="45.65885" lon="4.65644">
        <ele>510.2</ele>
        <time>2025-11-11T09:40:47Z</time>
      </trkpt>
      <trkpt lat="45.65883" lon="4.65642">
        <ele>510.4</ele>
        <time>2025-11-11T09:40:48Z</time>
      </trkpt>
      <trkpt lat="45.65881" lon="4.65639">
        <ele>510.6</ele>
        <time>2025-11-11T09:40:49Z</time>
      </trkpt>
      <trkpt lat="45.65879" lon="4.65637">
        <ele>511</ele>
        <time>2025-11-11T09:40:50Z</time>
      </trkpt>
      <trkpt lat="45.65878" lon="4.65635">
        <ele>511.2</ele>
        <time>2025-11-11T09:40:51Z</time>
      </trkpt>
      <trkpt lat="45.65877" lon="4.65633">
        <ele>511.4</ele>
        <time>2025-11-11T09:40:52Z</time>
      </trkpt>
      <trkpt lat="45.65875" lon="4.65632">
        <ele>511.8</ele>
        <time>2025-11-11T09:40:53Z</time>
      </trkpt>
      <trkpt lat="45.65874" lon="4.6563">
        <ele>512</ele>
        <time>2025-11-11T09:40:54Z</time>
      </trkpt>
      <trkpt lat="45.65872" lon="4.65627">
        <ele>512.2</ele>
        <time>2025-11-11T09:40:55Z</time>
      </trkpt>
      <trkpt lat="45.65871" lon="4.65625">
        <ele>512.4</ele>
        <time>2025-11-11T09:40:56Z</time>
      </trkpt>
      <trkpt lat="45.6587" lon="4.65623">
        <ele>512.8</ele>
        <time>2025-11-11T09:40:57Z</time>
      </trkpt>
      <trkpt lat="45.65869" lon="4.6562">
        <ele>513</ele>
        <time>2025-11-11T09:40:58Z</time>
      </trkpt>
      <trkpt lat="45.65868" lon="4.65617">
        <ele>513.2</ele>
        <time>2025-11-11T09:40:59Z</time>
      </trkpt>
      <trkpt lat="45.65867" lon="4.65615">
        <ele>513.6</ele>
        <time>2025-11-11T09:41:00Z</time>
      </trkpt>
      <trkpt lat="45.65866" lon="4.65612">
        <ele>513.8</ele>
        <time>2025-11-11T09:41:01Z</time>
      </trkpt>
      <trkpt lat="45.65865" lon="4.65609">
        <ele>514</ele>
        <time>2025-11-11T09:41:02Z</time>
      </trkpt>
      <trkpt lat="45.65863" lon="4.65606">
        <ele>514.4</ele>
        <time>2025-11-11T09:41:03Z</time>
      </trkpt>
      <trkpt lat="45.65862" lon="4.65603">
        <ele>514.6</ele>
        <time>2025-11-11T09:41:04Z</time>
      </trkpt>
      <trkpt lat="45.65861" lon="4.656">
        <ele>515</ele>
        <time>2025-11-11T09:41:05Z</time>
      </trkpt>
      <trkpt lat="45.6586" lon="4.65597">
        <ele>515.2</ele>
        <time>2025-11-11T09:41:06Z</time>
      </trkpt>
      <trkpt lat="45.65859" lon="4.65594">
        <ele>515.6</ele>
        <time>2025-11-11T09:41:07Z</time>
      </trkpt>
      <trkpt lat="45.65859" lon="4.65591">
        <ele>515.8</ele>
        <time>2025-11-11T09:41:08Z</time>
      </trkpt>
      <trkpt lat="45.65859" lon="4.65588">
        <ele>516</ele>
        <time>2025-11-11T09:41:09Z</time>
      </trkpt>
      <trkpt lat="45.65859" lon="4.65585">
        <ele>516.4</ele>
        <time>2025-11-11T09:41:10Z</time>
      </trkpt>
      <trkpt lat="45.65858" lon="4.65581">
        <ele>516.6</ele>
        <time>2025-11-11T09:41:11Z</time>
      </trkpt>
      <trkpt lat="45.65858" lon="4.65578">
        <ele>516.8</ele>
        <time>2025-11-11T09:41:12Z</time>
      </trkpt>
      <trkpt lat="45.65858" lon="4.65574">
        <ele>517</ele>
        <time>2025-11-11T09:41:13Z</time>
      </trkpt>
      <trkpt lat="45.65858" lon="4.6557">
        <ele>517.2</ele>
        <time>2025-11-11T09:41:14Z</time>
      </trkpt>
      <trkpt lat="45.65857" lon="4.65567">
        <ele>517.4</ele>
        <time>2025-11-11T09:41:15Z</time>
      </trkpt>
      <trkpt lat="45.65857" lon="4.65564">
        <ele>517.8</ele>
        <time>2025-11-11T09:41:16Z</time>
      </trkpt>
      <trkpt lat="45.65856" lon="4.6556">
        <ele>518</ele>
        <time>2025-11-11T09:41:17Z</time>
      </trkpt>
      <trkpt lat="45.65855" lon="4.65557">
        <ele>518.2</ele>
        <time>2025-11-11T09:41:18Z</time>
      </trkpt>
      <trkpt lat="45.65854" lon="4.65553">
        <ele>518.4</ele>
        <time>2025-11-11T09:41:19Z</time>
      </trkpt>
      <trkpt lat="45.65853" lon="4.6555">
        <ele>518.6</ele>
        <time>2025-11-11T09:41:20Z</time>
      </trkpt>
      <trkpt lat="45.65852" lon="4.65546">
        <ele>518.8</ele>
        <time>2025-11-11T09:41:21Z</time>
      </trkpt>
      <trkpt lat="45.65851" lon="4.65543">
        <ele>519</ele>
        <time>2025-11-11T09:41:22Z</time>
      </trkpt>
      <trkpt lat="45.6585" lon="4.6554">
        <ele>519.4</ele>
        <time>2025-11-11T09:41:23Z</time>
      </trkpt>
      <trkpt lat="45.65849" lon="4.65536">
        <ele>519.6</ele>
        <time>2025-11-11T09:41:24Z</time>
      </trkpt>
      <trkpt lat="45.65848" lon="4.65533">
        <ele>519.8</ele>
        <time>2025-11-11T09:41:25Z</time>
      </trkpt>
      <trkpt lat="45.65846" lon="4.6553">
        <ele>520</ele>
        <time>2025-11-11T09:41:26Z</time>
      </trkpt>
      <trkpt lat="45.65845" lon="4.65527">
        <ele>520.2</ele>
        <time>2025-11-11T09:41:27Z</time>
      </trkpt>
      <trkpt lat="45.65844" lon="4.65524">
        <ele>520.4</ele>
        <time>2025-11-11T09:41:28Z</time>
      </trkpt>
      <trkpt lat="45.65842" lon="4.65521">
        <ele>520.8</ele>
        <time>2025-11-11T09:41:29Z</time>
      </trkpt>
      <trkpt lat="45.6584" lon="4.65518">
        <ele>521</ele>
        <time>2025-11-11T09:41:30Z</time>
      </trkpt>
      <trkpt lat="45.65839" lon="4.65515">
        <ele>521.2</ele>
        <time>2025-11-11T09:41:31Z</time>
      </trkpt>
      <trkpt lat="45.65837" lon="4.65512">
        <ele>521.4</ele>
        <time>2025-11-11T09:41:32Z</time>
      </trkpt>
      <trkpt lat="45.65835" lon="4.6551">
        <ele>521.6</ele>
        <time>2025-11-11T09:41:33Z</time>
      </trkpt>
      <trkpt lat="45.65833" lon="4.65507">
        <ele>521.8</ele>
        <time>2025-11-11T09:41:34Z</time>
      </trkpt>
      <trkpt lat="45.65831" lon="4.65504">
        <ele>522.2</ele>
        <time>2025-11-11T09:41:35Z</time>
      </trkpt>
      <trkpt lat="45.6583" lon="4.65502">
        <ele>522.4</ele>
        <time>2025-11-11T09:41:36Z</time>
      </trkpt>
      <trkpt lat="45.65828" lon="4.655">
        <ele>522.6</ele>
        <time>2025-11-11T09:41:37Z</time>
      </trkpt>
      <trkpt lat="45.65826" lon="4.65497">
        <ele>523</ele>
        <time>2025-11-11T09:41:38Z</time>
      </trkpt>
      <trkpt lat="45.65824" lon="4.65495">
        <ele>523.2</ele>
        <time>2025-11-11T09:41:39Z</time>
      </trkpt>
      <trkpt lat="45.65822" lon="4.65493">
        <ele>523.6</ele>
        <time>2025-11-11T09:41:40Z</time>
      </trkpt>
      <trkpt lat="45.6582" lon="4.65491">
        <ele>523.8</ele>
        <time>2025-11-11T09:41:41Z</time>
      </trkpt>
      <trkpt lat="45.65818" lon="4.65489">
        <ele>524.2</ele>
        <time>2025-11-11T09:41:42Z</time>
      </trkpt>
      <trkpt lat="45.65816" lon="4.65486">
        <ele>524.4</ele>
        <time>2025-11-11T09:41:43Z</time>
      </trkpt>
      <trkpt lat="45.65814" lon="4.65484">
        <ele>524.6</ele>
        <time>2025-11-11T09:41:44Z</time>
      </trkpt>
      <trkpt lat="45.65812" lon="4.65482">
        <ele>525</ele>
        <time>2025-11-11T09:41:45Z</time>
      </trkpt>
      <trkpt lat="45.6581" lon="4.6548">
        <ele>525.2</ele>
        <time>2025-11-11T09:41:46Z</time>
      </trkpt>
      <trkpt lat="45.65808" lon="4.65477">
        <ele>525.6</ele>
        <time>2025-11-11T09:41:47Z</time>
      </trkpt>
      <trkpt lat="45.65805" lon="4.65475">
        <ele>525.8</ele>
        <time>2025-11-11T09:41:48Z</time>
      </trkpt>
      <trkpt lat="45.65803" lon="4.65472">
        <ele>526</ele>
        <time>2025-11-11T09:41:49Z</time>
      </trkpt>
      <trkpt lat="45.65801" lon="4.65469">
        <ele>526.2</ele>
        <time>2025-11-11T09:41:50Z</time>
      </trkpt>
      <trkpt lat="45.658" lon="4.65467">
        <ele>526.4</ele>
        <time>2025-11-11T09:41:51Z</time>
      </trkpt>
      <trkpt lat="45.65798" lon="4.65464">
        <ele>526.6</ele>
        <time>2025-11-11T09:41:52Z</time>
      </trkpt>
      <trkpt lat="45.65796" lon="4.65462">
        <ele>527</ele>
        <time>2025-11-11T09:41:53Z</time>
      </trkpt>
      <trkpt lat="45.65793" lon="4.65459">
        <ele>527.2</ele>
        <time>2025-11-11T09:41:54Z</time>
      </trkpt>
      <trkpt lat="45.65791" lon="4.65456">
        <ele>527.4</ele>
        <time>2025-11-11T09:41:55Z</time>
      </trkpt>
      <trkpt lat="45.65788" lon="4.65454">
        <ele>527.6</ele>
        <time>2025-11-11T09:41:56Z</time>
      </trkpt>
      <trkpt lat="45.65786" lon="4.6545">
        <ele>528</ele>
        <time>2025-11-11T09:41:57Z</time>
      </trkpt>
      <trkpt lat="45.65783" lon="4.65447">
        <ele>528.2</ele>
        <time>2025-11-11T09:41:58Z</time>
      </trkpt>
      <trkpt lat="45.65781" lon="4.65444">
        <ele>528.4</ele>
        <time>2025-11-11T09:41:59Z</time>
      </trkpt>
      <trkpt lat="45.65778" lon="4.6544">
        <ele>528.4</ele>
        <time>2025-11-11T09:42:00Z</time>
      </trkpt>
      <trkpt lat="45.65775" lon="4.65435">
        <ele>528.6</ele>
        <time>2025-11-11T09:42:01Z</time>
      </trkpt>
      <trkpt lat="45.65772" lon="4.65431">
        <ele>528.6</ele>
        <time>2025-11-11T09:42:02Z</time>
      </trkpt>
      <trkpt lat="45.65769" lon="4.65426">
        <ele>528.6</ele>
        <time>2025-11-11T09:42:03Z</time>
      </trkpt>
      <trkpt lat="45.65766" lon="4.65421">
        <ele>528.4</ele>
        <time>2025-11-11T09:42:04Z</time>
      </trkpt>
      <trkpt lat="45.65763" lon="4.65416">
        <ele>528.2</ele>
        <time>2025-11-11T09:42:05Z</time>
      </trkpt>
      <trkpt lat="45.65759" lon="4.65411">
        <ele>528</ele>
        <time>2025-11-11T09:42:06Z</time>
      </trkpt>
      <trkpt lat="45.65756" lon="4.65406">
        <ele>527.6</ele>
        <time>2025-11-11T09:42:07Z</time>
      </trkpt>
      <trkpt lat="45.65752" lon="4.65401">
        <ele>527.4</ele>
        <time>2025-11-11T09:42:08Z</time>
      </trkpt>
      <trkpt lat="45.65748" lon="4.65395">
        <ele>527</ele>
        <time>2025-11-11T09:42:09Z</time>
      </trkpt>
      <trkpt lat="45.65743" lon="4.6539">
        <ele>526.6</ele>
        <time>2025-11-11T09:42:10Z</time>
      </trkpt>
      <trkpt lat="45.65739" lon="4.65384">
        <ele>526.4</ele>
        <time>2025-11-11T09:42:11Z</time>
      </trkpt>
      <trkpt lat="45.65736" lon="4.65378">
        <ele>526</ele>
        <time>2025-11-11T09:42:12Z</time>
      </trkpt>
      <trkpt lat="45.65731" lon="4.65373">
        <ele>525.6</ele>
        <time>2025-11-11T09:42:13Z</time>
      </trkpt>
      <trkpt lat="45.65727" lon="4.65367">
        <ele>525.2</ele>
        <time>2025-11-11T09:42:14Z</time>
      </trkpt>
      <trkpt lat="45.65722" lon="4.65361">
        <ele>525</ele>
        <time>2025-11-11T09:42:15Z</time>
      </trkpt>
      <trkpt lat="45.65718" lon="4.65356">
        <ele>524.6</ele>
        <time>2025-11-11T09:42:16Z</time>
      </trkpt>
      <trkpt lat="45.65713" lon="4.65351">
        <ele>524.2</ele>
        <time>2025-11-11T09:42:17Z</time>
      </trkpt>
      <trkpt lat="45.65708" lon="4.65346">
        <ele>524</ele>
        <time>2025-11-11T09:42:18Z</time>
      </trkpt>
      <trkpt lat="45.65703" lon="4.65341">
        <ele>523.8</ele>
        <time>2025-11-11T09:42:19Z</time>
      </trkpt>
      <trkpt lat="45.65699" lon="4.65335">
        <ele>523.6</ele>
        <time>2025-11-11T09:42:20Z</time>
      </trkpt>
      <trkpt lat="45.65694" lon="4.65329">
        <ele>523.4</ele>
        <time>2025-11-11T09:42:21Z</time>
      </trkpt>
      <trkpt lat="45.6569" lon="4.65324">
        <ele>523.4</ele>
        <time>2025-11-11T09:42:22Z</time>
      </trkpt>
      <trkpt lat="45.65686" lon="4.65319">
        <ele>523.4</ele>
        <time>2025-11-11T09:42:23Z</time>
      </trkpt>
      <trkpt lat="45.65681" lon="4.65314">
        <ele>523.4</ele>
        <time>2025-11-11T09:42:24Z</time>
      </trkpt>
      <trkpt lat="45.65677" lon="4.6531">
        <ele>523.4</ele>
        <time>2025-11-11T09:42:25Z</time>
      </trkpt>
      <trkpt lat="45.65672" lon="4.65306">
        <ele>523.6</ele>
        <time>2025-11-11T09:42:26Z</time>
      </trkpt>
      <trkpt lat="45.65668" lon="4.65302">
        <ele>523.6</ele>
        <time>2025-11-11T09:42:27Z</time>
      </trkpt>
      <trkpt lat="45.65663" lon="4.65298">
        <ele>523.8</ele>
        <time>2025-11-11T09:42:28Z</time>
      </trkpt>
      <trkpt lat="45.65658" lon="4.65295">
        <ele>523.8</ele>
        <time>2025-11-11T09:42:29Z</time>
      </trkpt>
      <trkpt lat="45.65653" lon="4.65292">
        <ele>524</ele>
        <time>2025-11-11T09:42:30Z</time>
      </trkpt>
      <trkpt lat="45.65647" lon="4.6529">
        <ele>524</ele>
        <time>2025-11-11T09:42:31Z</time>
      </trkpt>
      <trkpt lat="45.65642" lon="4.65288">
        <ele>524.2</ele>
        <time>2025-11-11T09:42:32Z</time>
      </trkpt>
      <trkpt lat="45.65638" lon="4.65285">
        <ele>524.4</ele>
        <time>2025-11-11T09:42:33Z</time>
      </trkpt>
      <trkpt lat="45.65633" lon="4.65281">
        <ele>524.6</ele>
        <time>2025-11-11T09:42:34Z</time>
      </trkpt>
      <trkpt lat="45.65629" lon="4.65278">
        <ele>524.8</ele>
        <time>2025-11-11T09:42:35Z</time>
      </trkpt>
      <trkpt lat="45.65626" lon="4.65274">
        <ele>525</ele>
        <time>2025-11-11T09:42:36Z</time>
      </trkpt>
      <trkpt lat="45.65622" lon="4.65271">
        <ele>525.4</ele>
        <time>2025-11-11T09:42:37Z</time>
      </trkpt>
      <trkpt lat="45.65618" lon="4.65268">
        <ele>525.6</ele>
        <time>2025-11-11T09:42:38Z</time>
      </trkpt>
      <trkpt lat="45.65614" lon="4.65265">
        <ele>526</ele>
        <time>2025-11-11T09:42:39Z</time>
      </trkpt>
      <trkpt lat="45.65611" lon="4.65263">
        <ele>526.2</ele>
        <time>2025-11-11T09:42:40Z</time>
      </trkpt>
      <trkpt lat="45.65607" lon="4.6526">
        <ele>526.4</ele>
        <time>2025-11-11T09:42:41Z</time>
      </trkpt>
      <trkpt lat="45.65603" lon="4.65258">
        <ele>526.6</ele>
        <time>2025-11-11T09:42:42Z</time>
      </trkpt>
      <trkpt lat="45.656" lon="4.65255">
        <ele>527</ele>
        <time>2025-11-11T09:42:43Z</time>
      </trkpt>
      <trkpt lat="45.65597" lon="4.65252">
        <ele>527.2</ele>
        <time>2025-11-11T09:42:44Z</time>
      </trkpt>
      <trkpt lat="45.65593" lon="4.65249">
        <ele>527.4</ele>
        <time>2025-11-11T09:42:45Z</time>
      </trkpt>
      <trkpt lat="45.6559" lon="4.65247">
        <ele>527.8</ele>
        <time>2025-11-11T09:42:46Z</time>
      </trkpt>
      <trkpt lat="45.65587" lon="4.65245">
        <ele>528</ele>
        <time>2025-11-11T09:42:47Z</time>
      </trkpt>
      <trkpt lat="45.65584" lon="4.65243">
        <ele>528.2</ele>
        <time>2025-11-11T09:42:48Z</time>
      </trkpt>
      <trkpt lat="45.65581" lon="4.65241">
        <ele>528.6</ele>
        <time>2025-11-11T09:42:49Z</time>
      </trkpt>
      <trkpt lat="45.65579" lon="4.6524">
        <ele>529</ele>
        <time>2025-11-11T09:42:50Z</time>
      </trkpt>
      <trkpt lat="45.65576" lon="4.65237">
        <ele>529.2</ele>
        <time>2025-11-11T09:42:51Z</time>
      </trkpt>
      <trkpt lat="45.65574" lon="4.65236">
        <ele>529.6</ele>
        <time>2025-11-11T09:42:52Z</time>
      </trkpt>
      <trkpt lat="45.65572" lon="4.65234">
        <ele>529.8</ele>
        <time>2025-11-11T09:42:53Z</time>
      </trkpt>
      <trkpt lat="45.6557" lon="4.65232">
        <ele>530</ele>
        <time>2025-11-11T09:42:54Z</time>
      </trkpt>
      <trkpt lat="45.65567" lon="4.6523">
        <ele>530.4</ele>
        <time>2025-11-11T09:42:55Z</time>
      </trkpt>
      <trkpt lat="45.65565" lon="4.65228">
        <ele>530.6</ele>
        <time>2025-11-11T09:42:56Z</time>
      </trkpt>
      <trkpt lat="45.65563" lon="4.65226">
        <ele>530.8</ele>
        <time>2025-11-11T09:42:57Z</time>
      </trkpt>
      <trkpt lat="45.65562" lon="4.65224">
        <ele>531</ele>
        <time>2025-11-11T09:42:58Z</time>
      </trkpt>
      <trkpt lat="45.65562" lon="4.65222">
        <ele>531.2</ele>
        <time>2025-11-11T09:42:59Z</time>
      </trkpt>
      <trkpt lat="45.65561" lon="4.6522">
        <ele>531.4</ele>
        <time>2025-11-11T09:43:00Z</time>
      </trkpt>
      <trkpt lat="45.65561" lon="4.65219">
        <ele>531.6</ele>
        <time>2025-11-11T09:43:01Z</time>
      </trkpt>
      <trkpt lat="45.65561" lon="4.65219">
        <ele>531.6</ele>
        <time>2025-11-11T09:43:02Z</time>
      </trkpt>
      <trkpt lat="45.65561" lon="4.65219">
        <ele>531.8</ele>
        <time>2025-11-11T09:43:03Z</time>
      </trkpt>
      <trkpt lat="45.65561" lon="4.65219">
        <ele>531.8</ele>
        <time>2025-11-11T09:43:04Z</time>
      </trkpt>
      <trkpt lat="45.65561" lon="4.65219">
        <ele>531.8</ele>
        <time>2025-11-11T09:43:05Z</time>
      </trkpt>
      <trkpt lat="45.65561" lon="4.65219">
        <ele>531.8</ele>
        <time>2025-11-11T09:43:06Z</time>
      </trkpt>
      <trkpt lat="45.65561" lon="4.65219">
        <ele>531.8</ele>
        <time>2025-11-11T09:43:07Z</time>
      </trkpt>
      <trkpt lat="45.65561" lon="4.65219">
        <ele>531.8</ele>
        <time>2025-11-11T09:43:08Z</time>
      </trkpt>
      <trkpt lat="45.65561" lon="4.65219">
        <ele>531.8</ele>
        <time>2025-11-11T09:43:09Z</time>
      </trkpt>
      <trkpt lat="45.65561" lon="4.65219">
        <ele>531.8</ele>
        <time>2025-11-11T09:43:10Z</time>
      </trkpt>
      <trkpt lat="45.65561" lon="4.65219">
        <ele>531.8</ele>
        <time>2025-11-11T09:43:11Z</time>
      </trkpt>
      <trkpt lat="45.65561" lon="4.65219">
        <ele>531.8</ele>
        <time>2025-11-11T09:43:12Z</time>
      </trkpt>
      <trkpt lat="45.65561" lon="4.65219">
        <ele>531.8</ele>
        <time>2025-11-11T09:43:13Z</time>
      </trkpt>
      <trkpt lat="45.65561" lon="4.65219">
        <ele>531.8</ele>
        <time>2025-11-11T09:43:14Z</time>
      </trkpt>
      <trkpt lat="45.65561" lon="4.65219">
        <ele>531.6</ele>
        <time>2025-11-11T09:43:15Z</time>
      </trkpt>
      <trkpt lat="45.65561" lon="4.65219">
        <ele>531.6</ele>
        <time>2025-11-11T09:43:16Z</time>
      </trkpt>
      <trkpt lat="45.65561" lon="4.65219">
        <ele>531.6</ele>
        <time>2025-11-11T09:43:17Z</time>
      </trkpt>
      <trkpt lat="45.65561" lon="4.65219">
        <ele>531.6</ele>
        <time>2025-11-11T09:43:18Z</time>
      </trkpt>
      <trkpt lat="45.65561" lon="4.65219">
        <ele>531.8</ele>
        <time>2025-11-11T09:43:19Z</time>
      </trkpt>
      <trkpt lat="45.65561" lon="4.65219">
        <ele>531.8</ele>
        <time>2025-11-11T09:43:20Z</time>
      </trkpt>
      <trkpt lat="45.65561" lon="4.65219">
        <ele>531.6</ele>
        <time>2025-11-11T09:43:21Z</time>
      </trkpt>
      <trkpt lat="45.65561" lon="4.65219">
        <ele>531.6</ele>
        <time>2025-11-11T09:43:22Z</time>
      </trkpt>
      <trkpt lat="45.65561" lon="4.65219">
        <ele>531.6</ele>
        <time>2025-11-11T09:43:23Z</time>
      </trkpt>
      <trkpt lat="45.65561" lon="4.65219">
        <ele>531.6</ele>
        <time>2025-11-11T09:43:24Z</time>
      </trkpt>
      <trkpt lat="45.65561" lon="4.65219">
        <ele>531.6</ele>
        <time>2025-11-11T09:43:25Z</time>
      </trkpt>
      <trkpt lat="45.65561" lon="4.65219">
        <ele>531.6</ele>
        <time>2025-11-11T09:43:26Z</time>
      </trkpt>
      <trkpt lat="45.65561" lon="4.65219">
        <ele>531.6</ele>
        <time>2025-11-11T09:43:27Z</time>
      </trkpt>
      <trkpt lat="45.65561" lon="4.65219">
        <ele>531.6</ele>
        <time>2025-11-11T09:43:28Z</time>
      </trkpt>
      <trkpt lat="45.65561" lon="4.65219">
        <ele>531.6</ele>
        <time>2025-11-11T09:43:29Z</time>
      </trkpt>
      <trkpt lat="45.65561" lon="4.65219">
        <ele>531.6</ele>
        <time>2025-11-11T09:43:30Z</time>
      </trkpt>
      <trkpt lat="45.65561" lon="4.65219">
        <ele>531.6</ele>
        <time>2025-11-11T09:43:31Z</time>
      </trkpt>
      <trkpt lat="45.65561" lon="4.65219">
        <ele>531.6</ele>
        <time>2025-11-11T09:43:32Z</time>
      </trkpt>
      <trkpt lat="45.65561" lon="4.65219">
        <ele>531.6</ele>
        <time>2025-11-11T09:43:33Z</time>
      </trkpt>
      <trkpt lat="45.65561" lon="4.65219">
        <ele>531.6</ele>
        <time>2025-11-11T09:43:34Z</time>
      </trkpt>
      <trkpt lat="45.65561" lon="4.65219">
        <ele>531.6</ele>
        <time>2025-11-11T09:43:35Z</time>
      </trkpt>
      <trkpt lat="45.65561" lon="4.65219">
        <ele>531.6</ele>
        <time>2025-11-11T09:43:36Z</time>
      </trkpt>
      <trkpt lat="45.65561" lon="4.65219">
        <ele>531.6</ele>
        <time>2025-11-11T09:43:37Z</time>
      </trkpt>
      <trkpt lat="45.65561" lon="4.65219">
        <ele>531.6</ele>
        <time>2025-11-11T09:43:38Z</time>
      </trkpt>
      <trkpt lat="45.65561" lon="4.65219">
        <ele>531.6</ele>
        <time>2025-11-11T09:43:39Z</time>
      </trkpt>
      <trkpt lat="45.65561" lon="4.65219">
        <ele>531.6</ele>
        <time>2025-11-11T09:43:40Z</time>
      </trkpt>
      <trkpt lat="45.65561" lon="4.65219">
        <ele>531.6</ele>
        <time>2025-11-11T09:43:41Z</time>
      </trkpt>
      <trkpt lat="45.65561" lon="4.65219">
        <ele>531.6</ele>
        <time>2025-11-11T09:43:42Z</time>
      </trkpt>
      <trkpt lat="45.65561" lon="4.65219">
        <ele>531.6</ele>
        <time>2025-11-11T09:43:43Z</time>
      </trkpt>
      <trkpt lat="45.65561" lon="4.65219">
        <ele>531.6</ele>
        <time>2025-11-11T09:43:44Z</time>
      </trkpt>
      <trkpt lat="45.65561" lon="4.65219">
        <ele>531.6</ele>
        <time>2025-11-11T09:43:45Z</time>
      </trkpt>
      <trkpt lat="45.65561" lon="4.65219">
        <ele>531.6</ele>
        <time>2025-11-11T09:43:46Z</time>
      </trkpt>
      <trkpt lat="45.65561" lon="4.65219">
        <ele>531.6</ele>
        <time>2025-11-11T09:43:47Z</time>
      </trkpt>
      <trkpt lat="45.65561" lon="4.65219">
        <ele>531.6</ele>
        <time>2025-11-11T09:43:48Z</time>
      </trkpt>
      <trkpt lat="45.65561" lon="4.65219">
        <ele>531.6</ele>
        <time>2025-11-11T09:43:49Z</time>
      </trkpt>
      <trkpt lat="45.65561" lon="4.65219">
        <ele>531.6</ele>
        <time>2025-11-11T09:43:50Z</time>
      </trkpt>
      <trkpt lat="45.65561" lon="4.65219">
        <ele>531.6</ele>
        <time>2025-11-11T09:43:51Z</time>
      </trkpt>
      <trkpt lat="45.65561" lon="4.65219">
        <ele>531.6</ele>
        <time>2025-11-11T09:43:52Z</time>
      </trkpt>
      <trkpt lat="45.65561" lon="4.65219">
        <ele>531.6</ele>
        <time>2025-11-11T09:43:53Z</time>
      </trkpt>
      <trkpt lat="45.65561" lon="4.65219">
        <ele>531.6</ele>
        <time>2025-11-11T09:43:54Z</time>
      </trkpt>
      <trkpt lat="45.65561" lon="4.65219">
        <ele>531.6</ele>
        <time>2025-11-11T09:43:55Z</time>
      </trkpt>
      <trkpt lat="45.65561" lon="4.65219">
        <ele>531.6</ele>
        <time>2025-11-11T09:43:56Z</time>
      </trkpt>
      <trkpt lat="45.65561" lon="4.65219">
        <ele>531.6</ele>
        <time>2025-11-11T09:43:57Z</time>
      </trkpt>
      <trkpt lat="45.65561" lon="4.65219">
        <ele>531.6</ele>
        <time>2025-11-11T09:43:58Z</time>
      </trkpt>
      <trkpt lat="45.65561" lon="4.65219">
        <ele>531.6</ele>
        <time>2025-11-11T09:43:59Z</time>
      </trkpt>
      <trkpt lat="45.65561" lon="4.65219">
        <ele>531.6</ele>
        <time>2025-11-11T09:44:00Z</time>
      </trkpt>
      <trkpt lat="45.65561" lon="4.65219">
        <ele>531.6</ele>
        <time>2025-11-11T09:44:01Z</time>
      </trkpt>
      <trkpt lat="45.65561" lon="4.65219">
        <ele>531.6</ele>
        <time>2025-11-11T09:44:02Z</time>
      </trkpt>
      <trkpt lat="45.65561" lon="4.65219">
        <ele>531.6</ele>
        <time>2025-11-11T09:44:03Z</time>
      </trkpt>
      <trkpt lat="45.65561" lon="4.65219">
        <ele>531.6</ele>
        <time>2025-11-11T09:44:04Z</time>
      </trkpt>
      <trkpt lat="45.65561" lon="4.65219">
        <ele>531.6</ele>
        <time>2025-11-11T09:44:05Z</time>
      </trkpt>
      <trkpt lat="45.65561" lon="4.65219">
        <ele>531.6</ele>
        <time>2025-11-11T09:44:06Z</time>
      </trkpt>
      <trkpt lat="45.65561" lon="4.65219">
        <ele>531.6</ele>
        <time>2025-11-11T09:44:07Z</time>
      </trkpt>
      <trkpt lat="45.65561" lon="4.65219">
        <ele>531.6</ele>
        <time>2025-11-11T09:44:08Z</time>
      </trkpt>
      <trkpt lat="45.65561" lon="4.65219">
        <ele>531.6</ele>
        <time>2025-11-11T09:44:09Z</time>
      </trkpt>
      <trkpt lat="45.65561" lon="4.65219">
        <ele>531.6</ele>
        <time>2025-11-11T09:44:10Z</time>
      </trkpt>
      <trkpt lat="45.65561" lon="4.65219">
        <ele>531.6</ele>
        <time>2025-11-11T09:44:11Z</time>
      </trkpt>
      <trkpt lat="45.65561" lon="4.65219">
        <ele>531.6</ele>
        <time>2025-11-11T09:44:12Z</time>
      </trkpt>
      <trkpt lat="45.65561" lon="4.65219">
        <ele>531.6</ele>
        <time>2025-11-11T09:44:13Z</time>
      </trkpt>
      <trkpt lat="45.65561" lon="4.65219">
        <ele>531.6</ele>
        <time>2025-11-11T09:44:14Z</time>
      </trkpt>
      <trkpt lat="45.65561" lon="4.65219">
        <ele>531.6</ele>
        <time>2025-11-11T09:44:15Z</time>
      </trkpt>
      <trkpt lat="45.65561" lon="4.65219">
        <ele>531.6</ele>
        <time>2025-11-11T09:44:16Z</time>
      </trkpt>
      <trkpt lat="45.65561" lon="4.65219">
        <ele>531.6</ele>
        <time>2025-11-11T09:44:17Z</time>
      </trkpt>
      <trkpt lat="45.65561" lon="4.65219">
        <ele>531.6</ele>
        <time>2025-11-11T09:44:18Z</time>
      </trkpt>
      <trkpt lat="45.65561" lon="4.65219">
        <ele>531.6</ele>
        <time>2025-11-11T09:44:19Z</time>
      </trkpt>
      <trkpt lat="45.65561" lon="4.65219">
        <ele>531.6</ele>
        <time>2025-11-11T09:44:20Z</time>
      </trkpt>
      <trkpt lat="45.65561" lon="4.65219">
        <ele>531.6</ele>
        <time>2025-11-11T09:44:21Z</time>
      </trkpt>
      <trkpt lat="45.65561" lon="4.65219">
        <ele>531.6</ele>
        <time>2025-11-11T09:44:22Z</time>
      </trkpt>
      <trkpt lat="45.65561" lon="4.65219">
        <ele>531.6</ele>
        <time>2025-11-11T09:44:23Z</time>
      </trkpt>
      <trkpt lat="45.65561" lon="4.65219">
        <ele>531.6</ele>
        <time>2025-11-11T09:44:24Z</time>
      </trkpt>
      <trkpt lat="45.65561" lon="4.65219">
        <ele>531.6</ele>
        <time>2025-11-11T09:44:25Z</time>
      </trkpt>
      <trkpt lat="45.65561" lon="4.65219">
        <ele>531.6</ele>
        <time>2025-11-11T09:44:26Z</time>
      </trkpt>
      <trkpt lat="45.65561" lon="4.65219">
        <ele>531.6</ele>
        <time>2025-11-11T09:44:27Z</time>
      </trkpt>
      <trkpt lat="45.65561" lon="4.65219">
        <ele>531.6</ele>
        <time>2025-11-11T09:44:28Z</time>
      </trkpt>
      <trkpt lat="45.65562" lon="4.65218">
        <ele>531.6</ele>
        <time>2025-11-11T09:44:29Z</time>
      </trkpt>
      <trkpt lat="45.65563" lon="4.65216">
        <ele>531.6</ele>
        <time>2025-11-11T09:44:30Z</time>
      </trkpt>
      <trkpt lat="45.65563" lon="4.65214">
        <ele>531.8</ele>
        <time>2025-11-11T09:44:31Z</time>
      </trkpt>
      <trkpt lat="45.65563" lon="4.65212">
        <ele>531.6</ele>
        <time>2025-11-11T09:44:32Z</time>
      </trkpt>
      <trkpt lat="45.65564" lon="4.65211">
        <ele>531.6</ele>
        <time>2025-11-11T09:44:33Z</time>
      </trkpt>
      <trkpt lat="45.65565" lon="4.65209">
        <ele>531.6</ele>
        <time>2025-11-11T09:44:34Z</time>
      </trkpt>
      <trkpt lat="45.65567" lon="4.65207">
        <ele>531.6</ele>
        <time>2025-11-11T09:44:35Z</time>
      </trkpt>
      <trkpt lat="45.65569" lon="4.65204">
        <ele>531.6</ele>
        <time>2025-11-11T09:44:36Z</time>
      </trkpt>
      <trkpt lat="45.65571" lon="4.65202">
        <ele>531.4</ele>
        <time>2025-11-11T09:44:37Z</time>
      </trkpt>
      <trkpt lat="45.65573" lon="4.65199">
        <ele>531.4</ele>
        <time>2025-11-11T09:44:38Z</time>
      </trkpt>
      <trkpt lat="45.65575" lon="4.65196">
        <ele>531.2</ele>
        <time>2025-11-11T09:44:39Z</time>
      </trkpt>
      <trkpt lat="45.65577" lon="4.65193">
        <ele>531.2</ele>
        <time>2025-11-11T09:44:40Z</time>
      </trkpt>
      <trkpt lat="45.65579" lon="4.6519">
        <ele>531</ele>
        <time>2025-11-11T09:44:41Z</time>
      </trkpt>
      <trkpt lat="45.65581" lon="4.65187">
        <ele>531</ele>
        <time>2025-11-11T09:44:42Z</time>
      </trkpt>
      <trkpt lat="45.65584" lon="4.65184">
        <ele>530.8</ele>
        <time>2025-11-11T09:44:43Z</time>
      </trkpt>
      <trkpt lat="45.65586" lon="4.65181">
        <ele>530.8</ele>
        <time>2025-11-11T09:44:44Z</time>
      </trkpt>
      <trkpt lat="45.65588" lon="4.65177">
        <ele>530.6</ele>
        <time>2025-11-11T09:44:45Z</time>
      </trkpt>
      <trkpt lat="45.6559" lon="4.65174">
        <ele>530.4</ele>
        <time>2025-11-11T09:44:46Z</time>
      </trkpt>
      <trkpt lat="45.65592" lon="4.65171">
        <ele>530.2</ele>
        <time>2025-11-11T09:44:47Z</time>
      </trkpt>
      <trkpt lat="45.65595" lon="4.65167">
        <ele>530.2</ele>
        <time>2025-11-11T09:44:48Z</time>
      </trkpt>
      <trkpt lat="45.65597" lon="4.65163">
        <ele>529.8</ele>
        <time>2025-11-11T09:44:49Z</time>
      </trkpt>
      <trkpt lat="45.65599" lon="4.65159">
        <ele>529.6</ele>
        <time>2025-11-11T09:44:50Z</time>
      </trkpt>
      <trkpt lat="45.65602" lon="4.65155">
        <ele>529.4</ele>
        <time>2025-11-11T09:44:51Z</time>
      </trkpt>
      <trkpt lat="45.65605" lon="4.6515">
        <ele>529.2</ele>
        <time>2025-11-11T09:44:52Z</time>
      </trkpt>
      <trkpt lat="45.65609" lon="4.65145">
        <ele>528.8</ele>
        <time>2025-11-11T09:44:53Z</time>
      </trkpt>
      <trkpt lat="45.65612" lon="4.6514">
        <ele>528.4</ele>
        <time>2025-11-11T09:44:54Z</time>
      </trkpt>
      <trkpt lat="45.65615" lon="4.65136">
        <ele>528.2</ele>
        <time>2025-11-11T09:44:55Z</time>
      </trkpt>
      <trkpt lat="45.65619" lon="4.6513">
        <ele>527.8</ele>
        <time>2025-11-11T09:44:56Z</time>
      </trkpt>
      <trkpt lat="45.65622" lon="4.65125">
        <ele>527.6</ele>
        <time>2025-11-11T09:44:57Z</time>
      </trkpt>
      <trkpt lat="45.65626" lon="4.65119">
        <ele>527.4</ele>
        <time>2025-11-11T09:44:58Z</time>
      </trkpt>
      <trkpt lat="45.6563" lon="4.65114">
        <ele>527</ele>
        <time>2025-11-11T09:44:59Z</time>
      </trkpt>
      <trkpt lat="45.65633" lon="4.65109">
        <ele>526.6</ele>
        <time>2025-11-11T09:45:00Z</time>
      </trkpt>
      <trkpt lat="45.65638" lon="4.65102">
        <ele>526.2</ele>
        <time>2025-11-11T09:45:01Z</time>
      </trkpt>
      <trkpt lat="45.65642" lon="4.65095">
        <ele>525.6</ele>
        <time>2025-11-11T09:45:02Z</time>
      </trkpt>
      <trkpt lat="45.65647" lon="4.65089">
        <ele>525.2</ele>
        <time>2025-11-11T09:45:03Z</time>
      </trkpt>
      <trkpt lat="45.65651" lon="4.65082">
        <ele>524.6</ele>
        <time>2025-11-11T09:45:04Z</time>
      </trkpt>
      <trkpt lat="45.65655" lon="4.65075">
        <ele>524</ele>
        <time>2025-11-11T09:45:05Z</time>
      </trkpt>
      <trkpt lat="45.6566" lon="4.65069">
        <ele>523.6</ele>
        <time>2025-11-11T09:45:06Z</time>
      </trkpt>
      <trkpt lat="45.65664" lon="4.65063">
        <ele>523.2</ele>
        <time>2025-11-11T09:45:07Z</time>
      </trkpt>
      <trkpt lat="45.65668" lon="4.65056">
        <ele>522.8</ele>
        <time>2025-11-11T09:45:08Z</time>
      </trkpt>
      <trkpt lat="45.65673" lon="4.65049">
        <ele>522.4</ele>
        <time>2025-11-11T09:45:09Z</time>
      </trkpt>
      <trkpt lat="45.65678" lon="4.65043">
        <ele>522</ele>
        <time>2025-11-11T09:45:10Z</time>
      </trkpt>
      <trkpt lat="45.65683" lon="4.65036">
        <ele>521.6</ele>
        <time>2025-11-11T09:45:11Z</time>
      </trkpt>
      <trkpt lat="45.65688" lon="4.65029">
        <ele>521.2</ele>
        <time>2025-11-11T09:45:12Z</time>
      </trkpt>
      <trkpt lat="45.65693" lon="4.65023">
        <ele>521</ele>
        <time>2025-11-11T09:45:13Z</time>
      </trkpt>
      <trkpt lat="45.65699" lon="4.65018">
        <ele>520.6</ele>
        <time>2025-11-11T09:45:14Z</time>
      </trkpt>
      <trkpt lat="45.65705" lon="4.65013">
        <ele>520.2</ele>
        <time>2025-11-11T09:45:15Z</time>
      </trkpt>
      <trkpt lat="45.65711" lon="4.65008">
        <ele>519.8</ele>
        <time>2025-11-11T09:45:16Z</time>
      </trkpt>
      <trkpt lat="45.65717" lon="4.65004">
        <ele>519.4</ele>
        <time>2025-11-11T09:45:17Z</time>
      </trkpt>
      <trkpt lat="45.65723" lon="4.64999">
        <ele>519</ele>
        <time>2025-11-11T09:45:18Z</time>
      </trkpt>
      <trkpt lat="45.65728" lon="4.64994">
        <ele>518.6</ele>
        <time>2025-11-11T09:45:19Z</time>
      </trkpt>
      <trkpt lat="45.65734" lon="4.64989">
        <ele>518.4</ele>
        <time>2025-11-11T09:45:20Z</time>
      </trkpt>
      <trkpt lat="45.6574" lon="4.64984">
        <ele>518</ele>
        <time>2025-11-11T09:45:21Z</time>
      </trkpt>
      <trkpt lat="45.65746" lon="4.6498">
        <ele>517.8</ele>
        <time>2025-11-11T09:45:22Z</time>
      </trkpt>
      <trkpt lat="45.65752" lon="4.64975">
        <ele>517.4</ele>
        <time>2025-11-11T09:45:23Z</time>
      </trkpt>
      <trkpt lat="45.65758" lon="4.64971">
        <ele>517.2</ele>
        <time>2025-11-11T09:45:24Z</time>
      </trkpt>
      <trkpt lat="45.65763" lon="4.64966">
        <ele>517</ele>
        <time>2025-11-11T09:45:25Z</time>
      </trkpt>
      <trkpt lat="45.65769" lon="4.64962">
        <ele>516.8</ele>
        <time>2025-11-11T09:45:26Z</time>
      </trkpt>
      <trkpt lat="45.65774" lon="4.64957">
        <ele>516.8</ele>
        <time>2025-11-11T09:45:27Z</time>
      </trkpt>
      <trkpt lat="45.65778" lon="4.64952">
        <ele>516.6</ele>
        <time>2025-11-11T09:45:28Z</time>
      </trkpt>
      <trkpt lat="45.65783" lon="4.64946">
        <ele>516.6</ele>
        <time>2025-11-11T09:45:29Z</time>
      </trkpt>
      <trkpt lat="45.65786" lon="4.6494">
        <ele>516.4</ele>
        <time>2025-11-11T09:45:30Z</time>
      </trkpt>
      <trkpt lat="45.65791" lon="4.64934">
        <ele>516.2</ele>
        <time>2025-11-11T09:45:31Z</time>
      </trkpt>
      <trkpt lat="45.65795" lon="4.64928">
        <ele>515.8</ele>
        <time>2025-11-11T09:45:32Z</time>
      </trkpt>
      <trkpt lat="45.658" lon="4.64923">
        <ele>515.4</ele>
        <time>2025-11-11T09:45:33Z</time>
      </trkpt>
      <trkpt lat="45.65804" lon="4.64918">
        <ele>514.8</ele>
        <time>2025-11-11T09:45:34Z</time>
      </trkpt>
      <trkpt lat="45.65809" lon="4.64914">
        <ele>514.2</ele>
        <time>2025-11-11T09:45:35Z</time>
      </trkpt>
      <trkpt lat="45.65813" lon="4.6491">
        <ele>513.6</ele>
        <time>2025-11-11T09:45:36Z</time>
      </trkpt>
      <trkpt lat="45.65818" lon="4.64907">
        <ele>513</ele>
        <time>2025-11-11T09:45:37Z</time>
      </trkpt>
      <trkpt lat="45.65823" lon="4.64904">
        <ele>512.4</ele>
        <time>2025-11-11T09:45:38Z</time>
      </trkpt>
      <trkpt lat="45.65827" lon="4.649">
        <ele>511.8</ele>
        <time>2025-11-11T09:45:39Z</time>
      </trkpt>
      <trkpt lat="45.65832" lon="4.64895">
        <ele>511.2</ele>
        <time>2025-11-11T09:45:40Z</time>
      </trkpt>
      <trkpt lat="45.65836" lon="4.64889">
        <ele>510.6</ele>
        <time>2025-11-11T09:45:41Z</time>
      </trkpt>
      <trkpt lat="45.65841" lon="4.64884">
        <ele>509.8</ele>
        <time>2025-11-11T09:45:42Z</time>
      </trkpt>
      <trkpt lat="45.65845" lon="4.6488">
        <ele>509.2</ele>
        <time>2025-11-11T09:45:43Z</time>
      </trkpt>
      <trkpt lat="45.65849" lon="4.64875">
        <ele>508.4</ele>
        <time>2025-11-11T09:45:44Z</time>
      </trkpt>
      <trkpt lat="45.65854" lon="4.6487">
        <ele>507.8</ele>
        <time>2025-11-11T09:45:45Z</time>
      </trkpt>
      <trkpt lat="45.65859" lon="4.64864">
        <ele>507</ele>
        <time>2025-11-11T09:45:46Z</time>
      </trkpt>
      <trkpt lat="45.65864" lon="4.64858">
        <ele>506.4</ele>
        <time>2025-11-11T09:45:47Z</time>
      </trkpt>
      <trkpt lat="45.65867" lon="4.64852">
        <ele>506</ele>
        <time>2025-11-11T09:45:48Z</time>
      </trkpt>
      <trkpt lat="45.65871" lon="4.64848">
        <ele>505.6</ele>
        <time>2025-11-11T09:45:49Z</time>
      </trkpt>
      <trkpt lat="45.65874" lon="4.64843">
        <ele>505.4</ele>
        <time>2025-11-11T09:45:50Z</time>
      </trkpt>
      <trkpt lat="45.65878" lon="4.64838">
        <ele>505.2</ele>
        <time>2025-11-11T09:45:51Z</time>
      </trkpt>
      <trkpt lat="45.65882" lon="4.64832">
        <ele>504.8</ele>
        <time>2025-11-11T09:45:52Z</time>
      </trkpt>
      <trkpt lat="45.65887" lon="4.64826">
        <ele>504.2</ele>
        <time>2025-11-11T09:45:53Z</time>
      </trkpt>
      <trkpt lat="45.65892" lon="4.64819">
        <ele>503.6</ele>
        <time>2025-11-11T09:45:54Z</time>
      </trkpt>
      <trkpt lat="45.65897" lon="4.64811">
        <ele>503</ele>
        <time>2025-11-11T09:45:55Z</time>
      </trkpt>
      <trkpt lat="45.65901" lon="4.64803">
        <ele>502.4</ele>
        <time>2025-11-11T09:45:56Z</time>
      </trkpt>
      <trkpt lat="45.65904" lon="4.64795">
        <ele>501.8</ele>
        <time>2025-11-11T09:45:57Z</time>
      </trkpt>
      <trkpt lat="45.65907" lon="4.64785">
        <ele>501</ele>
        <time>2025-11-11T09:45:58Z</time>
      </trkpt>
      <trkpt lat="45.65908" lon="4.64775">
        <ele>500.4</ele>
        <time>2025-11-11T09:45:59Z</time>
      </trkpt>
      <trkpt lat="45.65909" lon="4.64764">
        <ele>499.8</ele>
        <time>2025-11-11T09:46:00Z</time>
      </trkpt>
      <trkpt lat="45.6591" lon="4.64755">
        <ele>499</ele>
        <time>2025-11-11T09:46:01Z</time>
      </trkpt>
      <trkpt lat="45.65912" lon="4.64745">
        <ele>498.4</ele>
        <time>2025-11-11T09:46:02Z</time>
      </trkpt>
      <trkpt lat="45.65914" lon="4.64736">
        <ele>497.8</ele>
        <time>2025-11-11T09:46:03Z</time>
      </trkpt>
      <trkpt lat="45.65916" lon="4.64727">
        <ele>497.4</ele>
        <time>2025-11-11T09:46:04Z</time>
      </trkpt>
      <trkpt lat="45.65918" lon="4.64718">
        <ele>497.2</ele>
        <time>2025-11-11T09:46:05Z</time>
      </trkpt>
      <trkpt lat="45.65918" lon="4.64709">
        <ele>497</ele>
        <time>2025-11-11T09:46:06Z</time>
      </trkpt>
      <trkpt lat="45.65919" lon="4.647">
        <ele>497</ele>
        <time>2025-11-11T09:46:07Z</time>
      </trkpt>
      <trkpt lat="45.65919" lon="4.64691">
        <ele>496.8</ele>
        <time>2025-11-11T09:46:08Z</time>
      </trkpt>
      <trkpt lat="45.65918" lon="4.64682">
        <ele>496.8</ele>
        <time>2025-11-11T09:46:09Z</time>
      </trkpt>
      <trkpt lat="45.65918" lon="4.64673">
        <ele>496.8</ele>
        <time>2025-11-11T09:46:10Z</time>
      </trkpt>
      <trkpt lat="45.65917" lon="4.64664">
        <ele>496.6</ele>
        <time>2025-11-11T09:46:11Z</time>
      </trkpt>
      <trkpt lat="45.65918" lon="4.64654">
        <ele>496.4</ele>
        <time>2025-11-11T09:46:12Z</time>
      </trkpt>
      <trkpt lat="45.65919" lon="4.64645">
        <ele>496</ele>
        <time>2025-11-11T09:46:13Z</time>
      </trkpt>
      <trkpt lat="45.6592" lon="4.64636">
        <ele>495.6</ele>
        <time>2025-11-11T09:46:14Z</time>
      </trkpt>
      <trkpt lat="45.65922" lon="4.64627">
        <ele>495</ele>
        <time>2025-11-11T09:46:15Z</time>
      </trkpt>
      <trkpt lat="45.65924" lon="4.64617">
        <ele>494.4</ele>
        <time>2025-11-11T09:46:16Z</time>
      </trkpt>
      <trkpt lat="45.65926" lon="4.64608">
        <ele>493.4</ele>
        <time>2025-11-11T09:46:17Z</time>
      </trkpt>
      <trkpt lat="45.65927" lon="4.64599">
        <ele>492.4</ele>
        <time>2025-11-11T09:46:18Z</time>
      </trkpt>
      <trkpt lat="45.65928" lon="4.64589">
        <ele>491.2</ele>
        <time>2025-11-11T09:46:19Z</time>
      </trkpt>
      <trkpt lat="45.65929" lon="4.64578">
        <ele>489.8</ele>
        <time>2025-11-11T09:46:20Z</time>
      </trkpt>
      <trkpt lat="45.65928" lon="4.64568">
        <ele>488.6</ele>
        <time>2025-11-11T09:46:21Z</time>
      </trkpt>
      <trkpt lat="45.65926" lon="4.64557">
        <ele>487.4</ele>
        <time>2025-11-11T09:46:22Z</time>
      </trkpt>
      <trkpt lat="45.65924" lon="4.64547">
        <ele>486</ele>
        <time>2025-11-11T09:46:23Z</time>
      </trkpt>
      <trkpt lat="45.65922" lon="4.64538">
        <ele>484.8</ele>
        <time>2025-11-11T09:46:24Z</time>
      </trkpt>
      <trkpt lat="45.6592" lon="4.64529">
        <ele>484</ele>
        <time>2025-11-11T09:46:25Z</time>
      </trkpt>
      <trkpt lat="45.65918" lon="4.6452">
        <ele>483</ele>
        <time>2025-11-11T09:46:26Z</time>
      </trkpt>
      <trkpt lat="45.65917" lon="4.64512">
        <ele>482.2</ele>
        <time>2025-11-11T09:46:27Z</time>
      </trkpt>
      <trkpt lat="45.65916" lon="4.64503">
        <ele>481.2</ele>
        <time>2025-11-11T09:46:28Z</time>
      </trkpt>
      <trkpt lat="45.65916" lon="4.64494">
        <ele>480.4</ele>
        <time>2025-11-11T09:46:29Z</time>
      </trkpt>
      <trkpt lat="45.65916" lon="4.64486">
        <ele>479.4</ele>
        <time>2025-11-11T09:46:30Z</time>
      </trkpt>
      <trkpt lat="45.65917" lon="4.6448">
        <ele>478.4</ele>
        <time>2025-11-11T09:46:31Z</time>
      </trkpt>
      <trkpt lat="45.6592" lon="4.64474">
        <ele>477.4</ele>
        <time>2025-11-11T09:46:32Z</time>
      </trkpt>
      <trkpt lat="45.65924" lon="4.64469">
        <ele>476.4</ele>
        <time>2025-11-11T09:46:33Z</time>
      </trkpt>
      <trkpt lat="45.65929" lon="4.64465">
        <ele>475.4</ele>
        <time>2025-11-11T09:46:34Z</time>
      </trkpt>
      <trkpt lat="45.65934" lon="4.64463">
        <ele>474.4</ele>
        <time>2025-11-11T09:46:35Z</time>
      </trkpt>
      <trkpt lat="45.65937" lon="4.64461">
        <ele>473.4</ele>
        <time>2025-11-11T09:46:36Z</time>
      </trkpt>
      <trkpt lat="45.6594" lon="4.64457">
        <ele>472.8</ele>
        <time>2025-11-11T09:46:37Z</time>
      </trkpt>
      <trkpt lat="45.65943" lon="4.64453">
        <ele>472</ele>
        <time>2025-11-11T09:46:38Z</time>
      </trkpt>
      <trkpt lat="45.65947" lon="4.64448">
        <ele>471.4</ele>
        <time>2025-11-11T09:46:39Z</time>
      </trkpt>
      <trkpt lat="45.65951" lon="4.64443">
        <ele>470.8</ele>
        <time>2025-11-11T09:46:40Z</time>
      </trkpt>
      <trkpt lat="45.65954" lon="4.64437">
        <ele>470</ele>
        <time>2025-11-11T09:46:41Z</time>
      </trkpt>
      <trkpt lat="45.65957" lon="4.6443">
        <ele>469.2</ele>
        <time>2025-11-11T09:46:42Z</time>
      </trkpt>
      <trkpt lat="45.6596" lon="4.64421">
        <ele>468.4</ele>
        <time>2025-11-11T09:46:43Z</time>
      </trkpt>
      <trkpt lat="45.65963" lon="4.64413">
        <ele>467.4</ele>
        <time>2025-11-11T09:46:44Z</time>
      </trkpt>
      <trkpt lat="45.65965" lon="4.64405">
        <ele>466.4</ele>
        <time>2025-11-11T09:46:45Z</time>
      </trkpt>
      <trkpt lat="45.65967" lon="4.64396">
        <ele>465.6</ele>
        <time>2025-11-11T09:46:46Z</time>
      </trkpt>
      <trkpt lat="45.6597" lon="4.64388">
        <ele>464.6</ele>
        <time>2025-11-11T09:46:47Z</time>
      </trkpt>
      <trkpt lat="45.65972" lon="4.6438">
        <ele>463.8</ele>
        <time>2025-11-11T09:46:48Z</time>
      </trkpt>
      <trkpt lat="45.65974" lon="4.64374">
        <ele>463</ele>
        <time>2025-11-11T09:46:49Z</time>
      </trkpt>
      <trkpt lat="45.65976" lon="4.64365">
        <ele>462.2</ele>
        <time>2025-11-11T09:46:50Z</time>
      </trkpt>
      <trkpt lat="45.65977" lon="4.64358">
        <ele>461.6</ele>
        <time>2025-11-11T09:46:51Z</time>
      </trkpt>
      <trkpt lat="45.65979" lon="4.64353">
        <ele>461</ele>
        <time>2025-11-11T09:46:52Z</time>
      </trkpt>
      <trkpt lat="45.6598" lon="4.64348">
        <ele>460.6</ele>
        <time>2025-11-11T09:46:53Z</time>
      </trkpt>
      <trkpt lat="45.65981" lon="4.64342">
        <ele>460</ele>
        <time>2025-11-11T09:46:54Z</time>
      </trkpt>
      <trkpt lat="45.65982" lon="4.64336">
        <ele>459.4</ele>
        <time>2025-11-11T09:46:55Z</time>
      </trkpt>
      <trkpt lat="45.65982" lon="4.64328">
        <ele>458.6</ele>
        <time>2025-11-11T09:46:56Z</time>
      </trkpt>
      <trkpt lat="45.65982" lon="4.6432">
        <ele>457.8</ele>
        <time>2025-11-11T09:46:57Z</time>
      </trkpt>
      <trkpt lat="45.65981" lon="4.64312">
        <ele>457</ele>
        <time>2025-11-11T09:46:58Z</time>
      </trkpt>
      <trkpt lat="45.6598" lon="4.64305">
        <ele>456.2</ele>
        <time>2025-11-11T09:46:59Z</time>
      </trkpt>
      <trkpt lat="45.65977" lon="4.64298">
        <ele>455.4</ele>
        <time>2025-11-11T09:47:00Z</time>
      </trkpt>
      <trkpt lat="45.65973" lon="4.64293">
        <ele>454.8</ele>
        <time>2025-11-11T09:47:01Z</time>
      </trkpt>
      <trkpt lat="45.65968" lon="4.64287">
        <ele>454.2</ele>
        <time>2025-11-11T09:47:02Z</time>
      </trkpt>
      <trkpt lat="45.65964" lon="4.64281">
        <ele>453.8</ele>
        <time>2025-11-11T09:47:03Z</time>
      </trkpt>
      <trkpt lat="45.6596" lon="4.64275">
        <ele>453.2</ele>
        <time>2025-11-11T09:47:04Z</time>
      </trkpt>
      <trkpt lat="45.65957" lon="4.64269">
        <ele>452.8</ele>
        <time>2025-11-11T09:47:05Z</time>
      </trkpt>
      <trkpt lat="45.65953" lon="4.6426">
        <ele>452.2</ele>
        <time>2025-11-11T09:47:06Z</time>
      </trkpt>
      <trkpt lat="45.65951" lon="4.64254">
        <ele>451.6</ele>
        <time>2025-11-11T09:47:07Z</time>
      </trkpt>
      <trkpt lat="45.65948" lon="4.64249">
        <ele>450.8</ele>
        <time>2025-11-11T09:47:08Z</time>
      </trkpt>
      <trkpt lat="45.65946" lon="4.64244">
        <ele>450.2</ele>
        <time>2025-11-11T09:47:09Z</time>
      </trkpt>
      <trkpt lat="45.65943" lon="4.6424">
        <ele>449.8</ele>
        <time>2025-11-11T09:47:10Z</time>
      </trkpt>
      <trkpt lat="45.65938" lon="4.64234">
        <ele>449</ele>
        <time>2025-11-11T09:47:11Z</time>
      </trkpt>
      <trkpt lat="45.65934" lon="4.64232">
        <ele>448.4</ele>
        <time>2025-11-11T09:47:12Z</time>
      </trkpt>
      <trkpt lat="45.6593" lon="4.64229">
        <ele>447.6</ele>
        <time>2025-11-11T09:47:13Z</time>
      </trkpt>
      <trkpt lat="45.65926" lon="4.64227">
        <ele>446.8</ele>
        <time>2025-11-11T09:47:14Z</time>
      </trkpt>
      <trkpt lat="45.65923" lon="4.64223">
        <ele>446</ele>
        <time>2025-11-11T09:47:15Z</time>
      </trkpt>
      <trkpt lat="45.65921" lon="4.64218">
        <ele>445.2</ele>
        <time>2025-11-11T09:47:16Z</time>
      </trkpt>
      <trkpt lat="45.65919" lon="4.64213">
        <ele>444.4</ele>
        <time>2025-11-11T09:47:17Z</time>
      </trkpt>
      <trkpt lat="45.65917" lon="4.64207">
        <ele>443.4</ele>
        <time>2025-11-11T09:47:18Z</time>
      </trkpt>
      <trkpt lat="45.65918" lon="4.642">
        <ele>442.4</ele>
        <time>2025-11-11T09:47:19Z</time>
      </trkpt>
      <trkpt lat="45.65919" lon="4.64193">
        <ele>441.4</ele>
        <time>2025-11-11T09:47:20Z</time>
      </trkpt>
      <trkpt lat="45.65922" lon="4.64186">
        <ele>440.6</ele>
        <time>2025-11-11T09:47:21Z</time>
      </trkpt>
      <trkpt lat="45.65924" lon="4.64178">
        <ele>439.6</ele>
        <time>2025-11-11T09:47:22Z</time>
      </trkpt>
      <trkpt lat="45.65925" lon="4.64171">
        <ele>438.6</ele>
        <time>2025-11-11T09:47:23Z</time>
      </trkpt>
      <trkpt lat="45.65927" lon="4.64163">
        <ele>437.6</ele>
        <time>2025-11-11T09:47:24Z</time>
      </trkpt>
      <trkpt lat="45.65929" lon="4.64157">
        <ele>436.6</ele>
        <time>2025-11-11T09:47:25Z</time>
      </trkpt>
      <trkpt lat="45.65932" lon="4.64151">
        <ele>435.8</ele>
        <time>2025-11-11T09:47:26Z</time>
      </trkpt>
      <trkpt lat="45.65936" lon="4.64146">
        <ele>434.8</ele>
        <time>2025-11-11T09:47:27Z</time>
      </trkpt>
      <trkpt lat="45.65941" lon="4.64141">
        <ele>433.6</ele>
        <time>2025-11-11T09:47:28Z</time>
      </trkpt>
      <trkpt lat="45.65947" lon="4.64137">
        <ele>432.6</ele>
        <time>2025-11-11T09:47:29Z</time>
      </trkpt>
      <trkpt lat="45.65953" lon="4.64134">
        <ele>431.6</ele>
        <time>2025-11-11T09:47:30Z</time>
      </trkpt>
      <trkpt lat="45.65957" lon="4.64132">
        <ele>430.8</ele>
        <time>2025-11-11T09:47:31Z</time>
      </trkpt>
      <trkpt lat="45.65962" lon="4.64131">
        <ele>430.2</ele>
        <time>2025-11-11T09:47:32Z</time>
      </trkpt>
      <trkpt lat="45.65966" lon="4.6413">
        <ele>429.6</ele>
        <time>2025-11-11T09:47:33Z</time>
      </trkpt>
      <trkpt lat="45.6597" lon="4.64128">
        <ele>429.2</ele>
        <time>2025-11-11T09:47:34Z</time>
      </trkpt>
      <trkpt lat="45.65974" lon="4.64126">
        <ele>428.6</ele>
        <time>2025-11-11T09:47:35Z</time>
      </trkpt>
      <trkpt lat="45.65978" lon="4.64125">
        <ele>428</ele>
        <time>2025-11-11T09:47:36Z</time>
      </trkpt>
      <trkpt lat="45.65983" lon="4.64123">
        <ele>427.2</ele>
        <time>2025-11-11T09:47:37Z</time>
      </trkpt>
      <trkpt lat="45.65989" lon="4.64123">
        <ele>426.2</ele>
        <time>2025-11-11T09:47:38Z</time>
      </trkpt>
      <trkpt lat="45.65993" lon="4.64122">
        <ele>425.2</ele>
        <time>2025-11-11T09:47:39Z</time>
      </trkpt>
      <trkpt lat="45.65999" lon="4.64122">
        <ele>424</ele>
        <time>2025-11-11T09:47:40Z</time>
      </trkpt>
      <trkpt lat="45.66007" lon="4.6412">
        <ele>422.6</ele>
        <time>2025-11-11T09:47:41Z</time>
      </trkpt>
      <trkpt lat="45.66013" lon="4.64119">
        <ele>421.4</ele>
        <time>2025-11-11T09:47:42Z</time>
      </trkpt>
      <trkpt lat="45.66019" lon="4.64118">
        <ele>420.2</ele>
        <time>2025-11-11T09:47:43Z</time>
      </trkpt>
      <trkpt lat="45.66024" lon="4.64116">
        <ele>419.2</ele>
        <time>2025-11-11T09:47:44Z</time>
      </trkpt>
      <trkpt lat="45.66028" lon="4.64112">
        <ele>418.4</ele>
        <time>2025-11-11T09:47:45Z</time>
      </trkpt>
      <trkpt lat="45.66031" lon="4.64106">
        <ele>417.6</ele>
        <time>2025-11-11T09:47:46Z</time>
      </trkpt>
      <trkpt lat="45.66031" lon="4.641">
        <ele>416.8</ele>
        <time>2025-11-11T09:47:47Z</time>
      </trkpt>
      <trkpt lat="45.66029" lon="4.64092">
        <ele>416</ele>
        <time>2025-11-11T09:47:48Z</time>
      </trkpt>
      <trkpt lat="45.66027" lon="4.64084">
        <ele>415</ele>
        <time>2025-11-11T09:47:49Z</time>
      </trkpt>
      <trkpt lat="45.66023" lon="4.64076">
        <ele>414</ele>
        <time>2025-11-11T09:47:50Z</time>
      </trkpt>
      <trkpt lat="45.6602" lon="4.64068">
        <ele>413</ele>
        <time>2025-11-11T09:47:51Z</time>
      </trkpt>
      <trkpt lat="45.66017" lon="4.6406">
        <ele>411.8</ele>
        <time>2025-11-11T09:47:52Z</time>
      </trkpt>
      <trkpt lat="45.66015" lon="4.64052">
        <ele>410.8</ele>
        <time>2025-11-11T09:47:53Z</time>
      </trkpt>
      <trkpt lat="45.66014" lon="4.64046">
        <ele>410</ele>
        <time>2025-11-11T09:47:54Z</time>
      </trkpt>
      <trkpt lat="45.66012" lon="4.64039">
        <ele>409.2</ele>
        <time>2025-11-11T09:47:55Z</time>
      </trkpt>
      <trkpt lat="45.6601" lon="4.64034">
        <ele>408.6</ele>
        <time>2025-11-11T09:47:56Z</time>
      </trkpt>
      <trkpt lat="45.66008" lon="4.64029">
        <ele>408</ele>
        <time>2025-11-11T09:47:57Z</time>
      </trkpt>
      <trkpt lat="45.66005" lon="4.64022">
        <ele>407.6</ele>
        <time>2025-11-11T09:47:58Z</time>
      </trkpt>
      <trkpt lat="45.66001" lon="4.64018">
        <ele>407</ele>
        <time>2025-11-11T09:47:59Z</time>
      </trkpt>
      <trkpt lat="45.65997" lon="4.64012">
        <ele>406.4</ele>
        <time>2025-11-11T09:48:00Z</time>
      </trkpt>
      <trkpt lat="45.65994" lon="4.64006">
        <ele>405.4</ele>
        <time>2025-11-11T09:48:01Z</time>
      </trkpt>
      <trkpt lat="45.6599" lon="4.64">
        <ele>404.6</ele>
        <time>2025-11-11T09:48:02Z</time>
      </trkpt>
      <trkpt lat="45.65987" lon="4.63993">
        <ele>403.6</ele>
        <time>2025-11-11T09:48:03Z</time>
      </trkpt>
      <trkpt lat="45.65986" lon="4.63987">
        <ele>402.8</ele>
        <time>2025-11-11T09:48:04Z</time>
      </trkpt>
      <trkpt lat="45.65986" lon="4.63981">
        <ele>402.2</ele>
        <time>2025-11-11T09:48:05Z</time>
      </trkpt>
      <trkpt lat="45.65986" lon="4.63975">
        <ele>401.8</ele>
        <time>2025-11-11T09:48:06Z</time>
      </trkpt>
      <trkpt lat="45.65986" lon="4.63969">
        <ele>401.4</ele>
        <time>2025-11-11T09:48:07Z</time>
      </trkpt>
      <trkpt lat="45.65986" lon="4.63963">
        <ele>401.2</ele>
        <time>2025-11-11T09:48:08Z</time>
      </trkpt>
      <trkpt lat="45.65986" lon="4.63956">
        <ele>401</ele>
        <time>2025-11-11T09:48:09Z</time>
      </trkpt>
      <trkpt lat="45.65985" lon="4.6395">
        <ele>400.8</ele>
        <time>2025-11-11T09:48:10Z</time>
      </trkpt>
      <trkpt lat="45.65984" lon="4.63943">
        <ele>400.4</ele>
        <time>2025-11-11T09:48:11Z</time>
      </trkpt>
      <trkpt lat="45.65981" lon="4.63937">
        <ele>400.2</ele>
        <time>2025-11-11T09:48:12Z</time>
      </trkpt>
      <trkpt lat="45.65979" lon="4.63931">
        <ele>399.8</ele>
        <time>2025-11-11T09:48:13Z</time>
      </trkpt>
      <trkpt lat="45.65975" lon="4.63925">
        <ele>399.6</ele>
        <time>2025-11-11T09:48:14Z</time>
      </trkpt>
      <trkpt lat="45.65973" lon="4.63921">
        <ele>399.4</ele>
        <time>2025-11-11T09:48:15Z</time>
      </trkpt>
      <trkpt lat="45.6597" lon="4.63916">
        <ele>399.2</ele>
        <time>2025-11-11T09:48:16Z</time>
      </trkpt>
      <trkpt lat="45.65969" lon="4.63912">
        <ele>399.2</ele>
        <time>2025-11-11T09:48:17Z</time>
      </trkpt>
      <trkpt lat="45.65969" lon="4.6391">
        <ele>399.2</ele>
        <time>2025-11-11T09:48:18Z</time>
      </trkpt>
      <trkpt lat="45.6597" lon="4.63908">
        <ele>399.4</ele>
        <time>2025-11-11T09:48:19Z</time>
      </trkpt>
      <trkpt lat="45.65971" lon="4.63908">
        <ele>399.6</ele>
        <time>2025-11-11T09:48:20Z</time>
      </trkpt>
      <trkpt lat="45.65971" lon="4.63908">
        <ele>399.8</ele>
        <time>2025-11-11T09:48:21Z</time>
      </trkpt>
      <trkpt lat="45.65971" lon="4.63908">
        <ele>400</ele>
        <time>2025-11-11T09:48:22Z</time>
      </trkpt>
      <trkpt lat="45.65971" lon="4.63908">
        <ele>400</ele>
        <time>2025-11-11T09:48:23Z</time>
      </trkpt>
      <trkpt lat="45.65971" lon="4.63908">
        <ele>400.2</ele>
        <time>2025-11-11T09:48:24Z</time>
      </trkpt>
      <trkpt lat="45.65971" lon="4.63908">
        <ele>400.2</ele>
        <time>2025-11-11T09:48:25Z</time>
      </trkpt>
      <trkpt lat="45.65971" lon="4.63908">
        <ele>400.2</ele>
        <time>2025-11-11T09:48:26Z</time>
      </trkpt>
      <trkpt lat="45.65971" lon="4.63908">
        <ele>400.2</ele>
        <time>2025-11-11T09:48:27Z</time>
      </trkpt>
      <trkpt lat="45.65971" lon="4.63908">
        <ele>400.2</ele>
        <time>2025-11-11T09:48:28Z</time>
      </trkpt>
      <trkpt lat="45.65971" lon="4.63908">
        <ele>400.2</ele>
        <time>2025-11-11T09:48:29Z</time>
      </trkpt>
      <trkpt lat="45.65971" lon="4.63908">
        <ele>400.2</ele>
        <time>2025-11-11T09:48:30Z</time>
      </trkpt>
      <trkpt lat="45.65971" lon="4.63908">
        <ele>400.2</ele>
        <time>2025-11-11T09:48:31Z</time>
      </trkpt>
      <trkpt lat="45.65971" lon="4.63908">
        <ele>400.2</ele>
        <time>2025-11-11T09:48:32Z</time>
      </trkpt>
      <trkpt lat="45.65971" lon="4.63908">
        <ele>400.2</ele>
        <time>2025-11-11T09:48:33Z</time>
      </trkpt>
      <trkpt lat="45.65971" lon="4.63908">
        <ele>400.2</ele>
        <time>2025-11-11T09:48:34Z</time>
      </trkpt>
      <trkpt lat="45.65971" lon="4.63908">
        <ele>400.2</ele>
        <time>2025-11-11T09:48:35Z</time>
      </trkpt>
      <trkpt lat="45.65971" lon="4.63908">
        <ele>400.2</ele>
        <time>2025-11-11T09:48:36Z</time>
      </trkpt>
      <trkpt lat="45.65971" lon="4.63908">
        <ele>400.2</ele>
        <time>2025-11-11T09:48:37Z</time>
      </trkpt>
      <trkpt lat="45.65971" lon="4.63908">
        <ele>400.2</ele>
        <time>2025-11-11T09:48:38Z</time>
      </trkpt>
      <trkpt lat="45.65971" lon="4.63908">
        <ele>400.2</ele>
        <time>2025-11-11T09:48:39Z</time>
      </trkpt>
      <trkpt lat="45.65971" lon="4.63908">
        <ele>400.2</ele>
        <time>2025-11-11T09:48:40Z</time>
      </trkpt>
      <trkpt lat="45.65971" lon="4.63908">
        <ele>400.2</ele>
        <time>2025-11-11T09:48:41Z</time>
      </trkpt>
      <trkpt lat="45.65971" lon="4.63908">
        <ele>400.2</ele>
        <time>2025-11-11T09:48:42Z</time>
      </trkpt>
      <trkpt lat="45.65971" lon="4.63908">
        <ele>400.2</ele>
        <time>2025-11-11T09:48:43Z</time>
      </trkpt>
      <trkpt lat="45.65971" lon="4.63908">
        <ele>400.2</ele>
        <time>2025-11-11T09:48:44Z</time>
      </trkpt>
      <trkpt lat="45.65971" lon="4.63908">
        <ele>400.2</ele>
        <time>2025-11-11T09:48:45Z</time>
      </trkpt>
      <trkpt lat="45.65971" lon="4.63908">
        <ele>400.2</ele>
        <time>2025-11-11T09:48:46Z</time>
      </trkpt>
      <trkpt lat="45.65971" lon="4.63908">
        <ele>400.2</ele>
        <time>2025-11-11T09:48:47Z</time>
      </trkpt>
      <trkpt lat="45.65971" lon="4.63908">
        <ele>400.2</ele>
        <time>2025-11-11T09:48:48Z</time>
      </trkpt>
      <trkpt lat="45.65971" lon="4.63908">
        <ele>400.2</ele>
        <time>2025-11-11T09:48:49Z</time>
      </trkpt>
      <trkpt lat="45.65971" lon="4.63908">
        <ele>400.2</ele>
        <time>2025-11-11T09:48:50Z</time>
      </trkpt>
      <trkpt lat="45.65971" lon="4.63908">
        <ele>400.2</ele>
        <time>2025-11-11T09:48:51Z</time>
      </trkpt>
      <trkpt lat="45.65971" lon="4.63908">
        <ele>400.2</ele>
        <time>2025-11-11T09:48:52Z</time>
      </trkpt>
      <trkpt lat="45.65971" lon="4.63908">
        <ele>400.2</ele>
        <time>2025-11-11T09:48:53Z</time>
      </trkpt>
      <trkpt lat="45.65971" lon="4.63908">
        <ele>400.2</ele>
        <time>2025-11-11T09:48:54Z</time>
      </trkpt>
      <trkpt lat="45.65971" lon="4.63908">
        <ele>400.2</ele>
        <time>2025-11-11T09:48:55Z</time>
      </trkpt>
      <trkpt lat="45.65971" lon="4.63908">
        <ele>400.2</ele>
        <time>2025-11-11T09:48:56Z</time>
      </trkpt>
      <trkpt lat="45.65971" lon="4.63908">
        <ele>400.2</ele>
        <time>2025-11-11T09:48:57Z</time>
      </trkpt>
      <trkpt lat="45.65971" lon="4.63908">
        <ele>400.2</ele>
        <time>2025-11-11T09:48:58Z</time>
      </trkpt>
      <trkpt lat="45.65971" lon="4.63908">
        <ele>400.2</ele>
        <time>2025-11-11T09:48:59Z</time>
      </trkpt>
      <trkpt lat="45.65971" lon="4.63908">
        <ele>400.4</ele>
        <time>2025-11-11T09:49:00Z</time>
      </trkpt>
      <trkpt lat="45.65971" lon="4.63908">
        <ele>400.4</ele>
        <time>2025-11-11T09:49:01Z</time>
      </trkpt>
      <trkpt lat="45.65971" lon="4.63908">
        <ele>400.4</ele>
        <time>2025-11-11T09:49:02Z</time>
      </trkpt>
      <trkpt lat="45.65971" lon="4.63908">
        <ele>400.4</ele>
        <time>2025-11-11T09:49:03Z</time>
      </trkpt>
      <trkpt lat="45.65971" lon="4.63908">
        <ele>400.4</ele>
        <time>2025-11-11T09:49:04Z</time>
      </trkpt>
      <trkpt lat="45.65971" lon="4.63908">
        <ele>400.4</ele>
        <time>2025-11-11T09:49:05Z</time>
      </trkpt>
      <trkpt lat="45.65971" lon="4.63908">
        <ele>400.4</ele>
        <time>2025-11-11T09:49:06Z</time>
      </trkpt>
      <trkpt lat="45.65971" lon="4.63908">
        <ele>400.4</ele>
        <time>2025-11-11T09:49:07Z</time>
      </trkpt>
      <trkpt lat="45.65971" lon="4.63908">
        <ele>400.4</ele>
        <time>2025-11-11T09:49:08Z</time>
      </trkpt>
      <trkpt lat="45.65971" lon="4.63908">
        <ele>400.4</ele>
        <time>2025-11-11T09:49:09Z</time>
      </trkpt>
      <trkpt lat="45.65971" lon="4.63908">
        <ele>400.4</ele>
        <time>2025-11-11T09:49:10Z</time>
      </trkpt>
      <trkpt lat="45.65971" lon="4.63908">
        <ele>400.4</ele>
        <time>2025-11-11T09:49:11Z</time>
      </trkpt>
      <trkpt lat="45.65971" lon="4.63908">
        <ele>400.4</ele>
        <time>2025-11-11T09:49:12Z</time>
      </trkpt>
      <trkpt lat="45.65971" lon="4.63908">
        <ele>400.4</ele>
        <time>2025-11-11T09:49:13Z</time>
      </trkpt>
      <trkpt lat="45.65971" lon="4.63908">
        <ele>400.4</ele>
        <time>2025-11-11T09:49:14Z</time>
      </trkpt>
      <trkpt lat="45.65971" lon="4.63908">
        <ele>400.4</ele>
        <time>2025-11-11T09:49:15Z</time>
      </trkpt>
      <trkpt lat="45.65971" lon="4.63907">
        <ele>400.6</ele>
        <time>2025-11-11T09:49:16Z</time>
      </trkpt>
      <trkpt lat="45.65971" lon="4.63906">
        <ele>400.6</ele>
        <time>2025-11-11T09:49:17Z</time>
      </trkpt>
      <trkpt lat="45.65972" lon="4.63905">
        <ele>400.6</ele>
        <time>2025-11-11T09:49:18Z</time>
      </trkpt>
      <trkpt lat="45.65972" lon="4.63903">
        <ele>400.6</ele>
        <time>2025-11-11T09:49:19Z</time>
      </trkpt>
      <trkpt lat="45.65972" lon="4.63901">
        <ele>400.6</ele>
        <time>2025-11-11T09:49:20Z</time>
      </trkpt>
      <trkpt lat="45.65971" lon="4.63898">
        <ele>400.6</ele>
        <time>2025-11-11T09:49:21Z</time>
      </trkpt>
      <trkpt lat="45.6597" lon="4.63896">
        <ele>400.6</ele>
        <time>2025-11-11T09:49:22Z</time>
      </trkpt>
      <trkpt lat="45.65969" lon="4.63894">
        <ele>400.6</ele>
        <time>2025-11-11T09:49:23Z</time>
      </trkpt>
      <trkpt lat="45.65967" lon="4.63893">
        <ele>400.6</ele>
        <time>2025-11-11T09:49:24Z</time>
      </trkpt>
      <trkpt lat="45.65965" lon="4.6389">
        <ele>400.6</ele>
        <time>2025-11-11T09:49:25Z</time>
      </trkpt>
      <trkpt lat="45.65963" lon="4.63888">
        <ele>400.8</ele>
        <time>2025-11-11T09:49:26Z</time>
      </trkpt>
      <trkpt lat="45.65961" lon="4.63886">
        <ele>401</ele>
        <time>2025-11-11T09:49:27Z</time>
      </trkpt>
      <trkpt lat="45.65959" lon="4.63885">
        <ele>401.2</ele>
        <time>2025-11-11T09:49:28Z</time>
      </trkpt>
      <trkpt lat="45.65957" lon="4.63884">
        <ele>401.4</ele>
        <time>2025-11-11T09:49:29Z</time>
      </trkpt>
      <trkpt lat="45.65955" lon="4.63882">
        <ele>401.6</ele>
        <time>2025-11-11T09:49:30Z</time>
      </trkpt>
      <trkpt lat="45.65954" lon="4.63881">
        <ele>402</ele>
        <time>2025-11-11T09:49:31Z</time>
      </trkpt>
      <trkpt lat="45.65952" lon="4.63878">
        <ele>402.2</ele>
        <time>2025-11-11T09:49:32Z</time>
      </trkpt>
      <trkpt lat="45.65951" lon="4.63876">
        <ele>402.4</ele>
        <time>2025-11-11T09:49:33Z</time>
      </trkpt>
      <trkpt lat="45.6595" lon="4.63873">
        <ele>402.6</ele>
        <time>2025-11-11T09:49:34Z</time>
      </trkpt>
      <trkpt lat="45.65949" lon="4.63871">
        <ele>402.8</ele>
        <time>2025-11-11T09:49:35Z</time>
      </trkpt>
      <trkpt lat="45.65948" lon="4.63869">
        <ele>403</ele>
        <time>2025-11-11T09:49:36Z</time>
      </trkpt>
      <trkpt lat="45.65946" lon="4.63867">
        <ele>403.4</ele>
        <time>2025-11-11T09:49:37Z</time>
      </trkpt>
      <trkpt lat="45.65945" lon="4.63865">
        <ele>403.6</ele>
        <time>2025-11-11T09:49:38Z</time>
      </trkpt>
      <trkpt lat="45.65944" lon="4.63864">
        <ele>404</ele>
        <time>2025-11-11T09:49:39Z</time>
      </trkpt>
      <trkpt lat="45.65944" lon="4.63863">
        <ele>404.2</ele>
        <time>2025-11-11T09:49:40Z</time>
      </trkpt>
      <trkpt lat="45.65944" lon="4.63863">
        <ele>404.6</ele>
        <time>2025-11-11T09:49:41Z</time>
      </trkpt>
      <trkpt lat="45.65944" lon="4.63863">
        <ele>404.8</ele>
        <time>2025-11-11T09:49:42Z</time>
      </trkpt>
      <trkpt lat="45.65944" lon="4.63863">
        <ele>405</ele>
        <time>2025-11-11T09:49:43Z</time>
      </trkpt>
      <trkpt lat="45.65944" lon="4.63863">
        <ele>405.2</ele>
        <time>2025-11-11T09:49:44Z</time>
      </trkpt>
      <trkpt lat="45.65944" lon="4.63863">
        <ele>405.2</ele>
        <time>2025-11-11T09:49:45Z</time>
      </trkpt>
      <trkpt lat="45.65944" lon="4.63863">
        <ele>405.2</ele>
        <time>2025-11-11T09:49:46Z</time>
      </trkpt>
      <trkpt lat="45.65944" lon="4.63863">
        <ele>405.2</ele>
        <time>2025-11-11T09:49:47Z</time>
      </trkpt>
      <trkpt lat="45.65944" lon="4.63863">
        <ele>405.2</ele>
        <time>2025-11-11T09:49:48Z</time>
      </trkpt>
      <trkpt lat="45.65944" lon="4.63863">
        <ele>405.2</ele>
        <time>2025-11-11T09:49:49Z</time>
      </trkpt>
      <trkpt lat="45.65944" lon="4.63863">
        <ele>405.2</ele>
        <time>2025-11-11T09:49:50Z</time>
      </trkpt>
      <trkpt lat="45.65943" lon="4.63863">
        <ele>405.4</ele>
        <time>2025-11-11T09:49:51Z</time>
      </trkpt>
      <trkpt lat="45.65943" lon="4.63863">
        <ele>405.4</ele>
        <time>2025-11-11T09:49:52Z</time>
      </trkpt>
      <trkpt lat="45.65943" lon="4.63863">
        <ele>405.4</ele>
        <time>2025-11-11T09:49:53Z</time>
      </trkpt>
      <trkpt lat="45.65943" lon="4.63863">
        <ele>405.4</ele>
        <time>2025-11-11T09:49:54Z</time>
      </trkpt>
      <trkpt lat="45.65943" lon="4.63862">
        <ele>405.6</ele>
        <time>2025-11-11T09:49:55Z</time>
      </trkpt>
      <trkpt lat="45.65943" lon="4.63861">
        <ele>405.6</ele>
        <time>2025-11-11T09:49:56Z</time>
      </trkpt>
      <trkpt lat="45.65942" lon="4.63859">
        <ele>405.8</ele>
        <time>2025-11-11T09:49:57Z</time>
      </trkpt>
      <trkpt lat="45.65941" lon="4.63859">
        <ele>405.8</ele>
        <time>2025-11-11T09:49:58Z</time>
      </trkpt>
      <trkpt lat="45.65941" lon="4.63859">
        <ele>406.2</ele>
        <time>2025-11-11T09:49:59Z</time>
      </trkpt>
      <trkpt lat="45.65941" lon="4.63859">
        <ele>406.4</ele>
        <time>2025-11-11T09:50:00Z</time>
      </trkpt>
      <trkpt lat="45.65939" lon="4.63858">
        <ele>406.6</ele>
        <time>2025-11-11T09:50:01Z</time>
      </trkpt>
      <trkpt lat="45.65938" lon="4.63857">
        <ele>406.6</ele>
        <time>2025-11-11T09:50:02Z</time>
      </trkpt>
      <trkpt lat="45.65937" lon="4.63857">
        <ele>406.8</ele>
        <time>2025-11-11T09:50:03Z</time>
      </trkpt>
      <trkpt lat="45.65937" lon="4.63857">
        <ele>407</ele>
        <time>2025-11-11T09:50:04Z</time>
      </trkpt>
      <trkpt lat="45.65937" lon="4.63857">
        <ele>407</ele>
        <time>2025-11-11T09:50:05Z</time>
      </trkpt>
      <trkpt lat="45.65937" lon="4.63856">
        <ele>407.2</ele>
        <time>2025-11-11T09:50:06Z</time>
      </trkpt>
      <trkpt lat="45.65936" lon="4.63855">
        <ele>407.4</ele>
        <time>2025-11-11T09:50:07Z</time>
      </trkpt>
      <trkpt lat="45.65935" lon="4.63854">
        <ele>407.6</ele>
        <time>2025-11-11T09:50:08Z</time>
      </trkpt>
      <trkpt lat="45.65934" lon="4.63853">
        <ele>407.8</ele>
        <time>2025-11-11T09:50:09Z</time>
      </trkpt>
      <trkpt lat="45.65934" lon="4.63853">
        <ele>408</ele>
        <time>2025-11-11T09:50:10Z</time>
      </trkpt>
      <trkpt lat="45.65933" lon="4.63853">
        <ele>408.2</ele>
        <time>2025-11-11T09:50:11Z</time>
      </trkpt>
      <trkpt lat="45.65932" lon="4.63852">
        <ele>408.4</ele>
        <time>2025-11-11T09:50:12Z</time>
      </trkpt>
      <trkpt lat="45.6593" lon="4.63851">
        <ele>408.6</ele>
        <time>2025-11-11T09:50:13Z</time>
      </trkpt>
      <trkpt lat="45.65929" lon="4.63851">
        <ele>408.8</ele>
        <time>2025-11-11T09:50:14Z</time>
      </trkpt>
      <trkpt lat="45.65929" lon="4.63851">
        <ele>408.8</ele>
        <time>2025-11-11T09:50:15Z</time>
      </trkpt>
      <trkpt lat="45.65929" lon="4.63851">
        <ele>409</ele>
        <time>2025-11-11T09:50:16Z</time>
      </trkpt>
      <trkpt lat="45.65929" lon="4.63851">
        <ele>409</ele>
        <time>2025-11-11T09:50:17Z</time>
      </trkpt>
      <trkpt lat="45.65928" lon="4.6385">
        <ele>409.2</ele>
        <time>2025-11-11T09:50:18Z</time>
      </trkpt>
      <trkpt lat="45.65927" lon="4.63848">
        <ele>409.2</ele>
        <time>2025-11-11T09:50:19Z</time>
      </trkpt>
      <trkpt lat="45.65924" lon="4.63846">
        <ele>409.2</ele>
        <time>2025-11-11T09:50:20Z</time>
      </trkpt>
      <trkpt lat="45.65922" lon="4.63844">
        <ele>409.4</ele>
        <time>2025-11-11T09:50:21Z</time>
      </trkpt>
      <trkpt lat="45.6592" lon="4.63841">
        <ele>409.4</ele>
        <time>2025-11-11T09:50:22Z</time>
      </trkpt>
      <trkpt lat="45.65919" lon="4.63839">
        <ele>409.6</ele>
        <time>2025-11-11T09:50:23Z</time>
      </trkpt>
      <trkpt lat="45.65916" lon="4.63837">
        <ele>409.8</ele>
        <time>2025-11-11T09:50:24Z</time>
      </trkpt>
      <trkpt lat="45.65914" lon="4.63835">
        <ele>410</ele>
        <time>2025-11-11T09:50:25Z</time>
      </trkpt>
      <trkpt lat="45.6591" lon="4.63833">
        <ele>410.2</ele>
        <time>2025-11-11T09:50:26Z</time>
      </trkpt>
      <trkpt lat="45.65907" lon="4.63831">
        <ele>410.4</ele>
        <time>2025-11-11T09:50:27Z</time>
      </trkpt>
      <trkpt lat="45.65904" lon="4.63828">
        <ele>410.4</ele>
        <time>2025-11-11T09:50:28Z</time>
      </trkpt>
      <trkpt lat="45.65901" lon="4.63826">
        <ele>410.6</ele>
        <time>2025-11-11T09:50:29Z</time>
      </trkpt>
      <trkpt lat="45.65898" lon="4.63824">
        <ele>410.8</ele>
        <time>2025-11-11T09:50:30Z</time>
      </trkpt>
      <trkpt lat="45.65896" lon="4.63821">
        <ele>411.2</ele>
        <time>2025-11-11T09:50:31Z</time>
      </trkpt>
      <trkpt lat="45.65893" lon="4.63819">
        <ele>411.4</ele>
        <time>2025-11-11T09:50:32Z</time>
      </trkpt>
      <trkpt lat="45.65891" lon="4.63817">
        <ele>411.8</ele>
        <time>2025-11-11T09:50:33Z</time>
      </trkpt>
      <trkpt lat="45.65888" lon="4.63816">
        <ele>412</ele>
        <time>2025-11-11T09:50:34Z</time>
      </trkpt>
      <trkpt lat="45.65885" lon="4.63814">
        <ele>412.4</ele>
        <time>2025-11-11T09:50:35Z</time>
      </trkpt>
      <trkpt lat="45.65883" lon="4.63812">
        <ele>412.6</ele>
        <time>2025-11-11T09:50:36Z</time>
      </trkpt>
      <trkpt lat="45.6588" lon="4.63809">
        <ele>412.8</ele>
        <time>2025-11-11T09:50:37Z</time>
      </trkpt>
      <trkpt lat="45.65877" lon="4.63807">
        <ele>413</ele>
        <time>2025-11-11T09:50:38Z</time>
      </trkpt>
      <trkpt lat="45.65874" lon="4.63805">
        <ele>413.2</ele>
        <time>2025-11-11T09:50:39Z</time>
      </trkpt>
      <trkpt lat="45.65871" lon="4.63803">
        <ele>413.4</ele>
        <time>2025-11-11T09:50:40Z</time>
      </trkpt>
      <trkpt lat="45.65869" lon="4.638">
        <ele>413.4</ele>
        <time>2025-11-11T09:50:41Z</time>
      </trkpt>
      <trkpt lat="45.65866" lon="4.63797">
        <ele>413.6</ele>
        <time>2025-11-11T09:50:42Z</time>
      </trkpt>
      <trkpt lat="45.65864" lon="4.63794">
        <ele>413.8</ele>
        <time>2025-11-11T09:50:43Z</time>
      </trkpt>
      <trkpt lat="45.65862" lon="4.63791">
        <ele>413.8</ele>
        <time>2025-11-11T09:50:44Z</time>
      </trkpt>
      <trkpt lat="45.6586" lon="4.63788">
        <ele>414</ele>
        <time>2025-11-11T09:50:45Z</time>
      </trkpt>
      <trkpt lat="45.65858" lon="4.63786">
        <ele>414.2</ele>
        <time>2025-11-11T09:50:46Z</time>
      </trkpt>
      <trkpt lat="45.65855" lon="4.63783">
        <ele>414.4</ele>
        <time>2025-11-11T09:50:47Z</time>
      </trkpt>
      <trkpt lat="45.65853" lon="4.6378">
        <ele>414.6</ele>
        <time>2025-11-11T09:50:48Z</time>
      </trkpt>
      <trkpt lat="45.65851" lon="4.63778">
        <ele>414.8</ele>
        <time>2025-11-11T09:50:49Z</time>
      </trkpt>
      <trkpt lat="45.65849" lon="4.63775">
        <ele>415</ele>
        <time>2025-11-11T09:50:50Z</time>
      </trkpt>
      <trkpt lat="45.65846" lon="4.63773">
        <ele>415.2</ele>
        <time>2025-11-11T09:50:51Z</time>
      </trkpt>
      <trkpt lat="45.65844" lon="4.6377">
        <ele>415.2</ele>
        <time>2025-11-11T09:50:52Z</time>
      </trkpt>
      <trkpt lat="45.65842" lon="4.63768">
        <ele>415.4</ele>
        <time>2025-11-11T09:50:53Z</time>
      </trkpt>
      <trkpt lat="45.65839" lon="4.63766">
        <ele>415.6</ele>
        <time>2025-11-11T09:50:54Z</time>
      </trkpt>
      <trkpt lat="45.65837" lon="4.63763">
        <ele>415.8</ele>
        <time>2025-11-11T09:50:55Z</time>
      </trkpt>
      <trkpt lat="45.65834" lon="4.63761">
        <ele>415.8</ele>
        <time>2025-11-11T09:50:56Z</time>
      </trkpt>
      <trkpt lat="45.65832" lon="4.63759">
        <ele>416</ele>
        <time>2025-11-11T09:50:57Z</time>
      </trkpt>
      <trkpt lat="45.65829" lon="4.63756">
        <ele>416.2</ele>
        <time>2025-11-11T09:50:58Z</time>
      </trkpt>
      <trkpt lat="45.65827" lon="4.63754">
        <ele>416.4</ele>
        <time>2025-11-11T09:50:59Z</time>
      </trkpt>
      <trkpt lat="45.65825" lon="4.63751">
        <ele>416.6</ele>
        <time>2025-11-11T09:51:00Z</time>
      </trkpt>
      <trkpt lat="45.65823" lon="4.63749">
        <ele>416.8</ele>
        <time>2025-11-11T09:51:01Z</time>
      </trkpt>
      <trkpt lat="45.65821" lon="4.63746">
        <ele>417</ele>
        <time>2025-11-11T09:51:02Z</time>
      </trkpt>
      <trkpt lat="45.65819" lon="4.63743">
        <ele>417.2</ele>
        <time>2025-11-11T09:51:03Z</time>
      </trkpt>
      <trkpt lat="45.65817" lon="4.63741">
        <ele>417.4</ele>
        <time>2025-11-11T09:51:04Z</time>
      </trkpt>
      <trkpt lat="45.65816" lon="4.63738">
        <ele>417.6</ele>
        <time>2025-11-11T09:51:05Z</time>
      </trkpt>
      <trkpt lat="45.65815" lon="4.63736">
        <ele>418</ele>
        <time>2025-11-11T09:51:06Z</time>
      </trkpt>
      <trkpt lat="45.65813" lon="4.63734">
        <ele>418.2</ele>
        <time>2025-11-11T09:51:07Z</time>
      </trkpt>
      <trkpt lat="45.65811" lon="4.63732">
        <ele>418.4</ele>
        <time>2025-11-11T09:51:08Z</time>
      </trkpt>
      <trkpt lat="45.6581" lon="4.63729">
        <ele>418.8</ele>
        <time>2025-11-11T09:51:09Z</time>
      </trkpt>
      <trkpt lat="45.65809" lon="4.63725">
        <ele>419</ele>
        <time>2025-11-11T09:51:10Z</time>
      </trkpt>
      <trkpt lat="45.65807" lon="4.63722">
        <ele>419</ele>
        <time>2025-11-11T09:51:11Z</time>
      </trkpt>
      <trkpt lat="45.65805" lon="4.63719">
        <ele>419.2</ele>
        <time>2025-11-11T09:51:12Z</time>
      </trkpt>
      <trkpt lat="45.65804" lon="4.63716">
        <ele>419.4</ele>
        <time>2025-11-11T09:51:13Z</time>
      </trkpt>
      <trkpt lat="45.65802" lon="4.63713">
        <ele>419.6</ele>
        <time>2025-11-11T09:51:14Z</time>
      </trkpt>
      <trkpt lat="45.65801" lon="4.6371">
        <ele>419.8</ele>
        <time>2025-11-11T09:51:15Z</time>
      </trkpt>
      <trkpt lat="45.65799" lon="4.63709">
        <ele>420</ele>
        <time>2025-11-11T09:51:16Z</time>
      </trkpt>
      <trkpt lat="45.65798" lon="4.63706">
        <ele>420.2</ele>
        <time>2025-11-11T09:51:17Z</time>
      </trkpt>
      <trkpt lat="45.65797" lon="4.63704">
        <ele>420.6</ele>
        <time>2025-11-11T09:51:18Z</time>
      </trkpt>
      <trkpt lat="45.65797" lon="4.63701">
        <ele>420.8</ele>
        <time>2025-11-11T09:51:19Z</time>
      </trkpt>
      <trkpt lat="45.65796" lon="4.63699">
        <ele>421</ele>
        <time>2025-11-11T09:51:20Z</time>
      </trkpt>
      <trkpt lat="45.65795" lon="4.63696">
        <ele>421.2</ele>
        <time>2025-11-11T09:51:21Z</time>
      </trkpt>
      <trkpt lat="45.65794" lon="4.63693">
        <ele>421.4</ele>
        <time>2025-11-11T09:51:22Z</time>
      </trkpt>
      <trkpt lat="45.65793" lon="4.6369">
        <ele>421.6</ele>
        <time>2025-11-11T09:51:23Z</time>
      </trkpt>
      <trkpt lat="45.65791" lon="4.63687">
        <ele>421.8</ele>
        <time>2025-11-11T09:51:24Z</time>
      </trkpt>
      <trkpt lat="45.6579" lon="4.63684">
        <ele>422</ele>
        <time>2025-11-11T09:51:25Z</time>
      </trkpt>
      <trkpt lat="45.65789" lon="4.6368">
        <ele>422</ele>
        <time>2025-11-11T09:51:26Z</time>
      </trkpt>
      <trkpt lat="45.65788" lon="4.63677">
        <ele>422.2</ele>
        <time>2025-11-11T09:51:27Z</time>
      </trkpt>
      <trkpt lat="45.65787" lon="4.63674">
        <ele>422.4</ele>
        <time>2025-11-11T09:51:28Z</time>
      </trkpt>
      <trkpt lat="45.65787" lon="4.63671">
        <ele>422.6</ele>
        <time>2025-11-11T09:51:29Z</time>
      </trkpt>
      <trkpt lat="45.65786" lon="4.63667">
        <ele>422.6</ele>
        <time>2025-11-11T09:51:30Z</time>
      </trkpt>
      <trkpt lat="45.65786" lon="4.63664">
        <ele>422.8</ele>
        <time>2025-11-11T09:51:31Z</time>
      </trkpt>
      <trkpt lat="45.65785" lon="4.6366">
        <ele>423</ele>
        <time>2025-11-11T09:51:32Z</time>
      </trkpt>
      <trkpt lat="45.65784" lon="4.63656">
        <ele>423.4</ele>
        <time>2025-11-11T09:51:33Z</time>
      </trkpt>
      <trkpt lat="45.65783" lon="4.63653">
        <ele>423.6</ele>
        <time>2025-11-11T09:51:34Z</time>
      </trkpt>
      <trkpt lat="45.65781" lon="4.63649">
        <ele>423.6</ele>
        <time>2025-11-11T09:51:35Z</time>
      </trkpt>
      <trkpt lat="45.6578" lon="4.63646">
        <ele>424</ele>
        <time>2025-11-11T09:51:36Z</time>
      </trkpt>
      <trkpt lat="45.65779" lon="4.63642">
        <ele>424</ele>
        <time>2025-11-11T09:51:37Z</time>
      </trkpt>
      <trkpt lat="45.65778" lon="4.63638">
        <ele>424.2</ele>
        <time>2025-11-11T09:51:38Z</time>
      </trkpt>
      <trkpt lat="45.65778" lon="4.63634">
        <ele>424.4</ele>
        <time>2025-11-11T09:51:39Z</time>
      </trkpt>
      <trkpt lat="45.65778" lon="4.6363">
        <ele>424.4</ele>
        <time>2025-11-11T09:51:40Z</time>
      </trkpt>
      <trkpt lat="45.65777" lon="4.63625">
        <ele>424.6</ele>
        <time>2025-11-11T09:51:41Z</time>
      </trkpt>
      <trkpt lat="45.65776" lon="4.63622">
        <ele>424.8</ele>
        <time>2025-11-11T09:51:42Z</time>
      </trkpt>
      <trkpt lat="45.65775" lon="4.63619">
        <ele>425</ele>
        <time>2025-11-11T09:51:43Z</time>
      </trkpt>
      <trkpt lat="45.65774" lon="4.63615">
        <ele>425.2</ele>
        <time>2025-11-11T09:51:44Z</time>
      </trkpt>
      <trkpt lat="45.65773" lon="4.63612">
        <ele>425.4</ele>
        <time>2025-11-11T09:51:45Z</time>
      </trkpt>
      <trkpt lat="45.65771" lon="4.63608">
        <ele>425.4</ele>
        <time>2025-11-11T09:51:46Z</time>
      </trkpt>
      <trkpt lat="45.6577" lon="4.63605">
        <ele>425.6</ele>
        <time>2025-11-11T09:51:47Z</time>
      </trkpt>
      <trkpt lat="45.65768" lon="4.63601">
        <ele>425.6</ele>
        <time>2025-11-11T09:51:48Z</time>
      </trkpt>
      <trkpt lat="45.65767" lon="4.63598">
        <ele>425.4</ele>
        <time>2025-11-11T09:51:49Z</time>
      </trkpt>
      <trkpt lat="45.65767" lon="4.63595">
        <ele>425.4</ele>
        <time>2025-11-11T09:51:50Z</time>
      </trkpt>
      <trkpt lat="45.65766" lon="4.63592">
        <ele>425.2</ele>
        <time>2025-11-11T09:51:51Z</time>
      </trkpt>
      <trkpt lat="45.65765" lon="4.63588">
        <ele>425</ele>
        <time>2025-11-11T09:51:52Z</time>
      </trkpt>
      <trkpt lat="45.65764" lon="4.63583">
        <ele>424.8</ele>
        <time>2025-11-11T09:51:53Z</time>
      </trkpt>
      <trkpt lat="45.65764" lon="4.63578">
        <ele>424.6</ele>
        <time>2025-11-11T09:51:54Z</time>
      </trkpt>
      <trkpt lat="45.65764" lon="4.63575">
        <ele>424.4</ele>
        <time>2025-11-11T09:51:55Z</time>
      </trkpt>
      <trkpt lat="45.65765" lon="4.63573">
        <ele>424.4</ele>
        <time>2025-11-11T09:51:56Z</time>
      </trkpt>
      <trkpt lat="45.65765" lon="4.63571">
        <ele>424.4</ele>
        <time>2025-11-11T09:51:57Z</time>
      </trkpt>
      <trkpt lat="45.65766" lon="4.63569">
        <ele>424.4</ele>
        <time>2025-11-11T09:51:58Z</time>
      </trkpt>
      <trkpt lat="45.65766" lon="4.63568">
        <ele>424.4</ele>
        <time>2025-11-11T09:51:59Z</time>
      </trkpt>
      <trkpt lat="45.65766" lon="4.63568">
        <ele>424.2</ele>
        <time>2025-11-11T09:52:00Z</time>
      </trkpt>
      <trkpt lat="45.65766" lon="4.63568">
        <ele>424.2</ele>
        <time>2025-11-11T09:52:01Z</time>
      </trkpt>
      <trkpt lat="45.65766" lon="4.63568">
        <ele>424.2</ele>
        <time>2025-11-11T09:52:02Z</time>
      </trkpt>
      <trkpt lat="45.65765" lon="4.63568">
        <ele>424.2</ele>
        <time>2025-11-11T09:52:03Z</time>
      </trkpt>
      <trkpt lat="45.65765" lon="4.63568">
        <ele>424.4</ele>
        <time>2025-11-11T09:52:04Z</time>
      </trkpt>
      <trkpt lat="45.65765" lon="4.63568">
        <ele>424.4</ele>
        <time>2025-11-11T09:52:05Z</time>
      </trkpt>
      <trkpt lat="45.65765" lon="4.63568">
        <ele>424.4</ele>
        <time>2025-11-11T09:52:06Z</time>
      </trkpt>
      <trkpt lat="45.65765" lon="4.63568">
        <ele>424.2</ele>
        <time>2025-11-11T09:52:07Z</time>
      </trkpt>
      <trkpt lat="45.65765" lon="4.63569">
        <ele>424.2</ele>
        <time>2025-11-11T09:52:08Z</time>
      </trkpt>
      <trkpt lat="45.65765" lon="4.63569">
        <ele>424.2</ele>
        <time>2025-11-11T09:52:09Z</time>
      </trkpt>
      <trkpt lat="45.65765" lon="4.63569">
        <ele>424</ele>
        <time>2025-11-11T09:52:10Z</time>
      </trkpt>
      <trkpt lat="45.65765" lon="4.6357">
        <ele>424</ele>
        <time>2025-11-11T09:52:11Z</time>
      </trkpt>
      <trkpt lat="45.65764" lon="4.63571">
        <ele>424</ele>
        <time>2025-11-11T09:52:12Z</time>
      </trkpt>
      <trkpt lat="45.65764" lon="4.63572">
        <ele>424</ele>
        <time>2025-11-11T09:52:13Z</time>
      </trkpt>
      <trkpt lat="45.65764" lon="4.63573">
        <ele>424.2</ele>
        <time>2025-11-11T09:52:14Z</time>
      </trkpt>
      <trkpt lat="45.65764" lon="4.63573">
        <ele>424.4</ele>
        <time>2025-11-11T09:52:15Z</time>
      </trkpt>
      <trkpt lat="45.65764" lon="4.63573">
        <ele>424.4</ele>
        <time>2025-11-11T09:52:16Z</time>
      </trkpt>
      <trkpt lat="45.65764" lon="4.63573">
        <ele>424.6</ele>
        <time>2025-11-11T09:52:17Z</time>
      </trkpt>
      <trkpt lat="45.65764" lon="4.63573">
        <ele>424.8</ele>
        <time>2025-11-11T09:52:18Z</time>
      </trkpt>
      <trkpt lat="45.65764" lon="4.63573">
        <ele>424.8</ele>
        <time>2025-11-11T09:52:19Z</time>
      </trkpt>
      <trkpt lat="45.65763" lon="4.63574">
        <ele>424.8</ele>
        <time>2025-11-11T09:52:20Z</time>
      </trkpt>
      <trkpt lat="45.65763" lon="4.63574">
        <ele>424.8</ele>
        <time>2025-11-11T09:52:21Z</time>
      </trkpt>
      <trkpt lat="45.65763" lon="4.63574">
        <ele>424.6</ele>
        <time>2025-11-11T09:52:22Z</time>
      </trkpt>
      <trkpt lat="45.65763" lon="4.63574">
        <ele>424.6</ele>
        <time>2025-11-11T09:52:23Z</time>
      </trkpt>
      <trkpt lat="45.65763" lon="4.63574">
        <ele>424.6</ele>
        <time>2025-11-11T09:52:24Z</time>
      </trkpt>
      <trkpt lat="45.65763" lon="4.63574">
        <ele>424.6</ele>
        <time>2025-11-11T09:52:25Z</time>
      </trkpt>
      <trkpt lat="45.65763" lon="4.63574">
        <ele>424.6</ele>
        <time>2025-11-11T09:52:26Z</time>
      </trkpt>
      <trkpt lat="45.65763" lon="4.63574">
        <ele>424.6</ele>
        <time>2025-11-11T09:52:27Z</time>
      </trkpt>
      <trkpt lat="45.65763" lon="4.63574">
        <ele>424.6</ele>
        <time>2025-11-11T09:52:28Z</time>
      </trkpt>
      <trkpt lat="45.65763" lon="4.63574">
        <ele>424.8</ele>
        <time>2025-11-11T09:52:29Z</time>
      </trkpt>
      <trkpt lat="45.65763" lon="4.63574">
        <ele>424.8</ele>
        <time>2025-11-11T09:52:30Z</time>
      </trkpt>
      <trkpt lat="45.65763" lon="4.63574">
        <ele>424.8</ele>
        <time>2025-11-11T09:52:31Z</time>
      </trkpt>
      <trkpt lat="45.65763" lon="4.63574">
        <ele>424.8</ele>
        <time>2025-11-11T09:52:32Z</time>
      </trkpt>
      <trkpt lat="45.65763" lon="4.63574">
        <ele>424.8</ele>
        <time>2025-11-11T09:52:33Z</time>
      </trkpt>
      <trkpt lat="45.65763" lon="4.63574">
        <ele>424.8</ele>
        <time>2025-11-11T09:52:34Z</time>
      </trkpt>
      <trkpt lat="45.65763" lon="4.63574">
        <ele>424.8</ele>
        <time>2025-11-11T09:52:35Z</time>
      </trkpt>
      <trkpt lat="45.65763" lon="4.63574">
        <ele>424.8</ele>
        <time>2025-11-11T09:52:36Z</time>
      </trkpt>
      <trkpt lat="45.65763" lon="4.63574">
        <ele>424.8</ele>
        <time>2025-11-11T09:52:37Z</time>
      </trkpt>
      <trkpt lat="45.65763" lon="4.63574">
        <ele>424.8</ele>
        <time>2025-11-11T09:52:38Z</time>
      </trkpt>
      <trkpt lat="45.65763" lon="4.63574">
        <ele>424.8</ele>
        <time>2025-11-11T09:52:39Z</time>
      </trkpt>
      <trkpt lat="45.65763" lon="4.63574">
        <ele>424.8</ele>
        <time>2025-11-11T09:52:40Z</time>
      </trkpt>
      <trkpt lat="45.65763" lon="4.63574">
        <ele>424.8</ele>
        <time>2025-11-11T09:52:41Z</time>
      </trkpt>
      <trkpt lat="45.65763" lon="4.63574">
        <ele>424.8</ele>
        <time>2025-11-11T09:52:42Z</time>
      </trkpt>
      <trkpt lat="45.65763" lon="4.63574">
        <ele>424.6</ele>
        <time>2025-11-11T09:52:43Z</time>
      </trkpt>
      <trkpt lat="45.65763" lon="4.63574">
        <ele>424.6</ele>
        <time>2025-11-11T09:52:44Z</time>
      </trkpt>
      <trkpt lat="45.65763" lon="4.63574">
        <ele>424.8</ele>
        <time>2025-11-11T09:52:45Z</time>
      </trkpt>
      <trkpt lat="45.65763" lon="4.63574">
        <ele>424.8</ele>
        <time>2025-11-11T09:52:46Z</time>
      </trkpt>
      <trkpt lat="45.65763" lon="4.63574">
        <ele>424.8</ele>
        <time>2025-11-11T09:52:47Z</time>
      </trkpt>
      <trkpt lat="45.65763" lon="4.63573">
        <ele>424.8</ele>
        <time>2025-11-11T09:52:48Z</time>
      </trkpt>
      <trkpt lat="45.65763" lon="4.63573">
        <ele>424.8</ele>
        <time>2025-11-11T09:52:49Z</time>
      </trkpt>
      <trkpt lat="45.65764" lon="4.63572">
        <ele>424.8</ele>
        <time>2025-11-11T09:52:50Z</time>
      </trkpt>
      <trkpt lat="45.65766" lon="4.63571">
        <ele>424.8</ele>
        <time>2025-11-11T09:52:51Z</time>
      </trkpt>
      <trkpt lat="45.65769" lon="4.63571">
        <ele>424.8</ele>
        <time>2025-11-11T09:52:52Z</time>
      </trkpt>
      <trkpt lat="45.65771" lon="4.63571">
        <ele>424.8</ele>
        <time>2025-11-11T09:52:53Z</time>
      </trkpt>
      <trkpt lat="45.65774" lon="4.63571">
        <ele>425</ele>
        <time>2025-11-11T09:52:54Z</time>
      </trkpt>
      <trkpt lat="45.65776" lon="4.63572">
        <ele>425.2</ele>
        <time>2025-11-11T09:52:55Z</time>
      </trkpt>
      <trkpt lat="45.65777" lon="4.63573">
        <ele>425.4</ele>
        <time>2025-11-11T09:52:56Z</time>
      </trkpt>
      <trkpt lat="45.6578" lon="4.63574">
        <ele>425.8</ele>
        <time>2025-11-11T09:52:57Z</time>
      </trkpt>
      <trkpt lat="45.65782" lon="4.63575">
        <ele>426.2</ele>
        <time>2025-11-11T09:52:58Z</time>
      </trkpt>
      <trkpt lat="45.65784" lon="4.63575">
        <ele>426.4</ele>
        <time>2025-11-11T09:52:59Z</time>
      </trkpt>
      <trkpt lat="45.65786" lon="4.63576">
        <ele>426.8</ele>
        <time>2025-11-11T09:53:00Z</time>
      </trkpt>
      <trkpt lat="45.65788" lon="4.63576">
        <ele>427</ele>
        <time>2025-11-11T09:53:01Z</time>
      </trkpt>
      <trkpt lat="45.6579" lon="4.63576">
        <ele>427.4</ele>
        <time>2025-11-11T09:53:02Z</time>
      </trkpt>
      <trkpt lat="45.65792" lon="4.63576">
        <ele>427.8</ele>
        <time>2025-11-11T09:53:03Z</time>
      </trkpt>
      <trkpt lat="45.65794" lon="4.63577">
        <ele>428.2</ele>
        <time>2025-11-11T09:53:04Z</time>
      </trkpt>
      <trkpt lat="45.65797" lon="4.63577">
        <ele>428.4</ele>
        <time>2025-11-11T09:53:05Z</time>
      </trkpt>
      <trkpt lat="45.65799" lon="4.63578">
        <ele>428.6</ele>
        <time>2025-11-11T09:53:06Z</time>
      </trkpt>
      <trkpt lat="45.65801" lon="4.63578">
        <ele>429</ele>
        <time>2025-11-11T09:53:07Z</time>
      </trkpt>
      <trkpt lat="45.65804" lon="4.63579">
        <ele>429.4</ele>
        <time>2025-11-11T09:53:08Z</time>
      </trkpt>
      <trkpt lat="45.65806" lon="4.63579">
        <ele>429.6</ele>
        <time>2025-11-11T09:53:09Z</time>
      </trkpt>
      <trkpt lat="45.65808" lon="4.63579">
        <ele>430.2</ele>
        <time>2025-11-11T09:53:10Z</time>
      </trkpt>
      <trkpt lat="45.6581" lon="4.6358">
        <ele>430.6</ele>
        <time>2025-11-11T09:53:11Z</time>
      </trkpt>
      <trkpt lat="45.65812" lon="4.6358">
        <ele>431</ele>
        <time>2025-11-11T09:53:12Z</time>
      </trkpt>
      <trkpt lat="45.65815" lon="4.6358">
        <ele>431.6</ele>
        <time>2025-11-11T09:53:13Z</time>
      </trkpt>
      <trkpt lat="45.65817" lon="4.6358">
        <ele>432</ele>
        <time>2025-11-11T09:53:14Z</time>
      </trkpt>
      <trkpt lat="45.65819" lon="4.63579">
        <ele>432.4</ele>
        <time>2025-11-11T09:53:15Z</time>
      </trkpt>
      <trkpt lat="45.65822" lon="4.63579">
        <ele>432.8</ele>
        <time>2025-11-11T09:53:16Z</time>
      </trkpt>
      <trkpt lat="45.65824" lon="4.63579">
        <ele>433.2</ele>
        <time>2025-11-11T09:53:17Z</time>
      </trkpt>
      <trkpt lat="45.65826" lon="4.63578">
        <ele>433.6</ele>
        <time>2025-11-11T09:53:18Z</time>
      </trkpt>
      <trkpt lat="45.65829" lon="4.63578">
        <ele>434</ele>
        <time>2025-11-11T09:53:19Z</time>
      </trkpt>
      <trkpt lat="45.65831" lon="4.63578">
        <ele>434.4</ele>
        <time>2025-11-11T09:53:20Z</time>
      </trkpt>
      <trkpt lat="45.65833" lon="4.63578">
        <ele>435</ele>
        <time>2025-11-11T09:53:21Z</time>
      </trkpt>
      <trkpt lat="45.65835" lon="4.63578">
        <ele>435.4</ele>
        <time>2025-11-11T09:53:22Z</time>
      </trkpt>
      <trkpt lat="45.65837" lon="4.63578">
        <ele>436</ele>
        <time>2025-11-11T09:53:23Z</time>
      </trkpt>
      <trkpt lat="45.6584" lon="4.63579">
        <ele>436.4</ele>
        <time>2025-11-11T09:53:24Z</time>
      </trkpt>
      <trkpt lat="45.65841" lon="4.6358">
        <ele>436.8</ele>
        <time>2025-11-11T09:53:25Z</time>
      </trkpt>
      <trkpt lat="45.65844" lon="4.6358">
        <ele>437.2</ele>
        <time>2025-11-11T09:53:26Z</time>
      </trkpt>
      <trkpt lat="45.65846" lon="4.63581">
        <ele>437.8</ele>
        <time>2025-11-11T09:53:27Z</time>
      </trkpt>
      <trkpt lat="45.65848" lon="4.63583">
        <ele>438.2</ele>
        <time>2025-11-11T09:53:28Z</time>
      </trkpt>
      <trkpt lat="45.65849" lon="4.63586">
        <ele>438.8</ele>
        <time>2025-11-11T09:53:29Z</time>
      </trkpt>
      <trkpt lat="45.65849" lon="4.6359">
        <ele>439.4</ele>
        <time>2025-11-11T09:53:30Z</time>
      </trkpt>
      <trkpt lat="45.6585" lon="4.63592">
        <ele>439.8</ele>
        <time>2025-11-11T09:53:31Z</time>
      </trkpt>
      <trkpt lat="45.65851" lon="4.63595">
        <ele>440.2</ele>
        <time>2025-11-11T09:53:32Z</time>
      </trkpt>
      <trkpt lat="45.65851" lon="4.63599">
        <ele>440.6</ele>
        <time>2025-11-11T09:53:33Z</time>
      </trkpt>
      <trkpt lat="45.65852" lon="4.63601">
        <ele>441</ele>
        <time>2025-11-11T09:53:34Z</time>
      </trkpt>
      <trkpt lat="45.65853" lon="4.63604">
        <ele>441.4</ele>
        <time>2025-11-11T09:53:35Z</time>
      </trkpt>
      <trkpt lat="45.65854" lon="4.63608">
        <ele>441.8</ele>
        <time>2025-11-11T09:53:36Z</time>
      </trkpt>
      <trkpt lat="45.65855" lon="4.6361">
        <ele>442.2</ele>
        <time>2025-11-11T09:53:37Z</time>
      </trkpt>
      <trkpt lat="45.65855" lon="4.63613">
        <ele>442.6</ele>
        <time>2025-11-11T09:53:38Z</time>
      </trkpt>
      <trkpt lat="45.65856" lon="4.63616">
        <ele>443</ele>
        <time>2025-11-11T09:53:39Z</time>
      </trkpt>
      <trkpt lat="45.65856" lon="4.6362">
        <ele>443.4</ele>
        <time>2025-11-11T09:53:40Z</time>
      </trkpt>
      <trkpt lat="45.65857" lon="4.63623">
        <ele>443.8</ele>
        <time>2025-11-11T09:53:41Z</time>
      </trkpt>
      <trkpt lat="45.65858" lon="4.63626">
        <ele>444.2</ele>
        <time>2025-11-11T09:53:42Z</time>
      </trkpt>
      <trkpt lat="45.6586" lon="4.63628">
        <ele>444.6</ele>
        <time>2025-11-11T09:53:43Z</time>
      </trkpt>
      <trkpt lat="45.65862" lon="4.63629">
        <ele>445.2</ele>
        <time>2025-11-11T09:53:44Z</time>
      </trkpt>
      <trkpt lat="45.65864" lon="4.6363">
        <ele>445.6</ele>
        <time>2025-11-11T09:53:45Z</time>
      </trkpt>
      <trkpt lat="45.65866" lon="4.63629">
        <ele>446</ele>
        <time>2025-11-11T09:53:46Z</time>
      </trkpt>
      <trkpt lat="45.65869" lon="4.63628">
        <ele>446.4</ele>
        <time>2025-11-11T09:53:47Z</time>
      </trkpt>
      <trkpt lat="45.65871" lon="4.63626">
        <ele>446.8</ele>
        <time>2025-11-11T09:53:48Z</time>
      </trkpt>
      <trkpt lat="45.65874" lon="4.63624">
        <ele>447.2</ele>
        <time>2025-11-11T09:53:49Z</time>
      </trkpt>
      <trkpt lat="45.65876" lon="4.63623">
        <ele>447.6</ele>
        <time>2025-11-11T09:53:50Z</time>
      </trkpt>
      <trkpt lat="45.65878" lon="4.63621">
        <ele>448</ele>
        <time>2025-11-11T09:53:51Z</time>
      </trkpt>
      <trkpt lat="45.6588" lon="4.63619">
        <ele>448.2</ele>
        <time>2025-11-11T09:53:52Z</time>
      </trkpt>
      <trkpt lat="45.65882" lon="4.63618">
        <ele>448.6</ele>
        <time>2025-11-11T09:53:53Z</time>
      </trkpt>
      <trkpt lat="45.65884" lon="4.63617">
        <ele>448.8</ele>
        <time>2025-11-11T09:53:54Z</time>
      </trkpt>
      <trkpt lat="45.65886" lon="4.63615">
        <ele>449</ele>
        <time>2025-11-11T09:53:55Z</time>
      </trkpt>
      <trkpt lat="45.65888" lon="4.63615">
        <ele>449.2</ele>
        <time>2025-11-11T09:53:56Z</time>
      </trkpt>
      <trkpt lat="45.6589" lon="4.63614">
        <ele>449.4</ele>
        <time>2025-11-11T09:53:57Z</time>
      </trkpt>
      <trkpt lat="45.65892" lon="4.63613">
        <ele>449.8</ele>
        <time>2025-11-11T09:53:58Z</time>
      </trkpt>
      <trkpt lat="45.65895" lon="4.63611">
        <ele>450</ele>
        <time>2025-11-11T09:53:59Z</time>
      </trkpt>
      <trkpt lat="45.65897" lon="4.63608">
        <ele>450.2</ele>
        <time>2025-11-11T09:54:00Z</time>
      </trkpt>
      <trkpt lat="45.65899" lon="4.63606">
        <ele>450.6</ele>
        <time>2025-11-11T09:54:01Z</time>
      </trkpt>
      <trkpt lat="45.65901" lon="4.63604">
        <ele>450.8</ele>
        <time>2025-11-11T09:54:02Z</time>
      </trkpt>
      <trkpt lat="45.65904" lon="4.63602">
        <ele>451.2</ele>
        <time>2025-11-11T09:54:03Z</time>
      </trkpt>
      <trkpt lat="45.65906" lon="4.636">
        <ele>451.4</ele>
        <time>2025-11-11T09:54:04Z</time>
      </trkpt>
      <trkpt lat="45.65909" lon="4.63597">
        <ele>451.8</ele>
        <time>2025-11-11T09:54:05Z</time>
      </trkpt>
      <trkpt lat="45.6591" lon="4.63596">
        <ele>452</ele>
        <time>2025-11-11T09:54:06Z</time>
      </trkpt>
      <trkpt lat="45.65912" lon="4.63594">
        <ele>452.4</ele>
        <time>2025-11-11T09:54:07Z</time>
      </trkpt>
      <trkpt lat="45.65914" lon="4.63592">
        <ele>452.6</ele>
        <time>2025-11-11T09:54:08Z</time>
      </trkpt>
      <trkpt lat="45.65916" lon="4.63589">
        <ele>453</ele>
        <time>2025-11-11T09:54:09Z</time>
      </trkpt>
      <trkpt lat="45.65918" lon="4.63586">
        <ele>453.2</ele>
        <time>2025-11-11T09:54:10Z</time>
      </trkpt>
      <trkpt lat="45.6592" lon="4.63582">
        <ele>453.6</ele>
        <time>2025-11-11T09:54:11Z</time>
      </trkpt>
      <trkpt lat="45.65921" lon="4.6358">
        <ele>454</ele>
        <time>2025-11-11T09:54:12Z</time>
      </trkpt>
      <trkpt lat="45.65923" lon="4.63577">
        <ele>454.2</ele>
        <time>2025-11-11T09:54:13Z</time>
      </trkpt>
      <trkpt lat="45.65925" lon="4.63575">
        <ele>454.6</ele>
        <time>2025-11-11T09:54:14Z</time>
      </trkpt>
      <trkpt lat="45.65927" lon="4.63571">
        <ele>454.8</ele>
        <time>2025-11-11T09:54:15Z</time>
      </trkpt>
      <trkpt lat="45.65929" lon="4.6357">
        <ele>455.2</ele>
        <time>2025-11-11T09:54:16Z</time>
      </trkpt>
      <trkpt lat="45.65931" lon="4.63567">
        <ele>455.4</ele>
        <time>2025-11-11T09:54:17Z</time>
      </trkpt>
      <trkpt lat="45.65933" lon="4.63565">
        <ele>455.8</ele>
        <time>2025-11-11T09:54:18Z</time>
      </trkpt>
      <trkpt lat="45.65935" lon="4.63562">
        <ele>456</ele>
        <time>2025-11-11T09:54:19Z</time>
      </trkpt>
      <trkpt lat="45.65937" lon="4.6356">
        <ele>456.2</ele>
        <time>2025-11-11T09:54:20Z</time>
      </trkpt>
      <trkpt lat="45.65939" lon="4.63557">
        <ele>456.4</ele>
        <time>2025-11-11T09:54:21Z</time>
      </trkpt>
      <trkpt lat="45.65941" lon="4.63555">
        <ele>456.8</ele>
        <time>2025-11-11T09:54:22Z</time>
      </trkpt>
      <trkpt lat="45.65943" lon="4.63553">
        <ele>457</ele>
        <time>2025-11-11T09:54:23Z</time>
      </trkpt>
      <trkpt lat="45.65946" lon="4.63552">
        <ele>457.4</ele>
        <time>2025-11-11T09:54:24Z</time>
      </trkpt>
      <trkpt lat="45.65948" lon="4.63551">
        <ele>457.6</ele>
        <time>2025-11-11T09:54:25Z</time>
      </trkpt>
      <trkpt lat="45.65951" lon="4.63549">
        <ele>458</ele>
        <time>2025-11-11T09:54:26Z</time>
      </trkpt>
      <trkpt lat="45.65953" lon="4.63547">
        <ele>458.4</ele>
        <time>2025-11-11T09:54:27Z</time>
      </trkpt>
      <trkpt lat="45.65956" lon="4.63546">
        <ele>458.8</ele>
        <time>2025-11-11T09:54:28Z</time>
      </trkpt>
      <trkpt lat="45.65958" lon="4.63544">
        <ele>459.2</ele>
        <time>2025-11-11T09:54:29Z</time>
      </trkpt>
      <trkpt lat="45.65961" lon="4.63542">
        <ele>459.6</ele>
        <time>2025-11-11T09:54:30Z</time>
      </trkpt>
      <trkpt lat="45.65963" lon="4.6354">
        <ele>460.2</ele>
        <time>2025-11-11T09:54:31Z</time>
      </trkpt>
      <trkpt lat="45.65966" lon="4.63538">
        <ele>460.6</ele>
        <time>2025-11-11T09:54:32Z</time>
      </trkpt>
      <trkpt lat="45.65968" lon="4.63536">
        <ele>461</ele>
        <time>2025-11-11T09:54:33Z</time>
      </trkpt>
      <trkpt lat="45.65971" lon="4.63535">
        <ele>461.2</ele>
        <time>2025-11-11T09:54:34Z</time>
      </trkpt>
      <trkpt lat="45.65972" lon="4.63533">
        <ele>461.6</ele>
        <time>2025-11-11T09:54:35Z</time>
      </trkpt>
      <trkpt lat="45.65975" lon="4.63532">
        <ele>462</ele>
        <time>2025-11-11T09:54:36Z</time>
      </trkpt>
      <trkpt lat="45.65977" lon="4.63531">
        <ele>462.2</ele>
        <time>2025-11-11T09:54:37Z</time>
      </trkpt>
      <trkpt lat="45.65979" lon="4.63529">
        <ele>462.6</ele>
        <time>2025-11-11T09:54:38Z</time>
      </trkpt>
      <trkpt lat="45.65981" lon="4.63527">
        <ele>463</ele>
        <time>2025-11-11T09:54:39Z</time>
      </trkpt>
      <trkpt lat="45.65983" lon="4.63524">
        <ele>463.4</ele>
        <time>2025-11-11T09:54:40Z</time>
      </trkpt>
      <trkpt lat="45.65985" lon="4.63522">
        <ele>463.8</ele>
        <time>2025-11-11T09:54:41Z</time>
      </trkpt>
      <trkpt lat="45.65987" lon="4.63521">
        <ele>464.2</ele>
        <time>2025-11-11T09:54:42Z</time>
      </trkpt>
      <trkpt lat="45.6599" lon="4.6352">
        <ele>464.6</ele>
        <time>2025-11-11T09:54:43Z</time>
      </trkpt>
      <trkpt lat="45.65992" lon="4.63518">
        <ele>465.2</ele>
        <time>2025-11-11T09:54:44Z</time>
      </trkpt>
      <trkpt lat="45.65994" lon="4.63515">
        <ele>465.6</ele>
        <time>2025-11-11T09:54:45Z</time>
      </trkpt>
      <trkpt lat="45.65996" lon="4.63513">
        <ele>466</ele>
        <time>2025-11-11T09:54:46Z</time>
      </trkpt>
      <trkpt lat="45.65998" lon="4.63511">
        <ele>466.4</ele>
        <time>2025-11-11T09:54:47Z</time>
      </trkpt>
      <trkpt lat="45.65999" lon="4.63508">
        <ele>466.8</ele>
        <time>2025-11-11T09:54:48Z</time>
      </trkpt>
      <trkpt lat="45.66001" lon="4.63505">
        <ele>467.2</ele>
        <time>2025-11-11T09:54:49Z</time>
      </trkpt>
      <trkpt lat="45.66003" lon="4.63503">
        <ele>467.6</ele>
        <time>2025-11-11T09:54:50Z</time>
      </trkpt>
      <trkpt lat="45.66005" lon="4.63502">
        <ele>468</ele>
        <time>2025-11-11T09:54:51Z</time>
      </trkpt>
      <trkpt lat="45.66007" lon="4.635">
        <ele>468.4</ele>
        <time>2025-11-11T09:54:52Z</time>
      </trkpt>
      <trkpt lat="45.66009" lon="4.63498">
        <ele>469</ele>
        <time>2025-11-11T09:54:53Z</time>
      </trkpt>
      <trkpt lat="45.66011" lon="4.63496">
        <ele>469.4</ele>
        <time>2025-11-11T09:54:54Z</time>
      </trkpt>
      <trkpt lat="45.66013" lon="4.63494">
        <ele>469.8</ele>
        <time>2025-11-11T09:54:55Z</time>
      </trkpt>
      <trkpt lat="45.66015" lon="4.63492">
        <ele>470.4</ele>
        <time>2025-11-11T09:54:56Z</time>
      </trkpt>
      <trkpt lat="45.66017" lon="4.6349">
        <ele>470.8</ele>
        <time>2025-11-11T09:54:57Z</time>
      </trkpt>
      <trkpt lat="45.66019" lon="4.63488">
        <ele>471.2</ele>
        <time>2025-11-11T09:54:58Z</time>
      </trkpt>
      <trkpt lat="45.66022" lon="4.63486">
        <ele>471.8</ele>
        <time>2025-11-11T09:54:59Z</time>
      </trkpt>
      <trkpt lat="45.66023" lon="4.63483">
        <ele>472.2</ele>
        <time>2025-11-11T09:55:00Z</time>
      </trkpt>
      <trkpt lat="45.66025" lon="4.63479">
        <ele>472.6</ele>
        <time>2025-11-11T09:55:01Z</time>
      </trkpt>
      <trkpt lat="45.66026" lon="4.63476">
        <ele>473</ele>
        <time>2025-11-11T09:55:02Z</time>
      </trkpt>
      <trkpt lat="45.66028" lon="4.63472">
        <ele>473.4</ele>
        <time>2025-11-11T09:55:03Z</time>
      </trkpt>
      <trkpt lat="45.66029" lon="4.63469">
        <ele>473.8</ele>
        <time>2025-11-11T09:55:04Z</time>
      </trkpt>
      <trkpt lat="45.6603" lon="4.63466">
        <ele>474.2</ele>
        <time>2025-11-11T09:55:05Z</time>
      </trkpt>
      <trkpt lat="45.66032" lon="4.63463">
        <ele>474.6</ele>
        <time>2025-11-11T09:55:06Z</time>
      </trkpt>
      <trkpt lat="45.66034" lon="4.63461">
        <ele>475</ele>
        <time>2025-11-11T09:55:07Z</time>
      </trkpt>
      <trkpt lat="45.66036" lon="4.6346">
        <ele>475.4</ele>
        <time>2025-11-11T09:55:08Z</time>
      </trkpt>
      <trkpt lat="45.66039" lon="4.63461">
        <ele>475.8</ele>
        <time>2025-11-11T09:55:09Z</time>
      </trkpt>
      <trkpt lat="45.66041" lon="4.63463">
        <ele>476</ele>
        <time>2025-11-11T09:55:10Z</time>
      </trkpt>
      <trkpt lat="45.66044" lon="4.63465">
        <ele>476.2</ele>
        <time>2025-11-11T09:55:11Z</time>
      </trkpt>
      <trkpt lat="45.66046" lon="4.63468">
        <ele>476.6</ele>
        <time>2025-11-11T09:55:12Z</time>
      </trkpt>
      <trkpt lat="45.66049" lon="4.63471">
        <ele>476.8</ele>
        <time>2025-11-11T09:55:13Z</time>
      </trkpt>
      <trkpt lat="45.66051" lon="4.63473">
        <ele>477.2</ele>
        <time>2025-11-11T09:55:14Z</time>
      </trkpt>
      <trkpt lat="45.66053" lon="4.63474">
        <ele>477.4</ele>
        <time>2025-11-11T09:55:15Z</time>
      </trkpt>
      <trkpt lat="45.66057" lon="4.63475">
        <ele>477.8</ele>
        <time>2025-11-11T09:55:16Z</time>
      </trkpt>
      <trkpt lat="45.6606" lon="4.63475">
        <ele>478.2</ele>
        <time>2025-11-11T09:55:17Z</time>
      </trkpt>
      <trkpt lat="45.66062" lon="4.63474">
        <ele>478.6</ele>
        <time>2025-11-11T09:55:18Z</time>
      </trkpt>
      <trkpt lat="45.66065" lon="4.63472">
        <ele>479</ele>
        <time>2025-11-11T09:55:19Z</time>
      </trkpt>
      <trkpt lat="45.66067" lon="4.63469">
        <ele>479.2</ele>
        <time>2025-11-11T09:55:20Z</time>
      </trkpt>
      <trkpt lat="45.66069" lon="4.63465">
        <ele>479.6</ele>
        <time>2025-11-11T09:55:21Z</time>
      </trkpt>
      <trkpt lat="45.66071" lon="4.6346">
        <ele>479.8</ele>
        <time>2025-11-11T09:55:22Z</time>
      </trkpt>
      <trkpt lat="45.66072" lon="4.63455">
        <ele>480.2</ele>
        <time>2025-11-11T09:55:23Z</time>
      </trkpt>
      <trkpt lat="45.66073" lon="4.6345">
        <ele>480.4</ele>
        <time>2025-11-11T09:55:24Z</time>
      </trkpt>
      <trkpt lat="45.66075" lon="4.63444">
        <ele>480.6</ele>
        <time>2025-11-11T09:55:25Z</time>
      </trkpt>
      <trkpt lat="45.66076" lon="4.63439">
        <ele>480.8</ele>
        <time>2025-11-11T09:55:26Z</time>
      </trkpt>
      <trkpt lat="45.66077" lon="4.63436">
        <ele>481.2</ele>
        <time>2025-11-11T09:55:27Z</time>
      </trkpt>
      <trkpt lat="45.66078" lon="4.63431">
        <ele>481.4</ele>
        <time>2025-11-11T09:55:28Z</time>
      </trkpt>
      <trkpt lat="45.6608" lon="4.63427">
        <ele>481.8</ele>
        <time>2025-11-11T09:55:29Z</time>
      </trkpt>
      <trkpt lat="45.66082" lon="4.63422">
        <ele>482</ele>
        <time>2025-11-11T09:55:30Z</time>
      </trkpt>
      <trkpt lat="45.66083" lon="4.63417">
        <ele>482.4</ele>
        <time>2025-11-11T09:55:31Z</time>
      </trkpt>
      <trkpt lat="45.66085" lon="4.63413">
        <ele>482.6</ele>
        <time>2025-11-11T09:55:32Z</time>
      </trkpt>
      <trkpt lat="45.66086" lon="4.63409">
        <ele>483</ele>
        <time>2025-11-11T09:55:33Z</time>
      </trkpt>
      <trkpt lat="45.66087" lon="4.63404">
        <ele>483.2</ele>
        <time>2025-11-11T09:55:34Z</time>
      </trkpt>
      <trkpt lat="45.66088" lon="4.63398">
        <ele>483.4</ele>
        <time>2025-11-11T09:55:35Z</time>
      </trkpt>
      <trkpt lat="45.6609" lon="4.63393">
        <ele>483.8</ele>
        <time>2025-11-11T09:55:36Z</time>
      </trkpt>
      <trkpt lat="45.66091" lon="4.63387">
        <ele>484</ele>
        <time>2025-11-11T09:55:37Z</time>
      </trkpt>
      <trkpt lat="45.66092" lon="4.63382">
        <ele>484.2</ele>
        <time>2025-11-11T09:55:38Z</time>
      </trkpt>
      <trkpt lat="45.66093" lon="4.63376">
        <ele>484.6</ele>
        <time>2025-11-11T09:55:39Z</time>
      </trkpt>
      <trkpt lat="45.66094" lon="4.63371">
        <ele>484.8</ele>
        <time>2025-11-11T09:55:40Z</time>
      </trkpt>
      <trkpt lat="45.66096" lon="4.63365">
        <ele>485</ele>
        <time>2025-11-11T09:55:41Z</time>
      </trkpt>
      <trkpt lat="45.66097" lon="4.63359">
        <ele>485.4</ele>
        <time>2025-11-11T09:55:42Z</time>
      </trkpt>
      <trkpt lat="45.66098" lon="4.63354">
        <ele>485.6</ele>
        <time>2025-11-11T09:55:43Z</time>
      </trkpt>
      <trkpt lat="45.661" lon="4.63348">
        <ele>486</ele>
        <time>2025-11-11T09:55:44Z</time>
      </trkpt>
      <trkpt lat="45.66101" lon="4.63343">
        <ele>486.2</ele>
        <time>2025-11-11T09:55:45Z</time>
      </trkpt>
      <trkpt lat="45.66102" lon="4.63338">
        <ele>486.6</ele>
        <time>2025-11-11T09:55:46Z</time>
      </trkpt>
      <trkpt lat="45.66102" lon="4.63333">
        <ele>486.8</ele>
        <time>2025-11-11T09:55:47Z</time>
      </trkpt>
      <trkpt lat="45.66103" lon="4.63328">
        <ele>487.2</ele>
        <time>2025-11-11T09:55:48Z</time>
      </trkpt>
      <trkpt lat="45.66104" lon="4.63322">
        <ele>487.4</ele>
        <time>2025-11-11T09:55:49Z</time>
      </trkpt>
      <trkpt lat="45.66105" lon="4.63317">
        <ele>487.6</ele>
        <time>2025-11-11T09:55:50Z</time>
      </trkpt>
      <trkpt lat="45.66106" lon="4.63312">
        <ele>487.8</ele>
        <time>2025-11-11T09:55:51Z</time>
      </trkpt>
      <trkpt lat="45.66106" lon="4.63307">
        <ele>488</ele>
        <time>2025-11-11T09:55:52Z</time>
      </trkpt>
      <trkpt lat="45.66105" lon="4.63302">
        <ele>488.2</ele>
        <time>2025-11-11T09:55:53Z</time>
      </trkpt>
      <trkpt lat="45.66105" lon="4.63298">
        <ele>488.6</ele>
        <time>2025-11-11T09:55:54Z</time>
      </trkpt>
      <trkpt lat="45.66105" lon="4.63295">
        <ele>489</ele>
        <time>2025-11-11T09:55:55Z</time>
      </trkpt>
      <trkpt lat="45.66107" lon="4.63294">
        <ele>489.2</ele>
        <time>2025-11-11T09:55:56Z</time>
      </trkpt>
      <trkpt lat="45.66109" lon="4.63296">
        <ele>489.4</ele>
        <time>2025-11-11T09:55:57Z</time>
      </trkpt>
      <trkpt lat="45.66112" lon="4.63297">
        <ele>489.4</ele>
        <time>2025-11-11T09:55:58Z</time>
      </trkpt>
      <trkpt lat="45.66116" lon="4.63297">
        <ele>489.2</ele>
        <time>2025-11-11T09:55:59Z</time>
      </trkpt>
      <trkpt lat="45.66119" lon="4.63296">
        <ele>489</ele>
        <time>2025-11-11T09:56:00Z</time>
      </trkpt>
      <trkpt lat="45.66124" lon="4.63294">
        <ele>488.6</ele>
        <time>2025-11-11T09:56:01Z</time>
      </trkpt>
      <trkpt lat="45.66128" lon="4.63291">
        <ele>488.2</ele>
        <time>2025-11-11T09:56:02Z</time>
      </trkpt>
      <trkpt lat="45.66132" lon="4.63289">
        <ele>487.8</ele>
        <time>2025-11-11T09:56:03Z</time>
      </trkpt>
      <trkpt lat="45.66135" lon="4.63286">
        <ele>487.6</ele>
        <time>2025-11-11T09:56:04Z</time>
      </trkpt>
      <trkpt lat="45.66139" lon="4.63285">
        <ele>487.4</ele>
        <time>2025-11-11T09:56:05Z</time>
      </trkpt>
      <trkpt lat="45.66143" lon="4.63284">
        <ele>487.2</ele>
        <time>2025-11-11T09:56:06Z</time>
      </trkpt>
      <trkpt lat="45.66147" lon="4.63282">
        <ele>486.8</ele>
        <time>2025-11-11T09:56:07Z</time>
      </trkpt>
      <trkpt lat="45.66152" lon="4.6328">
        <ele>486.2</ele>
        <time>2025-11-11T09:56:08Z</time>
      </trkpt>
      <trkpt lat="45.66156" lon="4.63278">
        <ele>485.4</ele>
        <time>2025-11-11T09:56:09Z</time>
      </trkpt>
      <trkpt lat="45.66162" lon="4.63277">
        <ele>484.6</ele>
        <time>2025-11-11T09:56:10Z</time>
      </trkpt>
      <trkpt lat="45.66168" lon="4.63276">
        <ele>483.4</ele>
        <time>2025-11-11T09:56:11Z</time>
      </trkpt>
      <trkpt lat="45.66173" lon="4.63275">
        <ele>482.2</ele>
        <time>2025-11-11T09:56:12Z</time>
      </trkpt>
      <trkpt lat="45.66179" lon="4.63273">
        <ele>481</ele>
        <time>2025-11-11T09:56:13Z</time>
      </trkpt>
      <trkpt lat="45.66185" lon="4.6327">
        <ele>479.6</ele>
        <time>2025-11-11T09:56:14Z</time>
      </trkpt>
      <trkpt lat="45.66191" lon="4.63268">
        <ele>478.4</ele>
        <time>2025-11-11T09:56:15Z</time>
      </trkpt>
      <trkpt lat="45.66197" lon="4.63266">
        <ele>477</ele>
        <time>2025-11-11T09:56:16Z</time>
      </trkpt>
      <trkpt lat="45.66203" lon="4.63263">
        <ele>475.6</ele>
        <time>2025-11-11T09:56:17Z</time>
      </trkpt>
      <trkpt lat="45.66209" lon="4.63261">
        <ele>474.2</ele>
        <time>2025-11-11T09:56:18Z</time>
      </trkpt>
      <trkpt lat="45.66215" lon="4.63258">
        <ele>472.8</ele>
        <time>2025-11-11T09:56:19Z</time>
      </trkpt>
      <trkpt lat="45.6622" lon="4.63257">
        <ele>471.4</ele>
        <time>2025-11-11T09:56:20Z</time>
      </trkpt>
      <trkpt lat="45.66225" lon="4.63255">
        <ele>470.4</ele>
        <time>2025-11-11T09:56:21Z</time>
      </trkpt>
      <trkpt lat="45.66228" lon="4.63252">
        <ele>469.2</ele>
        <time>2025-11-11T09:56:22Z</time>
      </trkpt>
      <trkpt lat="45.66231" lon="4.63248">
        <ele>468.2</ele>
        <time>2025-11-11T09:56:23Z</time>
      </trkpt>
      <trkpt lat="45.66235" lon="4.63244">
        <ele>467.4</ele>
        <time>2025-11-11T09:56:24Z</time>
      </trkpt>
      <trkpt lat="45.66239" lon="4.6324">
        <ele>466.4</ele>
        <time>2025-11-11T09:56:25Z</time>
      </trkpt>
      <trkpt lat="45.66244" lon="4.63237">
        <ele>465.2</ele>
        <time>2025-11-11T09:56:26Z</time>
      </trkpt>
      <trkpt lat="45.66248" lon="4.63234">
        <ele>464.2</ele>
        <time>2025-11-11T09:56:27Z</time>
      </trkpt>
      <trkpt lat="45.66251" lon="4.63232">
        <ele>463.4</ele>
        <time>2025-11-11T09:56:28Z</time>
      </trkpt>
      <trkpt lat="45.66253" lon="4.63229">
        <ele>462.6</ele>
        <time>2025-11-11T09:56:29Z</time>
      </trkpt>
      <trkpt lat="45.66256" lon="4.63226">
        <ele>462</ele>
        <time>2025-11-11T09:56:30Z</time>
      </trkpt>
      <trkpt lat="45.66259" lon="4.63224">
        <ele>461.4</ele>
        <time>2025-11-11T09:56:31Z</time>
      </trkpt>
      <trkpt lat="45.66263" lon="4.63222">
        <ele>460.6</ele>
        <time>2025-11-11T09:56:32Z</time>
      </trkpt>
      <trkpt lat="45.66267" lon="4.63219">
        <ele>459.6</ele>
        <time>2025-11-11T09:56:33Z</time>
      </trkpt>
      <trkpt lat="45.66271" lon="4.63215">
        <ele>458.8</ele>
        <time>2025-11-11T09:56:34Z</time>
      </trkpt>
      <trkpt lat="45.66275" lon="4.63212">
        <ele>458</ele>
        <time>2025-11-11T09:56:35Z</time>
      </trkpt>
      <trkpt lat="45.66278" lon="4.63209">
        <ele>457.2</ele>
        <time>2025-11-11T09:56:36Z</time>
      </trkpt>
      <trkpt lat="45.66282" lon="4.63206">
        <ele>456.2</ele>
        <time>2025-11-11T09:56:37Z</time>
      </trkpt>
      <trkpt lat="45.66285" lon="4.63202">
        <ele>455.6</ele>
        <time>2025-11-11T09:56:38Z</time>
      </trkpt>
      <trkpt lat="45.66289" lon="4.63199">
        <ele>454.8</ele>
        <time>2025-11-11T09:56:39Z</time>
      </trkpt>
      <trkpt lat="45.66292" lon="4.63195">
        <ele>453.8</ele>
        <time>2025-11-11T09:56:40Z</time>
      </trkpt>
      <trkpt lat="45.66296" lon="4.63191">
        <ele>453</ele>
        <time>2025-11-11T09:56:41Z</time>
      </trkpt>
      <trkpt lat="45.663" lon="4.63187">
        <ele>452.2</ele>
        <time>2025-11-11T09:56:42Z</time>
      </trkpt>
      <trkpt lat="45.66304" lon="4.63184">
        <ele>451.2</ele>
        <time>2025-11-11T09:56:43Z</time>
      </trkpt>
      <trkpt lat="45.66307" lon="4.6318">
        <ele>450.4</ele>
        <time>2025-11-11T09:56:44Z</time>
      </trkpt>
      <trkpt lat="45.6631" lon="4.63177">
        <ele>449.6</ele>
        <time>2025-11-11T09:56:45Z</time>
      </trkpt>
      <trkpt lat="45.66312" lon="4.63175">
        <ele>448.8</ele>
        <time>2025-11-11T09:56:46Z</time>
      </trkpt>
      <trkpt lat="45.66315" lon="4.63173">
        <ele>448</ele>
        <time>2025-11-11T09:56:47Z</time>
      </trkpt>
      <trkpt lat="45.66318" lon="4.63169">
        <ele>447.4</ele>
        <time>2025-11-11T09:56:48Z</time>
      </trkpt>
      <trkpt lat="45.66322" lon="4.63165">
        <ele>446.6</ele>
        <time>2025-11-11T09:56:49Z</time>
      </trkpt>
      <trkpt lat="45.66326" lon="4.6316">
        <ele>445.6</ele>
        <time>2025-11-11T09:56:50Z</time>
      </trkpt>
      <trkpt lat="45.6633" lon="4.63158">
        <ele>444.6</ele>
        <time>2025-11-11T09:56:51Z</time>
      </trkpt>
      <trkpt lat="45.66334" lon="4.6316">
        <ele>443.8</ele>
        <time>2025-11-11T09:56:52Z</time>
      </trkpt>
      <trkpt lat="45.66338" lon="4.63163">
        <ele>442.8</ele>
        <time>2025-11-11T09:56:53Z</time>
      </trkpt>
      <trkpt lat="45.66341" lon="4.63169">
        <ele>442</ele>
        <time>2025-11-11T09:56:54Z</time>
      </trkpt>
      <trkpt lat="45.66345" lon="4.63176">
        <ele>441</ele>
        <time>2025-11-11T09:56:55Z</time>
      </trkpt>
      <trkpt lat="45.66348" lon="4.63185">
        <ele>439.8</ele>
        <time>2025-11-11T09:56:56Z</time>
      </trkpt>
      <trkpt lat="45.6635" lon="4.63193">
        <ele>438.8</ele>
        <time>2025-11-11T09:56:57Z</time>
      </trkpt>
      <trkpt lat="45.66353" lon="4.63201">
        <ele>437.8</ele>
        <time>2025-11-11T09:56:58Z</time>
      </trkpt>
      <trkpt lat="45.66354" lon="4.63208">
        <ele>436.6</ele>
        <time>2025-11-11T09:56:59Z</time>
      </trkpt>
      <trkpt lat="45.66355" lon="4.63215">
        <ele>435.6</ele>
        <time>2025-11-11T09:57:00Z</time>
      </trkpt>
      <trkpt lat="45.66356" lon="4.6322">
        <ele>435</ele>
        <time>2025-11-11T09:57:01Z</time>
      </trkpt>
      <trkpt lat="45.66358" lon="4.63222">
        <ele>434.2</ele>
        <time>2025-11-11T09:57:02Z</time>
      </trkpt>
      <trkpt lat="45.66359" lon="4.63223">
        <ele>433.8</ele>
        <time>2025-11-11T09:57:03Z</time>
      </trkpt>
      <trkpt lat="45.66359" lon="4.63222">
        <ele>433.6</ele>
        <time>2025-11-11T09:57:04Z</time>
      </trkpt>
      <trkpt lat="45.6636" lon="4.6322">
        <ele>433.4</ele>
        <time>2025-11-11T09:57:05Z</time>
      </trkpt>
      <trkpt lat="45.6636" lon="4.63218">
        <ele>433.2</ele>
        <time>2025-11-11T09:57:06Z</time>
      </trkpt>
      <trkpt lat="45.6636" lon="4.63214">
        <ele>433</ele>
        <time>2025-11-11T09:57:07Z</time>
      </trkpt>
      <trkpt lat="45.66361" lon="4.63208">
        <ele>432.6</ele>
        <time>2025-11-11T09:57:08Z</time>
      </trkpt>
      <trkpt lat="45.66363" lon="4.63202">
        <ele>432.4</ele>
        <time>2025-11-11T09:57:09Z</time>
      </trkpt>
      <trkpt lat="45.66365" lon="4.63196">
        <ele>432</ele>
        <time>2025-11-11T09:57:10Z</time>
      </trkpt>
      <trkpt lat="45.66368" lon="4.63191">
        <ele>431.6</ele>
        <time>2025-11-11T09:57:11Z</time>
      </trkpt>
      <trkpt lat="45.66373" lon="4.63187">
        <ele>431.4</ele>
        <time>2025-11-11T09:57:12Z</time>
      </trkpt>
      <trkpt lat="45.66377" lon="4.63183">
        <ele>431.2</ele>
        <time>2025-11-11T09:57:13Z</time>
      </trkpt>
      <trkpt lat="45.66381" lon="4.6318">
        <ele>431.2</ele>
        <time>2025-11-11T09:57:14Z</time>
      </trkpt>
      <trkpt lat="45.66385" lon="4.63176">
        <ele>431.4</ele>
        <time>2025-11-11T09:57:15Z</time>
      </trkpt>
      <trkpt lat="45.66389" lon="4.63172">
        <ele>431.8</ele>
        <time>2025-11-11T09:57:16Z</time>
      </trkpt>
      <trkpt lat="45.66393" lon="4.63168">
        <ele>432.2</ele>
        <time>2025-11-11T09:57:17Z</time>
      </trkpt>
      <trkpt lat="45.66396" lon="4.63164">
        <ele>432.8</ele>
        <time>2025-11-11T09:57:18Z</time>
      </trkpt>
      <trkpt lat="45.664" lon="4.63162">
        <ele>433.4</ele>
        <time>2025-11-11T09:57:19Z</time>
      </trkpt>
      <trkpt lat="45.66404" lon="4.63163">
        <ele>434</ele>
        <time>2025-11-11T09:57:20Z</time>
      </trkpt>
      <trkpt lat="45.66407" lon="4.63166">
        <ele>434.8</ele>
        <time>2025-11-11T09:57:21Z</time>
      </trkpt>
      <trkpt lat="45.6641" lon="4.63172">
        <ele>435.4</ele>
        <time>2025-11-11T09:57:22Z</time>
      </trkpt>
      <trkpt lat="45.66413" lon="4.63176">
        <ele>436</ele>
        <time>2025-11-11T09:57:23Z</time>
      </trkpt>
      <trkpt lat="45.66417" lon="4.6318">
        <ele>436.4</ele>
        <time>2025-11-11T09:57:24Z</time>
      </trkpt>
      <trkpt lat="45.6642" lon="4.63181">
        <ele>437</ele>
        <time>2025-11-11T09:57:25Z</time>
      </trkpt>
      <trkpt lat="45.66424" lon="4.63181">
        <ele>437.6</ele>
        <time>2025-11-11T09:57:26Z</time>
      </trkpt>
      <trkpt lat="45.66426" lon="4.63178">
        <ele>438.2</ele>
        <time>2025-11-11T09:57:27Z</time>
      </trkpt>
      <trkpt lat="45.66429" lon="4.63174">
        <ele>438.8</ele>
        <time>2025-11-11T09:57:28Z</time>
      </trkpt>
      <trkpt lat="45.66431" lon="4.63171">
        <ele>439.4</ele>
        <time>2025-11-11T09:57:29Z</time>
      </trkpt>
      <trkpt lat="45.66432" lon="4.63167">
        <ele>440</ele>
        <time>2025-11-11T09:57:30Z</time>
      </trkpt>
      <trkpt lat="45.66434" lon="4.63164">
        <ele>440.4</ele>
        <time>2025-11-11T09:57:31Z</time>
      </trkpt>
      <trkpt lat="45.66436" lon="4.63161">
        <ele>440.8</ele>
        <time>2025-11-11T09:57:32Z</time>
      </trkpt>
      <trkpt lat="45.66438" lon="4.63159">
        <ele>441.2</ele>
        <time>2025-11-11T09:57:33Z</time>
      </trkpt>
      <trkpt lat="45.6644" lon="4.63158">
        <ele>441.6</ele>
        <time>2025-11-11T09:57:34Z</time>
      </trkpt>
      <trkpt lat="45.66442" lon="4.63157">
        <ele>441.8</ele>
        <time>2025-11-11T09:57:35Z</time>
      </trkpt>
      <trkpt lat="45.66444" lon="4.63157">
        <ele>442.2</ele>
        <time>2025-11-11T09:57:36Z</time>
      </trkpt>
      <trkpt lat="45.66445" lon="4.63156">
        <ele>442.6</ele>
        <time>2025-11-11T09:57:37Z</time>
      </trkpt>
      <trkpt lat="45.66447" lon="4.63156">
        <ele>443</ele>
        <time>2025-11-11T09:57:38Z</time>
      </trkpt>
      <trkpt lat="45.66449" lon="4.63156">
        <ele>443.2</ele>
        <time>2025-11-11T09:57:39Z</time>
      </trkpt>
      <trkpt lat="45.66451" lon="4.63155">
        <ele>443.6</ele>
        <time>2025-11-11T09:57:40Z</time>
      </trkpt>
      <trkpt lat="45.66454" lon="4.63154">
        <ele>444</ele>
        <time>2025-11-11T09:57:41Z</time>
      </trkpt>
      <trkpt lat="45.66457" lon="4.63154">
        <ele>444.4</ele>
        <time>2025-11-11T09:57:42Z</time>
      </trkpt>
      <trkpt lat="45.66459" lon="4.63154">
        <ele>444.6</ele>
        <time>2025-11-11T09:57:43Z</time>
      </trkpt>
      <trkpt lat="45.66462" lon="4.63154">
        <ele>445</ele>
        <time>2025-11-11T09:57:44Z</time>
      </trkpt>
      <trkpt lat="45.66465" lon="4.63154">
        <ele>445.4</ele>
        <time>2025-11-11T09:57:45Z</time>
      </trkpt>
      <trkpt lat="45.66467" lon="4.63155">
        <ele>445.6</ele>
        <time>2025-11-11T09:57:46Z</time>
      </trkpt>
      <trkpt lat="45.6647" lon="4.63155">
        <ele>446</ele>
        <time>2025-11-11T09:57:47Z</time>
      </trkpt>
      <trkpt lat="45.66473" lon="4.63155">
        <ele>446.2</ele>
        <time>2025-11-11T09:57:48Z</time>
      </trkpt>
      <trkpt lat="45.66476" lon="4.63154">
        <ele>446.4</ele>
        <time>2025-11-11T09:57:49Z</time>
      </trkpt>
      <trkpt lat="45.66478" lon="4.63154">
        <ele>446.4</ele>
        <time>2025-11-11T09:57:50Z</time>
      </trkpt>
      <trkpt lat="45.66481" lon="4.63154">
        <ele>446.6</ele>
        <time>2025-11-11T09:57:51Z</time>
      </trkpt>
      <trkpt lat="45.66484" lon="4.63155">
        <ele>446.8</ele>
        <time>2025-11-11T09:57:52Z</time>
      </trkpt>
      <trkpt lat="45.66487" lon="4.63156">
        <ele>447</ele>
        <time>2025-11-11T09:57:53Z</time>
      </trkpt>
      <trkpt lat="45.66489" lon="4.63156">
        <ele>447</ele>
        <time>2025-11-11T09:57:54Z</time>
      </trkpt>
      <trkpt lat="45.66492" lon="4.63156">
        <ele>447.2</ele>
        <time>2025-11-11T09:57:55Z</time>
      </trkpt>
      <trkpt lat="45.66495" lon="4.63157">
        <ele>447.2</ele>
        <time>2025-11-11T09:57:56Z</time>
      </trkpt>
      <trkpt lat="45.66497" lon="4.63157">
        <ele>447.4</ele>
        <time>2025-11-11T09:57:57Z</time>
      </trkpt>
      <trkpt lat="45.665" lon="4.63157">
        <ele>447.6</ele>
        <time>2025-11-11T09:57:58Z</time>
      </trkpt>
      <trkpt lat="45.66503" lon="4.63158">
        <ele>447.8</ele>
        <time>2025-11-11T09:57:59Z</time>
      </trkpt>
      <trkpt lat="45.66506" lon="4.63158">
        <ele>448</ele>
        <time>2025-11-11T09:58:00Z</time>
      </trkpt>
      <trkpt lat="45.66508" lon="4.63159">
        <ele>448.2</ele>
        <time>2025-11-11T09:58:01Z</time>
      </trkpt>
      <trkpt lat="45.66511" lon="4.6316">
        <ele>448.4</ele>
        <time>2025-11-11T09:58:02Z</time>
      </trkpt>
      <trkpt lat="45.66515" lon="4.6316">
        <ele>448.6</ele>
        <time>2025-11-11T09:58:03Z</time>
      </trkpt>
      <trkpt lat="45.66518" lon="4.63161">
        <ele>448.8</ele>
        <time>2025-11-11T09:58:04Z</time>
      </trkpt>
      <trkpt lat="45.66521" lon="4.63161">
        <ele>449</ele>
        <time>2025-11-11T09:58:05Z</time>
      </trkpt>
      <trkpt lat="45.66524" lon="4.63161">
        <ele>449.2</ele>
        <time>2025-11-11T09:58:06Z</time>
      </trkpt>
      <trkpt lat="45.66527" lon="4.63161">
        <ele>449.6</ele>
        <time>2025-11-11T09:58:07Z</time>
      </trkpt>
      <trkpt lat="45.6653" lon="4.6316">
        <ele>449.8</ele>
        <time>2025-11-11T09:58:08Z</time>
      </trkpt>
      <trkpt lat="45.66533" lon="4.6316">
        <ele>450</ele>
        <time>2025-11-11T09:58:09Z</time>
      </trkpt>
      <trkpt lat="45.66536" lon="4.6316">
        <ele>450</ele>
        <time>2025-11-11T09:58:10Z</time>
      </trkpt>
      <trkpt lat="45.66539" lon="4.6316">
        <ele>450.2</ele>
        <time>2025-11-11T09:58:11Z</time>
      </trkpt>
      <trkpt lat="45.66542" lon="4.63159">
        <ele>450.2</ele>
        <time>2025-11-11T09:58:12Z</time>
      </trkpt>
      <trkpt lat="45.66545" lon="4.63157">
        <ele>450.4</ele>
        <time>2025-11-11T09:58:13Z</time>
      </trkpt>
      <trkpt lat="45.66548" lon="4.63156">
        <ele>450.6</ele>
        <time>2025-11-11T09:58:14Z</time>
      </trkpt>
      <trkpt lat="45.6655" lon="4.63154">
        <ele>450.8</ele>
        <time>2025-11-11T09:58:15Z</time>
      </trkpt>
      <trkpt lat="45.66553" lon="4.63152">
        <ele>451</ele>
        <time>2025-11-11T09:58:16Z</time>
      </trkpt>
      <trkpt lat="45.66556" lon="4.63151">
        <ele>451.2</ele>
        <time>2025-11-11T09:58:17Z</time>
      </trkpt>
      <trkpt lat="45.66559" lon="4.6315">
        <ele>451.4</ele>
        <time>2025-11-11T09:58:18Z</time>
      </trkpt>
      <trkpt lat="45.66562" lon="4.63149">
        <ele>451.8</ele>
        <time>2025-11-11T09:58:19Z</time>
      </trkpt>
      <trkpt lat="45.66565" lon="4.63148">
        <ele>451.8</ele>
        <time>2025-11-11T09:58:20Z</time>
      </trkpt>
      <trkpt lat="45.66568" lon="4.63147">
        <ele>452</ele>
        <time>2025-11-11T09:58:21Z</time>
      </trkpt>
      <trkpt lat="45.66571" lon="4.63146">
        <ele>452.2</ele>
        <time>2025-11-11T09:58:22Z</time>
      </trkpt>
      <trkpt lat="45.66574" lon="4.63145">
        <ele>452.4</ele>
        <time>2025-11-11T09:58:23Z</time>
      </trkpt>
      <trkpt lat="45.66577" lon="4.63144">
        <ele>452.6</ele>
        <time>2025-11-11T09:58:24Z</time>
      </trkpt>
      <trkpt lat="45.6658" lon="4.63143">
        <ele>452.8</ele>
        <time>2025-11-11T09:58:25Z</time>
      </trkpt>
      <trkpt lat="45.66583" lon="4.63142">
        <ele>453.2</ele>
        <time>2025-11-11T09:58:26Z</time>
      </trkpt>
      <trkpt lat="45.66586" lon="4.63141">
        <ele>453.4</ele>
        <time>2025-11-11T09:58:27Z</time>
      </trkpt>
      <trkpt lat="45.66589" lon="4.6314">
        <ele>453.6</ele>
        <time>2025-11-11T09:58:28Z</time>
      </trkpt>
      <trkpt lat="45.66592" lon="4.63139">
        <ele>453.8</ele>
        <time>2025-11-11T09:58:29Z</time>
      </trkpt>
      <trkpt lat="45.66595" lon="4.63138">
        <ele>454.2</ele>
        <time>2025-11-11T09:58:30Z</time>
      </trkpt>
      <trkpt lat="45.66598" lon="4.63137">
        <ele>454.4</ele>
        <time>2025-11-11T09:58:31Z</time>
      </trkpt>
      <trkpt lat="45.66601" lon="4.63136">
        <ele>454.8</ele>
        <time>2025-11-11T09:58:32Z</time>
      </trkpt>
      <trkpt lat="45.66603" lon="4.63134">
        <ele>455.2</ele>
        <time>2025-11-11T09:58:33Z</time>
      </trkpt>
      <trkpt lat="45.66606" lon="4.63132">
        <ele>455.6</ele>
        <time>2025-11-11T09:58:34Z</time>
      </trkpt>
      <trkpt lat="45.66608" lon="4.63131">
        <ele>456</ele>
        <time>2025-11-11T09:58:35Z</time>
      </trkpt>
      <trkpt lat="45.66611" lon="4.6313">
        <ele>456.6</ele>
        <time>2025-11-11T09:58:36Z</time>
      </trkpt>
      <trkpt lat="45.66614" lon="4.63129">
        <ele>457</ele>
        <time>2025-11-11T09:58:37Z</time>
      </trkpt>
      <trkpt lat="45.66616" lon="4.63128">
        <ele>457.4</ele>
        <time>2025-11-11T09:58:38Z</time>
      </trkpt>
      <trkpt lat="45.66619" lon="4.63127">
        <ele>457.6</ele>
        <time>2025-11-11T09:58:39Z</time>
      </trkpt>
      <trkpt lat="45.66622" lon="4.63126">
        <ele>458</ele>
        <time>2025-11-11T09:58:40Z</time>
      </trkpt>
      <trkpt lat="45.66625" lon="4.63126">
        <ele>458.4</ele>
        <time>2025-11-11T09:58:41Z</time>
      </trkpt>
      <trkpt lat="45.66628" lon="4.63125">
        <ele>458.6</ele>
        <time>2025-11-11T09:58:42Z</time>
      </trkpt>
      <trkpt lat="45.6663" lon="4.63123">
        <ele>458.8</ele>
        <time>2025-11-11T09:58:43Z</time>
      </trkpt>
      <trkpt lat="45.66633" lon="4.63121">
        <ele>459.2</ele>
        <time>2025-11-11T09:58:44Z</time>
      </trkpt>
      <trkpt lat="45.66636" lon="4.63119">
        <ele>459.4</ele>
        <time>2025-11-11T09:58:45Z</time>
      </trkpt>
      <trkpt lat="45.66639" lon="4.63117">
        <ele>459.6</ele>
        <time>2025-11-11T09:58:46Z</time>
      </trkpt>
      <trkpt lat="45.66642" lon="4.63115">
        <ele>460</ele>
        <time>2025-11-11T09:58:47Z</time>
      </trkpt>
      <trkpt lat="45.66645" lon="4.63113">
        <ele>460.2</ele>
        <time>2025-11-11T09:58:48Z</time>
      </trkpt>
      <trkpt lat="45.66648" lon="4.6311">
        <ele>460.4</ele>
        <time>2025-11-11T09:58:49Z</time>
      </trkpt>
      <trkpt lat="45.66651" lon="4.63109">
        <ele>460.6</ele>
        <time>2025-11-11T09:58:50Z</time>
      </trkpt>
      <trkpt lat="45.66654" lon="4.63107">
        <ele>460.8</ele>
        <time>2025-11-11T09:58:51Z</time>
      </trkpt>
      <trkpt lat="45.66657" lon="4.63105">
        <ele>461</ele>
        <time>2025-11-11T09:58:52Z</time>
      </trkpt>
      <trkpt lat="45.66659" lon="4.63104">
        <ele>461.2</ele>
        <time>2025-11-11T09:58:53Z</time>
      </trkpt>
      <trkpt lat="45.66662" lon="4.63103">
        <ele>461.4</ele>
        <time>2025-11-11T09:58:54Z</time>
      </trkpt>
      <trkpt lat="45.66665" lon="4.63101">
        <ele>461.8</ele>
        <time>2025-11-11T09:58:55Z</time>
      </trkpt>
      <trkpt lat="45.66667" lon="4.63101">
        <ele>462.2</ele>
        <time>2025-11-11T09:58:56Z</time>
      </trkpt>
      <trkpt lat="45.66671" lon="4.631">
        <ele>462.4</ele>
        <time>2025-11-11T09:58:57Z</time>
      </trkpt>
      <trkpt lat="45.66674" lon="4.63099">
        <ele>462.8</ele>
        <time>2025-11-11T09:58:58Z</time>
      </trkpt>
      <trkpt lat="45.66677" lon="4.63099">
        <ele>463.2</ele>
        <time>2025-11-11T09:58:59Z</time>
      </trkpt>
      <trkpt lat="45.6668" lon="4.63099">
        <ele>463.4</ele>
        <time>2025-11-11T09:59:00Z</time>
      </trkpt>
      <trkpt lat="45.66683" lon="4.63099">
        <ele>463.8</ele>
        <time>2025-11-11T09:59:01Z</time>
      </trkpt>
      <trkpt lat="45.66685" lon="4.631">
        <ele>464.4</ele>
        <time>2025-11-11T09:59:02Z</time>
      </trkpt>
      <trkpt lat="45.66688" lon="4.631">
        <ele>464.8</ele>
        <time>2025-11-11T09:59:03Z</time>
      </trkpt>
      <trkpt lat="45.66691" lon="4.631">
        <ele>465.2</ele>
        <time>2025-11-11T09:59:04Z</time>
      </trkpt>
      <trkpt lat="45.66693" lon="4.631">
        <ele>465.8</ele>
        <time>2025-11-11T09:59:05Z</time>
      </trkpt>
      <trkpt lat="45.66696" lon="4.631">
        <ele>466.2</ele>
        <time>2025-11-11T09:59:06Z</time>
      </trkpt>
      <trkpt lat="45.66698" lon="4.631">
        <ele>466.6</ele>
        <time>2025-11-11T09:59:07Z</time>
      </trkpt>
      <trkpt lat="45.66701" lon="4.63101">
        <ele>467</ele>
        <time>2025-11-11T09:59:08Z</time>
      </trkpt>
      <trkpt lat="45.66704" lon="4.63102">
        <ele>467.2</ele>
        <time>2025-11-11T09:59:09Z</time>
      </trkpt>
      <trkpt lat="45.66706" lon="4.63103">
        <ele>467.6</ele>
        <time>2025-11-11T09:59:10Z</time>
      </trkpt>
      <trkpt lat="45.66709" lon="4.63104">
        <ele>468</ele>
        <time>2025-11-11T09:59:11Z</time>
      </trkpt>
      <trkpt lat="45.66712" lon="4.63104">
        <ele>468.2</ele>
        <time>2025-11-11T09:59:12Z</time>
      </trkpt>
      <trkpt lat="45.66715" lon="4.63103">
        <ele>468.6</ele>
        <time>2025-11-11T09:59:13Z</time>
      </trkpt>
      <trkpt lat="45.66718" lon="4.63102">
        <ele>469</ele>
        <time>2025-11-11T09:59:14Z</time>
      </trkpt>
      <trkpt lat="45.66721" lon="4.63101">
        <ele>469.2</ele>
        <time>2025-11-11T09:59:15Z</time>
      </trkpt>
      <trkpt lat="45.66723" lon="4.63099">
        <ele>469.6</ele>
        <time>2025-11-11T09:59:16Z</time>
      </trkpt>
      <trkpt lat="45.66726" lon="4.63097">
        <ele>469.8</ele>
        <time>2025-11-11T09:59:17Z</time>
      </trkpt>
      <trkpt lat="45.66729" lon="4.63096">
        <ele>470.2</ele>
        <time>2025-11-11T09:59:18Z</time>
      </trkpt>
      <trkpt lat="45.66731" lon="4.63093">
        <ele>470.6</ele>
        <time>2025-11-11T09:59:19Z</time>
      </trkpt>
      <trkpt lat="45.66734" lon="4.63091">
        <ele>470.8</ele>
        <time>2025-11-11T09:59:20Z</time>
      </trkpt>
      <trkpt lat="45.66738" lon="4.63089">
        <ele>471</ele>
        <time>2025-11-11T09:59:21Z</time>
      </trkpt>
      <trkpt lat="45.6674" lon="4.63087">
        <ele>471.2</ele>
        <time>2025-11-11T09:59:22Z</time>
      </trkpt>
      <trkpt lat="45.66744" lon="4.63085">
        <ele>471.4</ele>
        <time>2025-11-11T09:59:23Z</time>
      </trkpt>
      <trkpt lat="45.66746" lon="4.63083">
        <ele>471.6</ele>
        <time>2025-11-11T09:59:24Z</time>
      </trkpt>
      <trkpt lat="45.66749" lon="4.6308">
        <ele>471.8</ele>
        <time>2025-11-11T09:59:25Z</time>
      </trkpt>
      <trkpt lat="45.66752" lon="4.63078">
        <ele>472.2</ele>
        <time>2025-11-11T09:59:26Z</time>
      </trkpt>
      <trkpt lat="45.66754" lon="4.63077">
        <ele>472.4</ele>
        <time>2025-11-11T09:59:27Z</time>
      </trkpt>
      <trkpt lat="45.66757" lon="4.63076">
        <ele>472.6</ele>
        <time>2025-11-11T09:59:28Z</time>
      </trkpt>
      <trkpt lat="45.6676" lon="4.63074">
        <ele>473</ele>
        <time>2025-11-11T09:59:29Z</time>
      </trkpt>
      <trkpt lat="45.66763" lon="4.63073">
        <ele>473.2</ele>
        <time>2025-11-11T09:59:30Z</time>
      </trkpt>
      <trkpt lat="45.66765" lon="4.63073">
        <ele>473.6</ele>
        <time>2025-11-11T09:59:31Z</time>
      </trkpt>
      <trkpt lat="45.66768" lon="4.63071">
        <ele>473.8</ele>
        <time>2025-11-11T09:59:32Z</time>
      </trkpt>
      <trkpt lat="45.66771" lon="4.6307">
        <ele>474</ele>
        <time>2025-11-11T09:59:33Z</time>
      </trkpt>
      <trkpt lat="45.66774" lon="4.6307">
        <ele>474.4</ele>
        <time>2025-11-11T09:59:34Z</time>
      </trkpt>
      <trkpt lat="45.66778" lon="4.63069">
        <ele>474.4</ele>
        <time>2025-11-11T09:59:35Z</time>
      </trkpt>
      <trkpt lat="45.66781" lon="4.63069">
        <ele>474.6</ele>
        <time>2025-11-11T09:59:36Z</time>
      </trkpt>
      <trkpt lat="45.66785" lon="4.63068">
        <ele>474.6</ele>
        <time>2025-11-11T09:59:37Z</time>
      </trkpt>
      <trkpt lat="45.66789" lon="4.63068">
        <ele>474.6</ele>
        <time>2025-11-11T09:59:38Z</time>
      </trkpt>
      <trkpt lat="45.66793" lon="4.63068">
        <ele>474.4</ele>
        <time>2025-11-11T09:59:39Z</time>
      </trkpt>
      <trkpt lat="45.66796" lon="4.63068">
        <ele>474.4</ele>
        <time>2025-11-11T09:59:40Z</time>
      </trkpt>
      <trkpt lat="45.668" lon="4.63068">
        <ele>474.2</ele>
        <time>2025-11-11T09:59:41Z</time>
      </trkpt>
      <trkpt lat="45.66803" lon="4.63069">
        <ele>474.2</ele>
        <time>2025-11-11T09:59:42Z</time>
      </trkpt>
      <trkpt lat="45.66807" lon="4.63069">
        <ele>474</ele>
        <time>2025-11-11T09:59:43Z</time>
      </trkpt>
      <trkpt lat="45.66811" lon="4.63069">
        <ele>474</ele>
        <time>2025-11-11T09:59:44Z</time>
      </trkpt>
      <trkpt lat="45.66814" lon="4.63069">
        <ele>473.8</ele>
        <time>2025-11-11T09:59:45Z</time>
      </trkpt>
      <trkpt lat="45.66819" lon="4.6307">
        <ele>473.8</ele>
        <time>2025-11-11T09:59:46Z</time>
      </trkpt>
      <trkpt lat="45.66823" lon="4.63071">
        <ele>473.6</ele>
        <time>2025-11-11T09:59:47Z</time>
      </trkpt>
      <trkpt lat="45.66826" lon="4.63071">
        <ele>473.4</ele>
        <time>2025-11-11T09:59:48Z</time>
      </trkpt>
      <trkpt lat="45.66831" lon="4.63071">
        <ele>473.2</ele>
        <time>2025-11-11T09:59:49Z</time>
      </trkpt>
      <trkpt lat="45.66835" lon="4.63071">
        <ele>473.2</ele>
        <time>2025-11-11T09:59:50Z</time>
      </trkpt>
      <trkpt lat="45.66839" lon="4.63071">
        <ele>473</ele>
        <time>2025-11-11T09:59:51Z</time>
      </trkpt>
      <trkpt lat="45.66843" lon="4.63071">
        <ele>473</ele>
        <time>2025-11-11T09:59:52Z</time>
      </trkpt>
      <trkpt lat="45.66848" lon="4.63071">
        <ele>472.8</ele>
        <time>2025-11-11T09:59:53Z</time>
      </trkpt>
      <trkpt lat="45.66851" lon="4.63071">
        <ele>472.8</ele>
        <time>2025-11-11T09:59:54Z</time>
      </trkpt>
      <trkpt lat="45.66855" lon="4.6307">
        <ele>472.6</ele>
        <time>2025-11-11T09:59:55Z</time>
      </trkpt>
      <trkpt lat="45.66859" lon="4.63069">
        <ele>472.4</ele>
        <time>2025-11-11T09:59:56Z</time>
      </trkpt>
      <trkpt lat="45.66863" lon="4.63069">
        <ele>472.4</ele>
        <time>2025-11-11T09:59:57Z</time>
      </trkpt>
      <trkpt lat="45.66867" lon="4.63069">
        <ele>472</ele>
        <time>2025-11-11T09:59:58Z</time>
      </trkpt>
      <trkpt lat="45.66871" lon="4.63068">
        <ele>471.8</ele>
        <time>2025-11-11T09:59:59Z</time>
      </trkpt>
      <trkpt lat="45.66876" lon="4.63067">
        <ele>471.6</ele>
        <time>2025-11-11T10:00:00Z</time>
      </trkpt>
      <trkpt lat="45.6688" lon="4.63064">
        <ele>471.4</ele>
        <time>2025-11-11T10:00:01Z</time>
      </trkpt>
      <trkpt lat="45.66885" lon="4.63062">
        <ele>471.2</ele>
        <time>2025-11-11T10:00:02Z</time>
      </trkpt>
      <trkpt lat="45.6689" lon="4.63058">
        <ele>471.2</ele>
        <time>2025-11-11T10:00:03Z</time>
      </trkpt>
      <trkpt lat="45.66893" lon="4.63055">
        <ele>471</ele>
        <time>2025-11-11T10:00:04Z</time>
      </trkpt>
      <trkpt lat="45.66895" lon="4.6305">
        <ele>471</ele>
        <time>2025-11-11T10:00:05Z</time>
      </trkpt>
      <trkpt lat="45.66894" lon="4.63046">
        <ele>471.2</ele>
        <time>2025-11-11T10:00:06Z</time>
      </trkpt>
      <trkpt lat="45.66893" lon="4.63041">
        <ele>471.2</ele>
        <time>2025-11-11T10:00:07Z</time>
      </trkpt>
      <trkpt lat="45.66891" lon="4.63037">
        <ele>471.4</ele>
        <time>2025-11-11T10:00:08Z</time>
      </trkpt>
      <trkpt lat="45.66889" lon="4.63033">
        <ele>471.8</ele>
        <time>2025-11-11T10:00:09Z</time>
      </trkpt>
      <trkpt lat="45.66888" lon="4.63028">
        <ele>472</ele>
        <time>2025-11-11T10:00:10Z</time>
      </trkpt>
      <trkpt lat="45.66886" lon="4.63023">
        <ele>472.4</ele>
        <time>2025-11-11T10:00:11Z</time>
      </trkpt>
      <trkpt lat="45.66885" lon="4.63017">
        <ele>472.8</ele>
        <time>2025-11-11T10:00:12Z</time>
      </trkpt>
      <trkpt lat="45.66884" lon="4.63013">
        <ele>473</ele>
        <time>2025-11-11T10:00:13Z</time>
      </trkpt>
      <trkpt lat="45.66883" lon="4.63009">
        <ele>473.4</ele>
        <time>2025-11-11T10:00:14Z</time>
      </trkpt>
      <trkpt lat="45.66882" lon="4.63005">
        <ele>473.6</ele>
        <time>2025-11-11T10:00:15Z</time>
      </trkpt>
      <trkpt lat="45.66882" lon="4.63004">
        <ele>474</ele>
        <time>2025-11-11T10:00:16Z</time>
      </trkpt>
      <trkpt lat="45.66882" lon="4.63004">
        <ele>474.2</ele>
        <time>2025-11-11T10:00:17Z</time>
      </trkpt>
      <trkpt lat="45.66882" lon="4.63004">
        <ele>474.4</ele>
        <time>2025-11-11T10:00:18Z</time>
      </trkpt>
      <trkpt lat="45.66882" lon="4.63004">
        <ele>474.8</ele>
        <time>2025-11-11T10:00:19Z</time>
      </trkpt>
      <trkpt lat="45.66882" lon="4.63004">
        <ele>474.8</ele>
        <time>2025-11-11T10:00:20Z</time>
      </trkpt>
      <trkpt lat="45.66882" lon="4.63004">
        <ele>474.8</ele>
        <time>2025-11-11T10:00:21Z</time>
      </trkpt>
      <trkpt lat="45.66882" lon="4.63004">
        <ele>474.8</ele>
        <time>2025-11-11T10:00:22Z</time>
      </trkpt>
      <trkpt lat="45.66882" lon="4.63004">
        <ele>474.8</ele>
        <time>2025-11-11T10:00:23Z</time>
      </trkpt>
      <trkpt lat="45.66882" lon="4.63004">
        <ele>474.8</ele>
        <time>2025-11-11T10:00:24Z</time>
      </trkpt>
      <trkpt lat="45.66882" lon="4.63004">
        <ele>474.8</ele>
        <time>2025-11-11T10:00:25Z</time>
      </trkpt>
      <trkpt lat="45.66882" lon="4.63004">
        <ele>474.8</ele>
        <time>2025-11-11T10:00:26Z</time>
      </trkpt>
      <trkpt lat="45.66882" lon="4.63004">
        <ele>474.8</ele>
        <time>2025-11-11T10:00:27Z</time>
      </trkpt>
      <trkpt lat="45.66882" lon="4.63004">
        <ele>474.8</ele>
        <time>2025-11-11T10:00:28Z</time>
      </trkpt>
      <trkpt lat="45.66882" lon="4.63004">
        <ele>474.8</ele>
        <time>2025-11-11T10:00:29Z</time>
      </trkpt>
      <trkpt lat="45.66882" lon="4.63004">
        <ele>474.8</ele>
        <time>2025-11-11T10:00:30Z</time>
      </trkpt>
      <trkpt lat="45.66882" lon="4.63004">
        <ele>474.8</ele>
        <time>2025-11-11T10:00:31Z</time>
      </trkpt>
      <trkpt lat="45.66882" lon="4.63004">
        <ele>474.8</ele>
        <time>2025-11-11T10:00:32Z</time>
      </trkpt>
      <trkpt lat="45.66882" lon="4.63004">
        <ele>474.8</ele>
        <time>2025-11-11T10:00:33Z</time>
      </trkpt>
      <trkpt lat="45.66882" lon="4.63004">
        <ele>474.8</ele>
        <time>2025-11-11T10:00:34Z</time>
      </trkpt>
      <trkpt lat="45.66882" lon="4.63004">
        <ele>474.8</ele>
        <time>2025-11-11T10:00:35Z</time>
      </trkpt>
      <trkpt lat="45.66882" lon="4.63004">
        <ele>474.8</ele>
        <time>2025-11-11T10:00:36Z</time>
      </trkpt>
      <trkpt lat="45.66882" lon="4.63004">
        <ele>474.8</ele>
        <time>2025-11-11T10:00:37Z</time>
      </trkpt>
      <trkpt lat="45.66882" lon="4.63004">
        <ele>474.8</ele>
        <time>2025-11-11T10:00:38Z</time>
      </trkpt>
      <trkpt lat="45.66882" lon="4.63004">
        <ele>474.6</ele>
        <time>2025-11-11T10:00:39Z</time>
      </trkpt>
      <trkpt lat="45.66882" lon="4.63004">
        <ele>474.6</ele>
        <time>2025-11-11T10:00:40Z</time>
      </trkpt>
      <trkpt lat="45.66882" lon="4.63004">
        <ele>474.6</ele>
        <time>2025-11-11T10:00:41Z</time>
      </trkpt>
      <trkpt lat="45.66882" lon="4.63004">
        <ele>474.6</ele>
        <time>2025-11-11T10:00:42Z</time>
      </trkpt>
      <trkpt lat="45.66882" lon="4.63004">
        <ele>474.6</ele>
        <time>2025-11-11T10:00:43Z</time>
      </trkpt>
      <trkpt lat="45.66882" lon="4.63004">
        <ele>474.6</ele>
        <time>2025-11-11T10:00:44Z</time>
      </trkpt>
      <trkpt lat="45.66882" lon="4.63004">
        <ele>474.6</ele>
        <time>2025-11-11T10:00:45Z</time>
      </trkpt>
      <trkpt lat="45.66882" lon="4.63004">
        <ele>474.6</ele>
        <time>2025-11-11T10:00:46Z</time>
      </trkpt>
      <trkpt lat="45.66882" lon="4.63004">
        <ele>474.6</ele>
        <time>2025-11-11T10:00:47Z</time>
      </trkpt>
      <trkpt lat="45.66882" lon="4.63004">
        <ele>474.6</ele>
        <time>2025-11-11T10:00:48Z</time>
      </trkpt>
      <trkpt lat="45.66882" lon="4.63004">
        <ele>474.6</ele>
        <time>2025-11-11T10:00:49Z</time>
      </trkpt>
      <trkpt lat="45.66882" lon="4.63004">
        <ele>474.6</ele>
        <time>2025-11-11T10:00:50Z</time>
      </trkpt>
      <trkpt lat="45.66882" lon="4.63004">
        <ele>474.6</ele>
        <time>2025-11-11T10:00:51Z</time>
      </trkpt>
      <trkpt lat="45.66882" lon="4.63004">
        <ele>474.6</ele>
        <time>2025-11-11T10:00:52Z</time>
      </trkpt>
      <trkpt lat="45.66882" lon="4.63004">
        <ele>474.6</ele>
        <time>2025-11-11T10:00:53Z</time>
      </trkpt>
      <trkpt lat="45.66882" lon="4.63004">
        <ele>474.6</ele>
        <time>2025-11-11T10:00:54Z</time>
      </trkpt>
      <trkpt lat="45.66882" lon="4.63004">
        <ele>474.6</ele>
        <time>2025-11-11T10:00:55Z</time>
      </trkpt>
      <trkpt lat="45.66882" lon="4.63004">
        <ele>474.6</ele>
        <time>2025-11-11T10:00:56Z</time>
      </trkpt>
      <trkpt lat="45.66882" lon="4.63004">
        <ele>474.6</ele>
        <time>2025-11-11T10:00:57Z</time>
      </trkpt>
      <trkpt lat="45.66882" lon="4.63004">
        <ele>474.6</ele>
        <time>2025-11-11T10:00:58Z</time>
      </trkpt>
      <trkpt lat="45.66882" lon="4.63004">
        <ele>474.6</ele>
        <time>2025-11-11T10:00:59Z</time>
      </trkpt>
      <trkpt lat="45.66882" lon="4.63004">
        <ele>474.6</ele>
        <time>2025-11-11T10:01:00Z</time>
      </trkpt>
      <trkpt lat="45.66882" lon="4.63004">
        <ele>474.6</ele>
        <time>2025-11-11T10:01:01Z</time>
      </trkpt>
      <trkpt lat="45.66882" lon="4.63004">
        <ele>474.6</ele>
        <time>2025-11-11T10:01:02Z</time>
      </trkpt>
      <trkpt lat="45.66882" lon="4.63004">
        <ele>474.6</ele>
        <time>2025-11-11T10:01:03Z</time>
      </trkpt>
      <trkpt lat="45.66882" lon="4.63004">
        <ele>474.6</ele>
        <time>2025-11-11T10:01:04Z</time>
      </trkpt>
      <trkpt lat="45.66882" lon="4.63004">
        <ele>474.6</ele>
        <time>2025-11-11T10:01:05Z</time>
      </trkpt>
      <trkpt lat="45.66882" lon="4.63004">
        <ele>474.6</ele>
        <time>2025-11-11T10:01:06Z</time>
      </trkpt>
      <trkpt lat="45.66882" lon="4.63004">
        <ele>474.6</ele>
        <time>2025-11-11T10:01:07Z</time>
      </trkpt>
      <trkpt lat="45.66882" lon="4.63004">
        <ele>474.6</ele>
        <time>2025-11-11T10:01:08Z</time>
      </trkpt>
      <trkpt lat="45.66882" lon="4.63004">
        <ele>474.6</ele>
        <time>2025-11-11T10:01:09Z</time>
      </trkpt>
      <trkpt lat="45.66882" lon="4.63004">
        <ele>474.6</ele>
        <time>2025-11-11T10:01:10Z</time>
      </trkpt>
      <trkpt lat="45.66882" lon="4.63004">
        <ele>474.6</ele>
        <time>2025-11-11T10:01:11Z</time>
      </trkpt>
      <trkpt lat="45.66882" lon="4.63004">
        <ele>474.4</ele>
        <time>2025-11-11T10:01:12Z</time>
      </trkpt>
      <trkpt lat="45.66882" lon="4.63004">
        <ele>474.4</ele>
        <time>2025-11-11T10:01:13Z</time>
      </trkpt>
      <trkpt lat="45.66882" lon="4.63004">
        <ele>474.4</ele>
        <time>2025-11-11T10:01:14Z</time>
      </trkpt>
      <trkpt lat="45.66882" lon="4.63004">
        <ele>474.4</ele>
        <time>2025-11-11T10:01:15Z</time>
      </trkpt>
      <trkpt lat="45.66882" lon="4.63004">
        <ele>474.4</ele>
        <time>2025-11-11T10:01:16Z</time>
      </trkpt>
      <trkpt lat="45.66882" lon="4.63004">
        <ele>474.4</ele>
        <time>2025-11-11T10:01:17Z</time>
      </trkpt>
      <trkpt lat="45.66882" lon="4.63004">
        <ele>474.4</ele>
        <time>2025-11-11T10:01:18Z</time>
      </trkpt>
      <trkpt lat="45.66882" lon="4.63004">
        <ele>474.4</ele>
        <time>2025-11-11T10:01:19Z</time>
      </trkpt>
      <trkpt lat="45.66882" lon="4.63004">
        <ele>474.4</ele>
        <time>2025-11-11T10:01:20Z</time>
      </trkpt>
      <trkpt lat="45.66882" lon="4.63004">
        <ele>474.4</ele>
        <time>2025-11-11T10:01:21Z</time>
      </trkpt>
      <trkpt lat="45.66882" lon="4.63004">
        <ele>474.4</ele>
        <time>2025-11-11T10:01:22Z</time>
      </trkpt>
      <trkpt lat="45.66882" lon="4.63005">
        <ele>474.4</ele>
        <time>2025-11-11T10:01:23Z</time>
      </trkpt>
      <trkpt lat="45.66882" lon="4.63005">
        <ele>474.4</ele>
        <time>2025-11-11T10:01:24Z</time>
      </trkpt>
      <trkpt lat="45.66882" lon="4.63005">
        <ele>474.4</ele>
        <time>2025-11-11T10:01:25Z</time>
      </trkpt>
      <trkpt lat="45.66882" lon="4.63005">
        <ele>474.4</ele>
        <time>2025-11-11T10:01:26Z</time>
      </trkpt>
      <trkpt lat="45.66882" lon="4.63005">
        <ele>474.4</ele>
        <time>2025-11-11T10:01:27Z</time>
      </trkpt>
      <trkpt lat="45.66882" lon="4.63005">
        <ele>474.4</ele>
        <time>2025-11-11T10:01:28Z</time>
      </trkpt>
      <trkpt lat="45.66882" lon="4.63005">
        <ele>474.4</ele>
        <time>2025-11-11T10:01:29Z</time>
      </trkpt>
      <trkpt lat="45.66882" lon="4.63005">
        <ele>474.4</ele>
        <time>2025-11-11T10:01:30Z</time>
      </trkpt>
      <trkpt lat="45.66882" lon="4.63005">
        <ele>474.4</ele>
        <time>2025-11-11T10:01:31Z</time>
      </trkpt>
      <trkpt lat="45.66882" lon="4.63005">
        <ele>474.4</ele>
        <time>2025-11-11T10:01:32Z</time>
      </trkpt>
      <trkpt lat="45.66882" lon="4.63005">
        <ele>474.4</ele>
        <time>2025-11-11T10:01:33Z</time>
      </trkpt>
      <trkpt lat="45.66882" lon="4.63005">
        <ele>474.4</ele>
        <time>2025-11-11T10:01:34Z</time>
      </trkpt>
      <trkpt lat="45.66882" lon="4.63005">
        <ele>474.4</ele>
        <time>2025-11-11T10:01:35Z</time>
      </trkpt>
      <trkpt lat="45.66882" lon="4.63005">
        <ele>474.4</ele>
        <time>2025-11-11T10:01:36Z</time>
      </trkpt>
      <trkpt lat="45.66882" lon="4.63005">
        <ele>474.4</ele>
        <time>2025-11-11T10:01:37Z</time>
      </trkpt>
      <trkpt lat="45.66882" lon="4.63005">
        <ele>474.4</ele>
        <time>2025-11-11T10:01:38Z</time>
      </trkpt>
      <trkpt lat="45.66882" lon="4.63005">
        <ele>474.4</ele>
        <time>2025-11-11T10:01:39Z</time>
      </trkpt>
      <trkpt lat="45.66882" lon="4.63005">
        <ele>474.4</ele>
        <time>2025-11-11T10:01:40Z</time>
      </trkpt>
      <trkpt lat="45.66882" lon="4.63005">
        <ele>474.4</ele>
        <time>2025-11-11T10:01:41Z</time>
      </trkpt>
      <trkpt lat="45.66882" lon="4.63005">
        <ele>474.4</ele>
        <time>2025-11-11T10:01:42Z</time>
      </trkpt>
      <trkpt lat="45.66882" lon="4.63005">
        <ele>474.4</ele>
        <time>2025-11-11T10:01:43Z</time>
      </trkpt>
      <trkpt lat="45.66882" lon="4.63005">
        <ele>474.4</ele>
        <time>2025-11-11T10:01:44Z</time>
      </trkpt>
      <trkpt lat="45.66882" lon="4.63005">
        <ele>474.4</ele>
        <time>2025-11-11T10:01:45Z</time>
      </trkpt>
      <trkpt lat="45.66882" lon="4.63005">
        <ele>474.4</ele>
        <time>2025-11-11T10:01:46Z</time>
      </trkpt>
      <trkpt lat="45.66882" lon="4.63005">
        <ele>474.4</ele>
        <time>2025-11-11T10:01:47Z</time>
      </trkpt>
      <trkpt lat="45.66882" lon="4.63005">
        <ele>474.4</ele>
        <time>2025-11-11T10:01:48Z</time>
      </trkpt>
      <trkpt lat="45.66882" lon="4.63005">
        <ele>474.4</ele>
        <time>2025-11-11T10:01:49Z</time>
      </trkpt>
      <trkpt lat="45.66882" lon="4.63005">
        <ele>474.4</ele>
        <time>2025-11-11T10:01:50Z</time>
      </trkpt>
      <trkpt lat="45.66882" lon="4.63005">
        <ele>474.4</ele>
        <time>2025-11-11T10:01:51Z</time>
      </trkpt>
      <trkpt lat="45.66882" lon="4.63004">
        <ele>474.4</ele>
        <time>2025-11-11T10:01:52Z</time>
      </trkpt>
      <trkpt lat="45.66882" lon="4.63002">
        <ele>474.4</ele>
        <time>2025-11-11T10:01:53Z</time>
      </trkpt>
      <trkpt lat="45.66882" lon="4.62997">
        <ele>474.4</ele>
        <time>2025-11-11T10:01:54Z</time>
      </trkpt>
      <trkpt lat="45.66882" lon="4.62992">
        <ele>475</ele>
        <time>2025-11-11T10:01:55Z</time>
      </trkpt>
      <trkpt lat="45.66883" lon="4.62987">
        <ele>474.8</ele>
        <time>2025-11-11T10:01:56Z</time>
      </trkpt>
      <trkpt lat="45.66884" lon="4.62981">
        <ele>474.6</ele>
        <time>2025-11-11T10:01:57Z</time>
      </trkpt>
      <trkpt lat="45.66885" lon="4.62975">
        <ele>474.2</ele>
        <time>2025-11-11T10:01:58Z</time>
      </trkpt>
      <trkpt lat="45.66886" lon="4.62968">
        <ele>474</ele>
        <time>2025-11-11T10:01:59Z</time>
      </trkpt>
      <trkpt lat="45.66887" lon="4.62962">
        <ele>473.8</ele>
        <time>2025-11-11T10:02:00Z</time>
      </trkpt>
      <trkpt lat="45.66887" lon="4.62955">
        <ele>473.6</ele>
        <time>2025-11-11T10:02:01Z</time>
      </trkpt>
      <trkpt lat="45.66887" lon="4.62949">
        <ele>473.2</ele>
        <time>2025-11-11T10:02:02Z</time>
      </trkpt>
      <trkpt lat="45.66887" lon="4.62943">
        <ele>473.2</ele>
        <time>2025-11-11T10:02:03Z</time>
      </trkpt>
      <trkpt lat="45.66886" lon="4.62936">
        <ele>472.8</ele>
        <time>2025-11-11T10:02:04Z</time>
      </trkpt>
      <trkpt lat="45.66885" lon="4.62929">
        <ele>472.6</ele>
        <time>2025-11-11T10:02:05Z</time>
      </trkpt>
      <trkpt lat="45.66884" lon="4.62921">
        <ele>472.4</ele>
        <time>2025-11-11T10:02:06Z</time>
      </trkpt>
      <trkpt lat="45.66883" lon="4.62913">
        <ele>472.2</ele>
        <time>2025-11-11T10:02:07Z</time>
      </trkpt>
      <trkpt lat="45.66882" lon="4.62906">
        <ele>472</ele>
        <time>2025-11-11T10:02:08Z</time>
      </trkpt>
      <trkpt lat="45.66881" lon="4.62898">
        <ele>471.6</ele>
        <time>2025-11-11T10:02:09Z</time>
      </trkpt>
      <trkpt lat="45.66879" lon="4.62889">
        <ele>471.4</ele>
        <time>2025-11-11T10:02:10Z</time>
      </trkpt>
      <trkpt lat="45.66877" lon="4.62881">
        <ele>471</ele>
        <time>2025-11-11T10:02:11Z</time>
      </trkpt>
      <trkpt lat="45.66876" lon="4.62873">
        <ele>470.8</ele>
        <time>2025-11-11T10:02:12Z</time>
      </trkpt>
      <trkpt lat="45.66875" lon="4.62865">
        <ele>470.6</ele>
        <time>2025-11-11T10:02:13Z</time>
      </trkpt>
      <trkpt lat="45.66875" lon="4.62856">
        <ele>470.4</ele>
        <time>2025-11-11T10:02:14Z</time>
      </trkpt>
      <trkpt lat="45.66875" lon="4.62848">
        <ele>470.2</ele>
        <time>2025-11-11T10:02:15Z</time>
      </trkpt>
      <trkpt lat="45.66876" lon="4.6284">
        <ele>469.8</ele>
        <time>2025-11-11T10:02:16Z</time>
      </trkpt>
      <trkpt lat="45.66878" lon="4.62832">
        <ele>469.6</ele>
        <time>2025-11-11T10:02:17Z</time>
      </trkpt>
      <trkpt lat="45.6688" lon="4.62825">
        <ele>469.4</ele>
        <time>2025-11-11T10:02:18Z</time>
      </trkpt>
      <trkpt lat="45.66882" lon="4.62818">
        <ele>469.2</ele>
        <time>2025-11-11T10:02:19Z</time>
      </trkpt>
      <trkpt lat="45.66884" lon="4.6281">
        <ele>468.8</ele>
        <time>2025-11-11T10:02:20Z</time>
      </trkpt>
      <trkpt lat="45.66888" lon="4.62802">
        <ele>468.6</ele>
        <time>2025-11-11T10:02:21Z</time>
      </trkpt>
      <trkpt lat="45.66891" lon="4.62795">
        <ele>468.4</ele>
        <time>2025-11-11T10:02:22Z</time>
      </trkpt>
      <trkpt lat="45.66895" lon="4.62788">
        <ele>468.2</ele>
        <time>2025-11-11T10:02:23Z</time>
      </trkpt>
      <trkpt lat="45.66899" lon="4.62781">
        <ele>467.8</ele>
        <time>2025-11-11T10:02:24Z</time>
      </trkpt>
      <trkpt lat="45.66903" lon="4.62775">
        <ele>467.6</ele>
        <time>2025-11-11T10:02:25Z</time>
      </trkpt>
      <trkpt lat="45.66908" lon="4.62768">
        <ele>467.4</ele>
        <time>2025-11-11T10:02:26Z</time>
      </trkpt>
      <trkpt lat="45.66912" lon="4.62762">
        <ele>467.2</ele>
        <time>2025-11-11T10:02:27Z</time>
      </trkpt>
      <trkpt lat="45.66916" lon="4.62756">
        <ele>467</ele>
        <time>2025-11-11T10:02:28Z</time>
      </trkpt>
      <trkpt lat="45.6692" lon="4.62749">
        <ele>466.8</ele>
        <time>2025-11-11T10:02:29Z</time>
      </trkpt>
      <trkpt lat="45.66923" lon="4.62742">
        <ele>466.6</ele>
        <time>2025-11-11T10:02:30Z</time>
      </trkpt>
      <trkpt lat="45.66927" lon="4.62734">
        <ele>466.4</ele>
        <time>2025-11-11T10:02:31Z</time>
      </trkpt>
      <trkpt lat="45.6693" lon="4.62726">
        <ele>466</ele>
        <time>2025-11-11T10:02:32Z</time>
      </trkpt>
      <trkpt lat="45.66933" lon="4.62717">
        <ele>465.8</ele>
        <time>2025-11-11T10:02:33Z</time>
      </trkpt>
      <trkpt lat="45.66936" lon="4.62708">
        <ele>465.6</ele>
        <time>2025-11-11T10:02:34Z</time>
      </trkpt>
      <trkpt lat="45.66939" lon="4.62699">
        <ele>465.2</ele>
        <time>2025-11-11T10:02:35Z</time>
      </trkpt>
      <trkpt lat="45.66942" lon="4.62689">
        <ele>465.2</ele>
        <time>2025-11-11T10:02:36Z</time>
      </trkpt>
      <trkpt lat="45.66944" lon="4.6268">
        <ele>465</ele>
        <time>2025-11-11T10:02:37Z</time>
      </trkpt>
      <trkpt lat="45.66946" lon="4.62671">
        <ele>464.6</ele>
        <time>2025-11-11T10:02:38Z</time>
      </trkpt>
      <trkpt lat="45.66947" lon="4.62662">
        <ele>464.4</ele>
        <time>2025-11-11T10:02:39Z</time>
      </trkpt>
      <trkpt lat="45.66949" lon="4.62653">
        <ele>464.2</ele>
        <time>2025-11-11T10:02:40Z</time>
      </trkpt>
      <trkpt lat="45.6695" lon="4.62645">
        <ele>464.2</ele>
        <time>2025-11-11T10:02:41Z</time>
      </trkpt>
      <trkpt lat="45.6695" lon="4.62637">
        <ele>464</ele>
        <time>2025-11-11T10:02:42Z</time>
      </trkpt>
      <trkpt lat="45.66951" lon="4.62629">
        <ele>464</ele>
        <time>2025-11-11T10:02:43Z</time>
      </trkpt>
      <trkpt lat="45.66952" lon="4.62621">
        <ele>463.8</ele>
        <time>2025-11-11T10:02:44Z</time>
      </trkpt>
      <trkpt lat="45.66951" lon="4.62613">
        <ele>463.8</ele>
        <time>2025-11-11T10:02:45Z</time>
      </trkpt>
      <trkpt lat="45.6695" lon="4.62605">
        <ele>463.6</ele>
        <time>2025-11-11T10:02:46Z</time>
      </trkpt>
      <trkpt lat="45.66949" lon="4.62598">
        <ele>463.6</ele>
        <time>2025-11-11T10:02:47Z</time>
      </trkpt>
      <trkpt lat="45.66948" lon="4.62589">
        <ele>463.4</ele>
        <time>2025-11-11T10:02:48Z</time>
      </trkpt>
      <trkpt lat="45.66947" lon="4.6258">
        <ele>463.2</ele>
        <time>2025-11-11T10:02:49Z</time>
      </trkpt>
      <trkpt lat="45.66946" lon="4.62572">
        <ele>462.8</ele>
        <time>2025-11-11T10:02:50Z</time>
      </trkpt>
      <trkpt lat="45.66944" lon="4.62563">
        <ele>462.4</ele>
        <time>2025-11-11T10:02:51Z</time>
      </trkpt>
      <trkpt lat="45.66942" lon="4.62554">
        <ele>462</ele>
        <time>2025-11-11T10:02:52Z</time>
      </trkpt>
      <trkpt lat="45.66939" lon="4.62547">
        <ele>461.6</ele>
        <time>2025-11-11T10:02:53Z</time>
      </trkpt>
      <trkpt lat="45.66936" lon="4.62539">
        <ele>461.4</ele>
        <time>2025-11-11T10:02:54Z</time>
      </trkpt>
      <trkpt lat="45.66933" lon="4.62532">
        <ele>461.2</ele>
        <time>2025-11-11T10:02:55Z</time>
      </trkpt>
      <trkpt lat="45.6693" lon="4.62524">
        <ele>461</ele>
        <time>2025-11-11T10:02:56Z</time>
      </trkpt>
      <trkpt lat="45.66927" lon="4.62517">
        <ele>460.8</ele>
        <time>2025-11-11T10:02:57Z</time>
      </trkpt>
      <trkpt lat="45.66924" lon="4.62509">
        <ele>460.8</ele>
        <time>2025-11-11T10:02:58Z</time>
      </trkpt>
      <trkpt lat="45.66921" lon="4.62502">
        <ele>460.6</ele>
        <time>2025-11-11T10:02:59Z</time>
      </trkpt>
      <trkpt lat="45.66917" lon="4.62495">
        <ele>460.6</ele>
        <time>2025-11-11T10:03:00Z</time>
      </trkpt>
      <trkpt lat="45.66914" lon="4.62488">
        <ele>460.4</ele>
        <time>2025-11-11T10:03:01Z</time>
      </trkpt>
      <trkpt lat="45.6691" lon="4.62481">
        <ele>460.4</ele>
        <time>2025-11-11T10:03:02Z</time>
      </trkpt>
      <trkpt lat="45.66906" lon="4.62474">
        <ele>460.2</ele>
        <time>2025-11-11T10:03:03Z</time>
      </trkpt>
      <trkpt lat="45.66902" lon="4.62468">
        <ele>460.2</ele>
        <time>2025-11-11T10:03:04Z</time>
      </trkpt>
      <trkpt lat="45.66899" lon="4.62461">
        <ele>460.2</ele>
        <time>2025-11-11T10:03:05Z</time>
      </trkpt>
      <trkpt lat="45.66897" lon="4.62454">
        <ele>460</ele>
        <time>2025-11-11T10:03:06Z</time>
      </trkpt>
      <trkpt lat="45.66895" lon="4.62447">
        <ele>460.2</ele>
        <time>2025-11-11T10:03:07Z</time>
      </trkpt>
      <trkpt lat="45.66893" lon="4.62441">
        <ele>460.2</ele>
        <time>2025-11-11T10:03:08Z</time>
      </trkpt>
      <trkpt lat="45.66892" lon="4.62435">
        <ele>460.4</ele>
        <time>2025-11-11T10:03:09Z</time>
      </trkpt>
      <trkpt lat="45.66891" lon="4.6243">
        <ele>460.4</ele>
        <time>2025-11-11T10:03:10Z</time>
      </trkpt>
      <trkpt lat="45.6689" lon="4.62425">
        <ele>460.6</ele>
        <time>2025-11-11T10:03:11Z</time>
      </trkpt>
      <trkpt lat="45.6689" lon="4.62421">
        <ele>460.8</ele>
        <time>2025-11-11T10:03:12Z</time>
      </trkpt>
      <trkpt lat="45.6689" lon="4.62416">
        <ele>460.8</ele>
        <time>2025-11-11T10:03:13Z</time>
      </trkpt>
      <trkpt lat="45.66891" lon="4.62412">
        <ele>460.8</ele>
        <time>2025-11-11T10:03:14Z</time>
      </trkpt>
      <trkpt lat="45.66891" lon="4.62407">
        <ele>460.8</ele>
        <time>2025-11-11T10:03:15Z</time>
      </trkpt>
      <trkpt lat="45.66892" lon="4.62401">
        <ele>460.8</ele>
        <time>2025-11-11T10:03:16Z</time>
      </trkpt>
      <trkpt lat="45.66893" lon="4.62394">
        <ele>460.8</ele>
        <time>2025-11-11T10:03:17Z</time>
      </trkpt>
      <trkpt lat="45.66894" lon="4.62387">
        <ele>460.6</ele>
        <time>2025-11-11T10:03:18Z</time>
      </trkpt>
      <trkpt lat="45.66896" lon="4.62382">
        <ele>460.4</ele>
        <time>2025-11-11T10:03:19Z</time>
      </trkpt>
      <trkpt lat="45.66898" lon="4.62376">
        <ele>460.4</ele>
        <time>2025-11-11T10:03:20Z</time>
      </trkpt>
      <trkpt lat="45.66899" lon="4.6237">
        <ele>460.2</ele>
        <time>2025-11-11T10:03:21Z</time>
      </trkpt>
      <trkpt lat="45.66902" lon="4.62364">
        <ele>460.2</ele>
        <time>2025-11-11T10:03:22Z</time>
      </trkpt>
      <trkpt lat="45.66906" lon="4.62358">
        <ele>460.2</ele>
        <time>2025-11-11T10:03:23Z</time>
      </trkpt>
      <trkpt lat="45.6691" lon="4.62352">
        <ele>460</ele>
        <time>2025-11-11T10:03:24Z</time>
      </trkpt>
      <trkpt lat="45.66914" lon="4.62347">
        <ele>460</ele>
        <time>2025-11-11T10:03:25Z</time>
      </trkpt>
      <trkpt lat="45.66919" lon="4.62342">
        <ele>459.8</ele>
        <time>2025-11-11T10:03:26Z</time>
      </trkpt>
      <trkpt lat="45.66924" lon="4.62337">
        <ele>459.8</ele>
        <time>2025-11-11T10:03:27Z</time>
      </trkpt>
      <trkpt lat="45.66929" lon="4.62333">
        <ele>459.6</ele>
        <time>2025-11-11T10:03:28Z</time>
      </trkpt>
      <trkpt lat="45.66934" lon="4.62329">
        <ele>459.6</ele>
        <time>2025-11-11T10:03:29Z</time>
      </trkpt>
      <trkpt lat="45.6694" lon="4.62325">
        <ele>459.4</ele>
        <time>2025-11-11T10:03:30Z</time>
      </trkpt>
      <trkpt lat="45.66945" lon="4.62321">
        <ele>459.4</ele>
        <time>2025-11-11T10:03:31Z</time>
      </trkpt>
      <trkpt lat="45.6695" lon="4.62317">
        <ele>459.2</ele>
        <time>2025-11-11T10:03:32Z</time>
      </trkpt>
      <trkpt lat="45.66955" lon="4.62312">
        <ele>459</ele>
        <time>2025-11-11T10:03:33Z</time>
      </trkpt>
      <trkpt lat="45.6696" lon="4.62307">
        <ele>458.8</ele>
        <time>2025-11-11T10:03:34Z</time>
      </trkpt>
      <trkpt lat="45.66965" lon="4.62302">
        <ele>458.6</ele>
        <time>2025-11-11T10:03:35Z</time>
      </trkpt>
      <trkpt lat="45.66969" lon="4.62297">
        <ele>458.4</ele>
        <time>2025-11-11T10:03:36Z</time>
      </trkpt>
      <trkpt lat="45.66974" lon="4.62291">
        <ele>458.2</ele>
        <time>2025-11-11T10:03:37Z</time>
      </trkpt>
      <trkpt lat="45.66978" lon="4.62284">
        <ele>458</ele>
        <time>2025-11-11T10:03:38Z</time>
      </trkpt>
      <trkpt lat="45.66982" lon="4.62278">
        <ele>457.8</ele>
        <time>2025-11-11T10:03:39Z</time>
      </trkpt>
      <trkpt lat="45.66986" lon="4.62272">
        <ele>457.6</ele>
        <time>2025-11-11T10:03:40Z</time>
      </trkpt>
      <trkpt lat="45.66989" lon="4.62265">
        <ele>457.4</ele>
        <time>2025-11-11T10:03:41Z</time>
      </trkpt>
      <trkpt lat="45.66992" lon="4.62257">
        <ele>457.2</ele>
        <time>2025-11-11T10:03:42Z</time>
      </trkpt>
      <trkpt lat="45.66994" lon="4.62248">
        <ele>457</ele>
        <time>2025-11-11T10:03:43Z</time>
      </trkpt>
      <trkpt lat="45.66996" lon="4.62239">
        <ele>456.6</ele>
        <time>2025-11-11T10:03:44Z</time>
      </trkpt>
      <trkpt lat="45.66997" lon="4.6223">
        <ele>456.2</ele>
        <time>2025-11-11T10:03:45Z</time>
      </trkpt>
      <trkpt lat="45.66999" lon="4.62221">
        <ele>455.8</ele>
        <time>2025-11-11T10:03:46Z</time>
      </trkpt>
      <trkpt lat="45.67001" lon="4.62211">
        <ele>455.4</ele>
        <time>2025-11-11T10:03:47Z</time>
      </trkpt>
      <trkpt lat="45.67003" lon="4.62202">
        <ele>455</ele>
        <time>2025-11-11T10:03:48Z</time>
      </trkpt>
      <trkpt lat="45.67005" lon="4.62192">
        <ele>454.8</ele>
        <time>2025-11-11T10:03:49Z</time>
      </trkpt>
      <trkpt lat="45.67008" lon="4.62182">
        <ele>454.4</ele>
        <time>2025-11-11T10:03:50Z</time>
      </trkpt>
      <trkpt lat="45.67011" lon="4.62174">
        <ele>454.2</ele>
        <time>2025-11-11T10:03:51Z</time>
      </trkpt>
      <trkpt lat="45.67014" lon="4.62166">
        <ele>454.2</ele>
        <time>2025-11-11T10:03:52Z</time>
      </trkpt>
      <trkpt lat="45.67018" lon="4.62158">
        <ele>454</ele>
        <time>2025-11-11T10:03:53Z</time>
      </trkpt>
      <trkpt lat="45.67021" lon="4.6215">
        <ele>453.8</ele>
        <time>2025-11-11T10:03:54Z</time>
      </trkpt>
      <trkpt lat="45.67025" lon="4.62143">
        <ele>453.8</ele>
        <time>2025-11-11T10:03:55Z</time>
      </trkpt>
      <trkpt lat="45.67029" lon="4.62136">
        <ele>453.4</ele>
        <time>2025-11-11T10:03:56Z</time>
      </trkpt>
      <trkpt lat="45.67033" lon="4.62129">
        <ele>453.2</ele>
        <time>2025-11-11T10:03:57Z</time>
      </trkpt>
      <trkpt lat="45.67038" lon="4.62122">
        <ele>452.8</ele>
        <time>2025-11-11T10:03:58Z</time>
      </trkpt>
      <trkpt lat="45.67044" lon="4.62116">
        <ele>452.4</ele>
        <time>2025-11-11T10:03:59Z</time>
      </trkpt>
      <trkpt lat="45.6705" lon="4.6211">
        <ele>452.2</ele>
        <time>2025-11-11T10:04:00Z</time>
      </trkpt>
      <trkpt lat="45.67056" lon="4.62104">
        <ele>451.8</ele>
        <time>2025-11-11T10:04:01Z</time>
      </trkpt>
      <trkpt lat="45.67061" lon="4.62097">
        <ele>451.6</ele>
        <time>2025-11-11T10:04:02Z</time>
      </trkpt>
      <trkpt lat="45.67067" lon="4.6209">
        <ele>451.4</ele>
        <time>2025-11-11T10:04:03Z</time>
      </trkpt>
      <trkpt lat="45.67072" lon="4.62084">
        <ele>451.2</ele>
        <time>2025-11-11T10:04:04Z</time>
      </trkpt>
      <trkpt lat="45.67078" lon="4.62078">
        <ele>450.8</ele>
        <time>2025-11-11T10:04:05Z</time>
      </trkpt>
      <trkpt lat="45.67084" lon="4.62072">
        <ele>450.6</ele>
        <time>2025-11-11T10:04:06Z</time>
      </trkpt>
      <trkpt lat="45.6709" lon="4.62066">
        <ele>450.2</ele>
        <time>2025-11-11T10:04:07Z</time>
      </trkpt>
      <trkpt lat="45.67095" lon="4.6206">
        <ele>449.8</ele>
        <time>2025-11-11T10:04:08Z</time>
      </trkpt>
      <trkpt lat="45.67101" lon="4.62053">
        <ele>449.6</ele>
        <time>2025-11-11T10:04:09Z</time>
      </trkpt>
      <trkpt lat="45.67106" lon="4.62045">
        <ele>449.4</ele>
        <time>2025-11-11T10:04:10Z</time>
      </trkpt>
      <trkpt lat="45.6711" lon="4.62037">
        <ele>448.8</ele>
        <time>2025-11-11T10:04:11Z</time>
      </trkpt>
      <trkpt lat="45.67114" lon="4.62029">
        <ele>448.6</ele>
        <time>2025-11-11T10:04:12Z</time>
      </trkpt>
      <trkpt lat="45.67117" lon="4.6202">
        <ele>448.4</ele>
        <time>2025-11-11T10:04:13Z</time>
      </trkpt>
      <trkpt lat="45.6712" lon="4.62011">
        <ele>448.2</ele>
        <time>2025-11-11T10:04:14Z</time>
      </trkpt>
      <trkpt lat="45.67122" lon="4.62002">
        <ele>448</ele>
        <time>2025-11-11T10:04:15Z</time>
      </trkpt>
      <trkpt lat="45.67123" lon="4.61992">
        <ele>447.8</ele>
        <time>2025-11-11T10:04:16Z</time>
      </trkpt>
      <trkpt lat="45.67123" lon="4.61983">
        <ele>447.6</ele>
        <time>2025-11-11T10:04:17Z</time>
      </trkpt>
      <trkpt lat="45.67123" lon="4.61973">
        <ele>447.6</ele>
        <time>2025-11-11T10:04:18Z</time>
      </trkpt>
      <trkpt lat="45.67123" lon="4.61964">
        <ele>447.4</ele>
        <time>2025-11-11T10:04:19Z</time>
      </trkpt>
      <trkpt lat="45.67121" lon="4.61954">
        <ele>447.4</ele>
        <time>2025-11-11T10:04:20Z</time>
      </trkpt>
      <trkpt lat="45.67119" lon="4.61945">
        <ele>447.2</ele>
        <time>2025-11-11T10:04:21Z</time>
      </trkpt>
      <trkpt lat="45.67117" lon="4.61936">
        <ele>447</ele>
        <time>2025-11-11T10:04:22Z</time>
      </trkpt>
      <trkpt lat="45.67113" lon="4.61928">
        <ele>446.8</ele>
        <time>2025-11-11T10:04:23Z</time>
      </trkpt>
      <trkpt lat="45.67109" lon="4.6192">
        <ele>446.6</ele>
        <time>2025-11-11T10:04:24Z</time>
      </trkpt>
      <trkpt lat="45.67105" lon="4.61913">
        <ele>446.4</ele>
        <time>2025-11-11T10:04:25Z</time>
      </trkpt>
      <trkpt lat="45.671" lon="4.61906">
        <ele>446.2</ele>
        <time>2025-11-11T10:04:26Z</time>
      </trkpt>
      <trkpt lat="45.67096" lon="4.61898">
        <ele>446</ele>
        <time>2025-11-11T10:04:27Z</time>
      </trkpt>
      <trkpt lat="45.67091" lon="4.61891">
        <ele>445.6</ele>
        <time>2025-11-11T10:04:28Z</time>
      </trkpt>
      <trkpt lat="45.67087" lon="4.61883">
        <ele>445.4</ele>
        <time>2025-11-11T10:04:29Z</time>
      </trkpt>
      <trkpt lat="45.67084" lon="4.61876">
        <ele>445.2</ele>
        <time>2025-11-11T10:04:30Z</time>
      </trkpt>
      <trkpt lat="45.6708" lon="4.61868">
        <ele>445.2</ele>
        <time>2025-11-11T10:04:31Z</time>
      </trkpt>
      <trkpt lat="45.67077" lon="4.6186">
        <ele>444.8</ele>
        <time>2025-11-11T10:04:32Z</time>
      </trkpt>
      <trkpt lat="45.67074" lon="4.61851">
        <ele>444.6</ele>
        <time>2025-11-11T10:04:33Z</time>
      </trkpt>
      <trkpt lat="45.67073" lon="4.61842">
        <ele>444.2</ele>
        <time>2025-11-11T10:04:34Z</time>
      </trkpt>
      <trkpt lat="45.67072" lon="4.61833">
        <ele>444</ele>
        <time>2025-11-11T10:04:35Z</time>
      </trkpt>
      <trkpt lat="45.67072" lon="4.61824">
        <ele>443.6</ele>
        <time>2025-11-11T10:04:36Z</time>
      </trkpt>
      <trkpt lat="45.67072" lon="4.61815">
        <ele>443.2</ele>
        <time>2025-11-11T10:04:37Z</time>
      </trkpt>
      <trkpt lat="45.67073" lon="4.61806">
        <ele>443</ele>
        <time>2025-11-11T10:04:38Z</time>
      </trkpt>
      <trkpt lat="45.67074" lon="4.61798">
        <ele>442.8</ele>
        <time>2025-11-11T10:04:39Z</time>
      </trkpt>
      <trkpt lat="45.67076" lon="4.61789">
        <ele>442.8</ele>
        <time>2025-11-11T10:04:40Z</time>
      </trkpt>
      <trkpt lat="45.67079" lon="4.61781">
        <ele>442.8</ele>
        <time>2025-11-11T10:04:41Z</time>
      </trkpt>
      <trkpt lat="45.67082" lon="4.61774">
        <ele>442.6</ele>
        <time>2025-11-11T10:04:42Z</time>
      </trkpt>
      <trkpt lat="45.67086" lon="4.61767">
        <ele>442.6</ele>
        <time>2025-11-11T10:04:43Z</time>
      </trkpt>
      <trkpt lat="45.67089" lon="4.6176">
        <ele>442.6</ele>
        <time>2025-11-11T10:04:44Z</time>
      </trkpt>
      <trkpt lat="45.67094" lon="4.61754">
        <ele>442.6</ele>
        <time>2025-11-11T10:04:45Z</time>
      </trkpt>
      <trkpt lat="45.67099" lon="4.61749">
        <ele>442.6</ele>
        <time>2025-11-11T10:04:46Z</time>
      </trkpt>
      <trkpt lat="45.67104" lon="4.61744">
        <ele>442.4</ele>
        <time>2025-11-11T10:04:47Z</time>
      </trkpt>
      <trkpt lat="45.67109" lon="4.6174">
        <ele>442.2</ele>
        <time>2025-11-11T10:04:48Z</time>
      </trkpt>
      <trkpt lat="45.67114" lon="4.61735">
        <ele>442</ele>
        <time>2025-11-11T10:04:49Z</time>
      </trkpt>
      <trkpt lat="45.6712" lon="4.6173">
        <ele>441.8</ele>
        <time>2025-11-11T10:04:50Z</time>
      </trkpt>
      <trkpt lat="45.67125" lon="4.61725">
        <ele>441.6</ele>
        <time>2025-11-11T10:04:51Z</time>
      </trkpt>
      <trkpt lat="45.67131" lon="4.61721">
        <ele>441.2</ele>
        <time>2025-11-11T10:04:52Z</time>
      </trkpt>
      <trkpt lat="45.67138" lon="4.61717">
        <ele>440.8</ele>
        <time>2025-11-11T10:04:53Z</time>
      </trkpt>
      <trkpt lat="45.67144" lon="4.61714">
        <ele>440.6</ele>
        <time>2025-11-11T10:04:54Z</time>
      </trkpt>
      <trkpt lat="45.6715" lon="4.61711">
        <ele>440.2</ele>
        <time>2025-11-11T10:04:55Z</time>
      </trkpt>
      <trkpt lat="45.67157" lon="4.61708">
        <ele>440</ele>
        <time>2025-11-11T10:04:56Z</time>
      </trkpt>
      <trkpt lat="45.67163" lon="4.61704">
        <ele>439.8</ele>
        <time>2025-11-11T10:04:57Z</time>
      </trkpt>
      <trkpt lat="45.67169" lon="4.617">
        <ele>439.6</ele>
        <time>2025-11-11T10:04:58Z</time>
      </trkpt>
      <trkpt lat="45.67175" lon="4.61696">
        <ele>439.2</ele>
        <time>2025-11-11T10:04:59Z</time>
      </trkpt>
      <trkpt lat="45.6718" lon="4.61692">
        <ele>439</ele>
        <time>2025-11-11T10:05:00Z</time>
      </trkpt>
      <trkpt lat="45.67186" lon="4.61688">
        <ele>438.6</ele>
        <time>2025-11-11T10:05:01Z</time>
      </trkpt>
      <trkpt lat="45.67192" lon="4.61685">
        <ele>438.2</ele>
        <time>2025-11-11T10:05:02Z</time>
      </trkpt>
      <trkpt lat="45.67198" lon="4.61683">
        <ele>437.8</ele>
        <time>2025-11-11T10:05:03Z</time>
      </trkpt>
      <trkpt lat="45.67204" lon="4.61682">
        <ele>437.6</ele>
        <time>2025-11-11T10:05:04Z</time>
      </trkpt>
      <trkpt lat="45.67211" lon="4.61681">
        <ele>437.2</ele>
        <time>2025-11-11T10:05:05Z</time>
      </trkpt>
      <trkpt lat="45.67218" lon="4.61681">
        <ele>437</ele>
        <time>2025-11-11T10:05:06Z</time>
      </trkpt>
      <trkpt lat="45.67225" lon="4.61682">
        <ele>436.8</ele>
        <time>2025-11-11T10:05:07Z</time>
      </trkpt>
      <trkpt lat="45.67231" lon="4.61684">
        <ele>436.6</ele>
        <time>2025-11-11T10:05:08Z</time>
      </trkpt>
      <trkpt lat="45.67238" lon="4.61686">
        <ele>436.6</ele>
        <time>2025-11-11T10:05:09Z</time>
      </trkpt>
      <trkpt lat="45.67244" lon="4.61688">
        <ele>436.4</ele>
        <time>2025-11-11T10:05:10Z</time>
      </trkpt>
      <trkpt lat="45.67251" lon="4.6169">
        <ele>436.2</ele>
        <time>2025-11-11T10:05:11Z</time>
      </trkpt>
      <trkpt lat="45.67258" lon="4.61692">
        <ele>436</ele>
        <time>2025-11-11T10:05:12Z</time>
      </trkpt>
      <trkpt lat="45.67264" lon="4.61695">
        <ele>435.6</ele>
        <time>2025-11-11T10:05:13Z</time>
      </trkpt>
      <trkpt lat="45.67271" lon="4.61698">
        <ele>435.2</ele>
        <time>2025-11-11T10:05:14Z</time>
      </trkpt>
      <trkpt lat="45.67277" lon="4.617">
        <ele>435</ele>
        <time>2025-11-11T10:05:15Z</time>
      </trkpt>
      <trkpt lat="45.67284" lon="4.61701">
        <ele>434.8</ele>
        <time>2025-11-11T10:05:16Z</time>
      </trkpt>
      <trkpt lat="45.6729" lon="4.61702">
        <ele>434.4</ele>
        <time>2025-11-11T10:05:17Z</time>
      </trkpt>
      <trkpt lat="45.67297" lon="4.61701">
        <ele>434.4</ele>
        <time>2025-11-11T10:05:18Z</time>
      </trkpt>
      <trkpt lat="45.67303" lon="4.617">
        <ele>434.2</ele>
        <time>2025-11-11T10:05:19Z</time>
      </trkpt>
      <trkpt lat="45.6731" lon="4.61699">
        <ele>434</ele>
        <time>2025-11-11T10:05:20Z</time>
      </trkpt>
      <trkpt lat="45.67316" lon="4.61696">
        <ele>434</ele>
        <time>2025-11-11T10:05:21Z</time>
      </trkpt>
      <trkpt lat="45.67321" lon="4.61693">
        <ele>434</ele>
        <time>2025-11-11T10:05:22Z</time>
      </trkpt>
      <trkpt lat="45.67326" lon="4.61689">
        <ele>433.8</ele>
        <time>2025-11-11T10:05:23Z</time>
      </trkpt>
      <trkpt lat="45.67332" lon="4.61685">
        <ele>433.8</ele>
        <time>2025-11-11T10:05:24Z</time>
      </trkpt>
      <trkpt lat="45.67337" lon="4.61679">
        <ele>433.8</ele>
        <time>2025-11-11T10:05:25Z</time>
      </trkpt>
      <trkpt lat="45.67341" lon="4.61673">
        <ele>433.8</ele>
        <time>2025-11-11T10:05:26Z</time>
      </trkpt>
      <trkpt lat="45.67345" lon="4.61666">
        <ele>433.6</ele>
        <time>2025-11-11T10:05:27Z</time>
      </trkpt>
      <trkpt lat="45.67349" lon="4.61658">
        <ele>433.6</ele>
        <time>2025-11-11T10:05:28Z</time>
      </trkpt>
      <trkpt lat="45.67352" lon="4.6165">
        <ele>433.4</ele>
        <time>2025-11-11T10:05:29Z</time>
      </trkpt>
      <trkpt lat="45.67354" lon="4.61642">
        <ele>433</ele>
        <time>2025-11-11T10:05:30Z</time>
      </trkpt>
      <trkpt lat="45.67356" lon="4.61633">
        <ele>432.8</ele>
        <time>2025-11-11T10:05:31Z</time>
      </trkpt>
      <trkpt lat="45.67357" lon="4.61623">
        <ele>432.4</ele>
        <time>2025-11-11T10:05:32Z</time>
      </trkpt>
      <trkpt lat="45.67358" lon="4.61614">
        <ele>432</ele>
        <time>2025-11-11T10:05:33Z</time>
      </trkpt>
      <trkpt lat="45.67358" lon="4.61605">
        <ele>431.8</ele>
        <time>2025-11-11T10:05:34Z</time>
      </trkpt>
      <trkpt lat="45.67358" lon="4.61596">
        <ele>431.4</ele>
        <time>2025-11-11T10:05:35Z</time>
      </trkpt>
      <trkpt lat="45.67357" lon="4.61587">
        <ele>431</ele>
        <time>2025-11-11T10:05:36Z</time>
      </trkpt>
      <trkpt lat="45.67355" lon="4.61578">
        <ele>430.8</ele>
        <time>2025-11-11T10:05:37Z</time>
      </trkpt>
      <trkpt lat="45.67353" lon="4.61569">
        <ele>430.6</ele>
        <time>2025-11-11T10:05:38Z</time>
      </trkpt>
      <trkpt lat="45.67352" lon="4.6156">
        <ele>430.4</ele>
        <time>2025-11-11T10:05:39Z</time>
      </trkpt>
      <trkpt lat="45.67351" lon="4.61551">
        <ele>430.2</ele>
        <time>2025-11-11T10:05:40Z</time>
      </trkpt>
      <trkpt lat="45.6735" lon="4.61541">
        <ele>430.2</ele>
        <time>2025-11-11T10:05:41Z</time>
      </trkpt>
      <trkpt lat="45.67349" lon="4.61532">
        <ele>430</ele>
        <time>2025-11-11T10:05:42Z</time>
      </trkpt>
      <trkpt lat="45.67347" lon="4.61523">
        <ele>429.8</ele>
        <time>2025-11-11T10:05:43Z</time>
      </trkpt>
      <trkpt lat="45.67346" lon="4.61514">
        <ele>429.6</ele>
        <time>2025-11-11T10:05:44Z</time>
      </trkpt>
      <trkpt lat="45.67344" lon="4.61505">
        <ele>429.6</ele>
        <time>2025-11-11T10:05:45Z</time>
      </trkpt>
      <trkpt lat="45.67343" lon="4.61496">
        <ele>429.4</ele>
        <time>2025-11-11T10:05:46Z</time>
      </trkpt>
      <trkpt lat="45.67342" lon="4.61488">
        <ele>429.2</ele>
        <time>2025-11-11T10:05:47Z</time>
      </trkpt>
      <trkpt lat="45.67341" lon="4.61479">
        <ele>429</ele>
        <time>2025-11-11T10:05:48Z</time>
      </trkpt>
      <trkpt lat="45.6734" lon="4.6147">
        <ele>428.8</ele>
        <time>2025-11-11T10:05:49Z</time>
      </trkpt>
      <trkpt lat="45.67338" lon="4.61461">
        <ele>428.6</ele>
        <time>2025-11-11T10:05:50Z</time>
      </trkpt>
      <trkpt lat="45.67337" lon="4.61453">
        <ele>428.4</ele>
        <time>2025-11-11T10:05:51Z</time>
      </trkpt>
      <trkpt lat="45.67336" lon="4.61444">
        <ele>428.4</ele>
        <time>2025-11-11T10:05:52Z</time>
      </trkpt>
      <trkpt lat="45.67334" lon="4.61436">
        <ele>428.2</ele>
        <time>2025-11-11T10:05:53Z</time>
      </trkpt>
      <trkpt lat="45.67333" lon="4.61427">
        <ele>428</ele>
        <time>2025-11-11T10:05:54Z</time>
      </trkpt>
      <trkpt lat="45.67332" lon="4.61419">
        <ele>427.8</ele>
        <time>2025-11-11T10:05:55Z</time>
      </trkpt>
      <trkpt lat="45.67331" lon="4.6141">
        <ele>427.6</ele>
        <time>2025-11-11T10:05:56Z</time>
      </trkpt>
      <trkpt lat="45.67331" lon="4.61401">
        <ele>427.4</ele>
        <time>2025-11-11T10:05:57Z</time>
      </trkpt>
      <trkpt lat="45.6733" lon="4.61392">
        <ele>427.2</ele>
        <time>2025-11-11T10:05:58Z</time>
      </trkpt>
      <trkpt lat="45.67331" lon="4.61384">
        <ele>427</ele>
        <time>2025-11-11T10:05:59Z</time>
      </trkpt>
      <trkpt lat="45.67332" lon="4.61375">
        <ele>426.8</ele>
        <time>2025-11-11T10:06:00Z</time>
      </trkpt>
      <trkpt lat="45.67334" lon="4.61367">
        <ele>426.6</ele>
        <time>2025-11-11T10:06:01Z</time>
      </trkpt>
      <trkpt lat="45.67337" lon="4.6136">
        <ele>426.4</ele>
        <time>2025-11-11T10:06:02Z</time>
      </trkpt>
      <trkpt lat="45.67339" lon="4.61354">
        <ele>426.2</ele>
        <time>2025-11-11T10:06:03Z</time>
      </trkpt>
      <trkpt lat="45.67343" lon="4.61346">
        <ele>426</ele>
        <time>2025-11-11T10:06:04Z</time>
      </trkpt>
      <trkpt lat="45.67346" lon="4.61339">
        <ele>425.8</ele>
        <time>2025-11-11T10:06:05Z</time>
      </trkpt>
      <trkpt lat="45.6735" lon="4.61332">
        <ele>425.4</ele>
        <time>2025-11-11T10:06:06Z</time>
      </trkpt>
      <trkpt lat="45.67354" lon="4.61326">
        <ele>425.2</ele>
        <time>2025-11-11T10:06:07Z</time>
      </trkpt>
      <trkpt lat="45.6736" lon="4.6132">
        <ele>424.8</ele>
        <time>2025-11-11T10:06:08Z</time>
      </trkpt>
      <trkpt lat="45.67366" lon="4.61314">
        <ele>424.6</ele>
        <time>2025-11-11T10:06:09Z</time>
      </trkpt>
      <trkpt lat="45.67372" lon="4.61308">
        <ele>424.2</ele>
        <time>2025-11-11T10:06:10Z</time>
      </trkpt>
      <trkpt lat="45.67378" lon="4.61302">
        <ele>424</ele>
        <time>2025-11-11T10:06:11Z</time>
      </trkpt>
      <trkpt lat="45.67383" lon="4.61295">
        <ele>424</ele>
        <time>2025-11-11T10:06:12Z</time>
      </trkpt>
      <trkpt lat="45.67388" lon="4.61289">
        <ele>423.8</ele>
        <time>2025-11-11T10:06:13Z</time>
      </trkpt>
      <trkpt lat="45.67392" lon="4.61283">
        <ele>423.6</ele>
        <time>2025-11-11T10:06:14Z</time>
      </trkpt>
      <trkpt lat="45.67396" lon="4.61276">
        <ele>423.6</ele>
        <time>2025-11-11T10:06:15Z</time>
      </trkpt>
      <trkpt lat="45.67399" lon="4.61269">
        <ele>423.6</ele>
        <time>2025-11-11T10:06:16Z</time>
      </trkpt>
      <trkpt lat="45.67401" lon="4.61261">
        <ele>423.4</ele>
        <time>2025-11-11T10:06:17Z</time>
      </trkpt>
      <trkpt lat="45.67403" lon="4.61252">
        <ele>423.2</ele>
        <time>2025-11-11T10:06:18Z</time>
      </trkpt>
      <trkpt lat="45.67404" lon="4.61242">
        <ele>423.2</ele>
        <time>2025-11-11T10:06:19Z</time>
      </trkpt>
      <trkpt lat="45.67406" lon="4.61233">
        <ele>423</ele>
        <time>2025-11-11T10:06:20Z</time>
      </trkpt>
      <trkpt lat="45.67407" lon="4.61225">
        <ele>422.6</ele>
        <time>2025-11-11T10:06:21Z</time>
      </trkpt>
      <trkpt lat="45.67407" lon="4.61215">
        <ele>422.4</ele>
        <time>2025-11-11T10:06:22Z</time>
      </trkpt>
      <trkpt lat="45.67407" lon="4.61206">
        <ele>422.2</ele>
        <time>2025-11-11T10:06:23Z</time>
      </trkpt>
      <trkpt lat="45.67406" lon="4.61197">
        <ele>421.8</ele>
        <time>2025-11-11T10:06:24Z</time>
      </trkpt>
      <trkpt lat="45.67406" lon="4.61187">
        <ele>421.6</ele>
        <time>2025-11-11T10:06:25Z</time>
      </trkpt>
      <trkpt lat="45.67406" lon="4.61178">
        <ele>421.4</ele>
        <time>2025-11-11T10:06:26Z</time>
      </trkpt>
      <trkpt lat="45.67406" lon="4.6117">
        <ele>421</ele>
        <time>2025-11-11T10:06:27Z</time>
      </trkpt>
      <trkpt lat="45.67406" lon="4.61161">
        <ele>420.8</ele>
        <time>2025-11-11T10:06:28Z</time>
      </trkpt>
      <trkpt lat="45.67407" lon="4.61153">
        <ele>420.6</ele>
        <time>2025-11-11T10:06:29Z</time>
      </trkpt>
      <trkpt lat="45.67409" lon="4.61144">
        <ele>420.4</ele>
        <time>2025-11-11T10:06:30Z</time>
      </trkpt>
      <trkpt lat="45.67411" lon="4.61136">
        <ele>420</ele>
        <time>2025-11-11T10:06:31Z</time>
      </trkpt>
      <trkpt lat="45.67415" lon="4.61128">
        <ele>419.8</ele>
        <time>2025-11-11T10:06:32Z</time>
      </trkpt>
      <trkpt lat="45.67419" lon="4.61122">
        <ele>419.4</ele>
        <time>2025-11-11T10:06:33Z</time>
      </trkpt>
      <trkpt lat="45.67423" lon="4.61116">
        <ele>419.2</ele>
        <time>2025-11-11T10:06:34Z</time>
      </trkpt>
      <trkpt lat="45.67426" lon="4.6111">
        <ele>419</ele>
        <time>2025-11-11T10:06:35Z</time>
      </trkpt>
      <trkpt lat="45.67429" lon="4.61105">
        <ele>419.2</ele>
        <time>2025-11-11T10:06:36Z</time>
      </trkpt>
      <trkpt lat="45.67432" lon="4.61101">
        <ele>419.6</ele>
        <time>2025-11-11T10:06:37Z</time>
      </trkpt>
      <trkpt lat="45.67434" lon="4.61098">
        <ele>420</ele>
        <time>2025-11-11T10:06:38Z</time>
      </trkpt>
      <trkpt lat="45.67436" lon="4.61096">
        <ele>420.6</ele>
        <time>2025-11-11T10:06:39Z</time>
      </trkpt>
      <trkpt lat="45.67436" lon="4.61095">
        <ele>421.2</ele>
        <time>2025-11-11T10:06:40Z</time>
      </trkpt>
      <trkpt lat="45.67436" lon="4.61095">
        <ele>421.8</ele>
        <time>2025-11-11T10:06:41Z</time>
      </trkpt>
      <trkpt lat="45.67436" lon="4.61095">
        <ele>422</ele>
        <time>2025-11-11T10:06:42Z</time>
      </trkpt>
      <trkpt lat="45.67436" lon="4.61095">
        <ele>422.4</ele>
        <time>2025-11-11T10:06:43Z</time>
      </trkpt>
      <trkpt lat="45.67436" lon="4.61095">
        <ele>422.6</ele>
        <time>2025-11-11T10:06:44Z</time>
      </trkpt>
      <trkpt lat="45.67436" lon="4.61095">
        <ele>422.6</ele>
        <time>2025-11-11T10:06:45Z</time>
      </trkpt>
      <trkpt lat="45.67436" lon="4.61095">
        <ele>422.6</ele>
        <time>2025-11-11T10:06:46Z</time>
      </trkpt>
      <trkpt lat="45.67436" lon="4.61095">
        <ele>422.6</ele>
        <time>2025-11-11T10:06:47Z</time>
      </trkpt>
      <trkpt lat="45.67436" lon="4.61095">
        <ele>422.6</ele>
        <time>2025-11-11T10:06:48Z</time>
      </trkpt>
      <trkpt lat="45.67436" lon="4.61095">
        <ele>422.6</ele>
        <time>2025-11-11T10:06:49Z</time>
      </trkpt>
      <trkpt lat="45.67436" lon="4.61095">
        <ele>422.6</ele>
        <time>2025-11-11T10:06:50Z</time>
      </trkpt>
      <trkpt lat="45.67436" lon="4.61095">
        <ele>422.6</ele>
        <time>2025-11-11T10:06:51Z</time>
      </trkpt>
      <trkpt lat="45.67437" lon="4.61095">
        <ele>422.6</ele>
        <time>2025-11-11T10:06:52Z</time>
      </trkpt>
      <trkpt lat="45.67438" lon="4.61094">
        <ele>422.6</ele>
        <time>2025-11-11T10:06:53Z</time>
      </trkpt>
      <trkpt lat="45.67439" lon="4.61093">
        <ele>422.6</ele>
        <time>2025-11-11T10:06:54Z</time>
      </trkpt>
      <trkpt lat="45.67442" lon="4.61089">
        <ele>422.4</ele>
        <time>2025-11-11T10:06:55Z</time>
      </trkpt>
      <trkpt lat="45.67445" lon="4.61084">
        <ele>422.2</ele>
        <time>2025-11-11T10:06:56Z</time>
      </trkpt>
      <trkpt lat="45.67448" lon="4.61079">
        <ele>422.2</ele>
        <time>2025-11-11T10:06:57Z</time>
      </trkpt>
      <trkpt lat="45.6745" lon="4.61074">
        <ele>422</ele>
        <time>2025-11-11T10:06:58Z</time>
      </trkpt>
      <trkpt lat="45.67453" lon="4.61071">
        <ele>422.2</ele>
        <time>2025-11-11T10:06:59Z</time>
      </trkpt>
      <trkpt lat="45.67456" lon="4.61069">
        <ele>422.2</ele>
        <time>2025-11-11T10:07:00Z</time>
      </trkpt>
      <trkpt lat="45.67459" lon="4.61068">
        <ele>422.4</ele>
        <time>2025-11-11T10:07:01Z</time>
      </trkpt>
      <trkpt lat="45.67462" lon="4.61068">
        <ele>422.6</ele>
        <time>2025-11-11T10:07:02Z</time>
      </trkpt>
      <trkpt lat="45.67466" lon="4.61069">
        <ele>422.6</ele>
        <time>2025-11-11T10:07:03Z</time>
      </trkpt>
      <trkpt lat="45.67469" lon="4.6107">
        <ele>422.6</ele>
        <time>2025-11-11T10:07:04Z</time>
      </trkpt>
      <trkpt lat="45.67472" lon="4.61071">
        <ele>422.6</ele>
        <time>2025-11-11T10:07:05Z</time>
      </trkpt>
      <trkpt lat="45.67475" lon="4.61072">
        <ele>422.6</ele>
        <time>2025-11-11T10:07:06Z</time>
      </trkpt>
      <trkpt lat="45.67478" lon="4.61073">
        <ele>422.6</ele>
        <time>2025-11-11T10:07:07Z</time>
      </trkpt>
      <trkpt lat="45.67481" lon="4.61074">
        <ele>422.4</ele>
        <time>2025-11-11T10:07:08Z</time>
      </trkpt>
      <trkpt lat="45.67484" lon="4.61076">
        <ele>422.4</ele>
        <time>2025-11-11T10:07:09Z</time>
      </trkpt>
      <trkpt lat="45.67488" lon="4.61078">
        <ele>422.2</ele>
        <time>2025-11-11T10:07:10Z</time>
      </trkpt>
      <trkpt lat="45.67491" lon="4.61079">
        <ele>422</ele>
        <time>2025-11-11T10:07:11Z</time>
      </trkpt>
      <trkpt lat="45.67494" lon="4.61081">
        <ele>421.8</ele>
        <time>2025-11-11T10:07:12Z</time>
      </trkpt>
      <trkpt lat="45.67497" lon="4.61083">
        <ele>421.6</ele>
        <time>2025-11-11T10:07:13Z</time>
      </trkpt>
      <trkpt lat="45.675" lon="4.61085">
        <ele>421.4</ele>
        <time>2025-11-11T10:07:14Z</time>
      </trkpt>
      <trkpt lat="45.67504" lon="4.61087">
        <ele>421.4</ele>
        <time>2025-11-11T10:07:15Z</time>
      </trkpt>
      <trkpt lat="45.67508" lon="4.6109">
        <ele>421.2</ele>
        <time>2025-11-11T10:07:16Z</time>
      </trkpt>
      <trkpt lat="45.67511" lon="4.61094">
        <ele>421</ele>
        <time>2025-11-11T10:07:17Z</time>
      </trkpt>
      <trkpt lat="45.67515" lon="4.61097">
        <ele>420.8</ele>
        <time>2025-11-11T10:07:18Z</time>
      </trkpt>
      <trkpt lat="45.67519" lon="4.611">
        <ele>420.8</ele>
        <time>2025-11-11T10:07:19Z</time>
      </trkpt>
      <trkpt lat="45.67522" lon="4.61104">
        <ele>420.6</ele>
        <time>2025-11-11T10:07:20Z</time>
      </trkpt>
      <trkpt lat="45.67525" lon="4.61108">
        <ele>420.4</ele>
        <time>2025-11-11T10:07:21Z</time>
      </trkpt>
      <trkpt lat="45.67529" lon="4.61112">
        <ele>420.2</ele>
        <time>2025-11-11T10:07:22Z</time>
      </trkpt>
      <trkpt lat="45.67532" lon="4.61117">
        <ele>420</ele>
        <time>2025-11-11T10:07:23Z</time>
      </trkpt>
      <trkpt lat="45.67535" lon="4.61122">
        <ele>419.6</ele>
        <time>2025-11-11T10:07:24Z</time>
      </trkpt>
      <trkpt lat="45.67539" lon="4.61129">
        <ele>419.4</ele>
        <time>2025-11-11T10:07:25Z</time>
      </trkpt>
      <trkpt lat="45.67542" lon="4.61136">
        <ele>419</ele>
        <time>2025-11-11T10:07:26Z</time>
      </trkpt>
      <trkpt lat="45.67545" lon="4.61144">
        <ele>418.8</ele>
        <time>2025-11-11T10:07:27Z</time>
      </trkpt>
      <trkpt lat="45.67548" lon="4.61153">
        <ele>418.4</ele>
        <time>2025-11-11T10:07:28Z</time>
      </trkpt>
      <trkpt lat="45.67551" lon="4.61162">
        <ele>418</ele>
        <time>2025-11-11T10:07:29Z</time>
      </trkpt>
      <trkpt lat="45.67553" lon="4.61171">
        <ele>417.8</ele>
        <time>2025-11-11T10:07:30Z</time>
      </trkpt>
      <trkpt lat="45.67554" lon="4.61181">
        <ele>417.4</ele>
        <time>2025-11-11T10:07:31Z</time>
      </trkpt>
      <trkpt lat="45.67556" lon="4.61191">
        <ele>417</ele>
        <time>2025-11-11T10:07:32Z</time>
      </trkpt>
      <trkpt lat="45.67556" lon="4.61201">
        <ele>416.8</ele>
        <time>2025-11-11T10:07:33Z</time>
      </trkpt>
      <trkpt lat="45.67556" lon="4.6121">
        <ele>416.4</ele>
        <time>2025-11-11T10:07:34Z</time>
      </trkpt>
      <trkpt lat="45.67555" lon="4.61218">
        <ele>416.2</ele>
        <time>2025-11-11T10:07:35Z</time>
      </trkpt>
      <trkpt lat="45.67554" lon="4.61226">
        <ele>416.2</ele>
        <time>2025-11-11T10:07:36Z</time>
      </trkpt>
      <trkpt lat="45.67553" lon="4.61233">
        <ele>416.2</ele>
        <time>2025-11-11T10:07:37Z</time>
      </trkpt>
      <trkpt lat="45.67553" lon="4.61239">
        <ele>416.4</ele>
        <time>2025-11-11T10:07:38Z</time>
      </trkpt>
      <trkpt lat="45.67552" lon="4.61245">
        <ele>416.6</ele>
        <time>2025-11-11T10:07:39Z</time>
      </trkpt>
      <trkpt lat="45.67551" lon="4.61251">
        <ele>417</ele>
        <time>2025-11-11T10:07:40Z</time>
      </trkpt>
      <trkpt lat="45.6755" lon="4.61256">
        <ele>417.2</ele>
        <time>2025-11-11T10:07:41Z</time>
      </trkpt>
      <trkpt lat="45.67549" lon="4.61261">
        <ele>417.6</ele>
        <time>2025-11-11T10:07:42Z</time>
      </trkpt>
      <trkpt lat="45.67548" lon="4.61266">
        <ele>417.8</ele>
        <time>2025-11-11T10:07:43Z</time>
      </trkpt>
      <trkpt lat="45.67547" lon="4.61271">
        <ele>418.2</ele>
        <time>2025-11-11T10:07:44Z</time>
      </trkpt>
      <trkpt lat="45.67546" lon="4.61276">
        <ele>418.4</ele>
        <time>2025-11-11T10:07:45Z</time>
      </trkpt>
      <trkpt lat="45.67545" lon="4.61281">
        <ele>418.6</ele>
        <time>2025-11-11T10:07:46Z</time>
      </trkpt>
      <trkpt lat="45.67543" lon="4.61286">
        <ele>418.8</ele>
        <time>2025-11-11T10:07:47Z</time>
      </trkpt>
      <trkpt lat="45.67542" lon="4.61291">
        <ele>419</ele>
        <time>2025-11-11T10:07:48Z</time>
      </trkpt>
      <trkpt lat="45.6754" lon="4.61296">
        <ele>419</ele>
        <time>2025-11-11T10:07:49Z</time>
      </trkpt>
      <trkpt lat="45.67539" lon="4.61302">
        <ele>419.2</ele>
        <time>2025-11-11T10:07:50Z</time>
      </trkpt>
      <trkpt lat="45.67538" lon="4.61307">
        <ele>419.4</ele>
        <time>2025-11-11T10:07:51Z</time>
      </trkpt>
      <trkpt lat="45.67537" lon="4.61312">
        <ele>419.6</ele>
        <time>2025-11-11T10:07:52Z</time>
      </trkpt>
      <trkpt lat="45.67537" lon="4.61317">
        <ele>419.8</ele>
        <time>2025-11-11T10:07:53Z</time>
      </trkpt>
      <trkpt lat="45.67536" lon="4.61322">
        <ele>420</ele>
        <time>2025-11-11T10:07:54Z</time>
      </trkpt>
      <trkpt lat="45.67536" lon="4.61326">
        <ele>420.4</ele>
        <time>2025-11-11T10:07:55Z</time>
      </trkpt>
      <trkpt lat="45.67536" lon="4.6133">
        <ele>420.6</ele>
        <time>2025-11-11T10:07:56Z</time>
      </trkpt>
      <trkpt lat="45.67535" lon="4.61333">
        <ele>421</ele>
        <time>2025-11-11T10:07:57Z</time>
      </trkpt>
      <trkpt lat="45.67535" lon="4.61337">
        <ele>421.4</ele>
        <time>2025-11-11T10:07:58Z</time>
      </trkpt>
      <trkpt lat="45.67534" lon="4.61341">
        <ele>421.8</ele>
        <time>2025-11-11T10:07:59Z</time>
      </trkpt>
      <trkpt lat="45.67534" lon="4.61344">
        <ele>422.2</ele>
        <time>2025-11-11T10:08:00Z</time>
      </trkpt>
      <trkpt lat="45.67533" lon="4.61347">
        <ele>422.8</ele>
        <time>2025-11-11T10:08:01Z</time>
      </trkpt>
      <trkpt lat="45.67533" lon="4.6135">
        <ele>423.2</ele>
        <time>2025-11-11T10:08:02Z</time>
      </trkpt>
      <trkpt lat="45.67533" lon="4.61353">
        <ele>423.8</ele>
        <time>2025-11-11T10:08:03Z</time>
      </trkpt>
      <trkpt lat="45.67533" lon="4.61357">
        <ele>424.2</ele>
        <time>2025-11-11T10:08:04Z</time>
      </trkpt>
      <trkpt lat="45.67532" lon="4.61361">
        <ele>424.6</ele>
        <time>2025-11-11T10:08:05Z</time>
      </trkpt>
      <trkpt lat="45.67532" lon="4.61365">
        <ele>425</ele>
        <time>2025-11-11T10:08:06Z</time>
      </trkpt>
      <trkpt lat="45.67532" lon="4.6137">
        <ele>425.4</ele>
        <time>2025-11-11T10:08:07Z</time>
      </trkpt>
      <trkpt lat="45.67532" lon="4.61374">
        <ele>425.8</ele>
        <time>2025-11-11T10:08:08Z</time>
      </trkpt>
      <trkpt lat="45.67531" lon="4.61378">
        <ele>426.2</ele>
        <time>2025-11-11T10:08:09Z</time>
      </trkpt>
      <trkpt lat="45.6753" lon="4.61382">
        <ele>426.6</ele>
        <time>2025-11-11T10:08:10Z</time>
      </trkpt>
      <trkpt lat="45.67529" lon="4.61386">
        <ele>426.8</ele>
        <time>2025-11-11T10:08:11Z</time>
      </trkpt>
      <trkpt lat="45.67529" lon="4.6139">
        <ele>427</ele>
        <time>2025-11-11T10:08:12Z</time>
      </trkpt>
      <trkpt lat="45.67528" lon="4.61395">
        <ele>427.2</ele>
        <time>2025-11-11T10:08:13Z</time>
      </trkpt>
      <trkpt lat="45.67527" lon="4.614">
        <ele>427.4</ele>
        <time>2025-11-11T10:08:14Z</time>
      </trkpt>
      <trkpt lat="45.67526" lon="4.61405">
        <ele>427.4</ele>
        <time>2025-11-11T10:08:15Z</time>
      </trkpt>
      <trkpt lat="45.67526" lon="4.6141">
        <ele>427.6</ele>
        <time>2025-11-11T10:08:16Z</time>
      </trkpt>
      <trkpt lat="45.67525" lon="4.61414">
        <ele>427.6</ele>
        <time>2025-11-11T10:08:17Z</time>
      </trkpt>
      <trkpt lat="45.67524" lon="4.61418">
        <ele>427.8</ele>
        <time>2025-11-11T10:08:18Z</time>
      </trkpt>
      <trkpt lat="45.67525" lon="4.61422">
        <ele>428</ele>
        <time>2025-11-11T10:08:19Z</time>
      </trkpt>
      <trkpt lat="45.67526" lon="4.61425">
        <ele>428</ele>
        <time>2025-11-11T10:08:20Z</time>
      </trkpt>
      <trkpt lat="45.67529" lon="4.61427">
        <ele>428.2</ele>
        <time>2025-11-11T10:08:21Z</time>
      </trkpt>
      <trkpt lat="45.67532" lon="4.61427">
        <ele>428.4</ele>
        <time>2025-11-11T10:08:22Z</time>
      </trkpt>
      <trkpt lat="45.67535" lon="4.61425">
        <ele>428.4</ele>
        <time>2025-11-11T10:08:23Z</time>
      </trkpt>
      <trkpt lat="45.67536" lon="4.61422">
        <ele>428.6</ele>
        <time>2025-11-11T10:08:24Z</time>
      </trkpt>
      <trkpt lat="45.67538" lon="4.61419">
        <ele>428.8</ele>
        <time>2025-11-11T10:08:25Z</time>
      </trkpt>
      <trkpt lat="45.67539" lon="4.61416">
        <ele>429</ele>
        <time>2025-11-11T10:08:26Z</time>
      </trkpt>
      <trkpt lat="45.6754" lon="4.61413">
        <ele>429.4</ele>
        <time>2025-11-11T10:08:27Z</time>
      </trkpt>
      <trkpt lat="45.6754" lon="4.6141">
        <ele>429.8</ele>
        <time>2025-11-11T10:08:28Z</time>
      </trkpt>
      <trkpt lat="45.67541" lon="4.61406">
        <ele>430.2</ele>
        <time>2025-11-11T10:08:29Z</time>
      </trkpt>
      <trkpt lat="45.67542" lon="4.61403">
        <ele>430.8</ele>
        <time>2025-11-11T10:08:30Z</time>
      </trkpt>
      <trkpt lat="45.67543" lon="4.61401">
        <ele>431.2</ele>
        <time>2025-11-11T10:08:31Z</time>
      </trkpt>
      <trkpt lat="45.67545" lon="4.61398">
        <ele>431.6</ele>
        <time>2025-11-11T10:08:32Z</time>
      </trkpt>
      <trkpt lat="45.67547" lon="4.61395">
        <ele>432</ele>
        <time>2025-11-11T10:08:33Z</time>
      </trkpt>
      <trkpt lat="45.67549" lon="4.61393">
        <ele>432.4</ele>
        <time>2025-11-11T10:08:34Z</time>
      </trkpt>
      <trkpt lat="45.67552" lon="4.61392">
        <ele>432.8</ele>
        <time>2025-11-11T10:08:35Z</time>
      </trkpt>
      <trkpt lat="45.67554" lon="4.61392">
        <ele>433</ele>
        <time>2025-11-11T10:08:36Z</time>
      </trkpt>
      <trkpt lat="45.67556" lon="4.61392">
        <ele>433.4</ele>
        <time>2025-11-11T10:08:37Z</time>
      </trkpt>
      <trkpt lat="45.67559" lon="4.61391">
        <ele>433.8</ele>
        <time>2025-11-11T10:08:38Z</time>
      </trkpt>
      <trkpt lat="45.67561" lon="4.61391">
        <ele>434.2</ele>
        <time>2025-11-11T10:08:39Z</time>
      </trkpt>
      <trkpt lat="45.67564" lon="4.61391">
        <ele>434.6</ele>
        <time>2025-11-11T10:08:40Z</time>
      </trkpt>
      <trkpt lat="45.67566" lon="4.6139">
        <ele>435</ele>
        <time>2025-11-11T10:08:41Z</time>
      </trkpt>
      <trkpt lat="45.67568" lon="4.6139">
        <ele>435.4</ele>
        <time>2025-11-11T10:08:42Z</time>
      </trkpt>
      <trkpt lat="45.67571" lon="4.6139">
        <ele>435.8</ele>
        <time>2025-11-11T10:08:43Z</time>
      </trkpt>
      <trkpt lat="45.67573" lon="4.61389">
        <ele>436.4</ele>
        <time>2025-11-11T10:08:44Z</time>
      </trkpt>
      <trkpt lat="45.67575" lon="4.61389">
        <ele>436.8</ele>
        <time>2025-11-11T10:08:45Z</time>
      </trkpt>
      <trkpt lat="45.67577" lon="4.61388">
        <ele>437.4</ele>
        <time>2025-11-11T10:08:46Z</time>
      </trkpt>
      <trkpt lat="45.67579" lon="4.61387">
        <ele>438</ele>
        <time>2025-11-11T10:08:47Z</time>
      </trkpt>
      <trkpt lat="45.67581" lon="4.61386">
        <ele>438.4</ele>
        <time>2025-11-11T10:08:48Z</time>
      </trkpt>
      <trkpt lat="45.67584" lon="4.61385">
        <ele>439</ele>
        <time>2025-11-11T10:08:49Z</time>
      </trkpt>
      <trkpt lat="45.67586" lon="4.61384">
        <ele>439.6</ele>
        <time>2025-11-11T10:08:50Z</time>
      </trkpt>
      <trkpt lat="45.67588" lon="4.61383">
        <ele>440</ele>
        <time>2025-11-11T10:08:51Z</time>
      </trkpt>
      <trkpt lat="45.6759" lon="4.61382">
        <ele>440.6</ele>
        <time>2025-11-11T10:08:52Z</time>
      </trkpt>
      <trkpt lat="45.67592" lon="4.61381">
        <ele>441.4</ele>
        <time>2025-11-11T10:08:53Z</time>
      </trkpt>
      <trkpt lat="45.67594" lon="4.61381">
        <ele>442</ele>
        <time>2025-11-11T10:08:54Z</time>
      </trkpt>
      <trkpt lat="45.67596" lon="4.61381">
        <ele>442.6</ele>
        <time>2025-11-11T10:08:55Z</time>
      </trkpt>
      <trkpt lat="45.67597" lon="4.61381">
        <ele>443.2</ele>
        <time>2025-11-11T10:08:56Z</time>
      </trkpt>
      <trkpt lat="45.67599" lon="4.61382">
        <ele>443.6</ele>
        <time>2025-11-11T10:08:57Z</time>
      </trkpt>
      <trkpt lat="45.676" lon="4.61383">
        <ele>444.2</ele>
        <time>2025-11-11T10:08:58Z</time>
      </trkpt>
      <trkpt lat="45.67602" lon="4.61384">
        <ele>444.8</ele>
        <time>2025-11-11T10:08:59Z</time>
      </trkpt>
      <trkpt lat="45.67603" lon="4.61386">
        <ele>445.2</ele>
        <time>2025-11-11T10:09:00Z</time>
      </trkpt>
      <trkpt lat="45.67604" lon="4.61389">
        <ele>445.6</ele>
        <time>2025-11-11T10:09:01Z</time>
      </trkpt>
      <trkpt lat="45.67605" lon="4.61391">
        <ele>446.2</ele>
        <time>2025-11-11T10:09:02Z</time>
      </trkpt>
      <trkpt lat="45.67607" lon="4.61393">
        <ele>446.6</ele>
        <time>2025-11-11T10:09:03Z</time>
      </trkpt>
      <trkpt lat="45.67609" lon="4.61394">
        <ele>447</ele>
        <time>2025-11-11T10:09:04Z</time>
      </trkpt>
      <trkpt lat="45.67612" lon="4.61394">
        <ele>447.4</ele>
        <time>2025-11-11T10:09:05Z</time>
      </trkpt>
      <trkpt lat="45.67613" lon="4.61392">
        <ele>447.8</ele>
        <time>2025-11-11T10:09:06Z</time>
      </trkpt>
      <trkpt lat="45.67615" lon="4.61388">
        <ele>448.2</ele>
        <time>2025-11-11T10:09:07Z</time>
      </trkpt>
      <trkpt lat="45.67615" lon="4.61385">
        <ele>448.4</ele>
        <time>2025-11-11T10:09:08Z</time>
      </trkpt>
      <trkpt lat="45.67616" lon="4.6138">
        <ele>448.8</ele>
        <time>2025-11-11T10:09:09Z</time>
      </trkpt>
      <trkpt lat="45.67616" lon="4.61376">
        <ele>449</ele>
        <time>2025-11-11T10:09:10Z</time>
      </trkpt>
      <trkpt lat="45.67617" lon="4.61372">
        <ele>449.2</ele>
        <time>2025-11-11T10:09:11Z</time>
      </trkpt>
      <trkpt lat="45.67618" lon="4.61368">
        <ele>449.4</ele>
        <time>2025-11-11T10:09:12Z</time>
      </trkpt>
      <trkpt lat="45.67619" lon="4.61364">
        <ele>449.6</ele>
        <time>2025-11-11T10:09:13Z</time>
      </trkpt>
      <trkpt lat="45.67619" lon="4.6136">
        <ele>450</ele>
        <time>2025-11-11T10:09:14Z</time>
      </trkpt>
      <trkpt lat="45.6762" lon="4.61356">
        <ele>450.2</ele>
        <time>2025-11-11T10:09:15Z</time>
      </trkpt>
      <trkpt lat="45.6762" lon="4.61352">
        <ele>450.4</ele>
        <time>2025-11-11T10:09:16Z</time>
      </trkpt>
      <trkpt lat="45.67621" lon="4.61349">
        <ele>450.6</ele>
        <time>2025-11-11T10:09:17Z</time>
      </trkpt>
      <trkpt lat="45.67623" lon="4.61346">
        <ele>450.8</ele>
        <time>2025-11-11T10:09:18Z</time>
      </trkpt>
      <trkpt lat="45.67625" lon="4.61345">
        <ele>451.2</ele>
        <time>2025-11-11T10:09:19Z</time>
      </trkpt>
      <trkpt lat="45.67627" lon="4.61345">
        <ele>451.6</ele>
        <time>2025-11-11T10:09:20Z</time>
      </trkpt>
      <trkpt lat="45.67628" lon="4.61346">
        <ele>452</ele>
        <time>2025-11-11T10:09:21Z</time>
      </trkpt>
      <trkpt lat="45.6763" lon="4.61347">
        <ele>452.2</ele>
        <time>2025-11-11T10:09:22Z</time>
      </trkpt>
      <trkpt lat="45.67631" lon="4.61349">
        <ele>452.6</ele>
        <time>2025-11-11T10:09:23Z</time>
      </trkpt>
      <trkpt lat="45.67632" lon="4.61351">
        <ele>453</ele>
        <time>2025-11-11T10:09:24Z</time>
      </trkpt>
      <trkpt lat="45.67634" lon="4.61353">
        <ele>453.2</ele>
        <time>2025-11-11T10:09:25Z</time>
      </trkpt>
      <trkpt lat="45.67635" lon="4.61355">
        <ele>453.6</ele>
        <time>2025-11-11T10:09:26Z</time>
      </trkpt>
      <trkpt lat="45.67637" lon="4.61357">
        <ele>454</ele>
        <time>2025-11-11T10:09:27Z</time>
      </trkpt>
      <trkpt lat="45.67639" lon="4.61358">
        <ele>454.4</ele>
        <time>2025-11-11T10:09:28Z</time>
      </trkpt>
      <trkpt lat="45.67641" lon="4.61361">
        <ele>454.8</ele>
        <time>2025-11-11T10:09:29Z</time>
      </trkpt>
      <trkpt lat="45.67644" lon="4.61363">
        <ele>455</ele>
        <time>2025-11-11T10:09:30Z</time>
      </trkpt>
      <trkpt lat="45.67646" lon="4.61364">
        <ele>455.4</ele>
        <time>2025-11-11T10:09:31Z</time>
      </trkpt>
      <trkpt lat="45.67648" lon="4.61365">
        <ele>455.6</ele>
        <time>2025-11-11T10:09:32Z</time>
      </trkpt>
      <trkpt lat="45.67651" lon="4.61367">
        <ele>455.8</ele>
        <time>2025-11-11T10:09:33Z</time>
      </trkpt>
      <trkpt lat="45.67653" lon="4.61368">
        <ele>456.2</ele>
        <time>2025-11-11T10:09:34Z</time>
      </trkpt>
      <trkpt lat="45.67656" lon="4.6137">
        <ele>456.4</ele>
        <time>2025-11-11T10:09:35Z</time>
      </trkpt>
      <trkpt lat="45.67658" lon="4.61371">
        <ele>456.6</ele>
        <time>2025-11-11T10:09:36Z</time>
      </trkpt>
      <trkpt lat="45.6766" lon="4.61373">
        <ele>456.6</ele>
        <time>2025-11-11T10:09:37Z</time>
      </trkpt>
      <trkpt lat="45.67663" lon="4.61375">
        <ele>456.8</ele>
        <time>2025-11-11T10:09:38Z</time>
      </trkpt>
      <trkpt lat="45.67666" lon="4.61376">
        <ele>456.8</ele>
        <time>2025-11-11T10:09:39Z</time>
      </trkpt>
      <trkpt lat="45.67668" lon="4.61377">
        <ele>457</ele>
        <time>2025-11-11T10:09:40Z</time>
      </trkpt>
      <trkpt lat="45.67671" lon="4.61378">
        <ele>457.2</ele>
        <time>2025-11-11T10:09:41Z</time>
      </trkpt>
      <trkpt lat="45.67673" lon="4.61379">
        <ele>457.4</ele>
        <time>2025-11-11T10:09:42Z</time>
      </trkpt>
      <trkpt lat="45.67676" lon="4.61379">
        <ele>457.6</ele>
        <time>2025-11-11T10:09:43Z</time>
      </trkpt>
      <trkpt lat="45.67679" lon="4.6138">
        <ele>457.6</ele>
        <time>2025-11-11T10:09:44Z</time>
      </trkpt>
      <trkpt lat="45.67681" lon="4.6138">
        <ele>457.8</ele>
        <time>2025-11-11T10:09:45Z</time>
      </trkpt>
      <trkpt lat="45.67684" lon="4.6138">
        <ele>457.8</ele>
        <time>2025-11-11T10:09:46Z</time>
      </trkpt>
      <trkpt lat="45.67688" lon="4.6138">
        <ele>458</ele>
        <time>2025-11-11T10:09:47Z</time>
      </trkpt>
      <trkpt lat="45.6769" lon="4.6138">
        <ele>458</ele>
        <time>2025-11-11T10:09:48Z</time>
      </trkpt>
      <trkpt lat="45.67694" lon="4.6138">
        <ele>458.2</ele>
        <time>2025-11-11T10:09:49Z</time>
      </trkpt>
      <trkpt lat="45.67697" lon="4.61379">
        <ele>458.4</ele>
        <time>2025-11-11T10:09:50Z</time>
      </trkpt>
      <trkpt lat="45.67701" lon="4.61378">
        <ele>458.4</ele>
        <time>2025-11-11T10:09:51Z</time>
      </trkpt>
      <trkpt lat="45.67703" lon="4.61377">
        <ele>458.6</ele>
        <time>2025-11-11T10:09:52Z</time>
      </trkpt>
      <trkpt lat="45.67706" lon="4.61375">
        <ele>458.8</ele>
        <time>2025-11-11T10:09:53Z</time>
      </trkpt>
      <trkpt lat="45.67709" lon="4.61373">
        <ele>459.2</ele>
        <time>2025-11-11T10:09:54Z</time>
      </trkpt>
      <trkpt lat="45.67711" lon="4.61371">
        <ele>459.4</ele>
        <time>2025-11-11T10:09:55Z</time>
      </trkpt>
      <trkpt lat="45.67714" lon="4.61369">
        <ele>459.8</ele>
        <time>2025-11-11T10:09:56Z</time>
      </trkpt>
      <trkpt lat="45.67716" lon="4.61367">
        <ele>460.2</ele>
        <time>2025-11-11T10:09:57Z</time>
      </trkpt>
      <trkpt lat="45.67719" lon="4.61364">
        <ele>460.4</ele>
        <time>2025-11-11T10:09:58Z</time>
      </trkpt>
      <trkpt lat="45.67721" lon="4.61361">
        <ele>460.8</ele>
        <time>2025-11-11T10:09:59Z</time>
      </trkpt>
      <trkpt lat="45.67723" lon="4.61358">
        <ele>461.2</ele>
        <time>2025-11-11T10:10:00Z</time>
      </trkpt>
      <trkpt lat="45.67725" lon="4.61355">
        <ele>461.6</ele>
        <time>2025-11-11T10:10:01Z</time>
      </trkpt>
      <trkpt lat="45.67727" lon="4.61352">
        <ele>462</ele>
        <time>2025-11-11T10:10:02Z</time>
      </trkpt>
      <trkpt lat="45.67729" lon="4.61349">
        <ele>462.4</ele>
        <time>2025-11-11T10:10:03Z</time>
      </trkpt>
      <trkpt lat="45.67731" lon="4.61347">
        <ele>462.8</ele>
        <time>2025-11-11T10:10:04Z</time>
      </trkpt>
      <trkpt lat="45.67733" lon="4.61344">
        <ele>463.2</ele>
        <time>2025-11-11T10:10:05Z</time>
      </trkpt>
      <trkpt lat="45.67736" lon="4.61342">
        <ele>463.6</ele>
        <time>2025-11-11T10:10:06Z</time>
      </trkpt>
      <trkpt lat="45.67738" lon="4.6134">
        <ele>464</ele>
        <time>2025-11-11T10:10:07Z</time>
      </trkpt>
      <trkpt lat="45.6774" lon="4.61337">
        <ele>464.4</ele>
        <time>2025-11-11T10:10:08Z</time>
      </trkpt>
      <trkpt lat="45.67743" lon="4.61334">
        <ele>464.8</ele>
        <time>2025-11-11T10:10:09Z</time>
      </trkpt>
      <trkpt lat="45.67745" lon="4.61332">
        <ele>465</ele>
        <time>2025-11-11T10:10:10Z</time>
      </trkpt>
      <trkpt lat="45.67747" lon="4.61329">
        <ele>465.4</ele>
        <time>2025-11-11T10:10:11Z</time>
      </trkpt>
      <trkpt lat="45.67749" lon="4.61327">
        <ele>465.6</ele>
        <time>2025-11-11T10:10:12Z</time>
      </trkpt>
      <trkpt lat="45.67752" lon="4.61324">
        <ele>466</ele>
        <time>2025-11-11T10:10:13Z</time>
      </trkpt>
      <trkpt lat="45.67753" lon="4.61322">
        <ele>466.2</ele>
        <time>2025-11-11T10:10:14Z</time>
      </trkpt>
      <trkpt lat="45.67756" lon="4.61319">
        <ele>466.6</ele>
        <time>2025-11-11T10:10:15Z</time>
      </trkpt>
      <trkpt lat="45.67758" lon="4.61317">
        <ele>466.8</ele>
        <time>2025-11-11T10:10:16Z</time>
      </trkpt>
      <trkpt lat="45.67761" lon="4.61315">
        <ele>467.2</ele>
        <time>2025-11-11T10:10:17Z</time>
      </trkpt>
      <trkpt lat="45.67763" lon="4.61312">
        <ele>467.6</ele>
        <time>2025-11-11T10:10:18Z</time>
      </trkpt>
      <trkpt lat="45.67765" lon="4.61311">
        <ele>467.8</ele>
        <time>2025-11-11T10:10:19Z</time>
      </trkpt>
      <trkpt lat="45.67768" lon="4.61308">
        <ele>468.2</ele>
        <time>2025-11-11T10:10:20Z</time>
      </trkpt>
      <trkpt lat="45.6777" lon="4.61305">
        <ele>468.6</ele>
        <time>2025-11-11T10:10:21Z</time>
      </trkpt>
      <trkpt lat="45.67773" lon="4.61303">
        <ele>468.8</ele>
        <time>2025-11-11T10:10:22Z</time>
      </trkpt>
      <trkpt lat="45.67775" lon="4.61301">
        <ele>469.2</ele>
        <time>2025-11-11T10:10:23Z</time>
      </trkpt>
      <trkpt lat="45.67777" lon="4.61298">
        <ele>469.6</ele>
        <time>2025-11-11T10:10:24Z</time>
      </trkpt>
      <trkpt lat="45.67779" lon="4.61295">
        <ele>470</ele>
        <time>2025-11-11T10:10:25Z</time>
      </trkpt>
      <trkpt lat="45.67782" lon="4.61293">
        <ele>470.4</ele>
        <time>2025-11-11T10:10:26Z</time>
      </trkpt>
      <trkpt lat="45.67784" lon="4.61291">
        <ele>470.6</ele>
        <time>2025-11-11T10:10:27Z</time>
      </trkpt>
      <trkpt lat="45.67786" lon="4.61289">
        <ele>471</ele>
        <time>2025-11-11T10:10:28Z</time>
      </trkpt>
      <trkpt lat="45.67788" lon="4.61286">
        <ele>471.4</ele>
        <time>2025-11-11T10:10:29Z</time>
      </trkpt>
      <trkpt lat="45.6779" lon="4.61284">
        <ele>471.6</ele>
        <time>2025-11-11T10:10:30Z</time>
      </trkpt>
      <trkpt lat="45.67793" lon="4.61282">
        <ele>472</ele>
        <time>2025-11-11T10:10:31Z</time>
      </trkpt>
      <trkpt lat="45.67795" lon="4.6128">
        <ele>472.2</ele>
        <time>2025-11-11T10:10:32Z</time>
      </trkpt>
      <trkpt lat="45.67797" lon="4.61278">
        <ele>472.6</ele>
        <time>2025-11-11T10:10:33Z</time>
      </trkpt>
      <trkpt lat="45.678" lon="4.61276">
        <ele>473</ele>
        <time>2025-11-11T10:10:34Z</time>
      </trkpt>
      <trkpt lat="45.67802" lon="4.61274">
        <ele>473.6</ele>
        <time>2025-11-11T10:10:35Z</time>
      </trkpt>
      <trkpt lat="45.67804" lon="4.61271">
        <ele>474</ele>
        <time>2025-11-11T10:10:36Z</time>
      </trkpt>
      <trkpt lat="45.67806" lon="4.61269">
        <ele>474.4</ele>
        <time>2025-11-11T10:10:37Z</time>
      </trkpt>
      <trkpt lat="45.67809" lon="4.61267">
        <ele>474.8</ele>
        <time>2025-11-11T10:10:38Z</time>
      </trkpt>
      <trkpt lat="45.67811" lon="4.61265">
        <ele>475.2</ele>
        <time>2025-11-11T10:10:39Z</time>
      </trkpt>
      <trkpt lat="45.67813" lon="4.61262">
        <ele>475.6</ele>
        <time>2025-11-11T10:10:40Z</time>
      </trkpt>
      <trkpt lat="45.67816" lon="4.6126">
        <ele>476</ele>
        <time>2025-11-11T10:10:41Z</time>
      </trkpt>
      <trkpt lat="45.67818" lon="4.61258">
        <ele>476.4</ele>
        <time>2025-11-11T10:10:42Z</time>
      </trkpt>
      <trkpt lat="45.6782" lon="4.61256">
        <ele>476.8</ele>
        <time>2025-11-11T10:10:43Z</time>
      </trkpt>
      <trkpt lat="45.67823" lon="4.61254">
        <ele>477.2</ele>
        <time>2025-11-11T10:10:44Z</time>
      </trkpt>
      <trkpt lat="45.67825" lon="4.61252">
        <ele>477.6</ele>
        <time>2025-11-11T10:10:45Z</time>
      </trkpt>
      <trkpt lat="45.67827" lon="4.6125">
        <ele>478</ele>
        <time>2025-11-11T10:10:46Z</time>
      </trkpt>
      <trkpt lat="45.6783" lon="4.61248">
        <ele>478.6</ele>
        <time>2025-11-11T10:10:47Z</time>
      </trkpt>
      <trkpt lat="45.67832" lon="4.61246">
        <ele>479</ele>
        <time>2025-11-11T10:10:48Z</time>
      </trkpt>
      <trkpt lat="45.67834" lon="4.61243">
        <ele>479.6</ele>
        <time>2025-11-11T10:10:49Z</time>
      </trkpt>
      <trkpt lat="45.67836" lon="4.61241">
        <ele>480</ele>
        <time>2025-11-11T10:10:50Z</time>
      </trkpt>
      <trkpt lat="45.67837" lon="4.61239">
        <ele>480.4</ele>
        <time>2025-11-11T10:10:51Z</time>
      </trkpt>
      <trkpt lat="45.67839" lon="4.61237">
        <ele>481</ele>
        <time>2025-11-11T10:10:52Z</time>
      </trkpt>
      <trkpt lat="45.67841" lon="4.61235">
        <ele>481.6</ele>
        <time>2025-11-11T10:10:53Z</time>
      </trkpt>
      <trkpt lat="45.67843" lon="4.61234">
        <ele>482</ele>
        <time>2025-11-11T10:10:54Z</time>
      </trkpt>
      <trkpt lat="45.67845" lon="4.61232">
        <ele>482.6</ele>
        <time>2025-11-11T10:10:55Z</time>
      </trkpt>
      <trkpt lat="45.67847" lon="4.61231">
        <ele>483</ele>
        <time>2025-11-11T10:10:56Z</time>
      </trkpt>
      <trkpt lat="45.6785" lon="4.61229">
        <ele>483.6</ele>
        <time>2025-11-11T10:10:57Z</time>
      </trkpt>
      <trkpt lat="45.67852" lon="4.61228">
        <ele>484</ele>
        <time>2025-11-11T10:10:58Z</time>
      </trkpt>
      <trkpt lat="45.67855" lon="4.61229">
        <ele>484.4</ele>
        <time>2025-11-11T10:10:59Z</time>
      </trkpt>
      <trkpt lat="45.67858" lon="4.6123">
        <ele>484.6</ele>
        <time>2025-11-11T10:11:00Z</time>
      </trkpt>
      <trkpt lat="45.67861" lon="4.61231">
        <ele>485</ele>
        <time>2025-11-11T10:11:01Z</time>
      </trkpt>
      <trkpt lat="45.67864" lon="4.61233">
        <ele>485.2</ele>
        <time>2025-11-11T10:11:02Z</time>
      </trkpt>
      <trkpt lat="45.67866" lon="4.61234">
        <ele>485.4</ele>
        <time>2025-11-11T10:11:03Z</time>
      </trkpt>
      <trkpt lat="45.67868" lon="4.61235">
        <ele>485.4</ele>
        <time>2025-11-11T10:11:04Z</time>
      </trkpt>
      <trkpt lat="45.67871" lon="4.61237">
        <ele>485.6</ele>
        <time>2025-11-11T10:11:05Z</time>
      </trkpt>
      <trkpt lat="45.67873" lon="4.61238">
        <ele>485.8</ele>
        <time>2025-11-11T10:11:06Z</time>
      </trkpt>
      <trkpt lat="45.67876" lon="4.61239">
        <ele>485.8</ele>
        <time>2025-11-11T10:11:07Z</time>
      </trkpt>
      <trkpt lat="45.67879" lon="4.61241">
        <ele>485.8</ele>
        <time>2025-11-11T10:11:08Z</time>
      </trkpt>
      <trkpt lat="45.67882" lon="4.61242">
        <ele>485.8</ele>
        <time>2025-11-11T10:11:09Z</time>
      </trkpt>
      <trkpt lat="45.67886" lon="4.61244">
        <ele>485.8</ele>
        <time>2025-11-11T10:11:10Z</time>
      </trkpt>
      <trkpt lat="45.67889" lon="4.61245">
        <ele>485.6</ele>
        <time>2025-11-11T10:11:11Z</time>
      </trkpt>
      <trkpt lat="45.67893" lon="4.61245">
        <ele>485.4</ele>
        <time>2025-11-11T10:11:12Z</time>
      </trkpt>
      <trkpt lat="45.67896" lon="4.61246">
        <ele>485.2</ele>
        <time>2025-11-11T10:11:13Z</time>
      </trkpt>
      <trkpt lat="45.67899" lon="4.61246">
        <ele>485.2</ele>
        <time>2025-11-11T10:11:14Z</time>
      </trkpt>
      <trkpt lat="45.67903" lon="4.61246">
        <ele>485</ele>
        <time>2025-11-11T10:11:15Z</time>
      </trkpt>
      <trkpt lat="45.67906" lon="4.61246">
        <ele>485</ele>
        <time>2025-11-11T10:11:16Z</time>
      </trkpt>
      <trkpt lat="45.6791" lon="4.61245">
        <ele>484.8</ele>
        <time>2025-11-11T10:11:17Z</time>
      </trkpt>
      <trkpt lat="45.67913" lon="4.61245">
        <ele>484.8</ele>
        <time>2025-11-11T10:11:18Z</time>
      </trkpt>
      <trkpt lat="45.67916" lon="4.61245">
        <ele>484.6</ele>
        <time>2025-11-11T10:11:19Z</time>
      </trkpt>
      <trkpt lat="45.67919" lon="4.61245">
        <ele>484.6</ele>
        <time>2025-11-11T10:11:20Z</time>
      </trkpt>
      <trkpt lat="45.67921" lon="4.61245">
        <ele>484.6</ele>
        <time>2025-11-11T10:11:21Z</time>
      </trkpt>
      <trkpt lat="45.67924" lon="4.61245">
        <ele>484.6</ele>
        <time>2025-11-11T10:11:22Z</time>
      </trkpt>
      <trkpt lat="45.67928" lon="4.61245">
        <ele>484.4</ele>
        <time>2025-11-11T10:11:23Z</time>
      </trkpt>
      <trkpt lat="45.67931" lon="4.61245">
        <ele>484.2</ele>
        <time>2025-11-11T10:11:24Z</time>
      </trkpt>
      <trkpt lat="45.67935" lon="4.61245">
        <ele>484</ele>
        <time>2025-11-11T10:11:25Z</time>
      </trkpt>
      <trkpt lat="45.67939" lon="4.61246">
        <ele>483.8</ele>
        <time>2025-11-11T10:11:26Z</time>
      </trkpt>
      <trkpt lat="45.67943" lon="4.61245">
        <ele>483.4</ele>
        <time>2025-11-11T10:11:27Z</time>
      </trkpt>
      <trkpt lat="45.67947" lon="4.61245">
        <ele>483</ele>
        <time>2025-11-11T10:11:28Z</time>
      </trkpt>
      <trkpt lat="45.67951" lon="4.61245">
        <ele>482.4</ele>
        <time>2025-11-11T10:11:29Z</time>
      </trkpt>
      <trkpt lat="45.67955" lon="4.61247">
        <ele>481.8</ele>
        <time>2025-11-11T10:11:30Z</time>
      </trkpt>
      <trkpt lat="45.6796" lon="4.61249">
        <ele>481.2</ele>
        <time>2025-11-11T10:11:31Z</time>
      </trkpt>
      <trkpt lat="45.67964" lon="4.61251">
        <ele>480.4</ele>
        <time>2025-11-11T10:11:32Z</time>
      </trkpt>
      <trkpt lat="45.67968" lon="4.61253">
        <ele>479.6</ele>
        <time>2025-11-11T10:11:33Z</time>
      </trkpt>
      <trkpt lat="45.67972" lon="4.61255">
        <ele>478.8</ele>
        <time>2025-11-11T10:11:34Z</time>
      </trkpt>
      <trkpt lat="45.67977" lon="4.61257">
        <ele>478.2</ele>
        <time>2025-11-11T10:11:35Z</time>
      </trkpt>
      <trkpt lat="45.67982" lon="4.6126">
        <ele>477.4</ele>
        <time>2025-11-11T10:11:36Z</time>
      </trkpt>
      <trkpt lat="45.67986" lon="4.61263">
        <ele>476.6</ele>
        <time>2025-11-11T10:11:37Z</time>
      </trkpt>
      <trkpt lat="45.67992" lon="4.61266">
        <ele>476</ele>
        <time>2025-11-11T10:11:38Z</time>
      </trkpt>
      <trkpt lat="45.67997" lon="4.61268">
        <ele>475.4</ele>
        <time>2025-11-11T10:11:39Z</time>
      </trkpt>
      <trkpt lat="45.68002" lon="4.61271">
        <ele>475</ele>
        <time>2025-11-11T10:11:40Z</time>
      </trkpt>
      <trkpt lat="45.68007" lon="4.61274">
        <ele>474.6</ele>
        <time>2025-11-11T10:11:41Z</time>
      </trkpt>
      <trkpt lat="45.68013" lon="4.61277">
        <ele>474.2</ele>
        <time>2025-11-11T10:11:42Z</time>
      </trkpt>
      <trkpt lat="45.68018" lon="4.6128">
        <ele>474</ele>
        <time>2025-11-11T10:11:43Z</time>
      </trkpt>
      <trkpt lat="45.68024" lon="4.61285">
        <ele>473.6</ele>
        <time>2025-11-11T10:11:44Z</time>
      </trkpt>
      <trkpt lat="45.6803" lon="4.61289">
        <ele>473.4</ele>
        <time>2025-11-11T10:11:45Z</time>
      </trkpt>
      <trkpt lat="45.68036" lon="4.61293">
        <ele>473.4</ele>
        <time>2025-11-11T10:11:46Z</time>
      </trkpt>
      <trkpt lat="45.68041" lon="4.61296">
        <ele>473.2</ele>
        <time>2025-11-11T10:11:47Z</time>
      </trkpt>
      <trkpt lat="45.68046" lon="4.61299">
        <ele>473.4</ele>
        <time>2025-11-11T10:11:48Z</time>
      </trkpt>
      <trkpt lat="45.68051" lon="4.61301">
        <ele>473.6</ele>
        <time>2025-11-11T10:11:49Z</time>
      </trkpt>
      <trkpt lat="45.68056" lon="4.61304">
        <ele>473.8</ele>
        <time>2025-11-11T10:11:50Z</time>
      </trkpt>
      <trkpt lat="45.68061" lon="4.61307">
        <ele>474</ele>
        <time>2025-11-11T10:11:51Z</time>
      </trkpt>
      <trkpt lat="45.68065" lon="4.61311">
        <ele>474.4</ele>
        <time>2025-11-11T10:11:52Z</time>
      </trkpt>
      <trkpt lat="45.68068" lon="4.61315">
        <ele>474.6</ele>
        <time>2025-11-11T10:11:53Z</time>
      </trkpt>
      <trkpt lat="45.68072" lon="4.6132">
        <ele>474.8</ele>
        <time>2025-11-11T10:11:54Z</time>
      </trkpt>
      <trkpt lat="45.68075" lon="4.61325">
        <ele>475.2</ele>
        <time>2025-11-11T10:11:55Z</time>
      </trkpt>
      <trkpt lat="45.68079" lon="4.61329">
        <ele>475.6</ele>
        <time>2025-11-11T10:11:56Z</time>
      </trkpt>
      <trkpt lat="45.68082" lon="4.61333">
        <ele>476</ele>
        <time>2025-11-11T10:11:57Z</time>
      </trkpt>
      <trkpt lat="45.68084" lon="4.61338">
        <ele>476.6</ele>
        <time>2025-11-11T10:11:58Z</time>
      </trkpt>
      <trkpt lat="45.68086" lon="4.61342">
        <ele>477</ele>
        <time>2025-11-11T10:11:59Z</time>
      </trkpt>
      <trkpt lat="45.68089" lon="4.61346">
        <ele>477.6</ele>
        <time>2025-11-11T10:12:00Z</time>
      </trkpt>
      <trkpt lat="45.68091" lon="4.6135">
        <ele>478.2</ele>
        <time>2025-11-11T10:12:01Z</time>
      </trkpt>
      <trkpt lat="45.68094" lon="4.61354">
        <ele>478.8</ele>
        <time>2025-11-11T10:12:02Z</time>
      </trkpt>
      <trkpt lat="45.68096" lon="4.61358">
        <ele>479.2</ele>
        <time>2025-11-11T10:12:03Z</time>
      </trkpt>
      <trkpt lat="45.68099" lon="4.61362">
        <ele>479.8</ele>
        <time>2025-11-11T10:12:04Z</time>
      </trkpt>
      <trkpt lat="45.68102" lon="4.61366">
        <ele>480.4</ele>
        <time>2025-11-11T10:12:05Z</time>
      </trkpt>
      <trkpt lat="45.68104" lon="4.6137">
        <ele>480.8</ele>
        <time>2025-11-11T10:12:06Z</time>
      </trkpt>
      <trkpt lat="45.68107" lon="4.61374">
        <ele>481.4</ele>
        <time>2025-11-11T10:12:07Z</time>
      </trkpt>
      <trkpt lat="45.68109" lon="4.61378">
        <ele>481.8</ele>
        <time>2025-11-11T10:12:08Z</time>
      </trkpt>
      <trkpt lat="45.68112" lon="4.61381">
        <ele>482.4</ele>
        <time>2025-11-11T10:12:09Z</time>
      </trkpt>
      <trkpt lat="45.68114" lon="4.61385">
        <ele>483</ele>
        <time>2025-11-11T10:12:10Z</time>
      </trkpt>
      <trkpt lat="45.68117" lon="4.61388">
        <ele>483.4</ele>
        <time>2025-11-11T10:12:11Z</time>
      </trkpt>
      <trkpt lat="45.6812" lon="4.61392">
        <ele>483.8</ele>
        <time>2025-11-11T10:12:12Z</time>
      </trkpt>
      <trkpt lat="45.68122" lon="4.61395">
        <ele>484.4</ele>
        <time>2025-11-11T10:12:13Z</time>
      </trkpt>
      <trkpt lat="45.68125" lon="4.61399">
        <ele>484.8</ele>
        <time>2025-11-11T10:12:14Z</time>
      </trkpt>
      <trkpt lat="45.68127" lon="4.61402">
        <ele>485.2</ele>
        <time>2025-11-11T10:12:15Z</time>
      </trkpt>
      <trkpt lat="45.6813" lon="4.61405">
        <ele>485.6</ele>
        <time>2025-11-11T10:12:16Z</time>
      </trkpt>
      <trkpt lat="45.68132" lon="4.61408">
        <ele>486</ele>
        <time>2025-11-11T10:12:17Z</time>
      </trkpt>
      <trkpt lat="45.68134" lon="4.61412">
        <ele>486.4</ele>
        <time>2025-11-11T10:12:18Z</time>
      </trkpt>
      <trkpt lat="45.68137" lon="4.61415">
        <ele>486.8</ele>
        <time>2025-11-11T10:12:19Z</time>
      </trkpt>
      <trkpt lat="45.68139" lon="4.61418">
        <ele>487.2</ele>
        <time>2025-11-11T10:12:20Z</time>
      </trkpt>
      <trkpt lat="45.68141" lon="4.61421">
        <ele>487.4</ele>
        <time>2025-11-11T10:12:21Z</time>
      </trkpt>
      <trkpt lat="45.68143" lon="4.61424">
        <ele>487.8</ele>
        <time>2025-11-11T10:12:22Z</time>
      </trkpt>
      <trkpt lat="45.68146" lon="4.61427">
        <ele>488</ele>
        <time>2025-11-11T10:12:23Z</time>
      </trkpt>
      <trkpt lat="45.68148" lon="4.6143">
        <ele>488</ele>
        <time>2025-11-11T10:12:24Z</time>
      </trkpt>
      <trkpt lat="45.6815" lon="4.61432">
        <ele>488.2</ele>
        <time>2025-11-11T10:12:25Z</time>
      </trkpt>
      <trkpt lat="45.68152" lon="4.61435">
        <ele>488.2</ele>
        <time>2025-11-11T10:12:26Z</time>
      </trkpt>
      <trkpt lat="45.68154" lon="4.61438">
        <ele>488.2</ele>
        <time>2025-11-11T10:12:27Z</time>
      </trkpt>
      <trkpt lat="45.68156" lon="4.61441">
        <ele>488.4</ele>
        <time>2025-11-11T10:12:28Z</time>
      </trkpt>
      <trkpt lat="45.68157" lon="4.61443">
        <ele>488.4</ele>
        <time>2025-11-11T10:12:29Z</time>
      </trkpt>
      <trkpt lat="45.68159" lon="4.61445">
        <ele>488.4</ele>
        <time>2025-11-11T10:12:30Z</time>
      </trkpt>
      <trkpt lat="45.68161" lon="4.61448">
        <ele>488.6</ele>
        <time>2025-11-11T10:12:31Z</time>
      </trkpt>
      <trkpt lat="45.68163" lon="4.61451">
        <ele>488.6</ele>
        <time>2025-11-11T10:12:32Z</time>
      </trkpt>
      <trkpt lat="45.68164" lon="4.61453">
        <ele>488.8</ele>
        <time>2025-11-11T10:12:33Z</time>
      </trkpt>
      <trkpt lat="45.68166" lon="4.61455">
        <ele>488.8</ele>
        <time>2025-11-11T10:12:34Z</time>
      </trkpt>
      <trkpt lat="45.68167" lon="4.61457">
        <ele>489</ele>
        <time>2025-11-11T10:12:35Z</time>
      </trkpt>
      <trkpt lat="45.68169" lon="4.61458">
        <ele>489</ele>
        <time>2025-11-11T10:12:36Z</time>
      </trkpt>
      <trkpt lat="45.6817" lon="4.61459">
        <ele>489.2</ele>
        <time>2025-11-11T10:12:37Z</time>
      </trkpt>
      <trkpt lat="45.68171" lon="4.6146">
        <ele>489.4</ele>
        <time>2025-11-11T10:12:38Z</time>
      </trkpt>
      <trkpt lat="45.68172" lon="4.61461">
        <ele>489.4</ele>
        <time>2025-11-11T10:12:39Z</time>
      </trkpt>
      <trkpt lat="45.68172" lon="4.61461">
        <ele>489.4</ele>
        <time>2025-11-11T10:12:40Z</time>
      </trkpt>
      <trkpt lat="45.68171" lon="4.61461">
        <ele>489.6</ele>
        <time>2025-11-11T10:12:41Z</time>
      </trkpt>
      <trkpt lat="45.68171" lon="4.61461">
        <ele>489.6</ele>
        <time>2025-11-11T10:12:42Z</time>
      </trkpt>
      <trkpt lat="45.68171" lon="4.61461">
        <ele>489.6</ele>
        <time>2025-11-11T10:12:43Z</time>
      </trkpt>
      <trkpt lat="45.68171" lon="4.61461">
        <ele>489.6</ele>
        <time>2025-11-11T10:12:44Z</time>
      </trkpt>
      <trkpt lat="45.68171" lon="4.61461">
        <ele>489.4</ele>
        <time>2025-11-11T10:12:45Z</time>
      </trkpt>
      <trkpt lat="45.68171" lon="4.61461">
        <ele>489.4</ele>
        <time>2025-11-11T10:12:46Z</time>
      </trkpt>
      <trkpt lat="45.68171" lon="4.61461">
        <ele>489.4</ele>
        <time>2025-11-11T10:12:47Z</time>
      </trkpt>
      <trkpt lat="45.68171" lon="4.61461">
        <ele>489.4</ele>
        <time>2025-11-11T10:12:48Z</time>
      </trkpt>
      <trkpt lat="45.68171" lon="4.61461">
        <ele>489.4</ele>
        <time>2025-11-11T10:12:49Z</time>
      </trkpt>
      <trkpt lat="45.68171" lon="4.61461">
        <ele>489.4</ele>
        <time>2025-11-11T10:12:50Z</time>
      </trkpt>
      <trkpt lat="45.68171" lon="4.61461">
        <ele>489.4</ele>
        <time>2025-11-11T10:12:51Z</time>
      </trkpt>
      <trkpt lat="45.68171" lon="4.61461">
        <ele>489.4</ele>
        <time>2025-11-11T10:12:52Z</time>
      </trkpt>
      <trkpt lat="45.68171" lon="4.61461">
        <ele>489.2</ele>
        <time>2025-11-11T10:12:53Z</time>
      </trkpt>
      <trkpt lat="45.68171" lon="4.61461">
        <ele>489.2</ele>
        <time>2025-11-11T10:12:54Z</time>
      </trkpt>
      <trkpt lat="45.68171" lon="4.61461">
        <ele>489.4</ele>
        <time>2025-11-11T10:12:55Z</time>
      </trkpt>
      <trkpt lat="45.68171" lon="4.61461">
        <ele>489.4</ele>
        <time>2025-11-11T10:12:56Z</time>
      </trkpt>
      <trkpt lat="45.68171" lon="4.61461">
        <ele>489.4</ele>
        <time>2025-11-11T10:12:57Z</time>
      </trkpt>
      <trkpt lat="45.68171" lon="4.61461">
        <ele>489.4</ele>
        <time>2025-11-11T10:12:58Z</time>
      </trkpt>
      <trkpt lat="45.68171" lon="4.61461">
        <ele>489.4</ele>
        <time>2025-11-11T10:12:59Z</time>
      </trkpt>
      <trkpt lat="45.68171" lon="4.61461">
        <ele>489.4</ele>
        <time>2025-11-11T10:13:00Z</time>
      </trkpt>
      <trkpt lat="45.68171" lon="4.61461">
        <ele>489.4</ele>
        <time>2025-11-11T10:13:01Z</time>
      </trkpt>
      <trkpt lat="45.68171" lon="4.61461">
        <ele>489.4</ele>
        <time>2025-11-11T10:13:02Z</time>
      </trkpt>
      <trkpt lat="45.68171" lon="4.61461">
        <ele>489.4</ele>
        <time>2025-11-11T10:13:03Z</time>
      </trkpt>
      <trkpt lat="45.68171" lon="4.61461">
        <ele>489.4</ele>
        <time>2025-11-11T10:13:04Z</time>
      </trkpt>
      <trkpt lat="45.68171" lon="4.61461">
        <ele>489.4</ele>
        <time>2025-11-11T10:13:05Z</time>
      </trkpt>
      <trkpt lat="45.68171" lon="4.61461">
        <ele>489.2</ele>
        <time>2025-11-11T10:13:06Z</time>
      </trkpt>
      <trkpt lat="45.68171" lon="4.61461">
        <ele>489.2</ele>
        <time>2025-11-11T10:13:07Z</time>
      </trkpt>
      <trkpt lat="45.68171" lon="4.61461">
        <ele>489.2</ele>
        <time>2025-11-11T10:13:08Z</time>
      </trkpt>
      <trkpt lat="45.68171" lon="4.61461">
        <ele>489.2</ele>
        <time>2025-11-11T10:13:09Z</time>
      </trkpt>
      <trkpt lat="45.68171" lon="4.61461">
        <ele>489.2</ele>
        <time>2025-11-11T10:13:10Z</time>
      </trkpt>
      <trkpt lat="45.68171" lon="4.61461">
        <ele>489.2</ele>
        <time>2025-11-11T10:13:11Z</time>
      </trkpt>
      <trkpt lat="45.68171" lon="4.61461">
        <ele>489.2</ele>
        <time>2025-11-11T10:13:12Z</time>
      </trkpt>
      <trkpt lat="45.68171" lon="4.61461">
        <ele>489.2</ele>
        <time>2025-11-11T10:13:13Z</time>
      </trkpt>
      <trkpt lat="45.68171" lon="4.61461">
        <ele>489.2</ele>
        <time>2025-11-11T10:13:14Z</time>
      </trkpt>
      <trkpt lat="45.68171" lon="4.61461">
        <ele>489.2</ele>
        <time>2025-11-11T10:13:15Z</time>
      </trkpt>
      <trkpt lat="45.68171" lon="4.61461">
        <ele>489.2</ele>
        <time>2025-11-11T10:13:16Z</time>
      </trkpt>
      <trkpt lat="45.68171" lon="4.61461">
        <ele>489.2</ele>
        <time>2025-11-11T10:13:17Z</time>
      </trkpt>
      <trkpt lat="45.68171" lon="4.61461">
        <ele>489.2</ele>
        <time>2025-11-11T10:13:18Z</time>
      </trkpt>
      <trkpt lat="45.68171" lon="4.61461">
        <ele>489.2</ele>
        <time>2025-11-11T10:13:19Z</time>
      </trkpt>
      <trkpt lat="45.68171" lon="4.61461">
        <ele>489.2</ele>
        <time>2025-11-11T10:13:20Z</time>
      </trkpt>
      <trkpt lat="45.68171" lon="4.61461">
        <ele>489.2</ele>
        <time>2025-11-11T10:13:21Z</time>
      </trkpt>
      <trkpt lat="45.68171" lon="4.61461">
        <ele>489.2</ele>
        <time>2025-11-11T10:13:22Z</time>
      </trkpt>
      <trkpt lat="45.68171" lon="4.61461">
        <ele>489.2</ele>
        <time>2025-11-11T10:13:23Z</time>
      </trkpt>
      <trkpt lat="45.68171" lon="4.61461">
        <ele>489.2</ele>
        <time>2025-11-11T10:13:24Z</time>
      </trkpt>
      <trkpt lat="45.68171" lon="4.61461">
        <ele>489.2</ele>
        <time>2025-11-11T10:13:25Z</time>
      </trkpt>
      <trkpt lat="45.68171" lon="4.61461">
        <ele>489.2</ele>
        <time>2025-11-11T10:13:26Z</time>
      </trkpt>
      <trkpt lat="45.68171" lon="4.61461">
        <ele>489.2</ele>
        <time>2025-11-11T10:13:27Z</time>
      </trkpt>
      <trkpt lat="45.68171" lon="4.61461">
        <ele>489.2</ele>
        <time>2025-11-11T10:13:28Z</time>
      </trkpt>
      <trkpt lat="45.68172" lon="4.61462">
        <ele>489.2</ele>
        <time>2025-11-11T10:13:29Z</time>
      </trkpt>
      <trkpt lat="45.68172" lon="4.61462">
        <ele>489.2</ele>
        <time>2025-11-11T10:13:30Z</time>
      </trkpt>
      <trkpt lat="45.68172" lon="4.61462">
        <ele>489.2</ele>
        <time>2025-11-11T10:13:31Z</time>
      </trkpt>
      <trkpt lat="45.68172" lon="4.61462">
        <ele>489.2</ele>
        <time>2025-11-11T10:13:32Z</time>
      </trkpt>
      <trkpt lat="45.68172" lon="4.61462">
        <ele>489.2</ele>
        <time>2025-11-11T10:13:33Z</time>
      </trkpt>
      <trkpt lat="45.68173" lon="4.61464">
        <ele>489.2</ele>
        <time>2025-11-11T10:13:34Z</time>
      </trkpt>
      <trkpt lat="45.68175" lon="4.61466">
        <ele>489</ele>
        <time>2025-11-11T10:13:35Z</time>
      </trkpt>
      <trkpt lat="45.68177" lon="4.61466">
        <ele>488.8</ele>
        <time>2025-11-11T10:13:36Z</time>
      </trkpt>
      <trkpt lat="45.68181" lon="4.61465">
        <ele>488.6</ele>
        <time>2025-11-11T10:13:37Z</time>
      </trkpt>
      <trkpt lat="45.68185" lon="4.61463">
        <ele>488.2</ele>
        <time>2025-11-11T10:13:38Z</time>
      </trkpt>
      <trkpt lat="45.68189" lon="4.6146">
        <ele>487.8</ele>
        <time>2025-11-11T10:13:39Z</time>
      </trkpt>
      <trkpt lat="45.68194" lon="4.61457">
        <ele>487.4</ele>
        <time>2025-11-11T10:13:40Z</time>
      </trkpt>
      <trkpt lat="45.68198" lon="4.61453">
        <ele>486.8</ele>
        <time>2025-11-11T10:13:41Z</time>
      </trkpt>
      <trkpt lat="45.68203" lon="4.6145">
        <ele>486.4</ele>
        <time>2025-11-11T10:13:42Z</time>
      </trkpt>
      <trkpt lat="45.68208" lon="4.61445">
        <ele>485.8</ele>
        <time>2025-11-11T10:13:43Z</time>
      </trkpt>
      <trkpt lat="45.68213" lon="4.61441">
        <ele>485.2</ele>
        <time>2025-11-11T10:13:44Z</time>
      </trkpt>
      <trkpt lat="45.68218" lon="4.61436">
        <ele>485</ele>
        <time>2025-11-11T10:13:45Z</time>
      </trkpt>
      <trkpt lat="45.68222" lon="4.61432">
        <ele>484.8</ele>
        <time>2025-11-11T10:13:46Z</time>
      </trkpt>
      <trkpt lat="45.68226" lon="4.61428">
        <ele>485</ele>
        <time>2025-11-11T10:13:47Z</time>
      </trkpt>
      <trkpt lat="45.68229" lon="4.61424">
        <ele>485.2</ele>
        <time>2025-11-11T10:13:48Z</time>
      </trkpt>
      <trkpt lat="45.68233" lon="4.6142">
        <ele>485.6</ele>
        <time>2025-11-11T10:13:49Z</time>
      </trkpt>
      <trkpt lat="45.68236" lon="4.61415">
        <ele>485.8</ele>
        <time>2025-11-11T10:13:50Z</time>
      </trkpt>
      <trkpt lat="45.68239" lon="4.61411">
        <ele>486.2</ele>
        <time>2025-11-11T10:13:51Z</time>
      </trkpt>
      <trkpt lat="45.68242" lon="4.61407">
        <ele>486.2</ele>
        <time>2025-11-11T10:13:52Z</time>
      </trkpt>
      <trkpt lat="45.68245" lon="4.61403">
        <ele>486.6</ele>
        <time>2025-11-11T10:13:53Z</time>
      </trkpt>
      <trkpt lat="45.68249" lon="4.61398">
        <ele>486.6</ele>
        <time>2025-11-11T10:13:54Z</time>
      </trkpt>
      <trkpt lat="45.68252" lon="4.61394">
        <ele>486.6</ele>
        <time>2025-11-11T10:13:55Z</time>
      </trkpt>
      <trkpt lat="45.68256" lon="4.6139">
        <ele>486.6</ele>
        <time>2025-11-11T10:13:56Z</time>
      </trkpt>
      <trkpt lat="45.68259" lon="4.61386">
        <ele>486.8</ele>
        <time>2025-11-11T10:13:57Z</time>
      </trkpt>
      <trkpt lat="45.68262" lon="4.61382">
        <ele>486.8</ele>
        <time>2025-11-11T10:13:58Z</time>
      </trkpt>
      <trkpt lat="45.68265" lon="4.61379">
        <ele>487</ele>
        <time>2025-11-11T10:13:59Z</time>
      </trkpt>
      <trkpt lat="45.68268" lon="4.61375">
        <ele>487.2</ele>
        <time>2025-11-11T10:14:00Z</time>
      </trkpt>
      <trkpt lat="45.6827" lon="4.61372">
        <ele>487.2</ele>
        <time>2025-11-11T10:14:01Z</time>
      </trkpt>
      <trkpt lat="45.68273" lon="4.61369">
        <ele>487.4</ele>
        <time>2025-11-11T10:14:02Z</time>
      </trkpt>
      <trkpt lat="45.68276" lon="4.61365">
        <ele>487.6</ele>
        <time>2025-11-11T10:14:03Z</time>
      </trkpt>
      <trkpt lat="45.68279" lon="4.61362">
        <ele>487.8</ele>
        <time>2025-11-11T10:14:04Z</time>
      </trkpt>
      <trkpt lat="45.68282" lon="4.61358">
        <ele>488</ele>
        <time>2025-11-11T10:14:05Z</time>
      </trkpt>
      <trkpt lat="45.68285" lon="4.61355">
        <ele>488</ele>
        <time>2025-11-11T10:14:06Z</time>
      </trkpt>
      <trkpt lat="45.68288" lon="4.61352">
        <ele>488.2</ele>
        <time>2025-11-11T10:14:07Z</time>
      </trkpt>
      <trkpt lat="45.68291" lon="4.61349">
        <ele>488.2</ele>
        <time>2025-11-11T10:14:08Z</time>
      </trkpt>
      <trkpt lat="45.68294" lon="4.61345">
        <ele>488.2</ele>
        <time>2025-11-11T10:14:09Z</time>
      </trkpt>
      <trkpt lat="45.68296" lon="4.61341">
        <ele>488.4</ele>
        <time>2025-11-11T10:14:10Z</time>
      </trkpt>
      <trkpt lat="45.68299" lon="4.61338">
        <ele>488.4</ele>
        <time>2025-11-11T10:14:11Z</time>
      </trkpt>
      <trkpt lat="45.68302" lon="4.61334">
        <ele>488.4</ele>
        <time>2025-11-11T10:14:12Z</time>
      </trkpt>
      <trkpt lat="45.68305" lon="4.61331">
        <ele>488.4</ele>
        <time>2025-11-11T10:14:13Z</time>
      </trkpt>
      <trkpt lat="45.68307" lon="4.61327">
        <ele>488.6</ele>
        <time>2025-11-11T10:14:14Z</time>
      </trkpt>
      <trkpt lat="45.6831" lon="4.61323">
        <ele>488.6</ele>
        <time>2025-11-11T10:14:15Z</time>
      </trkpt>
      <trkpt lat="45.68311" lon="4.61319">
        <ele>488.8</ele>
        <time>2025-11-11T10:14:16Z</time>
      </trkpt>
      <trkpt lat="45.68313" lon="4.61315">
        <ele>488.8</ele>
        <time>2025-11-11T10:14:17Z</time>
      </trkpt>
      <trkpt lat="45.68316" lon="4.61311">
        <ele>489</ele>
        <time>2025-11-11T10:14:18Z</time>
      </trkpt>
      <trkpt lat="45.68318" lon="4.61308">
        <ele>489.2</ele>
        <time>2025-11-11T10:14:19Z</time>
      </trkpt>
      <trkpt lat="45.6832" lon="4.61304">
        <ele>489.4</ele>
        <time>2025-11-11T10:14:20Z</time>
      </trkpt>
      <trkpt lat="45.68322" lon="4.613">
        <ele>489.4</ele>
        <time>2025-11-11T10:14:21Z</time>
      </trkpt>
      <trkpt lat="45.68323" lon="4.61297">
        <ele>489.6</ele>
        <time>2025-11-11T10:14:22Z</time>
      </trkpt>
      <trkpt lat="45.68325" lon="4.61293">
        <ele>489.8</ele>
        <time>2025-11-11T10:14:23Z</time>
      </trkpt>
      <trkpt lat="45.68326" lon="4.61289">
        <ele>490</ele>
        <time>2025-11-11T10:14:24Z</time>
      </trkpt>
      <trkpt lat="45.68327" lon="4.61285">
        <ele>490</ele>
        <time>2025-11-11T10:14:25Z</time>
      </trkpt>
      <trkpt lat="45.68329" lon="4.61281">
        <ele>490.2</ele>
        <time>2025-11-11T10:14:26Z</time>
      </trkpt>
      <trkpt lat="45.6833" lon="4.61277">
        <ele>490.4</ele>
        <time>2025-11-11T10:14:27Z</time>
      </trkpt>
      <trkpt lat="45.68331" lon="4.61274">
        <ele>490.6</ele>
        <time>2025-11-11T10:14:28Z</time>
      </trkpt>
      <trkpt lat="45.68332" lon="4.6127">
        <ele>490.8</ele>
        <time>2025-11-11T10:14:29Z</time>
      </trkpt>
      <trkpt lat="45.68332" lon="4.61266">
        <ele>491.2</ele>
        <time>2025-11-11T10:14:30Z</time>
      </trkpt>
      <trkpt lat="45.68333" lon="4.61262">
        <ele>491.4</ele>
        <time>2025-11-11T10:14:31Z</time>
      </trkpt>
      <trkpt lat="45.68334" lon="4.61259">
        <ele>491.6</ele>
        <time>2025-11-11T10:14:32Z</time>
      </trkpt>
      <trkpt lat="45.68334" lon="4.61255">
        <ele>491.8</ele>
        <time>2025-11-11T10:14:33Z</time>
      </trkpt>
      <trkpt lat="45.68335" lon="4.61251">
        <ele>492.2</ele>
        <time>2025-11-11T10:14:34Z</time>
      </trkpt>
      <trkpt lat="45.68336" lon="4.61247">
        <ele>492.6</ele>
        <time>2025-11-11T10:14:35Z</time>
      </trkpt>
      <trkpt lat="45.68337" lon="4.61243">
        <ele>492.8</ele>
        <time>2025-11-11T10:14:36Z</time>
      </trkpt>
      <trkpt lat="45.68337" lon="4.61239">
        <ele>493.2</ele>
        <time>2025-11-11T10:14:37Z</time>
      </trkpt>
      <trkpt lat="45.68337" lon="4.61235">
        <ele>493.4</ele>
        <time>2025-11-11T10:14:38Z</time>
      </trkpt>
      <trkpt lat="45.68338" lon="4.61231">
        <ele>493.8</ele>
        <time>2025-11-11T10:14:39Z</time>
      </trkpt>
      <trkpt lat="45.68338" lon="4.61227">
        <ele>494</ele>
        <time>2025-11-11T10:14:40Z</time>
      </trkpt>
      <trkpt lat="45.68338" lon="4.61223">
        <ele>494.4</ele>
        <time>2025-11-11T10:14:41Z</time>
      </trkpt>
      <trkpt lat="45.68339" lon="4.61219">
        <ele>494.6</ele>
        <time>2025-11-11T10:14:42Z</time>
      </trkpt>
      <trkpt lat="45.68339" lon="4.61216">
        <ele>495</ele>
        <time>2025-11-11T10:14:43Z</time>
      </trkpt>
      <trkpt lat="45.6834" lon="4.61213">
        <ele>495.4</ele>
        <time>2025-11-11T10:14:44Z</time>
      </trkpt>
      <trkpt lat="45.68341" lon="4.61209">
        <ele>495.8</ele>
        <time>2025-11-11T10:14:45Z</time>
      </trkpt>
      <trkpt lat="45.68341" lon="4.61205">
        <ele>496</ele>
        <time>2025-11-11T10:14:46Z</time>
      </trkpt>
      <trkpt lat="45.68342" lon="4.61202">
        <ele>496.4</ele>
        <time>2025-11-11T10:14:47Z</time>
      </trkpt>
      <trkpt lat="45.68342" lon="4.61199">
        <ele>496.6</ele>
        <time>2025-11-11T10:14:48Z</time>
      </trkpt>
      <trkpt lat="45.68343" lon="4.61195">
        <ele>496.8</ele>
        <time>2025-11-11T10:14:49Z</time>
      </trkpt>
      <trkpt lat="45.68344" lon="4.61191">
        <ele>497</ele>
        <time>2025-11-11T10:14:50Z</time>
      </trkpt>
      <trkpt lat="45.68345" lon="4.61188">
        <ele>497.2</ele>
        <time>2025-11-11T10:14:51Z</time>
      </trkpt>
      <trkpt lat="45.68347" lon="4.61184">
        <ele>497.4</ele>
        <time>2025-11-11T10:14:52Z</time>
      </trkpt>
      <trkpt lat="45.68348" lon="4.61181">
        <ele>497.6</ele>
        <time>2025-11-11T10:14:53Z</time>
      </trkpt>
      <trkpt lat="45.6835" lon="4.61178">
        <ele>497.8</ele>
        <time>2025-11-11T10:14:54Z</time>
      </trkpt>
      <trkpt lat="45.68351" lon="4.61176">
        <ele>498</ele>
        <time>2025-11-11T10:14:55Z</time>
      </trkpt>
      <trkpt lat="45.68353" lon="4.61173">
        <ele>498.2</ele>
        <time>2025-11-11T10:14:56Z</time>
      </trkpt>
      <trkpt lat="45.68354" lon="4.61171">
        <ele>498.4</ele>
        <time>2025-11-11T10:14:57Z</time>
      </trkpt>
      <trkpt lat="45.68355" lon="4.61168">
        <ele>498.4</ele>
        <time>2025-11-11T10:14:58Z</time>
      </trkpt>
      <trkpt lat="45.68357" lon="4.61164">
        <ele>498.6</ele>
        <time>2025-11-11T10:14:59Z</time>
      </trkpt>
      <trkpt lat="45.68358" lon="4.61161">
        <ele>498.8</ele>
        <time>2025-11-11T10:15:00Z</time>
      </trkpt>
      <trkpt lat="45.68361" lon="4.61158">
        <ele>498.8</ele>
        <time>2025-11-11T10:15:01Z</time>
      </trkpt>
      <trkpt lat="45.68363" lon="4.61154">
        <ele>499</ele>
        <time>2025-11-11T10:15:02Z</time>
      </trkpt>
      <trkpt lat="45.68366" lon="4.6115">
        <ele>499.2</ele>
        <time>2025-11-11T10:15:03Z</time>
      </trkpt>
      <trkpt lat="45.68368" lon="4.61147">
        <ele>499.6</ele>
        <time>2025-11-11T10:15:04Z</time>
      </trkpt>
      <trkpt lat="45.6837" lon="4.61144">
        <ele>499.8</ele>
        <time>2025-11-11T10:15:05Z</time>
      </trkpt>
      <trkpt lat="45.68372" lon="4.61141">
        <ele>500.2</ele>
        <time>2025-11-11T10:15:06Z</time>
      </trkpt>
      <trkpt lat="45.68374" lon="4.61137">
        <ele>500.4</ele>
        <time>2025-11-11T10:15:07Z</time>
      </trkpt>
      <trkpt lat="45.68376" lon="4.61134">
        <ele>500.8</ele>
        <time>2025-11-11T10:15:08Z</time>
      </trkpt>
      <trkpt lat="45.68378" lon="4.6113">
        <ele>501.2</ele>
        <time>2025-11-11T10:15:09Z</time>
      </trkpt>
      <trkpt lat="45.68379" lon="4.61127">
        <ele>501.6</ele>
        <time>2025-11-11T10:15:10Z</time>
      </trkpt>
      <trkpt lat="45.68381" lon="4.61123">
        <ele>502</ele>
        <time>2025-11-11T10:15:11Z</time>
      </trkpt>
      <trkpt lat="45.68382" lon="4.61119">
        <ele>502.4</ele>
        <time>2025-11-11T10:15:12Z</time>
      </trkpt>
      <trkpt lat="45.68385" lon="4.61116">
        <ele>502.8</ele>
        <time>2025-11-11T10:15:13Z</time>
      </trkpt>
      <trkpt lat="45.68386" lon="4.61112">
        <ele>503</ele>
        <time>2025-11-11T10:15:14Z</time>
      </trkpt>
      <trkpt lat="45.68387" lon="4.61108">
        <ele>503.4</ele>
        <time>2025-11-11T10:15:15Z</time>
      </trkpt>
      <trkpt lat="45.68388" lon="4.61105">
        <ele>503.8</ele>
        <time>2025-11-11T10:15:16Z</time>
      </trkpt>
      <trkpt lat="45.6839" lon="4.611">
        <ele>504</ele>
        <time>2025-11-11T10:15:17Z</time>
      </trkpt>
      <trkpt lat="45.6839" lon="4.61096">
        <ele>504.4</ele>
        <time>2025-11-11T10:15:18Z</time>
      </trkpt>
      <trkpt lat="45.68391" lon="4.61092">
        <ele>504.6</ele>
        <time>2025-11-11T10:15:19Z</time>
      </trkpt>
      <trkpt lat="45.68392" lon="4.61088">
        <ele>505</ele>
        <time>2025-11-11T10:15:20Z</time>
      </trkpt>
      <trkpt lat="45.68393" lon="4.61084">
        <ele>505.2</ele>
        <time>2025-11-11T10:15:21Z</time>
      </trkpt>
      <trkpt lat="45.68393" lon="4.61081">
        <ele>505.6</ele>
        <time>2025-11-11T10:15:22Z</time>
      </trkpt>
      <trkpt lat="45.68393" lon="4.61077">
        <ele>505.8</ele>
        <time>2025-11-11T10:15:23Z</time>
      </trkpt>
      <trkpt lat="45.68393" lon="4.61074">
        <ele>506.2</ele>
        <time>2025-11-11T10:15:24Z</time>
      </trkpt>
      <trkpt lat="45.68393" lon="4.61071">
        <ele>506.4</ele>
        <time>2025-11-11T10:15:25Z</time>
      </trkpt>
      <trkpt lat="45.68393" lon="4.61068">
        <ele>506.6</ele>
        <time>2025-11-11T10:15:26Z</time>
      </trkpt>
      <trkpt lat="45.68394" lon="4.61066">
        <ele>506.8</ele>
        <time>2025-11-11T10:15:27Z</time>
      </trkpt>
      <trkpt lat="45.68395" lon="4.61062">
        <ele>506.8</ele>
        <time>2025-11-11T10:15:28Z</time>
      </trkpt>
      <trkpt lat="45.68395" lon="4.61059">
        <ele>507</ele>
        <time>2025-11-11T10:15:29Z</time>
      </trkpt>
      <trkpt lat="45.68396" lon="4.61057">
        <ele>507</ele>
        <time>2025-11-11T10:15:30Z</time>
      </trkpt>
      <trkpt lat="45.68396" lon="4.61053">
        <ele>507</ele>
        <time>2025-11-11T10:15:31Z</time>
      </trkpt>
      <trkpt lat="45.68396" lon="4.6105">
        <ele>507</ele>
        <time>2025-11-11T10:15:32Z</time>
      </trkpt>
      <trkpt lat="45.68396" lon="4.61047">
        <ele>507</ele>
        <time>2025-11-11T10:15:33Z</time>
      </trkpt>
      <trkpt lat="45.68396" lon="4.61044">
        <ele>507</ele>
        <time>2025-11-11T10:15:34Z</time>
      </trkpt>
      <trkpt lat="45.68397" lon="4.61041">
        <ele>507</ele>
        <time>2025-11-11T10:15:35Z</time>
      </trkpt>
      <trkpt lat="45.68397" lon="4.61038">
        <ele>507</ele>
        <time>2025-11-11T10:15:36Z</time>
      </trkpt>
      <trkpt lat="45.68397" lon="4.61035">
        <ele>507</ele>
        <time>2025-11-11T10:15:37Z</time>
      </trkpt>
      <trkpt lat="45.68397" lon="4.61032">
        <ele>506.8</ele>
        <time>2025-11-11T10:15:38Z</time>
      </trkpt>
      <trkpt lat="45.68397" lon="4.61028">
        <ele>506.8</ele>
        <time>2025-11-11T10:15:39Z</time>
      </trkpt>
      <trkpt lat="45.68397" lon="4.61024">
        <ele>506.6</ele>
        <time>2025-11-11T10:15:40Z</time>
      </trkpt>
      <trkpt lat="45.68397" lon="4.6102">
        <ele>506.6</ele>
        <time>2025-11-11T10:15:41Z</time>
      </trkpt>
      <trkpt lat="45.68397" lon="4.61016">
        <ele>506.4</ele>
        <time>2025-11-11T10:15:42Z</time>
      </trkpt>
      <trkpt lat="45.68397" lon="4.61012">
        <ele>506.4</ele>
        <time>2025-11-11T10:15:43Z</time>
      </trkpt>
      <trkpt lat="45.68397" lon="4.61008">
        <ele>506.2</ele>
        <time>2025-11-11T10:15:44Z</time>
      </trkpt>
      <trkpt lat="45.68397" lon="4.61003">
        <ele>506</ele>
        <time>2025-11-11T10:15:45Z</time>
      </trkpt>
      <trkpt lat="45.68397" lon="4.60999">
        <ele>506</ele>
        <time>2025-11-11T10:15:46Z</time>
      </trkpt>
      <trkpt lat="45.68397" lon="4.60994">
        <ele>506</ele>
        <time>2025-11-11T10:15:47Z</time>
      </trkpt>
      <trkpt lat="45.68397" lon="4.60989">
        <ele>505.8</ele>
        <time>2025-11-11T10:15:48Z</time>
      </trkpt>
      <trkpt lat="45.68397" lon="4.60985">
        <ele>505.8</ele>
        <time>2025-11-11T10:15:49Z</time>
      </trkpt>
      <trkpt lat="45.68397" lon="4.60981">
        <ele>505.6</ele>
        <time>2025-11-11T10:15:50Z</time>
      </trkpt>
      <trkpt lat="45.68397" lon="4.60977">
        <ele>505.6</ele>
        <time>2025-11-11T10:15:51Z</time>
      </trkpt>
      <trkpt lat="45.68397" lon="4.60972">
        <ele>505.4</ele>
        <time>2025-11-11T10:15:52Z</time>
      </trkpt>
      <trkpt lat="45.68397" lon="4.60967">
        <ele>505.2</ele>
        <time>2025-11-11T10:15:53Z</time>
      </trkpt>
      <trkpt lat="45.68397" lon="4.60962">
        <ele>505</ele>
        <time>2025-11-11T10:15:54Z</time>
      </trkpt>
      <trkpt lat="45.68397" lon="4.60956">
        <ele>504.8</ele>
        <time>2025-11-11T10:15:55Z</time>
      </trkpt>
      <trkpt lat="45.68397" lon="4.60951">
        <ele>504.6</ele>
        <time>2025-11-11T10:15:56Z</time>
      </trkpt>
      <trkpt lat="45.68397" lon="4.60945">
        <ele>504.4</ele>
        <time>2025-11-11T10:15:57Z</time>
      </trkpt>
      <trkpt lat="45.68398" lon="4.6094">
        <ele>504.2</ele>
        <time>2025-11-11T10:15:58Z</time>
      </trkpt>
      <trkpt lat="45.68399" lon="4.60935">
        <ele>504</ele>
        <time>2025-11-11T10:15:59Z</time>
      </trkpt>
      <trkpt lat="45.68401" lon="4.6093">
        <ele>503.6</ele>
        <time>2025-11-11T10:16:00Z</time>
      </trkpt>
      <trkpt lat="45.68403" lon="4.60924">
        <ele>503.4</ele>
        <time>2025-11-11T10:16:01Z</time>
      </trkpt>
      <trkpt lat="45.68406" lon="4.60919">
        <ele>503.2</ele>
        <time>2025-11-11T10:16:02Z</time>
      </trkpt>
      <trkpt lat="45.6841" lon="4.60914">
        <ele>503</ele>
        <time>2025-11-11T10:16:03Z</time>
      </trkpt>
      <trkpt lat="45.68413" lon="4.60909">
        <ele>503</ele>
        <time>2025-11-11T10:16:04Z</time>
      </trkpt>
      <trkpt lat="45.68417" lon="4.60905">
        <ele>503</ele>
        <time>2025-11-11T10:16:05Z</time>
      </trkpt>
      <trkpt lat="45.68421" lon="4.609">
        <ele>503.2</ele>
        <time>2025-11-11T10:16:06Z</time>
      </trkpt>
      <trkpt lat="45.68424" lon="4.60895">
        <ele>503.2</ele>
        <time>2025-11-11T10:16:07Z</time>
      </trkpt>
      <trkpt lat="45.68427" lon="4.60891">
        <ele>503.4</ele>
        <time>2025-11-11T10:16:08Z</time>
      </trkpt>
      <trkpt lat="45.6843" lon="4.60886">
        <ele>503.6</ele>
        <time>2025-11-11T10:16:09Z</time>
      </trkpt>
      <trkpt lat="45.68433" lon="4.60883">
        <ele>504</ele>
        <time>2025-11-11T10:16:10Z</time>
      </trkpt>
      <trkpt lat="45.68435" lon="4.6088">
        <ele>504.4</ele>
        <time>2025-11-11T10:16:11Z</time>
      </trkpt>
      <trkpt lat="45.68438" lon="4.60877">
        <ele>504.8</ele>
        <time>2025-11-11T10:16:12Z</time>
      </trkpt>
      <trkpt lat="45.68442" lon="4.60874">
        <ele>505.2</ele>
        <time>2025-11-11T10:16:13Z</time>
      </trkpt>
      <trkpt lat="45.68445" lon="4.60871">
        <ele>505.8</ele>
        <time>2025-11-11T10:16:14Z</time>
      </trkpt>
      <trkpt lat="45.68448" lon="4.60869">
        <ele>506.2</ele>
        <time>2025-11-11T10:16:15Z</time>
      </trkpt>
      <trkpt lat="45.68451" lon="4.60866">
        <ele>506.8</ele>
        <time>2025-11-11T10:16:16Z</time>
      </trkpt>
      <trkpt lat="45.68454" lon="4.60863">
        <ele>507.4</ele>
        <time>2025-11-11T10:16:17Z</time>
      </trkpt>
      <trkpt lat="45.68457" lon="4.60859">
        <ele>507.8</ele>
        <time>2025-11-11T10:16:18Z</time>
      </trkpt>
      <trkpt lat="45.68459" lon="4.60856">
        <ele>508.4</ele>
        <time>2025-11-11T10:16:19Z</time>
      </trkpt>
      <trkpt lat="45.68462" lon="4.60852">
        <ele>509</ele>
        <time>2025-11-11T10:16:20Z</time>
      </trkpt>
      <trkpt lat="45.68464" lon="4.60847">
        <ele>509.6</ele>
        <time>2025-11-11T10:16:21Z</time>
      </trkpt>
      <trkpt lat="45.68467" lon="4.60843">
        <ele>510.2</ele>
        <time>2025-11-11T10:16:22Z</time>
      </trkpt>
      <trkpt lat="45.68469" lon="4.60838">
        <ele>510.8</ele>
        <time>2025-11-11T10:16:23Z</time>
      </trkpt>
      <trkpt lat="45.68471" lon="4.60834">
        <ele>511.2</ele>
        <time>2025-11-11T10:16:24Z</time>
      </trkpt>
      <trkpt lat="45.68473" lon="4.6083">
        <ele>512</ele>
        <time>2025-11-11T10:16:25Z</time>
      </trkpt>
      <trkpt lat="45.68476" lon="4.60826">
        <ele>512.6</ele>
        <time>2025-11-11T10:16:26Z</time>
      </trkpt>
      <trkpt lat="45.68478" lon="4.60821">
        <ele>513.2</ele>
        <time>2025-11-11T10:16:27Z</time>
      </trkpt>
      <trkpt lat="45.68479" lon="4.60816">
        <ele>513.8</ele>
        <time>2025-11-11T10:16:28Z</time>
      </trkpt>
      <trkpt lat="45.68481" lon="4.60811">
        <ele>514.4</ele>
        <time>2025-11-11T10:16:29Z</time>
      </trkpt>
      <trkpt lat="45.68482" lon="4.60806">
        <ele>515</ele>
        <time>2025-11-11T10:16:30Z</time>
      </trkpt>
      <trkpt lat="45.68483" lon="4.608">
        <ele>515.6</ele>
        <time>2025-11-11T10:16:31Z</time>
      </trkpt>
      <trkpt lat="45.68484" lon="4.60795">
        <ele>516</ele>
        <time>2025-11-11T10:16:32Z</time>
      </trkpt>
      <trkpt lat="45.68484" lon="4.60789">
        <ele>516.6</ele>
        <time>2025-11-11T10:16:33Z</time>
      </trkpt>
      <trkpt lat="45.68483" lon="4.60784">
        <ele>517.2</ele>
        <time>2025-11-11T10:16:34Z</time>
      </trkpt>
      <trkpt lat="45.68483" lon="4.60778">
        <ele>518</ele>
        <time>2025-11-11T10:16:35Z</time>
      </trkpt>
      <trkpt lat="45.68482" lon="4.60773">
        <ele>518.4</ele>
        <time>2025-11-11T10:16:36Z</time>
      </trkpt>
      <trkpt lat="45.68482" lon="4.60768">
        <ele>519</ele>
        <time>2025-11-11T10:16:37Z</time>
      </trkpt>
      <trkpt lat="45.68481" lon="4.60762">
        <ele>519.6</ele>
        <time>2025-11-11T10:16:38Z</time>
      </trkpt>
      <trkpt lat="45.6848" lon="4.60757">
        <ele>519.8</ele>
        <time>2025-11-11T10:16:39Z</time>
      </trkpt>
      <trkpt lat="45.68479" lon="4.60752">
        <ele>520.2</ele>
        <time>2025-11-11T10:16:40Z</time>
      </trkpt>
      <trkpt lat="45.68478" lon="4.60746">
        <ele>520.4</ele>
        <time>2025-11-11T10:16:41Z</time>
      </trkpt>
      <trkpt lat="45.68476" lon="4.60742">
        <ele>520.6</ele>
        <time>2025-11-11T10:16:42Z</time>
      </trkpt>
      <trkpt lat="45.68474" lon="4.60737">
        <ele>520.8</ele>
        <time>2025-11-11T10:16:43Z</time>
      </trkpt>
      <trkpt lat="45.68472" lon="4.60732">
        <ele>521</ele>
        <time>2025-11-11T10:16:44Z</time>
      </trkpt>
      <trkpt lat="45.6847" lon="4.60728">
        <ele>521.2</ele>
        <time>2025-11-11T10:16:45Z</time>
      </trkpt>
      <trkpt lat="45.68467" lon="4.60724">
        <ele>521.4</ele>
        <time>2025-11-11T10:16:46Z</time>
      </trkpt>
      <trkpt lat="45.68465" lon="4.6072">
        <ele>521.6</ele>
        <time>2025-11-11T10:16:47Z</time>
      </trkpt>
      <trkpt lat="45.68463" lon="4.60716">
        <ele>521.8</ele>
        <time>2025-11-11T10:16:48Z</time>
      </trkpt>
      <trkpt lat="45.6846" lon="4.60712">
        <ele>522</ele>
        <time>2025-11-11T10:16:49Z</time>
      </trkpt>
      <trkpt lat="45.68458" lon="4.60709">
        <ele>522.4</ele>
        <time>2025-11-11T10:16:50Z</time>
      </trkpt>
      <trkpt lat="45.68456" lon="4.60706">
        <ele>522.8</ele>
        <time>2025-11-11T10:16:51Z</time>
      </trkpt>
      <trkpt lat="45.68454" lon="4.60703">
        <ele>523.2</ele>
        <time>2025-11-11T10:16:52Z</time>
      </trkpt>
      <trkpt lat="45.68452" lon="4.607">
        <ele>523.8</ele>
        <time>2025-11-11T10:16:53Z</time>
      </trkpt>
      <trkpt lat="45.6845" lon="4.60697">
        <ele>524.2</ele>
        <time>2025-11-11T10:16:54Z</time>
      </trkpt>
      <trkpt lat="45.68449" lon="4.60693">
        <ele>524.8</ele>
        <time>2025-11-11T10:16:55Z</time>
      </trkpt>
      <trkpt lat="45.68447" lon="4.6069">
        <ele>525.2</ele>
        <time>2025-11-11T10:16:56Z</time>
      </trkpt>
      <trkpt lat="45.68445" lon="4.60686">
        <ele>525.8</ele>
        <time>2025-11-11T10:16:57Z</time>
      </trkpt>
      <trkpt lat="45.68444" lon="4.60682">
        <ele>526.2</ele>
        <time>2025-11-11T10:16:58Z</time>
      </trkpt>
      <trkpt lat="45.68443" lon="4.60678">
        <ele>526.8</ele>
        <time>2025-11-11T10:16:59Z</time>
      </trkpt>
      <trkpt lat="45.68442" lon="4.60674">
        <ele>527.2</ele>
        <time>2025-11-11T10:17:00Z</time>
      </trkpt>
      <trkpt lat="45.68441" lon="4.60671">
        <ele>527.8</ele>
        <time>2025-11-11T10:17:01Z</time>
      </trkpt>
      <trkpt lat="45.6844" lon="4.60667">
        <ele>528.2</ele>
        <time>2025-11-11T10:17:02Z</time>
      </trkpt>
      <trkpt lat="45.6844" lon="4.60663">
        <ele>528.6</ele>
        <time>2025-11-11T10:17:03Z</time>
      </trkpt>
      <trkpt lat="45.6844" lon="4.60658">
        <ele>529</ele>
        <time>2025-11-11T10:17:04Z</time>
      </trkpt>
      <trkpt lat="45.6844" lon="4.60654">
        <ele>529.4</ele>
        <time>2025-11-11T10:17:05Z</time>
      </trkpt>
      <trkpt lat="45.68439" lon="4.6065">
        <ele>529.6</ele>
        <time>2025-11-11T10:17:06Z</time>
      </trkpt>
      <trkpt lat="45.68439" lon="4.60645">
        <ele>529.8</ele>
        <time>2025-11-11T10:17:07Z</time>
      </trkpt>
      <trkpt lat="45.68439" lon="4.60641">
        <ele>530</ele>
        <time>2025-11-11T10:17:08Z</time>
      </trkpt>
      <trkpt lat="45.68439" lon="4.60637">
        <ele>530.2</ele>
        <time>2025-11-11T10:17:09Z</time>
      </trkpt>
      <trkpt lat="45.6844" lon="4.60633">
        <ele>530.2</ele>
        <time>2025-11-11T10:17:10Z</time>
      </trkpt>
      <trkpt lat="45.6844" lon="4.60628">
        <ele>530.4</ele>
        <time>2025-11-11T10:17:11Z</time>
      </trkpt>
      <trkpt lat="45.68441" lon="4.60624">
        <ele>530.4</ele>
        <time>2025-11-11T10:17:12Z</time>
      </trkpt>
      <trkpt lat="45.68441" lon="4.60619">
        <ele>530.4</ele>
        <time>2025-11-11T10:17:13Z</time>
      </trkpt>
      <trkpt lat="45.68441" lon="4.60613">
        <ele>530.4</ele>
        <time>2025-11-11T10:17:14Z</time>
      </trkpt>
      <trkpt lat="45.68442" lon="4.60607">
        <ele>530.4</ele>
        <time>2025-11-11T10:17:15Z</time>
      </trkpt>
      <trkpt lat="45.68442" lon="4.60602">
        <ele>530.4</ele>
        <time>2025-11-11T10:17:16Z</time>
      </trkpt>
      <trkpt lat="45.68442" lon="4.60597">
        <ele>530.4</ele>
        <time>2025-11-11T10:17:17Z</time>
      </trkpt>
      <trkpt lat="45.68443" lon="4.60592">
        <ele>530.4</ele>
        <time>2025-11-11T10:17:18Z</time>
      </trkpt>
      <trkpt lat="45.68444" lon="4.60587">
        <ele>530.6</ele>
        <time>2025-11-11T10:17:19Z</time>
      </trkpt>
      <trkpt lat="45.68444" lon="4.60582">
        <ele>530.6</ele>
        <time>2025-11-11T10:17:20Z</time>
      </trkpt>
      <trkpt lat="45.68444" lon="4.60576">
        <ele>530.6</ele>
        <time>2025-11-11T10:17:21Z</time>
      </trkpt>
      <trkpt lat="45.68444" lon="4.60572">
        <ele>530.6</ele>
        <time>2025-11-11T10:17:22Z</time>
      </trkpt>
      <trkpt lat="45.68444" lon="4.60567">
        <ele>530.8</ele>
        <time>2025-11-11T10:17:23Z</time>
      </trkpt>
      <trkpt lat="45.68445" lon="4.60562">
        <ele>530.8</ele>
        <time>2025-11-11T10:17:24Z</time>
      </trkpt>
      <trkpt lat="45.68445" lon="4.60556">
        <ele>530.8</ele>
        <time>2025-11-11T10:17:25Z</time>
      </trkpt>
      <trkpt lat="45.68446" lon="4.6055">
        <ele>531</ele>
        <time>2025-11-11T10:17:26Z</time>
      </trkpt>
      <trkpt lat="45.68446" lon="4.60545">
        <ele>531</ele>
        <time>2025-11-11T10:17:27Z</time>
      </trkpt>
      <trkpt lat="45.68447" lon="4.6054">
        <ele>531.2</ele>
        <time>2025-11-11T10:17:28Z</time>
      </trkpt>
      <trkpt lat="45.68448" lon="4.60534">
        <ele>531.2</ele>
        <time>2025-11-11T10:17:29Z</time>
      </trkpt>
      <trkpt lat="45.68447" lon="4.60528">
        <ele>531.4</ele>
        <time>2025-11-11T10:17:30Z</time>
      </trkpt>
      <trkpt lat="45.68447" lon="4.60522">
        <ele>531.8</ele>
        <time>2025-11-11T10:17:31Z</time>
      </trkpt>
      <trkpt lat="45.68446" lon="4.60517">
        <ele>532.2</ele>
        <time>2025-11-11T10:17:32Z</time>
      </trkpt>
      <trkpt lat="45.68445" lon="4.60512">
        <ele>532.6</ele>
        <time>2025-11-11T10:17:33Z</time>
      </trkpt>
      <trkpt lat="45.68444" lon="4.60507">
        <ele>533.2</ele>
        <time>2025-11-11T10:17:34Z</time>
      </trkpt>
      <trkpt lat="45.68444" lon="4.60502">
        <ele>533.6</ele>
        <time>2025-11-11T10:17:35Z</time>
      </trkpt>
      <trkpt lat="45.68443" lon="4.60497">
        <ele>534</ele>
        <time>2025-11-11T10:17:36Z</time>
      </trkpt>
      <trkpt lat="45.68442" lon="4.60492">
        <ele>534.4</ele>
        <time>2025-11-11T10:17:37Z</time>
      </trkpt>
      <trkpt lat="45.68441" lon="4.60487">
        <ele>534.8</ele>
        <time>2025-11-11T10:17:38Z</time>
      </trkpt>
      <trkpt lat="45.68441" lon="4.60483">
        <ele>535</ele>
        <time>2025-11-11T10:17:39Z</time>
      </trkpt>
      <trkpt lat="45.6844" lon="4.60478">
        <ele>535.4</ele>
        <time>2025-11-11T10:17:40Z</time>
      </trkpt>
      <trkpt lat="45.68439" lon="4.60473">
        <ele>535.6</ele>
        <time>2025-11-11T10:17:41Z</time>
      </trkpt>
      <trkpt lat="45.68437" lon="4.60468">
        <ele>535.8</ele>
        <time>2025-11-11T10:17:42Z</time>
      </trkpt>
      <trkpt lat="45.68436" lon="4.60463">
        <ele>535.8</ele>
        <time>2025-11-11T10:17:43Z</time>
      </trkpt>
      <trkpt lat="45.68435" lon="4.60459">
        <ele>536</ele>
        <time>2025-11-11T10:17:44Z</time>
      </trkpt>
      <trkpt lat="45.68434" lon="4.60454">
        <ele>536.2</ele>
        <time>2025-11-11T10:17:45Z</time>
      </trkpt>
      <trkpt lat="45.68433" lon="4.6045">
        <ele>536.2</ele>
        <time>2025-11-11T10:17:46Z</time>
      </trkpt>
      <trkpt lat="45.68432" lon="4.60446">
        <ele>536.4</ele>
        <time>2025-11-11T10:17:47Z</time>
      </trkpt>
      <trkpt lat="45.68431" lon="4.60442">
        <ele>536.4</ele>
        <time>2025-11-11T10:17:48Z</time>
      </trkpt>
      <trkpt lat="45.6843" lon="4.60437">
        <ele>536.4</ele>
        <time>2025-11-11T10:17:49Z</time>
      </trkpt>
      <trkpt lat="45.68429" lon="4.60432">
        <ele>536.6</ele>
        <time>2025-11-11T10:17:50Z</time>
      </trkpt>
      <trkpt lat="45.68428" lon="4.60427">
        <ele>536.6</ele>
        <time>2025-11-11T10:17:51Z</time>
      </trkpt>
      <trkpt lat="45.68427" lon="4.60423">
        <ele>536.8</ele>
        <time>2025-11-11T10:17:52Z</time>
      </trkpt>
      <trkpt lat="45.68427" lon="4.60418">
        <ele>536.8</ele>
        <time>2025-11-11T10:17:53Z</time>
      </trkpt>
      <trkpt lat="45.68427" lon="4.60415">
        <ele>536.8</ele>
        <time>2025-11-11T10:17:54Z</time>
      </trkpt>
      <trkpt lat="45.68427" lon="4.6041">
        <ele>536.8</ele>
        <time>2025-11-11T10:17:55Z</time>
      </trkpt>
      <trkpt lat="45.68426" lon="4.60405">
        <ele>536.8</ele>
        <time>2025-11-11T10:17:56Z</time>
      </trkpt>
      <trkpt lat="45.68426" lon="4.604">
        <ele>536.8</ele>
        <time>2025-11-11T10:17:57Z</time>
      </trkpt>
      <trkpt lat="45.68425" lon="4.60395">
        <ele>536.8</ele>
        <time>2025-11-11T10:17:58Z</time>
      </trkpt>
      <trkpt lat="45.68425" lon="4.60389">
        <ele>536.6</ele>
        <time>2025-11-11T10:17:59Z</time>
      </trkpt>
      <trkpt lat="45.68426" lon="4.60383">
        <ele>536.4</ele>
        <time>2025-11-11T10:18:00Z</time>
      </trkpt>
      <trkpt lat="45.68427" lon="4.60376">
        <ele>536.2</ele>
        <time>2025-11-11T10:18:01Z</time>
      </trkpt>
      <trkpt lat="45.68428" lon="4.60369">
        <ele>536</ele>
        <time>2025-11-11T10:18:02Z</time>
      </trkpt>
      <trkpt lat="45.68429" lon="4.60362">
        <ele>535.6</ele>
        <time>2025-11-11T10:18:03Z</time>
      </trkpt>
      <trkpt lat="45.6843" lon="4.60355">
        <ele>535.4</ele>
        <time>2025-11-11T10:18:04Z</time>
      </trkpt>
      <trkpt lat="45.68432" lon="4.60348">
        <ele>535</ele>
        <time>2025-11-11T10:18:05Z</time>
      </trkpt>
      <trkpt lat="45.68435" lon="4.60341">
        <ele>534.8</ele>
        <time>2025-11-11T10:18:06Z</time>
      </trkpt>
      <trkpt lat="45.68438" lon="4.60336">
        <ele>534.6</ele>
        <time>2025-11-11T10:18:07Z</time>
      </trkpt>
      <trkpt lat="45.68442" lon="4.60332">
        <ele>534.6</ele>
        <time>2025-11-11T10:18:08Z</time>
      </trkpt>
      <trkpt lat="45.68446" lon="4.6033">
        <ele>534.4</ele>
        <time>2025-11-11T10:18:09Z</time>
      </trkpt>
      <trkpt lat="45.68451" lon="4.60328">
        <ele>534.6</ele>
        <time>2025-11-11T10:18:10Z</time>
      </trkpt>
      <trkpt lat="45.68455" lon="4.60326">
        <ele>534.8</ele>
        <time>2025-11-11T10:18:11Z</time>
      </trkpt>
      <trkpt lat="45.6846" lon="4.60325">
        <ele>535</ele>
        <time>2025-11-11T10:18:12Z</time>
      </trkpt>
      <trkpt lat="45.68464" lon="4.60324">
        <ele>535.4</ele>
        <time>2025-11-11T10:18:13Z</time>
      </trkpt>
      <trkpt lat="45.68468" lon="4.60323">
        <ele>535.8</ele>
        <time>2025-11-11T10:18:14Z</time>
      </trkpt>
      <trkpt lat="45.68472" lon="4.60322">
        <ele>536.2</ele>
        <time>2025-11-11T10:18:15Z</time>
      </trkpt>
      <trkpt lat="45.68476" lon="4.60321">
        <ele>536.8</ele>
        <time>2025-11-11T10:18:16Z</time>
      </trkpt>
      <trkpt lat="45.6848" lon="4.6032">
        <ele>537.4</ele>
        <time>2025-11-11T10:18:17Z</time>
      </trkpt>
      <trkpt lat="45.68484" lon="4.60319">
        <ele>537.8</ele>
        <time>2025-11-11T10:18:18Z</time>
      </trkpt>
      <trkpt lat="45.68488" lon="4.60319">
        <ele>538.4</ele>
        <time>2025-11-11T10:18:19Z</time>
      </trkpt>
      <trkpt lat="45.68492" lon="4.60317">
        <ele>539</ele>
        <time>2025-11-11T10:18:20Z</time>
      </trkpt>
      <trkpt lat="45.68496" lon="4.60316">
        <ele>539.6</ele>
        <time>2025-11-11T10:18:21Z</time>
      </trkpt>
      <trkpt lat="45.685" lon="4.60315">
        <ele>540.2</ele>
        <time>2025-11-11T10:18:22Z</time>
      </trkpt>
      <trkpt lat="45.68504" lon="4.60314">
        <ele>540.6</ele>
        <time>2025-11-11T10:18:23Z</time>
      </trkpt>
      <trkpt lat="45.68507" lon="4.60313">
        <ele>541.2</ele>
        <time>2025-11-11T10:18:24Z</time>
      </trkpt>
      <trkpt lat="45.68511" lon="4.60312">
        <ele>541.8</ele>
        <time>2025-11-11T10:18:25Z</time>
      </trkpt>
      <trkpt lat="45.68515" lon="4.6031">
        <ele>542.2</ele>
        <time>2025-11-11T10:18:26Z</time>
      </trkpt>
      <trkpt lat="45.68518" lon="4.60308">
        <ele>542.8</ele>
        <time>2025-11-11T10:18:27Z</time>
      </trkpt>
      <trkpt lat="45.68522" lon="4.60304">
        <ele>543.2</ele>
        <time>2025-11-11T10:18:28Z</time>
      </trkpt>
      <trkpt lat="45.68525" lon="4.603">
        <ele>543.4</ele>
        <time>2025-11-11T10:18:29Z</time>
      </trkpt>
      <trkpt lat="45.68528" lon="4.60296">
        <ele>543.8</ele>
        <time>2025-11-11T10:18:30Z</time>
      </trkpt>
      <trkpt lat="45.68531" lon="4.60292">
        <ele>544</ele>
        <time>2025-11-11T10:18:31Z</time>
      </trkpt>
      <trkpt lat="45.68534" lon="4.60287">
        <ele>544.2</ele>
        <time>2025-11-11T10:18:32Z</time>
      </trkpt>
      <trkpt lat="45.68536" lon="4.60282">
        <ele>544.4</ele>
        <time>2025-11-11T10:18:33Z</time>
      </trkpt>
      <trkpt lat="45.68539" lon="4.60278">
        <ele>544.8</ele>
        <time>2025-11-11T10:18:34Z</time>
      </trkpt>
      <trkpt lat="45.68542" lon="4.60273">
        <ele>544.8</ele>
        <time>2025-11-11T10:18:35Z</time>
      </trkpt>
      <trkpt lat="45.68545" lon="4.60268">
        <ele>545</ele>
        <time>2025-11-11T10:18:36Z</time>
      </trkpt>
      <trkpt lat="45.68548" lon="4.60263">
        <ele>545.2</ele>
        <time>2025-11-11T10:18:37Z</time>
      </trkpt>
      <trkpt lat="45.68551" lon="4.60258">
        <ele>545.2</ele>
        <time>2025-11-11T10:18:38Z</time>
      </trkpt>
      <trkpt lat="45.68553" lon="4.60253">
        <ele>545.2</ele>
        <time>2025-11-11T10:18:39Z</time>
      </trkpt>
      <trkpt lat="45.68556" lon="4.60248">
        <ele>545.2</ele>
        <time>2025-11-11T10:18:40Z</time>
      </trkpt>
      <trkpt lat="45.68559" lon="4.60243">
        <ele>545.4</ele>
        <time>2025-11-11T10:18:41Z</time>
      </trkpt>
      <trkpt lat="45.68562" lon="4.60238">
        <ele>545.4</ele>
        <time>2025-11-11T10:18:42Z</time>
      </trkpt>
      <trkpt lat="45.68565" lon="4.60233">
        <ele>545.2</ele>
        <time>2025-11-11T10:18:43Z</time>
      </trkpt>
      <trkpt lat="45.68568" lon="4.60227">
        <ele>545.2</ele>
        <time>2025-11-11T10:18:44Z</time>
      </trkpt>
      <trkpt lat="45.68572" lon="4.60221">
        <ele>545.2</ele>
        <time>2025-11-11T10:18:45Z</time>
      </trkpt>
      <trkpt lat="45.68575" lon="4.60216">
        <ele>545.2</ele>
        <time>2025-11-11T10:18:46Z</time>
      </trkpt>
      <trkpt lat="45.68578" lon="4.6021">
        <ele>545</ele>
        <time>2025-11-11T10:18:47Z</time>
      </trkpt>
      <trkpt lat="45.68581" lon="4.60205">
        <ele>545</ele>
        <time>2025-11-11T10:18:48Z</time>
      </trkpt>
      <trkpt lat="45.68584" lon="4.60199">
        <ele>545.2</ele>
        <time>2025-11-11T10:18:49Z</time>
      </trkpt>
      <trkpt lat="45.68587" lon="4.60193">
        <ele>545.2</ele>
        <time>2025-11-11T10:18:50Z</time>
      </trkpt>
      <trkpt lat="45.6859" lon="4.60188">
        <ele>545.4</ele>
        <time>2025-11-11T10:18:51Z</time>
      </trkpt>
      <trkpt lat="45.68592" lon="4.60182">
        <ele>545.4</ele>
        <time>2025-11-11T10:18:52Z</time>
      </trkpt>
      <trkpt lat="45.68595" lon="4.60177">
        <ele>545.6</ele>
        <time>2025-11-11T10:18:53Z</time>
      </trkpt>
      <trkpt lat="45.68597" lon="4.60171">
        <ele>545.8</ele>
        <time>2025-11-11T10:18:54Z</time>
      </trkpt>
      <trkpt lat="45.686" lon="4.60165">
        <ele>546</ele>
        <time>2025-11-11T10:18:55Z</time>
      </trkpt>
      <trkpt lat="45.68602" lon="4.60159">
        <ele>546.2</ele>
        <time>2025-11-11T10:18:56Z</time>
      </trkpt>
      <trkpt lat="45.68605" lon="4.60154">
        <ele>546.2</ele>
        <time>2025-11-11T10:18:57Z</time>
      </trkpt>
      <trkpt lat="45.68607" lon="4.60148">
        <ele>546.4</ele>
        <time>2025-11-11T10:18:58Z</time>
      </trkpt>
      <trkpt lat="45.6861" lon="4.60142">
        <ele>546.4</ele>
        <time>2025-11-11T10:18:59Z</time>
      </trkpt>
      <trkpt lat="45.68612" lon="4.60136">
        <ele>546.6</ele>
        <time>2025-11-11T10:19:00Z</time>
      </trkpt>
      <trkpt lat="45.68614" lon="4.6013">
        <ele>546.6</ele>
        <time>2025-11-11T10:19:01Z</time>
      </trkpt>
      <trkpt lat="45.68616" lon="4.60124">
        <ele>546.6</ele>
        <time>2025-11-11T10:19:02Z</time>
      </trkpt>
      <trkpt lat="45.68618" lon="4.60117">
        <ele>546.8</ele>
        <time>2025-11-11T10:19:03Z</time>
      </trkpt>
      <trkpt lat="45.6862" lon="4.60111">
        <ele>546.8</ele>
        <time>2025-11-11T10:19:04Z</time>
      </trkpt>
      <trkpt lat="45.68622" lon="4.60105">
        <ele>547</ele>
        <time>2025-11-11T10:19:05Z</time>
      </trkpt>
      <trkpt lat="45.68624" lon="4.60098">
        <ele>547.2</ele>
        <time>2025-11-11T10:19:06Z</time>
      </trkpt>
      <trkpt lat="45.68626" lon="4.60092">
        <ele>547.4</ele>
        <time>2025-11-11T10:19:07Z</time>
      </trkpt>
      <trkpt lat="45.68627" lon="4.60085">
        <ele>547.6</ele>
        <time>2025-11-11T10:19:08Z</time>
      </trkpt>
      <trkpt lat="45.68629" lon="4.60079">
        <ele>547.8</ele>
        <time>2025-11-11T10:19:09Z</time>
      </trkpt>
      <trkpt lat="45.68631" lon="4.60074">
        <ele>548.2</ele>
        <time>2025-11-11T10:19:10Z</time>
      </trkpt>
      <trkpt lat="45.68633" lon="4.60069">
        <ele>548.6</ele>
        <time>2025-11-11T10:19:11Z</time>
      </trkpt>
      <trkpt lat="45.68634" lon="4.60064">
        <ele>549</ele>
        <time>2025-11-11T10:19:12Z</time>
      </trkpt>
      <trkpt lat="45.68636" lon="4.60059">
        <ele>549.6</ele>
        <time>2025-11-11T10:19:13Z</time>
      </trkpt>
      <trkpt lat="45.68637" lon="4.60054">
        <ele>550</ele>
        <time>2025-11-11T10:19:14Z</time>
      </trkpt>
      <trkpt lat="45.68639" lon="4.60049">
        <ele>550.2</ele>
        <time>2025-11-11T10:19:15Z</time>
      </trkpt>
      <trkpt lat="45.68641" lon="4.60044">
        <ele>550.6</ele>
        <time>2025-11-11T10:19:16Z</time>
      </trkpt>
      <trkpt lat="45.68642" lon="4.60039">
        <ele>550.6</ele>
        <time>2025-11-11T10:19:17Z</time>
      </trkpt>
      <trkpt lat="45.68644" lon="4.60033">
        <ele>550.8</ele>
        <time>2025-11-11T10:19:18Z</time>
      </trkpt>
      <trkpt lat="45.68645" lon="4.60028">
        <ele>551</ele>
        <time>2025-11-11T10:19:19Z</time>
      </trkpt>
      <trkpt lat="45.68647" lon="4.60023">
        <ele>551.2</ele>
        <time>2025-11-11T10:19:20Z</time>
      </trkpt>
      <trkpt lat="45.68649" lon="4.60017">
        <ele>551.2</ele>
        <time>2025-11-11T10:19:21Z</time>
      </trkpt>
      <trkpt lat="45.68651" lon="4.60012">
        <ele>551.4</ele>
        <time>2025-11-11T10:19:22Z</time>
      </trkpt>
      <trkpt lat="45.68652" lon="4.60006">
        <ele>551.6</ele>
        <time>2025-11-11T10:19:23Z</time>
      </trkpt>
      <trkpt lat="45.68653" lon="4.60001">
        <ele>551.8</ele>
        <time>2025-11-11T10:19:24Z</time>
      </trkpt>
      <trkpt lat="45.68655" lon="4.59996">
        <ele>552</ele>
        <time>2025-11-11T10:19:25Z</time>
      </trkpt>
      <trkpt lat="45.68657" lon="4.59991">
        <ele>552.4</ele>
        <time>2025-11-11T10:19:26Z</time>
      </trkpt>
      <trkpt lat="45.68658" lon="4.59986">
        <ele>552.6</ele>
        <time>2025-11-11T10:19:27Z</time>
      </trkpt>
      <trkpt lat="45.6866" lon="4.5998">
        <ele>553</ele>
        <time>2025-11-11T10:19:28Z</time>
      </trkpt>
      <trkpt lat="45.68662" lon="4.59975">
        <ele>553.2</ele>
        <time>2025-11-11T10:19:29Z</time>
      </trkpt>
      <trkpt lat="45.68664" lon="4.5997">
        <ele>553.6</ele>
        <time>2025-11-11T10:19:30Z</time>
      </trkpt>
      <trkpt lat="45.68665" lon="4.59965">
        <ele>553.8</ele>
        <time>2025-11-11T10:19:31Z</time>
      </trkpt>
      <trkpt lat="45.68667" lon="4.59959">
        <ele>554.2</ele>
        <time>2025-11-11T10:19:32Z</time>
      </trkpt>
      <trkpt lat="45.68669" lon="4.59954">
        <ele>554.4</ele>
        <time>2025-11-11T10:19:33Z</time>
      </trkpt>
      <trkpt lat="45.6867" lon="4.5995">
        <ele>554.8</ele>
        <time>2025-11-11T10:19:34Z</time>
      </trkpt>
      <trkpt lat="45.68672" lon="4.59946">
        <ele>555</ele>
        <time>2025-11-11T10:19:35Z</time>
      </trkpt>
      <trkpt lat="45.68673" lon="4.59942">
        <ele>555.2</ele>
        <time>2025-11-11T10:19:36Z</time>
      </trkpt>
      <trkpt lat="45.68675" lon="4.59937">
        <ele>555.4</ele>
        <time>2025-11-11T10:19:37Z</time>
      </trkpt>
      <trkpt lat="45.68676" lon="4.59932">
        <ele>555.6</ele>
        <time>2025-11-11T10:19:38Z</time>
      </trkpt>
      <trkpt lat="45.68678" lon="4.59926">
        <ele>555.8</ele>
        <time>2025-11-11T10:19:39Z</time>
      </trkpt>
      <trkpt lat="45.68679" lon="4.59921">
        <ele>556</ele>
        <time>2025-11-11T10:19:40Z</time>
      </trkpt>
      <trkpt lat="45.6868" lon="4.59916">
        <ele>556.2</ele>
        <time>2025-11-11T10:19:41Z</time>
      </trkpt>
      <trkpt lat="45.68681" lon="4.5991">
        <ele>556.6</ele>
        <time>2025-11-11T10:19:42Z</time>
      </trkpt>
      <trkpt lat="45.68683" lon="4.59906">
        <ele>557</ele>
        <time>2025-11-11T10:19:43Z</time>
      </trkpt>
      <trkpt lat="45.68684" lon="4.59902">
        <ele>557.4</ele>
        <time>2025-11-11T10:19:44Z</time>
      </trkpt>
      <trkpt lat="45.68686" lon="4.59897">
        <ele>557.8</ele>
        <time>2025-11-11T10:19:45Z</time>
      </trkpt>
      <trkpt lat="45.68688" lon="4.59893">
        <ele>558.2</ele>
        <time>2025-11-11T10:19:46Z</time>
      </trkpt>
      <trkpt lat="45.68689" lon="4.59888">
        <ele>558.4</ele>
        <time>2025-11-11T10:19:47Z</time>
      </trkpt>
      <trkpt lat="45.6869" lon="4.59884">
        <ele>559</ele>
        <time>2025-11-11T10:19:48Z</time>
      </trkpt>
      <trkpt lat="45.68691" lon="4.59881">
        <ele>559.4</ele>
        <time>2025-11-11T10:19:49Z</time>
      </trkpt>
      <trkpt lat="45.68693" lon="4.59876">
        <ele>559.8</ele>
        <time>2025-11-11T10:19:50Z</time>
      </trkpt>
      <trkpt lat="45.68695" lon="4.59872">
        <ele>560.4</ele>
        <time>2025-11-11T10:19:51Z</time>
      </trkpt>
      <trkpt lat="45.68696" lon="4.59867">
        <ele>560.8</ele>
        <time>2025-11-11T10:19:52Z</time>
      </trkpt>
      <trkpt lat="45.68697" lon="4.59863">
        <ele>561.4</ele>
        <time>2025-11-11T10:19:53Z</time>
      </trkpt>
      <trkpt lat="45.68697" lon="4.59858">
        <ele>561.8</ele>
        <time>2025-11-11T10:19:54Z</time>
      </trkpt>
      <trkpt lat="45.68698" lon="4.59853">
        <ele>562.2</ele>
        <time>2025-11-11T10:19:55Z</time>
      </trkpt>
      <trkpt lat="45.687" lon="4.59849">
        <ele>562.8</ele>
        <time>2025-11-11T10:19:56Z</time>
      </trkpt>
      <trkpt lat="45.68701" lon="4.59845">
        <ele>563.2</ele>
        <time>2025-11-11T10:19:57Z</time>
      </trkpt>
      <trkpt lat="45.68703" lon="4.59841">
        <ele>563.8</ele>
        <time>2025-11-11T10:19:58Z</time>
      </trkpt>
      <trkpt lat="45.68704" lon="4.59837">
        <ele>564.2</ele>
        <time>2025-11-11T10:19:59Z</time>
      </trkpt>
      <trkpt lat="45.68706" lon="4.59833">
        <ele>564.8</ele>
        <time>2025-11-11T10:20:00Z</time>
      </trkpt>
      <trkpt lat="45.68707" lon="4.59829">
        <ele>565.2</ele>
        <time>2025-11-11T10:20:01Z</time>
      </trkpt>
      <trkpt lat="45.68708" lon="4.59825">
        <ele>565.6</ele>
        <time>2025-11-11T10:20:02Z</time>
      </trkpt>
      <trkpt lat="45.6871" lon="4.5982">
        <ele>566</ele>
        <time>2025-11-11T10:20:03Z</time>
      </trkpt>
      <trkpt lat="45.68712" lon="4.59816">
        <ele>566.4</ele>
        <time>2025-11-11T10:20:04Z</time>
      </trkpt>
      <trkpt lat="45.68714" lon="4.59813">
        <ele>566.8</ele>
        <time>2025-11-11T10:20:05Z</time>
      </trkpt>
      <trkpt lat="45.68716" lon="4.59808">
        <ele>567.2</ele>
        <time>2025-11-11T10:20:06Z</time>
      </trkpt>
      <trkpt lat="45.68718" lon="4.59805">
        <ele>567.8</ele>
        <time>2025-11-11T10:20:07Z</time>
      </trkpt>
      <trkpt lat="45.6872" lon="4.59801">
        <ele>568.2</ele>
        <time>2025-11-11T10:20:08Z</time>
      </trkpt>
      <trkpt lat="45.68721" lon="4.59799">
        <ele>568.6</ele>
        <time>2025-11-11T10:20:09Z</time>
      </trkpt>
      <trkpt lat="45.68722" lon="4.59796">
        <ele>569</ele>
        <time>2025-11-11T10:20:10Z</time>
      </trkpt>
      <trkpt lat="45.68723" lon="4.59795">
        <ele>569.4</ele>
        <time>2025-11-11T10:20:11Z</time>
      </trkpt>
      <trkpt lat="45.68723" lon="4.59793">
        <ele>569.8</ele>
        <time>2025-11-11T10:20:12Z</time>
      </trkpt>
      <trkpt lat="45.68723" lon="4.59791">
        <ele>570.2</ele>
        <time>2025-11-11T10:20:13Z</time>
      </trkpt>
      <trkpt lat="45.68723" lon="4.5979">
        <ele>570.6</ele>
        <time>2025-11-11T10:20:14Z</time>
      </trkpt>
      <trkpt lat="45.68723" lon="4.5979">
        <ele>571</ele>
        <time>2025-11-11T10:20:15Z</time>
      </trkpt>
      <trkpt lat="45.68723" lon="4.5979">
        <ele>571.2</ele>
        <time>2025-11-11T10:20:16Z</time>
      </trkpt>
      <trkpt lat="45.68723" lon="4.5979">
        <ele>571.4</ele>
        <time>2025-11-11T10:20:17Z</time>
      </trkpt>
      <trkpt lat="45.68723" lon="4.5979">
        <ele>571.4</ele>
        <time>2025-11-11T10:20:18Z</time>
      </trkpt>
      <trkpt lat="45.68723" lon="4.5979">
        <ele>571.4</ele>
        <time>2025-11-11T10:20:19Z</time>
      </trkpt>
      <trkpt lat="45.68723" lon="4.5979">
        <ele>571.4</ele>
        <time>2025-11-11T10:20:20Z</time>
      </trkpt>
      <trkpt lat="45.68723" lon="4.5979">
        <ele>571.4</ele>
        <time>2025-11-11T10:20:21Z</time>
      </trkpt>
      <trkpt lat="45.68723" lon="4.5979">
        <ele>571.4</ele>
        <time>2025-11-11T10:20:22Z</time>
      </trkpt>
      <trkpt lat="45.68723" lon="4.5979">
        <ele>571.4</ele>
        <time>2025-11-11T10:20:23Z</time>
      </trkpt>
      <trkpt lat="45.68723" lon="4.5979">
        <ele>571.4</ele>
        <time>2025-11-11T10:20:24Z</time>
      </trkpt>
      <trkpt lat="45.68723" lon="4.5979">
        <ele>571.4</ele>
        <time>2025-11-11T10:20:25Z</time>
      </trkpt>
      <trkpt lat="45.68723" lon="4.5979">
        <ele>571.6</ele>
        <time>2025-11-11T10:20:26Z</time>
      </trkpt>
      <trkpt lat="45.68723" lon="4.5979">
        <ele>571.6</ele>
        <time>2025-11-11T10:20:27Z</time>
      </trkpt>
      <trkpt lat="45.68723" lon="4.5979">
        <ele>571.6</ele>
        <time>2025-11-11T10:20:28Z</time>
      </trkpt>
      <trkpt lat="45.68723" lon="4.5979">
        <ele>571.6</ele>
        <time>2025-11-11T10:20:29Z</time>
      </trkpt>
      <trkpt lat="45.68723" lon="4.5979">
        <ele>571.6</ele>
        <time>2025-11-11T10:20:30Z</time>
      </trkpt>
      <trkpt lat="45.68723" lon="4.5979">
        <ele>571.6</ele>
        <time>2025-11-11T10:20:31Z</time>
      </trkpt>
      <trkpt lat="45.68723" lon="4.5979">
        <ele>571.6</ele>
        <time>2025-11-11T10:20:32Z</time>
      </trkpt>
      <trkpt lat="45.68723" lon="4.5979">
        <ele>571.6</ele>
        <time>2025-11-11T10:20:33Z</time>
      </trkpt>
      <trkpt lat="45.68723" lon="4.5979">
        <ele>571.6</ele>
        <time>2025-11-11T10:20:34Z</time>
      </trkpt>
      <trkpt lat="45.68723" lon="4.5979">
        <ele>571.6</ele>
        <time>2025-11-11T10:20:35Z</time>
      </trkpt>
      <trkpt lat="45.68723" lon="4.5979">
        <ele>571.6</ele>
        <time>2025-11-11T10:20:36Z</time>
      </trkpt>
      <trkpt lat="45.68723" lon="4.5979">
        <ele>571.6</ele>
        <time>2025-11-11T10:20:37Z</time>
      </trkpt>
      <trkpt lat="45.68723" lon="4.5979">
        <ele>571.6</ele>
        <time>2025-11-11T10:20:38Z</time>
      </trkpt>
      <trkpt lat="45.68723" lon="4.5979">
        <ele>571.6</ele>
        <time>2025-11-11T10:20:39Z</time>
      </trkpt>
      <trkpt lat="45.68723" lon="4.5979">
        <ele>571.6</ele>
        <time>2025-11-11T10:20:40Z</time>
      </trkpt>
      <trkpt lat="45.68723" lon="4.5979">
        <ele>571.6</ele>
        <time>2025-11-11T10:20:41Z</time>
      </trkpt>
      <trkpt lat="45.68723" lon="4.5979">
        <ele>571.6</ele>
        <time>2025-11-11T10:20:42Z</time>
      </trkpt>
      <trkpt lat="45.68723" lon="4.5979">
        <ele>571.6</ele>
        <time>2025-11-11T10:20:43Z</time>
      </trkpt>
      <trkpt lat="45.68723" lon="4.5979">
        <ele>571.6</ele>
        <time>2025-11-11T10:20:44Z</time>
      </trkpt>
      <trkpt lat="45.68723" lon="4.5979">
        <ele>571.6</ele>
        <time>2025-11-11T10:20:45Z</time>
      </trkpt>
      <trkpt lat="45.68723" lon="4.5979">
        <ele>571.6</ele>
        <time>2025-11-11T10:20:46Z</time>
      </trkpt>
      <trkpt lat="45.68723" lon="4.5979">
        <ele>571.6</ele>
        <time>2025-11-11T10:20:47Z</time>
      </trkpt>
      <trkpt lat="45.68723" lon="4.5979">
        <ele>571.6</ele>
        <time>2025-11-11T10:20:48Z</time>
      </trkpt>
      <trkpt lat="45.68723" lon="4.5979">
        <ele>571.6</ele>
        <time>2025-11-11T10:20:49Z</time>
      </trkpt>
      <trkpt lat="45.68723" lon="4.5979">
        <ele>571.6</ele>
        <time>2025-11-11T10:20:50Z</time>
      </trkpt>
      <trkpt lat="45.68723" lon="4.5979">
        <ele>571.6</ele>
        <time>2025-11-11T10:20:51Z</time>
      </trkpt>
      <trkpt lat="45.68723" lon="4.5979">
        <ele>571.6</ele>
        <time>2025-11-11T10:20:52Z</time>
      </trkpt>
      <trkpt lat="45.68723" lon="4.5979">
        <ele>571.6</ele>
        <time>2025-11-11T10:20:53Z</time>
      </trkpt>
      <trkpt lat="45.68723" lon="4.5979">
        <ele>571.6</ele>
        <time>2025-11-11T10:20:54Z</time>
      </trkpt>
      <trkpt lat="45.68723" lon="4.5979">
        <ele>571.8</ele>
        <time>2025-11-11T10:20:55Z</time>
      </trkpt>
      <trkpt lat="45.68723" lon="4.5979">
        <ele>571.6</ele>
        <time>2025-11-11T10:20:56Z</time>
      </trkpt>
      <trkpt lat="45.68723" lon="4.5979">
        <ele>571.6</ele>
        <time>2025-11-11T10:20:57Z</time>
      </trkpt>
      <trkpt lat="45.68723" lon="4.5979">
        <ele>571.6</ele>
        <time>2025-11-11T10:20:58Z</time>
      </trkpt>
      <trkpt lat="45.68723" lon="4.5979">
        <ele>571.6</ele>
        <time>2025-11-11T10:20:59Z</time>
      </trkpt>
      <trkpt lat="45.68723" lon="4.5979">
        <ele>571.6</ele>
        <time>2025-11-11T10:21:00Z</time>
      </trkpt>
      <trkpt lat="45.68723" lon="4.5979">
        <ele>571.6</ele>
        <time>2025-11-11T10:21:01Z</time>
      </trkpt>
      <trkpt lat="45.68723" lon="4.5979">
        <ele>571.6</ele>
        <time>2025-11-11T10:21:02Z</time>
      </trkpt>
      <trkpt lat="45.68723" lon="4.5979">
        <ele>571.6</ele>
        <time>2025-11-11T10:21:03Z</time>
      </trkpt>
      <trkpt lat="45.68723" lon="4.5979">
        <ele>571.6</ele>
        <time>2025-11-11T10:21:04Z</time>
      </trkpt>
      <trkpt lat="45.68723" lon="4.5979">
        <ele>571.6</ele>
        <time>2025-11-11T10:21:05Z</time>
      </trkpt>
      <trkpt lat="45.68723" lon="4.5979">
        <ele>571.8</ele>
        <time>2025-11-11T10:21:06Z</time>
      </trkpt>
      <trkpt lat="45.68723" lon="4.5979">
        <ele>571.8</ele>
        <time>2025-11-11T10:21:07Z</time>
      </trkpt>
      <trkpt lat="45.68723" lon="4.5979">
        <ele>571.8</ele>
        <time>2025-11-11T10:21:08Z</time>
      </trkpt>
      <trkpt lat="45.68723" lon="4.5979">
        <ele>571.8</ele>
        <time>2025-11-11T10:21:09Z</time>
      </trkpt>
      <trkpt lat="45.68723" lon="4.5979">
        <ele>571.8</ele>
        <time>2025-11-11T10:21:10Z</time>
      </trkpt>
      <trkpt lat="45.68723" lon="4.5979">
        <ele>571.8</ele>
        <time>2025-11-11T10:21:11Z</time>
      </trkpt>
      <trkpt lat="45.68723" lon="4.5979">
        <ele>571.8</ele>
        <time>2025-11-11T10:21:12Z</time>
      </trkpt>
      <trkpt lat="45.68723" lon="4.5979">
        <ele>571.8</ele>
        <time>2025-11-11T10:21:13Z</time>
      </trkpt>
      <trkpt lat="45.68723" lon="4.5979">
        <ele>571.6</ele>
        <time>2025-11-11T10:21:14Z</time>
      </trkpt>
      <trkpt lat="45.68723" lon="4.5979">
        <ele>571.8</ele>
        <time>2025-11-11T10:21:15Z</time>
      </trkpt>
      <trkpt lat="45.68723" lon="4.5979">
        <ele>571.8</ele>
        <time>2025-11-11T10:21:16Z</time>
      </trkpt>
      <trkpt lat="45.68723" lon="4.5979">
        <ele>571.8</ele>
        <time>2025-11-11T10:21:17Z</time>
      </trkpt>
      <trkpt lat="45.68723" lon="4.5979">
        <ele>572</ele>
        <time>2025-11-11T10:21:18Z</time>
      </trkpt>
      <trkpt lat="45.68723" lon="4.5979">
        <ele>572</ele>
        <time>2025-11-11T10:21:19Z</time>
      </trkpt>
      <trkpt lat="45.68723" lon="4.5979">
        <ele>572</ele>
        <time>2025-11-11T10:21:20Z</time>
      </trkpt>
      <trkpt lat="45.68723" lon="4.5979">
        <ele>571.8</ele>
        <time>2025-11-11T10:21:21Z</time>
      </trkpt>
      <trkpt lat="45.68723" lon="4.5979">
        <ele>571.8</ele>
        <time>2025-11-11T10:21:22Z</time>
      </trkpt>
      <trkpt lat="45.68723" lon="4.5979">
        <ele>571.8</ele>
        <time>2025-11-11T10:21:23Z</time>
      </trkpt>
      <trkpt lat="45.68723" lon="4.5979">
        <ele>571.8</ele>
        <time>2025-11-11T10:21:24Z</time>
      </trkpt>
      <trkpt lat="45.68723" lon="4.5979">
        <ele>571.8</ele>
        <time>2025-11-11T10:21:25Z</time>
      </trkpt>
      <trkpt lat="45.68723" lon="4.5979">
        <ele>571.8</ele>
        <time>2025-11-11T10:21:26Z</time>
      </trkpt>
      <trkpt lat="45.68723" lon="4.5979">
        <ele>571.8</ele>
        <time>2025-11-11T10:21:27Z</time>
      </trkpt>
      <trkpt lat="45.68723" lon="4.5979">
        <ele>571.8</ele>
        <time>2025-11-11T10:21:28Z</time>
      </trkpt>
      <trkpt lat="45.68723" lon="4.5979">
        <ele>571.8</ele>
        <time>2025-11-11T10:21:29Z</time>
      </trkpt>
      <trkpt lat="45.68723" lon="4.5979">
        <ele>571.8</ele>
        <time>2025-11-11T10:21:30Z</time>
      </trkpt>
      <trkpt lat="45.68723" lon="4.5979">
        <ele>571.8</ele>
        <time>2025-11-11T10:21:31Z</time>
      </trkpt>
      <trkpt lat="45.68723" lon="4.5979">
        <ele>571.8</ele>
        <time>2025-11-11T10:21:32Z</time>
      </trkpt>
      <trkpt lat="45.68723" lon="4.5979">
        <ele>571.8</ele>
        <time>2025-11-11T10:21:33Z</time>
      </trkpt>
      <trkpt lat="45.68723" lon="4.5979">
        <ele>571.8</ele>
        <time>2025-11-11T10:21:34Z</time>
      </trkpt>
      <trkpt lat="45.68723" lon="4.5979">
        <ele>571.8</ele>
        <time>2025-11-11T10:21:35Z</time>
      </trkpt>
      <trkpt lat="45.68723" lon="4.5979">
        <ele>571.8</ele>
        <time>2025-11-11T10:21:36Z</time>
      </trkpt>
      <trkpt lat="45.68723" lon="4.5979">
        <ele>572</ele>
        <time>2025-11-11T10:21:37Z</time>
      </trkpt>
      <trkpt lat="45.68723" lon="4.5979">
        <ele>572</ele>
        <time>2025-11-11T10:21:38Z</time>
      </trkpt>
      <trkpt lat="45.68723" lon="4.5979">
        <ele>572</ele>
        <time>2025-11-11T10:21:39Z</time>
      </trkpt>
      <trkpt lat="45.68723" lon="4.5979">
        <ele>572</ele>
        <time>2025-11-11T10:21:40Z</time>
      </trkpt>
      <trkpt lat="45.68723" lon="4.5979">
        <ele>572</ele>
        <time>2025-11-11T10:21:41Z</time>
      </trkpt>
      <trkpt lat="45.68723" lon="4.5979">
        <ele>572</ele>
        <time>2025-11-11T10:21:42Z</time>
      </trkpt>
      <trkpt lat="45.68723" lon="4.5979">
        <ele>572</ele>
        <time>2025-11-11T10:21:43Z</time>
      </trkpt>
      <trkpt lat="45.68723" lon="4.5979">
        <ele>572</ele>
        <time>2025-11-11T10:21:44Z</time>
      </trkpt>
      <trkpt lat="45.68723" lon="4.5979">
        <ele>572</ele>
        <time>2025-11-11T10:21:45Z</time>
      </trkpt>
      <trkpt lat="45.68723" lon="4.5979">
        <ele>572</ele>
        <time>2025-11-11T10:21:46Z</time>
      </trkpt>
      <trkpt lat="45.68723" lon="4.5979">
        <ele>572</ele>
        <time>2025-11-11T10:21:47Z</time>
      </trkpt>
      <trkpt lat="45.68723" lon="4.5979">
        <ele>572</ele>
        <time>2025-11-11T10:21:48Z</time>
      </trkpt>
      <trkpt lat="45.68723" lon="4.5979">
        <ele>572</ele>
        <time>2025-11-11T10:21:49Z</time>
      </trkpt>
      <trkpt lat="45.68723" lon="4.5979">
        <ele>572</ele>
        <time>2025-11-11T10:21:50Z</time>
      </trkpt>
      <trkpt lat="45.68723" lon="4.5979">
        <ele>572</ele>
        <time>2025-11-11T10:21:51Z</time>
      </trkpt>
      <trkpt lat="45.68723" lon="4.5979">
        <ele>572</ele>
        <time>2025-11-11T10:21:52Z</time>
      </trkpt>
      <trkpt lat="45.68723" lon="4.5979">
        <ele>572</ele>
        <time>2025-11-11T10:21:53Z</time>
      </trkpt>
      <trkpt lat="45.68723" lon="4.5979">
        <ele>572</ele>
        <time>2025-11-11T10:21:54Z</time>
      </trkpt>
      <trkpt lat="45.68723" lon="4.5979">
        <ele>572</ele>
        <time>2025-11-11T10:21:55Z</time>
      </trkpt>
      <trkpt lat="45.68723" lon="4.5979">
        <ele>572</ele>
        <time>2025-11-11T10:21:56Z</time>
      </trkpt>
      <trkpt lat="45.68723" lon="4.5979">
        <ele>572</ele>
        <time>2025-11-11T10:21:57Z</time>
      </trkpt>
      <trkpt lat="45.68723" lon="4.5979">
        <ele>572</ele>
        <time>2025-11-11T10:21:58Z</time>
      </trkpt>
      <trkpt lat="45.68723" lon="4.5979">
        <ele>572</ele>
        <time>2025-11-11T10:21:59Z</time>
      </trkpt>
      <trkpt lat="45.68723" lon="4.5979">
        <ele>572</ele>
        <time>2025-11-11T10:22:00Z</time>
      </trkpt>
      <trkpt lat="45.68723" lon="4.5979">
        <ele>572</ele>
        <time>2025-11-11T10:22:01Z</time>
      </trkpt>
      <trkpt lat="45.68723" lon="4.5979">
        <ele>572</ele>
        <time>2025-11-11T10:22:02Z</time>
      </trkpt>
      <trkpt lat="45.68723" lon="4.5979">
        <ele>572</ele>
        <time>2025-11-11T10:22:03Z</time>
      </trkpt>
      <trkpt lat="45.68723" lon="4.5979">
        <ele>572</ele>
        <time>2025-11-11T10:22:04Z</time>
      </trkpt>
      <trkpt lat="45.68723" lon="4.5979">
        <ele>572</ele>
        <time>2025-11-11T10:22:05Z</time>
      </trkpt>
      <trkpt lat="45.68723" lon="4.5979">
        <ele>572</ele>
        <time>2025-11-11T10:22:06Z</time>
      </trkpt>
      <trkpt lat="45.68723" lon="4.5979">
        <ele>572.2</ele>
        <time>2025-11-11T10:22:07Z</time>
      </trkpt>
      <trkpt lat="45.68723" lon="4.5979">
        <ele>572</ele>
        <time>2025-11-11T10:22:08Z</time>
      </trkpt>
      <trkpt lat="45.68723" lon="4.5979">
        <ele>572</ele>
        <time>2025-11-11T10:22:09Z</time>
      </trkpt>
      <trkpt lat="45.68723" lon="4.5979">
        <ele>572.2</ele>
        <time>2025-11-11T10:22:10Z</time>
      </trkpt>
      <trkpt lat="45.68723" lon="4.5979">
        <ele>572.2</ele>
        <time>2025-11-11T10:22:11Z</time>
      </trkpt>
      <trkpt lat="45.68723" lon="4.5979">
        <ele>572.2</ele>
        <time>2025-11-11T10:22:12Z</time>
      </trkpt>
      <trkpt lat="45.68723" lon="4.5979">
        <ele>572.2</ele>
        <time>2025-11-11T10:22:13Z</time>
      </trkpt>
      <trkpt lat="45.68723" lon="4.5979">
        <ele>572.2</ele>
        <time>2025-11-11T10:22:14Z</time>
      </trkpt>
      <trkpt lat="45.68723" lon="4.5979">
        <ele>572.2</ele>
        <time>2025-11-11T10:22:15Z</time>
      </trkpt>
      <trkpt lat="45.68723" lon="4.5979">
        <ele>572.2</ele>
        <time>2025-11-11T10:22:16Z</time>
      </trkpt>
      <trkpt lat="45.68723" lon="4.5979">
        <ele>572</ele>
        <time>2025-11-11T10:22:17Z</time>
      </trkpt>
      <trkpt lat="45.68723" lon="4.5979">
        <ele>572</ele>
        <time>2025-11-11T10:22:18Z</time>
      </trkpt>
      <trkpt lat="45.68723" lon="4.5979">
        <ele>572</ele>
        <time>2025-11-11T10:22:19Z</time>
      </trkpt>
      <trkpt lat="45.68723" lon="4.5979">
        <ele>572</ele>
        <time>2025-11-11T10:22:20Z</time>
      </trkpt>
      <trkpt lat="45.68723" lon="4.5979">
        <ele>572</ele>
        <time>2025-11-11T10:22:21Z</time>
      </trkpt>
      <trkpt lat="45.68723" lon="4.5979">
        <ele>572</ele>
        <time>2025-11-11T10:22:22Z</time>
      </trkpt>
      <trkpt lat="45.68723" lon="4.5979">
        <ele>572</ele>
        <time>2025-11-11T10:22:23Z</time>
      </trkpt>
      <trkpt lat="45.68723" lon="4.5979">
        <ele>572</ele>
        <time>2025-11-11T10:22:24Z</time>
      </trkpt>
      <trkpt lat="45.68723" lon="4.5979">
        <ele>572</ele>
        <time>2025-11-11T10:22:25Z</time>
      </trkpt>
      <trkpt lat="45.68723" lon="4.5979">
        <ele>572</ele>
        <time>2025-11-11T10:22:26Z</time>
      </trkpt>
      <trkpt lat="45.68723" lon="4.5979">
        <ele>572</ele>
        <time>2025-11-11T10:22:27Z</time>
      </trkpt>
      <trkpt lat="45.68723" lon="4.5979">
        <ele>572</ele>
        <time>2025-11-11T10:22:28Z</time>
      </trkpt>
      <trkpt lat="45.68723" lon="4.5979">
        <ele>572</ele>
        <time>2025-11-11T10:22:29Z</time>
      </trkpt>
      <trkpt lat="45.68723" lon="4.5979">
        <ele>572</ele>
        <time>2025-11-11T10:22:30Z</time>
      </trkpt>
      <trkpt lat="45.68723" lon="4.5979">
        <ele>572</ele>
        <time>2025-11-11T10:22:31Z</time>
      </trkpt>
      <trkpt lat="45.68723" lon="4.5979">
        <ele>572</ele>
        <time>2025-11-11T10:22:32Z</time>
      </trkpt>
      <trkpt lat="45.68723" lon="4.5979">
        <ele>572</ele>
        <time>2025-11-11T10:22:33Z</time>
      </trkpt>
      <trkpt lat="45.68723" lon="4.5979">
        <ele>572</ele>
        <time>2025-11-11T10:22:34Z</time>
      </trkpt>
      <trkpt lat="45.68723" lon="4.5979">
        <ele>572</ele>
        <time>2025-11-11T10:22:35Z</time>
      </trkpt>
      <trkpt lat="45.68723" lon="4.5979">
        <ele>572</ele>
        <time>2025-11-11T10:22:36Z</time>
      </trkpt>
      <trkpt lat="45.68723" lon="4.5979">
        <ele>572</ele>
        <time>2025-11-11T10:22:37Z</time>
      </trkpt>
      <trkpt lat="45.68723" lon="4.5979">
        <ele>572</ele>
        <time>2025-11-11T10:22:38Z</time>
      </trkpt>
      <trkpt lat="45.68723" lon="4.5979">
        <ele>572</ele>
        <time>2025-11-11T10:22:39Z</time>
      </trkpt>
      <trkpt lat="45.68723" lon="4.5979">
        <ele>572</ele>
        <time>2025-11-11T10:22:40Z</time>
      </trkpt>
      <trkpt lat="45.68723" lon="4.5979">
        <ele>572</ele>
        <time>2025-11-11T10:22:41Z</time>
      </trkpt>
      <trkpt lat="45.68723" lon="4.5979">
        <ele>572</ele>
        <time>2025-11-11T10:22:42Z</time>
      </trkpt>
      <trkpt lat="45.68723" lon="4.5979">
        <ele>572</ele>
        <time>2025-11-11T10:22:43Z</time>
      </trkpt>
      <trkpt lat="45.68723" lon="4.5979">
        <ele>572</ele>
        <time>2025-11-11T10:22:44Z</time>
      </trkpt>
      <trkpt lat="45.68724" lon="4.5979">
        <ele>572</ele>
        <time>2025-11-11T10:22:45Z</time>
      </trkpt>
      <trkpt lat="45.68726" lon="4.5979">
        <ele>572</ele>
        <time>2025-11-11T10:22:46Z</time>
      </trkpt>
      <trkpt lat="45.68728" lon="4.59788">
        <ele>572</ele>
        <time>2025-11-11T10:22:47Z</time>
      </trkpt>
      <trkpt lat="45.68731" lon="4.59787">
        <ele>572.6</ele>
        <time>2025-11-11T10:22:48Z</time>
      </trkpt>
      <trkpt lat="45.68734" lon="4.59786">
        <ele>572.4</ele>
        <time>2025-11-11T10:22:49Z</time>
      </trkpt>
      <trkpt lat="45.68736" lon="4.59784">
        <ele>572.2</ele>
        <time>2025-11-11T10:22:50Z</time>
      </trkpt>
      <trkpt lat="45.68739" lon="4.59783">
        <ele>572.2</ele>
        <time>2025-11-11T10:22:51Z</time>
      </trkpt>
      <trkpt lat="45.68742" lon="4.59782">
        <ele>572</ele>
        <time>2025-11-11T10:22:52Z</time>
      </trkpt>
      <trkpt lat="45.68744" lon="4.59781">
        <ele>572</ele>
        <time>2025-11-11T10:22:53Z</time>
      </trkpt>
      <trkpt lat="45.68747" lon="4.59781">
        <ele>572</ele>
        <time>2025-11-11T10:22:54Z</time>
      </trkpt>
      <trkpt lat="45.6875" lon="4.59781">
        <ele>572</ele>
        <time>2025-11-11T10:22:55Z</time>
      </trkpt>
      <trkpt lat="45.68753" lon="4.59781">
        <ele>572</ele>
        <time>2025-11-11T10:22:56Z</time>
      </trkpt>
      <trkpt lat="45.68756" lon="4.59781">
        <ele>572</ele>
        <time>2025-11-11T10:22:57Z</time>
      </trkpt>
      <trkpt lat="45.68759" lon="4.59782">
        <ele>572</ele>
        <time>2025-11-11T10:22:58Z</time>
      </trkpt>
      <trkpt lat="45.68762" lon="4.59783">
        <ele>572</ele>
        <time>2025-11-11T10:22:59Z</time>
      </trkpt>
      <trkpt lat="45.68765" lon="4.59785">
        <ele>571.8</ele>
        <time>2025-11-11T10:23:00Z</time>
      </trkpt>
      <trkpt lat="45.68767" lon="4.59787">
        <ele>571.8</ele>
        <time>2025-11-11T10:23:01Z</time>
      </trkpt>
      <trkpt lat="45.68769" lon="4.59789">
        <ele>571.8</ele>
        <time>2025-11-11T10:23:02Z</time>
      </trkpt>
      <trkpt lat="45.68772" lon="4.59791">
        <ele>571.8</ele>
        <time>2025-11-11T10:23:03Z</time>
      </trkpt>
      <trkpt lat="45.68774" lon="4.59794">
        <ele>571.8</ele>
        <time>2025-11-11T10:23:04Z</time>
      </trkpt>
      <trkpt lat="45.68776" lon="4.59798">
        <ele>571.8</ele>
        <time>2025-11-11T10:23:05Z</time>
      </trkpt>
      <trkpt lat="45.68778" lon="4.59802">
        <ele>571.8</ele>
        <time>2025-11-11T10:23:06Z</time>
      </trkpt>
      <trkpt lat="45.6878" lon="4.59806">
        <ele>571.8</ele>
        <time>2025-11-11T10:23:07Z</time>
      </trkpt>
      <trkpt lat="45.68783" lon="4.59811">
        <ele>571.6</ele>
        <time>2025-11-11T10:23:08Z</time>
      </trkpt>
      <trkpt lat="45.68786" lon="4.59815">
        <ele>571.6</ele>
        <time>2025-11-11T10:23:09Z</time>
      </trkpt>
      <trkpt lat="45.68789" lon="4.59819">
        <ele>571.4</ele>
        <time>2025-11-11T10:23:10Z</time>
      </trkpt>
      <trkpt lat="45.68792" lon="4.59822">
        <ele>571.4</ele>
        <time>2025-11-11T10:23:11Z</time>
      </trkpt>
      <trkpt lat="45.68794" lon="4.59826">
        <ele>571.4</ele>
        <time>2025-11-11T10:23:12Z</time>
      </trkpt>
      <trkpt lat="45.68796" lon="4.59829">
        <ele>571.4</ele>
        <time>2025-11-11T10:23:13Z</time>
      </trkpt>
      <trkpt lat="45.68798" lon="4.59832">
        <ele>571.4</ele>
        <time>2025-11-11T10:23:14Z</time>
      </trkpt>
      <trkpt lat="45.688" lon="4.59835">
        <ele>571.6</ele>
        <time>2025-11-11T10:23:15Z</time>
      </trkpt>
      <trkpt lat="45.68801" lon="4.59839">
        <ele>571.6</ele>
        <time>2025-11-11T10:23:16Z</time>
      </trkpt>
      <trkpt lat="45.68803" lon="4.59842">
        <ele>571.8</ele>
        <time>2025-11-11T10:23:17Z</time>
      </trkpt>
      <trkpt lat="45.68805" lon="4.59845">
        <ele>572</ele>
        <time>2025-11-11T10:23:18Z</time>
      </trkpt>
      <trkpt lat="45.68807" lon="4.59847">
        <ele>572.2</ele>
        <time>2025-11-11T10:23:19Z</time>
      </trkpt>
      <trkpt lat="45.6881" lon="4.59848">
        <ele>572.4</ele>
        <time>2025-11-11T10:23:20Z</time>
      </trkpt>
      <trkpt lat="45.68813" lon="4.59849">
        <ele>572.4</ele>
        <time>2025-11-11T10:23:21Z</time>
      </trkpt>
      <trkpt lat="45.68817" lon="4.5985">
        <ele>572.6</ele>
        <time>2025-11-11T10:23:22Z</time>
      </trkpt>
      <trkpt lat="45.6882" lon="4.59851">
        <ele>572.8</ele>
        <time>2025-11-11T10:23:23Z</time>
      </trkpt>
      <trkpt lat="45.68823" lon="4.59852">
        <ele>573.2</ele>
        <time>2025-11-11T10:23:24Z</time>
      </trkpt>
      <trkpt lat="45.68827" lon="4.59853">
        <ele>573.6</ele>
        <time>2025-11-11T10:23:25Z</time>
      </trkpt>
      <trkpt lat="45.6883" lon="4.59855">
        <ele>574.2</ele>
        <time>2025-11-11T10:23:26Z</time>
      </trkpt>
      <trkpt lat="45.68833" lon="4.59855">
        <ele>574.8</ele>
        <time>2025-11-11T10:23:27Z</time>
      </trkpt>
      <trkpt lat="45.68835" lon="4.59856">
        <ele>575.4</ele>
        <time>2025-11-11T10:23:28Z</time>
      </trkpt>
      <trkpt lat="45.68838" lon="4.59857">
        <ele>575.8</ele>
        <time>2025-11-11T10:23:29Z</time>
      </trkpt>
      <trkpt lat="45.6884" lon="4.59857">
        <ele>576.4</ele>
        <time>2025-11-11T10:23:30Z</time>
      </trkpt>
      <trkpt lat="45.68843" lon="4.59857">
        <ele>576.8</ele>
        <time>2025-11-11T10:23:31Z</time>
      </trkpt>
      <trkpt lat="45.68846" lon="4.59856">
        <ele>577</ele>
        <time>2025-11-11T10:23:32Z</time>
      </trkpt>
      <trkpt lat="45.68848" lon="4.59856">
        <ele>577.6</ele>
        <time>2025-11-11T10:23:33Z</time>
      </trkpt>
      <trkpt lat="45.6885" lon="4.59856">
        <ele>577.8</ele>
        <time>2025-11-11T10:23:34Z</time>
      </trkpt>
      <trkpt lat="45.68853" lon="4.59855">
        <ele>578.2</ele>
        <time>2025-11-11T10:23:35Z</time>
      </trkpt>
      <trkpt lat="45.68856" lon="4.59854">
        <ele>578.4</ele>
        <time>2025-11-11T10:23:36Z</time>
      </trkpt>
      <trkpt lat="45.68859" lon="4.59853">
        <ele>578.8</ele>
        <time>2025-11-11T10:23:37Z</time>
      </trkpt>
      <trkpt lat="45.68861" lon="4.59851">
        <ele>579</ele>
        <time>2025-11-11T10:23:38Z</time>
      </trkpt>
      <trkpt lat="45.68864" lon="4.59849">
        <ele>579.2</ele>
        <time>2025-11-11T10:23:39Z</time>
      </trkpt>
      <trkpt lat="45.68866" lon="4.59848">
        <ele>579.6</ele>
        <time>2025-11-11T10:23:40Z</time>
      </trkpt>
      <trkpt lat="45.68868" lon="4.59846">
        <ele>579.8</ele>
        <time>2025-11-11T10:23:41Z</time>
      </trkpt>
      <trkpt lat="45.6887" lon="4.59844">
        <ele>580</ele>
        <time>2025-11-11T10:23:42Z</time>
      </trkpt>
      <trkpt lat="45.68872" lon="4.59842">
        <ele>580.2</ele>
        <time>2025-11-11T10:23:43Z</time>
      </trkpt>
      <trkpt lat="45.68874" lon="4.5984">
        <ele>580.4</ele>
        <time>2025-11-11T10:23:44Z</time>
      </trkpt>
      <trkpt lat="45.68876" lon="4.59837">
        <ele>580.6</ele>
        <time>2025-11-11T10:23:45Z</time>
      </trkpt>
      <trkpt lat="45.68878" lon="4.59836">
        <ele>580.8</ele>
        <time>2025-11-11T10:23:46Z</time>
      </trkpt>
      <trkpt lat="45.6888" lon="4.59834">
        <ele>581</ele>
        <time>2025-11-11T10:23:47Z</time>
      </trkpt>
      <trkpt lat="45.68881" lon="4.59832">
        <ele>581.2</ele>
        <time>2025-11-11T10:23:48Z</time>
      </trkpt>
      <trkpt lat="45.68883" lon="4.59829">
        <ele>581.4</ele>
        <time>2025-11-11T10:23:49Z</time>
      </trkpt>
      <trkpt lat="45.68885" lon="4.59826">
        <ele>581.8</ele>
        <time>2025-11-11T10:23:50Z</time>
      </trkpt>
      <trkpt lat="45.68886" lon="4.59823">
        <ele>582</ele>
        <time>2025-11-11T10:23:51Z</time>
      </trkpt>
      <trkpt lat="45.68888" lon="4.5982">
        <ele>582.2</ele>
        <time>2025-11-11T10:23:52Z</time>
      </trkpt>
      <trkpt lat="45.68889" lon="4.59816">
        <ele>582.4</ele>
        <time>2025-11-11T10:23:53Z</time>
      </trkpt>
      <trkpt lat="45.68891" lon="4.59813">
        <ele>582.6</ele>
        <time>2025-11-11T10:23:54Z</time>
      </trkpt>
      <trkpt lat="45.68892" lon="4.5981">
        <ele>582.8</ele>
        <time>2025-11-11T10:23:55Z</time>
      </trkpt>
      <trkpt lat="45.68894" lon="4.59807">
        <ele>583</ele>
        <time>2025-11-11T10:23:56Z</time>
      </trkpt>
      <trkpt lat="45.68895" lon="4.59803">
        <ele>583.4</ele>
        <time>2025-11-11T10:23:57Z</time>
      </trkpt>
      <trkpt lat="45.68896" lon="4.59799">
        <ele>583.6</ele>
        <time>2025-11-11T10:23:58Z</time>
      </trkpt>
      <trkpt lat="45.68896" lon="4.59796">
        <ele>583.8</ele>
        <time>2025-11-11T10:23:59Z</time>
      </trkpt>
      <trkpt lat="45.68896" lon="4.59792">
        <ele>584</ele>
        <time>2025-11-11T10:24:00Z</time>
      </trkpt>
      <trkpt lat="45.68897" lon="4.59788">
        <ele>584.2</ele>
        <time>2025-11-11T10:24:01Z</time>
      </trkpt>
      <trkpt lat="45.68897" lon="4.59784">
        <ele>584.6</ele>
        <time>2025-11-11T10:24:02Z</time>
      </trkpt>
      <trkpt lat="45.68897" lon="4.59781">
        <ele>584.8</ele>
        <time>2025-11-11T10:24:03Z</time>
      </trkpt>
      <trkpt lat="45.68897" lon="4.59778">
        <ele>585</ele>
        <time>2025-11-11T10:24:04Z</time>
      </trkpt>
      <trkpt lat="45.68897" lon="4.59774">
        <ele>585.4</ele>
        <time>2025-11-11T10:24:05Z</time>
      </trkpt>
      <trkpt lat="45.68897" lon="4.5977">
        <ele>585.8</ele>
        <time>2025-11-11T10:24:06Z</time>
      </trkpt>
      <trkpt lat="45.68897" lon="4.59767">
        <ele>586.2</ele>
        <time>2025-11-11T10:24:07Z</time>
      </trkpt>
      <trkpt lat="45.68898" lon="4.59763">
        <ele>586.6</ele>
        <time>2025-11-11T10:24:08Z</time>
      </trkpt>
      <trkpt lat="45.68898" lon="4.59759">
        <ele>587</ele>
        <time>2025-11-11T10:24:09Z</time>
      </trkpt>
      <trkpt lat="45.68898" lon="4.59755">
        <ele>587.4</ele>
        <time>2025-11-11T10:24:10Z</time>
      </trkpt>
      <trkpt lat="45.68898" lon="4.59751">
        <ele>587.8</ele>
        <time>2025-11-11T10:24:11Z</time>
      </trkpt>
      <trkpt lat="45.68899" lon="4.59748">
        <ele>588.2</ele>
        <time>2025-11-11T10:24:12Z</time>
      </trkpt>
      <trkpt lat="45.68899" lon="4.59744">
        <ele>588.4</ele>
        <time>2025-11-11T10:24:13Z</time>
      </trkpt>
      <trkpt lat="45.689" lon="4.59739">
        <ele>588.6</ele>
        <time>2025-11-11T10:24:14Z</time>
      </trkpt>
      <trkpt lat="45.689" lon="4.59735">
        <ele>588.8</ele>
        <time>2025-11-11T10:24:15Z</time>
      </trkpt>
      <trkpt lat="45.689" lon="4.5973">
        <ele>589</ele>
        <time>2025-11-11T10:24:16Z</time>
      </trkpt>
      <trkpt lat="45.68901" lon="4.59726">
        <ele>589.2</ele>
        <time>2025-11-11T10:24:17Z</time>
      </trkpt>
      <trkpt lat="45.68901" lon="4.59722">
        <ele>589.2</ele>
        <time>2025-11-11T10:24:18Z</time>
      </trkpt>
      <trkpt lat="45.68901" lon="4.59718">
        <ele>589.6</ele>
        <time>2025-11-11T10:24:19Z</time>
      </trkpt>
      <trkpt lat="45.68901" lon="4.59713">
        <ele>589.8</ele>
        <time>2025-11-11T10:24:20Z</time>
      </trkpt>
      <trkpt lat="45.68901" lon="4.59709">
        <ele>589.8</ele>
        <time>2025-11-11T10:24:21Z</time>
      </trkpt>
      <trkpt lat="45.68901" lon="4.59705">
        <ele>590</ele>
        <time>2025-11-11T10:24:22Z</time>
      </trkpt>
      <trkpt lat="45.68901" lon="4.59701">
        <ele>590.4</ele>
        <time>2025-11-11T10:24:23Z</time>
      </trkpt>
      <trkpt lat="45.68901" lon="4.59697">
        <ele>590.6</ele>
        <time>2025-11-11T10:24:24Z</time>
      </trkpt>
      <trkpt lat="45.68901" lon="4.59693">
        <ele>590.8</ele>
        <time>2025-11-11T10:24:25Z</time>
      </trkpt>
      <trkpt lat="45.68901" lon="4.59688">
        <ele>591.2</ele>
        <time>2025-11-11T10:24:26Z</time>
      </trkpt>
      <trkpt lat="45.68901" lon="4.59684">
        <ele>591.4</ele>
        <time>2025-11-11T10:24:27Z</time>
      </trkpt>
      <trkpt lat="45.68901" lon="4.59679">
        <ele>591.6</ele>
        <time>2025-11-11T10:24:28Z</time>
      </trkpt>
      <trkpt lat="45.68901" lon="4.59675">
        <ele>591.8</ele>
        <time>2025-11-11T10:24:29Z</time>
      </trkpt>
      <trkpt lat="45.68901" lon="4.5967">
        <ele>592</ele>
        <time>2025-11-11T10:24:30Z</time>
      </trkpt>
      <trkpt lat="45.68901" lon="4.59665">
        <ele>592.2</ele>
        <time>2025-11-11T10:24:31Z</time>
      </trkpt>
      <trkpt lat="45.68902" lon="4.5966">
        <ele>592.6</ele>
        <time>2025-11-11T10:24:32Z</time>
      </trkpt>
      <trkpt lat="45.68903" lon="4.59656">
        <ele>592.8</ele>
        <time>2025-11-11T10:24:33Z</time>
      </trkpt>
      <trkpt lat="45.68905" lon="4.59651">
        <ele>593</ele>
        <time>2025-11-11T10:24:34Z</time>
      </trkpt>
      <trkpt lat="45.68905" lon="4.59647">
        <ele>593.4</ele>
        <time>2025-11-11T10:24:35Z</time>
      </trkpt>
      <trkpt lat="45.68907" lon="4.59642">
        <ele>593.6</ele>
        <time>2025-11-11T10:24:36Z</time>
      </trkpt>
      <trkpt lat="45.68908" lon="4.59638">
        <ele>594</ele>
        <time>2025-11-11T10:24:37Z</time>
      </trkpt>
      <trkpt lat="45.68908" lon="4.59634">
        <ele>594.2</ele>
        <time>2025-11-11T10:24:38Z</time>
      </trkpt>
      <trkpt lat="45.68909" lon="4.59629">
        <ele>594.4</ele>
        <time>2025-11-11T10:24:39Z</time>
      </trkpt>
      <trkpt lat="45.6891" lon="4.59625">
        <ele>594.4</ele>
        <time>2025-11-11T10:24:40Z</time>
      </trkpt>
      <trkpt lat="45.68911" lon="4.5962">
        <ele>594.6</ele>
        <time>2025-11-11T10:24:41Z</time>
      </trkpt>
      <trkpt lat="45.68912" lon="4.59616">
        <ele>594.6</ele>
        <time>2025-11-11T10:24:42Z</time>
      </trkpt>
      <trkpt lat="45.68912" lon="4.59612">
        <ele>594.8</ele>
        <time>2025-11-11T10:24:43Z</time>
      </trkpt>
      <trkpt lat="45.68913" lon="4.59608">
        <ele>594.8</ele>
        <time>2025-11-11T10:24:44Z</time>
      </trkpt>
      <trkpt lat="45.68914" lon="4.59603">
        <ele>594.8</ele>
        <time>2025-11-11T10:24:45Z</time>
      </trkpt>
      <trkpt lat="45.68915" lon="4.59598">
        <ele>594.8</ele>
        <time>2025-11-11T10:24:46Z</time>
      </trkpt>
      <trkpt lat="45.68916" lon="4.59593">
        <ele>594.8</ele>
        <time>2025-11-11T10:24:47Z</time>
      </trkpt>
      <trkpt lat="45.68918" lon="4.59588">
        <ele>594.8</ele>
        <time>2025-11-11T10:24:48Z</time>
      </trkpt>
      <trkpt lat="45.68918" lon="4.59584">
        <ele>594.8</ele>
        <time>2025-11-11T10:24:49Z</time>
      </trkpt>
      <trkpt lat="45.68919" lon="4.5958">
        <ele>594.8</ele>
        <time>2025-11-11T10:24:50Z</time>
      </trkpt>
      <trkpt lat="45.6892" lon="4.59575">
        <ele>595</ele>
        <time>2025-11-11T10:24:51Z</time>
      </trkpt>
      <trkpt lat="45.68921" lon="4.59571">
        <ele>595.2</ele>
        <time>2025-11-11T10:24:52Z</time>
      </trkpt>
      <trkpt lat="45.68922" lon="4.59567">
        <ele>595.2</ele>
        <time>2025-11-11T10:24:53Z</time>
      </trkpt>
      <trkpt lat="45.68923" lon="4.59563">
        <ele>595.4</ele>
        <time>2025-11-11T10:24:54Z</time>
      </trkpt>
      <trkpt lat="45.68924" lon="4.59559">
        <ele>595.6</ele>
        <time>2025-11-11T10:24:55Z</time>
      </trkpt>
      <trkpt lat="45.68925" lon="4.59554">
        <ele>595.6</ele>
        <time>2025-11-11T10:24:56Z</time>
      </trkpt>
      <trkpt lat="45.68926" lon="4.5955">
        <ele>595.8</ele>
        <time>2025-11-11T10:24:57Z</time>
      </trkpt>
      <trkpt lat="45.68928" lon="4.59546">
        <ele>596</ele>
        <time>2025-11-11T10:24:58Z</time>
      </trkpt>
      <trkpt lat="45.68929" lon="4.59541">
        <ele>596.2</ele>
        <time>2025-11-11T10:24:59Z</time>
      </trkpt>
      <trkpt lat="45.6893" lon="4.59538">
        <ele>596.6</ele>
        <time>2025-11-11T10:25:00Z</time>
      </trkpt>
      <trkpt lat="45.68931" lon="4.59534">
        <ele>596.8</ele>
        <time>2025-11-11T10:25:01Z</time>
      </trkpt>
      <trkpt lat="45.68932" lon="4.59529">
        <ele>597.2</ele>
        <time>2025-11-11T10:25:02Z</time>
      </trkpt>
      <trkpt lat="45.68932" lon="4.59525">
        <ele>597.4</ele>
        <time>2025-11-11T10:25:03Z</time>
      </trkpt>
      <trkpt lat="45.68933" lon="4.59522">
        <ele>597.8</ele>
        <time>2025-11-11T10:25:04Z</time>
      </trkpt>
      <trkpt lat="45.68934" lon="4.59518">
        <ele>598.2</ele>
        <time>2025-11-11T10:25:05Z</time>
      </trkpt>
      <trkpt lat="45.68935" lon="4.59514">
        <ele>598.4</ele>
        <time>2025-11-11T10:25:06Z</time>
      </trkpt>
      <trkpt lat="45.68935" lon="4.5951">
        <ele>598.8</ele>
        <time>2025-11-11T10:25:07Z</time>
      </trkpt>
      <trkpt lat="45.68935" lon="4.59506">
        <ele>599.2</ele>
        <time>2025-11-11T10:25:08Z</time>
      </trkpt>
      <trkpt lat="45.68936" lon="4.59502">
        <ele>599.8</ele>
        <time>2025-11-11T10:25:09Z</time>
      </trkpt>
      <trkpt lat="45.68936" lon="4.59498">
        <ele>600.2</ele>
        <time>2025-11-11T10:25:10Z</time>
      </trkpt>
      <trkpt lat="45.68937" lon="4.59494">
        <ele>600.6</ele>
        <time>2025-11-11T10:25:11Z</time>
      </trkpt>
      <trkpt lat="45.68937" lon="4.5949">
        <ele>601</ele>
        <time>2025-11-11T10:25:12Z</time>
      </trkpt>
      <trkpt lat="45.68938" lon="4.59486">
        <ele>601.6</ele>
        <time>2025-11-11T10:25:13Z</time>
      </trkpt>
      <trkpt lat="45.68938" lon="4.59482">
        <ele>602</ele>
        <time>2025-11-11T10:25:14Z</time>
      </trkpt>
      <trkpt lat="45.68938" lon="4.59479">
        <ele>602.4</ele>
        <time>2025-11-11T10:25:15Z</time>
      </trkpt>
      <trkpt lat="45.68939" lon="4.59475">
        <ele>603</ele>
        <time>2025-11-11T10:25:16Z</time>
      </trkpt>
      <trkpt lat="45.68939" lon="4.59471">
        <ele>603.4</ele>
        <time>2025-11-11T10:25:17Z</time>
      </trkpt>
      <trkpt lat="45.68939" lon="4.59468">
        <ele>603.8</ele>
        <time>2025-11-11T10:25:18Z</time>
      </trkpt>
      <trkpt lat="45.6894" lon="4.59464">
        <ele>604.4</ele>
        <time>2025-11-11T10:25:19Z</time>
      </trkpt>
      <trkpt lat="45.6894" lon="4.59461">
        <ele>604.8</ele>
        <time>2025-11-11T10:25:20Z</time>
      </trkpt>
      <trkpt lat="45.68941" lon="4.59457">
        <ele>605.2</ele>
        <time>2025-11-11T10:25:21Z</time>
      </trkpt>
      <trkpt lat="45.68941" lon="4.59454">
        <ele>605.6</ele>
        <time>2025-11-11T10:25:22Z</time>
      </trkpt>
      <trkpt lat="45.68941" lon="4.5945">
        <ele>606</ele>
        <time>2025-11-11T10:25:23Z</time>
      </trkpt>
      <trkpt lat="45.68941" lon="4.59447">
        <ele>606.2</ele>
        <time>2025-11-11T10:25:24Z</time>
      </trkpt>
      <trkpt lat="45.68941" lon="4.59444">
        <ele>606.8</ele>
        <time>2025-11-11T10:25:25Z</time>
      </trkpt>
      <trkpt lat="45.6894" lon="4.5944">
        <ele>607.2</ele>
        <time>2025-11-11T10:25:26Z</time>
      </trkpt>
      <trkpt lat="45.6894" lon="4.59437">
        <ele>607.8</ele>
        <time>2025-11-11T10:25:27Z</time>
      </trkpt>
      <trkpt lat="45.68939" lon="4.59435">
        <ele>608.2</ele>
        <time>2025-11-11T10:25:28Z</time>
      </trkpt>
      <trkpt lat="45.68939" lon="4.59432">
        <ele>608.6</ele>
        <time>2025-11-11T10:25:29Z</time>
      </trkpt>
      <trkpt lat="45.68939" lon="4.59428">
        <ele>609</ele>
        <time>2025-11-11T10:25:30Z</time>
      </trkpt>
      <trkpt lat="45.68939" lon="4.59425">
        <ele>609.4</ele>
        <time>2025-11-11T10:25:31Z</time>
      </trkpt>
      <trkpt lat="45.6894" lon="4.59422">
        <ele>609.6</ele>
        <time>2025-11-11T10:25:32Z</time>
      </trkpt>
      <trkpt lat="45.6894" lon="4.59419">
        <ele>610</ele>
        <time>2025-11-11T10:25:33Z</time>
      </trkpt>
      <trkpt lat="45.68941" lon="4.59415">
        <ele>610.2</ele>
        <time>2025-11-11T10:25:34Z</time>
      </trkpt>
      <trkpt lat="45.68941" lon="4.59412">
        <ele>610.4</ele>
        <time>2025-11-11T10:25:35Z</time>
      </trkpt>
      <trkpt lat="45.68941" lon="4.59409">
        <ele>610.6</ele>
        <time>2025-11-11T10:25:36Z</time>
      </trkpt>
      <trkpt lat="45.68941" lon="4.59406">
        <ele>610.8</ele>
        <time>2025-11-11T10:25:37Z</time>
      </trkpt>
      <trkpt lat="45.68941" lon="4.59403">
        <ele>611</ele>
        <time>2025-11-11T10:25:38Z</time>
      </trkpt>
      <trkpt lat="45.68941" lon="4.59399">
        <ele>611</ele>
        <time>2025-11-11T10:25:39Z</time>
      </trkpt>
      <trkpt lat="45.68941" lon="4.59395">
        <ele>611</ele>
        <time>2025-11-11T10:25:40Z</time>
      </trkpt>
      <trkpt lat="45.68941" lon="4.59391">
        <ele>611</ele>
        <time>2025-11-11T10:25:41Z</time>
      </trkpt>
      <trkpt lat="45.68942" lon="4.59387">
        <ele>611</ele>
        <time>2025-11-11T10:25:42Z</time>
      </trkpt>
      <trkpt lat="45.68942" lon="4.59384">
        <ele>611</ele>
        <time>2025-11-11T10:25:43Z</time>
      </trkpt>
      <trkpt lat="45.68942" lon="4.59381">
        <ele>611</ele>
        <time>2025-11-11T10:25:44Z</time>
      </trkpt>
      <trkpt lat="45.68942" lon="4.59377">
        <ele>611</ele>
        <time>2025-11-11T10:25:45Z</time>
      </trkpt>
      <trkpt lat="45.68942" lon="4.59373">
        <ele>611</ele>
        <time>2025-11-11T10:25:46Z</time>
      </trkpt>
      <trkpt lat="45.68943" lon="4.59368">
        <ele>611</ele>
        <time>2025-11-11T10:25:47Z</time>
      </trkpt>
      <trkpt lat="45.68943" lon="4.59364">
        <ele>611</ele>
        <time>2025-11-11T10:25:48Z</time>
      </trkpt>
      <trkpt lat="45.68943" lon="4.5936">
        <ele>611</ele>
        <time>2025-11-11T10:25:49Z</time>
      </trkpt>
      <trkpt lat="45.68943" lon="4.59355">
        <ele>611</ele>
        <time>2025-11-11T10:25:50Z</time>
      </trkpt>
      <trkpt lat="45.68943" lon="4.59352">
        <ele>611</ele>
        <time>2025-11-11T10:25:51Z</time>
      </trkpt>
      <trkpt lat="45.68943" lon="4.59349">
        <ele>611</ele>
        <time>2025-11-11T10:25:52Z</time>
      </trkpt>
      <trkpt lat="45.68943" lon="4.59347">
        <ele>611.2</ele>
        <time>2025-11-11T10:25:53Z</time>
      </trkpt>
      <trkpt lat="45.68943" lon="4.59343">
        <ele>611.2</ele>
        <time>2025-11-11T10:25:54Z</time>
      </trkpt>
      <trkpt lat="45.68942" lon="4.59339">
        <ele>611.2</ele>
        <time>2025-11-11T10:25:55Z</time>
      </trkpt>
      <trkpt lat="45.68941" lon="4.59336">
        <ele>611</ele>
        <time>2025-11-11T10:25:56Z</time>
      </trkpt>
      <trkpt lat="45.6894" lon="4.59333">
        <ele>611</ele>
        <time>2025-11-11T10:25:57Z</time>
      </trkpt>
      <trkpt lat="45.68939" lon="4.59332">
        <ele>610.8</ele>
        <time>2025-11-11T10:25:58Z</time>
      </trkpt>
      <trkpt lat="45.68938" lon="4.5933">
        <ele>610.8</ele>
        <time>2025-11-11T10:25:59Z</time>
      </trkpt>
      <trkpt lat="45.68937" lon="4.59329">
        <ele>610.6</ele>
        <time>2025-11-11T10:26:00Z</time>
      </trkpt>
      <trkpt lat="45.68936" lon="4.59326">
        <ele>610.4</ele>
        <time>2025-11-11T10:26:01Z</time>
      </trkpt>
      <trkpt lat="45.68935" lon="4.59323">
        <ele>610.2</ele>
        <time>2025-11-11T10:26:02Z</time>
      </trkpt>
      <trkpt lat="45.68934" lon="4.59321">
        <ele>610</ele>
        <time>2025-11-11T10:26:03Z</time>
      </trkpt>
      <trkpt lat="45.68933" lon="4.59319">
        <ele>609.8</ele>
        <time>2025-11-11T10:26:04Z</time>
      </trkpt>
      <trkpt lat="45.68931" lon="4.59317">
        <ele>609.8</ele>
        <time>2025-11-11T10:26:05Z</time>
      </trkpt>
      <trkpt lat="45.6893" lon="4.59315">
        <ele>609.6</ele>
        <time>2025-11-11T10:26:06Z</time>
      </trkpt>
      <trkpt lat="45.68929" lon="4.59315">
        <ele>609.6</ele>
        <time>2025-11-11T10:26:07Z</time>
      </trkpt>
      <trkpt lat="45.68929" lon="4.59315">
        <ele>609.6</ele>
        <time>2025-11-11T10:26:08Z</time>
      </trkpt>
      <trkpt lat="45.68929" lon="4.59315">
        <ele>609.6</ele>
        <time>2025-11-11T10:26:09Z</time>
      </trkpt>
      <trkpt lat="45.68929" lon="4.59315">
        <ele>609.6</ele>
        <time>2025-11-11T10:26:10Z</time>
      </trkpt>
      <trkpt lat="45.68929" lon="4.59315">
        <ele>609.6</ele>
        <time>2025-11-11T10:26:11Z</time>
      </trkpt>
      <trkpt lat="45.68929" lon="4.59315">
        <ele>609.6</ele>
        <time>2025-11-11T10:26:12Z</time>
      </trkpt>
      <trkpt lat="45.68929" lon="4.59315">
        <ele>609.6</ele>
        <time>2025-11-11T10:26:13Z</time>
      </trkpt>
      <trkpt lat="45.68929" lon="4.59315">
        <ele>609.6</ele>
        <time>2025-11-11T10:26:14Z</time>
      </trkpt>
      <trkpt lat="45.68929" lon="4.59315">
        <ele>609.6</ele>
        <time>2025-11-11T10:26:15Z</time>
      </trkpt>
      <trkpt lat="45.68929" lon="4.59315">
        <ele>609.6</ele>
        <time>2025-11-11T10:26:16Z</time>
      </trkpt>
      <trkpt lat="45.68929" lon="4.59315">
        <ele>609.4</ele>
        <time>2025-11-11T10:26:17Z</time>
      </trkpt>
      <trkpt lat="45.68929" lon="4.59315">
        <ele>609.4</ele>
        <time>2025-11-11T10:26:18Z</time>
      </trkpt>
      <trkpt lat="45.68929" lon="4.59315">
        <ele>609.4</ele>
        <time>2025-11-11T10:26:19Z</time>
      </trkpt>
      <trkpt lat="45.68929" lon="4.59315">
        <ele>609.4</ele>
        <time>2025-11-11T10:26:20Z</time>
      </trkpt>
      <trkpt lat="45.68929" lon="4.59315">
        <ele>609.4</ele>
        <time>2025-11-11T10:26:21Z</time>
      </trkpt>
      <trkpt lat="45.68929" lon="4.59315">
        <ele>609.4</ele>
        <time>2025-11-11T10:26:22Z</time>
      </trkpt>
      <trkpt lat="45.68929" lon="4.59315">
        <ele>609.4</ele>
        <time>2025-11-11T10:26:23Z</time>
      </trkpt>
      <trkpt lat="45.68929" lon="4.59315">
        <ele>609.4</ele>
        <time>2025-11-11T10:26:24Z</time>
      </trkpt>
      <trkpt lat="45.68929" lon="4.59315">
        <ele>609.6</ele>
        <time>2025-11-11T10:26:25Z</time>
      </trkpt>
      <trkpt lat="45.68929" lon="4.59315">
        <ele>609.6</ele>
        <time>2025-11-11T10:26:26Z</time>
      </trkpt>
      <trkpt lat="45.68929" lon="4.59315">
        <ele>609.6</ele>
        <time>2025-11-11T10:26:27Z</time>
      </trkpt>
      <trkpt lat="45.68929" lon="4.59315">
        <ele>609.6</ele>
        <time>2025-11-11T10:26:28Z</time>
      </trkpt>
      <trkpt lat="45.68929" lon="4.59315">
        <ele>609.4</ele>
        <time>2025-11-11T10:26:29Z</time>
      </trkpt>
      <trkpt lat="45.68929" lon="4.59315">
        <ele>609.4</ele>
        <time>2025-11-11T10:26:30Z</time>
      </trkpt>
      <trkpt lat="45.68929" lon="4.59315">
        <ele>609.4</ele>
        <time>2025-11-11T10:26:31Z</time>
      </trkpt>
      <trkpt lat="45.68929" lon="4.59315">
        <ele>609.6</ele>
        <time>2025-11-11T10:26:32Z</time>
      </trkpt>
      <trkpt lat="45.68929" lon="4.59315">
        <ele>609.6</ele>
        <time>2025-11-11T10:26:33Z</time>
      </trkpt>
      <trkpt lat="45.68929" lon="4.59315">
        <ele>609.8</ele>
        <time>2025-11-11T10:26:34Z</time>
      </trkpt>
      <trkpt lat="45.68929" lon="4.59315">
        <ele>609.8</ele>
        <time>2025-11-11T10:26:35Z</time>
      </trkpt>
      <trkpt lat="45.68929" lon="4.59315">
        <ele>610</ele>
        <time>2025-11-11T10:26:36Z</time>
      </trkpt>
      <trkpt lat="45.68929" lon="4.59315">
        <ele>610</ele>
        <time>2025-11-11T10:26:37Z</time>
      </trkpt>
      <trkpt lat="45.68929" lon="4.59315">
        <ele>610</ele>
        <time>2025-11-11T10:26:38Z</time>
      </trkpt>
      <trkpt lat="45.68929" lon="4.59315">
        <ele>609.8</ele>
        <time>2025-11-11T10:26:39Z</time>
      </trkpt>
      <trkpt lat="45.68929" lon="4.59315">
        <ele>609.8</ele>
        <time>2025-11-11T10:26:40Z</time>
      </trkpt>
      <trkpt lat="45.68929" lon="4.59315">
        <ele>609.8</ele>
        <time>2025-11-11T10:26:41Z</time>
      </trkpt>
      <trkpt lat="45.68929" lon="4.59315">
        <ele>609.6</ele>
        <time>2025-11-11T10:26:42Z</time>
      </trkpt>
      <trkpt lat="45.68929" lon="4.59315">
        <ele>609.6</ele>
        <time>2025-11-11T10:26:43Z</time>
      </trkpt>
      <trkpt lat="45.68929" lon="4.59315">
        <ele>609.4</ele>
        <time>2025-11-11T10:26:44Z</time>
      </trkpt>
      <trkpt lat="45.68929" lon="4.59315">
        <ele>609.4</ele>
        <time>2025-11-11T10:26:45Z</time>
      </trkpt>
      <trkpt lat="45.68929" lon="4.59315">
        <ele>609.4</ele>
        <time>2025-11-11T10:26:46Z</time>
      </trkpt>
      <trkpt lat="45.68929" lon="4.59315">
        <ele>609.4</ele>
        <time>2025-11-11T10:26:47Z</time>
      </trkpt>
      <trkpt lat="45.68929" lon="4.59315">
        <ele>609.6</ele>
        <time>2025-11-11T10:26:48Z</time>
      </trkpt>
      <trkpt lat="45.68929" lon="4.59315">
        <ele>609.6</ele>
        <time>2025-11-11T10:26:49Z</time>
      </trkpt>
      <trkpt lat="45.68929" lon="4.59315">
        <ele>609.6</ele>
        <time>2025-11-11T10:26:50Z</time>
      </trkpt>
      <trkpt lat="45.68929" lon="4.59315">
        <ele>609.6</ele>
        <time>2025-11-11T10:26:51Z</time>
      </trkpt>
      <trkpt lat="45.68929" lon="4.59315">
        <ele>609.6</ele>
        <time>2025-11-11T10:26:52Z</time>
      </trkpt>
      <trkpt lat="45.68929" lon="4.59315">
        <ele>609.6</ele>
        <time>2025-11-11T10:26:53Z</time>
      </trkpt>
      <trkpt lat="45.68929" lon="4.59315">
        <ele>609.6</ele>
        <time>2025-11-11T10:26:54Z</time>
      </trkpt>
      <trkpt lat="45.68929" lon="4.59315">
        <ele>609.4</ele>
        <time>2025-11-11T10:26:55Z</time>
      </trkpt>
      <trkpt lat="45.68929" lon="4.59315">
        <ele>609.4</ele>
        <time>2025-11-11T10:26:56Z</time>
      </trkpt>
      <trkpt lat="45.68929" lon="4.59315">
        <ele>609.4</ele>
        <time>2025-11-11T10:26:57Z</time>
      </trkpt>
      <trkpt lat="45.68929" lon="4.59315">
        <ele>609.6</ele>
        <time>2025-11-11T10:26:58Z</time>
      </trkpt>
      <trkpt lat="45.68929" lon="4.59314">
        <ele>609.6</ele>
        <time>2025-11-11T10:26:59Z</time>
      </trkpt>
      <trkpt lat="45.68929" lon="4.59313">
        <ele>609.4</ele>
        <time>2025-11-11T10:27:00Z</time>
      </trkpt>
      <trkpt lat="45.68928" lon="4.59311">
        <ele>609.4</ele>
        <time>2025-11-11T10:27:01Z</time>
      </trkpt>
      <trkpt lat="45.68926" lon="4.5931">
        <ele>609.4</ele>
        <time>2025-11-11T10:27:02Z</time>
      </trkpt>
      <trkpt lat="45.68925" lon="4.59308">
        <ele>609.4</ele>
        <time>2025-11-11T10:27:03Z</time>
      </trkpt>
      <trkpt lat="45.68923" lon="4.59306">
        <ele>609.2</ele>
        <time>2025-11-11T10:27:04Z</time>
      </trkpt>
      <trkpt lat="45.68922" lon="4.59305">
        <ele>609.2</ele>
        <time>2025-11-11T10:27:05Z</time>
      </trkpt>
      <trkpt lat="45.6892" lon="4.59303">
        <ele>609.2</ele>
        <time>2025-11-11T10:27:06Z</time>
      </trkpt>
      <trkpt lat="45.68918" lon="4.59302">
        <ele>609.2</ele>
        <time>2025-11-11T10:27:07Z</time>
      </trkpt>
      <trkpt lat="45.68915" lon="4.59301">
        <ele>609</ele>
        <time>2025-11-11T10:27:08Z</time>
      </trkpt>
      <trkpt lat="45.68913" lon="4.593">
        <ele>609</ele>
        <time>2025-11-11T10:27:09Z</time>
      </trkpt>
      <trkpt lat="45.68911" lon="4.59299">
        <ele>608.8</ele>
        <time>2025-11-11T10:27:10Z</time>
      </trkpt>
      <trkpt lat="45.68909" lon="4.59297">
        <ele>608.6</ele>
        <time>2025-11-11T10:27:11Z</time>
      </trkpt>
      <trkpt lat="45.68907" lon="4.59295">
        <ele>608.4</ele>
        <time>2025-11-11T10:27:12Z</time>
      </trkpt>
      <trkpt lat="45.68905" lon="4.59294">
        <ele>608.2</ele>
        <time>2025-11-11T10:27:13Z</time>
      </trkpt>
      <trkpt lat="45.68902" lon="4.59291">
        <ele>608</ele>
        <time>2025-11-11T10:27:14Z</time>
      </trkpt>
      <trkpt lat="45.68899" lon="4.59289">
        <ele>608</ele>
        <time>2025-11-11T10:27:15Z</time>
      </trkpt>
      <trkpt lat="45.68895" lon="4.59285">
        <ele>607.8</ele>
        <time>2025-11-11T10:27:16Z</time>
      </trkpt>
      <trkpt lat="45.68892" lon="4.59284">
        <ele>607.8</ele>
        <time>2025-11-11T10:27:17Z</time>
      </trkpt>
      <trkpt lat="45.68889" lon="4.59283">
        <ele>607.8</ele>
        <time>2025-11-11T10:27:18Z</time>
      </trkpt>
      <trkpt lat="45.68885" lon="4.59281">
        <ele>607.8</ele>
        <time>2025-11-11T10:27:19Z</time>
      </trkpt>
      <trkpt lat="45.68881" lon="4.5928">
        <ele>608</ele>
        <time>2025-11-11T10:27:20Z</time>
      </trkpt>
      <trkpt lat="45.68876" lon="4.59278">
        <ele>608</ele>
        <time>2025-11-11T10:27:21Z</time>
      </trkpt>
      <trkpt lat="45.68872" lon="4.59277">
        <ele>608</ele>
        <time>2025-11-11T10:27:22Z</time>
      </trkpt>
      <trkpt lat="45.68867" lon="4.59274">
        <ele>608.2</ele>
        <time>2025-11-11T10:27:23Z</time>
      </trkpt>
      <trkpt lat="45.68863" lon="4.5927">
        <ele>608.4</ele>
        <time>2025-11-11T10:27:24Z</time>
      </trkpt>
      <trkpt lat="45.6886" lon="4.59268">
        <ele>608.4</ele>
        <time>2025-11-11T10:27:25Z</time>
      </trkpt>
      <trkpt lat="45.68857" lon="4.59267">
        <ele>608.8</ele>
        <time>2025-11-11T10:27:26Z</time>
      </trkpt>
      <trkpt lat="45.68853" lon="4.59265">
        <ele>609</ele>
        <time>2025-11-11T10:27:27Z</time>
      </trkpt>
      <trkpt lat="45.68849" lon="4.59263">
        <ele>609.2</ele>
        <time>2025-11-11T10:27:28Z</time>
      </trkpt>
      <trkpt lat="45.68844" lon="4.5926">
        <ele>609.6</ele>
        <time>2025-11-11T10:27:29Z</time>
      </trkpt>
      <trkpt lat="45.68841" lon="4.59261">
        <ele>610</ele>
        <time>2025-11-11T10:27:30Z</time>
      </trkpt>
      <trkpt lat="45.68837" lon="4.59262">
        <ele>610.4</ele>
        <time>2025-11-11T10:27:31Z</time>
      </trkpt>
      <trkpt lat="45.68834" lon="4.59262">
        <ele>610.8</ele>
        <time>2025-11-11T10:27:32Z</time>
      </trkpt>
      <trkpt lat="45.68831" lon="4.59263">
        <ele>611.2</ele>
        <time>2025-11-11T10:27:33Z</time>
      </trkpt>
      <trkpt lat="45.68829" lon="4.59266">
        <ele>611.6</ele>
        <time>2025-11-11T10:27:34Z</time>
      </trkpt>
      <trkpt lat="45.68826" lon="4.59265">
        <ele>612</ele>
        <time>2025-11-11T10:27:35Z</time>
      </trkpt>
      <trkpt lat="45.68823" lon="4.59265">
        <ele>612.4</ele>
        <time>2025-11-11T10:27:36Z</time>
      </trkpt>
      <trkpt lat="45.68821" lon="4.59266">
        <ele>612.8</ele>
        <time>2025-11-11T10:27:37Z</time>
      </trkpt>
      <trkpt lat="45.68818" lon="4.59266">
        <ele>613</ele>
        <time>2025-11-11T10:27:38Z</time>
      </trkpt>
      <trkpt lat="45.68816" lon="4.59265">
        <ele>613.4</ele>
        <time>2025-11-11T10:27:39Z</time>
      </trkpt>
      <trkpt lat="45.68813" lon="4.59265">
        <ele>613.8</ele>
        <time>2025-11-11T10:27:40Z</time>
      </trkpt>
      <trkpt lat="45.68811" lon="4.59264">
        <ele>614.2</ele>
        <time>2025-11-11T10:27:41Z</time>
      </trkpt>
      <trkpt lat="45.68809" lon="4.59262">
        <ele>614.6</ele>
        <time>2025-11-11T10:27:42Z</time>
      </trkpt>
      <trkpt lat="45.68806" lon="4.59261">
        <ele>615</ele>
        <time>2025-11-11T10:27:43Z</time>
      </trkpt>
      <trkpt lat="45.68803" lon="4.59259">
        <ele>615.4</ele>
        <time>2025-11-11T10:27:44Z</time>
      </trkpt>
      <trkpt lat="45.68801" lon="4.59256">
        <ele>615.8</ele>
        <time>2025-11-11T10:27:45Z</time>
      </trkpt>
      <trkpt lat="45.68799" lon="4.59255">
        <ele>616.2</ele>
        <time>2025-11-11T10:27:46Z</time>
      </trkpt>
      <trkpt lat="45.68797" lon="4.59253">
        <ele>616.6</ele>
        <time>2025-11-11T10:27:47Z</time>
      </trkpt>
      <trkpt lat="45.68795" lon="4.59252">
        <ele>617</ele>
        <time>2025-11-11T10:27:48Z</time>
      </trkpt>
      <trkpt lat="45.68793" lon="4.59251">
        <ele>617.4</ele>
        <time>2025-11-11T10:27:49Z</time>
      </trkpt>
      <trkpt lat="45.68791" lon="4.5925">
        <ele>617.8</ele>
        <time>2025-11-11T10:27:50Z</time>
      </trkpt>
      <trkpt lat="45.68789" lon="4.59248">
        <ele>618.2</ele>
        <time>2025-11-11T10:27:51Z</time>
      </trkpt>
      <trkpt lat="45.68787" lon="4.59246">
        <ele>618.6</ele>
        <time>2025-11-11T10:27:52Z</time>
      </trkpt>
      <trkpt lat="45.68785" lon="4.59245">
        <ele>618.8</ele>
        <time>2025-11-11T10:27:53Z</time>
      </trkpt>
      <trkpt lat="45.68782" lon="4.59244">
        <ele>619.2</ele>
        <time>2025-11-11T10:27:54Z</time>
      </trkpt>
      <trkpt lat="45.6878" lon="4.59242">
        <ele>619.6</ele>
        <time>2025-11-11T10:27:55Z</time>
      </trkpt>
      <trkpt lat="45.68778" lon="4.59241">
        <ele>620</ele>
        <time>2025-11-11T10:27:56Z</time>
      </trkpt>
      <trkpt lat="45.68776" lon="4.59241">
        <ele>620.4</ele>
        <time>2025-11-11T10:27:57Z</time>
      </trkpt>
      <trkpt lat="45.68773" lon="4.5924">
        <ele>620.8</ele>
        <time>2025-11-11T10:27:58Z</time>
      </trkpt>
      <trkpt lat="45.68771" lon="4.59238">
        <ele>621.2</ele>
        <time>2025-11-11T10:27:59Z</time>
      </trkpt>
      <trkpt lat="45.68769" lon="4.59236">
        <ele>621.6</ele>
        <time>2025-11-11T10:28:00Z</time>
      </trkpt>
      <trkpt lat="45.68767" lon="4.59235">
        <ele>622.2</ele>
        <time>2025-11-11T10:28:01Z</time>
      </trkpt>
      <trkpt lat="45.68765" lon="4.59233">
        <ele>622.6</ele>
        <time>2025-11-11T10:28:02Z</time>
      </trkpt>
      <trkpt lat="45.68764" lon="4.59231">
        <ele>623.2</ele>
        <time>2025-11-11T10:28:03Z</time>
      </trkpt>
      <trkpt lat="45.68762" lon="4.59229">
        <ele>623.6</ele>
        <time>2025-11-11T10:28:04Z</time>
      </trkpt>
      <trkpt lat="45.68761" lon="4.59227">
        <ele>624.2</ele>
        <time>2025-11-11T10:28:05Z</time>
      </trkpt>
      <trkpt lat="45.68761" lon="4.59225">
        <ele>624.6</ele>
        <time>2025-11-11T10:28:06Z</time>
      </trkpt>
      <trkpt lat="45.68761" lon="4.59223">
        <ele>625</ele>
        <time>2025-11-11T10:28:07Z</time>
      </trkpt>
      <trkpt lat="45.68761" lon="4.5922">
        <ele>625.4</ele>
        <time>2025-11-11T10:28:08Z</time>
      </trkpt>
      <trkpt lat="45.68761" lon="4.59217">
        <ele>625.8</ele>
        <time>2025-11-11T10:28:09Z</time>
      </trkpt>
      <trkpt lat="45.68762" lon="4.59215">
        <ele>626.2</ele>
        <time>2025-11-11T10:28:10Z</time>
      </trkpt>
      <trkpt lat="45.68762" lon="4.59213">
        <ele>626.6</ele>
        <time>2025-11-11T10:28:11Z</time>
      </trkpt>
      <trkpt lat="45.68763" lon="4.59211">
        <ele>627</ele>
        <time>2025-11-11T10:28:12Z</time>
      </trkpt>
      <trkpt lat="45.68764" lon="4.59208">
        <ele>627.4</ele>
        <time>2025-11-11T10:28:13Z</time>
      </trkpt>
      <trkpt lat="45.68765" lon="4.59206">
        <ele>628</ele>
        <time>2025-11-11T10:28:14Z</time>
      </trkpt>
      <trkpt lat="45.68767" lon="4.59205">
        <ele>628.4</ele>
        <time>2025-11-11T10:28:15Z</time>
      </trkpt>
      <trkpt lat="45.68769" lon="4.59204">
        <ele>628.8</ele>
        <time>2025-11-11T10:28:16Z</time>
      </trkpt>
      <trkpt lat="45.68771" lon="4.59202">
        <ele>629.4</ele>
        <time>2025-11-11T10:28:17Z</time>
      </trkpt>
      <trkpt lat="45.68772" lon="4.59201">
        <ele>629.8</ele>
        <time>2025-11-11T10:28:18Z</time>
      </trkpt>
      <trkpt lat="45.68774" lon="4.592">
        <ele>630.2</ele>
        <time>2025-11-11T10:28:19Z</time>
      </trkpt>
      <trkpt lat="45.68775" lon="4.59199">
        <ele>630.6</ele>
        <time>2025-11-11T10:28:20Z</time>
      </trkpt>
      <trkpt lat="45.68776" lon="4.59198">
        <ele>631.2</ele>
        <time>2025-11-11T10:28:21Z</time>
      </trkpt>
      <trkpt lat="45.68777" lon="4.59197">
        <ele>631.6</ele>
        <time>2025-11-11T10:28:22Z</time>
      </trkpt>
      <trkpt lat="45.68778" lon="4.59195">
        <ele>632</ele>
        <time>2025-11-11T10:28:23Z</time>
      </trkpt>
      <trkpt lat="45.6878" lon="4.59194">
        <ele>632.2</ele>
        <time>2025-11-11T10:28:24Z</time>
      </trkpt>
      <trkpt lat="45.68781" lon="4.59192">
        <ele>632.6</ele>
        <time>2025-11-11T10:28:25Z</time>
      </trkpt>
      <trkpt lat="45.68783" lon="4.59189">
        <ele>633</ele>
        <time>2025-11-11T10:28:26Z</time>
      </trkpt>
      <trkpt lat="45.68784" lon="4.59188">
        <ele>633.4</ele>
        <time>2025-11-11T10:28:27Z</time>
      </trkpt>
      <trkpt lat="45.68786" lon="4.59187">
        <ele>633.6</ele>
        <time>2025-11-11T10:28:28Z</time>
      </trkpt>
      <trkpt lat="45.68788" lon="4.59185">
        <ele>634</ele>
        <time>2025-11-11T10:28:29Z</time>
      </trkpt>
      <trkpt lat="45.6879" lon="4.59183">
        <ele>634.4</ele>
        <time>2025-11-11T10:28:30Z</time>
      </trkpt>
      <trkpt lat="45.68791" lon="4.5918">
        <ele>634.8</ele>
        <time>2025-11-11T10:28:31Z</time>
      </trkpt>
      <trkpt lat="45.68793" lon="4.59178">
        <ele>635.2</ele>
        <time>2025-11-11T10:28:32Z</time>
      </trkpt>
      <trkpt lat="45.68794" lon="4.59176">
        <ele>635.6</ele>
        <time>2025-11-11T10:28:33Z</time>
      </trkpt>
      <trkpt lat="45.68796" lon="4.59175">
        <ele>636.2</ele>
        <time>2025-11-11T10:28:34Z</time>
      </trkpt>
      <trkpt lat="45.68798" lon="4.59173">
        <ele>636.6</ele>
        <time>2025-11-11T10:28:35Z</time>
      </trkpt>
      <trkpt lat="45.68798" lon="4.59173">
        <ele>637</ele>
        <time>2025-11-11T10:28:36Z</time>
      </trkpt>
      <trkpt lat="45.68798" lon="4.59173">
        <ele>637.4</ele>
        <time>2025-11-11T10:28:37Z</time>
      </trkpt>
      <trkpt lat="45.68798" lon="4.59173">
        <ele>637.6</ele>
        <time>2025-11-11T10:28:38Z</time>
      </trkpt>
      <trkpt lat="45.68799" lon="4.59172">
        <ele>637.8</ele>
        <time>2025-11-11T10:28:39Z</time>
      </trkpt>
      <trkpt lat="45.688" lon="4.59171">
        <ele>638</ele>
        <time>2025-11-11T10:28:40Z</time>
      </trkpt>
      <trkpt lat="45.68801" lon="4.5917">
        <ele>638.2</ele>
        <time>2025-11-11T10:28:41Z</time>
      </trkpt>
      <trkpt lat="45.68802" lon="4.59169">
        <ele>638.4</ele>
        <time>2025-11-11T10:28:42Z</time>
      </trkpt>
      <trkpt lat="45.68804" lon="4.59168">
        <ele>638.6</ele>
        <time>2025-11-11T10:28:43Z</time>
      </trkpt>
      <trkpt lat="45.68806" lon="4.59168">
        <ele>638.8</ele>
        <time>2025-11-11T10:28:44Z</time>
      </trkpt>
      <trkpt lat="45.68807" lon="4.59166">
        <ele>639</ele>
        <time>2025-11-11T10:28:45Z</time>
      </trkpt>
      <trkpt lat="45.68808" lon="4.59165">
        <ele>639.4</ele>
        <time>2025-11-11T10:28:46Z</time>
      </trkpt>
      <trkpt lat="45.68809" lon="4.59163">
        <ele>639.6</ele>
        <time>2025-11-11T10:28:47Z</time>
      </trkpt>
      <trkpt lat="45.68811" lon="4.59162">
        <ele>639.8</ele>
        <time>2025-11-11T10:28:48Z</time>
      </trkpt>
      <trkpt lat="45.68813" lon="4.59161">
        <ele>640</ele>
        <time>2025-11-11T10:28:49Z</time>
      </trkpt>
      <trkpt lat="45.68815" lon="4.59159">
        <ele>640.2</ele>
        <time>2025-11-11T10:28:50Z</time>
      </trkpt>
      <trkpt lat="45.68816" lon="4.59157">
        <ele>640.4</ele>
        <time>2025-11-11T10:28:51Z</time>
      </trkpt>
      <trkpt lat="45.68818" lon="4.59156">
        <ele>640.4</ele>
        <time>2025-11-11T10:28:52Z</time>
      </trkpt>
      <trkpt lat="45.68819" lon="4.59154">
        <ele>640.6</ele>
        <time>2025-11-11T10:28:53Z</time>
      </trkpt>
      <trkpt lat="45.6882" lon="4.59152">
        <ele>640.8</ele>
        <time>2025-11-11T10:28:54Z</time>
      </trkpt>
      <trkpt lat="45.68821" lon="4.5915">
        <ele>640.8</ele>
        <time>2025-11-11T10:28:55Z</time>
      </trkpt>
      <trkpt lat="45.68823" lon="4.59148">
        <ele>641</ele>
        <time>2025-11-11T10:28:56Z</time>
      </trkpt>
      <trkpt lat="45.68825" lon="4.59147">
        <ele>641.2</ele>
        <time>2025-11-11T10:28:57Z</time>
      </trkpt>
      <trkpt lat="45.68826" lon="4.59146">
        <ele>641.2</ele>
        <time>2025-11-11T10:28:58Z</time>
      </trkpt>
      <trkpt lat="45.68828" lon="4.59144">
        <ele>641.4</ele>
        <time>2025-11-11T10:28:59Z</time>
      </trkpt>
      <trkpt lat="45.68829" lon="4.59142">
        <ele>641.4</ele>
        <time>2025-11-11T10:29:00Z</time>
      </trkpt>
      <trkpt lat="45.6883" lon="4.5914">
        <ele>641.4</ele>
        <time>2025-11-11T10:29:01Z</time>
      </trkpt>
      <trkpt lat="45.68831" lon="4.59139">
        <ele>641.6</ele>
        <time>2025-11-11T10:29:02Z</time>
      </trkpt>
      <trkpt lat="45.68832" lon="4.59137">
        <ele>641.8</ele>
        <time>2025-11-11T10:29:03Z</time>
      </trkpt>
      <trkpt lat="45.68833" lon="4.59135">
        <ele>642</ele>
        <time>2025-11-11T10:29:04Z</time>
      </trkpt>
      <trkpt lat="45.68833" lon="4.59133">
        <ele>642.2</ele>
        <time>2025-11-11T10:29:05Z</time>
      </trkpt>
      <trkpt lat="45.68833" lon="4.59132">
        <ele>642.4</ele>
        <time>2025-11-11T10:29:06Z</time>
      </trkpt>
      <trkpt lat="45.68833" lon="4.5913">
        <ele>642.6</ele>
        <time>2025-11-11T10:29:07Z</time>
      </trkpt>
      <trkpt lat="45.68833" lon="4.59129">
        <ele>642.8</ele>
        <time>2025-11-11T10:29:08Z</time>
      </trkpt>
      <trkpt lat="45.68834" lon="4.59126">
        <ele>642.8</ele>
        <time>2025-11-11T10:29:09Z</time>
      </trkpt>
      <trkpt lat="45.68834" lon="4.59124">
        <ele>643</ele>
        <time>2025-11-11T10:29:10Z</time>
      </trkpt>
      <trkpt lat="45.68835" lon="4.59122">
        <ele>643.2</ele>
        <time>2025-11-11T10:29:11Z</time>
      </trkpt>
      <trkpt lat="45.68835" lon="4.59119">
        <ele>643.4</ele>
        <time>2025-11-11T10:29:12Z</time>
      </trkpt>
      <trkpt lat="45.68835" lon="4.59117">
        <ele>643.6</ele>
        <time>2025-11-11T10:29:13Z</time>
      </trkpt>
      <trkpt lat="45.68835" lon="4.59114">
        <ele>643.8</ele>
        <time>2025-11-11T10:29:14Z</time>
      </trkpt>
      <trkpt lat="45.68835" lon="4.59112">
        <ele>644</ele>
        <time>2025-11-11T10:29:15Z</time>
      </trkpt>
      <trkpt lat="45.68835" lon="4.5911">
        <ele>644.4</ele>
        <time>2025-11-11T10:29:16Z</time>
      </trkpt>
      <trkpt lat="45.68835" lon="4.59108">
        <ele>644.6</ele>
        <time>2025-11-11T10:29:17Z</time>
      </trkpt>
      <trkpt lat="45.68835" lon="4.59105">
        <ele>644.8</ele>
        <time>2025-11-11T10:29:18Z</time>
      </trkpt>
      <trkpt lat="45.68834" lon="4.59103">
        <ele>645</ele>
        <time>2025-11-11T10:29:19Z</time>
      </trkpt>
      <trkpt lat="45.68834" lon="4.591">
        <ele>645.2</ele>
        <time>2025-11-11T10:29:20Z</time>
      </trkpt>
      <trkpt lat="45.68834" lon="4.59098">
        <ele>645.6</ele>
        <time>2025-11-11T10:29:21Z</time>
      </trkpt>
      <trkpt lat="45.68834" lon="4.59095">
        <ele>645.8</ele>
        <time>2025-11-11T10:29:22Z</time>
      </trkpt>
      <trkpt lat="45.68833" lon="4.59093">
        <ele>646</ele>
        <time>2025-11-11T10:29:23Z</time>
      </trkpt>
      <trkpt lat="45.68833" lon="4.59091">
        <ele>646.4</ele>
        <time>2025-11-11T10:29:24Z</time>
      </trkpt>
      <trkpt lat="45.68833" lon="4.59088">
        <ele>646.6</ele>
        <time>2025-11-11T10:29:25Z</time>
      </trkpt>
      <trkpt lat="45.68833" lon="4.59086">
        <ele>647</ele>
        <time>2025-11-11T10:29:26Z</time>
      </trkpt>
      <trkpt lat="45.68833" lon="4.59084">
        <ele>647.4</ele>
        <time>2025-11-11T10:29:27Z</time>
      </trkpt>
      <trkpt lat="45.68832" lon="4.59081">
        <ele>647.6</ele>
        <time>2025-11-11T10:29:28Z</time>
      </trkpt>
      <trkpt lat="45.68832" lon="4.59078">
        <ele>648</ele>
        <time>2025-11-11T10:29:29Z</time>
      </trkpt>
      <trkpt lat="45.68832" lon="4.59076">
        <ele>648.4</ele>
        <time>2025-11-11T10:29:30Z</time>
      </trkpt>
      <trkpt lat="45.68831" lon="4.59073">
        <ele>648.8</ele>
        <time>2025-11-11T10:29:31Z</time>
      </trkpt>
      <trkpt lat="45.68832" lon="4.5907">
        <ele>649</ele>
        <time>2025-11-11T10:29:32Z</time>
      </trkpt>
      <trkpt lat="45.68832" lon="4.59068">
        <ele>649.4</ele>
        <time>2025-11-11T10:29:33Z</time>
      </trkpt>
      <trkpt lat="45.68832" lon="4.59066">
        <ele>649.6</ele>
        <time>2025-11-11T10:29:34Z</time>
      </trkpt>
      <trkpt lat="45.68832" lon="4.59064">
        <ele>649.8</ele>
        <time>2025-11-11T10:29:35Z</time>
      </trkpt>
      <trkpt lat="45.68833" lon="4.59062">
        <ele>650</ele>
        <time>2025-11-11T10:29:36Z</time>
      </trkpt>
      <trkpt lat="45.68833" lon="4.5906">
        <ele>650.4</ele>
        <time>2025-11-11T10:29:37Z</time>
      </trkpt>
      <trkpt lat="45.68834" lon="4.59057">
        <ele>650.6</ele>
        <time>2025-11-11T10:29:38Z</time>
      </trkpt>
      <trkpt lat="45.68834" lon="4.59054">
        <ele>650.8</ele>
        <time>2025-11-11T10:29:39Z</time>
      </trkpt>
      <trkpt lat="45.68834" lon="4.59052">
        <ele>651</ele>
        <time>2025-11-11T10:29:40Z</time>
      </trkpt>
      <trkpt lat="45.68834" lon="4.59049">
        <ele>651.2</ele>
        <time>2025-11-11T10:29:41Z</time>
      </trkpt>
      <trkpt lat="45.68834" lon="4.59046">
        <ele>651.6</ele>
        <time>2025-11-11T10:29:42Z</time>
      </trkpt>
      <trkpt lat="45.68834" lon="4.59043">
        <ele>651.8</ele>
        <time>2025-11-11T10:29:43Z</time>
      </trkpt>
      <trkpt lat="45.68834" lon="4.59039">
        <ele>652</ele>
        <time>2025-11-11T10:29:44Z</time>
      </trkpt>
      <trkpt lat="45.68834" lon="4.59036">
        <ele>652.4</ele>
        <time>2025-11-11T10:29:45Z</time>
      </trkpt>
      <trkpt lat="45.68833" lon="4.59033">
        <ele>652.8</ele>
        <time>2025-11-11T10:29:46Z</time>
      </trkpt>
      <trkpt lat="45.68834" lon="4.59029">
        <ele>653.2</ele>
        <time>2025-11-11T10:29:47Z</time>
      </trkpt>
      <trkpt lat="45.68834" lon="4.59027">
        <ele>653.6</ele>
        <time>2025-11-11T10:29:48Z</time>
      </trkpt>
      <trkpt lat="45.68834" lon="4.59025">
        <ele>654</ele>
        <time>2025-11-11T10:29:49Z</time>
      </trkpt>
      <trkpt lat="45.68835" lon="4.59022">
        <ele>654.4</ele>
        <time>2025-11-11T10:29:50Z</time>
      </trkpt>
      <trkpt lat="45.68835" lon="4.59019">
        <ele>654.8</ele>
        <time>2025-11-11T10:29:51Z</time>
      </trkpt>
      <trkpt lat="45.68836" lon="4.59016">
        <ele>655.2</ele>
        <time>2025-11-11T10:29:52Z</time>
      </trkpt>
      <trkpt lat="45.68837" lon="4.59013">
        <ele>655.6</ele>
        <time>2025-11-11T10:29:53Z</time>
      </trkpt>
      <trkpt lat="45.68837" lon="4.5901">
        <ele>655.8</ele>
        <time>2025-11-11T10:29:54Z</time>
      </trkpt>
      <trkpt lat="45.68838" lon="4.59007">
        <ele>656.2</ele>
        <time>2025-11-11T10:29:55Z</time>
      </trkpt>
      <trkpt lat="45.68838" lon="4.59003">
        <ele>656.6</ele>
        <time>2025-11-11T10:29:56Z</time>
      </trkpt>
      <trkpt lat="45.6884" lon="4.59">
        <ele>657</ele>
        <time>2025-11-11T10:29:57Z</time>
      </trkpt>
      <trkpt lat="45.6884" lon="4.58997">
        <ele>657.4</ele>
        <time>2025-11-11T10:29:58Z</time>
      </trkpt>
      <trkpt lat="45.6884" lon="4.58993">
        <ele>657.8</ele>
        <time>2025-11-11T10:29:59Z</time>
      </trkpt>
      <trkpt lat="45.6884" lon="4.5899">
        <ele>658.2</ele>
        <time>2025-11-11T10:30:00Z</time>
      </trkpt>
      <trkpt lat="45.6884" lon="4.58988">
        <ele>658.6</ele>
        <time>2025-11-11T10:30:01Z</time>
      </trkpt>
      <trkpt lat="45.6884" lon="4.58984">
        <ele>659</ele>
        <time>2025-11-11T10:30:02Z</time>
      </trkpt>
      <trkpt lat="45.6884" lon="4.58981">
        <ele>659.6</ele>
        <time>2025-11-11T10:30:03Z</time>
      </trkpt>
      <trkpt lat="45.68839" lon="4.58979">
        <ele>660</ele>
        <time>2025-11-11T10:30:04Z</time>
      </trkpt>
      <trkpt lat="45.6884" lon="4.58976">
        <ele>660.4</ele>
        <time>2025-11-11T10:30:05Z</time>
      </trkpt>
      <trkpt lat="45.68839" lon="4.58972">
        <ele>660.8</ele>
        <time>2025-11-11T10:30:06Z</time>
      </trkpt>
      <trkpt lat="45.68839" lon="4.58969">
        <ele>661.2</ele>
        <time>2025-11-11T10:30:07Z</time>
      </trkpt>
      <trkpt lat="45.68838" lon="4.58967">
        <ele>661.8</ele>
        <time>2025-11-11T10:30:08Z</time>
      </trkpt>
      <trkpt lat="45.68838" lon="4.58965">
        <ele>662.2</ele>
        <time>2025-11-11T10:30:09Z</time>
      </trkpt>
      <trkpt lat="45.68837" lon="4.58962">
        <ele>662.8</ele>
        <time>2025-11-11T10:30:10Z</time>
      </trkpt>
      <trkpt lat="45.68836" lon="4.58959">
        <ele>663.2</ele>
        <time>2025-11-11T10:30:11Z</time>
      </trkpt>
      <trkpt lat="45.68836" lon="4.58956">
        <ele>663.6</ele>
        <time>2025-11-11T10:30:12Z</time>
      </trkpt>
      <trkpt lat="45.68835" lon="4.58954">
        <ele>664.2</ele>
        <time>2025-11-11T10:30:13Z</time>
      </trkpt>
      <trkpt lat="45.68834" lon="4.58951">
        <ele>664.6</ele>
        <time>2025-11-11T10:30:14Z</time>
      </trkpt>
      <trkpt lat="45.68834" lon="4.58948">
        <ele>665</ele>
        <time>2025-11-11T10:30:15Z</time>
      </trkpt>
      <trkpt lat="45.68834" lon="4.58945">
        <ele>665.4</ele>
        <time>2025-11-11T10:30:16Z</time>
      </trkpt>
      <trkpt lat="45.68833" lon="4.58943">
        <ele>665.8</ele>
        <time>2025-11-11T10:30:17Z</time>
      </trkpt>
      <trkpt lat="45.68831" lon="4.5894">
        <ele>666</ele>
        <time>2025-11-11T10:30:18Z</time>
      </trkpt>
      <trkpt lat="45.6883" lon="4.58936">
        <ele>666.4</ele>
        <time>2025-11-11T10:30:19Z</time>
      </trkpt>
      <trkpt lat="45.68829" lon="4.58933">
        <ele>666.8</ele>
        <time>2025-11-11T10:30:20Z</time>
      </trkpt>
      <trkpt lat="45.68828" lon="4.5893">
        <ele>667.2</ele>
        <time>2025-11-11T10:30:21Z</time>
      </trkpt>
      <trkpt lat="45.68827" lon="4.58927">
        <ele>667.4</ele>
        <time>2025-11-11T10:30:22Z</time>
      </trkpt>
      <trkpt lat="45.68827" lon="4.58924">
        <ele>667.8</ele>
        <time>2025-11-11T10:30:23Z</time>
      </trkpt>
      <trkpt lat="45.68827" lon="4.58921">
        <ele>668.2</ele>
        <time>2025-11-11T10:30:24Z</time>
      </trkpt>
      <trkpt lat="45.68826" lon="4.58919">
        <ele>668.4</ele>
        <time>2025-11-11T10:30:25Z</time>
      </trkpt>
      <trkpt lat="45.68826" lon="4.58916">
        <ele>668.6</ele>
        <time>2025-11-11T10:30:26Z</time>
      </trkpt>
      <trkpt lat="45.68825" lon="4.58913">
        <ele>669</ele>
        <time>2025-11-11T10:30:27Z</time>
      </trkpt>
      <trkpt lat="45.68824" lon="4.5891">
        <ele>669.2</ele>
        <time>2025-11-11T10:30:28Z</time>
      </trkpt>
      <trkpt lat="45.68823" lon="4.58907">
        <ele>669.4</ele>
        <time>2025-11-11T10:30:29Z</time>
      </trkpt>
      <trkpt lat="45.68822" lon="4.58904">
        <ele>669.6</ele>
        <time>2025-11-11T10:30:30Z</time>
      </trkpt>
      <trkpt lat="45.6882" lon="4.58901">
        <ele>669.8</ele>
        <time>2025-11-11T10:30:31Z</time>
      </trkpt>
      <trkpt lat="45.68818" lon="4.58898">
        <ele>670</ele>
        <time>2025-11-11T10:30:32Z</time>
      </trkpt>
      <trkpt lat="45.68817" lon="4.58896">
        <ele>670.2</ele>
        <time>2025-11-11T10:30:33Z</time>
      </trkpt>
      <trkpt lat="45.68815" lon="4.58893">
        <ele>670.4</ele>
        <time>2025-11-11T10:30:34Z</time>
      </trkpt>
      <trkpt lat="45.68813" lon="4.58891">
        <ele>670.8</ele>
        <time>2025-11-11T10:30:35Z</time>
      </trkpt>
      <trkpt lat="45.68811" lon="4.58888">
        <ele>671.2</ele>
        <time>2025-11-11T10:30:36Z</time>
      </trkpt>
      <trkpt lat="45.68809" lon="4.58885">
        <ele>671.4</ele>
        <time>2025-11-11T10:30:37Z</time>
      </trkpt>
      <trkpt lat="45.68807" lon="4.58883">
        <ele>671.8</ele>
        <time>2025-11-11T10:30:38Z</time>
      </trkpt>
      <trkpt lat="45.68806" lon="4.58881">
        <ele>672.2</ele>
        <time>2025-11-11T10:30:39Z</time>
      </trkpt>
      <trkpt lat="45.68804" lon="4.58878">
        <ele>672.4</ele>
        <time>2025-11-11T10:30:40Z</time>
      </trkpt>
      <trkpt lat="45.68803" lon="4.58876">
        <ele>672.8</ele>
        <time>2025-11-11T10:30:41Z</time>
      </trkpt>
      <trkpt lat="45.68802" lon="4.58874">
        <ele>673</ele>
        <time>2025-11-11T10:30:42Z</time>
      </trkpt>
      <trkpt lat="45.688" lon="4.58871">
        <ele>673.4</ele>
        <time>2025-11-11T10:30:43Z</time>
      </trkpt>
      <trkpt lat="45.688" lon="4.58868">
        <ele>673.6</ele>
        <time>2025-11-11T10:30:44Z</time>
      </trkpt>
      <trkpt lat="45.68798" lon="4.58865">
        <ele>674</ele>
        <time>2025-11-11T10:30:45Z</time>
      </trkpt>
      <trkpt lat="45.68797" lon="4.58863">
        <ele>674.2</ele>
        <time>2025-11-11T10:30:46Z</time>
      </trkpt>
      <trkpt lat="45.68794" lon="4.5886">
        <ele>674.6</ele>
        <time>2025-11-11T10:30:47Z</time>
      </trkpt>
      <trkpt lat="45.68792" lon="4.58857">
        <ele>675</ele>
        <time>2025-11-11T10:30:48Z</time>
      </trkpt>
      <trkpt lat="45.68791" lon="4.58854">
        <ele>675.2</ele>
        <time>2025-11-11T10:30:49Z</time>
      </trkpt>
      <trkpt lat="45.68789" lon="4.58851">
        <ele>675.6</ele>
        <time>2025-11-11T10:30:50Z</time>
      </trkpt>
      <trkpt lat="45.68788" lon="4.5885">
        <ele>675.8</ele>
        <time>2025-11-11T10:30:51Z</time>
      </trkpt>
      <trkpt lat="45.68788" lon="4.58849">
        <ele>676.2</ele>
        <time>2025-11-11T10:30:52Z</time>
      </trkpt>
      <trkpt lat="45.68788" lon="4.58849">
        <ele>676.4</ele>
        <time>2025-11-11T10:30:53Z</time>
      </trkpt>
      <trkpt lat="45.68788" lon="4.58849">
        <ele>676.4</ele>
        <time>2025-11-11T10:30:54Z</time>
      </trkpt>
      <trkpt lat="45.68788" lon="4.58849">
        <ele>676.6</ele>
        <time>2025-11-11T10:30:55Z</time>
      </trkpt>
      <trkpt lat="45.68788" lon="4.58849">
        <ele>676.6</ele>
        <time>2025-11-11T10:30:56Z</time>
      </trkpt>
      <trkpt lat="45.68788" lon="4.58849">
        <ele>676.6</ele>
        <time>2025-11-11T10:30:57Z</time>
      </trkpt>
      <trkpt lat="45.68788" lon="4.58849">
        <ele>676.6</ele>
        <time>2025-11-11T10:30:58Z</time>
      </trkpt>
      <trkpt lat="45.68788" lon="4.58849">
        <ele>676.6</ele>
        <time>2025-11-11T10:30:59Z</time>
      </trkpt>
      <trkpt lat="45.68788" lon="4.58849">
        <ele>676.6</ele>
        <time>2025-11-11T10:31:00Z</time>
      </trkpt>
      <trkpt lat="45.68788" lon="4.58849">
        <ele>676.6</ele>
        <time>2025-11-11T10:31:01Z</time>
      </trkpt>
      <trkpt lat="45.68788" lon="4.58849">
        <ele>676.6</ele>
        <time>2025-11-11T10:31:02Z</time>
      </trkpt>
      <trkpt lat="45.68788" lon="4.58849">
        <ele>676.6</ele>
        <time>2025-11-11T10:31:03Z</time>
      </trkpt>
      <trkpt lat="45.68788" lon="4.58849">
        <ele>676.6</ele>
        <time>2025-11-11T10:31:04Z</time>
      </trkpt>
      <trkpt lat="45.68788" lon="4.58849">
        <ele>676.6</ele>
        <time>2025-11-11T10:31:05Z</time>
      </trkpt>
      <trkpt lat="45.68788" lon="4.58848">
        <ele>676.6</ele>
        <time>2025-11-11T10:31:06Z</time>
      </trkpt>
      <trkpt lat="45.68788" lon="4.58846">
        <ele>676.6</ele>
        <time>2025-11-11T10:31:07Z</time>
      </trkpt>
      <trkpt lat="45.68787" lon="4.58844">
        <ele>676.4</ele>
        <time>2025-11-11T10:31:08Z</time>
      </trkpt>
      <trkpt lat="45.68787" lon="4.58842">
        <ele>676.2</ele>
        <time>2025-11-11T10:31:09Z</time>
      </trkpt>
      <trkpt lat="45.68787" lon="4.58839">
        <ele>676</ele>
        <time>2025-11-11T10:31:10Z</time>
      </trkpt>
      <trkpt lat="45.68788" lon="4.58836">
        <ele>675.6</ele>
        <time>2025-11-11T10:31:11Z</time>
      </trkpt>
      <trkpt lat="45.68788" lon="4.58833">
        <ele>675.2</ele>
        <time>2025-11-11T10:31:12Z</time>
      </trkpt>
      <trkpt lat="45.68788" lon="4.58829">
        <ele>675</ele>
        <time>2025-11-11T10:31:13Z</time>
      </trkpt>
      <trkpt lat="45.68788" lon="4.58825">
        <ele>674.6</ele>
        <time>2025-11-11T10:31:14Z</time>
      </trkpt>
      <trkpt lat="45.68788" lon="4.58821">
        <ele>674.4</ele>
        <time>2025-11-11T10:31:15Z</time>
      </trkpt>
      <trkpt lat="45.68788" lon="4.58817">
        <ele>674</ele>
        <time>2025-11-11T10:31:16Z</time>
      </trkpt>
      <trkpt lat="45.68788" lon="4.58814">
        <ele>673.8</ele>
        <time>2025-11-11T10:31:17Z</time>
      </trkpt>
      <trkpt lat="45.68786" lon="4.5881">
        <ele>673.6</ele>
        <time>2025-11-11T10:31:18Z</time>
      </trkpt>
      <trkpt lat="45.68784" lon="4.58807">
        <ele>673.2</ele>
        <time>2025-11-11T10:31:19Z</time>
      </trkpt>
      <trkpt lat="45.6878" lon="4.58804">
        <ele>672.8</ele>
        <time>2025-11-11T10:31:20Z</time>
      </trkpt>
      <trkpt lat="45.68777" lon="4.58802">
        <ele>672.2</ele>
        <time>2025-11-11T10:31:21Z</time>
      </trkpt>
      <trkpt lat="45.68774" lon="4.588">
        <ele>671.8</ele>
        <time>2025-11-11T10:31:22Z</time>
      </trkpt>
      <trkpt lat="45.68771" lon="4.58798">
        <ele>671.4</ele>
        <time>2025-11-11T10:31:23Z</time>
      </trkpt>
      <trkpt lat="45.68768" lon="4.58796">
        <ele>671.2</ele>
        <time>2025-11-11T10:31:24Z</time>
      </trkpt>
      <trkpt lat="45.68767" lon="4.58793">
        <ele>671</ele>
        <time>2025-11-11T10:31:25Z</time>
      </trkpt>
      <trkpt lat="45.68765" lon="4.58789">
        <ele>670.8</ele>
        <time>2025-11-11T10:31:26Z</time>
      </trkpt>
      <trkpt lat="45.68764" lon="4.58786">
        <ele>670.8</ele>
        <time>2025-11-11T10:31:27Z</time>
      </trkpt>
      <trkpt lat="45.68762" lon="4.58782">
        <ele>670.6</ele>
        <time>2025-11-11T10:31:28Z</time>
      </trkpt>
      <trkpt lat="45.68761" lon="4.58778">
        <ele>670.6</ele>
        <time>2025-11-11T10:31:29Z</time>
      </trkpt>
      <trkpt lat="45.68759" lon="4.58774">
        <ele>670.6</ele>
        <time>2025-11-11T10:31:30Z</time>
      </trkpt>
      <trkpt lat="45.68758" lon="4.58771">
        <ele>670.6</ele>
        <time>2025-11-11T10:31:31Z</time>
      </trkpt>
      <trkpt lat="45.68757" lon="4.58767">
        <ele>670.6</ele>
        <time>2025-11-11T10:31:32Z</time>
      </trkpt>
      <trkpt lat="45.68757" lon="4.58763">
        <ele>670.6</ele>
        <time>2025-11-11T10:31:33Z</time>
      </trkpt>
      <trkpt lat="45.68757" lon="4.58758">
        <ele>670.8</ele>
        <time>2025-11-11T10:31:34Z</time>
      </trkpt>
      <trkpt lat="45.68757" lon="4.58755">
        <ele>670.8</ele>
        <time>2025-11-11T10:31:35Z</time>
      </trkpt>
      <trkpt lat="45.68757" lon="4.58752">
        <ele>671</ele>
        <time>2025-11-11T10:31:36Z</time>
      </trkpt>
      <trkpt lat="45.68758" lon="4.58747">
        <ele>671</ele>
        <time>2025-11-11T10:31:37Z</time>
      </trkpt>
      <trkpt lat="45.68758" lon="4.58743">
        <ele>671.2</ele>
        <time>2025-11-11T10:31:38Z</time>
      </trkpt>
      <trkpt lat="45.68757" lon="4.5874">
        <ele>671.4</ele>
        <time>2025-11-11T10:31:39Z</time>
      </trkpt>
      <trkpt lat="45.68757" lon="4.58738">
        <ele>671.4</ele>
        <time>2025-11-11T10:31:40Z</time>
      </trkpt>
      <trkpt lat="45.68758" lon="4.58736">
        <ele>671.6</ele>
        <time>2025-11-11T10:31:41Z</time>
      </trkpt>
      <trkpt lat="45.68759" lon="4.58733">
        <ele>671.6</ele>
        <time>2025-11-11T10:31:42Z</time>
      </trkpt>
      <trkpt lat="45.6876" lon="4.58731">
        <ele>671.6</ele>
        <time>2025-11-11T10:31:43Z</time>
      </trkpt>
      <trkpt lat="45.6876" lon="4.58729">
        <ele>671.6</ele>
        <time>2025-11-11T10:31:44Z</time>
      </trkpt>
      <trkpt lat="45.68761" lon="4.58728">
        <ele>671.8</ele>
        <time>2025-11-11T10:31:45Z</time>
      </trkpt>
      <trkpt lat="45.68761" lon="4.58728">
        <ele>672</ele>
        <time>2025-11-11T10:31:46Z</time>
      </trkpt>
      <trkpt lat="45.68761" lon="4.5873">
        <ele>672.2</ele>
        <time>2025-11-11T10:31:47Z</time>
      </trkpt>
      <trkpt lat="45.68763" lon="4.58732">
        <ele>672.4</ele>
        <time>2025-11-11T10:31:48Z</time>
      </trkpt>
      <trkpt lat="45.68765" lon="4.58734">
        <ele>672.6</ele>
        <time>2025-11-11T10:31:49Z</time>
      </trkpt>
      <trkpt lat="45.68766" lon="4.58736">
        <ele>673</ele>
        <time>2025-11-11T10:31:50Z</time>
      </trkpt>
      <trkpt lat="45.68768" lon="4.58737">
        <ele>673.2</ele>
        <time>2025-11-11T10:31:51Z</time>
      </trkpt>
      <trkpt lat="45.68769" lon="4.58739">
        <ele>673.6</ele>
        <time>2025-11-11T10:31:52Z</time>
      </trkpt>
      <trkpt lat="45.68771" lon="4.58741">
        <ele>674</ele>
        <time>2025-11-11T10:31:53Z</time>
      </trkpt>
      <trkpt lat="45.68773" lon="4.58742">
        <ele>674.4</ele>
        <time>2025-11-11T10:31:54Z</time>
      </trkpt>
      <trkpt lat="45.68775" lon="4.58744">
        <ele>674.8</ele>
        <time>2025-11-11T10:31:55Z</time>
      </trkpt>
      <trkpt lat="45.68777" lon="4.58746">
        <ele>675.2</ele>
        <time>2025-11-11T10:31:56Z</time>
      </trkpt>
      <trkpt lat="45.68779" lon="4.58749">
        <ele>675.8</ele>
        <time>2025-11-11T10:31:57Z</time>
      </trkpt>
      <trkpt lat="45.68781" lon="4.5875">
        <ele>676.2</ele>
        <time>2025-11-11T10:31:58Z</time>
      </trkpt>
      <trkpt lat="45.68783" lon="4.58752">
        <ele>676.8</ele>
        <time>2025-11-11T10:31:59Z</time>
      </trkpt>
      <trkpt lat="45.68785" lon="4.58754">
        <ele>677.2</ele>
        <time>2025-11-11T10:32:00Z</time>
      </trkpt>
      <trkpt lat="45.68787" lon="4.58755">
        <ele>677.6</ele>
        <time>2025-11-11T10:32:01Z</time>
      </trkpt>
      <trkpt lat="45.6879" lon="4.58756">
        <ele>678</ele>
        <time>2025-11-11T10:32:02Z</time>
      </trkpt>
      <trkpt lat="45.68792" lon="4.58755">
        <ele>678.2</ele>
        <time>2025-11-11T10:32:03Z</time>
      </trkpt>
      <trkpt lat="45.68794" lon="4.58754">
        <ele>678.4</ele>
        <time>2025-11-11T10:32:04Z</time>
      </trkpt>
      <trkpt lat="45.68796" lon="4.58752">
        <ele>678.8</ele>
        <time>2025-11-11T10:32:05Z</time>
      </trkpt>
      <trkpt lat="45.68798" lon="4.58751">
        <ele>679</ele>
        <time>2025-11-11T10:32:06Z</time>
      </trkpt>
      <trkpt lat="45.688" lon="4.58749">
        <ele>679.4</ele>
        <time>2025-11-11T10:32:07Z</time>
      </trkpt>
      <trkpt lat="45.68802" lon="4.58746">
        <ele>679.6</ele>
        <time>2025-11-11T10:32:08Z</time>
      </trkpt>
      <trkpt lat="45.68803" lon="4.58744">
        <ele>680</ele>
        <time>2025-11-11T10:32:09Z</time>
      </trkpt>
      <trkpt lat="45.68805" lon="4.58741">
        <ele>680.4</ele>
        <time>2025-11-11T10:32:10Z</time>
      </trkpt>
      <trkpt lat="45.68807" lon="4.58738">
        <ele>680.6</ele>
        <time>2025-11-11T10:32:11Z</time>
      </trkpt>
      <trkpt lat="45.68809" lon="4.58736">
        <ele>680.8</ele>
        <time>2025-11-11T10:32:12Z</time>
      </trkpt>
      <trkpt lat="45.68811" lon="4.58734">
        <ele>681</ele>
        <time>2025-11-11T10:32:13Z</time>
      </trkpt>
      <trkpt lat="45.68813" lon="4.58732">
        <ele>681.2</ele>
        <time>2025-11-11T10:32:14Z</time>
      </trkpt>
      <trkpt lat="45.68815" lon="4.58731">
        <ele>681.4</ele>
        <time>2025-11-11T10:32:15Z</time>
      </trkpt>
      <trkpt lat="45.68819" lon="4.5873">
        <ele>681.6</ele>
        <time>2025-11-11T10:32:16Z</time>
      </trkpt>
      <trkpt lat="45.68822" lon="4.58729">
        <ele>681.8</ele>
        <time>2025-11-11T10:32:17Z</time>
      </trkpt>
      <trkpt lat="45.68825" lon="4.58729">
        <ele>681.8</ele>
        <time>2025-11-11T10:32:18Z</time>
      </trkpt>
      <trkpt lat="45.68828" lon="4.5873">
        <ele>682</ele>
        <time>2025-11-11T10:32:19Z</time>
      </trkpt>
      <trkpt lat="45.68831" lon="4.58733">
        <ele>682</ele>
        <time>2025-11-11T10:32:20Z</time>
      </trkpt>
      <trkpt lat="45.68834" lon="4.58737">
        <ele>682.2</ele>
        <time>2025-11-11T10:32:21Z</time>
      </trkpt>
      <trkpt lat="45.68836" lon="4.5874">
        <ele>682.4</ele>
        <time>2025-11-11T10:32:22Z</time>
      </trkpt>
      <trkpt lat="45.68838" lon="4.58744">
        <ele>682.6</ele>
        <time>2025-11-11T10:32:23Z</time>
      </trkpt>
      <trkpt lat="45.6884" lon="4.58748">
        <ele>683</ele>
        <time>2025-11-11T10:32:24Z</time>
      </trkpt>
      <trkpt lat="45.68842" lon="4.58752">
        <ele>683.2</ele>
        <time>2025-11-11T10:32:25Z</time>
      </trkpt>
      <trkpt lat="45.68844" lon="4.58755">
        <ele>683.4</ele>
        <time>2025-11-11T10:32:26Z</time>
      </trkpt>
      <trkpt lat="45.68846" lon="4.58758">
        <ele>683.8</ele>
        <time>2025-11-11T10:32:27Z</time>
      </trkpt>
      <trkpt lat="45.68848" lon="4.58761">
        <ele>684</ele>
        <time>2025-11-11T10:32:28Z</time>
      </trkpt>
      <trkpt lat="45.68851" lon="4.58764">
        <ele>684.2</ele>
        <time>2025-11-11T10:32:29Z</time>
      </trkpt>
      <trkpt lat="45.68853" lon="4.58767">
        <ele>684.4</ele>
        <time>2025-11-11T10:32:30Z</time>
      </trkpt>
      <trkpt lat="45.68856" lon="4.58769">
        <ele>684.6</ele>
        <time>2025-11-11T10:32:31Z</time>
      </trkpt>
      <trkpt lat="45.68858" lon="4.58772">
        <ele>684.8</ele>
        <time>2025-11-11T10:32:32Z</time>
      </trkpt>
      <trkpt lat="45.68861" lon="4.58774">
        <ele>685</ele>
        <time>2025-11-11T10:32:33Z</time>
      </trkpt>
      <trkpt lat="45.68864" lon="4.58776">
        <ele>685</ele>
        <time>2025-11-11T10:32:34Z</time>
      </trkpt>
      <trkpt lat="45.68866" lon="4.58779">
        <ele>685.4</ele>
        <time>2025-11-11T10:32:35Z</time>
      </trkpt>
      <trkpt lat="45.68869" lon="4.58781">
        <ele>685.6</ele>
        <time>2025-11-11T10:32:36Z</time>
      </trkpt>
      <trkpt lat="45.68871" lon="4.58782">
        <ele>685.8</ele>
        <time>2025-11-11T10:32:37Z</time>
      </trkpt>
      <trkpt lat="45.68873" lon="4.58785">
        <ele>686.2</ele>
        <time>2025-11-11T10:32:38Z</time>
      </trkpt>
      <trkpt lat="45.68876" lon="4.58787">
        <ele>686.6</ele>
        <time>2025-11-11T10:32:39Z</time>
      </trkpt>
      <trkpt lat="45.68878" lon="4.58789">
        <ele>687</ele>
        <time>2025-11-11T10:32:40Z</time>
      </trkpt>
      <trkpt lat="45.6888" lon="4.5879">
        <ele>687.6</ele>
        <time>2025-11-11T10:32:41Z</time>
      </trkpt>
      <trkpt lat="45.68882" lon="4.58792">
        <ele>688</ele>
        <time>2025-11-11T10:32:42Z</time>
      </trkpt>
      <trkpt lat="45.68884" lon="4.58795">
        <ele>688.6</ele>
        <time>2025-11-11T10:32:43Z</time>
      </trkpt>
      <trkpt lat="45.68885" lon="4.58796">
        <ele>689</ele>
        <time>2025-11-11T10:32:44Z</time>
      </trkpt>
      <trkpt lat="45.68886" lon="4.58797">
        <ele>689.6</ele>
        <time>2025-11-11T10:32:45Z</time>
      </trkpt>
      <trkpt lat="45.68888" lon="4.58799">
        <ele>690</ele>
        <time>2025-11-11T10:32:46Z</time>
      </trkpt>
      <trkpt lat="45.6889" lon="4.588">
        <ele>690.4</ele>
        <time>2025-11-11T10:32:47Z</time>
      </trkpt>
      <trkpt lat="45.68891" lon="4.58802">
        <ele>690.8</ele>
        <time>2025-11-11T10:32:48Z</time>
      </trkpt>
      <trkpt lat="45.68893" lon="4.58804">
        <ele>691.2</ele>
        <time>2025-11-11T10:32:49Z</time>
      </trkpt>
      <trkpt lat="45.68895" lon="4.58806">
        <ele>691.6</ele>
        <time>2025-11-11T10:32:50Z</time>
      </trkpt>
      <trkpt lat="45.68896" lon="4.58808">
        <ele>691.8</ele>
        <time>2025-11-11T10:32:51Z</time>
      </trkpt>
      <trkpt lat="45.68898" lon="4.58811">
        <ele>692</ele>
        <time>2025-11-11T10:32:52Z</time>
      </trkpt>
      <trkpt lat="45.689" lon="4.58813">
        <ele>692.4</ele>
        <time>2025-11-11T10:32:53Z</time>
      </trkpt>
      <trkpt lat="45.68903" lon="4.58815">
        <ele>692.6</ele>
        <time>2025-11-11T10:32:54Z</time>
      </trkpt>
      <trkpt lat="45.68905" lon="4.58817">
        <ele>693</ele>
        <time>2025-11-11T10:32:55Z</time>
      </trkpt>
      <trkpt lat="45.68908" lon="4.58819">
        <ele>693.2</ele>
        <time>2025-11-11T10:32:56Z</time>
      </trkpt>
      <trkpt lat="45.6891" lon="4.58821">
        <ele>693.4</ele>
        <time>2025-11-11T10:32:57Z</time>
      </trkpt>
      <trkpt lat="45.68912" lon="4.58823">
        <ele>693.6</ele>
        <time>2025-11-11T10:32:58Z</time>
      </trkpt>
      <trkpt lat="45.68915" lon="4.58824">
        <ele>694</ele>
        <time>2025-11-11T10:32:59Z</time>
      </trkpt>
      <trkpt lat="45.68917" lon="4.58824">
        <ele>694.2</ele>
        <time>2025-11-11T10:33:00Z</time>
      </trkpt>
      <trkpt lat="45.68919" lon="4.58823">
        <ele>694.6</ele>
        <time>2025-11-11T10:33:01Z</time>
      </trkpt>
      <trkpt lat="45.68921" lon="4.58822">
        <ele>695</ele>
        <time>2025-11-11T10:33:02Z</time>
      </trkpt>
      <trkpt lat="45.68923" lon="4.58821">
        <ele>695.4</ele>
        <time>2025-11-11T10:33:03Z</time>
      </trkpt>
      <trkpt lat="45.68925" lon="4.58819">
        <ele>695.8</ele>
        <time>2025-11-11T10:33:04Z</time>
      </trkpt>
      <trkpt lat="45.68926" lon="4.58817">
        <ele>696.2</ele>
        <time>2025-11-11T10:33:05Z</time>
      </trkpt>
      <trkpt lat="45.68928" lon="4.58814">
        <ele>696.6</ele>
        <time>2025-11-11T10:33:06Z</time>
      </trkpt>
      <trkpt lat="45.68928" lon="4.58811">
        <ele>697</ele>
        <time>2025-11-11T10:33:07Z</time>
      </trkpt>
      <trkpt lat="45.68928" lon="4.58808">
        <ele>697.4</ele>
        <time>2025-11-11T10:33:08Z</time>
      </trkpt>
      <trkpt lat="45.68929" lon="4.58804">
        <ele>697.8</ele>
        <time>2025-11-11T10:33:09Z</time>
      </trkpt>
      <trkpt lat="45.6893" lon="4.58801">
        <ele>698</ele>
        <time>2025-11-11T10:33:10Z</time>
      </trkpt>
      <trkpt lat="45.6893" lon="4.58798">
        <ele>698.4</ele>
        <time>2025-11-11T10:33:11Z</time>
      </trkpt>
      <trkpt lat="45.68931" lon="4.58794">
        <ele>698.8</ele>
        <time>2025-11-11T10:33:12Z</time>
      </trkpt>
      <trkpt lat="45.68931" lon="4.58791">
        <ele>699.2</ele>
        <time>2025-11-11T10:33:13Z</time>
      </trkpt>
      <trkpt lat="45.68932" lon="4.58788">
        <ele>699.6</ele>
        <time>2025-11-11T10:33:14Z</time>
      </trkpt>
      <trkpt lat="45.68932" lon="4.58784">
        <ele>700.2</ele>
        <time>2025-11-11T10:33:15Z</time>
      </trkpt>
      <trkpt lat="45.68933" lon="4.58781">
        <ele>700.6</ele>
        <time>2025-11-11T10:33:16Z</time>
      </trkpt>
      <trkpt lat="45.68933" lon="4.58778">
        <ele>701</ele>
        <time>2025-11-11T10:33:17Z</time>
      </trkpt>
      <trkpt lat="45.68933" lon="4.58776">
        <ele>701.4</ele>
        <time>2025-11-11T10:33:18Z</time>
      </trkpt>
      <trkpt lat="45.68933" lon="4.58773">
        <ele>701.6</ele>
        <time>2025-11-11T10:33:19Z</time>
      </trkpt>
      <trkpt lat="45.68933" lon="4.5877">
        <ele>702</ele>
        <time>2025-11-11T10:33:20Z</time>
      </trkpt>
      <trkpt lat="45.68933" lon="4.58767">
        <ele>702.2</ele>
        <time>2025-11-11T10:33:21Z</time>
      </trkpt>
      <trkpt lat="45.68934" lon="4.58764">
        <ele>702.4</ele>
        <time>2025-11-11T10:33:22Z</time>
      </trkpt>
      <trkpt lat="45.68934" lon="4.58761">
        <ele>702.6</ele>
        <time>2025-11-11T10:33:23Z</time>
      </trkpt>
      <trkpt lat="45.68935" lon="4.58758">
        <ele>702.8</ele>
        <time>2025-11-11T10:33:24Z</time>
      </trkpt>
      <trkpt lat="45.68936" lon="4.58754">
        <ele>703</ele>
        <time>2025-11-11T10:33:25Z</time>
      </trkpt>
      <trkpt lat="45.68936" lon="4.58751">
        <ele>703.4</ele>
        <time>2025-11-11T10:33:26Z</time>
      </trkpt>
      <trkpt lat="45.68936" lon="4.58748">
        <ele>703.6</ele>
        <time>2025-11-11T10:33:27Z</time>
      </trkpt>
      <trkpt lat="45.68936" lon="4.58744">
        <ele>703.8</ele>
        <time>2025-11-11T10:33:28Z</time>
      </trkpt>
      <trkpt lat="45.68936" lon="4.58741">
        <ele>704</ele>
        <time>2025-11-11T10:33:29Z</time>
      </trkpt>
      <trkpt lat="45.68937" lon="4.58738">
        <ele>704.2</ele>
        <time>2025-11-11T10:33:30Z</time>
      </trkpt>
      <trkpt lat="45.68937" lon="4.58734">
        <ele>704.2</ele>
        <time>2025-11-11T10:33:31Z</time>
      </trkpt>
      <trkpt lat="45.68937" lon="4.5873">
        <ele>704.4</ele>
        <time>2025-11-11T10:33:32Z</time>
      </trkpt>
      <trkpt lat="45.68938" lon="4.58727">
        <ele>704.6</ele>
        <time>2025-11-11T10:33:33Z</time>
      </trkpt>
      <trkpt lat="45.68939" lon="4.58724">
        <ele>704.8</ele>
        <time>2025-11-11T10:33:34Z</time>
      </trkpt>
      <trkpt lat="45.68939" lon="4.5872">
        <ele>705</ele>
        <time>2025-11-11T10:33:35Z</time>
      </trkpt>
      <trkpt lat="45.6894" lon="4.58717">
        <ele>705.2</ele>
        <time>2025-11-11T10:33:36Z</time>
      </trkpt>
      <trkpt lat="45.6894" lon="4.58714">
        <ele>705.4</ele>
        <time>2025-11-11T10:33:37Z</time>
      </trkpt>
      <trkpt lat="45.68941" lon="4.58711">
        <ele>705.6</ele>
        <time>2025-11-11T10:33:38Z</time>
      </trkpt>
      <trkpt lat="45.68941" lon="4.58707">
        <ele>706</ele>
        <time>2025-11-11T10:33:39Z</time>
      </trkpt>
      <trkpt lat="45.68942" lon="4.58704">
        <ele>706.2</ele>
        <time>2025-11-11T10:33:40Z</time>
      </trkpt>
      <trkpt lat="45.68943" lon="4.587">
        <ele>706.4</ele>
        <time>2025-11-11T10:33:41Z</time>
      </trkpt>
      <trkpt lat="45.68944" lon="4.58696">
        <ele>706.8</ele>
        <time>2025-11-11T10:33:42Z</time>
      </trkpt>
      <trkpt lat="45.68945" lon="4.58693">
        <ele>707</ele>
        <time>2025-11-11T10:33:43Z</time>
      </trkpt>
      <trkpt lat="45.68946" lon="4.58689">
        <ele>707.2</ele>
        <time>2025-11-11T10:33:44Z</time>
      </trkpt>
      <trkpt lat="45.68948" lon="4.58686">
        <ele>707.4</ele>
        <time>2025-11-11T10:33:45Z</time>
      </trkpt>
      <trkpt lat="45.68949" lon="4.58683">
        <ele>707.6</ele>
        <time>2025-11-11T10:33:46Z</time>
      </trkpt>
      <trkpt lat="45.6895" lon="4.58679">
        <ele>707.8</ele>
        <time>2025-11-11T10:33:47Z</time>
      </trkpt>
      <trkpt lat="45.68951" lon="4.58675">
        <ele>708</ele>
        <time>2025-11-11T10:33:48Z</time>
      </trkpt>
      <trkpt lat="45.68952" lon="4.58671">
        <ele>708</ele>
        <time>2025-11-11T10:33:49Z</time>
      </trkpt>
      <trkpt lat="45.68952" lon="4.58666">
        <ele>708.2</ele>
        <time>2025-11-11T10:33:50Z</time>
      </trkpt>
      <trkpt lat="45.68953" lon="4.58662">
        <ele>708.2</ele>
        <time>2025-11-11T10:33:51Z</time>
      </trkpt>
      <trkpt lat="45.68954" lon="4.58658">
        <ele>708.4</ele>
        <time>2025-11-11T10:33:52Z</time>
      </trkpt>
      <trkpt lat="45.68955" lon="4.58654">
        <ele>708.6</ele>
        <time>2025-11-11T10:33:53Z</time>
      </trkpt>
      <trkpt lat="45.68956" lon="4.5865">
        <ele>708.8</ele>
        <time>2025-11-11T10:33:54Z</time>
      </trkpt>
      <trkpt lat="45.68957" lon="4.58646">
        <ele>709</ele>
        <time>2025-11-11T10:33:55Z</time>
      </trkpt>
      <trkpt lat="45.68958" lon="4.58642">
        <ele>709.2</ele>
        <time>2025-11-11T10:33:56Z</time>
      </trkpt>
      <trkpt lat="45.68959" lon="4.58638">
        <ele>709.4</ele>
        <time>2025-11-11T10:33:57Z</time>
      </trkpt>
      <trkpt lat="45.6896" lon="4.58634">
        <ele>709.4</ele>
        <time>2025-11-11T10:33:58Z</time>
      </trkpt>
      <trkpt lat="45.68961" lon="4.5863">
        <ele>709.6</ele>
        <time>2025-11-11T10:33:59Z</time>
      </trkpt>
      <trkpt lat="45.68962" lon="4.58625">
        <ele>709.8</ele>
        <time>2025-11-11T10:34:00Z</time>
      </trkpt>
      <trkpt lat="45.68963" lon="4.58621">
        <ele>709.8</ele>
        <time>2025-11-11T10:34:01Z</time>
      </trkpt>
      <trkpt lat="45.68963" lon="4.58617">
        <ele>710</ele>
        <time>2025-11-11T10:34:02Z</time>
      </trkpt>
      <trkpt lat="45.68963" lon="4.58614">
        <ele>710</ele>
        <time>2025-11-11T10:34:03Z</time>
      </trkpt>
      <trkpt lat="45.68964" lon="4.5861">
        <ele>710.2</ele>
        <time>2025-11-11T10:34:04Z</time>
      </trkpt>
      <trkpt lat="45.68964" lon="4.58606">
        <ele>710.4</ele>
        <time>2025-11-11T10:34:05Z</time>
      </trkpt>
      <trkpt lat="45.68964" lon="4.58603">
        <ele>710.4</ele>
        <time>2025-11-11T10:34:06Z</time>
      </trkpt>
      <trkpt lat="45.68965" lon="4.58599">
        <ele>710.6</ele>
        <time>2025-11-11T10:34:07Z</time>
      </trkpt>
      <trkpt lat="45.68965" lon="4.58594">
        <ele>710.6</ele>
        <time>2025-11-11T10:34:08Z</time>
      </trkpt>
      <trkpt lat="45.68965" lon="4.5859">
        <ele>710.6</ele>
        <time>2025-11-11T10:34:09Z</time>
      </trkpt>
      <trkpt lat="45.68965" lon="4.58586">
        <ele>710.8</ele>
        <time>2025-11-11T10:34:10Z</time>
      </trkpt>
      <trkpt lat="45.68965" lon="4.58581">
        <ele>710.8</ele>
        <time>2025-11-11T10:34:11Z</time>
      </trkpt>
      <trkpt lat="45.68965" lon="4.58577">
        <ele>711</ele>
        <time>2025-11-11T10:34:12Z</time>
      </trkpt>
      <trkpt lat="45.68965" lon="4.58572">
        <ele>711</ele>
        <time>2025-11-11T10:34:13Z</time>
      </trkpt>
      <trkpt lat="45.68965" lon="4.58567">
        <ele>711</ele>
        <time>2025-11-11T10:34:14Z</time>
      </trkpt>
      <trkpt lat="45.68965" lon="4.58563">
        <ele>711.2</ele>
        <time>2025-11-11T10:34:15Z</time>
      </trkpt>
      <trkpt lat="45.68965" lon="4.58558">
        <ele>711.2</ele>
        <time>2025-11-11T10:34:16Z</time>
      </trkpt>
      <trkpt lat="45.68965" lon="4.58553">
        <ele>711.2</ele>
        <time>2025-11-11T10:34:17Z</time>
      </trkpt>
      <trkpt lat="45.68965" lon="4.58548">
        <ele>711.2</ele>
        <time>2025-11-11T10:34:18Z</time>
      </trkpt>
      <trkpt lat="45.68964" lon="4.58544">
        <ele>711.2</ele>
        <time>2025-11-11T10:34:19Z</time>
      </trkpt>
      <trkpt lat="45.68964" lon="4.58539">
        <ele>711.2</ele>
        <time>2025-11-11T10:34:20Z</time>
      </trkpt>
      <trkpt lat="45.68963" lon="4.58534">
        <ele>711.4</ele>
        <time>2025-11-11T10:34:21Z</time>
      </trkpt>
      <trkpt lat="45.68963" lon="4.5853">
        <ele>711.4</ele>
        <time>2025-11-11T10:34:22Z</time>
      </trkpt>
      <trkpt lat="45.68962" lon="4.58525">
        <ele>711.4</ele>
        <time>2025-11-11T10:34:23Z</time>
      </trkpt>
      <trkpt lat="45.68962" lon="4.5852">
        <ele>711.6</ele>
        <time>2025-11-11T10:34:24Z</time>
      </trkpt>
      <trkpt lat="45.68961" lon="4.58515">
        <ele>711.6</ele>
        <time>2025-11-11T10:34:25Z</time>
      </trkpt>
      <trkpt lat="45.6896" lon="4.58511">
        <ele>711.8</ele>
        <time>2025-11-11T10:34:26Z</time>
      </trkpt>
      <trkpt lat="45.6896" lon="4.58506">
        <ele>711.8</ele>
        <time>2025-11-11T10:34:27Z</time>
      </trkpt>
      <trkpt lat="45.68959" lon="4.58501">
        <ele>712</ele>
        <time>2025-11-11T10:34:28Z</time>
      </trkpt>
      <trkpt lat="45.68959" lon="4.58497">
        <ele>712</ele>
        <time>2025-11-11T10:34:29Z</time>
      </trkpt>
      <trkpt lat="45.68958" lon="4.58492">
        <ele>712.2</ele>
        <time>2025-11-11T10:34:30Z</time>
      </trkpt>
      <trkpt lat="45.68957" lon="4.58488">
        <ele>712.4</ele>
        <time>2025-11-11T10:34:31Z</time>
      </trkpt>
      <trkpt lat="45.68957" lon="4.58484">
        <ele>712.6</ele>
        <time>2025-11-11T10:34:32Z</time>
      </trkpt>
      <trkpt lat="45.68956" lon="4.5848">
        <ele>712.8</ele>
        <time>2025-11-11T10:34:33Z</time>
      </trkpt>
      <trkpt lat="45.68956" lon="4.58477">
        <ele>713</ele>
        <time>2025-11-11T10:34:34Z</time>
      </trkpt>
      <trkpt lat="45.68956" lon="4.58474">
        <ele>713.2</ele>
        <time>2025-11-11T10:34:35Z</time>
      </trkpt>
      <trkpt lat="45.68956" lon="4.58473">
        <ele>713.4</ele>
        <time>2025-11-11T10:34:36Z</time>
      </trkpt>
      <trkpt lat="45.68957" lon="4.58472">
        <ele>713.6</ele>
        <time>2025-11-11T10:34:37Z</time>
      </trkpt>
      <trkpt lat="45.68959" lon="4.58471">
        <ele>713.8</ele>
        <time>2025-11-11T10:34:38Z</time>
      </trkpt>
      <trkpt lat="45.6896" lon="4.5847">
        <ele>713.8</ele>
        <time>2025-11-11T10:34:39Z</time>
      </trkpt>
      <trkpt lat="45.68961" lon="4.5847">
        <ele>713.8</ele>
        <time>2025-11-11T10:34:40Z</time>
      </trkpt>
      <trkpt lat="45.68963" lon="4.58469">
        <ele>713.6</ele>
        <time>2025-11-11T10:34:41Z</time>
      </trkpt>
      <trkpt lat="45.68963" lon="4.58468">
        <ele>713.6</ele>
        <time>2025-11-11T10:34:42Z</time>
      </trkpt>
      <trkpt lat="45.68963" lon="4.58468">
        <ele>713.6</ele>
        <time>2025-11-11T10:34:43Z</time>
      </trkpt>
      <trkpt lat="45.68963" lon="4.58468">
        <ele>713.6</ele>
        <time>2025-11-11T10:34:44Z</time>
      </trkpt>
      <trkpt lat="45.68963" lon="4.58468">
        <ele>713.6</ele>
        <time>2025-11-11T10:34:45Z</time>
      </trkpt>
      <trkpt lat="45.68963" lon="4.58468">
        <ele>713.6</ele>
        <time>2025-11-11T10:34:46Z</time>
      </trkpt>
      <trkpt lat="45.68963" lon="4.58468">
        <ele>713.6</ele>
        <time>2025-11-11T10:34:47Z</time>
      </trkpt>
      <trkpt lat="45.68963" lon="4.58468">
        <ele>713.6</ele>
        <time>2025-11-11T10:34:48Z</time>
      </trkpt>
      <trkpt lat="45.68963" lon="4.58468">
        <ele>713.6</ele>
        <time>2025-11-11T10:34:49Z</time>
      </trkpt>
      <trkpt lat="45.68963" lon="4.58468">
        <ele>713.6</ele>
        <time>2025-11-11T10:34:50Z</time>
      </trkpt>
      <trkpt lat="45.68963" lon="4.58468">
        <ele>713.6</ele>
        <time>2025-11-11T10:34:51Z</time>
      </trkpt>
      <trkpt lat="45.68963" lon="4.58468">
        <ele>713.6</ele>
        <time>2025-11-11T10:34:52Z</time>
      </trkpt>
      <trkpt lat="45.68963" lon="4.58468">
        <ele>713.6</ele>
        <time>2025-11-11T10:34:53Z</time>
      </trkpt>
      <trkpt lat="45.68963" lon="4.58468">
        <ele>713.6</ele>
        <time>2025-11-11T10:34:54Z</time>
      </trkpt>
      <trkpt lat="45.68963" lon="4.58468">
        <ele>713.6</ele>
        <time>2025-11-11T10:34:55Z</time>
      </trkpt>
      <trkpt lat="45.68963" lon="4.58468">
        <ele>713.4</ele>
        <time>2025-11-11T10:34:56Z</time>
      </trkpt>
      <trkpt lat="45.68963" lon="4.58468">
        <ele>713.4</ele>
        <time>2025-11-11T10:34:57Z</time>
      </trkpt>
      <trkpt lat="45.68963" lon="4.58468">
        <ele>713.4</ele>
        <time>2025-11-11T10:34:58Z</time>
      </trkpt>
      <trkpt lat="45.68963" lon="4.58468">
        <ele>713.4</ele>
        <time>2025-11-11T10:34:59Z</time>
      </trkpt>
      <trkpt lat="45.68963" lon="4.58468">
        <ele>713.4</ele>
        <time>2025-11-11T10:35:00Z</time>
      </trkpt>
      <trkpt lat="45.68963" lon="4.58468">
        <ele>713.2</ele>
        <time>2025-11-11T10:35:01Z</time>
      </trkpt>
      <trkpt lat="45.68963" lon="4.58468">
        <ele>713.2</ele>
        <time>2025-11-11T10:35:02Z</time>
      </trkpt>
      <trkpt lat="45.68963" lon="4.58468">
        <ele>713.2</ele>
        <time>2025-11-11T10:35:03Z</time>
      </trkpt>
      <trkpt lat="45.68963" lon="4.58468">
        <ele>713.2</ele>
        <time>2025-11-11T10:35:04Z</time>
      </trkpt>
      <trkpt lat="45.68963" lon="4.58468">
        <ele>713.2</ele>
        <time>2025-11-11T10:35:05Z</time>
      </trkpt>
      <trkpt lat="45.68963" lon="4.58468">
        <ele>713.2</ele>
        <time>2025-11-11T10:35:06Z</time>
      </trkpt>
      <trkpt lat="45.68963" lon="4.58468">
        <ele>713.2</ele>
        <time>2025-11-11T10:35:07Z</time>
      </trkpt>
      <trkpt lat="45.68963" lon="4.58468">
        <ele>713.2</ele>
        <time>2025-11-11T10:35:08Z</time>
      </trkpt>
      <trkpt lat="45.68963" lon="4.58468">
        <ele>713.2</ele>
        <time>2025-11-11T10:35:09Z</time>
      </trkpt>
      <trkpt lat="45.68963" lon="4.58468">
        <ele>713.2</ele>
        <time>2025-11-11T10:35:10Z</time>
      </trkpt>
      <trkpt lat="45.68963" lon="4.58468">
        <ele>713.2</ele>
        <time>2025-11-11T10:35:11Z</time>
      </trkpt>
      <trkpt lat="45.68963" lon="4.58468">
        <ele>713.2</ele>
        <time>2025-11-11T10:35:12Z</time>
      </trkpt>
      <trkpt lat="45.68963" lon="4.58468">
        <ele>713.2</ele>
        <time>2025-11-11T10:35:13Z</time>
      </trkpt>
      <trkpt lat="45.68963" lon="4.58468">
        <ele>713.2</ele>
        <time>2025-11-11T10:35:14Z</time>
      </trkpt>
      <trkpt lat="45.68963" lon="4.58468">
        <ele>713.2</ele>
        <time>2025-11-11T10:35:15Z</time>
      </trkpt>
      <trkpt lat="45.68963" lon="4.58468">
        <ele>713.2</ele>
        <time>2025-11-11T10:35:16Z</time>
      </trkpt>
      <trkpt lat="45.68963" lon="4.58468">
        <ele>713.2</ele>
        <time>2025-11-11T10:35:17Z</time>
      </trkpt>
      <trkpt lat="45.68963" lon="4.58468">
        <ele>713.2</ele>
        <time>2025-11-11T10:35:18Z</time>
      </trkpt>
      <trkpt lat="45.68963" lon="4.58468">
        <ele>713.2</ele>
        <time>2025-11-11T10:35:19Z</time>
      </trkpt>
      <trkpt lat="45.68963" lon="4.58468">
        <ele>713.2</ele>
        <time>2025-11-11T10:35:20Z</time>
      </trkpt>
      <trkpt lat="45.68963" lon="4.58468">
        <ele>713.2</ele>
        <time>2025-11-11T10:35:21Z</time>
      </trkpt>
      <trkpt lat="45.68963" lon="4.58468">
        <ele>713.2</ele>
        <time>2025-11-11T10:35:22Z</time>
      </trkpt>
      <trkpt lat="45.68963" lon="4.58468">
        <ele>713.2</ele>
        <time>2025-11-11T10:35:23Z</time>
      </trkpt>
      <trkpt lat="45.68963" lon="4.58468">
        <ele>713.2</ele>
        <time>2025-11-11T10:35:24Z</time>
      </trkpt>
      <trkpt lat="45.68963" lon="4.58468">
        <ele>713</ele>
        <time>2025-11-11T10:35:25Z</time>
      </trkpt>
      <trkpt lat="45.68963" lon="4.58468">
        <ele>713</ele>
        <time>2025-11-11T10:35:26Z</time>
      </trkpt>
      <trkpt lat="45.68963" lon="4.58468">
        <ele>713</ele>
        <time>2025-11-11T10:35:27Z</time>
      </trkpt>
      <trkpt lat="45.68963" lon="4.58468">
        <ele>713</ele>
        <time>2025-11-11T10:35:28Z</time>
      </trkpt>
      <trkpt lat="45.68963" lon="4.58468">
        <ele>713</ele>
        <time>2025-11-11T10:35:29Z</time>
      </trkpt>
      <trkpt lat="45.68963" lon="4.58468">
        <ele>713</ele>
        <time>2025-11-11T10:35:30Z</time>
      </trkpt>
      <trkpt lat="45.68963" lon="4.58468">
        <ele>713</ele>
        <time>2025-11-11T10:35:31Z</time>
      </trkpt>
      <trkpt lat="45.68963" lon="4.58468">
        <ele>713</ele>
        <time>2025-11-11T10:35:32Z</time>
      </trkpt>
      <trkpt lat="45.68963" lon="4.58468">
        <ele>713</ele>
        <time>2025-11-11T10:35:33Z</time>
      </trkpt>
      <trkpt lat="45.68963" lon="4.58468">
        <ele>713</ele>
        <time>2025-11-11T10:35:34Z</time>
      </trkpt>
      <trkpt lat="45.68963" lon="4.58468">
        <ele>713</ele>
        <time>2025-11-11T10:35:35Z</time>
      </trkpt>
      <trkpt lat="45.68963" lon="4.58468">
        <ele>713</ele>
        <time>2025-11-11T10:35:36Z</time>
      </trkpt>
      <trkpt lat="45.68963" lon="4.58468">
        <ele>713</ele>
        <time>2025-11-11T10:35:37Z</time>
      </trkpt>
      <trkpt lat="45.68963" lon="4.58468">
        <ele>713</ele>
        <time>2025-11-11T10:35:38Z</time>
      </trkpt>
      <trkpt lat="45.68963" lon="4.58468">
        <ele>713</ele>
        <time>2025-11-11T10:35:39Z</time>
      </trkpt>
      <trkpt lat="45.68963" lon="4.58468">
        <ele>713</ele>
        <time>2025-11-11T10:35:40Z</time>
      </trkpt>
      <trkpt lat="45.68963" lon="4.58468">
        <ele>713</ele>
        <time>2025-11-11T10:35:41Z</time>
      </trkpt>
      <trkpt lat="45.68963" lon="4.58468">
        <ele>713</ele>
        <time>2025-11-11T10:35:42Z</time>
      </trkpt>
      <trkpt lat="45.68963" lon="4.58468">
        <ele>713</ele>
        <time>2025-11-11T10:35:43Z</time>
      </trkpt>
      <trkpt lat="45.68963" lon="4.58468">
        <ele>713</ele>
        <time>2025-11-11T10:35:44Z</time>
      </trkpt>
      <trkpt lat="45.68963" lon="4.58468">
        <ele>713</ele>
        <time>2025-11-11T10:35:45Z</time>
      </trkpt>
      <trkpt lat="45.68963" lon="4.58468">
        <ele>713</ele>
        <time>2025-11-11T10:35:46Z</time>
      </trkpt>
      <trkpt lat="45.68963" lon="4.58468">
        <ele>712.8</ele>
        <time>2025-11-11T10:35:47Z</time>
      </trkpt>
      <trkpt lat="45.68963" lon="4.58468">
        <ele>712.8</ele>
        <time>2025-11-11T10:35:48Z</time>
      </trkpt>
      <trkpt lat="45.68963" lon="4.58468">
        <ele>712.8</ele>
        <time>2025-11-11T10:35:49Z</time>
      </trkpt>
      <trkpt lat="45.68963" lon="4.58468">
        <ele>712.8</ele>
        <time>2025-11-11T10:35:50Z</time>
      </trkpt>
      <trkpt lat="45.68963" lon="4.58468">
        <ele>712.8</ele>
        <time>2025-11-11T10:35:51Z</time>
      </trkpt>
      <trkpt lat="45.68963" lon="4.58468">
        <ele>712.8</ele>
        <time>2025-11-11T10:35:52Z</time>
      </trkpt>
      <trkpt lat="45.68963" lon="4.58468">
        <ele>712.8</ele>
        <time>2025-11-11T10:35:53Z</time>
      </trkpt>
      <trkpt lat="45.68963" lon="4.58468">
        <ele>712.8</ele>
        <time>2025-11-11T10:35:54Z</time>
      </trkpt>
      <trkpt lat="45.68963" lon="4.58468">
        <ele>712.8</ele>
        <time>2025-11-11T10:35:55Z</time>
      </trkpt>
      <trkpt lat="45.68963" lon="4.58468">
        <ele>712.8</ele>
        <time>2025-11-11T10:35:56Z</time>
      </trkpt>
      <trkpt lat="45.68963" lon="4.58468">
        <ele>712.8</ele>
        <time>2025-11-11T10:35:57Z</time>
      </trkpt>
      <trkpt lat="45.68963" lon="4.58468">
        <ele>712.8</ele>
        <time>2025-11-11T10:35:58Z</time>
      </trkpt>
      <trkpt lat="45.68963" lon="4.58468">
        <ele>712.8</ele>
        <time>2025-11-11T10:35:59Z</time>
      </trkpt>
      <trkpt lat="45.68963" lon="4.58468">
        <ele>712.8</ele>
        <time>2025-11-11T10:36:00Z</time>
      </trkpt>
      <trkpt lat="45.68963" lon="4.58468">
        <ele>712.8</ele>
        <time>2025-11-11T10:36:01Z</time>
      </trkpt>
      <trkpt lat="45.68963" lon="4.58468">
        <ele>712.8</ele>
        <time>2025-11-11T10:36:02Z</time>
      </trkpt>
      <trkpt lat="45.68963" lon="4.58468">
        <ele>712.8</ele>
        <time>2025-11-11T10:36:03Z</time>
      </trkpt>
      <trkpt lat="45.68963" lon="4.58468">
        <ele>712.8</ele>
        <time>2025-11-11T10:36:04Z</time>
      </trkpt>
      <trkpt lat="45.68963" lon="4.58468">
        <ele>712.8</ele>
        <time>2025-11-11T10:36:05Z</time>
      </trkpt>
      <trkpt lat="45.68963" lon="4.58468">
        <ele>712.6</ele>
        <time>2025-11-11T10:36:06Z</time>
      </trkpt>
      <trkpt lat="45.68963" lon="4.58468">
        <ele>712.6</ele>
        <time>2025-11-11T10:36:07Z</time>
      </trkpt>
      <trkpt lat="45.68963" lon="4.58468">
        <ele>712.6</ele>
        <time>2025-11-11T10:36:08Z</time>
      </trkpt>
      <trkpt lat="45.68963" lon="4.58468">
        <ele>712.6</ele>
        <time>2025-11-11T10:36:09Z</time>
      </trkpt>
      <trkpt lat="45.68963" lon="4.58468">
        <ele>712.6</ele>
        <time>2025-11-11T10:36:10Z</time>
      </trkpt>
      <trkpt lat="45.68963" lon="4.58468">
        <ele>712.6</ele>
        <time>2025-11-11T10:36:11Z</time>
      </trkpt>
      <trkpt lat="45.68963" lon="4.58468">
        <ele>712.6</ele>
        <time>2025-11-11T10:36:12Z</time>
      </trkpt>
      <trkpt lat="45.68963" lon="4.58468">
        <ele>712.6</ele>
        <time>2025-11-11T10:36:13Z</time>
      </trkpt>
      <trkpt lat="45.68963" lon="4.58468">
        <ele>712.6</ele>
        <time>2025-11-11T10:36:14Z</time>
      </trkpt>
      <trkpt lat="45.68963" lon="4.58468">
        <ele>712.6</ele>
        <time>2025-11-11T10:36:15Z</time>
      </trkpt>
      <trkpt lat="45.68963" lon="4.58468">
        <ele>712.6</ele>
        <time>2025-11-11T10:36:16Z</time>
      </trkpt>
      <trkpt lat="45.68963" lon="4.58468">
        <ele>712.6</ele>
        <time>2025-11-11T10:36:17Z</time>
      </trkpt>
      <trkpt lat="45.68963" lon="4.58468">
        <ele>712.6</ele>
        <time>2025-11-11T10:36:18Z</time>
      </trkpt>
      <trkpt lat="45.68963" lon="4.58468">
        <ele>712.6</ele>
        <time>2025-11-11T10:36:19Z</time>
      </trkpt>
      <trkpt lat="45.68963" lon="4.58468">
        <ele>712.6</ele>
        <time>2025-11-11T10:36:20Z</time>
      </trkpt>
      <trkpt lat="45.68963" lon="4.58468">
        <ele>712.6</ele>
        <time>2025-11-11T10:36:21Z</time>
      </trkpt>
      <trkpt lat="45.68963" lon="4.58468">
        <ele>712.4</ele>
        <time>2025-11-11T10:36:22Z</time>
      </trkpt>
      <trkpt lat="45.68963" lon="4.58468">
        <ele>712.4</ele>
        <time>2025-11-11T10:36:23Z</time>
      </trkpt>
      <trkpt lat="45.68963" lon="4.58468">
        <ele>712.4</ele>
        <time>2025-11-11T10:36:24Z</time>
      </trkpt>
      <trkpt lat="45.68963" lon="4.58468">
        <ele>712.4</ele>
        <time>2025-11-11T10:36:25Z</time>
      </trkpt>
      <trkpt lat="45.68963" lon="4.58468">
        <ele>712.4</ele>
        <time>2025-11-11T10:36:26Z</time>
      </trkpt>
      <trkpt lat="45.68963" lon="4.58468">
        <ele>712.4</ele>
        <time>2025-11-11T10:36:27Z</time>
      </trkpt>
      <trkpt lat="45.68963" lon="4.58468">
        <ele>712.4</ele>
        <time>2025-11-11T10:36:28Z</time>
      </trkpt>
      <trkpt lat="45.68963" lon="4.58468">
        <ele>712.4</ele>
        <time>2025-11-11T10:36:29Z</time>
      </trkpt>
      <trkpt lat="45.68963" lon="4.58468">
        <ele>712.4</ele>
        <time>2025-11-11T10:36:30Z</time>
      </trkpt>
      <trkpt lat="45.68963" lon="4.58468">
        <ele>712.4</ele>
        <time>2025-11-11T10:36:31Z</time>
      </trkpt>
      <trkpt lat="45.68963" lon="4.58468">
        <ele>712.4</ele>
        <time>2025-11-11T10:36:32Z</time>
      </trkpt>
      <trkpt lat="45.68963" lon="4.58468">
        <ele>712.4</ele>
        <time>2025-11-11T10:36:33Z</time>
      </trkpt>
      <trkpt lat="45.68963" lon="4.58468">
        <ele>712.4</ele>
        <time>2025-11-11T10:36:34Z</time>
      </trkpt>
      <trkpt lat="45.68963" lon="4.58468">
        <ele>712.4</ele>
        <time>2025-11-11T10:36:35Z</time>
      </trkpt>
      <trkpt lat="45.68963" lon="4.58468">
        <ele>712.4</ele>
        <time>2025-11-11T10:36:36Z</time>
      </trkpt>
      <trkpt lat="45.68963" lon="4.58468">
        <ele>712.4</ele>
        <time>2025-11-11T10:36:37Z</time>
      </trkpt>
      <trkpt lat="45.68963" lon="4.58468">
        <ele>712.4</ele>
        <time>2025-11-11T10:36:38Z</time>
      </trkpt>
      <trkpt lat="45.68963" lon="4.58468">
        <ele>712.4</ele>
        <time>2025-11-11T10:36:39Z</time>
      </trkpt>
      <trkpt lat="45.68963" lon="4.58468">
        <ele>712.4</ele>
        <time>2025-11-11T10:36:40Z</time>
      </trkpt>
      <trkpt lat="45.68963" lon="4.58468">
        <ele>712.4</ele>
        <time>2025-11-11T10:36:41Z</time>
      </trkpt>
      <trkpt lat="45.68963" lon="4.58468">
        <ele>712.2</ele>
        <time>2025-11-11T10:36:42Z</time>
      </trkpt>
      <trkpt lat="45.68963" lon="4.58468">
        <ele>712.2</ele>
        <time>2025-11-11T10:36:43Z</time>
      </trkpt>
      <trkpt lat="45.68963" lon="4.58468">
        <ele>712.2</ele>
        <time>2025-11-11T10:36:44Z</time>
      </trkpt>
      <trkpt lat="45.68963" lon="4.58468">
        <ele>712.2</ele>
        <time>2025-11-11T10:36:45Z</time>
      </trkpt>
      <trkpt lat="45.68963" lon="4.58468">
        <ele>712.2</ele>
        <time>2025-11-11T10:36:46Z</time>
      </trkpt>
      <trkpt lat="45.68963" lon="4.58468">
        <ele>712.2</ele>
        <time>2025-11-11T10:36:47Z</time>
      </trkpt>
      <trkpt lat="45.68963" lon="4.58468">
        <ele>712.2</ele>
        <time>2025-11-11T10:36:48Z</time>
      </trkpt>
      <trkpt lat="45.68963" lon="4.58468">
        <ele>712.2</ele>
        <time>2025-11-11T10:36:49Z</time>
      </trkpt>
      <trkpt lat="45.68963" lon="4.58468">
        <ele>712.2</ele>
        <time>2025-11-11T10:36:50Z</time>
      </trkpt>
      <trkpt lat="45.68963" lon="4.58468">
        <ele>712.2</ele>
        <time>2025-11-11T10:36:51Z</time>
      </trkpt>
      <trkpt lat="45.68963" lon="4.58468">
        <ele>712.2</ele>
        <time>2025-11-11T10:36:52Z</time>
      </trkpt>
      <trkpt lat="45.68963" lon="4.58468">
        <ele>712.2</ele>
        <time>2025-11-11T10:36:53Z</time>
      </trkpt>
      <trkpt lat="45.68963" lon="4.58468">
        <ele>712.2</ele>
        <time>2025-11-11T10:36:54Z</time>
      </trkpt>
      <trkpt lat="45.68963" lon="4.58468">
        <ele>712.2</ele>
        <time>2025-11-11T10:36:55Z</time>
      </trkpt>
      <trkpt lat="45.68963" lon="4.58468">
        <ele>712</ele>
        <time>2025-11-11T10:36:56Z</time>
      </trkpt>
      <trkpt lat="45.68963" lon="4.58468">
        <ele>712</ele>
        <time>2025-11-11T10:36:57Z</time>
      </trkpt>
      <trkpt lat="45.68963" lon="4.58468">
        <ele>712</ele>
        <time>2025-11-11T10:36:58Z</time>
      </trkpt>
      <trkpt lat="45.68963" lon="4.58468">
        <ele>712</ele>
        <time>2025-11-11T10:36:59Z</time>
      </trkpt>
      <trkpt lat="45.68963" lon="4.58468">
        <ele>712</ele>
        <time>2025-11-11T10:37:00Z</time>
      </trkpt>
      <trkpt lat="45.68963" lon="4.58468">
        <ele>712</ele>
        <time>2025-11-11T10:37:01Z</time>
      </trkpt>
      <trkpt lat="45.68963" lon="4.58468">
        <ele>712</ele>
        <time>2025-11-11T10:37:02Z</time>
      </trkpt>
      <trkpt lat="45.68963" lon="4.58468">
        <ele>712</ele>
        <time>2025-11-11T10:37:03Z</time>
      </trkpt>
      <trkpt lat="45.68963" lon="4.58468">
        <ele>712</ele>
        <time>2025-11-11T10:37:04Z</time>
      </trkpt>
      <trkpt lat="45.68963" lon="4.58468">
        <ele>712</ele>
        <time>2025-11-11T10:37:05Z</time>
      </trkpt>
      <trkpt lat="45.68963" lon="4.58468">
        <ele>712</ele>
        <time>2025-11-11T10:37:06Z</time>
      </trkpt>
      <trkpt lat="45.68963" lon="4.58468">
        <ele>712</ele>
        <time>2025-11-11T10:37:07Z</time>
      </trkpt>
      <trkpt lat="45.68963" lon="4.58468">
        <ele>712</ele>
        <time>2025-11-11T10:37:08Z</time>
      </trkpt>
      <trkpt lat="45.68963" lon="4.58468">
        <ele>712</ele>
        <time>2025-11-11T10:37:09Z</time>
      </trkpt>
      <trkpt lat="45.68963" lon="4.58468">
        <ele>712</ele>
        <time>2025-11-11T10:37:10Z</time>
      </trkpt>
      <trkpt lat="45.68963" lon="4.58468">
        <ele>712</ele>
        <time>2025-11-11T10:37:11Z</time>
      </trkpt>
      <trkpt lat="45.68963" lon="4.58468">
        <ele>712</ele>
        <time>2025-11-11T10:37:12Z</time>
      </trkpt>
      <trkpt lat="45.68963" lon="4.58468">
        <ele>712</ele>
        <time>2025-11-11T10:37:13Z</time>
      </trkpt>
      <trkpt lat="45.68963" lon="4.58468">
        <ele>712</ele>
        <time>2025-11-11T10:37:14Z</time>
      </trkpt>
      <trkpt lat="45.68963" lon="4.58468">
        <ele>712</ele>
        <time>2025-11-11T10:37:15Z</time>
      </trkpt>
      <trkpt lat="45.68963" lon="4.58468">
        <ele>712</ele>
        <time>2025-11-11T10:37:16Z</time>
      </trkpt>
      <trkpt lat="45.68963" lon="4.58468">
        <ele>712</ele>
        <time>2025-11-11T10:37:17Z</time>
      </trkpt>
      <trkpt lat="45.68963" lon="4.58468">
        <ele>711.8</ele>
        <time>2025-11-11T10:37:18Z</time>
      </trkpt>
      <trkpt lat="45.68963" lon="4.58468">
        <ele>711.8</ele>
        <time>2025-11-11T10:37:19Z</time>
      </trkpt>
      <trkpt lat="45.68963" lon="4.58468">
        <ele>711.8</ele>
        <time>2025-11-11T10:37:20Z</time>
      </trkpt>
      <trkpt lat="45.68963" lon="4.58468">
        <ele>711.8</ele>
        <time>2025-11-11T10:37:21Z</time>
      </trkpt>
      <trkpt lat="45.68963" lon="4.58468">
        <ele>711.8</ele>
        <time>2025-11-11T10:37:22Z</time>
      </trkpt>
      <trkpt lat="45.68963" lon="4.58468">
        <ele>711.8</ele>
        <time>2025-11-11T10:37:23Z</time>
      </trkpt>
      <trkpt lat="45.68963" lon="4.58468">
        <ele>711.8</ele>
        <time>2025-11-11T10:37:24Z</time>
      </trkpt>
      <trkpt lat="45.68963" lon="4.58468">
        <ele>711.8</ele>
        <time>2025-11-11T10:37:25Z</time>
      </trkpt>
      <trkpt lat="45.68963" lon="4.58468">
        <ele>711.8</ele>
        <time>2025-11-11T10:37:26Z</time>
      </trkpt>
      <trkpt lat="45.68963" lon="4.58468">
        <ele>711.8</ele>
        <time>2025-11-11T10:37:27Z</time>
      </trkpt>
      <trkpt lat="45.68963" lon="4.58468">
        <ele>711.8</ele>
        <time>2025-11-11T10:37:28Z</time>
      </trkpt>
      <trkpt lat="45.68963" lon="4.58468">
        <ele>711.8</ele>
        <time>2025-11-11T10:37:29Z</time>
      </trkpt>
      <trkpt lat="45.68963" lon="4.58468">
        <ele>711.8</ele>
        <time>2025-11-11T10:37:30Z</time>
      </trkpt>
      <trkpt lat="45.68963" lon="4.58468">
        <ele>711.8</ele>
        <time>2025-11-11T10:37:31Z</time>
      </trkpt>
      <trkpt lat="45.68963" lon="4.58468">
        <ele>711.8</ele>
        <time>2025-11-11T10:37:32Z</time>
      </trkpt>
      <trkpt lat="45.68963" lon="4.58468">
        <ele>711.8</ele>
        <time>2025-11-11T10:37:33Z</time>
      </trkpt>
      <trkpt lat="45.68963" lon="4.58468">
        <ele>711.8</ele>
        <time>2025-11-11T10:37:34Z</time>
      </trkpt>
      <trkpt lat="45.68963" lon="4.58468">
        <ele>711.8</ele>
        <time>2025-11-11T10:37:35Z</time>
      </trkpt>
      <trkpt lat="45.68963" lon="4.58468">
        <ele>711.8</ele>
        <time>2025-11-11T10:37:36Z</time>
      </trkpt>
      <trkpt lat="45.68964" lon="4.58468">
        <ele>711.8</ele>
        <time>2025-11-11T10:37:37Z</time>
      </trkpt>
      <trkpt lat="45.68964" lon="4.58468">
        <ele>711.6</ele>
        <time>2025-11-11T10:37:38Z</time>
      </trkpt>
      <trkpt lat="45.68964" lon="4.58468">
        <ele>711.6</ele>
        <time>2025-11-11T10:37:39Z</time>
      </trkpt>
      <trkpt lat="45.68964" lon="4.58468">
        <ele>711.6</ele>
        <time>2025-11-11T10:37:40Z</time>
      </trkpt>
      <trkpt lat="45.68964" lon="4.58468">
        <ele>711.6</ele>
        <time>2025-11-11T10:37:41Z</time>
      </trkpt>
      <trkpt lat="45.68964" lon="4.58468">
        <ele>711.6</ele>
        <time>2025-11-11T10:37:42Z</time>
      </trkpt>
      <trkpt lat="45.68964" lon="4.58468">
        <ele>711.6</ele>
        <time>2025-11-11T10:37:43Z</time>
      </trkpt>
      <trkpt lat="45.68964" lon="4.58468">
        <ele>711.6</ele>
        <time>2025-11-11T10:37:44Z</time>
      </trkpt>
      <trkpt lat="45.68964" lon="4.58468">
        <ele>711.6</ele>
        <time>2025-11-11T10:37:45Z</time>
      </trkpt>
      <trkpt lat="45.68964" lon="4.58468">
        <ele>711.6</ele>
        <time>2025-11-11T10:37:46Z</time>
      </trkpt>
      <trkpt lat="45.68964" lon="4.58468">
        <ele>711.6</ele>
        <time>2025-11-11T10:37:47Z</time>
      </trkpt>
      <trkpt lat="45.68966" lon="4.58467">
        <ele>711.6</ele>
        <time>2025-11-11T10:37:48Z</time>
      </trkpt>
      <trkpt lat="45.68968" lon="4.58466">
        <ele>711.4</ele>
        <time>2025-11-11T10:37:49Z</time>
      </trkpt>
      <trkpt lat="45.6897" lon="4.58465">
        <ele>711.4</ele>
        <time>2025-11-11T10:37:50Z</time>
      </trkpt>
      <trkpt lat="45.68972" lon="4.58464">
        <ele>711.2</ele>
        <time>2025-11-11T10:37:51Z</time>
      </trkpt>
      <trkpt lat="45.68975" lon="4.58463">
        <ele>711</ele>
        <time>2025-11-11T10:37:52Z</time>
      </trkpt>
      <trkpt lat="45.68977" lon="4.58461">
        <ele>710.8</ele>
        <time>2025-11-11T10:37:53Z</time>
      </trkpt>
      <trkpt lat="45.6898" lon="4.5846">
        <ele>710.6</ele>
        <time>2025-11-11T10:37:54Z</time>
      </trkpt>
      <trkpt lat="45.68984" lon="4.58459">
        <ele>710.4</ele>
        <time>2025-11-11T10:37:55Z</time>
      </trkpt>
      <trkpt lat="45.68988" lon="4.58457">
        <ele>710</ele>
        <time>2025-11-11T10:37:56Z</time>
      </trkpt>
      <trkpt lat="45.68993" lon="4.58455">
        <ele>709.6</ele>
        <time>2025-11-11T10:37:57Z</time>
      </trkpt>
      <trkpt lat="45.68997" lon="4.58451">
        <ele>709.2</ele>
        <time>2025-11-11T10:37:58Z</time>
      </trkpt>
      <trkpt lat="45.69002" lon="4.58447">
        <ele>708.6</ele>
        <time>2025-11-11T10:37:59Z</time>
      </trkpt>
      <trkpt lat="45.69007" lon="4.58442">
        <ele>708.2</ele>
        <time>2025-11-11T10:38:00Z</time>
      </trkpt>
      <trkpt lat="45.69012" lon="4.58436">
        <ele>707.4</ele>
        <time>2025-11-11T10:38:01Z</time>
      </trkpt>
      <trkpt lat="45.69016" lon="4.5843">
        <ele>706.8</ele>
        <time>2025-11-11T10:38:02Z</time>
      </trkpt>
      <trkpt lat="45.69021" lon="4.58422">
        <ele>706</ele>
        <time>2025-11-11T10:38:03Z</time>
      </trkpt>
      <trkpt lat="45.69026" lon="4.58414">
        <ele>705.2</ele>
        <time>2025-11-11T10:38:04Z</time>
      </trkpt>
      <trkpt lat="45.69031" lon="4.58407">
        <ele>704.4</ele>
        <time>2025-11-11T10:38:05Z</time>
      </trkpt>
      <trkpt lat="45.69037" lon="4.58402">
        <ele>703.6</ele>
        <time>2025-11-11T10:38:06Z</time>
      </trkpt>
      <trkpt lat="45.69043" lon="4.58399">
        <ele>703</ele>
        <time>2025-11-11T10:38:07Z</time>
      </trkpt>
      <trkpt lat="45.69049" lon="4.584">
        <ele>702.2</ele>
        <time>2025-11-11T10:38:08Z</time>
      </trkpt>
      <trkpt lat="45.69056" lon="4.58405">
        <ele>701.4</ele>
        <time>2025-11-11T10:38:09Z</time>
      </trkpt>
      <trkpt lat="45.69062" lon="4.58413">
        <ele>700.8</ele>
        <time>2025-11-11T10:38:10Z</time>
      </trkpt>
      <trkpt lat="45.69067" lon="4.58422">
        <ele>700.2</ele>
        <time>2025-11-11T10:38:11Z</time>
      </trkpt>
      <trkpt lat="45.69073" lon="4.5843">
        <ele>699.2</ele>
        <time>2025-11-11T10:38:12Z</time>
      </trkpt>
      <trkpt lat="45.6908" lon="4.58437">
        <ele>698.2</ele>
        <time>2025-11-11T10:38:13Z</time>
      </trkpt>
      <trkpt lat="45.69089" lon="4.58441">
        <ele>697.2</ele>
        <time>2025-11-11T10:38:14Z</time>
      </trkpt>
      <trkpt lat="45.69098" lon="4.58442">
        <ele>696.4</ele>
        <time>2025-11-11T10:38:15Z</time>
      </trkpt>
      <trkpt lat="45.69107" lon="4.58442">
        <ele>695.6</ele>
        <time>2025-11-11T10:38:16Z</time>
      </trkpt>
      <trkpt lat="45.69116" lon="4.58441">
        <ele>694.6</ele>
        <time>2025-11-11T10:38:17Z</time>
      </trkpt>
      <trkpt lat="45.69126" lon="4.5844">
        <ele>693.8</ele>
        <time>2025-11-11T10:38:18Z</time>
      </trkpt>
      <trkpt lat="45.69136" lon="4.58439">
        <ele>692.8</ele>
        <time>2025-11-11T10:38:19Z</time>
      </trkpt>
      <trkpt lat="45.69146" lon="4.58438">
        <ele>691.8</ele>
        <time>2025-11-11T10:38:20Z</time>
      </trkpt>
      <trkpt lat="45.69156" lon="4.58437">
        <ele>690.8</ele>
        <time>2025-11-11T10:38:21Z</time>
      </trkpt>
      <trkpt lat="45.69166" lon="4.58435">
        <ele>690</ele>
        <time>2025-11-11T10:38:22Z</time>
      </trkpt>
      <trkpt lat="45.69176" lon="4.58432">
        <ele>689</ele>
        <time>2025-11-11T10:38:23Z</time>
      </trkpt>
      <trkpt lat="45.69186" lon="4.58428">
        <ele>688</ele>
        <time>2025-11-11T10:38:24Z</time>
      </trkpt>
      <trkpt lat="45.69197" lon="4.58425">
        <ele>687</ele>
        <time>2025-11-11T10:38:25Z</time>
      </trkpt>
      <trkpt lat="45.69207" lon="4.58423">
        <ele>686</ele>
        <time>2025-11-11T10:38:26Z</time>
      </trkpt>
      <trkpt lat="45.69218" lon="4.58422">
        <ele>684.8</ele>
        <time>2025-11-11T10:38:27Z</time>
      </trkpt>
      <trkpt lat="45.69229" lon="4.58421">
        <ele>683.6</ele>
        <time>2025-11-11T10:38:28Z</time>
      </trkpt>
      <trkpt lat="45.6924" lon="4.58421">
        <ele>682.4</ele>
        <time>2025-11-11T10:38:29Z</time>
      </trkpt>
      <trkpt lat="45.69251" lon="4.5842">
        <ele>681.2</ele>
        <time>2025-11-11T10:38:30Z</time>
      </trkpt>
      <trkpt lat="45.69262" lon="4.58418">
        <ele>680</ele>
        <time>2025-11-11T10:38:31Z</time>
      </trkpt>
      <trkpt lat="45.69273" lon="4.58416">
        <ele>679</ele>
        <time>2025-11-11T10:38:32Z</time>
      </trkpt>
      <trkpt lat="45.69284" lon="4.58412">
        <ele>678</ele>
        <time>2025-11-11T10:38:33Z</time>
      </trkpt>
      <trkpt lat="45.69295" lon="4.58407">
        <ele>677</ele>
        <time>2025-11-11T10:38:34Z</time>
      </trkpt>
      <trkpt lat="45.69306" lon="4.58403">
        <ele>676.2</ele>
        <time>2025-11-11T10:38:35Z</time>
      </trkpt>
      <trkpt lat="45.69317" lon="4.58398">
        <ele>675.2</ele>
        <time>2025-11-11T10:38:36Z</time>
      </trkpt>
      <trkpt lat="45.69328" lon="4.58393">
        <ele>674.2</ele>
        <time>2025-11-11T10:38:37Z</time>
      </trkpt>
      <trkpt lat="45.6934" lon="4.58388">
        <ele>673.2</ele>
        <time>2025-11-11T10:38:38Z</time>
      </trkpt>
      <trkpt lat="45.69351" lon="4.58383">
        <ele>672.2</ele>
        <time>2025-11-11T10:38:39Z</time>
      </trkpt>
      <trkpt lat="45.69363" lon="4.58378">
        <ele>671.2</ele>
        <time>2025-11-11T10:38:40Z</time>
      </trkpt>
      <trkpt lat="45.69375" lon="4.58373">
        <ele>670</ele>
        <time>2025-11-11T10:38:41Z</time>
      </trkpt>
      <trkpt lat="45.69386" lon="4.58368">
        <ele>669</ele>
        <time>2025-11-11T10:38:42Z</time>
      </trkpt>
      <trkpt lat="45.69398" lon="4.58364">
        <ele>667.8</ele>
        <time>2025-11-11T10:38:43Z</time>
      </trkpt>
      <trkpt lat="45.6941" lon="4.5836">
        <ele>666.8</ele>
        <time>2025-11-11T10:38:44Z</time>
      </trkpt>
      <trkpt lat="45.69422" lon="4.58357">
        <ele>665.8</ele>
        <time>2025-11-11T10:38:45Z</time>
      </trkpt>
      <trkpt lat="45.69433" lon="4.58353">
        <ele>664.8</ele>
        <time>2025-11-11T10:38:46Z</time>
      </trkpt>
      <trkpt lat="45.69445" lon="4.5835">
        <ele>664</ele>
        <time>2025-11-11T10:38:47Z</time>
      </trkpt>
      <trkpt lat="45.69455" lon="4.58347">
        <ele>663.4</ele>
        <time>2025-11-11T10:38:48Z</time>
      </trkpt>
      <trkpt lat="45.69464" lon="4.58344">
        <ele>663</ele>
        <time>2025-11-11T10:38:49Z</time>
      </trkpt>
      <trkpt lat="45.69472" lon="4.58342">
        <ele>662.8</ele>
        <time>2025-11-11T10:38:50Z</time>
      </trkpt>
      <trkpt lat="45.69479" lon="4.5834">
        <ele>663</ele>
        <time>2025-11-11T10:38:51Z</time>
      </trkpt>
      <trkpt lat="45.69484" lon="4.58338">
        <ele>663.4</ele>
        <time>2025-11-11T10:38:52Z</time>
      </trkpt>
      <trkpt lat="45.69488" lon="4.58336">
        <ele>663.6</ele>
        <time>2025-11-11T10:38:53Z</time>
      </trkpt>
      <trkpt lat="45.69491" lon="4.58332">
        <ele>663.8</ele>
        <time>2025-11-11T10:38:54Z</time>
      </trkpt>
      <trkpt lat="45.69491" lon="4.58329">
        <ele>664</ele>
        <time>2025-11-11T10:38:55Z</time>
      </trkpt>
      <trkpt lat="45.6949" lon="4.58325">
        <ele>664.2</ele>
        <time>2025-11-11T10:38:56Z</time>
      </trkpt>
      <trkpt lat="45.69488" lon="4.58321">
        <ele>664.2</ele>
        <time>2025-11-11T10:38:57Z</time>
      </trkpt>
      <trkpt lat="45.69486" lon="4.58317">
        <ele>664.2</ele>
        <time>2025-11-11T10:38:58Z</time>
      </trkpt>
      <trkpt lat="45.69483" lon="4.58312">
        <ele>664</ele>
        <time>2025-11-11T10:38:59Z</time>
      </trkpt>
      <trkpt lat="45.6948" lon="4.58308">
        <ele>663.6</ele>
        <time>2025-11-11T10:39:00Z</time>
      </trkpt>
      <trkpt lat="45.69476" lon="4.58304">
        <ele>663.2</ele>
        <time>2025-11-11T10:39:01Z</time>
      </trkpt>
      <trkpt lat="45.69471" lon="4.58301">
        <ele>663</ele>
        <time>2025-11-11T10:39:02Z</time>
      </trkpt>
      <trkpt lat="45.69467" lon="4.58298">
        <ele>662.6</ele>
        <time>2025-11-11T10:39:03Z</time>
      </trkpt>
      <trkpt lat="45.69462" lon="4.58295">
        <ele>662.2</ele>
        <time>2025-11-11T10:39:04Z</time>
      </trkpt>
      <trkpt lat="45.69457" lon="4.58292">
        <ele>662</ele>
        <time>2025-11-11T10:39:05Z</time>
      </trkpt>
      <trkpt lat="45.69452" lon="4.58289">
        <ele>661.6</ele>
        <time>2025-11-11T10:39:06Z</time>
      </trkpt>
      <trkpt lat="45.69447" lon="4.58285">
        <ele>661.2</ele>
        <time>2025-11-11T10:39:07Z</time>
      </trkpt>
      <trkpt lat="45.69442" lon="4.58282">
        <ele>660.6</ele>
        <time>2025-11-11T10:39:08Z</time>
      </trkpt>
      <trkpt lat="45.69436" lon="4.58279">
        <ele>660.2</ele>
        <time>2025-11-11T10:39:09Z</time>
      </trkpt>
      <trkpt lat="45.6943" lon="4.58277">
        <ele>659.8</ele>
        <time>2025-11-11T10:39:10Z</time>
      </trkpt>
      <trkpt lat="45.69425" lon="4.58275">
        <ele>659.6</ele>
        <time>2025-11-11T10:39:11Z</time>
      </trkpt>
      <trkpt lat="45.6942" lon="4.58273">
        <ele>659.2</ele>
        <time>2025-11-11T10:39:12Z</time>
      </trkpt>
      <trkpt lat="45.69416" lon="4.58272">
        <ele>659.2</ele>
        <time>2025-11-11T10:39:13Z</time>
      </trkpt>
      <trkpt lat="45.69414" lon="4.58269">
        <ele>659.2</ele>
        <time>2025-11-11T10:39:14Z</time>
      </trkpt>
      <trkpt lat="45.69414" lon="4.58265">
        <ele>659.2</ele>
        <time>2025-11-11T10:39:15Z</time>
      </trkpt>
      <trkpt lat="45.69416" lon="4.58261">
        <ele>659</ele>
        <time>2025-11-11T10:39:16Z</time>
      </trkpt>
      <trkpt lat="45.69418" lon="4.58257">
        <ele>659</ele>
        <time>2025-11-11T10:39:17Z</time>
      </trkpt>
      <trkpt lat="45.69421" lon="4.58252">
        <ele>658.6</ele>
        <time>2025-11-11T10:39:18Z</time>
      </trkpt>
      <trkpt lat="45.69425" lon="4.58248">
        <ele>658.2</ele>
        <time>2025-11-11T10:39:19Z</time>
      </trkpt>
      <trkpt lat="45.69429" lon="4.58244">
        <ele>657.6</ele>
        <time>2025-11-11T10:39:20Z</time>
      </trkpt>
      <trkpt lat="45.69434" lon="4.5824">
        <ele>657</ele>
        <time>2025-11-11T10:39:21Z</time>
      </trkpt>
      <trkpt lat="45.69439" lon="4.58237">
        <ele>656.4</ele>
        <time>2025-11-11T10:39:22Z</time>
      </trkpt>
      <trkpt lat="45.69444" lon="4.58233">
        <ele>656</ele>
        <time>2025-11-11T10:39:23Z</time>
      </trkpt>
      <trkpt lat="45.69449" lon="4.58229">
        <ele>655.4</ele>
        <time>2025-11-11T10:39:24Z</time>
      </trkpt>
      <trkpt lat="45.69454" lon="4.58225">
        <ele>655</ele>
        <time>2025-11-11T10:39:25Z</time>
      </trkpt>
      <trkpt lat="45.69459" lon="4.5822">
        <ele>654.4</ele>
        <time>2025-11-11T10:39:26Z</time>
      </trkpt>
      <trkpt lat="45.69464" lon="4.58216">
        <ele>654</ele>
        <time>2025-11-11T10:39:27Z</time>
      </trkpt>
      <trkpt lat="45.69469" lon="4.58212">
        <ele>653.6</ele>
        <time>2025-11-11T10:39:28Z</time>
      </trkpt>
      <trkpt lat="45.69473" lon="4.58208">
        <ele>653.4</ele>
        <time>2025-11-11T10:39:29Z</time>
      </trkpt>
      <trkpt lat="45.69477" lon="4.58204">
        <ele>653.2</ele>
        <time>2025-11-11T10:39:30Z</time>
      </trkpt>
      <trkpt lat="45.69481" lon="4.58199">
        <ele>652.8</ele>
        <time>2025-11-11T10:39:31Z</time>
      </trkpt>
      <trkpt lat="45.69484" lon="4.58195">
        <ele>652.6</ele>
        <time>2025-11-11T10:39:32Z</time>
      </trkpt>
      <trkpt lat="45.69488" lon="4.58191">
        <ele>652.4</ele>
        <time>2025-11-11T10:39:33Z</time>
      </trkpt>
      <trkpt lat="45.69491" lon="4.58187">
        <ele>652.4</ele>
        <time>2025-11-11T10:39:34Z</time>
      </trkpt>
      <trkpt lat="45.69495" lon="4.58184">
        <ele>652.2</ele>
        <time>2025-11-11T10:39:35Z</time>
      </trkpt>
      <trkpt lat="45.69498" lon="4.58181">
        <ele>652</ele>
        <time>2025-11-11T10:39:36Z</time>
      </trkpt>
      <trkpt lat="45.695" lon="4.58178">
        <ele>652</ele>
        <time>2025-11-11T10:39:37Z</time>
      </trkpt>
      <trkpt lat="45.69503" lon="4.58175">
        <ele>652</ele>
        <time>2025-11-11T10:39:38Z</time>
      </trkpt>
      <trkpt lat="45.69506" lon="4.58172">
        <ele>651.8</ele>
        <time>2025-11-11T10:39:39Z</time>
      </trkpt>
      <trkpt lat="45.6951" lon="4.5817">
        <ele>651.8</ele>
        <time>2025-11-11T10:39:40Z</time>
      </trkpt>
      <trkpt lat="45.69515" lon="4.58168">
        <ele>651.8</ele>
        <time>2025-11-11T10:39:41Z</time>
      </trkpt>
      <trkpt lat="45.69518" lon="4.58167">
        <ele>651.8</ele>
        <time>2025-11-11T10:39:42Z</time>
      </trkpt>
      <trkpt lat="45.69522" lon="4.58164">
        <ele>652</ele>
        <time>2025-11-11T10:39:43Z</time>
      </trkpt>
      <trkpt lat="45.69525" lon="4.58162">
        <ele>652</ele>
        <time>2025-11-11T10:39:44Z</time>
      </trkpt>
      <trkpt lat="45.69529" lon="4.58161">
        <ele>652</ele>
        <time>2025-11-11T10:39:45Z</time>
      </trkpt>
      <trkpt lat="45.69532" lon="4.5816">
        <ele>651.8</ele>
        <time>2025-11-11T10:39:46Z</time>
      </trkpt>
      <trkpt lat="45.69536" lon="4.58158">
        <ele>651</ele>
        <time>2025-11-11T10:39:47Z</time>
      </trkpt>
      <trkpt lat="45.69542" lon="4.58154">
        <ele>650.4</ele>
        <time>2025-11-11T10:39:48Z</time>
      </trkpt>
      <trkpt lat="45.69548" lon="4.58149">
        <ele>649</ele>
        <time>2025-11-11T10:39:49Z</time>
      </trkpt>
      <trkpt lat="45.69555" lon="4.58144">
        <ele>647.6</ele>
        <time>2025-11-11T10:39:50Z</time>
      </trkpt>
      <trkpt lat="45.69562" lon="4.58138">
        <ele>646.2</ele>
        <time>2025-11-11T10:39:51Z</time>
      </trkpt>
      <trkpt lat="45.69569" lon="4.58133">
        <ele>645</ele>
        <time>2025-11-11T10:39:52Z</time>
      </trkpt>
      <trkpt lat="45.69576" lon="4.58129">
        <ele>644.2</ele>
        <time>2025-11-11T10:39:53Z</time>
      </trkpt>
      <trkpt lat="45.69582" lon="4.58124">
        <ele>643.4</ele>
        <time>2025-11-11T10:39:54Z</time>
      </trkpt>
      <trkpt lat="45.69589" lon="4.58121">
        <ele>642.8</ele>
        <time>2025-11-11T10:39:55Z</time>
      </trkpt>
      <trkpt lat="45.69596" lon="4.58117">
        <ele>642.4</ele>
        <time>2025-11-11T10:39:56Z</time>
      </trkpt>
      <trkpt lat="45.69603" lon="4.58114">
        <ele>642.2</ele>
        <time>2025-11-11T10:39:57Z</time>
      </trkpt>
      <trkpt lat="45.6961" lon="4.58111">
        <ele>641.8</ele>
        <time>2025-11-11T10:39:58Z</time>
      </trkpt>
      <trkpt lat="45.69618" lon="4.58108">
        <ele>641.4</ele>
        <time>2025-11-11T10:39:59Z</time>
      </trkpt>
      <trkpt lat="45.69624" lon="4.58106">
        <ele>641</ele>
        <time>2025-11-11T10:40:00Z</time>
      </trkpt>
      <trkpt lat="45.69631" lon="4.58105">
        <ele>640.6</ele>
        <time>2025-11-11T10:40:01Z</time>
      </trkpt>
      <trkpt lat="45.69637" lon="4.58103">
        <ele>640.2</ele>
        <time>2025-11-11T10:40:02Z</time>
      </trkpt>
      <trkpt lat="45.69644" lon="4.58102">
        <ele>639.6</ele>
        <time>2025-11-11T10:40:03Z</time>
      </trkpt>
      <trkpt lat="45.69651" lon="4.58099">
        <ele>639.2</ele>
        <time>2025-11-11T10:40:04Z</time>
      </trkpt>
      <trkpt lat="45.69658" lon="4.58096">
        <ele>638.8</ele>
        <time>2025-11-11T10:40:05Z</time>
      </trkpt>
      <trkpt lat="45.69665" lon="4.58093">
        <ele>638.2</ele>
        <time>2025-11-11T10:40:06Z</time>
      </trkpt>
      <trkpt lat="45.69672" lon="4.58091">
        <ele>637.8</ele>
        <time>2025-11-11T10:40:07Z</time>
      </trkpt>
      <trkpt lat="45.69679" lon="4.58088">
        <ele>637.6</ele>
        <time>2025-11-11T10:40:08Z</time>
      </trkpt>
      <trkpt lat="45.69683" lon="4.58084">
        <ele>637.4</ele>
        <time>2025-11-11T10:40:09Z</time>
      </trkpt>
      <trkpt lat="45.69687" lon="4.5808">
        <ele>637.2</ele>
        <time>2025-11-11T10:40:10Z</time>
      </trkpt>
      <trkpt lat="45.6969" lon="4.58074">
        <ele>637</ele>
        <time>2025-11-11T10:40:11Z</time>
      </trkpt>
      <trkpt lat="45.69694" lon="4.5807">
        <ele>636.8</ele>
        <time>2025-11-11T10:40:12Z</time>
      </trkpt>
      <trkpt lat="45.69697" lon="4.58065">
        <ele>636.2</ele>
        <time>2025-11-11T10:40:13Z</time>
      </trkpt>
      <trkpt lat="45.697" lon="4.5806">
        <ele>636</ele>
        <time>2025-11-11T10:40:14Z</time>
      </trkpt>
      <trkpt lat="45.69704" lon="4.58057">
        <ele>635.6</ele>
        <time>2025-11-11T10:40:15Z</time>
      </trkpt>
      <trkpt lat="45.69708" lon="4.58057">
        <ele>635.6</ele>
        <time>2025-11-11T10:40:16Z</time>
      </trkpt>
      <trkpt lat="45.69714" lon="4.58056">
        <ele>635.4</ele>
        <time>2025-11-11T10:40:17Z</time>
      </trkpt>
      <trkpt lat="45.69719" lon="4.58057">
        <ele>635.6</ele>
        <time>2025-11-11T10:40:18Z</time>
      </trkpt>
      <trkpt lat="45.69723" lon="4.58061">
        <ele>635.6</ele>
        <time>2025-11-11T10:40:19Z</time>
      </trkpt>
      <trkpt lat="45.69727" lon="4.58067">
        <ele>635.4</ele>
        <time>2025-11-11T10:40:20Z</time>
      </trkpt>
      <trkpt lat="45.6973" lon="4.58073">
        <ele>635.2</ele>
        <time>2025-11-11T10:40:21Z</time>
      </trkpt>
      <trkpt lat="45.69734" lon="4.58078">
        <ele>634.8</ele>
        <time>2025-11-11T10:40:22Z</time>
      </trkpt>
      <trkpt lat="45.69738" lon="4.58084">
        <ele>634.6</ele>
        <time>2025-11-11T10:40:23Z</time>
      </trkpt>
      <trkpt lat="45.6974" lon="4.58085">
        <ele>634.4</ele>
        <time>2025-11-11T10:40:24Z</time>
      </trkpt>
      <trkpt lat="45.69742" lon="4.58087">
        <ele>634.2</ele>
        <time>2025-11-11T10:40:25Z</time>
      </trkpt>
      <trkpt lat="45.69743" lon="4.58089">
        <ele>634.2</ele>
        <time>2025-11-11T10:40:26Z</time>
      </trkpt>
      <trkpt lat="45.69745" lon="4.58089">
        <ele>634.4</ele>
        <time>2025-11-11T10:40:27Z</time>
      </trkpt>
      <trkpt lat="45.69747" lon="4.58091">
        <ele>634.8</ele>
        <time>2025-11-11T10:40:28Z</time>
      </trkpt>
      <trkpt lat="45.69749" lon="4.58093">
        <ele>634.8</ele>
        <time>2025-11-11T10:40:29Z</time>
      </trkpt>
      <trkpt lat="45.6975" lon="4.58096">
        <ele>635.2</ele>
        <time>2025-11-11T10:40:30Z</time>
      </trkpt>
      <trkpt lat="45.69751" lon="4.58097">
        <ele>635.4</ele>
        <time>2025-11-11T10:40:31Z</time>
      </trkpt>
      <trkpt lat="45.69753" lon="4.58098">
        <ele>635.8</ele>
        <time>2025-11-11T10:40:32Z</time>
      </trkpt>
      <trkpt lat="45.69755" lon="4.58098">
        <ele>636</ele>
        <time>2025-11-11T10:40:33Z</time>
      </trkpt>
      <trkpt lat="45.69756" lon="4.58099">
        <ele>636.4</ele>
        <time>2025-11-11T10:40:34Z</time>
      </trkpt>
      <trkpt lat="45.69758" lon="4.581">
        <ele>636.6</ele>
        <time>2025-11-11T10:40:35Z</time>
      </trkpt>
      <trkpt lat="45.69759" lon="4.581">
        <ele>637</ele>
        <time>2025-11-11T10:40:36Z</time>
      </trkpt>
      <trkpt lat="45.69759" lon="4.58101">
        <ele>637.4</ele>
        <time>2025-11-11T10:40:37Z</time>
      </trkpt>
      <trkpt lat="45.69759" lon="4.58101">
        <ele>637.6</ele>
        <time>2025-11-11T10:40:38Z</time>
      </trkpt>
      <trkpt lat="45.69759" lon="4.58101">
        <ele>637.8</ele>
        <time>2025-11-11T10:40:39Z</time>
      </trkpt>
      <trkpt lat="45.69759" lon="4.58101">
        <ele>638</ele>
        <time>2025-11-11T10:40:40Z</time>
      </trkpt>
      <trkpt lat="45.69759" lon="4.58101">
        <ele>638.2</ele>
        <time>2025-11-11T10:40:41Z</time>
      </trkpt>
      <trkpt lat="45.69759" lon="4.58101">
        <ele>638.2</ele>
        <time>2025-11-11T10:40:42Z</time>
      </trkpt>
      <trkpt lat="45.69759" lon="4.58101">
        <ele>638.2</ele>
        <time>2025-11-11T10:40:43Z</time>
      </trkpt>
      <trkpt lat="45.69759" lon="4.58101">
        <ele>638.2</ele>
        <time>2025-11-11T10:40:44Z</time>
      </trkpt>
      <trkpt lat="45.69759" lon="4.58101">
        <ele>638.2</ele>
        <time>2025-11-11T10:40:45Z</time>
      </trkpt>
      <trkpt lat="45.6976" lon="4.58102">
        <ele>638.2</ele>
        <time>2025-11-11T10:40:46Z</time>
      </trkpt>
      <trkpt lat="45.69762" lon="4.58104">
        <ele>638.2</ele>
        <time>2025-11-11T10:40:47Z</time>
      </trkpt>
      <trkpt lat="45.69763" lon="4.58106">
        <ele>638.4</ele>
        <time>2025-11-11T10:40:48Z</time>
      </trkpt>
      <trkpt lat="45.69765" lon="4.58107">
        <ele>638.6</ele>
        <time>2025-11-11T10:40:49Z</time>
      </trkpt>
      <trkpt lat="45.69767" lon="4.58108">
        <ele>638.8</ele>
        <time>2025-11-11T10:40:50Z</time>
      </trkpt>
      <trkpt lat="45.6977" lon="4.58109">
        <ele>639.2</ele>
        <time>2025-11-11T10:40:51Z</time>
      </trkpt>
      <trkpt lat="45.69772" lon="4.5811">
        <ele>639.4</ele>
        <time>2025-11-11T10:40:52Z</time>
      </trkpt>
      <trkpt lat="45.69775" lon="4.58112">
        <ele>639.8</ele>
        <time>2025-11-11T10:40:53Z</time>
      </trkpt>
      <trkpt lat="45.69778" lon="4.58112">
        <ele>640.2</ele>
        <time>2025-11-11T10:40:54Z</time>
      </trkpt>
      <trkpt lat="45.69781" lon="4.58112">
        <ele>640.4</ele>
        <time>2025-11-11T10:40:55Z</time>
      </trkpt>
      <trkpt lat="45.69784" lon="4.58111">
        <ele>640.8</ele>
        <time>2025-11-11T10:40:56Z</time>
      </trkpt>
      <trkpt lat="45.69787" lon="4.5811">
        <ele>641.2</ele>
        <time>2025-11-11T10:40:57Z</time>
      </trkpt>
      <trkpt lat="45.69789" lon="4.58108">
        <ele>641.6</ele>
        <time>2025-11-11T10:40:58Z</time>
      </trkpt>
      <trkpt lat="45.69792" lon="4.58105">
        <ele>642</ele>
        <time>2025-11-11T10:40:59Z</time>
      </trkpt>
      <trkpt lat="45.69794" lon="4.58104">
        <ele>642.2</ele>
        <time>2025-11-11T10:41:00Z</time>
      </trkpt>
      <trkpt lat="45.69797" lon="4.58101">
        <ele>642.6</ele>
        <time>2025-11-11T10:41:01Z</time>
      </trkpt>
      <trkpt lat="45.69799" lon="4.58099">
        <ele>642.8</ele>
        <time>2025-11-11T10:41:02Z</time>
      </trkpt>
      <trkpt lat="45.69801" lon="4.58096">
        <ele>643.2</ele>
        <time>2025-11-11T10:41:03Z</time>
      </trkpt>
      <trkpt lat="45.69804" lon="4.58093">
        <ele>643.4</ele>
        <time>2025-11-11T10:41:04Z</time>
      </trkpt>
      <trkpt lat="45.69807" lon="4.58089">
        <ele>643.6</ele>
        <time>2025-11-11T10:41:05Z</time>
      </trkpt>
      <trkpt lat="45.69809" lon="4.58086">
        <ele>643.8</ele>
        <time>2025-11-11T10:41:06Z</time>
      </trkpt>
      <trkpt lat="45.69812" lon="4.58084">
        <ele>644.2</ele>
        <time>2025-11-11T10:41:07Z</time>
      </trkpt>
      <trkpt lat="45.69814" lon="4.58081">
        <ele>644.4</ele>
        <time>2025-11-11T10:41:08Z</time>
      </trkpt>
      <trkpt lat="45.69817" lon="4.58077">
        <ele>644.6</ele>
        <time>2025-11-11T10:41:09Z</time>
      </trkpt>
      <trkpt lat="45.69819" lon="4.58073">
        <ele>645</ele>
        <time>2025-11-11T10:41:10Z</time>
      </trkpt>
      <trkpt lat="45.69821" lon="4.58068">
        <ele>645.2</ele>
        <time>2025-11-11T10:41:11Z</time>
      </trkpt>
      <trkpt lat="45.69824" lon="4.58064">
        <ele>645.4</ele>
        <time>2025-11-11T10:41:12Z</time>
      </trkpt>
      <trkpt lat="45.69827" lon="4.58057">
        <ele>645.6</ele>
        <time>2025-11-11T10:41:13Z</time>
      </trkpt>
      <trkpt lat="45.69829" lon="4.58053">
        <ele>645.8</ele>
        <time>2025-11-11T10:41:14Z</time>
      </trkpt>
      <trkpt lat="45.69831" lon="4.5805">
        <ele>646</ele>
        <time>2025-11-11T10:41:15Z</time>
      </trkpt>
      <trkpt lat="45.69833" lon="4.58047">
        <ele>646.2</ele>
        <time>2025-11-11T10:41:16Z</time>
      </trkpt>
      <trkpt lat="45.69836" lon="4.58044">
        <ele>646.2</ele>
        <time>2025-11-11T10:41:17Z</time>
      </trkpt>
      <trkpt lat="45.69839" lon="4.58041">
        <ele>646.2</ele>
        <time>2025-11-11T10:41:18Z</time>
      </trkpt>
      <trkpt lat="45.69843" lon="4.58036">
        <ele>645.8</ele>
        <time>2025-11-11T10:41:19Z</time>
      </trkpt>
      <trkpt lat="45.69845" lon="4.58031">
        <ele>645.4</ele>
        <time>2025-11-11T10:41:20Z</time>
      </trkpt>
      <trkpt lat="45.69848" lon="4.58025">
        <ele>644.6</ele>
        <time>2025-11-11T10:41:21Z</time>
      </trkpt>
      <trkpt lat="45.69852" lon="4.58017">
        <ele>643.8</ele>
        <time>2025-11-11T10:41:22Z</time>
      </trkpt>
      <trkpt lat="45.69857" lon="4.5801">
        <ele>642.8</ele>
        <time>2025-11-11T10:41:23Z</time>
      </trkpt>
      <trkpt lat="45.69863" lon="4.58">
        <ele>641.6</ele>
        <time>2025-11-11T10:41:24Z</time>
      </trkpt>
      <trkpt lat="45.69867" lon="4.57993">
        <ele>640.4</ele>
        <time>2025-11-11T10:41:25Z</time>
      </trkpt>
      <trkpt lat="45.69872" lon="4.57984">
        <ele>639</ele>
        <time>2025-11-11T10:41:26Z</time>
      </trkpt>
      <trkpt lat="45.69877" lon="4.57973">
        <ele>637.8</ele>
        <time>2025-11-11T10:41:27Z</time>
      </trkpt>
      <trkpt lat="45.69881" lon="4.57963">
        <ele>636.4</ele>
        <time>2025-11-11T10:41:28Z</time>
      </trkpt>
      <trkpt lat="45.69885" lon="4.57955">
        <ele>635.2</ele>
        <time>2025-11-11T10:41:29Z</time>
      </trkpt>
      <trkpt lat="45.6989" lon="4.57942">
        <ele>634</ele>
        <time>2025-11-11T10:41:30Z</time>
      </trkpt>
      <trkpt lat="45.69895" lon="4.57932">
        <ele>633.2</ele>
        <time>2025-11-11T10:41:31Z</time>
      </trkpt>
      <trkpt lat="45.69898" lon="4.57922">
        <ele>632.6</ele>
        <time>2025-11-11T10:41:32Z</time>
      </trkpt>
      <trkpt lat="45.69901" lon="4.57913">
        <ele>632.2</ele>
        <time>2025-11-11T10:41:33Z</time>
      </trkpt>
      <trkpt lat="45.69902" lon="4.57906">
        <ele>632.2</ele>
        <time>2025-11-11T10:41:34Z</time>
      </trkpt>
      <trkpt lat="45.69906" lon="4.57898">
        <ele>632</ele>
        <time>2025-11-11T10:41:35Z</time>
      </trkpt>
      <trkpt lat="45.69909" lon="4.57891">
        <ele>632</ele>
        <time>2025-11-11T10:41:36Z</time>
      </trkpt>
      <trkpt lat="45.69912" lon="4.57885">
        <ele>632</ele>
        <time>2025-11-11T10:41:37Z</time>
      </trkpt>
      <trkpt lat="45.69914" lon="4.57879">
        <ele>632</ele>
        <time>2025-11-11T10:41:38Z</time>
      </trkpt>
      <trkpt lat="45.69916" lon="4.57873">
        <ele>632</ele>
        <time>2025-11-11T10:41:39Z</time>
      </trkpt>
      <trkpt lat="45.69918" lon="4.57868">
        <ele>632</ele>
        <time>2025-11-11T10:41:40Z</time>
      </trkpt>
      <trkpt lat="45.6992" lon="4.57863">
        <ele>632</ele>
        <time>2025-11-11T10:41:41Z</time>
      </trkpt>
      <trkpt lat="45.69922" lon="4.57859">
        <ele>632</ele>
        <time>2025-11-11T10:41:42Z</time>
      </trkpt>
      <trkpt lat="45.69924" lon="4.57854">
        <ele>632</ele>
        <time>2025-11-11T10:41:43Z</time>
      </trkpt>
      <trkpt lat="45.69925" lon="4.57847">
        <ele>632</ele>
        <time>2025-11-11T10:41:44Z</time>
      </trkpt>
      <trkpt lat="45.69926" lon="4.57841">
        <ele>631.8</ele>
        <time>2025-11-11T10:41:45Z</time>
      </trkpt>
      <trkpt lat="45.69926" lon="4.57835">
        <ele>631.8</ele>
        <time>2025-11-11T10:41:46Z</time>
      </trkpt>
      <trkpt lat="45.69927" lon="4.57828">
        <ele>631.8</ele>
        <time>2025-11-11T10:41:47Z</time>
      </trkpt>
      <trkpt lat="45.69928" lon="4.5782">
        <ele>631.8</ele>
        <time>2025-11-11T10:41:48Z</time>
      </trkpt>
      <trkpt lat="45.69929" lon="4.57813">
        <ele>631.8</ele>
        <time>2025-11-11T10:41:49Z</time>
      </trkpt>
      <trkpt lat="45.69932" lon="4.57807">
        <ele>632</ele>
        <time>2025-11-11T10:41:50Z</time>
      </trkpt>
      <trkpt lat="45.69935" lon="4.57802">
        <ele>632</ele>
        <time>2025-11-11T10:41:51Z</time>
      </trkpt>
      <trkpt lat="45.69938" lon="4.57798">
        <ele>632</ele>
        <time>2025-11-11T10:41:52Z</time>
      </trkpt>
      <trkpt lat="45.69941" lon="4.57792">
        <ele>632</ele>
        <time>2025-11-11T10:41:53Z</time>
      </trkpt>
      <trkpt lat="45.69944" lon="4.57787">
        <ele>632</ele>
        <time>2025-11-11T10:41:54Z</time>
      </trkpt>
      <trkpt lat="45.69947" lon="4.5778">
        <ele>632</ele>
        <time>2025-11-11T10:41:55Z</time>
      </trkpt>
      <trkpt lat="45.6995" lon="4.57774">
        <ele>632</ele>
        <time>2025-11-11T10:41:56Z</time>
      </trkpt>
      <trkpt lat="45.69952" lon="4.57767">
        <ele>632</ele>
        <time>2025-11-11T10:41:57Z</time>
      </trkpt>
      <trkpt lat="45.69954" lon="4.57761">
        <ele>632</ele>
        <time>2025-11-11T10:41:58Z</time>
      </trkpt>
      <trkpt lat="45.69956" lon="4.57754">
        <ele>632.2</ele>
        <time>2025-11-11T10:41:59Z</time>
      </trkpt>
      <trkpt lat="45.69957" lon="4.57747">
        <ele>632.2</ele>
        <time>2025-11-11T10:42:00Z</time>
      </trkpt>
      <trkpt lat="45.69959" lon="4.57741">
        <ele>632.6</ele>
        <time>2025-11-11T10:42:01Z</time>
      </trkpt>
      <trkpt lat="45.6996" lon="4.57734">
        <ele>632.8</ele>
        <time>2025-11-11T10:42:02Z</time>
      </trkpt>
      <trkpt lat="45.69962" lon="4.57728">
        <ele>633.2</ele>
        <time>2025-11-11T10:42:03Z</time>
      </trkpt>
      <trkpt lat="45.69964" lon="4.57722">
        <ele>633.4</ele>
        <time>2025-11-11T10:42:04Z</time>
      </trkpt>
      <trkpt lat="45.69964" lon="4.57716">
        <ele>633.8</ele>
        <time>2025-11-11T10:42:05Z</time>
      </trkpt>
      <trkpt lat="45.69965" lon="4.57711">
        <ele>634.2</ele>
        <time>2025-11-11T10:42:06Z</time>
      </trkpt>
      <trkpt lat="45.69966" lon="4.57706">
        <ele>634.4</ele>
        <time>2025-11-11T10:42:07Z</time>
      </trkpt>
      <trkpt lat="45.69967" lon="4.577">
        <ele>634.6</ele>
        <time>2025-11-11T10:42:08Z</time>
      </trkpt>
      <trkpt lat="45.69968" lon="4.57694">
        <ele>634.4</ele>
        <time>2025-11-11T10:42:09Z</time>
      </trkpt>
      <trkpt lat="45.69971" lon="4.57689">
        <ele>634</ele>
        <time>2025-11-11T10:42:10Z</time>
      </trkpt>
      <trkpt lat="45.69975" lon="4.57684">
        <ele>633.6</ele>
        <time>2025-11-11T10:42:11Z</time>
      </trkpt>
      <trkpt lat="45.6998" lon="4.5768">
        <ele>633</ele>
        <time>2025-11-11T10:42:12Z</time>
      </trkpt>
      <trkpt lat="45.69983" lon="4.57675">
        <ele>632.4</ele>
        <time>2025-11-11T10:42:13Z</time>
      </trkpt>
      <trkpt lat="45.69986" lon="4.5767">
        <ele>632</ele>
        <time>2025-11-11T10:42:14Z</time>
      </trkpt>
      <trkpt lat="45.69989" lon="4.57666">
        <ele>631.8</ele>
        <time>2025-11-11T10:42:15Z</time>
      </trkpt>
      <trkpt lat="45.69993" lon="4.57663">
        <ele>631.6</ele>
        <time>2025-11-11T10:42:16Z</time>
      </trkpt>
      <trkpt lat="45.69997" lon="4.57662">
        <ele>631.8</ele>
        <time>2025-11-11T10:42:17Z</time>
      </trkpt>
      <trkpt lat="45.7" lon="4.57664">
        <ele>631.8</ele>
        <time>2025-11-11T10:42:18Z</time>
      </trkpt>
      <trkpt lat="45.70003" lon="4.57665">
        <ele>632</ele>
        <time>2025-11-11T10:42:19Z</time>
      </trkpt>
      <trkpt lat="45.70005" lon="4.57668">
        <ele>632.4</ele>
        <time>2025-11-11T10:42:20Z</time>
      </trkpt>
      <trkpt lat="45.70006" lon="4.57671">
        <ele>632.8</ele>
        <time>2025-11-11T10:42:21Z</time>
      </trkpt>
      <trkpt lat="45.70008" lon="4.57675">
        <ele>633.4</ele>
        <time>2025-11-11T10:42:22Z</time>
      </trkpt>
      <trkpt lat="45.7001" lon="4.57679">
        <ele>633.8</ele>
        <time>2025-11-11T10:42:23Z</time>
      </trkpt>
      <trkpt lat="45.70012" lon="4.57683">
        <ele>634.2</ele>
        <time>2025-11-11T10:42:24Z</time>
      </trkpt>
      <trkpt lat="45.70013" lon="4.57687">
        <ele>634.8</ele>
        <time>2025-11-11T10:42:25Z</time>
      </trkpt>
      <trkpt lat="45.70014" lon="4.57691">
        <ele>635.2</ele>
        <time>2025-11-11T10:42:26Z</time>
      </trkpt>
      <trkpt lat="45.70014" lon="4.57696">
        <ele>635.6</ele>
        <time>2025-11-11T10:42:27Z</time>
      </trkpt>
      <trkpt lat="45.70015" lon="4.577">
        <ele>636</ele>
        <time>2025-11-11T10:42:28Z</time>
      </trkpt>
      <trkpt lat="45.70016" lon="4.57704">
        <ele>636.4</ele>
        <time>2025-11-11T10:42:29Z</time>
      </trkpt>
      <trkpt lat="45.70018" lon="4.57708">
        <ele>636.8</ele>
        <time>2025-11-11T10:42:30Z</time>
      </trkpt>
      <trkpt lat="45.70019" lon="4.57711">
        <ele>637</ele>
        <time>2025-11-11T10:42:31Z</time>
      </trkpt>
      <trkpt lat="45.7002" lon="4.57716">
        <ele>637.4</ele>
        <time>2025-11-11T10:42:32Z</time>
      </trkpt>
      <trkpt lat="45.7002" lon="4.5772">
        <ele>637.6</ele>
        <time>2025-11-11T10:42:33Z</time>
      </trkpt>
      <trkpt lat="45.70021" lon="4.57724">
        <ele>638</ele>
        <time>2025-11-11T10:42:34Z</time>
      </trkpt>
      <trkpt lat="45.70022" lon="4.57728">
        <ele>638.4</ele>
        <time>2025-11-11T10:42:35Z</time>
      </trkpt>
      <trkpt lat="45.70023" lon="4.57732">
        <ele>638.8</ele>
        <time>2025-11-11T10:42:36Z</time>
      </trkpt>
      <trkpt lat="45.70023" lon="4.57737">
        <ele>639.2</ele>
        <time>2025-11-11T10:42:37Z</time>
      </trkpt>
      <trkpt lat="45.70023" lon="4.57741">
        <ele>639.6</ele>
        <time>2025-11-11T10:42:38Z</time>
      </trkpt>
      <trkpt lat="45.70024" lon="4.57745">
        <ele>640</ele>
        <time>2025-11-11T10:42:39Z</time>
      </trkpt>
      <trkpt lat="45.70025" lon="4.57749">
        <ele>640.4</ele>
        <time>2025-11-11T10:42:40Z</time>
      </trkpt>
      <trkpt lat="45.70025" lon="4.57752">
        <ele>640.8</ele>
        <time>2025-11-11T10:42:41Z</time>
      </trkpt>
      <trkpt lat="45.70026" lon="4.57756">
        <ele>641.2</ele>
        <time>2025-11-11T10:42:42Z</time>
      </trkpt>
      <trkpt lat="45.70027" lon="4.57759">
        <ele>641.6</ele>
        <time>2025-11-11T10:42:43Z</time>
      </trkpt>
      <trkpt lat="45.70028" lon="4.57763">
        <ele>642</ele>
        <time>2025-11-11T10:42:44Z</time>
      </trkpt>
      <trkpt lat="45.70028" lon="4.57767">
        <ele>642.4</ele>
        <time>2025-11-11T10:42:45Z</time>
      </trkpt>
      <trkpt lat="45.70029" lon="4.57771">
        <ele>642.8</ele>
        <time>2025-11-11T10:42:46Z</time>
      </trkpt>
      <trkpt lat="45.7003" lon="4.57775">
        <ele>643.2</ele>
        <time>2025-11-11T10:42:47Z</time>
      </trkpt>
      <trkpt lat="45.7003" lon="4.57778">
        <ele>643.6</ele>
        <time>2025-11-11T10:42:48Z</time>
      </trkpt>
      <trkpt lat="45.70031" lon="4.57781">
        <ele>644</ele>
        <time>2025-11-11T10:42:49Z</time>
      </trkpt>
      <trkpt lat="45.70032" lon="4.57785">
        <ele>644.4</ele>
        <time>2025-11-11T10:42:50Z</time>
      </trkpt>
      <trkpt lat="45.70033" lon="4.57788">
        <ele>644.8</ele>
        <time>2025-11-11T10:42:51Z</time>
      </trkpt>
      <trkpt lat="45.70034" lon="4.57791">
        <ele>645.2</ele>
        <time>2025-11-11T10:42:52Z</time>
      </trkpt>
      <trkpt lat="45.70035" lon="4.57794">
        <ele>645.6</ele>
        <time>2025-11-11T10:42:53Z</time>
      </trkpt>
      <trkpt lat="45.70036" lon="4.57797">
        <ele>646</ele>
        <time>2025-11-11T10:42:54Z</time>
      </trkpt>
      <trkpt lat="45.70037" lon="4.578">
        <ele>646.4</ele>
        <time>2025-11-11T10:42:55Z</time>
      </trkpt>
      <trkpt lat="45.70038" lon="4.57802">
        <ele>646.8</ele>
        <time>2025-11-11T10:42:56Z</time>
      </trkpt>
      <trkpt lat="45.70039" lon="4.57805">
        <ele>647.4</ele>
        <time>2025-11-11T10:42:57Z</time>
      </trkpt>
      <trkpt lat="45.70041" lon="4.57807">
        <ele>647.8</ele>
        <time>2025-11-11T10:42:58Z</time>
      </trkpt>
      <trkpt lat="45.70042" lon="4.57808">
        <ele>648</ele>
        <time>2025-11-11T10:42:59Z</time>
      </trkpt>
      <trkpt lat="45.70043" lon="4.57809">
        <ele>648.4</ele>
        <time>2025-11-11T10:43:00Z</time>
      </trkpt>
      <trkpt lat="45.70044" lon="4.57809">
        <ele>648.6</ele>
        <time>2025-11-11T10:43:01Z</time>
      </trkpt>
      <trkpt lat="45.70045" lon="4.57809">
        <ele>648.8</ele>
        <time>2025-11-11T10:43:02Z</time>
      </trkpt>
      <trkpt lat="45.70045" lon="4.57809">
        <ele>649</ele>
        <time>2025-11-11T10:43:03Z</time>
      </trkpt>
      <trkpt lat="45.70045" lon="4.57809">
        <ele>649</ele>
        <time>2025-11-11T10:43:04Z</time>
      </trkpt>
      <trkpt lat="45.70045" lon="4.57809">
        <ele>649</ele>
        <time>2025-11-11T10:43:05Z</time>
      </trkpt>
      <trkpt lat="45.70045" lon="4.57809">
        <ele>649</ele>
        <time>2025-11-11T10:43:06Z</time>
      </trkpt>
      <trkpt lat="45.70045" lon="4.57809">
        <ele>649</ele>
        <time>2025-11-11T10:43:07Z</time>
      </trkpt>
      <trkpt lat="45.70045" lon="4.57809">
        <ele>649</ele>
        <time>2025-11-11T10:43:08Z</time>
      </trkpt>
      <trkpt lat="45.70045" lon="4.57809">
        <ele>649</ele>
        <time>2025-11-11T10:43:09Z</time>
      </trkpt>
      <trkpt lat="45.70045" lon="4.57809">
        <ele>649</ele>
        <time>2025-11-11T10:43:10Z</time>
      </trkpt>
      <trkpt lat="45.70045" lon="4.57809">
        <ele>649</ele>
        <time>2025-11-11T10:43:11Z</time>
      </trkpt>
      <trkpt lat="45.70045" lon="4.57809">
        <ele>649</ele>
        <time>2025-11-11T10:43:12Z</time>
      </trkpt>
      <trkpt lat="45.70045" lon="4.57809">
        <ele>649</ele>
        <time>2025-11-11T10:43:13Z</time>
      </trkpt>
      <trkpt lat="45.70045" lon="4.57809">
        <ele>649</ele>
        <time>2025-11-11T10:43:14Z</time>
      </trkpt>
      <trkpt lat="45.70045" lon="4.57809">
        <ele>649</ele>
        <time>2025-11-11T10:43:15Z</time>
      </trkpt>
      <trkpt lat="45.70045" lon="4.57809">
        <ele>649</ele>
        <time>2025-11-11T10:43:16Z</time>
      </trkpt>
      <trkpt lat="45.70045" lon="4.57809">
        <ele>649</ele>
        <time>2025-11-11T10:43:17Z</time>
      </trkpt>
      <trkpt lat="45.70045" lon="4.57809">
        <ele>649</ele>
        <time>2025-11-11T10:43:18Z</time>
      </trkpt>
      <trkpt lat="45.70045" lon="4.57809">
        <ele>649</ele>
        <time>2025-11-11T10:43:19Z</time>
      </trkpt>
      <trkpt lat="45.70045" lon="4.57809">
        <ele>649</ele>
        <time>2025-11-11T10:43:20Z</time>
      </trkpt>
      <trkpt lat="45.70045" lon="4.57809">
        <ele>648.8</ele>
        <time>2025-11-11T10:43:21Z</time>
      </trkpt>
      <trkpt lat="45.70045" lon="4.57809">
        <ele>648.8</ele>
        <time>2025-11-11T10:43:22Z</time>
      </trkpt>
      <trkpt lat="45.70045" lon="4.57809">
        <ele>648.8</ele>
        <time>2025-11-11T10:43:23Z</time>
      </trkpt>
      <trkpt lat="45.70045" lon="4.57809">
        <ele>648.8</ele>
        <time>2025-11-11T10:43:24Z</time>
      </trkpt>
      <trkpt lat="45.70045" lon="4.57809">
        <ele>648.8</ele>
        <time>2025-11-11T10:43:25Z</time>
      </trkpt>
      <trkpt lat="45.70045" lon="4.57809">
        <ele>648.8</ele>
        <time>2025-11-11T10:43:26Z</time>
      </trkpt>
      <trkpt lat="45.70045" lon="4.57809">
        <ele>648.8</ele>
        <time>2025-11-11T10:43:27Z</time>
      </trkpt>
      <trkpt lat="45.70045" lon="4.57809">
        <ele>648.8</ele>
        <time>2025-11-11T10:43:28Z</time>
      </trkpt>
      <trkpt lat="45.70045" lon="4.57809">
        <ele>648.8</ele>
        <time>2025-11-11T10:43:29Z</time>
      </trkpt>
      <trkpt lat="45.70045" lon="4.57809">
        <ele>648.8</ele>
        <time>2025-11-11T10:43:30Z</time>
      </trkpt>
      <trkpt lat="45.70045" lon="4.57809">
        <ele>648.8</ele>
        <time>2025-11-11T10:43:31Z</time>
      </trkpt>
      <trkpt lat="45.70045" lon="4.57809">
        <ele>648.8</ele>
        <time>2025-11-11T10:43:32Z</time>
      </trkpt>
      <trkpt lat="45.70045" lon="4.57809">
        <ele>648.8</ele>
        <time>2025-11-11T10:43:33Z</time>
      </trkpt>
      <trkpt lat="45.70045" lon="4.57809">
        <ele>648.8</ele>
        <time>2025-11-11T10:43:34Z</time>
      </trkpt>
      <trkpt lat="45.70045" lon="4.57809">
        <ele>648.8</ele>
        <time>2025-11-11T10:43:35Z</time>
      </trkpt>
      <trkpt lat="45.70045" lon="4.57809">
        <ele>648.8</ele>
        <time>2025-11-11T10:43:36Z</time>
      </trkpt>
      <trkpt lat="45.70045" lon="4.57809">
        <ele>648.8</ele>
        <time>2025-11-11T10:43:37Z</time>
      </trkpt>
      <trkpt lat="45.70045" lon="4.57809">
        <ele>648.6</ele>
        <time>2025-11-11T10:43:38Z</time>
      </trkpt>
      <trkpt lat="45.70045" lon="4.57809">
        <ele>648.6</ele>
        <time>2025-11-11T10:43:39Z</time>
      </trkpt>
      <trkpt lat="45.70045" lon="4.57809">
        <ele>648.6</ele>
        <time>2025-11-11T10:43:40Z</time>
      </trkpt>
      <trkpt lat="45.70045" lon="4.57809">
        <ele>648.6</ele>
        <time>2025-11-11T10:43:41Z</time>
      </trkpt>
      <trkpt lat="45.70045" lon="4.57809">
        <ele>648.6</ele>
        <time>2025-11-11T10:43:42Z</time>
      </trkpt>
      <trkpt lat="45.70045" lon="4.57809">
        <ele>648.6</ele>
        <time>2025-11-11T10:43:43Z</time>
      </trkpt>
      <trkpt lat="45.70045" lon="4.57809">
        <ele>648.6</ele>
        <time>2025-11-11T10:43:44Z</time>
      </trkpt>
      <trkpt lat="45.70045" lon="4.57809">
        <ele>648.6</ele>
        <time>2025-11-11T10:43:45Z</time>
      </trkpt>
      <trkpt lat="45.70045" lon="4.57809">
        <ele>648.6</ele>
        <time>2025-11-11T10:43:46Z</time>
      </trkpt>
      <trkpt lat="45.70045" lon="4.57809">
        <ele>648.6</ele>
        <time>2025-11-11T10:43:47Z</time>
      </trkpt>
      <trkpt lat="45.70045" lon="4.57809">
        <ele>648.6</ele>
        <time>2025-11-11T10:43:48Z</time>
      </trkpt>
      <trkpt lat="45.70045" lon="4.57809">
        <ele>648.6</ele>
        <time>2025-11-11T10:43:49Z</time>
      </trkpt>
      <trkpt lat="45.70045" lon="4.57809">
        <ele>648.6</ele>
        <time>2025-11-11T10:43:50Z</time>
      </trkpt>
      <trkpt lat="45.70045" lon="4.57809">
        <ele>648.6</ele>
        <time>2025-11-11T10:43:51Z</time>
      </trkpt>
      <trkpt lat="45.70045" lon="4.57809">
        <ele>648.6</ele>
        <time>2025-11-11T10:43:52Z</time>
      </trkpt>
      <trkpt lat="45.70045" lon="4.57809">
        <ele>648.6</ele>
        <time>2025-11-11T10:43:53Z</time>
      </trkpt>
      <trkpt lat="45.70045" lon="4.57809">
        <ele>648.4</ele>
        <time>2025-11-11T10:43:54Z</time>
      </trkpt>
      <trkpt lat="45.70045" lon="4.57809">
        <ele>648.4</ele>
        <time>2025-11-11T10:43:55Z</time>
      </trkpt>
      <trkpt lat="45.70045" lon="4.57809">
        <ele>648.4</ele>
        <time>2025-11-11T10:43:56Z</time>
      </trkpt>
      <trkpt lat="45.70045" lon="4.57809">
        <ele>648.4</ele>
        <time>2025-11-11T10:43:57Z</time>
      </trkpt>
      <trkpt lat="45.70045" lon="4.57809">
        <ele>648.4</ele>
        <time>2025-11-11T10:43:58Z</time>
      </trkpt>
      <trkpt lat="45.70045" lon="4.57809">
        <ele>648.4</ele>
        <time>2025-11-11T10:43:59Z</time>
      </trkpt>
      <trkpt lat="45.70045" lon="4.57809">
        <ele>648.4</ele>
        <time>2025-11-11T10:44:00Z</time>
      </trkpt>
      <trkpt lat="45.70045" lon="4.57809">
        <ele>648.4</ele>
        <time>2025-11-11T10:44:01Z</time>
      </trkpt>
      <trkpt lat="45.70045" lon="4.57809">
        <ele>648.4</ele>
        <time>2025-11-11T10:44:02Z</time>
      </trkpt>
      <trkpt lat="45.70045" lon="4.57809">
        <ele>648.4</ele>
        <time>2025-11-11T10:44:03Z</time>
      </trkpt>
      <trkpt lat="45.70045" lon="4.57809">
        <ele>648.4</ele>
        <time>2025-11-11T10:44:04Z</time>
      </trkpt>
      <trkpt lat="45.70045" lon="4.57809">
        <ele>648.4</ele>
        <time>2025-11-11T10:44:05Z</time>
      </trkpt>
      <trkpt lat="45.70045" lon="4.57809">
        <ele>648.4</ele>
        <time>2025-11-11T10:44:06Z</time>
      </trkpt>
      <trkpt lat="45.70045" lon="4.57809">
        <ele>648.4</ele>
        <time>2025-11-11T10:44:07Z</time>
      </trkpt>
      <trkpt lat="45.70045" lon="4.57809">
        <ele>648.4</ele>
        <time>2025-11-11T10:44:08Z</time>
      </trkpt>
      <trkpt lat="45.70045" lon="4.57809">
        <ele>648.4</ele>
        <time>2025-11-11T10:44:09Z</time>
      </trkpt>
      <trkpt lat="45.70045" lon="4.57809">
        <ele>648.4</ele>
        <time>2025-11-11T10:44:10Z</time>
      </trkpt>
      <trkpt lat="45.70045" lon="4.57809">
        <ele>648.4</ele>
        <time>2025-11-11T10:44:11Z</time>
      </trkpt>
      <trkpt lat="45.70045" lon="4.57809">
        <ele>648.2</ele>
        <time>2025-11-11T10:44:12Z</time>
      </trkpt>
      <trkpt lat="45.70045" lon="4.57809">
        <ele>648.2</ele>
        <time>2025-11-11T10:44:13Z</time>
      </trkpt>
      <trkpt lat="45.70045" lon="4.57809">
        <ele>648.2</ele>
        <time>2025-11-11T10:44:14Z</time>
      </trkpt>
      <trkpt lat="45.70045" lon="4.57809">
        <ele>648.2</ele>
        <time>2025-11-11T10:44:15Z</time>
      </trkpt>
      <trkpt lat="45.70045" lon="4.57809">
        <ele>648.2</ele>
        <time>2025-11-11T10:44:16Z</time>
      </trkpt>
      <trkpt lat="45.70045" lon="4.57809">
        <ele>648.2</ele>
        <time>2025-11-11T10:44:17Z</time>
      </trkpt>
      <trkpt lat="45.70045" lon="4.57809">
        <ele>648.2</ele>
        <time>2025-11-11T10:44:18Z</time>
      </trkpt>
      <trkpt lat="45.70045" lon="4.57809">
        <ele>648.2</ele>
        <time>2025-11-11T10:44:19Z</time>
      </trkpt>
      <trkpt lat="45.70045" lon="4.57809">
        <ele>648.2</ele>
        <time>2025-11-11T10:44:20Z</time>
      </trkpt>
      <trkpt lat="45.70045" lon="4.57809">
        <ele>648.2</ele>
        <time>2025-11-11T10:44:21Z</time>
      </trkpt>
      <trkpt lat="45.70045" lon="4.57809">
        <ele>648.2</ele>
        <time>2025-11-11T10:44:22Z</time>
      </trkpt>
      <trkpt lat="45.70045" lon="4.57809">
        <ele>648.2</ele>
        <time>2025-11-11T10:44:23Z</time>
      </trkpt>
      <trkpt lat="45.70045" lon="4.57809">
        <ele>648.2</ele>
        <time>2025-11-11T10:44:24Z</time>
      </trkpt>
      <trkpt lat="45.70045" lon="4.57809">
        <ele>648.2</ele>
        <time>2025-11-11T10:44:25Z</time>
      </trkpt>
      <trkpt lat="45.70045" lon="4.57809">
        <ele>648.2</ele>
        <time>2025-11-11T10:44:26Z</time>
      </trkpt>
      <trkpt lat="45.70045" lon="4.57809">
        <ele>648.2</ele>
        <time>2025-11-11T10:44:27Z</time>
      </trkpt>
      <trkpt lat="45.70045" lon="4.57809">
        <ele>648.2</ele>
        <time>2025-11-11T10:44:28Z</time>
      </trkpt>
      <trkpt lat="45.70045" lon="4.57809">
        <ele>648.2</ele>
        <time>2025-11-11T10:44:29Z</time>
      </trkpt>
      <trkpt lat="45.70045" lon="4.57809">
        <ele>648.2</ele>
        <time>2025-11-11T10:44:30Z</time>
      </trkpt>
      <trkpt lat="45.70045" lon="4.57809">
        <ele>648</ele>
        <time>2025-11-11T10:44:31Z</time>
      </trkpt>
      <trkpt lat="45.70045" lon="4.57809">
        <ele>648</ele>
        <time>2025-11-11T10:44:32Z</time>
      </trkpt>
      <trkpt lat="45.70045" lon="4.57809">
        <ele>648</ele>
        <time>2025-11-11T10:44:33Z</time>
      </trkpt>
      <trkpt lat="45.70045" lon="4.57809">
        <ele>648</ele>
        <time>2025-11-11T10:44:34Z</time>
      </trkpt>
      <trkpt lat="45.70045" lon="4.57809">
        <ele>648</ele>
        <time>2025-11-11T10:44:35Z</time>
      </trkpt>
      <trkpt lat="45.70045" lon="4.57809">
        <ele>648</ele>
        <time>2025-11-11T10:44:36Z</time>
      </trkpt>
      <trkpt lat="45.70045" lon="4.57809">
        <ele>648</ele>
        <time>2025-11-11T10:44:37Z</time>
      </trkpt>
      <trkpt lat="45.70045" lon="4.57809">
        <ele>648</ele>
        <time>2025-11-11T10:44:38Z</time>
      </trkpt>
      <trkpt lat="45.70045" lon="4.57809">
        <ele>648</ele>
        <time>2025-11-11T10:44:39Z</time>
      </trkpt>
      <trkpt lat="45.70045" lon="4.57809">
        <ele>648</ele>
        <time>2025-11-11T10:44:40Z</time>
      </trkpt>
      <trkpt lat="45.70045" lon="4.57809">
        <ele>648</ele>
        <time>2025-11-11T10:44:41Z</time>
      </trkpt>
      <trkpt lat="45.70045" lon="4.57809">
        <ele>648</ele>
        <time>2025-11-11T10:44:42Z</time>
      </trkpt>
      <trkpt lat="45.70045" lon="4.57809">
        <ele>648</ele>
        <time>2025-11-11T10:44:43Z</time>
      </trkpt>
      <trkpt lat="45.70045" lon="4.57809">
        <ele>648</ele>
        <time>2025-11-11T10:44:44Z</time>
      </trkpt>
      <trkpt lat="45.70045" lon="4.57809">
        <ele>648</ele>
        <time>2025-11-11T10:44:45Z</time>
      </trkpt>
      <trkpt lat="45.70045" lon="4.57809">
        <ele>648</ele>
        <time>2025-11-11T10:44:46Z</time>
      </trkpt>
      <trkpt lat="45.70045" lon="4.57809">
        <ele>648</ele>
        <time>2025-11-11T10:44:47Z</time>
      </trkpt>
      <trkpt lat="45.70047" lon="4.57808">
        <ele>648</ele>
        <time>2025-11-11T10:44:48Z</time>
      </trkpt>
      <trkpt lat="45.70049" lon="4.57808">
        <ele>648</ele>
        <time>2025-11-11T10:44:49Z</time>
      </trkpt>
      <trkpt lat="45.70052" lon="4.5781">
        <ele>647.8</ele>
        <time>2025-11-11T10:44:50Z</time>
      </trkpt>
      <trkpt lat="45.70054" lon="4.57814">
        <ele>647.6</ele>
        <time>2025-11-11T10:44:51Z</time>
      </trkpt>
      <trkpt lat="45.70057" lon="4.57818">
        <ele>647.6</ele>
        <time>2025-11-11T10:44:52Z</time>
      </trkpt>
      <trkpt lat="45.70059" lon="4.57822">
        <ele>647.6</ele>
        <time>2025-11-11T10:44:53Z</time>
      </trkpt>
      <trkpt lat="45.70061" lon="4.57826">
        <ele>647.6</ele>
        <time>2025-11-11T10:44:54Z</time>
      </trkpt>
      <trkpt lat="45.70063" lon="4.5783">
        <ele>647.6</ele>
        <time>2025-11-11T10:44:55Z</time>
      </trkpt>
      <trkpt lat="45.70064" lon="4.57834">
        <ele>647.8</ele>
        <time>2025-11-11T10:44:56Z</time>
      </trkpt>
      <trkpt lat="45.70066" lon="4.57839">
        <ele>648</ele>
        <time>2025-11-11T10:44:57Z</time>
      </trkpt>
      <trkpt lat="45.70069" lon="4.57844">
        <ele>648</ele>
        <time>2025-11-11T10:44:58Z</time>
      </trkpt>
      <trkpt lat="45.70071" lon="4.57849">
        <ele>648.2</ele>
        <time>2025-11-11T10:44:59Z</time>
      </trkpt>
      <trkpt lat="45.70073" lon="4.57855">
        <ele>648.2</ele>
        <time>2025-11-11T10:45:00Z</time>
      </trkpt>
      <trkpt lat="45.70075" lon="4.57861">
        <ele>648.4</ele>
        <time>2025-11-11T10:45:01Z</time>
      </trkpt>
      <trkpt lat="45.70076" lon="4.57868">
        <ele>648.4</ele>
        <time>2025-11-11T10:45:02Z</time>
      </trkpt>
      <trkpt lat="45.70078" lon="4.57874">
        <ele>648.6</ele>
        <time>2025-11-11T10:45:03Z</time>
      </trkpt>
      <trkpt lat="45.7008" lon="4.5788">
        <ele>648.8</ele>
        <time>2025-11-11T10:45:04Z</time>
      </trkpt>
      <trkpt lat="45.70081" lon="4.57886">
        <ele>649.2</ele>
        <time>2025-11-11T10:45:05Z</time>
      </trkpt>
      <trkpt lat="45.70083" lon="4.57891">
        <ele>649.4</ele>
        <time>2025-11-11T10:45:06Z</time>
      </trkpt>
      <trkpt lat="45.70085" lon="4.57897">
        <ele>649.6</ele>
        <time>2025-11-11T10:45:07Z</time>
      </trkpt>
      <trkpt lat="45.70087" lon="4.57903">
        <ele>650</ele>
        <time>2025-11-11T10:45:08Z</time>
      </trkpt>
      <trkpt lat="45.70088" lon="4.57909">
        <ele>650.2</ele>
        <time>2025-11-11T10:45:09Z</time>
      </trkpt>
      <trkpt lat="45.7009" lon="4.57916">
        <ele>650.4</ele>
        <time>2025-11-11T10:45:10Z</time>
      </trkpt>
      <trkpt lat="45.70092" lon="4.57922">
        <ele>650.6</ele>
        <time>2025-11-11T10:45:11Z</time>
      </trkpt>
      <trkpt lat="45.70094" lon="4.57928">
        <ele>650.8</ele>
        <time>2025-11-11T10:45:12Z</time>
      </trkpt>
      <trkpt lat="45.70095" lon="4.57934">
        <ele>651</ele>
        <time>2025-11-11T10:45:13Z</time>
      </trkpt>
      <trkpt lat="45.70097" lon="4.5794">
        <ele>651.2</ele>
        <time>2025-11-11T10:45:14Z</time>
      </trkpt>
      <trkpt lat="45.70099" lon="4.57946">
        <ele>651.4</ele>
        <time>2025-11-11T10:45:15Z</time>
      </trkpt>
      <trkpt lat="45.701" lon="4.57952">
        <ele>651.8</ele>
        <time>2025-11-11T10:45:16Z</time>
      </trkpt>
      <trkpt lat="45.70102" lon="4.57958">
        <ele>652</ele>
        <time>2025-11-11T10:45:17Z</time>
      </trkpt>
      <trkpt lat="45.70103" lon="4.57964">
        <ele>652.2</ele>
        <time>2025-11-11T10:45:18Z</time>
      </trkpt>
      <trkpt lat="45.70104" lon="4.57969">
        <ele>652.4</ele>
        <time>2025-11-11T10:45:19Z</time>
      </trkpt>
      <trkpt lat="45.70106" lon="4.57974">
        <ele>652.8</ele>
        <time>2025-11-11T10:45:20Z</time>
      </trkpt>
      <trkpt lat="45.70107" lon="4.5798">
        <ele>653</ele>
        <time>2025-11-11T10:45:21Z</time>
      </trkpt>
      <trkpt lat="45.70108" lon="4.57984">
        <ele>653.4</ele>
        <time>2025-11-11T10:45:22Z</time>
      </trkpt>
      <trkpt lat="45.70109" lon="4.57988">
        <ele>653.6</ele>
        <time>2025-11-11T10:45:23Z</time>
      </trkpt>
      <trkpt lat="45.7011" lon="4.57992">
        <ele>654</ele>
        <time>2025-11-11T10:45:24Z</time>
      </trkpt>
      <trkpt lat="45.70111" lon="4.57995">
        <ele>654.4</ele>
        <time>2025-11-11T10:45:25Z</time>
      </trkpt>
      <trkpt lat="45.70112" lon="4.57998">
        <ele>654.8</ele>
        <time>2025-11-11T10:45:26Z</time>
      </trkpt>
      <trkpt lat="45.70113" lon="4.58001">
        <ele>655.2</ele>
        <time>2025-11-11T10:45:27Z</time>
      </trkpt>
      <trkpt lat="45.70113" lon="4.58002">
        <ele>655.6</ele>
        <time>2025-11-11T10:45:28Z</time>
      </trkpt>
      <trkpt lat="45.70112" lon="4.58004">
        <ele>655.8</ele>
        <time>2025-11-11T10:45:29Z</time>
      </trkpt>
      <trkpt lat="45.70111" lon="4.58005">
        <ele>656</ele>
        <time>2025-11-11T10:45:30Z</time>
      </trkpt>
      <trkpt lat="45.7011" lon="4.58006">
        <ele>656.2</ele>
        <time>2025-11-11T10:45:31Z</time>
      </trkpt>
      <trkpt lat="45.70109" lon="4.58008">
        <ele>656.4</ele>
        <time>2025-11-11T10:45:32Z</time>
      </trkpt>
      <trkpt lat="45.70108" lon="4.5801">
        <ele>656.6</ele>
        <time>2025-11-11T10:45:33Z</time>
      </trkpt>
      <trkpt lat="45.70107" lon="4.58012">
        <ele>656.8</ele>
        <time>2025-11-11T10:45:34Z</time>
      </trkpt>
      <trkpt lat="45.70107" lon="4.58012">
        <ele>656.8</ele>
        <time>2025-11-11T10:45:35Z</time>
      </trkpt>
      <trkpt lat="45.70107" lon="4.58013">
        <ele>657</ele>
        <time>2025-11-11T10:45:36Z</time>
      </trkpt>
      <trkpt lat="45.70107" lon="4.58014">
        <ele>657</ele>
        <time>2025-11-11T10:45:37Z</time>
      </trkpt>
      <trkpt lat="45.70107" lon="4.58014">
        <ele>657.2</ele>
        <time>2025-11-11T10:45:38Z</time>
      </trkpt>
      <trkpt lat="45.70107" lon="4.58014">
        <ele>657.2</ele>
        <time>2025-11-11T10:45:39Z</time>
      </trkpt>
      <trkpt lat="45.70108" lon="4.58015">
        <ele>657.4</ele>
        <time>2025-11-11T10:45:40Z</time>
      </trkpt>
      <trkpt lat="45.70108" lon="4.58015">
        <ele>657.4</ele>
        <time>2025-11-11T10:45:41Z</time>
      </trkpt>
      <trkpt lat="45.7011" lon="4.58016">
        <ele>657.4</ele>
        <time>2025-11-11T10:45:42Z</time>
      </trkpt>
      <trkpt lat="45.70111" lon="4.58016">
        <ele>657.4</ele>
        <time>2025-11-11T10:45:43Z</time>
      </trkpt>
      <trkpt lat="45.70114" lon="4.58018">
        <ele>657</ele>
        <time>2025-11-11T10:45:44Z</time>
      </trkpt>
      <trkpt lat="45.70117" lon="4.58021">
        <ele>656.8</ele>
        <time>2025-11-11T10:45:45Z</time>
      </trkpt>
      <trkpt lat="45.70119" lon="4.58026">
        <ele>656.6</ele>
        <time>2025-11-11T10:45:46Z</time>
      </trkpt>
      <trkpt lat="45.70121" lon="4.58031">
        <ele>656.4</ele>
        <time>2025-11-11T10:45:47Z</time>
      </trkpt>
      <trkpt lat="45.70122" lon="4.58037">
        <ele>656.2</ele>
        <time>2025-11-11T10:45:48Z</time>
      </trkpt>
      <trkpt lat="45.70123" lon="4.58043">
        <ele>656.2</ele>
        <time>2025-11-11T10:45:49Z</time>
      </trkpt>
      <trkpt lat="45.70125" lon="4.58049">
        <ele>656.2</ele>
        <time>2025-11-11T10:45:50Z</time>
      </trkpt>
      <trkpt lat="45.70127" lon="4.58054">
        <ele>656.2</ele>
        <time>2025-11-11T10:45:51Z</time>
      </trkpt>
      <trkpt lat="45.70128" lon="4.5806">
        <ele>656.2</ele>
        <time>2025-11-11T10:45:52Z</time>
      </trkpt>
      <trkpt lat="45.70129" lon="4.58065">
        <ele>656.2</ele>
        <time>2025-11-11T10:45:53Z</time>
      </trkpt>
      <trkpt lat="45.7013" lon="4.58071">
        <ele>656</ele>
        <time>2025-11-11T10:45:54Z</time>
      </trkpt>
      <trkpt lat="45.70132" lon="4.58076">
        <ele>656</ele>
        <time>2025-11-11T10:45:55Z</time>
      </trkpt>
      <trkpt lat="45.70133" lon="4.58083">
        <ele>655.8</ele>
        <time>2025-11-11T10:45:56Z</time>
      </trkpt>
      <trkpt lat="45.70135" lon="4.5809">
        <ele>655.4</ele>
        <time>2025-11-11T10:45:57Z</time>
      </trkpt>
      <trkpt lat="45.70136" lon="4.58097">
        <ele>655</ele>
        <time>2025-11-11T10:45:58Z</time>
      </trkpt>
      <trkpt lat="45.70138" lon="4.58105">
        <ele>654.6</ele>
        <time>2025-11-11T10:45:59Z</time>
      </trkpt>
      <trkpt lat="45.70139" lon="4.58113">
        <ele>654.2</ele>
        <time>2025-11-11T10:46:00Z</time>
      </trkpt>
      <trkpt lat="45.70138" lon="4.58121">
        <ele>653.8</ele>
        <time>2025-11-11T10:46:01Z</time>
      </trkpt>
      <trkpt lat="45.70138" lon="4.58128">
        <ele>653.6</ele>
        <time>2025-11-11T10:46:02Z</time>
      </trkpt>
      <trkpt lat="45.70137" lon="4.58135">
        <ele>653.6</ele>
        <time>2025-11-11T10:46:03Z</time>
      </trkpt>
      <trkpt lat="45.70136" lon="4.58141">
        <ele>653.6</ele>
        <time>2025-11-11T10:46:04Z</time>
      </trkpt>
      <trkpt lat="45.70135" lon="4.58148">
        <ele>654</ele>
        <time>2025-11-11T10:46:05Z</time>
      </trkpt>
      <trkpt lat="45.70134" lon="4.58154">
        <ele>654.2</ele>
        <time>2025-11-11T10:46:06Z</time>
      </trkpt>
      <trkpt lat="45.70134" lon="4.58159">
        <ele>654.4</ele>
        <time>2025-11-11T10:46:07Z</time>
      </trkpt>
      <trkpt lat="45.70133" lon="4.58165">
        <ele>654.8</ele>
        <time>2025-11-11T10:46:08Z</time>
      </trkpt>
      <trkpt lat="45.70132" lon="4.58171">
        <ele>655</ele>
        <time>2025-11-11T10:46:09Z</time>
      </trkpt>
      <trkpt lat="45.70132" lon="4.58176">
        <ele>655.4</ele>
        <time>2025-11-11T10:46:10Z</time>
      </trkpt>
      <trkpt lat="45.70131" lon="4.58181">
        <ele>655.8</ele>
        <time>2025-11-11T10:46:11Z</time>
      </trkpt>
      <trkpt lat="45.7013" lon="4.58185">
        <ele>656.2</ele>
        <time>2025-11-11T10:46:12Z</time>
      </trkpt>
      <trkpt lat="45.7013" lon="4.5819">
        <ele>656.4</ele>
        <time>2025-11-11T10:46:13Z</time>
      </trkpt>
      <trkpt lat="45.7013" lon="4.58196">
        <ele>656.8</ele>
        <time>2025-11-11T10:46:14Z</time>
      </trkpt>
      <trkpt lat="45.7013" lon="4.58201">
        <ele>657.4</ele>
        <time>2025-11-11T10:46:15Z</time>
      </trkpt>
      <trkpt lat="45.7013" lon="4.58205">
        <ele>657.8</ele>
        <time>2025-11-11T10:46:16Z</time>
      </trkpt>
      <trkpt lat="45.7013" lon="4.5821">
        <ele>658.2</ele>
        <time>2025-11-11T10:46:17Z</time>
      </trkpt>
      <trkpt lat="45.7013" lon="4.58214">
        <ele>658.8</ele>
        <time>2025-11-11T10:46:18Z</time>
      </trkpt>
      <trkpt lat="45.7013" lon="4.58219">
        <ele>659.2</ele>
        <time>2025-11-11T10:46:19Z</time>
      </trkpt>
      <trkpt lat="45.7013" lon="4.58223">
        <ele>659.6</ele>
        <time>2025-11-11T10:46:20Z</time>
      </trkpt>
      <trkpt lat="45.7013" lon="4.58228">
        <ele>660</ele>
        <time>2025-11-11T10:46:21Z</time>
      </trkpt>
      <trkpt lat="45.7013" lon="4.58232">
        <ele>660.4</ele>
        <time>2025-11-11T10:46:22Z</time>
      </trkpt>
      <trkpt lat="45.70131" lon="4.58237">
        <ele>660.8</ele>
        <time>2025-11-11T10:46:23Z</time>
      </trkpt>
      <trkpt lat="45.70131" lon="4.58242">
        <ele>661.2</ele>
        <time>2025-11-11T10:46:24Z</time>
      </trkpt>
      <trkpt lat="45.70132" lon="4.58246">
        <ele>661.6</ele>
        <time>2025-11-11T10:46:25Z</time>
      </trkpt>
      <trkpt lat="45.70133" lon="4.5825">
        <ele>662</ele>
        <time>2025-11-11T10:46:26Z</time>
      </trkpt>
      <trkpt lat="45.70134" lon="4.58254">
        <ele>662.2</ele>
        <time>2025-11-11T10:46:27Z</time>
      </trkpt>
      <trkpt lat="45.70135" lon="4.58258">
        <ele>662.6</ele>
        <time>2025-11-11T10:46:28Z</time>
      </trkpt>
      <trkpt lat="45.70136" lon="4.58262">
        <ele>662.8</ele>
        <time>2025-11-11T10:46:29Z</time>
      </trkpt>
      <trkpt lat="45.70137" lon="4.58265">
        <ele>663.2</ele>
        <time>2025-11-11T10:46:30Z</time>
      </trkpt>
      <trkpt lat="45.70138" lon="4.58269">
        <ele>663.6</ele>
        <time>2025-11-11T10:46:31Z</time>
      </trkpt>
      <trkpt lat="45.70139" lon="4.58272">
        <ele>664</ele>
        <time>2025-11-11T10:46:32Z</time>
      </trkpt>
      <trkpt lat="45.7014" lon="4.58276">
        <ele>664.4</ele>
        <time>2025-11-11T10:46:33Z</time>
      </trkpt>
      <trkpt lat="45.70141" lon="4.5828">
        <ele>664.8</ele>
        <time>2025-11-11T10:46:34Z</time>
      </trkpt>
      <trkpt lat="45.70142" lon="4.58285">
        <ele>665.2</ele>
        <time>2025-11-11T10:46:35Z</time>
      </trkpt>
      <trkpt lat="45.70143" lon="4.58289">
        <ele>665.4</ele>
        <time>2025-11-11T10:46:36Z</time>
      </trkpt>
      <trkpt lat="45.70145" lon="4.58293">
        <ele>665.8</ele>
        <time>2025-11-11T10:46:37Z</time>
      </trkpt>
      <trkpt lat="45.70146" lon="4.58297">
        <ele>666.2</ele>
        <time>2025-11-11T10:46:38Z</time>
      </trkpt>
      <trkpt lat="45.70147" lon="4.58301">
        <ele>666.4</ele>
        <time>2025-11-11T10:46:39Z</time>
      </trkpt>
      <trkpt lat="45.70148" lon="4.58305">
        <ele>666.8</ele>
        <time>2025-11-11T10:46:40Z</time>
      </trkpt>
      <trkpt lat="45.70149" lon="4.58309">
        <ele>667</ele>
        <time>2025-11-11T10:46:41Z</time>
      </trkpt>
      <trkpt lat="45.7015" lon="4.58313">
        <ele>667.2</ele>
        <time>2025-11-11T10:46:42Z</time>
      </trkpt>
      <trkpt lat="45.70152" lon="4.58317">
        <ele>667.4</ele>
        <time>2025-11-11T10:46:43Z</time>
      </trkpt>
      <trkpt lat="45.70153" lon="4.58321">
        <ele>667.8</ele>
        <time>2025-11-11T10:46:44Z</time>
      </trkpt>
      <trkpt lat="45.70155" lon="4.58325">
        <ele>668</ele>
        <time>2025-11-11T10:46:45Z</time>
      </trkpt>
      <trkpt lat="45.70157" lon="4.58329">
        <ele>668</ele>
        <time>2025-11-11T10:46:46Z</time>
      </trkpt>
      <trkpt lat="45.70158" lon="4.58333">
        <ele>668.2</ele>
        <time>2025-11-11T10:46:47Z</time>
      </trkpt>
      <trkpt lat="45.70159" lon="4.58337">
        <ele>668.4</ele>
        <time>2025-11-11T10:46:48Z</time>
      </trkpt>
      <trkpt lat="45.70161" lon="4.5834">
        <ele>668.6</ele>
        <time>2025-11-11T10:46:49Z</time>
      </trkpt>
      <trkpt lat="45.70163" lon="4.58344">
        <ele>668.8</ele>
        <time>2025-11-11T10:46:50Z</time>
      </trkpt>
      <trkpt lat="45.70164" lon="4.58347">
        <ele>669.2</ele>
        <time>2025-11-11T10:46:51Z</time>
      </trkpt>
      <trkpt lat="45.70166" lon="4.58351">
        <ele>669.4</ele>
        <time>2025-11-11T10:46:52Z</time>
      </trkpt>
      <trkpt lat="45.70168" lon="4.58355">
        <ele>669.8</ele>
        <time>2025-11-11T10:46:53Z</time>
      </trkpt>
      <trkpt lat="45.7017" lon="4.58358">
        <ele>670</ele>
        <time>2025-11-11T10:46:54Z</time>
      </trkpt>
      <trkpt lat="45.70172" lon="4.58362">
        <ele>670.2</ele>
        <time>2025-11-11T10:46:55Z</time>
      </trkpt>
      <trkpt lat="45.70174" lon="4.58365">
        <ele>670.6</ele>
        <time>2025-11-11T10:46:56Z</time>
      </trkpt>
      <trkpt lat="45.70176" lon="4.58369">
        <ele>670.8</ele>
        <time>2025-11-11T10:46:57Z</time>
      </trkpt>
      <trkpt lat="45.70178" lon="4.58372">
        <ele>671</ele>
        <time>2025-11-11T10:46:58Z</time>
      </trkpt>
      <trkpt lat="45.7018" lon="4.58375">
        <ele>671.4</ele>
        <time>2025-11-11T10:46:59Z</time>
      </trkpt>
      <trkpt lat="45.70183" lon="4.58378">
        <ele>671.6</ele>
        <time>2025-11-11T10:47:00Z</time>
      </trkpt>
      <trkpt lat="45.70185" lon="4.58381">
        <ele>672</ele>
        <time>2025-11-11T10:47:01Z</time>
      </trkpt>
      <trkpt lat="45.70187" lon="4.58385">
        <ele>672.4</ele>
        <time>2025-11-11T10:47:02Z</time>
      </trkpt>
      <trkpt lat="45.70189" lon="4.58388">
        <ele>672.6</ele>
        <time>2025-11-11T10:47:03Z</time>
      </trkpt>
      <trkpt lat="45.70191" lon="4.58391">
        <ele>673</ele>
        <time>2025-11-11T10:47:04Z</time>
      </trkpt>
      <trkpt lat="45.70194" lon="4.58394">
        <ele>673.4</ele>
        <time>2025-11-11T10:47:05Z</time>
      </trkpt>
      <trkpt lat="45.70196" lon="4.58397">
        <ele>673.6</ele>
        <time>2025-11-11T10:47:06Z</time>
      </trkpt>
      <trkpt lat="45.70198" lon="4.584">
        <ele>674</ele>
        <time>2025-11-11T10:47:07Z</time>
      </trkpt>
      <trkpt lat="45.702" lon="4.58403">
        <ele>674.2</ele>
        <time>2025-11-11T10:47:08Z</time>
      </trkpt>
      <trkpt lat="45.70203" lon="4.58405">
        <ele>674.6</ele>
        <time>2025-11-11T10:47:09Z</time>
      </trkpt>
      <trkpt lat="45.70205" lon="4.58408">
        <ele>674.8</ele>
        <time>2025-11-11T10:47:10Z</time>
      </trkpt>
      <trkpt lat="45.70207" lon="4.58412">
        <ele>675.2</ele>
        <time>2025-11-11T10:47:11Z</time>
      </trkpt>
      <trkpt lat="45.70209" lon="4.58414">
        <ele>675.4</ele>
        <time>2025-11-11T10:47:12Z</time>
      </trkpt>
      <trkpt lat="45.70212" lon="4.58418">
        <ele>675.6</ele>
        <time>2025-11-11T10:47:13Z</time>
      </trkpt>
      <trkpt lat="45.70214" lon="4.58421">
        <ele>675.8</ele>
        <time>2025-11-11T10:47:14Z</time>
      </trkpt>
      <trkpt lat="45.70216" lon="4.58424">
        <ele>676</ele>
        <time>2025-11-11T10:47:15Z</time>
      </trkpt>
      <trkpt lat="45.70218" lon="4.58428">
        <ele>676.4</ele>
        <time>2025-11-11T10:47:16Z</time>
      </trkpt>
      <trkpt lat="45.7022" lon="4.58431">
        <ele>676.6</ele>
        <time>2025-11-11T10:47:17Z</time>
      </trkpt>
      <trkpt lat="45.70221" lon="4.58435">
        <ele>676.8</ele>
        <time>2025-11-11T10:47:18Z</time>
      </trkpt>
      <trkpt lat="45.70223" lon="4.58439">
        <ele>677.2</ele>
        <time>2025-11-11T10:47:19Z</time>
      </trkpt>
      <trkpt lat="45.70225" lon="4.58442">
        <ele>677.6</ele>
        <time>2025-11-11T10:47:20Z</time>
      </trkpt>
      <trkpt lat="45.70226" lon="4.58446">
        <ele>677.8</ele>
        <time>2025-11-11T10:47:21Z</time>
      </trkpt>
      <trkpt lat="45.70227" lon="4.58449">
        <ele>678.2</ele>
        <time>2025-11-11T10:47:22Z</time>
      </trkpt>
      <trkpt lat="45.70228" lon="4.58452">
        <ele>678.6</ele>
        <time>2025-11-11T10:47:23Z</time>
      </trkpt>
      <trkpt lat="45.70229" lon="4.58456">
        <ele>679</ele>
        <time>2025-11-11T10:47:24Z</time>
      </trkpt>
      <trkpt lat="45.70231" lon="4.58459">
        <ele>679.2</ele>
        <time>2025-11-11T10:47:25Z</time>
      </trkpt>
      <trkpt lat="45.70232" lon="4.58462">
        <ele>679.6</ele>
        <time>2025-11-11T10:47:26Z</time>
      </trkpt>
      <trkpt lat="45.70234" lon="4.58466">
        <ele>679.8</ele>
        <time>2025-11-11T10:47:27Z</time>
      </trkpt>
      <trkpt lat="45.70235" lon="4.58469">
        <ele>680.2</ele>
        <time>2025-11-11T10:47:28Z</time>
      </trkpt>
      <trkpt lat="45.70236" lon="4.58471">
        <ele>680.4</ele>
        <time>2025-11-11T10:47:29Z</time>
      </trkpt>
      <trkpt lat="45.70237" lon="4.58474">
        <ele>680.8</ele>
        <time>2025-11-11T10:47:30Z</time>
      </trkpt>
      <trkpt lat="45.70239" lon="4.58477">
        <ele>681.2</ele>
        <time>2025-11-11T10:47:31Z</time>
      </trkpt>
      <trkpt lat="45.7024" lon="4.5848">
        <ele>681.6</ele>
        <time>2025-11-11T10:47:32Z</time>
      </trkpt>
      <trkpt lat="45.70241" lon="4.58482">
        <ele>682</ele>
        <time>2025-11-11T10:47:33Z</time>
      </trkpt>
      <trkpt lat="45.70243" lon="4.58484">
        <ele>682.4</ele>
        <time>2025-11-11T10:47:34Z</time>
      </trkpt>
      <trkpt lat="45.70244" lon="4.58487">
        <ele>682.8</ele>
        <time>2025-11-11T10:47:35Z</time>
      </trkpt>
      <trkpt lat="45.70246" lon="4.58489">
        <ele>683</ele>
        <time>2025-11-11T10:47:36Z</time>
      </trkpt>
      <trkpt lat="45.70247" lon="4.58491">
        <ele>683.4</ele>
        <time>2025-11-11T10:47:37Z</time>
      </trkpt>
      <trkpt lat="45.70249" lon="4.58493">
        <ele>683.8</ele>
        <time>2025-11-11T10:47:38Z</time>
      </trkpt>
      <trkpt lat="45.70251" lon="4.58495">
        <ele>684</ele>
        <time>2025-11-11T10:47:39Z</time>
      </trkpt>
      <trkpt lat="45.70253" lon="4.58498">
        <ele>684.4</ele>
        <time>2025-11-11T10:47:40Z</time>
      </trkpt>
      <trkpt lat="45.70255" lon="4.585">
        <ele>684.6</ele>
        <time>2025-11-11T10:47:41Z</time>
      </trkpt>
      <trkpt lat="45.70258" lon="4.58502">
        <ele>684.8</ele>
        <time>2025-11-11T10:47:42Z</time>
      </trkpt>
      <trkpt lat="45.7026" lon="4.58504">
        <ele>685</ele>
        <time>2025-11-11T10:47:43Z</time>
      </trkpt>
      <trkpt lat="45.70262" lon="4.58506">
        <ele>685.4</ele>
        <time>2025-11-11T10:47:44Z</time>
      </trkpt>
      <trkpt lat="45.70264" lon="4.58509">
        <ele>685.8</ele>
        <time>2025-11-11T10:47:45Z</time>
      </trkpt>
      <trkpt lat="45.70267" lon="4.58511">
        <ele>686</ele>
        <time>2025-11-11T10:47:46Z</time>
      </trkpt>
      <trkpt lat="45.7027" lon="4.58513">
        <ele>686.4</ele>
        <time>2025-11-11T10:47:47Z</time>
      </trkpt>
      <trkpt lat="45.70272" lon="4.58515">
        <ele>686.6</ele>
        <time>2025-11-11T10:47:48Z</time>
      </trkpt>
      <trkpt lat="45.70275" lon="4.58516">
        <ele>687</ele>
        <time>2025-11-11T10:47:49Z</time>
      </trkpt>
      <trkpt lat="45.70277" lon="4.58518">
        <ele>687.2</ele>
        <time>2025-11-11T10:47:50Z</time>
      </trkpt>
      <trkpt lat="45.7028" lon="4.5852">
        <ele>687.4</ele>
        <time>2025-11-11T10:47:51Z</time>
      </trkpt>
      <trkpt lat="45.70282" lon="4.58522">
        <ele>687.8</ele>
        <time>2025-11-11T10:47:52Z</time>
      </trkpt>
      <trkpt lat="45.70285" lon="4.58523">
        <ele>688</ele>
        <time>2025-11-11T10:47:53Z</time>
      </trkpt>
      <trkpt lat="45.70287" lon="4.58524">
        <ele>688.2</ele>
        <time>2025-11-11T10:47:54Z</time>
      </trkpt>
      <trkpt lat="45.70289" lon="4.58525">
        <ele>688.4</ele>
        <time>2025-11-11T10:47:55Z</time>
      </trkpt>
      <trkpt lat="45.70292" lon="4.58525">
        <ele>688.8</ele>
        <time>2025-11-11T10:47:56Z</time>
      </trkpt>
      <trkpt lat="45.70294" lon="4.58527">
        <ele>689</ele>
        <time>2025-11-11T10:47:57Z</time>
      </trkpt>
      <trkpt lat="45.70296" lon="4.58528">
        <ele>689</ele>
        <time>2025-11-11T10:47:58Z</time>
      </trkpt>
      <trkpt lat="45.70298" lon="4.5853">
        <ele>689.2</ele>
        <time>2025-11-11T10:47:59Z</time>
      </trkpt>
      <trkpt lat="45.70301" lon="4.58533">
        <ele>689</ele>
        <time>2025-11-11T10:48:00Z</time>
      </trkpt>
      <trkpt lat="45.70305" lon="4.58535">
        <ele>688.6</ele>
        <time>2025-11-11T10:48:01Z</time>
      </trkpt>
      <trkpt lat="45.7031" lon="4.58537">
        <ele>688.2</ele>
        <time>2025-11-11T10:48:02Z</time>
      </trkpt>
      <trkpt lat="45.70315" lon="4.5854">
        <ele>687.4</ele>
        <time>2025-11-11T10:48:03Z</time>
      </trkpt>
      <trkpt lat="45.70321" lon="4.58542">
        <ele>686.4</ele>
        <time>2025-11-11T10:48:04Z</time>
      </trkpt>
      <trkpt lat="45.70327" lon="4.58544">
        <ele>685.6</ele>
        <time>2025-11-11T10:48:05Z</time>
      </trkpt>
      <trkpt lat="45.70333" lon="4.58545">
        <ele>684.6</ele>
        <time>2025-11-11T10:48:06Z</time>
      </trkpt>
      <trkpt lat="45.70339" lon="4.58546">
        <ele>684</ele>
        <time>2025-11-11T10:48:07Z</time>
      </trkpt>
      <trkpt lat="45.70345" lon="4.58547">
        <ele>683.4</ele>
        <time>2025-11-11T10:48:08Z</time>
      </trkpt>
      <trkpt lat="45.70352" lon="4.58549">
        <ele>682.8</ele>
        <time>2025-11-11T10:48:09Z</time>
      </trkpt>
      <trkpt lat="45.70358" lon="4.58551">
        <ele>682.4</ele>
        <time>2025-11-11T10:48:10Z</time>
      </trkpt>
      <trkpt lat="45.70364" lon="4.58553">
        <ele>681.8</ele>
        <time>2025-11-11T10:48:11Z</time>
      </trkpt>
      <trkpt lat="45.7037" lon="4.58555">
        <ele>681.2</ele>
        <time>2025-11-11T10:48:12Z</time>
      </trkpt>
      <trkpt lat="45.70377" lon="4.58556">
        <ele>680.6</ele>
        <time>2025-11-11T10:48:13Z</time>
      </trkpt>
      <trkpt lat="45.70384" lon="4.58558">
        <ele>680</ele>
        <time>2025-11-11T10:48:14Z</time>
      </trkpt>
      <trkpt lat="45.70391" lon="4.58559">
        <ele>679.4</ele>
        <time>2025-11-11T10:48:15Z</time>
      </trkpt>
      <trkpt lat="45.70398" lon="4.5856">
        <ele>679</ele>
        <time>2025-11-11T10:48:16Z</time>
      </trkpt>
      <trkpt lat="45.70406" lon="4.58562">
        <ele>678.4</ele>
        <time>2025-11-11T10:48:17Z</time>
      </trkpt>
      <trkpt lat="45.70413" lon="4.58563">
        <ele>678</ele>
        <time>2025-11-11T10:48:18Z</time>
      </trkpt>
      <trkpt lat="45.7042" lon="4.58565">
        <ele>677.6</ele>
        <time>2025-11-11T10:48:19Z</time>
      </trkpt>
      <trkpt lat="45.70427" lon="4.58567">
        <ele>677.2</ele>
        <time>2025-11-11T10:48:20Z</time>
      </trkpt>
      <trkpt lat="45.70433" lon="4.5857">
        <ele>676.8</ele>
        <time>2025-11-11T10:48:21Z</time>
      </trkpt>
      <trkpt lat="45.7044" lon="4.58573">
        <ele>676.6</ele>
        <time>2025-11-11T10:48:22Z</time>
      </trkpt>
      <trkpt lat="45.70447" lon="4.58576">
        <ele>676.2</ele>
        <time>2025-11-11T10:48:23Z</time>
      </trkpt>
      <trkpt lat="45.70453" lon="4.58579">
        <ele>676</ele>
        <time>2025-11-11T10:48:24Z</time>
      </trkpt>
      <trkpt lat="45.7046" lon="4.58582">
        <ele>675.8</ele>
        <time>2025-11-11T10:48:25Z</time>
      </trkpt>
      <trkpt lat="45.70467" lon="4.58586">
        <ele>675.6</ele>
        <time>2025-11-11T10:48:26Z</time>
      </trkpt>
      <trkpt lat="45.70472" lon="4.58591">
        <ele>675.2</ele>
        <time>2025-11-11T10:48:27Z</time>
      </trkpt>
      <trkpt lat="45.70476" lon="4.58599">
        <ele>674.8</ele>
        <time>2025-11-11T10:48:28Z</time>
      </trkpt>
      <trkpt lat="45.70478" lon="4.58609">
        <ele>674.2</ele>
        <time>2025-11-11T10:48:29Z</time>
      </trkpt>
      <trkpt lat="45.70478" lon="4.58618">
        <ele>673.8</ele>
        <time>2025-11-11T10:48:30Z</time>
      </trkpt>
      <trkpt lat="45.70478" lon="4.58627">
        <ele>673.6</ele>
        <time>2025-11-11T10:48:31Z</time>
      </trkpt>
      <trkpt lat="45.70477" lon="4.58635">
        <ele>673.4</ele>
        <time>2025-11-11T10:48:32Z</time>
      </trkpt>
      <trkpt lat="45.70477" lon="4.58643">
        <ele>673.4</ele>
        <time>2025-11-11T10:48:33Z</time>
      </trkpt>
      <trkpt lat="45.70477" lon="4.5865">
        <ele>673.6</ele>
        <time>2025-11-11T10:48:34Z</time>
      </trkpt>
      <trkpt lat="45.70477" lon="4.58657">
        <ele>673.8</ele>
        <time>2025-11-11T10:48:35Z</time>
      </trkpt>
      <trkpt lat="45.70477" lon="4.58664">
        <ele>674.2</ele>
        <time>2025-11-11T10:48:36Z</time>
      </trkpt>
      <trkpt lat="45.70477" lon="4.58672">
        <ele>674.4</ele>
        <time>2025-11-11T10:48:37Z</time>
      </trkpt>
      <trkpt lat="45.70477" lon="4.58679">
        <ele>674.6</ele>
        <time>2025-11-11T10:48:38Z</time>
      </trkpt>
      <trkpt lat="45.70477" lon="4.58685">
        <ele>674.8</ele>
        <time>2025-11-11T10:48:39Z</time>
      </trkpt>
      <trkpt lat="45.70477" lon="4.58694">
        <ele>674.8</ele>
        <time>2025-11-11T10:48:40Z</time>
      </trkpt>
      <trkpt lat="45.70477" lon="4.587">
        <ele>675</ele>
        <time>2025-11-11T10:48:41Z</time>
      </trkpt>
      <trkpt lat="45.70477" lon="4.58707">
        <ele>675.2</ele>
        <time>2025-11-11T10:48:42Z</time>
      </trkpt>
      <trkpt lat="45.70477" lon="4.58713">
        <ele>675.4</ele>
        <time>2025-11-11T10:48:43Z</time>
      </trkpt>
      <trkpt lat="45.70477" lon="4.5872">
        <ele>675.6</ele>
        <time>2025-11-11T10:48:44Z</time>
      </trkpt>
      <trkpt lat="45.70477" lon="4.58728">
        <ele>675.6</ele>
        <time>2025-11-11T10:48:45Z</time>
      </trkpt>
      <trkpt lat="45.70477" lon="4.58734">
        <ele>675.6</ele>
        <time>2025-11-11T10:48:46Z</time>
      </trkpt>
      <trkpt lat="45.70478" lon="4.58741">
        <ele>675.6</ele>
        <time>2025-11-11T10:48:47Z</time>
      </trkpt>
      <trkpt lat="45.70478" lon="4.58747">
        <ele>675.6</ele>
        <time>2025-11-11T10:48:48Z</time>
      </trkpt>
      <trkpt lat="45.70479" lon="4.58753">
        <ele>675.6</ele>
        <time>2025-11-11T10:48:49Z</time>
      </trkpt>
      <trkpt lat="45.70479" lon="4.58759">
        <ele>675.8</ele>
        <time>2025-11-11T10:48:50Z</time>
      </trkpt>
      <trkpt lat="45.7048" lon="4.58763">
        <ele>676</ele>
        <time>2025-11-11T10:48:51Z</time>
      </trkpt>
      <trkpt lat="45.7048" lon="4.5877">
        <ele>676.2</ele>
        <time>2025-11-11T10:48:52Z</time>
      </trkpt>
      <trkpt lat="45.70481" lon="4.58776">
        <ele>676.4</ele>
        <time>2025-11-11T10:48:53Z</time>
      </trkpt>
      <trkpt lat="45.70482" lon="4.58782">
        <ele>676.4</ele>
        <time>2025-11-11T10:48:54Z</time>
      </trkpt>
      <trkpt lat="45.70483" lon="4.58788">
        <ele>676.6</ele>
        <time>2025-11-11T10:48:55Z</time>
      </trkpt>
      <trkpt lat="45.70484" lon="4.58795">
        <ele>676.6</ele>
        <time>2025-11-11T10:48:56Z</time>
      </trkpt>
      <trkpt lat="45.70484" lon="4.58801">
        <ele>676.6</ele>
        <time>2025-11-11T10:48:57Z</time>
      </trkpt>
      <trkpt lat="45.70485" lon="4.58807">
        <ele>676.6</ele>
        <time>2025-11-11T10:48:58Z</time>
      </trkpt>
      <trkpt lat="45.70486" lon="4.58813">
        <ele>676.6</ele>
        <time>2025-11-11T10:48:59Z</time>
      </trkpt>
      <trkpt lat="45.70486" lon="4.58819">
        <ele>676.6</ele>
        <time>2025-11-11T10:49:00Z</time>
      </trkpt>
      <trkpt lat="45.70487" lon="4.58825">
        <ele>676.6</ele>
        <time>2025-11-11T10:49:01Z</time>
      </trkpt>
      <trkpt lat="45.70487" lon="4.58832">
        <ele>676.6</ele>
        <time>2025-11-11T10:49:02Z</time>
      </trkpt>
      <trkpt lat="45.70488" lon="4.58838">
        <ele>676.6</ele>
        <time>2025-11-11T10:49:03Z</time>
      </trkpt>
      <trkpt lat="45.70488" lon="4.58844">
        <ele>676.8</ele>
        <time>2025-11-11T10:49:04Z</time>
      </trkpt>
      <trkpt lat="45.70489" lon="4.5885">
        <ele>676.8</ele>
        <time>2025-11-11T10:49:05Z</time>
      </trkpt>
      <trkpt lat="45.7049" lon="4.58856">
        <ele>676.8</ele>
        <time>2025-11-11T10:49:06Z</time>
      </trkpt>
      <trkpt lat="45.70491" lon="4.58862">
        <ele>677</ele>
        <time>2025-11-11T10:49:07Z</time>
      </trkpt>
      <trkpt lat="45.70492" lon="4.58867">
        <ele>677</ele>
        <time>2025-11-11T10:49:08Z</time>
      </trkpt>
      <trkpt lat="45.70493" lon="4.58872">
        <ele>677.2</ele>
        <time>2025-11-11T10:49:09Z</time>
      </trkpt>
      <trkpt lat="45.70494" lon="4.58879">
        <ele>677.2</ele>
        <time>2025-11-11T10:49:10Z</time>
      </trkpt>
      <trkpt lat="45.70494" lon="4.58884">
        <ele>677.2</ele>
        <time>2025-11-11T10:49:11Z</time>
      </trkpt>
      <trkpt lat="45.70495" lon="4.5889">
        <ele>677.2</ele>
        <time>2025-11-11T10:49:12Z</time>
      </trkpt>
      <trkpt lat="45.70495" lon="4.58894">
        <ele>677.2</ele>
        <time>2025-11-11T10:49:13Z</time>
      </trkpt>
      <trkpt lat="45.70496" lon="4.58901">
        <ele>677.2</ele>
        <time>2025-11-11T10:49:14Z</time>
      </trkpt>
      <trkpt lat="45.70496" lon="4.58908">
        <ele>677</ele>
        <time>2025-11-11T10:49:15Z</time>
      </trkpt>
      <trkpt lat="45.70496" lon="4.58915">
        <ele>677</ele>
        <time>2025-11-11T10:49:16Z</time>
      </trkpt>
      <trkpt lat="45.70495" lon="4.58921">
        <ele>676.8</ele>
        <time>2025-11-11T10:49:17Z</time>
      </trkpt>
      <trkpt lat="45.70494" lon="4.58928">
        <ele>676.8</ele>
        <time>2025-11-11T10:49:18Z</time>
      </trkpt>
      <trkpt lat="45.70493" lon="4.58934">
        <ele>676.6</ele>
        <time>2025-11-11T10:49:19Z</time>
      </trkpt>
      <trkpt lat="45.70492" lon="4.5894">
        <ele>676.6</ele>
        <time>2025-11-11T10:49:20Z</time>
      </trkpt>
      <trkpt lat="45.7049" lon="4.58946">
        <ele>676.6</ele>
        <time>2025-11-11T10:49:21Z</time>
      </trkpt>
      <trkpt lat="45.70488" lon="4.58951">
        <ele>676.6</ele>
        <time>2025-11-11T10:49:22Z</time>
      </trkpt>
      <trkpt lat="45.70486" lon="4.58956">
        <ele>676.6</ele>
        <time>2025-11-11T10:49:23Z</time>
      </trkpt>
      <trkpt lat="45.70482" lon="4.58963">
        <ele>676.4</ele>
        <time>2025-11-11T10:49:24Z</time>
      </trkpt>
      <trkpt lat="45.70478" lon="4.58967">
        <ele>676.4</ele>
        <time>2025-11-11T10:49:25Z</time>
      </trkpt>
      <trkpt lat="45.70475" lon="4.58971">
        <ele>676.2</ele>
        <time>2025-11-11T10:49:26Z</time>
      </trkpt>
      <trkpt lat="45.70471" lon="4.58975">
        <ele>676</ele>
        <time>2025-11-11T10:49:27Z</time>
      </trkpt>
      <trkpt lat="45.70467" lon="4.58978">
        <ele>676</ele>
        <time>2025-11-11T10:49:28Z</time>
      </trkpt>
      <trkpt lat="45.70462" lon="4.58982">
        <ele>675.8</ele>
        <time>2025-11-11T10:49:29Z</time>
      </trkpt>
      <trkpt lat="45.70458" lon="4.58986">
        <ele>675.8</ele>
        <time>2025-11-11T10:49:30Z</time>
      </trkpt>
      <trkpt lat="45.70453" lon="4.5899">
        <ele>675.6</ele>
        <time>2025-11-11T10:49:31Z</time>
      </trkpt>
      <trkpt lat="45.70449" lon="4.58993">
        <ele>675.6</ele>
        <time>2025-11-11T10:49:32Z</time>
      </trkpt>
      <trkpt lat="45.70444" lon="4.58997">
        <ele>675.6</ele>
        <time>2025-11-11T10:49:33Z</time>
      </trkpt>
      <trkpt lat="45.7044" lon="4.59">
        <ele>675.6</ele>
        <time>2025-11-11T10:49:34Z</time>
      </trkpt>
      <trkpt lat="45.70435" lon="4.59003">
        <ele>675.6</ele>
        <time>2025-11-11T10:49:35Z</time>
      </trkpt>
      <trkpt lat="45.70431" lon="4.59006">
        <ele>675.6</ele>
        <time>2025-11-11T10:49:36Z</time>
      </trkpt>
      <trkpt lat="45.70426" lon="4.59009">
        <ele>675.8</ele>
        <time>2025-11-11T10:49:37Z</time>
      </trkpt>
      <trkpt lat="45.70423" lon="4.59011">
        <ele>676</ele>
        <time>2025-11-11T10:49:38Z</time>
      </trkpt>
      <trkpt lat="45.7042" lon="4.59014">
        <ele>676.2</ele>
        <time>2025-11-11T10:49:39Z</time>
      </trkpt>
      <trkpt lat="45.70417" lon="4.59016">
        <ele>676.4</ele>
        <time>2025-11-11T10:49:40Z</time>
      </trkpt>
      <trkpt lat="45.70414" lon="4.59018">
        <ele>676.6</ele>
        <time>2025-11-11T10:49:41Z</time>
      </trkpt>
      <trkpt lat="45.70411" lon="4.59019">
        <ele>676.8</ele>
        <time>2025-11-11T10:49:42Z</time>
      </trkpt>
      <trkpt lat="45.7041" lon="4.59021">
        <ele>677</ele>
        <time>2025-11-11T10:49:43Z</time>
      </trkpt>
      <trkpt lat="45.70408" lon="4.59022">
        <ele>677.2</ele>
        <time>2025-11-11T10:49:44Z</time>
      </trkpt>
      <trkpt lat="45.70406" lon="4.59024">
        <ele>677.4</ele>
        <time>2025-11-11T10:49:45Z</time>
      </trkpt>
      <trkpt lat="45.70404" lon="4.59025">
        <ele>677.4</ele>
        <time>2025-11-11T10:49:46Z</time>
      </trkpt>
      <trkpt lat="45.70402" lon="4.59026">
        <ele>677.4</ele>
        <time>2025-11-11T10:49:47Z</time>
      </trkpt>
      <trkpt lat="45.70399" lon="4.59027">
        <ele>677.4</ele>
        <time>2025-11-11T10:49:48Z</time>
      </trkpt>
      <trkpt lat="45.70396" lon="4.5903">
        <ele>677.2</ele>
        <time>2025-11-11T10:49:49Z</time>
      </trkpt>
      <trkpt lat="45.70394" lon="4.59032">
        <ele>677</ele>
        <time>2025-11-11T10:49:50Z</time>
      </trkpt>
      <trkpt lat="45.70391" lon="4.59035">
        <ele>676.6</ele>
        <time>2025-11-11T10:49:51Z</time>
      </trkpt>
      <trkpt lat="45.70388" lon="4.59037">
        <ele>676.4</ele>
        <time>2025-11-11T10:49:52Z</time>
      </trkpt>
      <trkpt lat="45.70384" lon="4.59039">
        <ele>676</ele>
        <time>2025-11-11T10:49:53Z</time>
      </trkpt>
      <trkpt lat="45.70381" lon="4.59041">
        <ele>675.6</ele>
        <time>2025-11-11T10:49:54Z</time>
      </trkpt>
      <trkpt lat="45.70377" lon="4.59044">
        <ele>675.2</ele>
        <time>2025-11-11T10:49:55Z</time>
      </trkpt>
      <trkpt lat="45.70372" lon="4.59047">
        <ele>674.6</ele>
        <time>2025-11-11T10:49:56Z</time>
      </trkpt>
      <trkpt lat="45.70368" lon="4.59049">
        <ele>674.2</ele>
        <time>2025-11-11T10:49:57Z</time>
      </trkpt>
      <trkpt lat="45.70363" lon="4.59051">
        <ele>673.6</ele>
        <time>2025-11-11T10:49:58Z</time>
      </trkpt>
      <trkpt lat="45.7036" lon="4.59053">
        <ele>673.2</ele>
        <time>2025-11-11T10:49:59Z</time>
      </trkpt>
      <trkpt lat="45.70358" lon="4.59054">
        <ele>673</ele>
        <time>2025-11-11T10:50:00Z</time>
      </trkpt>
      <trkpt lat="45.70356" lon="4.59056">
        <ele>672.8</ele>
        <time>2025-11-11T10:50:01Z</time>
      </trkpt>
      <trkpt lat="45.70356" lon="4.59059">
        <ele>673</ele>
        <time>2025-11-11T10:50:02Z</time>
      </trkpt>
      <trkpt lat="45.70356" lon="4.59061">
        <ele>673</ele>
        <time>2025-11-11T10:50:03Z</time>
      </trkpt>
      <trkpt lat="45.70354" lon="4.59063">
        <ele>673.2</ele>
        <time>2025-11-11T10:50:04Z</time>
      </trkpt>
      <trkpt lat="45.70353" lon="4.59066">
        <ele>673.4</ele>
        <time>2025-11-11T10:50:05Z</time>
      </trkpt>
      <trkpt lat="45.70351" lon="4.59069">
        <ele>673.4</ele>
        <time>2025-11-11T10:50:06Z</time>
      </trkpt>
      <trkpt lat="45.70349" lon="4.59073">
        <ele>673.6</ele>
        <time>2025-11-11T10:50:07Z</time>
      </trkpt>
      <trkpt lat="45.70347" lon="4.59076">
        <ele>674</ele>
        <time>2025-11-11T10:50:08Z</time>
      </trkpt>
      <trkpt lat="45.70346" lon="4.59079">
        <ele>674.2</ele>
        <time>2025-11-11T10:50:09Z</time>
      </trkpt>
      <trkpt lat="45.70346" lon="4.59082">
        <ele>674.6</ele>
        <time>2025-11-11T10:50:10Z</time>
      </trkpt>
      <trkpt lat="45.70345" lon="4.59086">
        <ele>675</ele>
        <time>2025-11-11T10:50:11Z</time>
      </trkpt>
      <trkpt lat="45.70344" lon="4.59089">
        <ele>675.4</ele>
        <time>2025-11-11T10:50:12Z</time>
      </trkpt>
      <trkpt lat="45.70343" lon="4.59092">
        <ele>675.8</ele>
        <time>2025-11-11T10:50:13Z</time>
      </trkpt>
      <trkpt lat="45.70342" lon="4.59096">
        <ele>676.2</ele>
        <time>2025-11-11T10:50:14Z</time>
      </trkpt>
      <trkpt lat="45.70341" lon="4.591">
        <ele>676.6</ele>
        <time>2025-11-11T10:50:15Z</time>
      </trkpt>
      <trkpt lat="45.70339" lon="4.59103">
        <ele>677</ele>
        <time>2025-11-11T10:50:16Z</time>
      </trkpt>
      <trkpt lat="45.70338" lon="4.59106">
        <ele>677.4</ele>
        <time>2025-11-11T10:50:17Z</time>
      </trkpt>
      <trkpt lat="45.70338" lon="4.5911">
        <ele>677.8</ele>
        <time>2025-11-11T10:50:18Z</time>
      </trkpt>
      <trkpt lat="45.70337" lon="4.59114">
        <ele>678</ele>
        <time>2025-11-11T10:50:19Z</time>
      </trkpt>
      <trkpt lat="45.70336" lon="4.59118">
        <ele>678.4</ele>
        <time>2025-11-11T10:50:20Z</time>
      </trkpt>
      <trkpt lat="45.70334" lon="4.59122">
        <ele>678.8</ele>
        <time>2025-11-11T10:50:21Z</time>
      </trkpt>
      <trkpt lat="45.70333" lon="4.59125">
        <ele>679</ele>
        <time>2025-11-11T10:50:22Z</time>
      </trkpt>
      <trkpt lat="45.70331" lon="4.59129">
        <ele>679.4</ele>
        <time>2025-11-11T10:50:23Z</time>
      </trkpt>
      <trkpt lat="45.7033" lon="4.59133">
        <ele>679.8</ele>
        <time>2025-11-11T10:50:24Z</time>
      </trkpt>
      <trkpt lat="45.70328" lon="4.59137">
        <ele>680.2</ele>
        <time>2025-11-11T10:50:25Z</time>
      </trkpt>
      <trkpt lat="45.70327" lon="4.59141">
        <ele>680.6</ele>
        <time>2025-11-11T10:50:26Z</time>
      </trkpt>
      <trkpt lat="45.70325" lon="4.59144">
        <ele>681</ele>
        <time>2025-11-11T10:50:27Z</time>
      </trkpt>
      <trkpt lat="45.70324" lon="4.59148">
        <ele>681.6</ele>
        <time>2025-11-11T10:50:28Z</time>
      </trkpt>
      <trkpt lat="45.70322" lon="4.59152">
        <ele>682</ele>
        <time>2025-11-11T10:50:29Z</time>
      </trkpt>
      <trkpt lat="45.70321" lon="4.59156">
        <ele>682.4</ele>
        <time>2025-11-11T10:50:30Z</time>
      </trkpt>
      <trkpt lat="45.70321" lon="4.59159">
        <ele>682.8</ele>
        <time>2025-11-11T10:50:31Z</time>
      </trkpt>
      <trkpt lat="45.70322" lon="4.59163">
        <ele>683.2</ele>
        <time>2025-11-11T10:50:32Z</time>
      </trkpt>
      <trkpt lat="45.70324" lon="4.59165">
        <ele>683.6</ele>
        <time>2025-11-11T10:50:33Z</time>
      </trkpt>
      <trkpt lat="45.70326" lon="4.59167">
        <ele>684.2</ele>
        <time>2025-11-11T10:50:34Z</time>
      </trkpt>
      <trkpt lat="45.70328" lon="4.59167">
        <ele>684.6</ele>
        <time>2025-11-11T10:50:35Z</time>
      </trkpt>
      <trkpt lat="45.70331" lon="4.59166">
        <ele>685</ele>
        <time>2025-11-11T10:50:36Z</time>
      </trkpt>
      <trkpt lat="45.70333" lon="4.59164">
        <ele>685.4</ele>
        <time>2025-11-11T10:50:37Z</time>
      </trkpt>
      <trkpt lat="45.70335" lon="4.59162">
        <ele>685.8</ele>
        <time>2025-11-11T10:50:38Z</time>
      </trkpt>
      <trkpt lat="45.70337" lon="4.59159">
        <ele>686.4</ele>
        <time>2025-11-11T10:50:39Z</time>
      </trkpt>
      <trkpt lat="45.7034" lon="4.59158">
        <ele>686.8</ele>
        <time>2025-11-11T10:50:40Z</time>
      </trkpt>
      <trkpt lat="45.70343" lon="4.59157">
        <ele>687.2</ele>
        <time>2025-11-11T10:50:41Z</time>
      </trkpt>
      <trkpt lat="45.70345" lon="4.59156">
        <ele>687.8</ele>
        <time>2025-11-11T10:50:42Z</time>
      </trkpt>
      <trkpt lat="45.70348" lon="4.59155">
        <ele>688.4</ele>
        <time>2025-11-11T10:50:43Z</time>
      </trkpt>
      <trkpt lat="45.70351" lon="4.59153">
        <ele>688.8</ele>
        <time>2025-11-11T10:50:44Z</time>
      </trkpt>
      <trkpt lat="45.70354" lon="4.59152">
        <ele>689.4</ele>
        <time>2025-11-11T10:50:45Z</time>
      </trkpt>
      <trkpt lat="45.70356" lon="4.59151">
        <ele>689.8</ele>
        <time>2025-11-11T10:50:46Z</time>
      </trkpt>
      <trkpt lat="45.70359" lon="4.5915">
        <ele>690.2</ele>
        <time>2025-11-11T10:50:47Z</time>
      </trkpt>
      <trkpt lat="45.70362" lon="4.59149">
        <ele>690.6</ele>
        <time>2025-11-11T10:50:48Z</time>
      </trkpt>
      <trkpt lat="45.70365" lon="4.59148">
        <ele>691</ele>
        <time>2025-11-11T10:50:49Z</time>
      </trkpt>
      <trkpt lat="45.70367" lon="4.59147">
        <ele>691.4</ele>
        <time>2025-11-11T10:50:50Z</time>
      </trkpt>
      <trkpt lat="45.70369" lon="4.59145">
        <ele>691.6</ele>
        <time>2025-11-11T10:50:51Z</time>
      </trkpt>
      <trkpt lat="45.70371" lon="4.59144">
        <ele>692</ele>
        <time>2025-11-11T10:50:52Z</time>
      </trkpt>
      <trkpt lat="45.70374" lon="4.59143">
        <ele>692.4</ele>
        <time>2025-11-11T10:50:53Z</time>
      </trkpt>
      <trkpt lat="45.70376" lon="4.59143">
        <ele>692.8</ele>
        <time>2025-11-11T10:50:54Z</time>
      </trkpt>
      <trkpt lat="45.70378" lon="4.59141">
        <ele>693.2</ele>
        <time>2025-11-11T10:50:55Z</time>
      </trkpt>
      <trkpt lat="45.70381" lon="4.59141">
        <ele>693.6</ele>
        <time>2025-11-11T10:50:56Z</time>
      </trkpt>
      <trkpt lat="45.70383" lon="4.5914">
        <ele>694.2</ele>
        <time>2025-11-11T10:50:57Z</time>
      </trkpt>
      <trkpt lat="45.70385" lon="4.5914">
        <ele>694.6</ele>
        <time>2025-11-11T10:50:58Z</time>
      </trkpt>
      <trkpt lat="45.70388" lon="4.59139">
        <ele>694.8</ele>
        <time>2025-11-11T10:50:59Z</time>
      </trkpt>
      <trkpt lat="45.70391" lon="4.59139">
        <ele>695.4</ele>
        <time>2025-11-11T10:51:00Z</time>
      </trkpt>
      <trkpt lat="45.70393" lon="4.59138">
        <ele>695.6</ele>
        <time>2025-11-11T10:51:01Z</time>
      </trkpt>
      <trkpt lat="45.70395" lon="4.59136">
        <ele>696</ele>
        <time>2025-11-11T10:51:02Z</time>
      </trkpt>
      <trkpt lat="45.70398" lon="4.59136">
        <ele>696.4</ele>
        <time>2025-11-11T10:51:03Z</time>
      </trkpt>
      <trkpt lat="45.704" lon="4.59135">
        <ele>696.8</ele>
        <time>2025-11-11T10:51:04Z</time>
      </trkpt>
      <trkpt lat="45.70402" lon="4.59134">
        <ele>697.2</ele>
        <time>2025-11-11T10:51:05Z</time>
      </trkpt>
      <trkpt lat="45.70403" lon="4.59132">
        <ele>697.4</ele>
        <time>2025-11-11T10:51:06Z</time>
      </trkpt>
      <trkpt lat="45.70405" lon="4.59132">
        <ele>697.8</ele>
        <time>2025-11-11T10:51:07Z</time>
      </trkpt>
      <trkpt lat="45.70408" lon="4.59131">
        <ele>698</ele>
        <time>2025-11-11T10:51:08Z</time>
      </trkpt>
      <trkpt lat="45.70411" lon="4.5913">
        <ele>698.2</ele>
        <time>2025-11-11T10:51:09Z</time>
      </trkpt>
      <trkpt lat="45.70414" lon="4.5913">
        <ele>698.2</ele>
        <time>2025-11-11T10:51:10Z</time>
      </trkpt>
      <trkpt lat="45.70417" lon="4.59129">
        <ele>698.4</ele>
        <time>2025-11-11T10:51:11Z</time>
      </trkpt>
      <trkpt lat="45.7042" lon="4.59129">
        <ele>698.6</ele>
        <time>2025-11-11T10:51:12Z</time>
      </trkpt>
      <trkpt lat="45.70423" lon="4.59129">
        <ele>698.8</ele>
        <time>2025-11-11T10:51:13Z</time>
      </trkpt>
      <trkpt lat="45.70426" lon="4.59128">
        <ele>699</ele>
        <time>2025-11-11T10:51:14Z</time>
      </trkpt>
      <trkpt lat="45.70429" lon="4.59128">
        <ele>699.2</ele>
        <time>2025-11-11T10:51:15Z</time>
      </trkpt>
      <trkpt lat="45.70432" lon="4.59127">
        <ele>699.6</ele>
        <time>2025-11-11T10:51:16Z</time>
      </trkpt>
      <trkpt lat="45.70435" lon="4.59127">
        <ele>699.8</ele>
        <time>2025-11-11T10:51:17Z</time>
      </trkpt>
      <trkpt lat="45.70438" lon="4.59126">
        <ele>700</ele>
        <time>2025-11-11T10:51:18Z</time>
      </trkpt>
      <trkpt lat="45.70441" lon="4.59125">
        <ele>700.4</ele>
        <time>2025-11-11T10:51:19Z</time>
      </trkpt>
      <trkpt lat="45.70444" lon="4.59125">
        <ele>700.6</ele>
        <time>2025-11-11T10:51:20Z</time>
      </trkpt>
      <trkpt lat="45.70447" lon="4.59125">
        <ele>700.8</ele>
        <time>2025-11-11T10:51:21Z</time>
      </trkpt>
      <trkpt lat="45.7045" lon="4.59125">
        <ele>701</ele>
        <time>2025-11-11T10:51:22Z</time>
      </trkpt>
      <trkpt lat="45.70453" lon="4.59124">
        <ele>701.2</ele>
        <time>2025-11-11T10:51:23Z</time>
      </trkpt>
      <trkpt lat="45.70456" lon="4.59124">
        <ele>701.6</ele>
        <time>2025-11-11T10:51:24Z</time>
      </trkpt>
      <trkpt lat="45.70459" lon="4.59123">
        <ele>701.8</ele>
        <time>2025-11-11T10:51:25Z</time>
      </trkpt>
      <trkpt lat="45.70462" lon="4.59122">
        <ele>702</ele>
        <time>2025-11-11T10:51:26Z</time>
      </trkpt>
      <trkpt lat="45.70465" lon="4.59122">
        <ele>702.2</ele>
        <time>2025-11-11T10:51:27Z</time>
      </trkpt>
      <trkpt lat="45.70468" lon="4.59121">
        <ele>702.6</ele>
        <time>2025-11-11T10:51:28Z</time>
      </trkpt>
      <trkpt lat="45.7047" lon="4.59121">
        <ele>702.8</ele>
        <time>2025-11-11T10:51:29Z</time>
      </trkpt>
      <trkpt lat="45.70473" lon="4.59121">
        <ele>703.2</ele>
        <time>2025-11-11T10:51:30Z</time>
      </trkpt>
      <trkpt lat="45.70476" lon="4.5912">
        <ele>703.6</ele>
        <time>2025-11-11T10:51:31Z</time>
      </trkpt>
      <trkpt lat="45.70479" lon="4.5912">
        <ele>704</ele>
        <time>2025-11-11T10:51:32Z</time>
      </trkpt>
      <trkpt lat="45.70481" lon="4.5912">
        <ele>704.2</ele>
        <time>2025-11-11T10:51:33Z</time>
      </trkpt>
      <trkpt lat="45.70485" lon="4.59119">
        <ele>704.6</ele>
        <time>2025-11-11T10:51:34Z</time>
      </trkpt>
      <trkpt lat="45.70488" lon="4.59118">
        <ele>705</ele>
        <time>2025-11-11T10:51:35Z</time>
      </trkpt>
      <trkpt lat="45.7049" lon="4.59117">
        <ele>705.4</ele>
        <time>2025-11-11T10:51:36Z</time>
      </trkpt>
      <trkpt lat="45.70493" lon="4.59116">
        <ele>705.6</ele>
        <time>2025-11-11T10:51:37Z</time>
      </trkpt>
      <trkpt lat="45.70496" lon="4.59115">
        <ele>706</ele>
        <time>2025-11-11T10:51:38Z</time>
      </trkpt>
      <trkpt lat="45.70498" lon="4.59114">
        <ele>706.2</ele>
        <time>2025-11-11T10:51:39Z</time>
      </trkpt>
      <trkpt lat="45.70501" lon="4.59113">
        <ele>706.6</ele>
        <time>2025-11-11T10:51:40Z</time>
      </trkpt>
      <trkpt lat="45.70504" lon="4.59111">
        <ele>706.8</ele>
        <time>2025-11-11T10:51:41Z</time>
      </trkpt>
      <trkpt lat="45.70506" lon="4.5911">
        <ele>707</ele>
        <time>2025-11-11T10:51:42Z</time>
      </trkpt>
      <trkpt lat="45.70509" lon="4.5911">
        <ele>707.4</ele>
        <time>2025-11-11T10:51:43Z</time>
      </trkpt>
      <trkpt lat="45.70512" lon="4.59109">
        <ele>707.6</ele>
        <time>2025-11-11T10:51:44Z</time>
      </trkpt>
      <trkpt lat="45.70515" lon="4.59109">
        <ele>708</ele>
        <time>2025-11-11T10:51:45Z</time>
      </trkpt>
      <trkpt lat="45.70518" lon="4.59108">
        <ele>708.4</ele>
        <time>2025-11-11T10:51:46Z</time>
      </trkpt>
      <trkpt lat="45.70521" lon="4.59107">
        <ele>708.6</ele>
        <time>2025-11-11T10:51:47Z</time>
      </trkpt>
      <trkpt lat="45.70523" lon="4.59105">
        <ele>709</ele>
        <time>2025-11-11T10:51:48Z</time>
      </trkpt>
      <trkpt lat="45.70525" lon="4.59104">
        <ele>709.4</ele>
        <time>2025-11-11T10:51:49Z</time>
      </trkpt>
      <trkpt lat="45.70527" lon="4.59102">
        <ele>709.8</ele>
        <time>2025-11-11T10:51:50Z</time>
      </trkpt>
      <trkpt lat="45.7053" lon="4.591">
        <ele>710</ele>
        <time>2025-11-11T10:51:51Z</time>
      </trkpt>
      <trkpt lat="45.70533" lon="4.59099">
        <ele>710.4</ele>
        <time>2025-11-11T10:51:52Z</time>
      </trkpt>
      <trkpt lat="45.70535" lon="4.59099">
        <ele>710.8</ele>
        <time>2025-11-11T10:51:53Z</time>
      </trkpt>
      <trkpt lat="45.70538" lon="4.59099">
        <ele>711</ele>
        <time>2025-11-11T10:51:54Z</time>
      </trkpt>
      <trkpt lat="45.70541" lon="4.59099">
        <ele>711.4</ele>
        <time>2025-11-11T10:51:55Z</time>
      </trkpt>
      <trkpt lat="45.70544" lon="4.59098">
        <ele>711.8</ele>
        <time>2025-11-11T10:51:56Z</time>
      </trkpt>
      <trkpt lat="45.70546" lon="4.59097">
        <ele>712.2</ele>
        <time>2025-11-11T10:51:57Z</time>
      </trkpt>
      <trkpt lat="45.70549" lon="4.59096">
        <ele>712.6</ele>
        <time>2025-11-11T10:51:58Z</time>
      </trkpt>
      <trkpt lat="45.70552" lon="4.59096">
        <ele>713</ele>
        <time>2025-11-11T10:51:59Z</time>
      </trkpt>
      <trkpt lat="45.70555" lon="4.59095">
        <ele>713.4</ele>
        <time>2025-11-11T10:52:00Z</time>
      </trkpt>
      <trkpt lat="45.70558" lon="4.59094">
        <ele>713.8</ele>
        <time>2025-11-11T10:52:01Z</time>
      </trkpt>
      <trkpt lat="45.7056" lon="4.59094">
        <ele>714.2</ele>
        <time>2025-11-11T10:52:02Z</time>
      </trkpt>
      <trkpt lat="45.70562" lon="4.59093">
        <ele>714.6</ele>
        <time>2025-11-11T10:52:03Z</time>
      </trkpt>
      <trkpt lat="45.70565" lon="4.59092">
        <ele>715</ele>
        <time>2025-11-11T10:52:04Z</time>
      </trkpt>
      <trkpt lat="45.70568" lon="4.59091">
        <ele>715.4</ele>
        <time>2025-11-11T10:52:05Z</time>
      </trkpt>
      <trkpt lat="45.70571" lon="4.59091">
        <ele>715.8</ele>
        <time>2025-11-11T10:52:06Z</time>
      </trkpt>
      <trkpt lat="45.70574" lon="4.5909">
        <ele>716.2</ele>
        <time>2025-11-11T10:52:07Z</time>
      </trkpt>
      <trkpt lat="45.70576" lon="4.59089">
        <ele>716.6</ele>
        <time>2025-11-11T10:52:08Z</time>
      </trkpt>
      <trkpt lat="45.70579" lon="4.59088">
        <ele>717.2</ele>
        <time>2025-11-11T10:52:09Z</time>
      </trkpt>
      <trkpt lat="45.70582" lon="4.59088">
        <ele>717.6</ele>
        <time>2025-11-11T10:52:10Z</time>
      </trkpt>
      <trkpt lat="45.70585" lon="4.59087">
        <ele>718</ele>
        <time>2025-11-11T10:52:11Z</time>
      </trkpt>
      <trkpt lat="45.70588" lon="4.59086">
        <ele>718.4</ele>
        <time>2025-11-11T10:52:12Z</time>
      </trkpt>
      <trkpt lat="45.7059" lon="4.59085">
        <ele>718.8</ele>
        <time>2025-11-11T10:52:13Z</time>
      </trkpt>
      <trkpt lat="45.70593" lon="4.59084">
        <ele>719.4</ele>
        <time>2025-11-11T10:52:14Z</time>
      </trkpt>
      <trkpt lat="45.70596" lon="4.59083">
        <ele>719.8</ele>
        <time>2025-11-11T10:52:15Z</time>
      </trkpt>
      <trkpt lat="45.70599" lon="4.59082">
        <ele>720.2</ele>
        <time>2025-11-11T10:52:16Z</time>
      </trkpt>
      <trkpt lat="45.70601" lon="4.59081">
        <ele>720.8</ele>
        <time>2025-11-11T10:52:17Z</time>
      </trkpt>
      <trkpt lat="45.70604" lon="4.59081">
        <ele>721.2</ele>
        <time>2025-11-11T10:52:18Z</time>
      </trkpt>
      <trkpt lat="45.70607" lon="4.59081">
        <ele>721.6</ele>
        <time>2025-11-11T10:52:19Z</time>
      </trkpt>
      <trkpt lat="45.70609" lon="4.59081">
        <ele>722</ele>
        <time>2025-11-11T10:52:20Z</time>
      </trkpt>
      <trkpt lat="45.70612" lon="4.59081">
        <ele>722.4</ele>
        <time>2025-11-11T10:52:21Z</time>
      </trkpt>
      <trkpt lat="45.70615" lon="4.5908">
        <ele>722.8</ele>
        <time>2025-11-11T10:52:22Z</time>
      </trkpt>
      <trkpt lat="45.70618" lon="4.5908">
        <ele>723.4</ele>
        <time>2025-11-11T10:52:23Z</time>
      </trkpt>
      <trkpt lat="45.7062" lon="4.59078">
        <ele>723.8</ele>
        <time>2025-11-11T10:52:24Z</time>
      </trkpt>
      <trkpt lat="45.70623" lon="4.59077">
        <ele>724.4</ele>
        <time>2025-11-11T10:52:25Z</time>
      </trkpt>
      <trkpt lat="45.70625" lon="4.59077">
        <ele>724.8</ele>
        <time>2025-11-11T10:52:26Z</time>
      </trkpt>
      <trkpt lat="45.70628" lon="4.59077">
        <ele>725.2</ele>
        <time>2025-11-11T10:52:27Z</time>
      </trkpt>
      <trkpt lat="45.7063" lon="4.59077">
        <ele>725.6</ele>
        <time>2025-11-11T10:52:28Z</time>
      </trkpt>
      <trkpt lat="45.70632" lon="4.59078">
        <ele>725.8</ele>
        <time>2025-11-11T10:52:29Z</time>
      </trkpt>
      <trkpt lat="45.70634" lon="4.5908">
        <ele>726.2</ele>
        <time>2025-11-11T10:52:30Z</time>
      </trkpt>
      <trkpt lat="45.70634" lon="4.59083">
        <ele>726.4</ele>
        <time>2025-11-11T10:52:31Z</time>
      </trkpt>
      <trkpt lat="45.70634" lon="4.59084">
        <ele>726.8</ele>
        <time>2025-11-11T10:52:32Z</time>
      </trkpt>
      <trkpt lat="45.70633" lon="4.59086">
        <ele>727</ele>
        <time>2025-11-11T10:52:33Z</time>
      </trkpt>
      <trkpt lat="45.70633" lon="4.59086">
        <ele>727.2</ele>
        <time>2025-11-11T10:52:34Z</time>
      </trkpt>
      <trkpt lat="45.70633" lon="4.59086">
        <ele>727.4</ele>
        <time>2025-11-11T10:52:35Z</time>
      </trkpt>
      <trkpt lat="45.70633" lon="4.59086">
        <ele>727.4</ele>
        <time>2025-11-11T10:52:36Z</time>
      </trkpt>
      <trkpt lat="45.70633" lon="4.59086">
        <ele>727.6</ele>
        <time>2025-11-11T10:52:37Z</time>
      </trkpt>
      <trkpt lat="45.70633" lon="4.59086">
        <ele>727.6</ele>
        <time>2025-11-11T10:52:38Z</time>
      </trkpt>
      <trkpt lat="45.70633" lon="4.59086">
        <ele>727.6</ele>
        <time>2025-11-11T10:52:39Z</time>
      </trkpt>
      <trkpt lat="45.70633" lon="4.59086">
        <ele>727.6</ele>
        <time>2025-11-11T10:52:40Z</time>
      </trkpt>
      <trkpt lat="45.70633" lon="4.59086">
        <ele>727.6</ele>
        <time>2025-11-11T10:52:41Z</time>
      </trkpt>
      <trkpt lat="45.70633" lon="4.59086">
        <ele>727.6</ele>
        <time>2025-11-11T10:52:42Z</time>
      </trkpt>
      <trkpt lat="45.70633" lon="4.59086">
        <ele>727.6</ele>
        <time>2025-11-11T10:52:43Z</time>
      </trkpt>
      <trkpt lat="45.70633" lon="4.59086">
        <ele>727.6</ele>
        <time>2025-11-11T10:52:44Z</time>
      </trkpt>
      <trkpt lat="45.70633" lon="4.59086">
        <ele>727.6</ele>
        <time>2025-11-11T10:52:45Z</time>
      </trkpt>
      <trkpt lat="45.70633" lon="4.59086">
        <ele>727.6</ele>
        <time>2025-11-11T10:52:46Z</time>
      </trkpt>
      <trkpt lat="45.70633" lon="4.59086">
        <ele>727.6</ele>
        <time>2025-11-11T10:52:47Z</time>
      </trkpt>
      <trkpt lat="45.70633" lon="4.59086">
        <ele>727.4</ele>
        <time>2025-11-11T10:52:48Z</time>
      </trkpt>
      <trkpt lat="45.70633" lon="4.59086">
        <ele>727.4</ele>
        <time>2025-11-11T10:52:49Z</time>
      </trkpt>
      <trkpt lat="45.70633" lon="4.59086">
        <ele>727.4</ele>
        <time>2025-11-11T10:52:50Z</time>
      </trkpt>
      <trkpt lat="45.70633" lon="4.59086">
        <ele>727.4</ele>
        <time>2025-11-11T10:52:51Z</time>
      </trkpt>
      <trkpt lat="45.70633" lon="4.59086">
        <ele>727.4</ele>
        <time>2025-11-11T10:52:52Z</time>
      </trkpt>
      <trkpt lat="45.70633" lon="4.59086">
        <ele>727.4</ele>
        <time>2025-11-11T10:52:53Z</time>
      </trkpt>
      <trkpt lat="45.70633" lon="4.59086">
        <ele>727.4</ele>
        <time>2025-11-11T10:52:54Z</time>
      </trkpt>
      <trkpt lat="45.70633" lon="4.59086">
        <ele>727.4</ele>
        <time>2025-11-11T10:52:55Z</time>
      </trkpt>
      <trkpt lat="45.70633" lon="4.59086">
        <ele>727.4</ele>
        <time>2025-11-11T10:52:56Z</time>
      </trkpt>
      <trkpt lat="45.70633" lon="4.59086">
        <ele>727.4</ele>
        <time>2025-11-11T10:52:57Z</time>
      </trkpt>
      <trkpt lat="45.70633" lon="4.59086">
        <ele>727.4</ele>
        <time>2025-11-11T10:52:58Z</time>
      </trkpt>
      <trkpt lat="45.70633" lon="4.59086">
        <ele>727.4</ele>
        <time>2025-11-11T10:52:59Z</time>
      </trkpt>
      <trkpt lat="45.70633" lon="4.59086">
        <ele>727.4</ele>
        <time>2025-11-11T10:53:00Z</time>
      </trkpt>
      <trkpt lat="45.70633" lon="4.59086">
        <ele>727.4</ele>
        <time>2025-11-11T10:53:01Z</time>
      </trkpt>
      <trkpt lat="45.70633" lon="4.59086">
        <ele>727.4</ele>
        <time>2025-11-11T10:53:02Z</time>
      </trkpt>
      <trkpt lat="45.70633" lon="4.59086">
        <ele>727.4</ele>
        <time>2025-11-11T10:53:03Z</time>
      </trkpt>
      <trkpt lat="45.70633" lon="4.59086">
        <ele>727.4</ele>
        <time>2025-11-11T10:53:04Z</time>
      </trkpt>
      <trkpt lat="45.70633" lon="4.59086">
        <ele>727.4</ele>
        <time>2025-11-11T10:53:05Z</time>
      </trkpt>
      <trkpt lat="45.70633" lon="4.59086">
        <ele>727.4</ele>
        <time>2025-11-11T10:53:06Z</time>
      </trkpt>
      <trkpt lat="45.70633" lon="4.59086">
        <ele>727.2</ele>
        <time>2025-11-11T10:53:07Z</time>
      </trkpt>
      <trkpt lat="45.70633" lon="4.59086">
        <ele>727.2</ele>
        <time>2025-11-11T10:53:08Z</time>
      </trkpt>
      <trkpt lat="45.70633" lon="4.59086">
        <ele>727.2</ele>
        <time>2025-11-11T10:53:09Z</time>
      </trkpt>
      <trkpt lat="45.70633" lon="4.59086">
        <ele>727.2</ele>
        <time>2025-11-11T10:53:10Z</time>
      </trkpt>
      <trkpt lat="45.70633" lon="4.59086">
        <ele>727.2</ele>
        <time>2025-11-11T10:53:11Z</time>
      </trkpt>
      <trkpt lat="45.70633" lon="4.59086">
        <ele>727.2</ele>
        <time>2025-11-11T10:53:12Z</time>
      </trkpt>
      <trkpt lat="45.70633" lon="4.59086">
        <ele>727.2</ele>
        <time>2025-11-11T10:53:13Z</time>
      </trkpt>
      <trkpt lat="45.70633" lon="4.59086">
        <ele>727.2</ele>
        <time>2025-11-11T10:53:14Z</time>
      </trkpt>
      <trkpt lat="45.70633" lon="4.59086">
        <ele>727.2</ele>
        <time>2025-11-11T10:53:15Z</time>
      </trkpt>
      <trkpt lat="45.70633" lon="4.59086">
        <ele>727.2</ele>
        <time>2025-11-11T10:53:16Z</time>
      </trkpt>
      <trkpt lat="45.70633" lon="4.59086">
        <ele>727.2</ele>
        <time>2025-11-11T10:53:17Z</time>
      </trkpt>
      <trkpt lat="45.70633" lon="4.59086">
        <ele>727.2</ele>
        <time>2025-11-11T10:53:18Z</time>
      </trkpt>
      <trkpt lat="45.70633" lon="4.59086">
        <ele>727.2</ele>
        <time>2025-11-11T10:53:19Z</time>
      </trkpt>
      <trkpt lat="45.70633" lon="4.59086">
        <ele>727.2</ele>
        <time>2025-11-11T10:53:20Z</time>
      </trkpt>
      <trkpt lat="45.70633" lon="4.59086">
        <ele>727.2</ele>
        <time>2025-11-11T10:53:21Z</time>
      </trkpt>
      <trkpt lat="45.70633" lon="4.59086">
        <ele>727.2</ele>
        <time>2025-11-11T10:53:22Z</time>
      </trkpt>
      <trkpt lat="45.70633" lon="4.59086">
        <ele>727.2</ele>
        <time>2025-11-11T10:53:23Z</time>
      </trkpt>
      <trkpt lat="45.70633" lon="4.59086">
        <ele>727.2</ele>
        <time>2025-11-11T10:53:24Z</time>
      </trkpt>
      <trkpt lat="45.70633" lon="4.59086">
        <ele>727.2</ele>
        <time>2025-11-11T10:53:25Z</time>
      </trkpt>
      <trkpt lat="45.70633" lon="4.59086">
        <ele>727.2</ele>
        <time>2025-11-11T10:53:26Z</time>
      </trkpt>
      <trkpt lat="45.70633" lon="4.59086">
        <ele>727.2</ele>
        <time>2025-11-11T10:53:27Z</time>
      </trkpt>
      <trkpt lat="45.70633" lon="4.59086">
        <ele>727.2</ele>
        <time>2025-11-11T10:53:28Z</time>
      </trkpt>
      <trkpt lat="45.70633" lon="4.59086">
        <ele>727.2</ele>
        <time>2025-11-11T10:53:29Z</time>
      </trkpt>
      <trkpt lat="45.70633" lon="4.59086">
        <ele>727.2</ele>
        <time>2025-11-11T10:53:30Z</time>
      </trkpt>
      <trkpt lat="45.70633" lon="4.59086">
        <ele>727.2</ele>
        <time>2025-11-11T10:53:31Z</time>
      </trkpt>
      <trkpt lat="45.70633" lon="4.59086">
        <ele>727</ele>
        <time>2025-11-11T10:53:32Z</time>
      </trkpt>
      <trkpt lat="45.70633" lon="4.59086">
        <ele>727</ele>
        <time>2025-11-11T10:53:33Z</time>
      </trkpt>
      <trkpt lat="45.70633" lon="4.59086">
        <ele>727</ele>
        <time>2025-11-11T10:53:34Z</time>
      </trkpt>
      <trkpt lat="45.70633" lon="4.59085">
        <ele>727</ele>
        <time>2025-11-11T10:53:35Z</time>
      </trkpt>
      <trkpt lat="45.70633" lon="4.59085">
        <ele>727</ele>
        <time>2025-11-11T10:53:36Z</time>
      </trkpt>
      <trkpt lat="45.70633" lon="4.59085">
        <ele>727</ele>
        <time>2025-11-11T10:53:37Z</time>
      </trkpt>
      <trkpt lat="45.70633" lon="4.59085">
        <ele>727</ele>
        <time>2025-11-11T10:53:38Z</time>
      </trkpt>
      <trkpt lat="45.70633" lon="4.59085">
        <ele>727</ele>
        <time>2025-11-11T10:53:39Z</time>
      </trkpt>
      <trkpt lat="45.70633" lon="4.59085">
        <ele>727</ele>
        <time>2025-11-11T10:53:40Z</time>
      </trkpt>
      <trkpt lat="45.70633" lon="4.59085">
        <ele>727</ele>
        <time>2025-11-11T10:53:41Z</time>
      </trkpt>
      <trkpt lat="45.70633" lon="4.59085">
        <ele>727</ele>
        <time>2025-11-11T10:53:42Z</time>
      </trkpt>
      <trkpt lat="45.70633" lon="4.59086">
        <ele>727</ele>
        <time>2025-11-11T10:53:43Z</time>
      </trkpt>
      <trkpt lat="45.70633" lon="4.59088">
        <ele>727</ele>
        <time>2025-11-11T10:53:44Z</time>
      </trkpt>
      <trkpt lat="45.70633" lon="4.59091">
        <ele>727.2</ele>
        <time>2025-11-11T10:53:45Z</time>
      </trkpt>
      <trkpt lat="45.70633" lon="4.59095">
        <ele>727.2</ele>
        <time>2025-11-11T10:53:46Z</time>
      </trkpt>
      <trkpt lat="45.70633" lon="4.591">
        <ele>727.2</ele>
        <time>2025-11-11T10:53:47Z</time>
      </trkpt>
      <trkpt lat="45.70632" lon="4.59105">
        <ele>727.2</ele>
        <time>2025-11-11T10:53:48Z</time>
      </trkpt>
      <trkpt lat="45.70632" lon="4.59109">
        <ele>727.4</ele>
        <time>2025-11-11T10:53:49Z</time>
      </trkpt>
      <trkpt lat="45.70631" lon="4.59113">
        <ele>727.6</ele>
        <time>2025-11-11T10:53:50Z</time>
      </trkpt>
      <trkpt lat="45.7063" lon="4.59116">
        <ele>727.8</ele>
        <time>2025-11-11T10:53:51Z</time>
      </trkpt>
      <trkpt lat="45.70629" lon="4.5912">
        <ele>728</ele>
        <time>2025-11-11T10:53:52Z</time>
      </trkpt>
      <trkpt lat="45.70628" lon="4.59125">
        <ele>728.2</ele>
        <time>2025-11-11T10:53:53Z</time>
      </trkpt>
      <trkpt lat="45.70627" lon="4.59129">
        <ele>728.4</ele>
        <time>2025-11-11T10:53:54Z</time>
      </trkpt>
      <trkpt lat="45.70626" lon="4.59133">
        <ele>728.6</ele>
        <time>2025-11-11T10:53:55Z</time>
      </trkpt>
      <trkpt lat="45.70625" lon="4.59137">
        <ele>728.6</ele>
        <time>2025-11-11T10:53:56Z</time>
      </trkpt>
      <trkpt lat="45.70623" lon="4.59141">
        <ele>728.6</ele>
        <time>2025-11-11T10:53:57Z</time>
      </trkpt>
      <trkpt lat="45.70621" lon="4.59145">
        <ele>728.6</ele>
        <time>2025-11-11T10:53:58Z</time>
      </trkpt>
      <trkpt lat="45.70619" lon="4.59148">
        <ele>728.6</ele>
        <time>2025-11-11T10:53:59Z</time>
      </trkpt>
      <trkpt lat="45.70616" lon="4.59152">
        <ele>728.6</ele>
        <time>2025-11-11T10:54:00Z</time>
      </trkpt>
      <trkpt lat="45.70614" lon="4.59156">
        <ele>728.6</ele>
        <time>2025-11-11T10:54:01Z</time>
      </trkpt>
      <trkpt lat="45.70612" lon="4.5916">
        <ele>728.6</ele>
        <time>2025-11-11T10:54:02Z</time>
      </trkpt>
      <trkpt lat="45.70609" lon="4.59163">
        <ele>728.8</ele>
        <time>2025-11-11T10:54:03Z</time>
      </trkpt>
      <trkpt lat="45.70607" lon="4.59167">
        <ele>728.8</ele>
        <time>2025-11-11T10:54:04Z</time>
      </trkpt>
      <trkpt lat="45.70605" lon="4.59171">
        <ele>728.8</ele>
        <time>2025-11-11T10:54:05Z</time>
      </trkpt>
      <trkpt lat="45.70602" lon="4.59175">
        <ele>728.8</ele>
        <time>2025-11-11T10:54:06Z</time>
      </trkpt>
      <trkpt lat="45.706" lon="4.59179">
        <ele>729</ele>
        <time>2025-11-11T10:54:07Z</time>
      </trkpt>
      <trkpt lat="45.70598" lon="4.59183">
        <ele>729</ele>
        <time>2025-11-11T10:54:08Z</time>
      </trkpt>
      <trkpt lat="45.70596" lon="4.59188">
        <ele>729</ele>
        <time>2025-11-11T10:54:09Z</time>
      </trkpt>
      <trkpt lat="45.70594" lon="4.59192">
        <ele>729</ele>
        <time>2025-11-11T10:54:10Z</time>
      </trkpt>
      <trkpt lat="45.70591" lon="4.59196">
        <ele>729</ele>
        <time>2025-11-11T10:54:11Z</time>
      </trkpt>
      <trkpt lat="45.70589" lon="4.592">
        <ele>729</ele>
        <time>2025-11-11T10:54:12Z</time>
      </trkpt>
      <trkpt lat="45.70586" lon="4.59205">
        <ele>729</ele>
        <time>2025-11-11T10:54:13Z</time>
      </trkpt>
      <trkpt lat="45.70583" lon="4.59209">
        <ele>729</ele>
        <time>2025-11-11T10:54:14Z</time>
      </trkpt>
      <trkpt lat="45.7058" lon="4.59212">
        <ele>729</ele>
        <time>2025-11-11T10:54:15Z</time>
      </trkpt>
      <trkpt lat="45.70578" lon="4.59215">
        <ele>729</ele>
        <time>2025-11-11T10:54:16Z</time>
      </trkpt>
      <trkpt lat="45.70575" lon="4.59219">
        <ele>729</ele>
        <time>2025-11-11T10:54:17Z</time>
      </trkpt>
      <trkpt lat="45.70572" lon="4.59224">
        <ele>729.2</ele>
        <time>2025-11-11T10:54:18Z</time>
      </trkpt>
      <trkpt lat="45.7057" lon="4.59229">
        <ele>729</ele>
        <time>2025-11-11T10:54:19Z</time>
      </trkpt>
      <trkpt lat="45.70567" lon="4.59233">
        <ele>729</ele>
        <time>2025-11-11T10:54:20Z</time>
      </trkpt>
      <trkpt lat="45.70564" lon="4.59238">
        <ele>729</ele>
        <time>2025-11-11T10:54:21Z</time>
      </trkpt>
      <trkpt lat="45.70562" lon="4.59242">
        <ele>729</ele>
        <time>2025-11-11T10:54:22Z</time>
      </trkpt>
      <trkpt lat="45.7056" lon="4.59246">
        <ele>729</ele>
        <time>2025-11-11T10:54:23Z</time>
      </trkpt>
      <trkpt lat="45.70558" lon="4.5925">
        <ele>728.8</ele>
        <time>2025-11-11T10:54:24Z</time>
      </trkpt>
      <trkpt lat="45.70555" lon="4.59254">
        <ele>728.8</ele>
        <time>2025-11-11T10:54:25Z</time>
      </trkpt>
      <trkpt lat="45.70552" lon="4.59258">
        <ele>728.8</ele>
        <time>2025-11-11T10:54:26Z</time>
      </trkpt>
      <trkpt lat="45.7055" lon="4.59261">
        <ele>728.8</ele>
        <time>2025-11-11T10:54:27Z</time>
      </trkpt>
      <trkpt lat="45.70549" lon="4.59263">
        <ele>728.8</ele>
        <time>2025-11-11T10:54:28Z</time>
      </trkpt>
      <trkpt lat="45.70547" lon="4.59265">
        <ele>728.8</ele>
        <time>2025-11-11T10:54:29Z</time>
      </trkpt>
      <trkpt lat="45.70545" lon="4.59266">
        <ele>728.8</ele>
        <time>2025-11-11T10:54:30Z</time>
      </trkpt>
      <trkpt lat="45.70543" lon="4.59268">
        <ele>729</ele>
        <time>2025-11-11T10:54:31Z</time>
      </trkpt>
      <trkpt lat="45.70541" lon="4.59269">
        <ele>729</ele>
        <time>2025-11-11T10:54:32Z</time>
      </trkpt>
      <trkpt lat="45.70541" lon="4.59269">
        <ele>729.2</ele>
        <time>2025-11-11T10:54:33Z</time>
      </trkpt>
      <trkpt lat="45.70541" lon="4.59269">
        <ele>729.2</ele>
        <time>2025-11-11T10:54:34Z</time>
      </trkpt>
      <trkpt lat="45.70541" lon="4.59269">
        <ele>729.4</ele>
        <time>2025-11-11T10:54:35Z</time>
      </trkpt>
      <trkpt lat="45.70541" lon="4.59269">
        <ele>729.6</ele>
        <time>2025-11-11T10:54:36Z</time>
      </trkpt>
      <trkpt lat="45.70541" lon="4.59269">
        <ele>729.6</ele>
        <time>2025-11-11T10:54:37Z</time>
      </trkpt>
      <trkpt lat="45.70541" lon="4.59269">
        <ele>729.6</ele>
        <time>2025-11-11T10:54:38Z</time>
      </trkpt>
      <trkpt lat="45.70541" lon="4.59269">
        <ele>729.6</ele>
        <time>2025-11-11T10:54:39Z</time>
      </trkpt>
      <trkpt lat="45.70541" lon="4.59269">
        <ele>729.6</ele>
        <time>2025-11-11T10:54:40Z</time>
      </trkpt>
      <trkpt lat="45.70541" lon="4.59269">
        <ele>729.6</ele>
        <time>2025-11-11T10:54:41Z</time>
      </trkpt>
      <trkpt lat="45.70541" lon="4.59269">
        <ele>729.6</ele>
        <time>2025-11-11T10:54:42Z</time>
      </trkpt>
      <trkpt lat="45.70541" lon="4.59269">
        <ele>729.6</ele>
        <time>2025-11-11T10:54:43Z</time>
      </trkpt>
      <trkpt lat="45.70541" lon="4.59269">
        <ele>729.6</ele>
        <time>2025-11-11T10:54:44Z</time>
      </trkpt>
      <trkpt lat="45.70541" lon="4.59269">
        <ele>729.6</ele>
        <time>2025-11-11T10:54:45Z</time>
      </trkpt>
      <trkpt lat="45.70541" lon="4.59269">
        <ele>729.6</ele>
        <time>2025-11-11T10:54:46Z</time>
      </trkpt>
      <trkpt lat="45.70541" lon="4.59269">
        <ele>729.6</ele>
        <time>2025-11-11T10:54:47Z</time>
      </trkpt>
      <trkpt lat="45.70541" lon="4.59269">
        <ele>729.6</ele>
        <time>2025-11-11T10:54:48Z</time>
      </trkpt>
      <trkpt lat="45.70541" lon="4.59269">
        <ele>729.4</ele>
        <time>2025-11-11T10:54:49Z</time>
      </trkpt>
      <trkpt lat="45.70541" lon="4.59269">
        <ele>729.4</ele>
        <time>2025-11-11T10:54:50Z</time>
      </trkpt>
      <trkpt lat="45.70541" lon="4.59269">
        <ele>729.4</ele>
        <time>2025-11-11T10:54:51Z</time>
      </trkpt>
      <trkpt lat="45.70541" lon="4.59269">
        <ele>729.6</ele>
        <time>2025-11-11T10:54:52Z</time>
      </trkpt>
      <trkpt lat="45.70541" lon="4.59269">
        <ele>729.6</ele>
        <time>2025-11-11T10:54:53Z</time>
      </trkpt>
      <trkpt lat="45.70541" lon="4.59269">
        <ele>729.6</ele>
        <time>2025-11-11T10:54:54Z</time>
      </trkpt>
      <trkpt lat="45.70541" lon="4.59269">
        <ele>729.6</ele>
        <time>2025-11-11T10:54:55Z</time>
      </trkpt>
      <trkpt lat="45.70541" lon="4.59269">
        <ele>729.4</ele>
        <time>2025-11-11T10:54:56Z</time>
      </trkpt>
      <trkpt lat="45.70541" lon="4.59269">
        <ele>729.6</ele>
        <time>2025-11-11T10:54:57Z</time>
      </trkpt>
      <trkpt lat="45.70541" lon="4.59269">
        <ele>729.4</ele>
        <time>2025-11-11T10:54:58Z</time>
      </trkpt>
      <trkpt lat="45.70541" lon="4.59269">
        <ele>729.4</ele>
        <time>2025-11-11T10:54:59Z</time>
      </trkpt>
      <trkpt lat="45.70541" lon="4.59269">
        <ele>729.4</ele>
        <time>2025-11-11T10:55:00Z</time>
      </trkpt>
      <trkpt lat="45.70541" lon="4.59269">
        <ele>729.4</ele>
        <time>2025-11-11T10:55:01Z</time>
      </trkpt>
      <trkpt lat="45.70541" lon="4.59269">
        <ele>729.4</ele>
        <time>2025-11-11T10:55:02Z</time>
      </trkpt>
      <trkpt lat="45.70541" lon="4.59269">
        <ele>729.4</ele>
        <time>2025-11-11T10:55:03Z</time>
      </trkpt>
      <trkpt lat="45.70541" lon="4.59269">
        <ele>729.4</ele>
        <time>2025-11-11T10:55:04Z</time>
      </trkpt>
      <trkpt lat="45.70541" lon="4.59269">
        <ele>729.6</ele>
        <time>2025-11-11T10:55:05Z</time>
      </trkpt>
      <trkpt lat="45.70541" lon="4.59269">
        <ele>729.6</ele>
        <time>2025-11-11T10:55:06Z</time>
      </trkpt>
      <trkpt lat="45.70541" lon="4.59269">
        <ele>729.6</ele>
        <time>2025-11-11T10:55:07Z</time>
      </trkpt>
      <trkpt lat="45.70541" lon="4.59269">
        <ele>729.6</ele>
        <time>2025-11-11T10:55:08Z</time>
      </trkpt>
      <trkpt lat="45.70541" lon="4.59269">
        <ele>729.6</ele>
        <time>2025-11-11T10:55:09Z</time>
      </trkpt>
      <trkpt lat="45.70541" lon="4.59269">
        <ele>729.6</ele>
        <time>2025-11-11T10:55:10Z</time>
      </trkpt>
      <trkpt lat="45.70541" lon="4.59269">
        <ele>729.6</ele>
        <time>2025-11-11T10:55:11Z</time>
      </trkpt>
      <trkpt lat="45.70541" lon="4.59269">
        <ele>729.6</ele>
        <time>2025-11-11T10:55:12Z</time>
      </trkpt>
      <trkpt lat="45.70541" lon="4.59269">
        <ele>729.6</ele>
        <time>2025-11-11T10:55:13Z</time>
      </trkpt>
      <trkpt lat="45.70541" lon="4.59269">
        <ele>729.6</ele>
        <time>2025-11-11T10:55:14Z</time>
      </trkpt>
      <trkpt lat="45.70541" lon="4.59269">
        <ele>729.6</ele>
        <time>2025-11-11T10:55:15Z</time>
      </trkpt>
      <trkpt lat="45.70541" lon="4.59269">
        <ele>729.6</ele>
        <time>2025-11-11T10:55:16Z</time>
      </trkpt>
      <trkpt lat="45.70541" lon="4.59269">
        <ele>729.6</ele>
        <time>2025-11-11T10:55:17Z</time>
      </trkpt>
      <trkpt lat="45.70541" lon="4.59269">
        <ele>729.6</ele>
        <time>2025-11-11T10:55:18Z</time>
      </trkpt>
      <trkpt lat="45.70541" lon="4.59269">
        <ele>729.6</ele>
        <time>2025-11-11T10:55:19Z</time>
      </trkpt>
      <trkpt lat="45.70541" lon="4.59269">
        <ele>729.4</ele>
        <time>2025-11-11T10:55:20Z</time>
      </trkpt>
      <trkpt lat="45.70541" lon="4.59269">
        <ele>729.4</ele>
        <time>2025-11-11T10:55:21Z</time>
      </trkpt>
      <trkpt lat="45.70541" lon="4.59269">
        <ele>729.4</ele>
        <time>2025-11-11T10:55:22Z</time>
      </trkpt>
      <trkpt lat="45.70541" lon="4.59269">
        <ele>729.4</ele>
        <time>2025-11-11T10:55:23Z</time>
      </trkpt>
      <trkpt lat="45.70541" lon="4.59269">
        <ele>729.4</ele>
        <time>2025-11-11T10:55:24Z</time>
      </trkpt>
      <trkpt lat="45.70541" lon="4.59269">
        <ele>729.4</ele>
        <time>2025-11-11T10:55:25Z</time>
      </trkpt>
      <trkpt lat="45.7054" lon="4.5927">
        <ele>729.4</ele>
        <time>2025-11-11T10:55:26Z</time>
      </trkpt>
      <trkpt lat="45.70539" lon="4.59272">
        <ele>729.4</ele>
        <time>2025-11-11T10:55:27Z</time>
      </trkpt>
      <trkpt lat="45.70537" lon="4.59273">
        <ele>729.4</ele>
        <time>2025-11-11T10:55:28Z</time>
      </trkpt>
      <trkpt lat="45.70534" lon="4.59276">
        <ele>729.4</ele>
        <time>2025-11-11T10:55:29Z</time>
      </trkpt>
      <trkpt lat="45.70531" lon="4.59278">
        <ele>729.2</ele>
        <time>2025-11-11T10:55:30Z</time>
      </trkpt>
      <trkpt lat="45.70528" lon="4.5928">
        <ele>729</ele>
        <time>2025-11-11T10:55:31Z</time>
      </trkpt>
      <trkpt lat="45.70524" lon="4.59282">
        <ele>728.8</ele>
        <time>2025-11-11T10:55:32Z</time>
      </trkpt>
      <trkpt lat="45.7052" lon="4.59285">
        <ele>728.8</ele>
        <time>2025-11-11T10:55:33Z</time>
      </trkpt>
      <trkpt lat="45.70517" lon="4.59286">
        <ele>728.6</ele>
        <time>2025-11-11T10:55:34Z</time>
      </trkpt>
      <trkpt lat="45.70514" lon="4.59288">
        <ele>728.6</ele>
        <time>2025-11-11T10:55:35Z</time>
      </trkpt>
      <trkpt lat="45.70511" lon="4.5929">
        <ele>728.6</ele>
        <time>2025-11-11T10:55:36Z</time>
      </trkpt>
      <trkpt lat="45.70507" lon="4.59293">
        <ele>728.6</ele>
        <time>2025-11-11T10:55:37Z</time>
      </trkpt>
      <trkpt lat="45.70503" lon="4.59295">
        <ele>728.6</ele>
        <time>2025-11-11T10:55:38Z</time>
      </trkpt>
      <trkpt lat="45.705" lon="4.59297">
        <ele>728.6</ele>
        <time>2025-11-11T10:55:39Z</time>
      </trkpt>
      <trkpt lat="45.70497" lon="4.59299">
        <ele>728.6</ele>
        <time>2025-11-11T10:55:40Z</time>
      </trkpt>
      <trkpt lat="45.70493" lon="4.59302">
        <ele>728.6</ele>
        <time>2025-11-11T10:55:41Z</time>
      </trkpt>
      <trkpt lat="45.70489" lon="4.59305">
        <ele>728.6</ele>
        <time>2025-11-11T10:55:42Z</time>
      </trkpt>
      <trkpt lat="45.70485" lon="4.59307">
        <ele>728.6</ele>
        <time>2025-11-11T10:55:43Z</time>
      </trkpt>
      <trkpt lat="45.70483" lon="4.59308">
        <ele>728.6</ele>
        <time>2025-11-11T10:55:44Z</time>
      </trkpt>
      <trkpt lat="45.70479" lon="4.59311">
        <ele>728.6</ele>
        <time>2025-11-11T10:55:45Z</time>
      </trkpt>
      <trkpt lat="45.70475" lon="4.59314">
        <ele>728.4</ele>
        <time>2025-11-11T10:55:46Z</time>
      </trkpt>
      <trkpt lat="45.70471" lon="4.59317">
        <ele>728.2</ele>
        <time>2025-11-11T10:55:47Z</time>
      </trkpt>
      <trkpt lat="45.70468" lon="4.59319">
        <ele>728</ele>
        <time>2025-11-11T10:55:48Z</time>
      </trkpt>
      <trkpt lat="45.70464" lon="4.59321">
        <ele>728</ele>
        <time>2025-11-11T10:55:49Z</time>
      </trkpt>
      <trkpt lat="45.7046" lon="4.59325">
        <ele>728</ele>
        <time>2025-11-11T10:55:50Z</time>
      </trkpt>
      <trkpt lat="45.70457" lon="4.5933">
        <ele>728</ele>
        <time>2025-11-11T10:55:51Z</time>
      </trkpt>
      <trkpt lat="45.70456" lon="4.59334">
        <ele>728.2</ele>
        <time>2025-11-11T10:55:52Z</time>
      </trkpt>
      <trkpt lat="45.70454" lon="4.5934">
        <ele>728.6</ele>
        <time>2025-11-11T10:55:53Z</time>
      </trkpt>
      <trkpt lat="45.70452" lon="4.59345">
        <ele>728.8</ele>
        <time>2025-11-11T10:55:54Z</time>
      </trkpt>
      <trkpt lat="45.7045" lon="4.59352">
        <ele>729.2</ele>
        <time>2025-11-11T10:55:55Z</time>
      </trkpt>
      <trkpt lat="45.70448" lon="4.59357">
        <ele>729.4</ele>
        <time>2025-11-11T10:55:56Z</time>
      </trkpt>
      <trkpt lat="45.70446" lon="4.59362">
        <ele>729.6</ele>
        <time>2025-11-11T10:55:57Z</time>
      </trkpt>
      <trkpt lat="45.70444" lon="4.59368">
        <ele>729.6</ele>
        <time>2025-11-11T10:55:58Z</time>
      </trkpt>
      <trkpt lat="45.70442" lon="4.59374">
        <ele>729.8</ele>
        <time>2025-11-11T10:55:59Z</time>
      </trkpt>
      <trkpt lat="45.70439" lon="4.59381">
        <ele>730</ele>
        <time>2025-11-11T10:56:00Z</time>
      </trkpt>
      <trkpt lat="45.70437" lon="4.59386">
        <ele>730</ele>
        <time>2025-11-11T10:56:01Z</time>
      </trkpt>
      <trkpt lat="45.70435" lon="4.59392">
        <ele>730.4</ele>
        <time>2025-11-11T10:56:02Z</time>
      </trkpt>
      <trkpt lat="45.70433" lon="4.59399">
        <ele>730.6</ele>
        <time>2025-11-11T10:56:03Z</time>
      </trkpt>
      <trkpt lat="45.70431" lon="4.59404">
        <ele>731</ele>
        <time>2025-11-11T10:56:04Z</time>
      </trkpt>
      <trkpt lat="45.70429" lon="4.59409">
        <ele>731.6</ele>
        <time>2025-11-11T10:56:05Z</time>
      </trkpt>
      <trkpt lat="45.70427" lon="4.59413">
        <ele>732</ele>
        <time>2025-11-11T10:56:06Z</time>
      </trkpt>
      <trkpt lat="45.70425" lon="4.59418">
        <ele>732.4</ele>
        <time>2025-11-11T10:56:07Z</time>
      </trkpt>
      <trkpt lat="45.70423" lon="4.59423">
        <ele>732.8</ele>
        <time>2025-11-11T10:56:08Z</time>
      </trkpt>
      <trkpt lat="45.70422" lon="4.59427">
        <ele>733.4</ele>
        <time>2025-11-11T10:56:09Z</time>
      </trkpt>
      <trkpt lat="45.7042" lon="4.59431">
        <ele>733.8</ele>
        <time>2025-11-11T10:56:10Z</time>
      </trkpt>
      <trkpt lat="45.70419" lon="4.59434">
        <ele>734.4</ele>
        <time>2025-11-11T10:56:11Z</time>
      </trkpt>
      <trkpt lat="45.70418" lon="4.59438">
        <ele>734.8</ele>
        <time>2025-11-11T10:56:12Z</time>
      </trkpt>
      <trkpt lat="45.70417" lon="4.59441">
        <ele>735.4</ele>
        <time>2025-11-11T10:56:13Z</time>
      </trkpt>
      <trkpt lat="45.70415" lon="4.59444">
        <ele>736</ele>
        <time>2025-11-11T10:56:14Z</time>
      </trkpt>
      <trkpt lat="45.70414" lon="4.59447">
        <ele>736.4</ele>
        <time>2025-11-11T10:56:15Z</time>
      </trkpt>
      <trkpt lat="45.70412" lon="4.59451">
        <ele>736.8</ele>
        <time>2025-11-11T10:56:16Z</time>
      </trkpt>
      <trkpt lat="45.70411" lon="4.59455">
        <ele>737.4</ele>
        <time>2025-11-11T10:56:17Z</time>
      </trkpt>
      <trkpt lat="45.7041" lon="4.59459">
        <ele>737.8</ele>
        <time>2025-11-11T10:56:18Z</time>
      </trkpt>
      <trkpt lat="45.70408" lon="4.59463">
        <ele>738.2</ele>
        <time>2025-11-11T10:56:19Z</time>
      </trkpt>
      <trkpt lat="45.70406" lon="4.59466">
        <ele>738.8</ele>
        <time>2025-11-11T10:56:20Z</time>
      </trkpt>
      <trkpt lat="45.70405" lon="4.5947">
        <ele>739.2</ele>
        <time>2025-11-11T10:56:21Z</time>
      </trkpt>
      <trkpt lat="45.70403" lon="4.59474">
        <ele>739.6</ele>
        <time>2025-11-11T10:56:22Z</time>
      </trkpt>
      <trkpt lat="45.70402" lon="4.59478">
        <ele>740</ele>
        <time>2025-11-11T10:56:23Z</time>
      </trkpt>
      <trkpt lat="45.70401" lon="4.59482">
        <ele>740.4</ele>
        <time>2025-11-11T10:56:24Z</time>
      </trkpt>
      <trkpt lat="45.704" lon="4.59487">
        <ele>740.8</ele>
        <time>2025-11-11T10:56:25Z</time>
      </trkpt>
      <trkpt lat="45.70399" lon="4.59492">
        <ele>741</ele>
        <time>2025-11-11T10:56:26Z</time>
      </trkpt>
      <trkpt lat="45.70398" lon="4.59497">
        <ele>741.4</ele>
        <time>2025-11-11T10:56:27Z</time>
      </trkpt>
      <trkpt lat="45.70398" lon="4.59501">
        <ele>741.6</ele>
        <time>2025-11-11T10:56:28Z</time>
      </trkpt>
      <trkpt lat="45.70397" lon="4.59506">
        <ele>742</ele>
        <time>2025-11-11T10:56:29Z</time>
      </trkpt>
      <trkpt lat="45.70397" lon="4.59511">
        <ele>742.2</ele>
        <time>2025-11-11T10:56:30Z</time>
      </trkpt>
      <trkpt lat="45.70396" lon="4.59516">
        <ele>742.4</ele>
        <time>2025-11-11T10:56:31Z</time>
      </trkpt>
      <trkpt lat="45.70396" lon="4.5952">
        <ele>742.6</ele>
        <time>2025-11-11T10:56:32Z</time>
      </trkpt>
      <trkpt lat="45.70395" lon="4.59524">
        <ele>742.6</ele>
        <time>2025-11-11T10:56:33Z</time>
      </trkpt>
      <trkpt lat="45.70394" lon="4.59529">
        <ele>742.8</ele>
        <time>2025-11-11T10:56:34Z</time>
      </trkpt>
      <trkpt lat="45.70394" lon="4.59533">
        <ele>743</ele>
        <time>2025-11-11T10:56:35Z</time>
      </trkpt>
      <trkpt lat="45.70393" lon="4.59537">
        <ele>743.2</ele>
        <time>2025-11-11T10:56:36Z</time>
      </trkpt>
      <trkpt lat="45.70392" lon="4.59542">
        <ele>743.6</ele>
        <time>2025-11-11T10:56:37Z</time>
      </trkpt>
      <trkpt lat="45.70391" lon="4.59547">
        <ele>743.8</ele>
        <time>2025-11-11T10:56:38Z</time>
      </trkpt>
      <trkpt lat="45.70391" lon="4.59551">
        <ele>744.2</ele>
        <time>2025-11-11T10:56:39Z</time>
      </trkpt>
      <trkpt lat="45.7039" lon="4.59555">
        <ele>744.4</ele>
        <time>2025-11-11T10:56:40Z</time>
      </trkpt>
      <trkpt lat="45.70389" lon="4.59559">
        <ele>744.8</ele>
        <time>2025-11-11T10:56:41Z</time>
      </trkpt>
      <trkpt lat="45.70388" lon="4.59563">
        <ele>745.2</ele>
        <time>2025-11-11T10:56:42Z</time>
      </trkpt>
      <trkpt lat="45.70387" lon="4.59567">
        <ele>745.6</ele>
        <time>2025-11-11T10:56:43Z</time>
      </trkpt>
      <trkpt lat="45.70386" lon="4.59571">
        <ele>746</ele>
        <time>2025-11-11T10:56:44Z</time>
      </trkpt>
      <trkpt lat="45.70386" lon="4.59575">
        <ele>746.4</ele>
        <time>2025-11-11T10:56:45Z</time>
      </trkpt>
      <trkpt lat="45.70386" lon="4.59578">
        <ele>747</ele>
        <time>2025-11-11T10:56:46Z</time>
      </trkpt>
      <trkpt lat="45.70387" lon="4.59582">
        <ele>747.4</ele>
        <time>2025-11-11T10:56:47Z</time>
      </trkpt>
      <trkpt lat="45.70389" lon="4.59584">
        <ele>747.8</ele>
        <time>2025-11-11T10:56:48Z</time>
      </trkpt>
      <trkpt lat="45.70392" lon="4.59585">
        <ele>748.4</ele>
        <time>2025-11-11T10:56:49Z</time>
      </trkpt>
      <trkpt lat="45.70394" lon="4.59586">
        <ele>748.6</ele>
        <time>2025-11-11T10:56:50Z</time>
      </trkpt>
      <trkpt lat="45.70398" lon="4.59587">
        <ele>749</ele>
        <time>2025-11-11T10:56:51Z</time>
      </trkpt>
      <trkpt lat="45.70401" lon="4.59588">
        <ele>749.4</ele>
        <time>2025-11-11T10:56:52Z</time>
      </trkpt>
      <trkpt lat="45.70403" lon="4.59589">
        <ele>749.8</ele>
        <time>2025-11-11T10:56:53Z</time>
      </trkpt>
      <trkpt lat="45.70406" lon="4.5959">
        <ele>750</ele>
        <time>2025-11-11T10:56:54Z</time>
      </trkpt>
      <trkpt lat="45.7041" lon="4.59592">
        <ele>750.4</ele>
        <time>2025-11-11T10:56:55Z</time>
      </trkpt>
      <trkpt lat="45.70413" lon="4.59593">
        <ele>750.6</ele>
        <time>2025-11-11T10:56:56Z</time>
      </trkpt>
      <trkpt lat="45.70415" lon="4.59595">
        <ele>751</ele>
        <time>2025-11-11T10:56:57Z</time>
      </trkpt>
      <trkpt lat="45.70418" lon="4.59596">
        <ele>751.2</ele>
        <time>2025-11-11T10:56:58Z</time>
      </trkpt>
      <trkpt lat="45.70422" lon="4.59599">
        <ele>751.4</ele>
        <time>2025-11-11T10:56:59Z</time>
      </trkpt>
      <trkpt lat="45.70424" lon="4.59602">
        <ele>751.8</ele>
        <time>2025-11-11T10:57:00Z</time>
      </trkpt>
      <trkpt lat="45.70427" lon="4.59606">
        <ele>751.8</ele>
        <time>2025-11-11T10:57:01Z</time>
      </trkpt>
      <trkpt lat="45.70429" lon="4.59609">
        <ele>752</ele>
        <time>2025-11-11T10:57:02Z</time>
      </trkpt>
      <trkpt lat="45.70432" lon="4.59612">
        <ele>751.8</ele>
        <time>2025-11-11T10:57:03Z</time>
      </trkpt>
      <trkpt lat="45.70436" lon="4.59617">
        <ele>751.8</ele>
        <time>2025-11-11T10:57:04Z</time>
      </trkpt>
      <trkpt lat="45.70439" lon="4.59621">
        <ele>751.6</ele>
        <time>2025-11-11T10:57:05Z</time>
      </trkpt>
      <trkpt lat="45.70442" lon="4.59625">
        <ele>751.4</ele>
        <time>2025-11-11T10:57:06Z</time>
      </trkpt>
      <trkpt lat="45.70444" lon="4.5963">
        <ele>751.2</ele>
        <time>2025-11-11T10:57:07Z</time>
      </trkpt>
      <trkpt lat="45.70445" lon="4.59637">
        <ele>751</ele>
        <time>2025-11-11T10:57:08Z</time>
      </trkpt>
      <trkpt lat="45.70447" lon="4.59642">
        <ele>751</ele>
        <time>2025-11-11T10:57:09Z</time>
      </trkpt>
      <trkpt lat="45.70449" lon="4.59647">
        <ele>750.8</ele>
        <time>2025-11-11T10:57:10Z</time>
      </trkpt>
      <trkpt lat="45.70452" lon="4.59653">
        <ele>750.2</ele>
        <time>2025-11-11T10:57:11Z</time>
      </trkpt>
      <trkpt lat="45.70457" lon="4.59661">
        <ele>749.8</ele>
        <time>2025-11-11T10:57:12Z</time>
      </trkpt>
      <trkpt lat="45.7046" lon="4.59668">
        <ele>749.2</ele>
        <time>2025-11-11T10:57:13Z</time>
      </trkpt>
      <trkpt lat="45.70463" lon="4.59676">
        <ele>748.6</ele>
        <time>2025-11-11T10:57:14Z</time>
      </trkpt>
      <trkpt lat="45.70465" lon="4.59683">
        <ele>748</ele>
        <time>2025-11-11T10:57:15Z</time>
      </trkpt>
      <trkpt lat="45.70467" lon="4.59691">
        <ele>747.6</ele>
        <time>2025-11-11T10:57:16Z</time>
      </trkpt>
      <trkpt lat="45.70469" lon="4.597">
        <ele>747.4</ele>
        <time>2025-11-11T10:57:17Z</time>
      </trkpt>
      <trkpt lat="45.7047" lon="4.59709">
        <ele>747.2</ele>
        <time>2025-11-11T10:57:18Z</time>
      </trkpt>
      <trkpt lat="45.70472" lon="4.59716">
        <ele>747</ele>
        <time>2025-11-11T10:57:19Z</time>
      </trkpt>
      <trkpt lat="45.70473" lon="4.59725">
        <ele>747</ele>
        <time>2025-11-11T10:57:20Z</time>
      </trkpt>
      <trkpt lat="45.70475" lon="4.59735">
        <ele>746.8</ele>
        <time>2025-11-11T10:57:21Z</time>
      </trkpt>
      <trkpt lat="45.70476" lon="4.59742">
        <ele>747</ele>
        <time>2025-11-11T10:57:22Z</time>
      </trkpt>
      <trkpt lat="45.70478" lon="4.59748">
        <ele>747</ele>
        <time>2025-11-11T10:57:23Z</time>
      </trkpt>
      <trkpt lat="45.70479" lon="4.59755">
        <ele>747.4</ele>
        <time>2025-11-11T10:57:24Z</time>
      </trkpt>
      <trkpt lat="45.70481" lon="4.59763">
        <ele>747.6</ele>
        <time>2025-11-11T10:57:25Z</time>
      </trkpt>
      <trkpt lat="45.70482" lon="4.5977">
        <ele>747.8</ele>
        <time>2025-11-11T10:57:26Z</time>
      </trkpt>
      <trkpt lat="45.70483" lon="4.59777">
        <ele>748</ele>
        <time>2025-11-11T10:57:27Z</time>
      </trkpt>
      <trkpt lat="45.70484" lon="4.59783">
        <ele>748.2</ele>
        <time>2025-11-11T10:57:28Z</time>
      </trkpt>
      <trkpt lat="45.70485" lon="4.59791">
        <ele>748.4</ele>
        <time>2025-11-11T10:57:29Z</time>
      </trkpt>
      <trkpt lat="45.70485" lon="4.598">
        <ele>748.6</ele>
        <time>2025-11-11T10:57:30Z</time>
      </trkpt>
      <trkpt lat="45.70486" lon="4.59805">
        <ele>749</ele>
        <time>2025-11-11T10:57:31Z</time>
      </trkpt>
      <trkpt lat="45.70487" lon="4.59812">
        <ele>749.4</ele>
        <time>2025-11-11T10:57:32Z</time>
      </trkpt>
      <trkpt lat="45.70488" lon="4.59819">
        <ele>749.8</ele>
        <time>2025-11-11T10:57:33Z</time>
      </trkpt>
      <trkpt lat="45.70489" lon="4.59827">
        <ele>750.2</ele>
        <time>2025-11-11T10:57:34Z</time>
      </trkpt>
      <trkpt lat="45.7049" lon="4.59834">
        <ele>750.6</ele>
        <time>2025-11-11T10:57:35Z</time>
      </trkpt>
      <trkpt lat="45.7049" lon="4.59839">
        <ele>750.8</ele>
        <time>2025-11-11T10:57:36Z</time>
      </trkpt>
      <trkpt lat="45.7049" lon="4.59847">
        <ele>751.2</ele>
        <time>2025-11-11T10:57:37Z</time>
      </trkpt>
      <trkpt lat="45.70491" lon="4.59856">
        <ele>751.4</ele>
        <time>2025-11-11T10:57:38Z</time>
      </trkpt>
      <trkpt lat="45.70491" lon="4.59864">
        <ele>751.8</ele>
        <time>2025-11-11T10:57:39Z</time>
      </trkpt>
      <trkpt lat="45.7049" lon="4.5987">
        <ele>752</ele>
        <time>2025-11-11T10:57:40Z</time>
      </trkpt>
      <trkpt lat="45.7049" lon="4.59877">
        <ele>752</ele>
        <time>2025-11-11T10:57:41Z</time>
      </trkpt>
      <trkpt lat="45.70489" lon="4.59885">
        <ele>752.2</ele>
        <time>2025-11-11T10:57:42Z</time>
      </trkpt>
      <trkpt lat="45.70488" lon="4.59894">
        <ele>752</ele>
        <time>2025-11-11T10:57:43Z</time>
      </trkpt>
      <trkpt lat="45.70487" lon="4.59902">
        <ele>752</ele>
        <time>2025-11-11T10:57:44Z</time>
      </trkpt>
      <trkpt lat="45.70485" lon="4.59908">
        <ele>752</ele>
        <time>2025-11-11T10:57:45Z</time>
      </trkpt>
      <trkpt lat="45.70484" lon="4.59916">
        <ele>751.8</ele>
        <time>2025-11-11T10:57:46Z</time>
      </trkpt>
      <trkpt lat="45.70483" lon="4.59924">
        <ele>751.8</ele>
        <time>2025-11-11T10:57:47Z</time>
      </trkpt>
      <trkpt lat="45.70481" lon="4.59932">
        <ele>752</ele>
        <time>2025-11-11T10:57:48Z</time>
      </trkpt>
      <trkpt lat="45.7048" lon="4.59939">
        <ele>752</ele>
        <time>2025-11-11T10:57:49Z</time>
      </trkpt>
      <trkpt lat="45.70478" lon="4.59947">
        <ele>752.2</ele>
        <time>2025-11-11T10:57:50Z</time>
      </trkpt>
      <trkpt lat="45.70475" lon="4.59956">
        <ele>752.2</ele>
        <time>2025-11-11T10:57:51Z</time>
      </trkpt>
      <trkpt lat="45.70473" lon="4.59963">
        <ele>752.4</ele>
        <time>2025-11-11T10:57:52Z</time>
      </trkpt>
      <trkpt lat="45.70471" lon="4.5997">
        <ele>752.6</ele>
        <time>2025-11-11T10:57:53Z</time>
      </trkpt>
      <trkpt lat="45.70469" lon="4.59978">
        <ele>752.6</ele>
        <time>2025-11-11T10:57:54Z</time>
      </trkpt>
      <trkpt lat="45.70468" lon="4.59988">
        <ele>752.6</ele>
        <time>2025-11-11T10:57:55Z</time>
      </trkpt>
      <trkpt lat="45.70466" lon="4.59997">
        <ele>752.8</ele>
        <time>2025-11-11T10:57:56Z</time>
      </trkpt>
      <trkpt lat="45.70465" lon="4.60007">
        <ele>752.8</ele>
        <time>2025-11-11T10:57:57Z</time>
      </trkpt>
      <trkpt lat="45.70464" lon="4.60015">
        <ele>752.8</ele>
        <time>2025-11-11T10:57:58Z</time>
      </trkpt>
      <trkpt lat="45.70462" lon="4.60022">
        <ele>753</ele>
        <time>2025-11-11T10:57:59Z</time>
      </trkpt>
      <trkpt lat="45.7046" lon="4.60031">
        <ele>753</ele>
        <time>2025-11-11T10:58:00Z</time>
      </trkpt>
      <trkpt lat="45.7046" lon="4.60037">
        <ele>753</ele>
        <time>2025-11-11T10:58:01Z</time>
      </trkpt>
      <trkpt lat="45.70459" lon="4.60044">
        <ele>753.2</ele>
        <time>2025-11-11T10:58:02Z</time>
      </trkpt>
      <trkpt lat="45.70458" lon="4.6005">
        <ele>753.4</ele>
        <time>2025-11-11T10:58:03Z</time>
      </trkpt>
      <trkpt lat="45.70458" lon="4.60058">
        <ele>753.6</ele>
        <time>2025-11-11T10:58:04Z</time>
      </trkpt>
      <trkpt lat="45.70458" lon="4.60064">
        <ele>754</ele>
        <time>2025-11-11T10:58:05Z</time>
      </trkpt>
      <trkpt lat="45.70458" lon="4.60069">
        <ele>754.2</ele>
        <time>2025-11-11T10:58:06Z</time>
      </trkpt>
      <trkpt lat="45.70458" lon="4.60074">
        <ele>754.4</ele>
        <time>2025-11-11T10:58:07Z</time>
      </trkpt>
      <trkpt lat="45.70458" lon="4.60079">
        <ele>754.6</ele>
        <time>2025-11-11T10:58:08Z</time>
      </trkpt>
      <trkpt lat="45.70459" lon="4.60084">
        <ele>754.8</ele>
        <time>2025-11-11T10:58:09Z</time>
      </trkpt>
      <trkpt lat="45.7046" lon="4.60088">
        <ele>754.8</ele>
        <time>2025-11-11T10:58:10Z</time>
      </trkpt>
      <trkpt lat="45.70459" lon="4.60091">
        <ele>754.8</ele>
        <time>2025-11-11T10:58:11Z</time>
      </trkpt>
      <trkpt lat="45.70459" lon="4.60096">
        <ele>754.8</ele>
        <time>2025-11-11T10:58:12Z</time>
      </trkpt>
      <trkpt lat="45.70458" lon="4.60103">
        <ele>754.6</ele>
        <time>2025-11-11T10:58:13Z</time>
      </trkpt>
      <trkpt lat="45.70458" lon="4.60109">
        <ele>754.6</ele>
        <time>2025-11-11T10:58:14Z</time>
      </trkpt>
      <trkpt lat="45.70458" lon="4.60113">
        <ele>754.6</ele>
        <time>2025-11-11T10:58:15Z</time>
      </trkpt>
      <trkpt lat="45.70458" lon="4.60118">
        <ele>754.6</ele>
        <time>2025-11-11T10:58:16Z</time>
      </trkpt>
      <trkpt lat="45.70458" lon="4.60124">
        <ele>754.6</ele>
        <time>2025-11-11T10:58:17Z</time>
      </trkpt>
      <trkpt lat="45.70458" lon="4.60129">
        <ele>754.8</ele>
        <time>2025-11-11T10:58:18Z</time>
      </trkpt>
      <trkpt lat="45.70459" lon="4.60132">
        <ele>755</ele>
        <time>2025-11-11T10:58:19Z</time>
      </trkpt>
      <trkpt lat="45.7046" lon="4.60137">
        <ele>755.2</ele>
        <time>2025-11-11T10:58:20Z</time>
      </trkpt>
      <trkpt lat="45.70461" lon="4.60141">
        <ele>755.4</ele>
        <time>2025-11-11T10:58:21Z</time>
      </trkpt>
      <trkpt lat="45.70462" lon="4.60146">
        <ele>755.4</ele>
        <time>2025-11-11T10:58:22Z</time>
      </trkpt>
      <trkpt lat="45.70463" lon="4.60151">
        <ele>755.4</ele>
        <time>2025-11-11T10:58:23Z</time>
      </trkpt>
      <trkpt lat="45.70465" lon="4.60155">
        <ele>755.4</ele>
        <time>2025-11-11T10:58:24Z</time>
      </trkpt>
      <trkpt lat="45.70466" lon="4.60161">
        <ele>755.4</ele>
        <time>2025-11-11T10:58:25Z</time>
      </trkpt>
      <trkpt lat="45.70467" lon="4.60166">
        <ele>755.2</ele>
        <time>2025-11-11T10:58:26Z</time>
      </trkpt>
      <trkpt lat="45.70468" lon="4.60172">
        <ele>755.2</ele>
        <time>2025-11-11T10:58:27Z</time>
      </trkpt>
      <trkpt lat="45.70468" lon="4.60179">
        <ele>755</ele>
        <time>2025-11-11T10:58:28Z</time>
      </trkpt>
      <trkpt lat="45.70468" lon="4.60185">
        <ele>755</ele>
        <time>2025-11-11T10:58:29Z</time>
      </trkpt>
      <trkpt lat="45.70468" lon="4.60192">
        <ele>754.8</ele>
        <time>2025-11-11T10:58:30Z</time>
      </trkpt>
      <trkpt lat="45.70468" lon="4.602">
        <ele>754.8</ele>
        <time>2025-11-11T10:58:31Z</time>
      </trkpt>
      <trkpt lat="45.70468" lon="4.60206">
        <ele>754.8</ele>
        <time>2025-11-11T10:58:32Z</time>
      </trkpt>
      <trkpt lat="45.70469" lon="4.60215">
        <ele>754.8</ele>
        <time>2025-11-11T10:58:33Z</time>
      </trkpt>
      <trkpt lat="45.70469" lon="4.60222">
        <ele>755</ele>
        <time>2025-11-11T10:58:34Z</time>
      </trkpt>
      <trkpt lat="45.70469" lon="4.60229">
        <ele>755.2</ele>
        <time>2025-11-11T10:58:35Z</time>
      </trkpt>
      <trkpt lat="45.70469" lon="4.60235">
        <ele>755.4</ele>
        <time>2025-11-11T10:58:36Z</time>
      </trkpt>
      <trkpt lat="45.70469" lon="4.60242">
        <ele>755.6</ele>
        <time>2025-11-11T10:58:37Z</time>
      </trkpt>
      <trkpt lat="45.70468" lon="4.60247">
        <ele>756</ele>
        <time>2025-11-11T10:58:38Z</time>
      </trkpt>
      <trkpt lat="45.70468" lon="4.60254">
        <ele>756.2</ele>
        <time>2025-11-11T10:58:39Z</time>
      </trkpt>
      <trkpt lat="45.70469" lon="4.6026">
        <ele>756.6</ele>
        <time>2025-11-11T10:58:40Z</time>
      </trkpt>
      <trkpt lat="45.70469" lon="4.60265">
        <ele>757</ele>
        <time>2025-11-11T10:58:41Z</time>
      </trkpt>
      <trkpt lat="45.70469" lon="4.6027">
        <ele>757.2</ele>
        <time>2025-11-11T10:58:42Z</time>
      </trkpt>
      <trkpt lat="45.70469" lon="4.60277">
        <ele>757.6</ele>
        <time>2025-11-11T10:58:43Z</time>
      </trkpt>
      <trkpt lat="45.7047" lon="4.60282">
        <ele>758</ele>
        <time>2025-11-11T10:58:44Z</time>
      </trkpt>
      <trkpt lat="45.7047" lon="4.60287">
        <ele>758.4</ele>
        <time>2025-11-11T10:58:45Z</time>
      </trkpt>
      <trkpt lat="45.70471" lon="4.60292">
        <ele>758.8</ele>
        <time>2025-11-11T10:58:46Z</time>
      </trkpt>
      <trkpt lat="45.70472" lon="4.60299">
        <ele>759.2</ele>
        <time>2025-11-11T10:58:47Z</time>
      </trkpt>
      <trkpt lat="45.70472" lon="4.60303">
        <ele>759.6</ele>
        <time>2025-11-11T10:58:48Z</time>
      </trkpt>
      <trkpt lat="45.70473" lon="4.60308">
        <ele>760</ele>
        <time>2025-11-11T10:58:49Z</time>
      </trkpt>
      <trkpt lat="45.70473" lon="4.60314">
        <ele>760.4</ele>
        <time>2025-11-11T10:58:50Z</time>
      </trkpt>
      <trkpt lat="45.70473" lon="4.6032">
        <ele>760.6</ele>
        <time>2025-11-11T10:58:51Z</time>
      </trkpt>
      <trkpt lat="45.70473" lon="4.60327">
        <ele>761</ele>
        <time>2025-11-11T10:58:52Z</time>
      </trkpt>
      <trkpt lat="45.70474" lon="4.60333">
        <ele>761.4</ele>
        <time>2025-11-11T10:58:53Z</time>
      </trkpt>
      <trkpt lat="45.70474" lon="4.60338">
        <ele>761.8</ele>
        <time>2025-11-11T10:58:54Z</time>
      </trkpt>
      <trkpt lat="45.70475" lon="4.60345">
        <ele>762</ele>
        <time>2025-11-11T10:58:55Z</time>
      </trkpt>
      <trkpt lat="45.70475" lon="4.60353">
        <ele>762.4</ele>
        <time>2025-11-11T10:58:56Z</time>
      </trkpt>
      <trkpt lat="45.70477" lon="4.6036">
        <ele>762.6</ele>
        <time>2025-11-11T10:58:57Z</time>
      </trkpt>
      <trkpt lat="45.70478" lon="4.60366">
        <ele>763</ele>
        <time>2025-11-11T10:58:58Z</time>
      </trkpt>
      <trkpt lat="45.70479" lon="4.60371">
        <ele>763.2</ele>
        <time>2025-11-11T10:58:59Z</time>
      </trkpt>
      <trkpt lat="45.7048" lon="4.60376">
        <ele>763.6</ele>
        <time>2025-11-11T10:59:00Z</time>
      </trkpt>
      <trkpt lat="45.70481" lon="4.60382">
        <ele>763.8</ele>
        <time>2025-11-11T10:59:01Z</time>
      </trkpt>
      <trkpt lat="45.70482" lon="4.60388">
        <ele>764.2</ele>
        <time>2025-11-11T10:59:02Z</time>
      </trkpt>
      <trkpt lat="45.70484" lon="4.60392">
        <ele>764.2</ele>
        <time>2025-11-11T10:59:03Z</time>
      </trkpt>
      <trkpt lat="45.70485" lon="4.60398">
        <ele>764.4</ele>
        <time>2025-11-11T10:59:04Z</time>
      </trkpt>
      <trkpt lat="45.70486" lon="4.60404">
        <ele>764.6</ele>
        <time>2025-11-11T10:59:05Z</time>
      </trkpt>
      <trkpt lat="45.70488" lon="4.6041">
        <ele>764.6</ele>
        <time>2025-11-11T10:59:06Z</time>
      </trkpt>
      <trkpt lat="45.70489" lon="4.60415">
        <ele>764.6</ele>
        <time>2025-11-11T10:59:07Z</time>
      </trkpt>
      <trkpt lat="45.70491" lon="4.60421">
        <ele>764.4</ele>
        <time>2025-11-11T10:59:08Z</time>
      </trkpt>
      <trkpt lat="45.70493" lon="4.60429">
        <ele>764.2</ele>
        <time>2025-11-11T10:59:09Z</time>
      </trkpt>
      <trkpt lat="45.70494" lon="4.60436">
        <ele>764</ele>
        <time>2025-11-11T10:59:10Z</time>
      </trkpt>
      <trkpt lat="45.70494" lon="4.60441">
        <ele>763.8</ele>
        <time>2025-11-11T10:59:11Z</time>
      </trkpt>
      <trkpt lat="45.70495" lon="4.60448">
        <ele>763.6</ele>
        <time>2025-11-11T10:59:12Z</time>
      </trkpt>
      <trkpt lat="45.70495" lon="4.60456">
        <ele>763.8</ele>
        <time>2025-11-11T10:59:13Z</time>
      </trkpt>
      <trkpt lat="45.70495" lon="4.60462">
        <ele>763.8</ele>
        <time>2025-11-11T10:59:14Z</time>
      </trkpt>
      <trkpt lat="45.70495" lon="4.60469">
        <ele>764</ele>
        <time>2025-11-11T10:59:15Z</time>
      </trkpt>
      <trkpt lat="45.70495" lon="4.60474">
        <ele>764.2</ele>
        <time>2025-11-11T10:59:16Z</time>
      </trkpt>
      <trkpt lat="45.70496" lon="4.60481">
        <ele>764.2</ele>
        <time>2025-11-11T10:59:17Z</time>
      </trkpt>
      <trkpt lat="45.70497" lon="4.60489">
        <ele>764.4</ele>
        <time>2025-11-11T10:59:18Z</time>
      </trkpt>
      <trkpt lat="45.70497" lon="4.60495">
        <ele>764.6</ele>
        <time>2025-11-11T10:59:19Z</time>
      </trkpt>
      <trkpt lat="45.70496" lon="4.605">
        <ele>764.8</ele>
        <time>2025-11-11T10:59:20Z</time>
      </trkpt>
      <trkpt lat="45.70496" lon="4.60506">
        <ele>765</ele>
        <time>2025-11-11T10:59:21Z</time>
      </trkpt>
      <trkpt lat="45.70495" lon="4.60512">
        <ele>765.2</ele>
        <time>2025-11-11T10:59:22Z</time>
      </trkpt>
      <trkpt lat="45.70494" lon="4.60518">
        <ele>765.4</ele>
        <time>2025-11-11T10:59:23Z</time>
      </trkpt>
      <trkpt lat="45.70494" lon="4.60523">
        <ele>765.6</ele>
        <time>2025-11-11T10:59:24Z</time>
      </trkpt>
      <trkpt lat="45.70494" lon="4.60529">
        <ele>765.8</ele>
        <time>2025-11-11T10:59:25Z</time>
      </trkpt>
      <trkpt lat="45.70493" lon="4.60536">
        <ele>766</ele>
        <time>2025-11-11T10:59:26Z</time>
      </trkpt>
      <trkpt lat="45.70491" lon="4.60544">
        <ele>766</ele>
        <time>2025-11-11T10:59:27Z</time>
      </trkpt>
      <trkpt lat="45.70489" lon="4.60551">
        <ele>766.2</ele>
        <time>2025-11-11T10:59:28Z</time>
      </trkpt>
      <trkpt lat="45.70488" lon="4.60556">
        <ele>766.4</ele>
        <time>2025-11-11T10:59:29Z</time>
      </trkpt>
      <trkpt lat="45.70487" lon="4.60561">
        <ele>766.4</ele>
        <time>2025-11-11T10:59:30Z</time>
      </trkpt>
      <trkpt lat="45.70486" lon="4.60568">
        <ele>766.2</ele>
        <time>2025-11-11T10:59:31Z</time>
      </trkpt>
      <trkpt lat="45.70486" lon="4.60573">
        <ele>766.2</ele>
        <time>2025-11-11T10:59:32Z</time>
      </trkpt>
      <trkpt lat="45.70485" lon="4.60578">
        <ele>766</ele>
        <time>2025-11-11T10:59:33Z</time>
      </trkpt>
      <trkpt lat="45.70483" lon="4.60583">
        <ele>766</ele>
        <time>2025-11-11T10:59:34Z</time>
      </trkpt>
      <trkpt lat="45.70482" lon="4.60589">
        <ele>765.8</ele>
        <time>2025-11-11T10:59:35Z</time>
      </trkpt>
      <trkpt lat="45.70481" lon="4.60596">
        <ele>765.6</ele>
        <time>2025-11-11T10:59:36Z</time>
      </trkpt>
      <trkpt lat="45.70479" lon="4.60602">
        <ele>765.4</ele>
        <time>2025-11-11T10:59:37Z</time>
      </trkpt>
      <trkpt lat="45.70477" lon="4.60607">
        <ele>765.2</ele>
        <time>2025-11-11T10:59:38Z</time>
      </trkpt>
      <trkpt lat="45.70473" lon="4.60612">
        <ele>765.2</ele>
        <time>2025-11-11T10:59:39Z</time>
      </trkpt>
      <trkpt lat="45.7047" lon="4.60615">
        <ele>765</ele>
        <time>2025-11-11T10:59:40Z</time>
      </trkpt>
      <trkpt lat="45.70467" lon="4.60617">
        <ele>765.2</ele>
        <time>2025-11-11T10:59:41Z</time>
      </trkpt>
      <trkpt lat="45.70463" lon="4.60619">
        <ele>765.4</ele>
        <time>2025-11-11T10:59:42Z</time>
      </trkpt>
      <trkpt lat="45.70459" lon="4.60621">
        <ele>765.8</ele>
        <time>2025-11-11T10:59:43Z</time>
      </trkpt>
      <trkpt lat="45.70456" lon="4.60624">
        <ele>766.2</ele>
        <time>2025-11-11T10:59:44Z</time>
      </trkpt>
      <trkpt lat="45.70453" lon="4.60627">
        <ele>766.8</ele>
        <time>2025-11-11T10:59:45Z</time>
      </trkpt>
      <trkpt lat="45.70452" lon="4.60628">
        <ele>767.4</ele>
        <time>2025-11-11T10:59:46Z</time>
      </trkpt>
      <trkpt lat="45.70451" lon="4.60631">
        <ele>767.8</ele>
        <time>2025-11-11T10:59:47Z</time>
      </trkpt>
      <trkpt lat="45.7045" lon="4.60633">
        <ele>768.4</ele>
        <time>2025-11-11T10:59:48Z</time>
      </trkpt>
      <trkpt lat="45.7045" lon="4.60634">
        <ele>768.8</ele>
        <time>2025-11-11T10:59:49Z</time>
      </trkpt>
      <trkpt lat="45.7045" lon="4.60634">
        <ele>769</ele>
        <time>2025-11-11T10:59:50Z</time>
      </trkpt>
      <trkpt lat="45.7045" lon="4.60634">
        <ele>769.2</ele>
        <time>2025-11-11T10:59:51Z</time>
      </trkpt>
      <trkpt lat="45.7045" lon="4.60634">
        <ele>769.4</ele>
        <time>2025-11-11T10:59:52Z</time>
      </trkpt>
      <trkpt lat="45.7045" lon="4.60634">
        <ele>769.6</ele>
        <time>2025-11-11T10:59:53Z</time>
      </trkpt>
      <trkpt lat="45.7045" lon="4.60635">
        <ele>769.6</ele>
        <time>2025-11-11T10:59:54Z</time>
      </trkpt>
      <trkpt lat="45.70449" lon="4.60636">
        <ele>769.6</ele>
        <time>2025-11-11T10:59:55Z</time>
      </trkpt>
      <trkpt lat="45.70448" lon="4.6064">
        <ele>769.4</ele>
        <time>2025-11-11T10:59:56Z</time>
      </trkpt>
      <trkpt lat="45.70445" lon="4.60645">
        <ele>769</ele>
        <time>2025-11-11T10:59:57Z</time>
      </trkpt>
      <trkpt lat="45.70442" lon="4.60651">
        <ele>768.4</ele>
        <time>2025-11-11T10:59:58Z</time>
      </trkpt>
      <trkpt lat="45.70439" lon="4.60656">
        <ele>767.8</ele>
        <time>2025-11-11T10:59:59Z</time>
      </trkpt>
      <trkpt lat="45.70436" lon="4.60663">
        <ele>767.2</ele>
        <time>2025-11-11T11:00:00Z</time>
      </trkpt>
      <trkpt lat="45.70431" lon="4.60671">
        <ele>766.6</ele>
        <time>2025-11-11T11:00:01Z</time>
      </trkpt>
      <trkpt lat="45.70427" lon="4.60678">
        <ele>766</ele>
        <time>2025-11-11T11:00:02Z</time>
      </trkpt>
      <trkpt lat="45.70423" lon="4.60684">
        <ele>765.4</ele>
        <time>2025-11-11T11:00:03Z</time>
      </trkpt>
      <trkpt lat="45.70418" lon="4.6069">
        <ele>764.8</ele>
        <time>2025-11-11T11:00:04Z</time>
      </trkpt>
      <trkpt lat="45.70412" lon="4.60697">
        <ele>764.2</ele>
        <time>2025-11-11T11:00:05Z</time>
      </trkpt>
      <trkpt lat="45.70407" lon="4.60702">
        <ele>763.6</ele>
        <time>2025-11-11T11:00:06Z</time>
      </trkpt>
      <trkpt lat="45.70402" lon="4.60706">
        <ele>763</ele>
        <time>2025-11-11T11:00:07Z</time>
      </trkpt>
      <trkpt lat="45.70397" lon="4.6071">
        <ele>762.8</ele>
        <time>2025-11-11T11:00:08Z</time>
      </trkpt>
      <trkpt lat="45.70391" lon="4.60716">
        <ele>762.4</ele>
        <time>2025-11-11T11:00:09Z</time>
      </trkpt>
      <trkpt lat="45.70386" lon="4.60722">
        <ele>762.2</ele>
        <time>2025-11-11T11:00:10Z</time>
      </trkpt>
      <trkpt lat="45.70381" lon="4.60727">
        <ele>762.2</ele>
        <time>2025-11-11T11:00:11Z</time>
      </trkpt>
      <trkpt lat="45.70377" lon="4.60729">
        <ele>762.2</ele>
        <time>2025-11-11T11:00:12Z</time>
      </trkpt>
      <trkpt lat="45.70373" lon="4.60731">
        <ele>762.2</ele>
        <time>2025-11-11T11:00:13Z</time>
      </trkpt>
      <trkpt lat="45.70367" lon="4.60733">
        <ele>762.6</ele>
        <time>2025-11-11T11:00:14Z</time>
      </trkpt>
      <trkpt lat="45.70362" lon="4.60735">
        <ele>763</ele>
        <time>2025-11-11T11:00:15Z</time>
      </trkpt>
      <trkpt lat="45.70358" lon="4.60736">
        <ele>763.2</ele>
        <time>2025-11-11T11:00:16Z</time>
      </trkpt>
      <trkpt lat="45.70352" lon="4.60737">
        <ele>763.4</ele>
        <time>2025-11-11T11:00:17Z</time>
      </trkpt>
      <trkpt lat="45.70346" lon="4.60738">
        <ele>763.6</ele>
        <time>2025-11-11T11:00:18Z</time>
      </trkpt>
      <trkpt lat="45.7034" lon="4.60739">
        <ele>763.8</ele>
        <time>2025-11-11T11:00:19Z</time>
      </trkpt>
      <trkpt lat="45.70335" lon="4.6074">
        <ele>764</ele>
        <time>2025-11-11T11:00:20Z</time>
      </trkpt>
      <trkpt lat="45.70328" lon="4.60741">
        <ele>764.2</ele>
        <time>2025-11-11T11:00:21Z</time>
      </trkpt>
      <trkpt lat="45.70323" lon="4.60741">
        <ele>764.4</ele>
        <time>2025-11-11T11:00:22Z</time>
      </trkpt>
      <trkpt lat="45.70316" lon="4.60743">
        <ele>764.6</ele>
        <time>2025-11-11T11:00:23Z</time>
      </trkpt>
      <trkpt lat="45.7031" lon="4.60744">
        <ele>764.6</ele>
        <time>2025-11-11T11:00:24Z</time>
      </trkpt>
      <trkpt lat="45.70304" lon="4.60745">
        <ele>764.8</ele>
        <time>2025-11-11T11:00:25Z</time>
      </trkpt>
      <trkpt lat="45.70298" lon="4.60746">
        <ele>765</ele>
        <time>2025-11-11T11:00:26Z</time>
      </trkpt>
      <trkpt lat="45.70292" lon="4.60745">
        <ele>765.2</ele>
        <time>2025-11-11T11:00:27Z</time>
      </trkpt>
      <trkpt lat="45.70286" lon="4.60745">
        <ele>765.4</ele>
        <time>2025-11-11T11:00:28Z</time>
      </trkpt>
      <trkpt lat="45.7028" lon="4.60745">
        <ele>765.6</ele>
        <time>2025-11-11T11:00:29Z</time>
      </trkpt>
      <trkpt lat="45.70274" lon="4.60745">
        <ele>766</ele>
        <time>2025-11-11T11:00:30Z</time>
      </trkpt>
      <trkpt lat="45.70269" lon="4.60746">
        <ele>766.2</ele>
        <time>2025-11-11T11:00:31Z</time>
      </trkpt>
      <trkpt lat="45.70264" lon="4.60745">
        <ele>766.6</ele>
        <time>2025-11-11T11:00:32Z</time>
      </trkpt>
      <trkpt lat="45.70259" lon="4.60745">
        <ele>766.8</ele>
        <time>2025-11-11T11:00:33Z</time>
      </trkpt>
      <trkpt lat="45.70255" lon="4.60744">
        <ele>767.2</ele>
        <time>2025-11-11T11:00:34Z</time>
      </trkpt>
      <trkpt lat="45.70251" lon="4.60743">
        <ele>767.6</ele>
        <time>2025-11-11T11:00:35Z</time>
      </trkpt>
      <trkpt lat="45.70246" lon="4.60742">
        <ele>768</ele>
        <time>2025-11-11T11:00:36Z</time>
      </trkpt>
      <trkpt lat="45.70242" lon="4.60743">
        <ele>768.4</ele>
        <time>2025-11-11T11:00:37Z</time>
      </trkpt>
      <trkpt lat="45.70237" lon="4.60743">
        <ele>768.8</ele>
        <time>2025-11-11T11:00:38Z</time>
      </trkpt>
      <trkpt lat="45.70232" lon="4.60744">
        <ele>769.2</ele>
        <time>2025-11-11T11:00:39Z</time>
      </trkpt>
      <trkpt lat="45.70227" lon="4.60745">
        <ele>769.6</ele>
        <time>2025-11-11T11:00:40Z</time>
      </trkpt>
      <trkpt lat="45.70223" lon="4.60745">
        <ele>769.8</ele>
        <time>2025-11-11T11:00:41Z</time>
      </trkpt>
      <trkpt lat="45.70219" lon="4.60745">
        <ele>769.8</ele>
        <time>2025-11-11T11:00:42Z</time>
      </trkpt>
      <trkpt lat="45.70214" lon="4.60745">
        <ele>770.2</ele>
        <time>2025-11-11T11:00:43Z</time>
      </trkpt>
      <trkpt lat="45.70209" lon="4.60745">
        <ele>770.2</ele>
        <time>2025-11-11T11:00:44Z</time>
      </trkpt>
      <trkpt lat="45.70205" lon="4.60744">
        <ele>770.6</ele>
        <time>2025-11-11T11:00:45Z</time>
      </trkpt>
      <trkpt lat="45.70201" lon="4.60745">
        <ele>770.8</ele>
        <time>2025-11-11T11:00:46Z</time>
      </trkpt>
      <trkpt lat="45.70196" lon="4.60745">
        <ele>771.2</ele>
        <time>2025-11-11T11:00:47Z</time>
      </trkpt>
      <trkpt lat="45.70192" lon="4.60745">
        <ele>771.6</ele>
        <time>2025-11-11T11:00:48Z</time>
      </trkpt>
      <trkpt lat="45.70188" lon="4.60745">
        <ele>772</ele>
        <time>2025-11-11T11:00:49Z</time>
      </trkpt>
      <trkpt lat="45.70184" lon="4.60745">
        <ele>772.4</ele>
        <time>2025-11-11T11:00:50Z</time>
      </trkpt>
      <trkpt lat="45.7018" lon="4.60746">
        <ele>772.8</ele>
        <time>2025-11-11T11:00:51Z</time>
      </trkpt>
      <trkpt lat="45.70177" lon="4.60746">
        <ele>773.4</ele>
        <time>2025-11-11T11:00:52Z</time>
      </trkpt>
      <trkpt lat="45.70175" lon="4.60747">
        <ele>773.8</ele>
        <time>2025-11-11T11:00:53Z</time>
      </trkpt>
      <trkpt lat="45.70173" lon="4.60749">
        <ele>774.2</ele>
        <time>2025-11-11T11:00:54Z</time>
      </trkpt>
      <trkpt lat="45.70172" lon="4.6075">
        <ele>774.4</ele>
        <time>2025-11-11T11:00:55Z</time>
      </trkpt>
      <trkpt lat="45.70171" lon="4.60751">
        <ele>774.8</ele>
        <time>2025-11-11T11:00:56Z</time>
      </trkpt>
      <trkpt lat="45.7017" lon="4.60751">
        <ele>775</ele>
        <time>2025-11-11T11:00:57Z</time>
      </trkpt>
      <trkpt lat="45.7017" lon="4.60751">
        <ele>775</ele>
        <time>2025-11-11T11:00:58Z</time>
      </trkpt>
      <trkpt lat="45.7017" lon="4.60751">
        <ele>775.2</ele>
        <time>2025-11-11T11:00:59Z</time>
      </trkpt>
      <trkpt lat="45.7017" lon="4.60751">
        <ele>775.2</ele>
        <time>2025-11-11T11:01:00Z</time>
      </trkpt>
      <trkpt lat="45.7017" lon="4.60751">
        <ele>775.2</ele>
        <time>2025-11-11T11:01:01Z</time>
      </trkpt>
      <trkpt lat="45.7017" lon="4.60751">
        <ele>775.2</ele>
        <time>2025-11-11T11:01:02Z</time>
      </trkpt>
      <trkpt lat="45.7017" lon="4.60751">
        <ele>775.2</ele>
        <time>2025-11-11T11:01:03Z</time>
      </trkpt>
      <trkpt lat="45.7017" lon="4.60751">
        <ele>775.2</ele>
        <time>2025-11-11T11:01:04Z</time>
      </trkpt>
      <trkpt lat="45.7017" lon="4.60751">
        <ele>775</ele>
        <time>2025-11-11T11:01:05Z</time>
      </trkpt>
      <trkpt lat="45.7017" lon="4.60751">
        <ele>775</ele>
        <time>2025-11-11T11:01:06Z</time>
      </trkpt>
      <trkpt lat="45.7017" lon="4.60751">
        <ele>775</ele>
        <time>2025-11-11T11:01:07Z</time>
      </trkpt>
      <trkpt lat="45.7017" lon="4.60751">
        <ele>775</ele>
        <time>2025-11-11T11:01:08Z</time>
      </trkpt>
      <trkpt lat="45.7017" lon="4.60751">
        <ele>775</ele>
        <time>2025-11-11T11:01:09Z</time>
      </trkpt>
      <trkpt lat="45.7017" lon="4.60751">
        <ele>775</ele>
        <time>2025-11-11T11:01:10Z</time>
      </trkpt>
      <trkpt lat="45.7017" lon="4.60751">
        <ele>775</ele>
        <time>2025-11-11T11:01:11Z</time>
      </trkpt>
      <trkpt lat="45.7017" lon="4.60751">
        <ele>775</ele>
        <time>2025-11-11T11:01:12Z</time>
      </trkpt>
      <trkpt lat="45.7017" lon="4.60751">
        <ele>775</ele>
        <time>2025-11-11T11:01:13Z</time>
      </trkpt>
      <trkpt lat="45.7017" lon="4.60751">
        <ele>775</ele>
        <time>2025-11-11T11:01:14Z</time>
      </trkpt>
      <trkpt lat="45.7017" lon="4.60751">
        <ele>775</ele>
        <time>2025-11-11T11:01:15Z</time>
      </trkpt>
      <trkpt lat="45.7017" lon="4.60751">
        <ele>774.8</ele>
        <time>2025-11-11T11:01:16Z</time>
      </trkpt>
      <trkpt lat="45.7017" lon="4.60751">
        <ele>774.8</ele>
        <time>2025-11-11T11:01:17Z</time>
      </trkpt>
      <trkpt lat="45.7017" lon="4.60751">
        <ele>774.8</ele>
        <time>2025-11-11T11:01:18Z</time>
      </trkpt>
      <trkpt lat="45.7017" lon="4.60751">
        <ele>774.8</ele>
        <time>2025-11-11T11:01:19Z</time>
      </trkpt>
      <trkpt lat="45.7017" lon="4.60751">
        <ele>774.8</ele>
        <time>2025-11-11T11:01:20Z</time>
      </trkpt>
      <trkpt lat="45.7017" lon="4.60751">
        <ele>774.8</ele>
        <time>2025-11-11T11:01:21Z</time>
      </trkpt>
      <trkpt lat="45.7017" lon="4.60751">
        <ele>774.8</ele>
        <time>2025-11-11T11:01:22Z</time>
      </trkpt>
      <trkpt lat="45.7017" lon="4.60751">
        <ele>774.8</ele>
        <time>2025-11-11T11:01:23Z</time>
      </trkpt>
      <trkpt lat="45.7017" lon="4.60751">
        <ele>774.8</ele>
        <time>2025-11-11T11:01:24Z</time>
      </trkpt>
      <trkpt lat="45.70168" lon="4.60752">
        <ele>774.8</ele>
        <time>2025-11-11T11:01:25Z</time>
      </trkpt>
      <trkpt lat="45.70166" lon="4.60753">
        <ele>774.6</ele>
        <time>2025-11-11T11:01:26Z</time>
      </trkpt>
      <trkpt lat="45.70162" lon="4.60753">
        <ele>774.4</ele>
        <time>2025-11-11T11:01:27Z</time>
      </trkpt>
      <trkpt lat="45.70158" lon="4.60752">
        <ele>774</ele>
        <time>2025-11-11T11:01:28Z</time>
      </trkpt>
      <trkpt lat="45.70155" lon="4.60751">
        <ele>773.8</ele>
        <time>2025-11-11T11:01:29Z</time>
      </trkpt>
      <trkpt lat="45.70152" lon="4.60749">
        <ele>773.4</ele>
        <time>2025-11-11T11:01:30Z</time>
      </trkpt>
      <trkpt lat="45.70148" lon="4.60747">
        <ele>773</ele>
        <time>2025-11-11T11:01:31Z</time>
      </trkpt>
      <trkpt lat="45.70144" lon="4.60744">
        <ele>772.8</ele>
        <time>2025-11-11T11:01:32Z</time>
      </trkpt>
      <trkpt lat="45.70141" lon="4.60742">
        <ele>772.6</ele>
        <time>2025-11-11T11:01:33Z</time>
      </trkpt>
      <trkpt lat="45.70137" lon="4.60738">
        <ele>772.4</ele>
        <time>2025-11-11T11:01:34Z</time>
      </trkpt>
      <trkpt lat="45.70134" lon="4.60735">
        <ele>772.2</ele>
        <time>2025-11-11T11:01:35Z</time>
      </trkpt>
      <trkpt lat="45.70131" lon="4.60732">
        <ele>772</ele>
        <time>2025-11-11T11:01:36Z</time>
      </trkpt>
      <trkpt lat="45.70127" lon="4.60729">
        <ele>772</ele>
        <time>2025-11-11T11:01:37Z</time>
      </trkpt>
      <trkpt lat="45.70123" lon="4.60729">
        <ele>772</ele>
        <time>2025-11-11T11:01:38Z</time>
      </trkpt>
      <trkpt lat="45.7012" lon="4.60729">
        <ele>771.8</ele>
        <time>2025-11-11T11:01:39Z</time>
      </trkpt>
      <trkpt lat="45.70116" lon="4.60731">
        <ele>771.8</ele>
        <time>2025-11-11T11:01:40Z</time>
      </trkpt>
      <trkpt lat="45.70113" lon="4.60732">
        <ele>771.8</ele>
        <time>2025-11-11T11:01:41Z</time>
      </trkpt>
      <trkpt lat="45.70111" lon="4.60733">
        <ele>771.8</ele>
        <time>2025-11-11T11:01:42Z</time>
      </trkpt>
      <trkpt lat="45.70111" lon="4.60733">
        <ele>772</ele>
        <time>2025-11-11T11:01:43Z</time>
      </trkpt>
      <trkpt lat="45.70111" lon="4.60733">
        <ele>772</ele>
        <time>2025-11-11T11:01:44Z</time>
      </trkpt>
      <trkpt lat="45.7011" lon="4.60732">
        <ele>772.2</ele>
        <time>2025-11-11T11:01:45Z</time>
      </trkpt>
      <trkpt lat="45.7011" lon="4.60733">
        <ele>772.4</ele>
        <time>2025-11-11T11:01:46Z</time>
      </trkpt>
      <trkpt lat="45.7011" lon="4.60733">
        <ele>772.4</ele>
        <time>2025-11-11T11:01:47Z</time>
      </trkpt>
      <trkpt lat="45.7011" lon="4.60733">
        <ele>772.4</ele>
        <time>2025-11-11T11:01:48Z</time>
      </trkpt>
      <trkpt lat="45.7011" lon="4.60733">
        <ele>772.4</ele>
        <time>2025-11-11T11:01:49Z</time>
      </trkpt>
      <trkpt lat="45.7011" lon="4.60733">
        <ele>772.4</ele>
        <time>2025-11-11T11:01:50Z</time>
      </trkpt>
      <trkpt lat="45.7011" lon="4.60733">
        <ele>772.4</ele>
        <time>2025-11-11T11:01:51Z</time>
      </trkpt>
      <trkpt lat="45.7011" lon="4.60733">
        <ele>772.4</ele>
        <time>2025-11-11T11:01:52Z</time>
      </trkpt>
      <trkpt lat="45.7011" lon="4.60733">
        <ele>772.4</ele>
        <time>2025-11-11T11:01:53Z</time>
      </trkpt>
      <trkpt lat="45.7011" lon="4.60733">
        <ele>772.4</ele>
        <time>2025-11-11T11:01:54Z</time>
      </trkpt>
      <trkpt lat="45.7011" lon="4.60733">
        <ele>772.4</ele>
        <time>2025-11-11T11:01:55Z</time>
      </trkpt>
      <trkpt lat="45.7011" lon="4.60733">
        <ele>772.4</ele>
        <time>2025-11-11T11:01:56Z</time>
      </trkpt>
      <trkpt lat="45.7011" lon="4.60733">
        <ele>772.4</ele>
        <time>2025-11-11T11:01:57Z</time>
      </trkpt>
      <trkpt lat="45.7011" lon="4.60733">
        <ele>772.4</ele>
        <time>2025-11-11T11:01:58Z</time>
      </trkpt>
      <trkpt lat="45.7011" lon="4.60733">
        <ele>772.4</ele>
        <time>2025-11-11T11:01:59Z</time>
      </trkpt>
      <trkpt lat="45.7011" lon="4.60733">
        <ele>772.4</ele>
        <time>2025-11-11T11:02:00Z</time>
      </trkpt>
      <trkpt lat="45.7011" lon="4.60733">
        <ele>772.2</ele>
        <time>2025-11-11T11:02:01Z</time>
      </trkpt>
      <trkpt lat="45.7011" lon="4.60733">
        <ele>772.2</ele>
        <time>2025-11-11T11:02:02Z</time>
      </trkpt>
      <trkpt lat="45.7011" lon="4.60733">
        <ele>772.2</ele>
        <time>2025-11-11T11:02:03Z</time>
      </trkpt>
      <trkpt lat="45.7011" lon="4.60733">
        <ele>772.2</ele>
        <time>2025-11-11T11:02:04Z</time>
      </trkpt>
      <trkpt lat="45.7011" lon="4.60733">
        <ele>772.2</ele>
        <time>2025-11-11T11:02:05Z</time>
      </trkpt>
      <trkpt lat="45.7011" lon="4.60733">
        <ele>772.2</ele>
        <time>2025-11-11T11:02:06Z</time>
      </trkpt>
      <trkpt lat="45.7011" lon="4.60733">
        <ele>772.2</ele>
        <time>2025-11-11T11:02:07Z</time>
      </trkpt>
      <trkpt lat="45.7011" lon="4.60733">
        <ele>772.2</ele>
        <time>2025-11-11T11:02:08Z</time>
      </trkpt>
      <trkpt lat="45.7011" lon="4.60733">
        <ele>772.2</ele>
        <time>2025-11-11T11:02:09Z</time>
      </trkpt>
      <trkpt lat="45.7011" lon="4.60733">
        <ele>772.2</ele>
        <time>2025-11-11T11:02:10Z</time>
      </trkpt>
      <trkpt lat="45.7011" lon="4.60733">
        <ele>772.2</ele>
        <time>2025-11-11T11:02:11Z</time>
      </trkpt>
      <trkpt lat="45.7011" lon="4.60733">
        <ele>772.2</ele>
        <time>2025-11-11T11:02:12Z</time>
      </trkpt>
      <trkpt lat="45.7011" lon="4.60733">
        <ele>772</ele>
        <time>2025-11-11T11:02:13Z</time>
      </trkpt>
      <trkpt lat="45.7011" lon="4.60733">
        <ele>772</ele>
        <time>2025-11-11T11:02:14Z</time>
      </trkpt>
      <trkpt lat="45.7011" lon="4.60733">
        <ele>772</ele>
        <time>2025-11-11T11:02:15Z</time>
      </trkpt>
      <trkpt lat="45.7011" lon="4.60733">
        <ele>772</ele>
        <time>2025-11-11T11:02:16Z</time>
      </trkpt>
      <trkpt lat="45.7011" lon="4.60733">
        <ele>772</ele>
        <time>2025-11-11T11:02:17Z</time>
      </trkpt>
      <trkpt lat="45.7011" lon="4.60733">
        <ele>772</ele>
        <time>2025-11-11T11:02:18Z</time>
      </trkpt>
      <trkpt lat="45.7011" lon="4.60733">
        <ele>772</ele>
        <time>2025-11-11T11:02:19Z</time>
      </trkpt>
      <trkpt lat="45.7011" lon="4.60733">
        <ele>772</ele>
        <time>2025-11-11T11:02:20Z</time>
      </trkpt>
      <trkpt lat="45.7011" lon="4.60733">
        <ele>772</ele>
        <time>2025-11-11T11:02:21Z</time>
      </trkpt>
      <trkpt lat="45.7011" lon="4.60733">
        <ele>772</ele>
        <time>2025-11-11T11:02:22Z</time>
      </trkpt>
      <trkpt lat="45.7011" lon="4.60733">
        <ele>772</ele>
        <time>2025-11-11T11:02:23Z</time>
      </trkpt>
      <trkpt lat="45.7011" lon="4.60733">
        <ele>771.8</ele>
        <time>2025-11-11T11:02:24Z</time>
      </trkpt>
      <trkpt lat="45.7011" lon="4.60733">
        <ele>771.8</ele>
        <time>2025-11-11T11:02:25Z</time>
      </trkpt>
      <trkpt lat="45.7011" lon="4.60733">
        <ele>771.8</ele>
        <time>2025-11-11T11:02:26Z</time>
      </trkpt>
      <trkpt lat="45.7011" lon="4.60733">
        <ele>771.8</ele>
        <time>2025-11-11T11:02:27Z</time>
      </trkpt>
      <trkpt lat="45.7011" lon="4.60733">
        <ele>771.8</ele>
        <time>2025-11-11T11:02:28Z</time>
      </trkpt>
      <trkpt lat="45.7011" lon="4.60733">
        <ele>771.8</ele>
        <time>2025-11-11T11:02:29Z</time>
      </trkpt>
      <trkpt lat="45.7011" lon="4.60733">
        <ele>771.8</ele>
        <time>2025-11-11T11:02:30Z</time>
      </trkpt>
      <trkpt lat="45.7011" lon="4.60733">
        <ele>771.8</ele>
        <time>2025-11-11T11:02:31Z</time>
      </trkpt>
      <trkpt lat="45.7011" lon="4.60733">
        <ele>771.8</ele>
        <time>2025-11-11T11:02:32Z</time>
      </trkpt>
      <trkpt lat="45.7011" lon="4.60733">
        <ele>771.8</ele>
        <time>2025-11-11T11:02:33Z</time>
      </trkpt>
      <trkpt lat="45.7011" lon="4.60733">
        <ele>771.8</ele>
        <time>2025-11-11T11:02:34Z</time>
      </trkpt>
      <trkpt lat="45.7011" lon="4.60733">
        <ele>771.8</ele>
        <time>2025-11-11T11:02:35Z</time>
      </trkpt>
      <trkpt lat="45.7011" lon="4.60733">
        <ele>771.8</ele>
        <time>2025-11-11T11:02:36Z</time>
      </trkpt>
      <trkpt lat="45.7011" lon="4.60733">
        <ele>771.8</ele>
        <time>2025-11-11T11:02:37Z</time>
      </trkpt>
      <trkpt lat="45.7011" lon="4.60733">
        <ele>771.8</ele>
        <time>2025-11-11T11:02:38Z</time>
      </trkpt>
      <trkpt lat="45.7011" lon="4.60733">
        <ele>771.8</ele>
        <time>2025-11-11T11:02:39Z</time>
      </trkpt>
      <trkpt lat="45.7011" lon="4.60733">
        <ele>771.8</ele>
        <time>2025-11-11T11:02:40Z</time>
      </trkpt>
      <trkpt lat="45.7011" lon="4.60733">
        <ele>771.8</ele>
        <time>2025-11-11T11:02:41Z</time>
      </trkpt>
      <trkpt lat="45.7011" lon="4.60733">
        <ele>771.8</ele>
        <time>2025-11-11T11:02:42Z</time>
      </trkpt>
      <trkpt lat="45.7011" lon="4.60733">
        <ele>771.8</ele>
        <time>2025-11-11T11:02:43Z</time>
      </trkpt>
      <trkpt lat="45.7011" lon="4.60733">
        <ele>771.8</ele>
        <time>2025-11-11T11:02:44Z</time>
      </trkpt>
      <trkpt lat="45.7011" lon="4.60733">
        <ele>771.8</ele>
        <time>2025-11-11T11:02:45Z</time>
      </trkpt>
      <trkpt lat="45.7011" lon="4.60733">
        <ele>771.8</ele>
        <time>2025-11-11T11:02:46Z</time>
      </trkpt>
      <trkpt lat="45.7011" lon="4.60733">
        <ele>771.8</ele>
        <time>2025-11-11T11:02:47Z</time>
      </trkpt>
      <trkpt lat="45.7011" lon="4.60733">
        <ele>771.8</ele>
        <time>2025-11-11T11:02:48Z</time>
      </trkpt>
      <trkpt lat="45.7011" lon="4.60733">
        <ele>771.8</ele>
        <time>2025-11-11T11:02:49Z</time>
      </trkpt>
      <trkpt lat="45.7011" lon="4.60733">
        <ele>771.8</ele>
        <time>2025-11-11T11:02:50Z</time>
      </trkpt>
      <trkpt lat="45.7011" lon="4.60733">
        <ele>771.8</ele>
        <time>2025-11-11T11:02:51Z</time>
      </trkpt>
      <trkpt lat="45.7011" lon="4.60733">
        <ele>771.8</ele>
        <time>2025-11-11T11:02:52Z</time>
      </trkpt>
      <trkpt lat="45.7011" lon="4.60733">
        <ele>771.8</ele>
        <time>2025-11-11T11:02:53Z</time>
      </trkpt>
      <trkpt lat="45.7011" lon="4.60733">
        <ele>771.6</ele>
        <time>2025-11-11T11:02:54Z</time>
      </trkpt>
      <trkpt lat="45.7011" lon="4.60733">
        <ele>771.6</ele>
        <time>2025-11-11T11:02:55Z</time>
      </trkpt>
      <trkpt lat="45.7011" lon="4.60733">
        <ele>771.6</ele>
        <time>2025-11-11T11:02:56Z</time>
      </trkpt>
      <trkpt lat="45.7011" lon="4.60733">
        <ele>771.6</ele>
        <time>2025-11-11T11:02:57Z</time>
      </trkpt>
      <trkpt lat="45.7011" lon="4.60733">
        <ele>771.6</ele>
        <time>2025-11-11T11:02:58Z</time>
      </trkpt>
      <trkpt lat="45.7011" lon="4.60733">
        <ele>771.6</ele>
        <time>2025-11-11T11:02:59Z</time>
      </trkpt>
      <trkpt lat="45.7011" lon="4.60733">
        <ele>771.6</ele>
        <time>2025-11-11T11:03:00Z</time>
      </trkpt>
      <trkpt lat="45.7011" lon="4.60733">
        <ele>771.6</ele>
        <time>2025-11-11T11:03:01Z</time>
      </trkpt>
      <trkpt lat="45.7011" lon="4.60733">
        <ele>771.6</ele>
        <time>2025-11-11T11:03:02Z</time>
      </trkpt>
      <trkpt lat="45.7011" lon="4.60733">
        <ele>771.6</ele>
        <time>2025-11-11T11:03:03Z</time>
      </trkpt>
      <trkpt lat="45.7011" lon="4.60733">
        <ele>771.6</ele>
        <time>2025-11-11T11:03:04Z</time>
      </trkpt>
      <trkpt lat="45.7011" lon="4.60733">
        <ele>771.6</ele>
        <time>2025-11-11T11:03:05Z</time>
      </trkpt>
      <trkpt lat="45.7011" lon="4.60733">
        <ele>771.6</ele>
        <time>2025-11-11T11:03:06Z</time>
      </trkpt>
      <trkpt lat="45.7011" lon="4.60733">
        <ele>771.6</ele>
        <time>2025-11-11T11:03:07Z</time>
      </trkpt>
      <trkpt lat="45.7011" lon="4.60733">
        <ele>771.6</ele>
        <time>2025-11-11T11:03:08Z</time>
      </trkpt>
      <trkpt lat="45.7011" lon="4.60733">
        <ele>771.6</ele>
        <time>2025-11-11T11:03:09Z</time>
      </trkpt>
      <trkpt lat="45.7011" lon="4.60733">
        <ele>771.6</ele>
        <time>2025-11-11T11:03:10Z</time>
      </trkpt>
      <trkpt lat="45.7011" lon="4.60733">
        <ele>771.6</ele>
        <time>2025-11-11T11:03:11Z</time>
      </trkpt>
      <trkpt lat="45.7011" lon="4.60733">
        <ele>771.6</ele>
        <time>2025-11-11T11:03:12Z</time>
      </trkpt>
      <trkpt lat="45.7011" lon="4.60733">
        <ele>771.6</ele>
        <time>2025-11-11T11:03:13Z</time>
      </trkpt>
      <trkpt lat="45.7011" lon="4.60733">
        <ele>771.6</ele>
        <time>2025-11-11T11:03:14Z</time>
      </trkpt>
      <trkpt lat="45.7011" lon="4.60733">
        <ele>771.6</ele>
        <time>2025-11-11T11:03:15Z</time>
      </trkpt>
      <trkpt lat="45.7011" lon="4.60733">
        <ele>771.6</ele>
        <time>2025-11-11T11:03:16Z</time>
      </trkpt>
      <trkpt lat="45.7011" lon="4.60733">
        <ele>771.4</ele>
        <time>2025-11-11T11:03:17Z</time>
      </trkpt>
      <trkpt lat="45.7011" lon="4.60733">
        <ele>771.4</ele>
        <time>2025-11-11T11:03:18Z</time>
      </trkpt>
      <trkpt lat="45.7011" lon="4.60733">
        <ele>771.4</ele>
        <time>2025-11-11T11:03:19Z</time>
      </trkpt>
      <trkpt lat="45.7011" lon="4.60733">
        <ele>771.4</ele>
        <time>2025-11-11T11:03:20Z</time>
      </trkpt>
      <trkpt lat="45.7011" lon="4.60733">
        <ele>771.4</ele>
        <time>2025-11-11T11:03:21Z</time>
      </trkpt>
      <trkpt lat="45.7011" lon="4.60733">
        <ele>771.4</ele>
        <time>2025-11-11T11:03:22Z</time>
      </trkpt>
      <trkpt lat="45.7011" lon="4.60733">
        <ele>771.4</ele>
        <time>2025-11-11T11:03:23Z</time>
      </trkpt>
      <trkpt lat="45.7011" lon="4.60733">
        <ele>771.4</ele>
        <time>2025-11-11T11:03:24Z</time>
      </trkpt>
      <trkpt lat="45.7011" lon="4.60733">
        <ele>771.4</ele>
        <time>2025-11-11T11:03:25Z</time>
      </trkpt>
      <trkpt lat="45.7011" lon="4.60733">
        <ele>771.4</ele>
        <time>2025-11-11T11:03:26Z</time>
      </trkpt>
      <trkpt lat="45.7011" lon="4.60733">
        <ele>771.4</ele>
        <time>2025-11-11T11:03:27Z</time>
      </trkpt>
      <trkpt lat="45.7011" lon="4.60733">
        <ele>771.4</ele>
        <time>2025-11-11T11:03:28Z</time>
      </trkpt>
      <trkpt lat="45.7011" lon="4.60733">
        <ele>771.4</ele>
        <time>2025-11-11T11:03:29Z</time>
      </trkpt>
      <trkpt lat="45.7011" lon="4.60733">
        <ele>771.4</ele>
        <time>2025-11-11T11:03:30Z</time>
      </trkpt>
      <trkpt lat="45.7011" lon="4.60733">
        <ele>771.4</ele>
        <time>2025-11-11T11:03:31Z</time>
      </trkpt>
      <trkpt lat="45.7011" lon="4.60733">
        <ele>771.4</ele>
        <time>2025-11-11T11:03:32Z</time>
      </trkpt>
      <trkpt lat="45.7011" lon="4.60733">
        <ele>771.4</ele>
        <time>2025-11-11T11:03:33Z</time>
      </trkpt>
      <trkpt lat="45.7011" lon="4.60733">
        <ele>771.4</ele>
        <time>2025-11-11T11:03:34Z</time>
      </trkpt>
      <trkpt lat="45.7011" lon="4.60733">
        <ele>771.4</ele>
        <time>2025-11-11T11:03:35Z</time>
      </trkpt>
      <trkpt lat="45.7011" lon="4.60733">
        <ele>771.4</ele>
        <time>2025-11-11T11:03:36Z</time>
      </trkpt>
      <trkpt lat="45.7011" lon="4.60733">
        <ele>771.4</ele>
        <time>2025-11-11T11:03:37Z</time>
      </trkpt>
      <trkpt lat="45.7011" lon="4.60733">
        <ele>771.4</ele>
        <time>2025-11-11T11:03:38Z</time>
      </trkpt>
      <trkpt lat="45.7011" lon="4.60733">
        <ele>771.4</ele>
        <time>2025-11-11T11:03:39Z</time>
      </trkpt>
      <trkpt lat="45.7011" lon="4.60733">
        <ele>771.2</ele>
        <time>2025-11-11T11:03:40Z</time>
      </trkpt>
      <trkpt lat="45.7011" lon="4.60733">
        <ele>771.2</ele>
        <time>2025-11-11T11:03:41Z</time>
      </trkpt>
      <trkpt lat="45.7011" lon="4.60733">
        <ele>771.2</ele>
        <time>2025-11-11T11:03:42Z</time>
      </trkpt>
      <trkpt lat="45.7011" lon="4.60733">
        <ele>771.2</ele>
        <time>2025-11-11T11:03:43Z</time>
      </trkpt>
      <trkpt lat="45.7011" lon="4.60733">
        <ele>771.2</ele>
        <time>2025-11-11T11:03:44Z</time>
      </trkpt>
      <trkpt lat="45.7011" lon="4.60733">
        <ele>771.2</ele>
        <time>2025-11-11T11:03:45Z</time>
      </trkpt>
      <trkpt lat="45.7011" lon="4.60733">
        <ele>771.2</ele>
        <time>2025-11-11T11:03:46Z</time>
      </trkpt>
      <trkpt lat="45.7011" lon="4.60733">
        <ele>771.2</ele>
        <time>2025-11-11T11:03:47Z</time>
      </trkpt>
      <trkpt lat="45.7011" lon="4.60733">
        <ele>771.2</ele>
        <time>2025-11-11T11:03:48Z</time>
      </trkpt>
      <trkpt lat="45.7011" lon="4.60733">
        <ele>771.2</ele>
        <time>2025-11-11T11:03:49Z</time>
      </trkpt>
      <trkpt lat="45.7011" lon="4.60733">
        <ele>771.2</ele>
        <time>2025-11-11T11:03:50Z</time>
      </trkpt>
      <trkpt lat="45.7011" lon="4.60733">
        <ele>771.2</ele>
        <time>2025-11-11T11:03:51Z</time>
      </trkpt>
      <trkpt lat="45.7011" lon="4.60733">
        <ele>771</ele>
        <time>2025-11-11T11:03:52Z</time>
      </trkpt>
      <trkpt lat="45.7011" lon="4.60733">
        <ele>771</ele>
        <time>2025-11-11T11:03:53Z</time>
      </trkpt>
      <trkpt lat="45.7011" lon="4.60733">
        <ele>771</ele>
        <time>2025-11-11T11:03:54Z</time>
      </trkpt>
      <trkpt lat="45.7011" lon="4.60733">
        <ele>771</ele>
        <time>2025-11-11T11:03:55Z</time>
      </trkpt>
      <trkpt lat="45.7011" lon="4.60733">
        <ele>771</ele>
        <time>2025-11-11T11:03:56Z</time>
      </trkpt>
      <trkpt lat="45.7011" lon="4.60733">
        <ele>771</ele>
        <time>2025-11-11T11:03:57Z</time>
      </trkpt>
      <trkpt lat="45.7011" lon="4.60733">
        <ele>771</ele>
        <time>2025-11-11T11:03:58Z</time>
      </trkpt>
      <trkpt lat="45.7011" lon="4.60733">
        <ele>771</ele>
        <time>2025-11-11T11:03:59Z</time>
      </trkpt>
      <trkpt lat="45.7011" lon="4.60733">
        <ele>771</ele>
        <time>2025-11-11T11:04:00Z</time>
      </trkpt>
      <trkpt lat="45.7011" lon="4.60733">
        <ele>771</ele>
        <time>2025-11-11T11:04:01Z</time>
      </trkpt>
      <trkpt lat="45.7011" lon="4.60733">
        <ele>771</ele>
        <time>2025-11-11T11:04:02Z</time>
      </trkpt>
      <trkpt lat="45.7011" lon="4.60733">
        <ele>771</ele>
        <time>2025-11-11T11:04:03Z</time>
      </trkpt>
      <trkpt lat="45.7011" lon="4.60733">
        <ele>771</ele>
        <time>2025-11-11T11:04:04Z</time>
      </trkpt>
      <trkpt lat="45.7011" lon="4.60733">
        <ele>771</ele>
        <time>2025-11-11T11:04:05Z</time>
      </trkpt>
      <trkpt lat="45.7011" lon="4.60733">
        <ele>771</ele>
        <time>2025-11-11T11:04:06Z</time>
      </trkpt>
      <trkpt lat="45.7011" lon="4.60733">
        <ele>771</ele>
        <time>2025-11-11T11:04:07Z</time>
      </trkpt>
      <trkpt lat="45.7011" lon="4.60733">
        <ele>771</ele>
        <time>2025-11-11T11:04:08Z</time>
      </trkpt>
      <trkpt lat="45.7011" lon="4.60733">
        <ele>771</ele>
        <time>2025-11-11T11:04:09Z</time>
      </trkpt>
      <trkpt lat="45.7011" lon="4.60733">
        <ele>771</ele>
        <time>2025-11-11T11:04:10Z</time>
      </trkpt>
      <trkpt lat="45.7011" lon="4.60733">
        <ele>771</ele>
        <time>2025-11-11T11:04:11Z</time>
      </trkpt>
      <trkpt lat="45.7011" lon="4.60733">
        <ele>771</ele>
        <time>2025-11-11T11:04:12Z</time>
      </trkpt>
      <trkpt lat="45.7011" lon="4.60733">
        <ele>771</ele>
        <time>2025-11-11T11:04:13Z</time>
      </trkpt>
      <trkpt lat="45.7011" lon="4.60733">
        <ele>771</ele>
        <time>2025-11-11T11:04:14Z</time>
      </trkpt>
      <trkpt lat="45.7011" lon="4.60733">
        <ele>771</ele>
        <time>2025-11-11T11:04:15Z</time>
      </trkpt>
      <trkpt lat="45.7011" lon="4.60733">
        <ele>771</ele>
        <time>2025-11-11T11:04:16Z</time>
      </trkpt>
      <trkpt lat="45.7011" lon="4.60733">
        <ele>771</ele>
        <time>2025-11-11T11:04:17Z</time>
      </trkpt>
      <trkpt lat="45.7011" lon="4.60733">
        <ele>771</ele>
        <time>2025-11-11T11:04:18Z</time>
      </trkpt>
      <trkpt lat="45.7011" lon="4.60733">
        <ele>771</ele>
        <time>2025-11-11T11:04:19Z</time>
      </trkpt>
      <trkpt lat="45.7011" lon="4.60733">
        <ele>771</ele>
        <time>2025-11-11T11:04:20Z</time>
      </trkpt>
      <trkpt lat="45.7011" lon="4.60733">
        <ele>771</ele>
        <time>2025-11-11T11:04:21Z</time>
      </trkpt>
      <trkpt lat="45.7011" lon="4.60733">
        <ele>770.8</ele>
        <time>2025-11-11T11:04:22Z</time>
      </trkpt>
      <trkpt lat="45.7011" lon="4.60733">
        <ele>770.8</ele>
        <time>2025-11-11T11:04:23Z</time>
      </trkpt>
      <trkpt lat="45.7011" lon="4.60733">
        <ele>770.8</ele>
        <time>2025-11-11T11:04:24Z</time>
      </trkpt>
      <trkpt lat="45.7011" lon="4.60733">
        <ele>770.8</ele>
        <time>2025-11-11T11:04:25Z</time>
      </trkpt>
      <trkpt lat="45.7011" lon="4.60733">
        <ele>770.8</ele>
        <time>2025-11-11T11:04:26Z</time>
      </trkpt>
      <trkpt lat="45.7011" lon="4.60733">
        <ele>770.8</ele>
        <time>2025-11-11T11:04:27Z</time>
      </trkpt>
      <trkpt lat="45.7011" lon="4.60733">
        <ele>770.8</ele>
        <time>2025-11-11T11:04:28Z</time>
      </trkpt>
      <trkpt lat="45.7011" lon="4.60733">
        <ele>770.8</ele>
        <time>2025-11-11T11:04:29Z</time>
      </trkpt>
      <trkpt lat="45.7011" lon="4.60733">
        <ele>770.8</ele>
        <time>2025-11-11T11:04:30Z</time>
      </trkpt>
      <trkpt lat="45.7011" lon="4.60733">
        <ele>770.8</ele>
        <time>2025-11-11T11:04:31Z</time>
      </trkpt>
      <trkpt lat="45.7011" lon="4.60733">
        <ele>771</ele>
        <time>2025-11-11T11:04:32Z</time>
      </trkpt>
      <trkpt lat="45.7011" lon="4.60733">
        <ele>771</ele>
        <time>2025-11-11T11:04:33Z</time>
      </trkpt>
      <trkpt lat="45.7011" lon="4.60733">
        <ele>771</ele>
        <time>2025-11-11T11:04:34Z</time>
      </trkpt>
      <trkpt lat="45.7011" lon="4.60733">
        <ele>771</ele>
        <time>2025-11-11T11:04:35Z</time>
      </trkpt>
      <trkpt lat="45.7011" lon="4.60733">
        <ele>770.8</ele>
        <time>2025-11-11T11:04:36Z</time>
      </trkpt>
      <trkpt lat="45.7011" lon="4.60733">
        <ele>770.8</ele>
        <time>2025-11-11T11:04:37Z</time>
      </trkpt>
      <trkpt lat="45.7011" lon="4.60733">
        <ele>770.8</ele>
        <time>2025-11-11T11:04:38Z</time>
      </trkpt>
      <trkpt lat="45.7011" lon="4.60733">
        <ele>770.8</ele>
        <time>2025-11-11T11:04:39Z</time>
      </trkpt>
      <trkpt lat="45.7011" lon="4.60733">
        <ele>770.8</ele>
        <time>2025-11-11T11:04:40Z</time>
      </trkpt>
      <trkpt lat="45.7011" lon="4.60733">
        <ele>770.8</ele>
        <time>2025-11-11T11:04:41Z</time>
      </trkpt>
      <trkpt lat="45.7011" lon="4.60733">
        <ele>770.8</ele>
        <time>2025-11-11T11:04:42Z</time>
      </trkpt>
      <trkpt lat="45.7011" lon="4.60733">
        <ele>770.8</ele>
        <time>2025-11-11T11:04:43Z</time>
      </trkpt>
      <trkpt lat="45.7011" lon="4.60733">
        <ele>770.8</ele>
        <time>2025-11-11T11:04:44Z</time>
      </trkpt>
      <trkpt lat="45.7011" lon="4.60733">
        <ele>770.8</ele>
        <time>2025-11-11T11:04:45Z</time>
      </trkpt>
      <trkpt lat="45.7011" lon="4.60733">
        <ele>770.8</ele>
        <time>2025-11-11T11:04:46Z</time>
      </trkpt>
      <trkpt lat="45.7011" lon="4.60733">
        <ele>770.8</ele>
        <time>2025-11-11T11:04:47Z</time>
      </trkpt>
      <trkpt lat="45.7011" lon="4.60733">
        <ele>770.8</ele>
        <time>2025-11-11T11:04:48Z</time>
      </trkpt>
      <trkpt lat="45.7011" lon="4.60733">
        <ele>770.8</ele>
        <time>2025-11-11T11:04:49Z</time>
      </trkpt>
      <trkpt lat="45.7011" lon="4.60733">
        <ele>770.8</ele>
        <time>2025-11-11T11:04:50Z</time>
      </trkpt>
      <trkpt lat="45.7011" lon="4.60733">
        <ele>770.8</ele>
        <time>2025-11-11T11:04:51Z</time>
      </trkpt>
      <trkpt lat="45.7011" lon="4.60733">
        <ele>770.8</ele>
        <time>2025-11-11T11:04:52Z</time>
      </trkpt>
      <trkpt lat="45.7011" lon="4.60733">
        <ele>770.8</ele>
        <time>2025-11-11T11:04:53Z</time>
      </trkpt>
      <trkpt lat="45.7011" lon="4.60733">
        <ele>770.8</ele>
        <time>2025-11-11T11:04:54Z</time>
      </trkpt>
      <trkpt lat="45.7011" lon="4.60733">
        <ele>770.8</ele>
        <time>2025-11-11T11:04:55Z</time>
      </trkpt>
      <trkpt lat="45.7011" lon="4.60733">
        <ele>770.6</ele>
        <time>2025-11-11T11:04:56Z</time>
      </trkpt>
      <trkpt lat="45.7011" lon="4.60733">
        <ele>770.6</ele>
        <time>2025-11-11T11:04:57Z</time>
      </trkpt>
      <trkpt lat="45.7011" lon="4.60733">
        <ele>770.6</ele>
        <time>2025-11-11T11:04:58Z</time>
      </trkpt>
      <trkpt lat="45.7011" lon="4.60733">
        <ele>770.6</ele>
        <time>2025-11-11T11:04:59Z</time>
      </trkpt>
      <trkpt lat="45.7011" lon="4.60733">
        <ele>770.6</ele>
        <time>2025-11-11T11:05:00Z</time>
      </trkpt>
      <trkpt lat="45.7011" lon="4.60733">
        <ele>770.6</ele>
        <time>2025-11-11T11:05:01Z</time>
      </trkpt>
      <trkpt lat="45.7011" lon="4.60733">
        <ele>770.6</ele>
        <time>2025-11-11T11:05:02Z</time>
      </trkpt>
      <trkpt lat="45.7011" lon="4.60733">
        <ele>770.6</ele>
        <time>2025-11-11T11:05:03Z</time>
      </trkpt>
      <trkpt lat="45.7011" lon="4.60733">
        <ele>770.6</ele>
        <time>2025-11-11T11:05:04Z</time>
      </trkpt>
      <trkpt lat="45.7011" lon="4.60733">
        <ele>770.6</ele>
        <time>2025-11-11T11:05:05Z</time>
      </trkpt>
      <trkpt lat="45.7011" lon="4.60733">
        <ele>770.6</ele>
        <time>2025-11-11T11:05:06Z</time>
      </trkpt>
      <trkpt lat="45.7011" lon="4.60733">
        <ele>770.6</ele>
        <time>2025-11-11T11:05:07Z</time>
      </trkpt>
      <trkpt lat="45.7011" lon="4.60733">
        <ele>770.6</ele>
        <time>2025-11-11T11:05:08Z</time>
      </trkpt>
      <trkpt lat="45.7011" lon="4.60733">
        <ele>770.6</ele>
        <time>2025-11-11T11:05:09Z</time>
      </trkpt>
      <trkpt lat="45.7011" lon="4.60733">
        <ele>770.6</ele>
        <time>2025-11-11T11:05:10Z</time>
      </trkpt>
      <trkpt lat="45.7011" lon="4.60733">
        <ele>770.6</ele>
        <time>2025-11-11T11:05:11Z</time>
      </trkpt>
      <trkpt lat="45.7011" lon="4.60733">
        <ele>770.6</ele>
        <time>2025-11-11T11:05:12Z</time>
      </trkpt>
      <trkpt lat="45.7011" lon="4.60733">
        <ele>770.6</ele>
        <time>2025-11-11T11:05:13Z</time>
      </trkpt>
      <trkpt lat="45.7011" lon="4.60733">
        <ele>770.6</ele>
        <time>2025-11-11T11:05:14Z</time>
      </trkpt>
      <trkpt lat="45.7011" lon="4.60733">
        <ele>770.6</ele>
        <time>2025-11-11T11:05:15Z</time>
      </trkpt>
      <trkpt lat="45.7011" lon="4.60733">
        <ele>770.6</ele>
        <time>2025-11-11T11:05:16Z</time>
      </trkpt>
      <trkpt lat="45.7011" lon="4.60733">
        <ele>770.6</ele>
        <time>2025-11-11T11:05:17Z</time>
      </trkpt>
      <trkpt lat="45.7011" lon="4.60733">
        <ele>770.6</ele>
        <time>2025-11-11T11:05:18Z</time>
      </trkpt>
      <trkpt lat="45.7011" lon="4.60733">
        <ele>770.6</ele>
        <time>2025-11-11T11:05:19Z</time>
      </trkpt>
      <trkpt lat="45.7011" lon="4.60733">
        <ele>770.6</ele>
        <time>2025-11-11T11:05:20Z</time>
      </trkpt>
      <trkpt lat="45.7011" lon="4.60733">
        <ele>770.6</ele>
        <time>2025-11-11T11:05:21Z</time>
      </trkpt>
      <trkpt lat="45.7011" lon="4.60733">
        <ele>770.6</ele>
        <time>2025-11-11T11:05:22Z</time>
      </trkpt>
      <trkpt lat="45.7011" lon="4.60733">
        <ele>770.6</ele>
        <time>2025-11-11T11:05:23Z</time>
      </trkpt>
      <trkpt lat="45.7011" lon="4.60733">
        <ele>770.6</ele>
        <time>2025-11-11T11:05:24Z</time>
      </trkpt>
      <trkpt lat="45.7011" lon="4.60733">
        <ele>770.6</ele>
        <time>2025-11-11T11:05:25Z</time>
      </trkpt>
      <trkpt lat="45.7011" lon="4.60733">
        <ele>770.6</ele>
        <time>2025-11-11T11:05:26Z</time>
      </trkpt>
      <trkpt lat="45.7011" lon="4.60733">
        <ele>770.6</ele>
        <time>2025-11-11T11:05:27Z</time>
      </trkpt>
      <trkpt lat="45.7011" lon="4.60733">
        <ele>770.6</ele>
        <time>2025-11-11T11:05:28Z</time>
      </trkpt>
      <trkpt lat="45.7011" lon="4.60733">
        <ele>770.6</ele>
        <time>2025-11-11T11:05:29Z</time>
      </trkpt>
      <trkpt lat="45.7011" lon="4.60733">
        <ele>770.6</ele>
        <time>2025-11-11T11:05:30Z</time>
      </trkpt>
      <trkpt lat="45.7011" lon="4.60733">
        <ele>770.6</ele>
        <time>2025-11-11T11:05:31Z</time>
      </trkpt>
      <trkpt lat="45.7011" lon="4.60733">
        <ele>770.6</ele>
        <time>2025-11-11T11:05:32Z</time>
      </trkpt>
      <trkpt lat="45.7011" lon="4.60733">
        <ele>770.6</ele>
        <time>2025-11-11T11:05:33Z</time>
      </trkpt>
      <trkpt lat="45.7011" lon="4.60733">
        <ele>770.6</ele>
        <time>2025-11-11T11:05:34Z</time>
      </trkpt>
      <trkpt lat="45.7011" lon="4.60733">
        <ele>770.6</ele>
        <time>2025-11-11T11:05:35Z</time>
      </trkpt>
      <trkpt lat="45.7011" lon="4.60733">
        <ele>770.6</ele>
        <time>2025-11-11T11:05:36Z</time>
      </trkpt>
      <trkpt lat="45.7011" lon="4.60733">
        <ele>770.6</ele>
        <time>2025-11-11T11:05:37Z</time>
      </trkpt>
      <trkpt lat="45.7011" lon="4.60733">
        <ele>770.6</ele>
        <time>2025-11-11T11:05:38Z</time>
      </trkpt>
      <trkpt lat="45.7011" lon="4.60733">
        <ele>770.6</ele>
        <time>2025-11-11T11:05:39Z</time>
      </trkpt>
      <trkpt lat="45.7011" lon="4.60733">
        <ele>770.6</ele>
        <time>2025-11-11T11:05:40Z</time>
      </trkpt>
      <trkpt lat="45.7011" lon="4.60733">
        <ele>770.6</ele>
        <time>2025-11-11T11:05:41Z</time>
      </trkpt>
      <trkpt lat="45.7011" lon="4.60733">
        <ele>770.6</ele>
        <time>2025-11-11T11:05:42Z</time>
      </trkpt>
      <trkpt lat="45.7011" lon="4.60733">
        <ele>770.6</ele>
        <time>2025-11-11T11:05:43Z</time>
      </trkpt>
      <trkpt lat="45.7011" lon="4.60733">
        <ele>770.6</ele>
        <time>2025-11-11T11:05:44Z</time>
      </trkpt>
      <trkpt lat="45.7011" lon="4.60733">
        <ele>770.6</ele>
        <time>2025-11-11T11:05:45Z</time>
      </trkpt>
      <trkpt lat="45.7011" lon="4.60733">
        <ele>770.6</ele>
        <time>2025-11-11T11:05:46Z</time>
      </trkpt>
      <trkpt lat="45.7011" lon="4.60733">
        <ele>770.6</ele>
        <time>2025-11-11T11:05:47Z</time>
      </trkpt>
      <trkpt lat="45.7011" lon="4.60733">
        <ele>770.6</ele>
        <time>2025-11-11T11:05:48Z</time>
      </trkpt>
      <trkpt lat="45.7011" lon="4.60733">
        <ele>770.6</ele>
        <time>2025-11-11T11:05:49Z</time>
      </trkpt>
      <trkpt lat="45.7011" lon="4.60733">
        <ele>770.6</ele>
        <time>2025-11-11T11:05:50Z</time>
      </trkpt>
      <trkpt lat="45.7011" lon="4.60733">
        <ele>770.6</ele>
        <time>2025-11-11T11:05:51Z</time>
      </trkpt>
      <trkpt lat="45.7011" lon="4.60733">
        <ele>770.6</ele>
        <time>2025-11-11T11:05:52Z</time>
      </trkpt>
      <trkpt lat="45.7011" lon="4.60733">
        <ele>770.6</ele>
        <time>2025-11-11T11:05:53Z</time>
      </trkpt>
      <trkpt lat="45.7011" lon="4.60733">
        <ele>770.6</ele>
        <time>2025-11-11T11:05:54Z</time>
      </trkpt>
      <trkpt lat="45.7011" lon="4.60733">
        <ele>770.6</ele>
        <time>2025-11-11T11:05:55Z</time>
      </trkpt>
      <trkpt lat="45.7011" lon="4.60733">
        <ele>770.6</ele>
        <time>2025-11-11T11:05:56Z</time>
      </trkpt>
      <trkpt lat="45.7011" lon="4.60733">
        <ele>770.6</ele>
        <time>2025-11-11T11:05:57Z</time>
      </trkpt>
      <trkpt lat="45.7011" lon="4.60733">
        <ele>770.6</ele>
        <time>2025-11-11T11:05:58Z</time>
      </trkpt>
      <trkpt lat="45.7011" lon="4.60733">
        <ele>770.6</ele>
        <time>2025-11-11T11:05:59Z</time>
      </trkpt>
      <trkpt lat="45.7011" lon="4.60733">
        <ele>770.6</ele>
        <time>2025-11-11T11:06:00Z</time>
      </trkpt>
      <trkpt lat="45.7011" lon="4.60733">
        <ele>770.6</ele>
        <time>2025-11-11T11:06:01Z</time>
      </trkpt>
      <trkpt lat="45.7011" lon="4.60733">
        <ele>770.6</ele>
        <time>2025-11-11T11:06:02Z</time>
      </trkpt>
      <trkpt lat="45.7011" lon="4.60733">
        <ele>770.6</ele>
        <time>2025-11-11T11:06:03Z</time>
      </trkpt>
      <trkpt lat="45.7011" lon="4.60733">
        <ele>770.6</ele>
        <time>2025-11-11T11:06:04Z</time>
      </trkpt>
      <trkpt lat="45.7011" lon="4.60733">
        <ele>770.6</ele>
        <time>2025-11-11T11:06:05Z</time>
      </trkpt>
      <trkpt lat="45.7011" lon="4.60733">
        <ele>770.6</ele>
        <time>2025-11-11T11:06:06Z</time>
      </trkpt>
      <trkpt lat="45.70111" lon="4.60733">
        <ele>770.6</ele>
        <time>2025-11-11T11:06:07Z</time>
      </trkpt>
      <trkpt lat="45.70112" lon="4.60732">
        <ele>770.6</ele>
        <time>2025-11-11T11:06:08Z</time>
      </trkpt>
      <trkpt lat="45.70113" lon="4.60733">
        <ele>770.6</ele>
        <time>2025-11-11T11:06:09Z</time>
      </trkpt>
      <trkpt lat="45.70113" lon="4.60733">
        <ele>770.8</ele>
        <time>2025-11-11T11:06:10Z</time>
      </trkpt>
      <trkpt lat="45.70114" lon="4.60733">
        <ele>770.6</ele>
        <time>2025-11-11T11:06:11Z</time>
      </trkpt>
      <trkpt lat="45.70114" lon="4.60733">
        <ele>770.6</ele>
        <time>2025-11-11T11:06:12Z</time>
      </trkpt>
      <trkpt lat="45.70114" lon="4.60733">
        <ele>770.6</ele>
        <time>2025-11-11T11:06:13Z</time>
      </trkpt>
      <trkpt lat="45.70114" lon="4.60733">
        <ele>770.4</ele>
        <time>2025-11-11T11:06:14Z</time>
      </trkpt>
      <trkpt lat="45.70114" lon="4.60733">
        <ele>770.4</ele>
        <time>2025-11-11T11:06:15Z</time>
      </trkpt>
      <trkpt lat="45.70114" lon="4.60733">
        <ele>770.4</ele>
        <time>2025-11-11T11:06:16Z</time>
      </trkpt>
      <trkpt lat="45.70114" lon="4.60733">
        <ele>770.4</ele>
        <time>2025-11-11T11:06:17Z</time>
      </trkpt>
      <trkpt lat="45.70114" lon="4.60733">
        <ele>770.4</ele>
        <time>2025-11-11T11:06:18Z</time>
      </trkpt>
      <trkpt lat="45.70114" lon="4.60733">
        <ele>770.4</ele>
        <time>2025-11-11T11:06:19Z</time>
      </trkpt>
      <trkpt lat="45.70114" lon="4.60733">
        <ele>770.4</ele>
        <time>2025-11-11T11:06:20Z</time>
      </trkpt>
      <trkpt lat="45.70114" lon="4.60733">
        <ele>770.4</ele>
        <time>2025-11-11T11:06:21Z</time>
      </trkpt>
      <trkpt lat="45.70114" lon="4.60733">
        <ele>770.4</ele>
        <time>2025-11-11T11:06:22Z</time>
      </trkpt>
      <trkpt lat="45.70114" lon="4.60733">
        <ele>770.4</ele>
        <time>2025-11-11T11:06:23Z</time>
      </trkpt>
      <trkpt lat="45.70114" lon="4.60733">
        <ele>770.4</ele>
        <time>2025-11-11T11:06:24Z</time>
      </trkpt>
      <trkpt lat="45.70114" lon="4.60733">
        <ele>770.4</ele>
        <time>2025-11-11T11:06:25Z</time>
      </trkpt>
      <trkpt lat="45.70114" lon="4.60733">
        <ele>770.4</ele>
        <time>2025-11-11T11:06:26Z</time>
      </trkpt>
      <trkpt lat="45.70114" lon="4.60733">
        <ele>770.4</ele>
        <time>2025-11-11T11:06:27Z</time>
      </trkpt>
      <trkpt lat="45.70114" lon="4.60733">
        <ele>770.4</ele>
        <time>2025-11-11T11:06:28Z</time>
      </trkpt>
      <trkpt lat="45.70114" lon="4.60733">
        <ele>770.4</ele>
        <time>2025-11-11T11:06:29Z</time>
      </trkpt>
      <trkpt lat="45.70114" lon="4.60733">
        <ele>770.4</ele>
        <time>2025-11-11T11:06:30Z</time>
      </trkpt>
      <trkpt lat="45.70114" lon="4.60733">
        <ele>770.4</ele>
        <time>2025-11-11T11:06:31Z</time>
      </trkpt>
      <trkpt lat="45.70114" lon="4.60733">
        <ele>770.4</ele>
        <time>2025-11-11T11:06:32Z</time>
      </trkpt>
      <trkpt lat="45.70114" lon="4.60733">
        <ele>770.4</ele>
        <time>2025-11-11T11:06:33Z</time>
      </trkpt>
      <trkpt lat="45.70114" lon="4.60733">
        <ele>770.4</ele>
        <time>2025-11-11T11:06:34Z</time>
      </trkpt>
      <trkpt lat="45.70114" lon="4.60733">
        <ele>770.4</ele>
        <time>2025-11-11T11:06:35Z</time>
      </trkpt>
      <trkpt lat="45.70114" lon="4.60733">
        <ele>770.4</ele>
        <time>2025-11-11T11:06:36Z</time>
      </trkpt>
      <trkpt lat="45.70114" lon="4.60733">
        <ele>770.4</ele>
        <time>2025-11-11T11:06:37Z</time>
      </trkpt>
      <trkpt lat="45.70114" lon="4.60733">
        <ele>770.6</ele>
        <time>2025-11-11T11:06:38Z</time>
      </trkpt>
      <trkpt lat="45.70114" lon="4.60733">
        <ele>770.6</ele>
        <time>2025-11-11T11:06:39Z</time>
      </trkpt>
      <trkpt lat="45.70114" lon="4.60733">
        <ele>770.6</ele>
        <time>2025-11-11T11:06:40Z</time>
      </trkpt>
      <trkpt lat="45.70114" lon="4.60733">
        <ele>770.4</ele>
        <time>2025-11-11T11:06:41Z</time>
      </trkpt>
      <trkpt lat="45.70114" lon="4.60733">
        <ele>770.4</ele>
        <time>2025-11-11T11:06:42Z</time>
      </trkpt>
      <trkpt lat="45.70114" lon="4.60733">
        <ele>770.4</ele>
        <time>2025-11-11T11:06:43Z</time>
      </trkpt>
      <trkpt lat="45.70114" lon="4.60733">
        <ele>770.4</ele>
        <time>2025-11-11T11:06:44Z</time>
      </trkpt>
      <trkpt lat="45.70114" lon="4.60733">
        <ele>770.4</ele>
        <time>2025-11-11T11:06:45Z</time>
      </trkpt>
      <trkpt lat="45.70114" lon="4.60733">
        <ele>770.4</ele>
        <time>2025-11-11T11:06:46Z</time>
      </trkpt>
      <trkpt lat="45.70114" lon="4.60733">
        <ele>770.4</ele>
        <time>2025-11-11T11:06:47Z</time>
      </trkpt>
      <trkpt lat="45.70114" lon="4.60733">
        <ele>770.4</ele>
        <time>2025-11-11T11:06:48Z</time>
      </trkpt>
      <trkpt lat="45.70115" lon="4.60734">
        <ele>770.4</ele>
        <time>2025-11-11T11:06:49Z</time>
      </trkpt>
      <trkpt lat="45.70116" lon="4.60734">
        <ele>770.6</ele>
        <time>2025-11-11T11:06:50Z</time>
      </trkpt>
      <trkpt lat="45.70117" lon="4.60734">
        <ele>770.6</ele>
        <time>2025-11-11T11:06:51Z</time>
      </trkpt>
      <trkpt lat="45.7012" lon="4.60735">
        <ele>770.6</ele>
        <time>2025-11-11T11:06:52Z</time>
      </trkpt>
      <trkpt lat="45.70122" lon="4.60735">
        <ele>770.6</ele>
        <time>2025-11-11T11:06:53Z</time>
      </trkpt>
      <trkpt lat="45.70125" lon="4.60737">
        <ele>770.6</ele>
        <time>2025-11-11T11:06:54Z</time>
      </trkpt>
      <trkpt lat="45.70127" lon="4.60739">
        <ele>770.8</ele>
        <time>2025-11-11T11:06:55Z</time>
      </trkpt>
      <trkpt lat="45.7013" lon="4.60741">
        <ele>770.8</ele>
        <time>2025-11-11T11:06:56Z</time>
      </trkpt>
      <trkpt lat="45.70132" lon="4.60743">
        <ele>770.8</ele>
        <time>2025-11-11T11:06:57Z</time>
      </trkpt>
      <trkpt lat="45.70135" lon="4.60744">
        <ele>771</ele>
        <time>2025-11-11T11:06:58Z</time>
      </trkpt>
      <trkpt lat="45.70137" lon="4.60745">
        <ele>771</ele>
        <time>2025-11-11T11:06:59Z</time>
      </trkpt>
      <trkpt lat="45.7014" lon="4.60746">
        <ele>771.2</ele>
        <time>2025-11-11T11:07:00Z</time>
      </trkpt>
      <trkpt lat="45.70143" lon="4.60747">
        <ele>771.2</ele>
        <time>2025-11-11T11:07:01Z</time>
      </trkpt>
      <trkpt lat="45.70145" lon="4.60748">
        <ele>771.4</ele>
        <time>2025-11-11T11:07:02Z</time>
      </trkpt>
      <trkpt lat="45.70147" lon="4.60749">
        <ele>771.6</ele>
        <time>2025-11-11T11:07:03Z</time>
      </trkpt>
      <trkpt lat="45.70149" lon="4.60751">
        <ele>771.6</ele>
        <time>2025-11-11T11:07:04Z</time>
      </trkpt>
      <trkpt lat="45.70151" lon="4.60752">
        <ele>771.8</ele>
        <time>2025-11-11T11:07:05Z</time>
      </trkpt>
      <trkpt lat="45.70155" lon="4.60754">
        <ele>772</ele>
        <time>2025-11-11T11:07:06Z</time>
      </trkpt>
      <trkpt lat="45.70157" lon="4.60755">
        <ele>772</ele>
        <time>2025-11-11T11:07:07Z</time>
      </trkpt>
      <trkpt lat="45.70159" lon="4.60756">
        <ele>772.2</ele>
        <time>2025-11-11T11:07:08Z</time>
      </trkpt>
      <trkpt lat="45.70161" lon="4.60756">
        <ele>772.2</ele>
        <time>2025-11-11T11:07:09Z</time>
      </trkpt>
      <trkpt lat="45.70163" lon="4.60756">
        <ele>772.4</ele>
        <time>2025-11-11T11:07:10Z</time>
      </trkpt>
      <trkpt lat="45.70164" lon="4.60759">
        <ele>772.4</ele>
        <time>2025-11-11T11:07:11Z</time>
      </trkpt>
      <trkpt lat="45.70164" lon="4.60761">
        <ele>772.6</ele>
        <time>2025-11-11T11:07:12Z</time>
      </trkpt>
      <trkpt lat="45.70165" lon="4.60764">
        <ele>772.8</ele>
        <time>2025-11-11T11:07:13Z</time>
      </trkpt>
      <trkpt lat="45.70165" lon="4.60767">
        <ele>772.8</ele>
        <time>2025-11-11T11:07:14Z</time>
      </trkpt>
      <trkpt lat="45.70166" lon="4.60769">
        <ele>773</ele>
        <time>2025-11-11T11:07:15Z</time>
      </trkpt>
      <trkpt lat="45.70167" lon="4.60771">
        <ele>773.2</ele>
        <time>2025-11-11T11:07:16Z</time>
      </trkpt>
      <trkpt lat="45.70167" lon="4.60772">
        <ele>773.4</ele>
        <time>2025-11-11T11:07:17Z</time>
      </trkpt>
      <trkpt lat="45.70169" lon="4.60774">
        <ele>773.6</ele>
        <time>2025-11-11T11:07:18Z</time>
      </trkpt>
      <trkpt lat="45.7017" lon="4.60776">
        <ele>773.8</ele>
        <time>2025-11-11T11:07:19Z</time>
      </trkpt>
      <trkpt lat="45.70171" lon="4.60779">
        <ele>773.8</ele>
        <time>2025-11-11T11:07:20Z</time>
      </trkpt>
      <trkpt lat="45.70172" lon="4.60783">
        <ele>774</ele>
        <time>2025-11-11T11:07:21Z</time>
      </trkpt>
      <trkpt lat="45.70173" lon="4.60787">
        <ele>774</ele>
        <time>2025-11-11T11:07:22Z</time>
      </trkpt>
      <trkpt lat="45.70175" lon="4.6079">
        <ele>774.2</ele>
        <time>2025-11-11T11:07:23Z</time>
      </trkpt>
      <trkpt lat="45.70176" lon="4.60794">
        <ele>774.2</ele>
        <time>2025-11-11T11:07:24Z</time>
      </trkpt>
      <trkpt lat="45.70177" lon="4.60797">
        <ele>774.2</ele>
        <time>2025-11-11T11:07:25Z</time>
      </trkpt>
      <trkpt lat="45.70177" lon="4.60801">
        <ele>774.4</ele>
        <time>2025-11-11T11:07:26Z</time>
      </trkpt>
      <trkpt lat="45.70176" lon="4.60803">
        <ele>774.6</ele>
        <time>2025-11-11T11:07:27Z</time>
      </trkpt>
      <trkpt lat="45.70174" lon="4.60806">
        <ele>774.6</ele>
        <time>2025-11-11T11:07:28Z</time>
      </trkpt>
      <trkpt lat="45.70173" lon="4.60808">
        <ele>774.8</ele>
        <time>2025-11-11T11:07:29Z</time>
      </trkpt>
      <trkpt lat="45.70171" lon="4.6081">
        <ele>775</ele>
        <time>2025-11-11T11:07:30Z</time>
      </trkpt>
      <trkpt lat="45.70168" lon="4.60815">
        <ele>775.2</ele>
        <time>2025-11-11T11:07:31Z</time>
      </trkpt>
      <trkpt lat="45.70166" lon="4.60818">
        <ele>775.2</ele>
        <time>2025-11-11T11:07:32Z</time>
      </trkpt>
      <trkpt lat="45.70165" lon="4.60821">
        <ele>775.4</ele>
        <time>2025-11-11T11:07:33Z</time>
      </trkpt>
      <trkpt lat="45.70166" lon="4.60826">
        <ele>775.6</ele>
        <time>2025-11-11T11:07:34Z</time>
      </trkpt>
      <trkpt lat="45.70167" lon="4.6083">
        <ele>775.8</ele>
        <time>2025-11-11T11:07:35Z</time>
      </trkpt>
      <trkpt lat="45.70166" lon="4.60833">
        <ele>776</ele>
        <time>2025-11-11T11:07:36Z</time>
      </trkpt>
      <trkpt lat="45.70166" lon="4.60836">
        <ele>776.2</ele>
        <time>2025-11-11T11:07:37Z</time>
      </trkpt>
      <trkpt lat="45.70166" lon="4.60838">
        <ele>776.4</ele>
        <time>2025-11-11T11:07:38Z</time>
      </trkpt>
      <trkpt lat="45.70165" lon="4.60842">
        <ele>776.6</ele>
        <time>2025-11-11T11:07:39Z</time>
      </trkpt>
      <trkpt lat="45.70165" lon="4.60845">
        <ele>776.8</ele>
        <time>2025-11-11T11:07:40Z</time>
      </trkpt>
      <trkpt lat="45.70164" lon="4.60848">
        <ele>777</ele>
        <time>2025-11-11T11:07:41Z</time>
      </trkpt>
      <trkpt lat="45.70164" lon="4.60852">
        <ele>777.2</ele>
        <time>2025-11-11T11:07:42Z</time>
      </trkpt>
      <trkpt lat="45.70164" lon="4.60855">
        <ele>777.4</ele>
        <time>2025-11-11T11:07:43Z</time>
      </trkpt>
      <trkpt lat="45.70165" lon="4.60858">
        <ele>777.6</ele>
        <time>2025-11-11T11:07:44Z</time>
      </trkpt>
      <trkpt lat="45.70166" lon="4.60862">
        <ele>777.6</ele>
        <time>2025-11-11T11:07:45Z</time>
      </trkpt>
      <trkpt lat="45.70167" lon="4.60866">
        <ele>777.6</ele>
        <time>2025-11-11T11:07:46Z</time>
      </trkpt>
      <trkpt lat="45.70168" lon="4.6087">
        <ele>777.6</ele>
        <time>2025-11-11T11:07:47Z</time>
      </trkpt>
      <trkpt lat="45.70169" lon="4.60874">
        <ele>777.6</ele>
        <time>2025-11-11T11:07:48Z</time>
      </trkpt>
      <trkpt lat="45.70168" lon="4.60877">
        <ele>777.8</ele>
        <time>2025-11-11T11:07:49Z</time>
      </trkpt>
      <trkpt lat="45.70168" lon="4.6088">
        <ele>777.8</ele>
        <time>2025-11-11T11:07:50Z</time>
      </trkpt>
      <trkpt lat="45.70166" lon="4.60882">
        <ele>778</ele>
        <time>2025-11-11T11:07:51Z</time>
      </trkpt>
      <trkpt lat="45.70165" lon="4.60882">
        <ele>778</ele>
        <time>2025-11-11T11:07:52Z</time>
      </trkpt>
      <trkpt lat="45.70163" lon="4.60882">
        <ele>778.2</ele>
        <time>2025-11-11T11:07:53Z</time>
      </trkpt>
      <trkpt lat="45.70161" lon="4.60883">
        <ele>778.2</ele>
        <time>2025-11-11T11:07:54Z</time>
      </trkpt>
      <trkpt lat="45.70158" lon="4.60884">
        <ele>778.2</ele>
        <time>2025-11-11T11:07:55Z</time>
      </trkpt>
      <trkpt lat="45.70155" lon="4.60885">
        <ele>778.2</ele>
        <time>2025-11-11T11:07:56Z</time>
      </trkpt>
      <trkpt lat="45.70153" lon="4.60887">
        <ele>778.2</ele>
        <time>2025-11-11T11:07:57Z</time>
      </trkpt>
      <trkpt lat="45.7015" lon="4.6089">
        <ele>778.2</ele>
        <time>2025-11-11T11:07:58Z</time>
      </trkpt>
      <trkpt lat="45.70148" lon="4.60894">
        <ele>778.2</ele>
        <time>2025-11-11T11:07:59Z</time>
      </trkpt>
      <trkpt lat="45.70147" lon="4.60897">
        <ele>778.2</ele>
        <time>2025-11-11T11:08:00Z</time>
      </trkpt>
      <trkpt lat="45.70146" lon="4.60901">
        <ele>778.2</ele>
        <time>2025-11-11T11:08:01Z</time>
      </trkpt>
      <trkpt lat="45.70144" lon="4.60905">
        <ele>778.2</ele>
        <time>2025-11-11T11:08:02Z</time>
      </trkpt>
      <trkpt lat="45.70143" lon="4.60909">
        <ele>778.4</ele>
        <time>2025-11-11T11:08:03Z</time>
      </trkpt>
      <trkpt lat="45.70142" lon="4.60914">
        <ele>778.6</ele>
        <time>2025-11-11T11:08:04Z</time>
      </trkpt>
      <trkpt lat="45.70142" lon="4.60919">
        <ele>778.6</ele>
        <time>2025-11-11T11:08:05Z</time>
      </trkpt>
      <trkpt lat="45.70141" lon="4.60923">
        <ele>778.8</ele>
        <time>2025-11-11T11:08:06Z</time>
      </trkpt>
      <trkpt lat="45.70139" lon="4.60926">
        <ele>778.8</ele>
        <time>2025-11-11T11:08:07Z</time>
      </trkpt>
      <trkpt lat="45.70137" lon="4.60929">
        <ele>779</ele>
        <time>2025-11-11T11:08:08Z</time>
      </trkpt>
      <trkpt lat="45.70135" lon="4.60933">
        <ele>779</ele>
        <time>2025-11-11T11:08:09Z</time>
      </trkpt>
      <trkpt lat="45.70132" lon="4.60937">
        <ele>779.2</ele>
        <time>2025-11-11T11:08:10Z</time>
      </trkpt>
      <trkpt lat="45.70131" lon="4.6094">
        <ele>779.2</ele>
        <time>2025-11-11T11:08:11Z</time>
      </trkpt>
      <trkpt lat="45.7013" lon="4.60942">
        <ele>779</ele>
        <time>2025-11-11T11:08:12Z</time>
      </trkpt>
      <trkpt lat="45.70128" lon="4.60944">
        <ele>779</ele>
        <time>2025-11-11T11:08:13Z</time>
      </trkpt>
      <trkpt lat="45.70127" lon="4.60946">
        <ele>778.8</ele>
        <time>2025-11-11T11:08:14Z</time>
      </trkpt>
      <trkpt lat="45.70124" lon="4.60948">
        <ele>778.6</ele>
        <time>2025-11-11T11:08:15Z</time>
      </trkpt>
      <trkpt lat="45.70121" lon="4.60951">
        <ele>778.2</ele>
        <time>2025-11-11T11:08:16Z</time>
      </trkpt>
      <trkpt lat="45.70118" lon="4.60955">
        <ele>778</ele>
        <time>2025-11-11T11:08:17Z</time>
      </trkpt>
      <trkpt lat="45.70116" lon="4.60958">
        <ele>777.8</ele>
        <time>2025-11-11T11:08:18Z</time>
      </trkpt>
      <trkpt lat="45.70115" lon="4.6096">
        <ele>777.6</ele>
        <time>2025-11-11T11:08:19Z</time>
      </trkpt>
      <trkpt lat="45.70113" lon="4.60963">
        <ele>777.4</ele>
        <time>2025-11-11T11:08:20Z</time>
      </trkpt>
      <trkpt lat="45.70111" lon="4.60966">
        <ele>777.2</ele>
        <time>2025-11-11T11:08:21Z</time>
      </trkpt>
      <trkpt lat="45.70109" lon="4.60969">
        <ele>777</ele>
        <time>2025-11-11T11:08:22Z</time>
      </trkpt>
      <trkpt lat="45.70107" lon="4.60971">
        <ele>776.6</ele>
        <time>2025-11-11T11:08:23Z</time>
      </trkpt>
      <trkpt lat="45.70105" lon="4.60973">
        <ele>776.4</ele>
        <time>2025-11-11T11:08:24Z</time>
      </trkpt>
      <trkpt lat="45.70103" lon="4.60975">
        <ele>776.2</ele>
        <time>2025-11-11T11:08:25Z</time>
      </trkpt>
      <trkpt lat="45.70102" lon="4.60978">
        <ele>775.8</ele>
        <time>2025-11-11T11:08:26Z</time>
      </trkpt>
      <trkpt lat="45.70101" lon="4.60981">
        <ele>775.6</ele>
        <time>2025-11-11T11:08:27Z</time>
      </trkpt>
      <trkpt lat="45.701" lon="4.60983">
        <ele>775.4</ele>
        <time>2025-11-11T11:08:28Z</time>
      </trkpt>
      <trkpt lat="45.70098" lon="4.60986">
        <ele>775.2</ele>
        <time>2025-11-11T11:08:29Z</time>
      </trkpt>
      <trkpt lat="45.70097" lon="4.60989">
        <ele>775.2</ele>
        <time>2025-11-11T11:08:30Z</time>
      </trkpt>
      <trkpt lat="45.70095" lon="4.60992">
        <ele>775</ele>
        <time>2025-11-11T11:08:31Z</time>
      </trkpt>
      <trkpt lat="45.70094" lon="4.60994">
        <ele>774.8</ele>
        <time>2025-11-11T11:08:32Z</time>
      </trkpt>
      <trkpt lat="45.70092" lon="4.60997">
        <ele>774.6</ele>
        <time>2025-11-11T11:08:33Z</time>
      </trkpt>
      <trkpt lat="45.7009" lon="4.61">
        <ele>774.6</ele>
        <time>2025-11-11T11:08:34Z</time>
      </trkpt>
      <trkpt lat="45.70087" lon="4.61003">
        <ele>774.2</ele>
        <time>2025-11-11T11:08:35Z</time>
      </trkpt>
      <trkpt lat="45.70084" lon="4.61006">
        <ele>773.8</ele>
        <time>2025-11-11T11:08:36Z</time>
      </trkpt>
      <trkpt lat="45.70081" lon="4.61009">
        <ele>773.4</ele>
        <time>2025-11-11T11:08:37Z</time>
      </trkpt>
      <trkpt lat="45.70077" lon="4.6101">
        <ele>772.8</ele>
        <time>2025-11-11T11:08:38Z</time>
      </trkpt>
      <trkpt lat="45.70073" lon="4.61011">
        <ele>772.2</ele>
        <time>2025-11-11T11:08:39Z</time>
      </trkpt>
      <trkpt lat="45.7007" lon="4.61015">
        <ele>771.4</ele>
        <time>2025-11-11T11:08:40Z</time>
      </trkpt>
      <trkpt lat="45.70067" lon="4.61019">
        <ele>770.8</ele>
        <time>2025-11-11T11:08:41Z</time>
      </trkpt>
      <trkpt lat="45.70065" lon="4.61025">
        <ele>770.2</ele>
        <time>2025-11-11T11:08:42Z</time>
      </trkpt>
      <trkpt lat="45.70063" lon="4.61031">
        <ele>769.8</ele>
        <time>2025-11-11T11:08:43Z</time>
      </trkpt>
      <trkpt lat="45.70061" lon="4.61037">
        <ele>769.4</ele>
        <time>2025-11-11T11:08:44Z</time>
      </trkpt>
      <trkpt lat="45.70059" lon="4.61043">
        <ele>769.2</ele>
        <time>2025-11-11T11:08:45Z</time>
      </trkpt>
      <trkpt lat="45.70058" lon="4.6105">
        <ele>769</ele>
        <time>2025-11-11T11:08:46Z</time>
      </trkpt>
      <trkpt lat="45.70057" lon="4.61057">
        <ele>768.6</ele>
        <time>2025-11-11T11:08:47Z</time>
      </trkpt>
      <trkpt lat="45.70056" lon="4.61063">
        <ele>768.4</ele>
        <time>2025-11-11T11:08:48Z</time>
      </trkpt>
      <trkpt lat="45.70055" lon="4.6107">
        <ele>768.2</ele>
        <time>2025-11-11T11:08:49Z</time>
      </trkpt>
      <trkpt lat="45.70054" lon="4.61076">
        <ele>768.2</ele>
        <time>2025-11-11T11:08:50Z</time>
      </trkpt>
      <trkpt lat="45.70054" lon="4.61082">
        <ele>768</ele>
        <time>2025-11-11T11:08:51Z</time>
      </trkpt>
      <trkpt lat="45.70053" lon="4.61088">
        <ele>767.8</ele>
        <time>2025-11-11T11:08:52Z</time>
      </trkpt>
      <trkpt lat="45.70053" lon="4.61093">
        <ele>767.8</ele>
        <time>2025-11-11T11:08:53Z</time>
      </trkpt>
      <trkpt lat="45.70052" lon="4.61099">
        <ele>767.8</ele>
        <time>2025-11-11T11:08:54Z</time>
      </trkpt>
      <trkpt lat="45.70052" lon="4.61104">
        <ele>767.6</ele>
        <time>2025-11-11T11:08:55Z</time>
      </trkpt>
      <trkpt lat="45.70052" lon="4.6111">
        <ele>767.6</ele>
        <time>2025-11-11T11:08:56Z</time>
      </trkpt>
      <trkpt lat="45.70052" lon="4.61115">
        <ele>767.4</ele>
        <time>2025-11-11T11:08:57Z</time>
      </trkpt>
      <trkpt lat="45.70051" lon="4.61121">
        <ele>767.4</ele>
        <time>2025-11-11T11:08:58Z</time>
      </trkpt>
      <trkpt lat="45.7005" lon="4.61127">
        <ele>767.4</ele>
        <time>2025-11-11T11:08:59Z</time>
      </trkpt>
      <trkpt lat="45.70049" lon="4.61134">
        <ele>767.4</ele>
        <time>2025-11-11T11:09:00Z</time>
      </trkpt>
      <trkpt lat="45.70048" lon="4.61141">
        <ele>767.2</ele>
        <time>2025-11-11T11:09:01Z</time>
      </trkpt>
      <trkpt lat="45.70047" lon="4.61147">
        <ele>767.4</ele>
        <time>2025-11-11T11:09:02Z</time>
      </trkpt>
      <trkpt lat="45.70046" lon="4.61151">
        <ele>767.4</ele>
        <time>2025-11-11T11:09:03Z</time>
      </trkpt>
      <trkpt lat="45.70045" lon="4.61155">
        <ele>767.4</ele>
        <time>2025-11-11T11:09:04Z</time>
      </trkpt>
      <trkpt lat="45.70044" lon="4.61159">
        <ele>767.2</ele>
        <time>2025-11-11T11:09:05Z</time>
      </trkpt>
      <trkpt lat="45.70043" lon="4.61163">
        <ele>767.2</ele>
        <time>2025-11-11T11:09:06Z</time>
      </trkpt>
      <trkpt lat="45.70043" lon="4.61168">
        <ele>767.2</ele>
        <time>2025-11-11T11:09:07Z</time>
      </trkpt>
      <trkpt lat="45.70042" lon="4.61174">
        <ele>767.2</ele>
        <time>2025-11-11T11:09:08Z</time>
      </trkpt>
      <trkpt lat="45.7004" lon="4.6118">
        <ele>767.2</ele>
        <time>2025-11-11T11:09:09Z</time>
      </trkpt>
      <trkpt lat="45.70038" lon="4.61183">
        <ele>767.4</ele>
        <time>2025-11-11T11:09:10Z</time>
      </trkpt>
      <trkpt lat="45.70038" lon="4.61186">
        <ele>767.4</ele>
        <time>2025-11-11T11:09:11Z</time>
      </trkpt>
      <trkpt lat="45.70037" lon="4.6119">
        <ele>767.6</ele>
        <time>2025-11-11T11:09:12Z</time>
      </trkpt>
      <trkpt lat="45.70037" lon="4.61194">
        <ele>767.6</ele>
        <time>2025-11-11T11:09:13Z</time>
      </trkpt>
      <trkpt lat="45.70037" lon="4.61199">
        <ele>767.8</ele>
        <time>2025-11-11T11:09:14Z</time>
      </trkpt>
      <trkpt lat="45.70038" lon="4.61205">
        <ele>768</ele>
        <time>2025-11-11T11:09:15Z</time>
      </trkpt>
      <trkpt lat="45.70037" lon="4.6121">
        <ele>768</ele>
        <time>2025-11-11T11:09:16Z</time>
      </trkpt>
      <trkpt lat="45.70037" lon="4.61216">
        <ele>768.2</ele>
        <time>2025-11-11T11:09:17Z</time>
      </trkpt>
      <trkpt lat="45.70037" lon="4.61222">
        <ele>768.4</ele>
        <time>2025-11-11T11:09:18Z</time>
      </trkpt>
      <trkpt lat="45.70035" lon="4.61227">
        <ele>768.6</ele>
        <time>2025-11-11T11:09:19Z</time>
      </trkpt>
      <trkpt lat="45.70034" lon="4.61232">
        <ele>769</ele>
        <time>2025-11-11T11:09:20Z</time>
      </trkpt>
      <trkpt lat="45.70033" lon="4.61237">
        <ele>769.2</ele>
        <time>2025-11-11T11:09:21Z</time>
      </trkpt>
      <trkpt lat="45.70032" lon="4.61241">
        <ele>769.4</ele>
        <time>2025-11-11T11:09:22Z</time>
      </trkpt>
      <trkpt lat="45.70032" lon="4.61246">
        <ele>769.8</ele>
        <time>2025-11-11T11:09:23Z</time>
      </trkpt>
      <trkpt lat="45.70032" lon="4.61251">
        <ele>770</ele>
        <time>2025-11-11T11:09:24Z</time>
      </trkpt>
      <trkpt lat="45.70033" lon="4.61255">
        <ele>770.4</ele>
        <time>2025-11-11T11:09:25Z</time>
      </trkpt>
      <trkpt lat="45.70034" lon="4.6126">
        <ele>770.8</ele>
        <time>2025-11-11T11:09:26Z</time>
      </trkpt>
      <trkpt lat="45.70034" lon="4.61265">
        <ele>771.2</ele>
        <time>2025-11-11T11:09:27Z</time>
      </trkpt>
      <trkpt lat="45.70034" lon="4.61269">
        <ele>771.6</ele>
        <time>2025-11-11T11:09:28Z</time>
      </trkpt>
      <trkpt lat="45.70033" lon="4.61273">
        <ele>772</ele>
        <time>2025-11-11T11:09:29Z</time>
      </trkpt>
      <trkpt lat="45.70033" lon="4.61276">
        <ele>772.6</ele>
        <time>2025-11-11T11:09:30Z</time>
      </trkpt>
      <trkpt lat="45.70032" lon="4.6128">
        <ele>773</ele>
        <time>2025-11-11T11:09:31Z</time>
      </trkpt>
      <trkpt lat="45.70032" lon="4.61285">
        <ele>773.6</ele>
        <time>2025-11-11T11:09:32Z</time>
      </trkpt>
      <trkpt lat="45.70033" lon="4.61289">
        <ele>774.2</ele>
        <time>2025-11-11T11:09:33Z</time>
      </trkpt>
      <trkpt lat="45.70033" lon="4.61294">
        <ele>774.6</ele>
        <time>2025-11-11T11:09:34Z</time>
      </trkpt>
      <trkpt lat="45.70032" lon="4.61298">
        <ele>775.2</ele>
        <time>2025-11-11T11:09:35Z</time>
      </trkpt>
      <trkpt lat="45.70033" lon="4.61302">
        <ele>775.8</ele>
        <time>2025-11-11T11:09:36Z</time>
      </trkpt>
      <trkpt lat="45.70034" lon="4.61306">
        <ele>776.4</ele>
        <time>2025-11-11T11:09:37Z</time>
      </trkpt>
      <trkpt lat="45.70035" lon="4.61309">
        <ele>777.2</ele>
        <time>2025-11-11T11:09:38Z</time>
      </trkpt>
      <trkpt lat="45.70036" lon="4.61311">
        <ele>777.8</ele>
        <time>2025-11-11T11:09:39Z</time>
      </trkpt>
      <trkpt lat="45.70037" lon="4.61314">
        <ele>778.4</ele>
        <time>2025-11-11T11:09:40Z</time>
      </trkpt>
      <trkpt lat="45.70037" lon="4.61318">
        <ele>779</ele>
        <time>2025-11-11T11:09:41Z</time>
      </trkpt>
      <trkpt lat="45.70037" lon="4.61321">
        <ele>779.6</ele>
        <time>2025-11-11T11:09:42Z</time>
      </trkpt>
      <trkpt lat="45.70037" lon="4.61326">
        <ele>780.2</ele>
        <time>2025-11-11T11:09:43Z</time>
      </trkpt>
      <trkpt lat="45.70036" lon="4.61328">
        <ele>780.6</ele>
        <time>2025-11-11T11:09:44Z</time>
      </trkpt>
      <trkpt lat="45.70036" lon="4.61332">
        <ele>781.2</ele>
        <time>2025-11-11T11:09:45Z</time>
      </trkpt>
      <trkpt lat="45.70036" lon="4.61335">
        <ele>781.6</ele>
        <time>2025-11-11T11:09:46Z</time>
      </trkpt>
      <trkpt lat="45.70036" lon="4.61338">
        <ele>782</ele>
        <time>2025-11-11T11:09:47Z</time>
      </trkpt>
      <trkpt lat="45.70036" lon="4.61342">
        <ele>782.4</ele>
        <time>2025-11-11T11:09:48Z</time>
      </trkpt>
      <trkpt lat="45.70036" lon="4.61345">
        <ele>783</ele>
        <time>2025-11-11T11:09:49Z</time>
      </trkpt>
      <trkpt lat="45.70035" lon="4.61348">
        <ele>783.4</ele>
        <time>2025-11-11T11:09:50Z</time>
      </trkpt>
      <trkpt lat="45.70035" lon="4.6135">
        <ele>783.8</ele>
        <time>2025-11-11T11:09:51Z</time>
      </trkpt>
      <trkpt lat="45.70035" lon="4.61353">
        <ele>784</ele>
        <time>2025-11-11T11:09:52Z</time>
      </trkpt>
      <trkpt lat="45.70036" lon="4.61355">
        <ele>784.4</ele>
        <time>2025-11-11T11:09:53Z</time>
      </trkpt>
      <trkpt lat="45.70037" lon="4.61357">
        <ele>784.8</ele>
        <time>2025-11-11T11:09:54Z</time>
      </trkpt>
      <trkpt lat="45.70039" lon="4.61358">
        <ele>785.2</ele>
        <time>2025-11-11T11:09:55Z</time>
      </trkpt>
      <trkpt lat="45.70041" lon="4.61359">
        <ele>785.6</ele>
        <time>2025-11-11T11:09:56Z</time>
      </trkpt>
      <trkpt lat="45.70042" lon="4.61359">
        <ele>786</ele>
        <time>2025-11-11T11:09:57Z</time>
      </trkpt>
      <trkpt lat="45.70045" lon="4.61359">
        <ele>786.6</ele>
        <time>2025-11-11T11:09:58Z</time>
      </trkpt>
      <trkpt lat="45.70046" lon="4.61361">
        <ele>787</ele>
        <time>2025-11-11T11:09:59Z</time>
      </trkpt>
      <trkpt lat="45.70048" lon="4.61364">
        <ele>787.6</ele>
        <time>2025-11-11T11:10:00Z</time>
      </trkpt>
      <trkpt lat="45.70049" lon="4.61367">
        <ele>788</ele>
        <time>2025-11-11T11:10:01Z</time>
      </trkpt>
      <trkpt lat="45.7005" lon="4.61369">
        <ele>788.6</ele>
        <time>2025-11-11T11:10:02Z</time>
      </trkpt>
      <trkpt lat="45.70053" lon="4.6137">
        <ele>789</ele>
        <time>2025-11-11T11:10:03Z</time>
      </trkpt>
      <trkpt lat="45.70054" lon="4.61371">
        <ele>789.6</ele>
        <time>2025-11-11T11:10:04Z</time>
      </trkpt>
      <trkpt lat="45.70054" lon="4.61374">
        <ele>790</ele>
        <time>2025-11-11T11:10:05Z</time>
      </trkpt>
      <trkpt lat="45.70055" lon="4.61377">
        <ele>790.2</ele>
        <time>2025-11-11T11:10:06Z</time>
      </trkpt>
      <trkpt lat="45.70056" lon="4.61381">
        <ele>790.4</ele>
        <time>2025-11-11T11:10:07Z</time>
      </trkpt>
      <trkpt lat="45.70057" lon="4.61384">
        <ele>790.6</ele>
        <time>2025-11-11T11:10:08Z</time>
      </trkpt>
      <trkpt lat="45.70059" lon="4.61387">
        <ele>790.8</ele>
        <time>2025-11-11T11:10:09Z</time>
      </trkpt>
      <trkpt lat="45.7006" lon="4.61389">
        <ele>791</ele>
        <time>2025-11-11T11:10:10Z</time>
      </trkpt>
      <trkpt lat="45.70062" lon="4.61392">
        <ele>791.2</ele>
        <time>2025-11-11T11:10:11Z</time>
      </trkpt>
      <trkpt lat="45.70064" lon="4.61395">
        <ele>791.4</ele>
        <time>2025-11-11T11:10:12Z</time>
      </trkpt>
      <trkpt lat="45.70066" lon="4.61397">
        <ele>791.8</ele>
        <time>2025-11-11T11:10:13Z</time>
      </trkpt>
      <trkpt lat="45.70068" lon="4.614">
        <ele>792</ele>
        <time>2025-11-11T11:10:14Z</time>
      </trkpt>
      <trkpt lat="45.70068" lon="4.61402">
        <ele>792</ele>
        <time>2025-11-11T11:10:15Z</time>
      </trkpt>
      <trkpt lat="45.70068" lon="4.61404">
        <ele>792.2</ele>
        <time>2025-11-11T11:10:16Z</time>
      </trkpt>
      <trkpt lat="45.70069" lon="4.61407">
        <ele>792.2</ele>
        <time>2025-11-11T11:10:17Z</time>
      </trkpt>
      <trkpt lat="45.70069" lon="4.61412">
        <ele>792</ele>
        <time>2025-11-11T11:10:18Z</time>
      </trkpt>
      <trkpt lat="45.70067" lon="4.61417">
        <ele>791.8</ele>
        <time>2025-11-11T11:10:19Z</time>
      </trkpt>
      <trkpt lat="45.70067" lon="4.61422">
        <ele>791.6</ele>
        <time>2025-11-11T11:10:20Z</time>
      </trkpt>
      <trkpt lat="45.70068" lon="4.61428">
        <ele>791.4</ele>
        <time>2025-11-11T11:10:21Z</time>
      </trkpt>
      <trkpt lat="45.7007" lon="4.61434">
        <ele>791</ele>
        <time>2025-11-11T11:10:22Z</time>
      </trkpt>
      <trkpt lat="45.70071" lon="4.6144">
        <ele>790.8</ele>
        <time>2025-11-11T11:10:23Z</time>
      </trkpt>
      <trkpt lat="45.70073" lon="4.61446">
        <ele>790.2</ele>
        <time>2025-11-11T11:10:24Z</time>
      </trkpt>
      <trkpt lat="45.70074" lon="4.61452">
        <ele>789.8</ele>
        <time>2025-11-11T11:10:25Z</time>
      </trkpt>
      <trkpt lat="45.70075" lon="4.61457">
        <ele>789.4</ele>
        <time>2025-11-11T11:10:26Z</time>
      </trkpt>
      <trkpt lat="45.70078" lon="4.61461">
        <ele>788.8</ele>
        <time>2025-11-11T11:10:27Z</time>
      </trkpt>
      <trkpt lat="45.7008" lon="4.61464">
        <ele>788.4</ele>
        <time>2025-11-11T11:10:28Z</time>
      </trkpt>
      <trkpt lat="45.70083" lon="4.61466">
        <ele>788</ele>
        <time>2025-11-11T11:10:29Z</time>
      </trkpt>
      <trkpt lat="45.70085" lon="4.61468">
        <ele>787.8</ele>
        <time>2025-11-11T11:10:30Z</time>
      </trkpt>
      <trkpt lat="45.70086" lon="4.6147">
        <ele>787.4</ele>
        <time>2025-11-11T11:10:31Z</time>
      </trkpt>
      <trkpt lat="45.7009" lon="4.61472">
        <ele>787</ele>
        <time>2025-11-11T11:10:32Z</time>
      </trkpt>
      <trkpt lat="45.70095" lon="4.61472">
        <ele>786.8</ele>
        <time>2025-11-11T11:10:33Z</time>
      </trkpt>
      <trkpt lat="45.70098" lon="4.61473">
        <ele>786.4</ele>
        <time>2025-11-11T11:10:34Z</time>
      </trkpt>
      <trkpt lat="45.70102" lon="4.61475">
        <ele>786</ele>
        <time>2025-11-11T11:10:35Z</time>
      </trkpt>
      <trkpt lat="45.70105" lon="4.61477">
        <ele>785.6</ele>
        <time>2025-11-11T11:10:36Z</time>
      </trkpt>
      <trkpt lat="45.70108" lon="4.6148">
        <ele>785.2</ele>
        <time>2025-11-11T11:10:37Z</time>
      </trkpt>
      <trkpt lat="45.70111" lon="4.61481">
        <ele>784.8</ele>
        <time>2025-11-11T11:10:38Z</time>
      </trkpt>
      <trkpt lat="45.70114" lon="4.61483">
        <ele>784.4</ele>
        <time>2025-11-11T11:10:39Z</time>
      </trkpt>
      <trkpt lat="45.70116" lon="4.61485">
        <ele>784</ele>
        <time>2025-11-11T11:10:40Z</time>
      </trkpt>
      <trkpt lat="45.70118" lon="4.61488">
        <ele>783.4</ele>
        <time>2025-11-11T11:10:41Z</time>
      </trkpt>
      <trkpt lat="45.7012" lon="4.6149">
        <ele>782.8</ele>
        <time>2025-11-11T11:10:42Z</time>
      </trkpt>
      <trkpt lat="45.70123" lon="4.61493">
        <ele>782.4</ele>
        <time>2025-11-11T11:10:43Z</time>
      </trkpt>
      <trkpt lat="45.70126" lon="4.61495">
        <ele>781.8</ele>
        <time>2025-11-11T11:10:44Z</time>
      </trkpt>
      <trkpt lat="45.7013" lon="4.61497">
        <ele>781.4</ele>
        <time>2025-11-11T11:10:45Z</time>
      </trkpt>
      <trkpt lat="45.70134" lon="4.61498">
        <ele>780.8</ele>
        <time>2025-11-11T11:10:46Z</time>
      </trkpt>
      <trkpt lat="45.70137" lon="4.61499">
        <ele>780.2</ele>
        <time>2025-11-11T11:10:47Z</time>
      </trkpt>
      <trkpt lat="45.7014" lon="4.615">
        <ele>779.6</ele>
        <time>2025-11-11T11:10:48Z</time>
      </trkpt>
      <trkpt lat="45.70143" lon="4.61501">
        <ele>779.2</ele>
        <time>2025-11-11T11:10:49Z</time>
      </trkpt>
      <trkpt lat="45.70146" lon="4.61501">
        <ele>778.8</ele>
        <time>2025-11-11T11:10:50Z</time>
      </trkpt>
      <trkpt lat="45.70148" lon="4.61502">
        <ele>778.2</ele>
        <time>2025-11-11T11:10:51Z</time>
      </trkpt>
      <trkpt lat="45.7015" lon="4.61503">
        <ele>778</ele>
        <time>2025-11-11T11:10:52Z</time>
      </trkpt>
      <trkpt lat="45.70153" lon="4.61503">
        <ele>777.6</ele>
        <time>2025-11-11T11:10:53Z</time>
      </trkpt>
      <trkpt lat="45.70156" lon="4.61504">
        <ele>777.2</ele>
        <time>2025-11-11T11:10:54Z</time>
      </trkpt>
      <trkpt lat="45.70158" lon="4.61505">
        <ele>776.8</ele>
        <time>2025-11-11T11:10:55Z</time>
      </trkpt>
      <trkpt lat="45.70162" lon="4.61507">
        <ele>776.4</ele>
        <time>2025-11-11T11:10:56Z</time>
      </trkpt>
      <trkpt lat="45.70165" lon="4.61509">
        <ele>775.8</ele>
        <time>2025-11-11T11:10:57Z</time>
      </trkpt>
      <trkpt lat="45.7017" lon="4.61511">
        <ele>775.2</ele>
        <time>2025-11-11T11:10:58Z</time>
      </trkpt>
      <trkpt lat="45.70174" lon="4.61512">
        <ele>774.4</ele>
        <time>2025-11-11T11:10:59Z</time>
      </trkpt>
      <trkpt lat="45.70179" lon="4.61513">
        <ele>773.6</ele>
        <time>2025-11-11T11:11:00Z</time>
      </trkpt>
      <trkpt lat="45.70183" lon="4.61514">
        <ele>772.8</ele>
        <time>2025-11-11T11:11:01Z</time>
      </trkpt>
      <trkpt lat="45.70188" lon="4.61514">
        <ele>772.2</ele>
        <time>2025-11-11T11:11:02Z</time>
      </trkpt>
      <trkpt lat="45.70193" lon="4.61514">
        <ele>771.4</ele>
        <time>2025-11-11T11:11:03Z</time>
      </trkpt>
      <trkpt lat="45.70198" lon="4.61513">
        <ele>770.6</ele>
        <time>2025-11-11T11:11:04Z</time>
      </trkpt>
      <trkpt lat="45.70202" lon="4.61514">
        <ele>769.8</ele>
        <time>2025-11-11T11:11:05Z</time>
      </trkpt>
      <trkpt lat="45.70205" lon="4.61514">
        <ele>769</ele>
        <time>2025-11-11T11:11:06Z</time>
      </trkpt>
      <trkpt lat="45.70208" lon="4.61515">
        <ele>768.2</ele>
        <time>2025-11-11T11:11:07Z</time>
      </trkpt>
      <trkpt lat="45.70211" lon="4.61515">
        <ele>767.4</ele>
        <time>2025-11-11T11:11:08Z</time>
      </trkpt>
      <trkpt lat="45.70214" lon="4.61514">
        <ele>766.4</ele>
        <time>2025-11-11T11:11:09Z</time>
      </trkpt>
      <trkpt lat="45.70217" lon="4.61513">
        <ele>765.6</ele>
        <time>2025-11-11T11:11:10Z</time>
      </trkpt>
      <trkpt lat="45.7022" lon="4.61511">
        <ele>764.8</ele>
        <time>2025-11-11T11:11:11Z</time>
      </trkpt>
      <trkpt lat="45.70223" lon="4.61508">
        <ele>764</ele>
        <time>2025-11-11T11:11:12Z</time>
      </trkpt>
      <trkpt lat="45.70226" lon="4.61507">
        <ele>763.2</ele>
        <time>2025-11-11T11:11:13Z</time>
      </trkpt>
      <trkpt lat="45.7023" lon="4.61507">
        <ele>762.4</ele>
        <time>2025-11-11T11:11:14Z</time>
      </trkpt>
      <trkpt lat="45.70234" lon="4.61509">
        <ele>761.4</ele>
        <time>2025-11-11T11:11:15Z</time>
      </trkpt>
      <trkpt lat="45.70237" lon="4.61511">
        <ele>760.6</ele>
        <time>2025-11-11T11:11:16Z</time>
      </trkpt>
      <trkpt lat="45.7024" lon="4.61513">
        <ele>759.8</ele>
        <time>2025-11-11T11:11:17Z</time>
      </trkpt>
      <trkpt lat="45.70243" lon="4.61515">
        <ele>759</ele>
        <time>2025-11-11T11:11:18Z</time>
      </trkpt>
      <trkpt lat="45.70246" lon="4.61516">
        <ele>758.2</ele>
        <time>2025-11-11T11:11:19Z</time>
      </trkpt>
      <trkpt lat="45.70247" lon="4.61517">
        <ele>757.2</ele>
        <time>2025-11-11T11:11:20Z</time>
      </trkpt>
      <trkpt lat="45.70248" lon="4.61517">
        <ele>756.4</ele>
        <time>2025-11-11T11:11:21Z</time>
      </trkpt>
      <trkpt lat="45.70249" lon="4.61517">
        <ele>755.6</ele>
        <time>2025-11-11T11:11:22Z</time>
      </trkpt>
      <trkpt lat="45.70252" lon="4.61516">
        <ele>754.6</ele>
        <time>2025-11-11T11:11:23Z</time>
      </trkpt>
      <trkpt lat="45.70255" lon="4.61515">
        <ele>753.8</ele>
        <time>2025-11-11T11:11:24Z</time>
      </trkpt>
      <trkpt lat="45.70257" lon="4.61514">
        <ele>752.8</ele>
        <time>2025-11-11T11:11:25Z</time>
      </trkpt>
      <trkpt lat="45.70261" lon="4.61512">
        <ele>752</ele>
        <time>2025-11-11T11:11:26Z</time>
      </trkpt>
      <trkpt lat="45.70267" lon="4.61509">
        <ele>751.2</ele>
        <time>2025-11-11T11:11:27Z</time>
      </trkpt>
      <trkpt lat="45.70273" lon="4.61507">
        <ele>750.4</ele>
        <time>2025-11-11T11:11:28Z</time>
      </trkpt>
      <trkpt lat="45.7028" lon="4.61505">
        <ele>749.8</ele>
        <time>2025-11-11T11:11:29Z</time>
      </trkpt>
      <trkpt lat="45.70286" lon="4.61502">
        <ele>749</ele>
        <time>2025-11-11T11:11:30Z</time>
      </trkpt>
      <trkpt lat="45.70293" lon="4.615">
        <ele>748.4</ele>
        <time>2025-11-11T11:11:31Z</time>
      </trkpt>
      <trkpt lat="45.70297" lon="4.61496">
        <ele>747.8</ele>
        <time>2025-11-11T11:11:32Z</time>
      </trkpt>
      <trkpt lat="45.70299" lon="4.61491">
        <ele>747</ele>
        <time>2025-11-11T11:11:33Z</time>
      </trkpt>
      <trkpt lat="45.703" lon="4.61486">
        <ele>746.2</ele>
        <time>2025-11-11T11:11:34Z</time>
      </trkpt>
      <trkpt lat="45.703" lon="4.61481">
        <ele>745.4</ele>
        <time>2025-11-11T11:11:35Z</time>
      </trkpt>
      <trkpt lat="45.70301" lon="4.61475">
        <ele>744.6</ele>
        <time>2025-11-11T11:11:36Z</time>
      </trkpt>
      <trkpt lat="45.70302" lon="4.6147">
        <ele>743.8</ele>
        <time>2025-11-11T11:11:37Z</time>
      </trkpt>
      <trkpt lat="45.70304" lon="4.61464">
        <ele>743</ele>
        <time>2025-11-11T11:11:38Z</time>
      </trkpt>
      <trkpt lat="45.70307" lon="4.61458">
        <ele>742</ele>
        <time>2025-11-11T11:11:39Z</time>
      </trkpt>
      <trkpt lat="45.70308" lon="4.61452">
        <ele>741.2</ele>
        <time>2025-11-11T11:11:40Z</time>
      </trkpt>
      <trkpt lat="45.7031" lon="4.61447">
        <ele>740.4</ele>
        <time>2025-11-11T11:11:41Z</time>
      </trkpt>
      <trkpt lat="45.70311" lon="4.61442">
        <ele>739.4</ele>
        <time>2025-11-11T11:11:42Z</time>
      </trkpt>
      <trkpt lat="45.70313" lon="4.61436">
        <ele>738.6</ele>
        <time>2025-11-11T11:11:43Z</time>
      </trkpt>
      <trkpt lat="45.70314" lon="4.61431">
        <ele>737.8</ele>
        <time>2025-11-11T11:11:44Z</time>
      </trkpt>
      <trkpt lat="45.70315" lon="4.61427">
        <ele>737</ele>
        <time>2025-11-11T11:11:45Z</time>
      </trkpt>
      <trkpt lat="45.70316" lon="4.61423">
        <ele>736.2</ele>
        <time>2025-11-11T11:11:46Z</time>
      </trkpt>
      <trkpt lat="45.70317" lon="4.61419">
        <ele>735.4</ele>
        <time>2025-11-11T11:11:47Z</time>
      </trkpt>
      <trkpt lat="45.70319" lon="4.61415">
        <ele>734.8</ele>
        <time>2025-11-11T11:11:48Z</time>
      </trkpt>
      <trkpt lat="45.70321" lon="4.61409">
        <ele>734.2</ele>
        <time>2025-11-11T11:11:49Z</time>
      </trkpt>
      <trkpt lat="45.70322" lon="4.61406">
        <ele>733.4</ele>
        <time>2025-11-11T11:11:50Z</time>
      </trkpt>
      <trkpt lat="45.70324" lon="4.61405">
        <ele>732.8</ele>
        <time>2025-11-11T11:11:51Z</time>
      </trkpt>
      <trkpt lat="45.70327" lon="4.61406">
        <ele>732</ele>
        <time>2025-11-11T11:11:52Z</time>
      </trkpt>
      <trkpt lat="45.7033" lon="4.61408">
        <ele>731.4</ele>
        <time>2025-11-11T11:11:53Z</time>
      </trkpt>
      <trkpt lat="45.70333" lon="4.61411">
        <ele>730.4</ele>
        <time>2025-11-11T11:11:54Z</time>
      </trkpt>
      <trkpt lat="45.70337" lon="4.61415">
        <ele>729.6</ele>
        <time>2025-11-11T11:11:55Z</time>
      </trkpt>
      <trkpt lat="45.7034" lon="4.61418">
        <ele>728.6</ele>
        <time>2025-11-11T11:11:56Z</time>
      </trkpt>
      <trkpt lat="45.70343" lon="4.61421">
        <ele>727.8</ele>
        <time>2025-11-11T11:11:57Z</time>
      </trkpt>
      <trkpt lat="45.70347" lon="4.61425">
        <ele>726.8</ele>
        <time>2025-11-11T11:11:58Z</time>
      </trkpt>
      <trkpt lat="45.7035" lon="4.61431">
        <ele>725.8</ele>
        <time>2025-11-11T11:11:59Z</time>
      </trkpt>
      <trkpt lat="45.70352" lon="4.61435">
        <ele>725</ele>
        <time>2025-11-11T11:12:00Z</time>
      </trkpt>
      <trkpt lat="45.70353" lon="4.61438">
        <ele>724</ele>
        <time>2025-11-11T11:12:01Z</time>
      </trkpt>
      <trkpt lat="45.70353" lon="4.6144">
        <ele>723.2</ele>
        <time>2025-11-11T11:12:02Z</time>
      </trkpt>
      <trkpt lat="45.70355" lon="4.61443">
        <ele>722.2</ele>
        <time>2025-11-11T11:12:03Z</time>
      </trkpt>
      <trkpt lat="45.70358" lon="4.61445">
        <ele>721.4</ele>
        <time>2025-11-11T11:12:04Z</time>
      </trkpt>
      <trkpt lat="45.7036" lon="4.61449">
        <ele>720.6</ele>
        <time>2025-11-11T11:12:05Z</time>
      </trkpt>
      <trkpt lat="45.70363" lon="4.61453">
        <ele>720</ele>
        <time>2025-11-11T11:12:06Z</time>
      </trkpt>
      <trkpt lat="45.70363" lon="4.61454">
        <ele>719.4</ele>
        <time>2025-11-11T11:12:07Z</time>
      </trkpt>
      <trkpt lat="45.70363" lon="4.61454">
        <ele>719</ele>
        <time>2025-11-11T11:12:08Z</time>
      </trkpt>
      <trkpt lat="45.70363" lon="4.61454">
        <ele>718.6</ele>
        <time>2025-11-11T11:12:09Z</time>
      </trkpt>
      <trkpt lat="45.70363" lon="4.61454">
        <ele>718.4</ele>
        <time>2025-11-11T11:12:10Z</time>
      </trkpt>
      <trkpt lat="45.70363" lon="4.61454">
        <ele>718.2</ele>
        <time>2025-11-11T11:12:11Z</time>
      </trkpt>
      <trkpt lat="45.70363" lon="4.61454">
        <ele>718.2</ele>
        <time>2025-11-11T11:12:12Z</time>
      </trkpt>
      <trkpt lat="45.70363" lon="4.61454">
        <ele>718.2</ele>
        <time>2025-11-11T11:12:13Z</time>
      </trkpt>
      <trkpt lat="45.70363" lon="4.61454">
        <ele>718.2</ele>
        <time>2025-11-11T11:12:14Z</time>
      </trkpt>
      <trkpt lat="45.70363" lon="4.61454">
        <ele>718.2</ele>
        <time>2025-11-11T11:12:15Z</time>
      </trkpt>
      <trkpt lat="45.70363" lon="4.61454">
        <ele>718.2</ele>
        <time>2025-11-11T11:12:16Z</time>
      </trkpt>
      <trkpt lat="45.70363" lon="4.61454">
        <ele>718.2</ele>
        <time>2025-11-11T11:12:17Z</time>
      </trkpt>
      <trkpt lat="45.70363" lon="4.61454">
        <ele>718</ele>
        <time>2025-11-11T11:12:18Z</time>
      </trkpt>
      <trkpt lat="45.70363" lon="4.61454">
        <ele>718</ele>
        <time>2025-11-11T11:12:19Z</time>
      </trkpt>
      <trkpt lat="45.70363" lon="4.61454">
        <ele>718</ele>
        <time>2025-11-11T11:12:20Z</time>
      </trkpt>
      <trkpt lat="45.70363" lon="4.61454">
        <ele>718</ele>
        <time>2025-11-11T11:12:21Z</time>
      </trkpt>
      <trkpt lat="45.70363" lon="4.61454">
        <ele>718</ele>
        <time>2025-11-11T11:12:22Z</time>
      </trkpt>
      <trkpt lat="45.70363" lon="4.61454">
        <ele>718</ele>
        <time>2025-11-11T11:12:23Z</time>
      </trkpt>
      <trkpt lat="45.70363" lon="4.61454">
        <ele>718</ele>
        <time>2025-11-11T11:12:24Z</time>
      </trkpt>
      <trkpt lat="45.70363" lon="4.61454">
        <ele>718</ele>
        <time>2025-11-11T11:12:25Z</time>
      </trkpt>
      <trkpt lat="45.70363" lon="4.61454">
        <ele>718</ele>
        <time>2025-11-11T11:12:26Z</time>
      </trkpt>
      <trkpt lat="45.70363" lon="4.61454">
        <ele>718</ele>
        <time>2025-11-11T11:12:27Z</time>
      </trkpt>
      <trkpt lat="45.70363" lon="4.61454">
        <ele>718</ele>
        <time>2025-11-11T11:12:28Z</time>
      </trkpt>
      <trkpt lat="45.70363" lon="4.61454">
        <ele>718</ele>
        <time>2025-11-11T11:12:29Z</time>
      </trkpt>
      <trkpt lat="45.70363" lon="4.61454">
        <ele>717.8</ele>
        <time>2025-11-11T11:12:30Z</time>
      </trkpt>
      <trkpt lat="45.70363" lon="4.61454">
        <ele>717.8</ele>
        <time>2025-11-11T11:12:31Z</time>
      </trkpt>
      <trkpt lat="45.70363" lon="4.61454">
        <ele>717.8</ele>
        <time>2025-11-11T11:12:32Z</time>
      </trkpt>
      <trkpt lat="45.70363" lon="4.61454">
        <ele>718</ele>
        <time>2025-11-11T11:12:33Z</time>
      </trkpt>
      <trkpt lat="45.70363" lon="4.61454">
        <ele>718</ele>
        <time>2025-11-11T11:12:34Z</time>
      </trkpt>
      <trkpt lat="45.70363" lon="4.61454">
        <ele>718.2</ele>
        <time>2025-11-11T11:12:35Z</time>
      </trkpt>
      <trkpt lat="45.70363" lon="4.61454">
        <ele>718.2</ele>
        <time>2025-11-11T11:12:36Z</time>
      </trkpt>
      <trkpt lat="45.70363" lon="4.61454">
        <ele>718</ele>
        <time>2025-11-11T11:12:37Z</time>
      </trkpt>
      <trkpt lat="45.70363" lon="4.61454">
        <ele>718</ele>
        <time>2025-11-11T11:12:38Z</time>
      </trkpt>
      <trkpt lat="45.70363" lon="4.61454">
        <ele>718</ele>
        <time>2025-11-11T11:12:39Z</time>
      </trkpt>
      <trkpt lat="45.70363" lon="4.61454">
        <ele>718</ele>
        <time>2025-11-11T11:12:40Z</time>
      </trkpt>
      <trkpt lat="45.70363" lon="4.61454">
        <ele>718</ele>
        <time>2025-11-11T11:12:41Z</time>
      </trkpt>
      <trkpt lat="45.70363" lon="4.61454">
        <ele>718</ele>
        <time>2025-11-11T11:12:42Z</time>
      </trkpt>
      <trkpt lat="45.70363" lon="4.61454">
        <ele>718</ele>
        <time>2025-11-11T11:12:43Z</time>
      </trkpt>
      <trkpt lat="45.70363" lon="4.61454">
        <ele>718</ele>
        <time>2025-11-11T11:12:44Z</time>
      </trkpt>
      <trkpt lat="45.70363" lon="4.61454">
        <ele>718</ele>
        <time>2025-11-11T11:12:45Z</time>
      </trkpt>
      <trkpt lat="45.70363" lon="4.61454">
        <ele>718</ele>
        <time>2025-11-11T11:12:46Z</time>
      </trkpt>
      <trkpt lat="45.70363" lon="4.61454">
        <ele>718</ele>
        <time>2025-11-11T11:12:47Z</time>
      </trkpt>
      <trkpt lat="45.70363" lon="4.61454">
        <ele>718</ele>
        <time>2025-11-11T11:12:48Z</time>
      </trkpt>
      <trkpt lat="45.70363" lon="4.61454">
        <ele>718</ele>
        <time>2025-11-11T11:12:49Z</time>
      </trkpt>
      <trkpt lat="45.70363" lon="4.61454">
        <ele>718</ele>
        <time>2025-11-11T11:12:50Z</time>
      </trkpt>
      <trkpt lat="45.70363" lon="4.61454">
        <ele>718</ele>
        <time>2025-11-11T11:12:51Z</time>
      </trkpt>
      <trkpt lat="45.70363" lon="4.61454">
        <ele>718</ele>
        <time>2025-11-11T11:12:52Z</time>
      </trkpt>
      <trkpt lat="45.70363" lon="4.61454">
        <ele>718</ele>
        <time>2025-11-11T11:12:53Z</time>
      </trkpt>
      <trkpt lat="45.70363" lon="4.61454">
        <ele>718</ele>
        <time>2025-11-11T11:12:54Z</time>
      </trkpt>
      <trkpt lat="45.70363" lon="4.61454">
        <ele>718</ele>
        <time>2025-11-11T11:12:55Z</time>
      </trkpt>
      <trkpt lat="45.70363" lon="4.61454">
        <ele>718</ele>
        <time>2025-11-11T11:12:56Z</time>
      </trkpt>
      <trkpt lat="45.70363" lon="4.61454">
        <ele>718</ele>
        <time>2025-11-11T11:12:57Z</time>
      </trkpt>
      <trkpt lat="45.70363" lon="4.61454">
        <ele>718</ele>
        <time>2025-11-11T11:12:58Z</time>
      </trkpt>
      <trkpt lat="45.70363" lon="4.61454">
        <ele>718</ele>
        <time>2025-11-11T11:12:59Z</time>
      </trkpt>
      <trkpt lat="45.70363" lon="4.61454">
        <ele>718</ele>
        <time>2025-11-11T11:13:00Z</time>
      </trkpt>
      <trkpt lat="45.70363" lon="4.61454">
        <ele>718</ele>
        <time>2025-11-11T11:13:01Z</time>
      </trkpt>
      <trkpt lat="45.70363" lon="4.61454">
        <ele>718</ele>
        <time>2025-11-11T11:13:02Z</time>
      </trkpt>
      <trkpt lat="45.70363" lon="4.61454">
        <ele>718</ele>
        <time>2025-11-11T11:13:03Z</time>
      </trkpt>
      <trkpt lat="45.70363" lon="4.61454">
        <ele>718</ele>
        <time>2025-11-11T11:13:04Z</time>
      </trkpt>
      <trkpt lat="45.70363" lon="4.61454">
        <ele>718</ele>
        <time>2025-11-11T11:13:05Z</time>
      </trkpt>
      <trkpt lat="45.70363" lon="4.61454">
        <ele>718</ele>
        <time>2025-11-11T11:13:06Z</time>
      </trkpt>
      <trkpt lat="45.70363" lon="4.61454">
        <ele>718</ele>
        <time>2025-11-11T11:13:07Z</time>
      </trkpt>
      <trkpt lat="45.70363" lon="4.61454">
        <ele>718</ele>
        <time>2025-11-11T11:13:08Z</time>
      </trkpt>
      <trkpt lat="45.70363" lon="4.61454">
        <ele>718</ele>
        <time>2025-11-11T11:13:09Z</time>
      </trkpt>
      <trkpt lat="45.70363" lon="4.61454">
        <ele>718</ele>
        <time>2025-11-11T11:13:10Z</time>
      </trkpt>
      <trkpt lat="45.70363" lon="4.61454">
        <ele>718</ele>
        <time>2025-11-11T11:13:11Z</time>
      </trkpt>
      <trkpt lat="45.70363" lon="4.61454">
        <ele>718</ele>
        <time>2025-11-11T11:13:12Z</time>
      </trkpt>
      <trkpt lat="45.70363" lon="4.61454">
        <ele>718</ele>
        <time>2025-11-11T11:13:13Z</time>
      </trkpt>
      <trkpt lat="45.70363" lon="4.61454">
        <ele>718</ele>
        <time>2025-11-11T11:13:14Z</time>
      </trkpt>
      <trkpt lat="45.70363" lon="4.61454">
        <ele>718</ele>
        <time>2025-11-11T11:13:15Z</time>
      </trkpt>
      <trkpt lat="45.70363" lon="4.61454">
        <ele>718</ele>
        <time>2025-11-11T11:13:16Z</time>
      </trkpt>
      <trkpt lat="45.70363" lon="4.61454">
        <ele>718</ele>
        <time>2025-11-11T11:13:17Z</time>
      </trkpt>
      <trkpt lat="45.70363" lon="4.61454">
        <ele>718</ele>
        <time>2025-11-11T11:13:18Z</time>
      </trkpt>
      <trkpt lat="45.70363" lon="4.61454">
        <ele>718</ele>
        <time>2025-11-11T11:13:19Z</time>
      </trkpt>
      <trkpt lat="45.70363" lon="4.61454">
        <ele>718</ele>
        <time>2025-11-11T11:13:20Z</time>
      </trkpt>
      <trkpt lat="45.70363" lon="4.61454">
        <ele>718</ele>
        <time>2025-11-11T11:13:21Z</time>
      </trkpt>
      <trkpt lat="45.70363" lon="4.61454">
        <ele>718</ele>
        <time>2025-11-11T11:13:22Z</time>
      </trkpt>
      <trkpt lat="45.70363" lon="4.61454">
        <ele>718</ele>
        <time>2025-11-11T11:13:23Z</time>
      </trkpt>
      <trkpt lat="45.70363" lon="4.61454">
        <ele>718</ele>
        <time>2025-11-11T11:13:24Z</time>
      </trkpt>
      <trkpt lat="45.70363" lon="4.61454">
        <ele>718</ele>
        <time>2025-11-11T11:13:25Z</time>
      </trkpt>
      <trkpt lat="45.70363" lon="4.61454">
        <ele>718</ele>
        <time>2025-11-11T11:13:26Z</time>
      </trkpt>
      <trkpt lat="45.70363" lon="4.61454">
        <ele>718</ele>
        <time>2025-11-11T11:13:27Z</time>
      </trkpt>
      <trkpt lat="45.70363" lon="4.61454">
        <ele>718</ele>
        <time>2025-11-11T11:13:28Z</time>
      </trkpt>
      <trkpt lat="45.70363" lon="4.61454">
        <ele>718</ele>
        <time>2025-11-11T11:13:29Z</time>
      </trkpt>
      <trkpt lat="45.70363" lon="4.61454">
        <ele>718</ele>
        <time>2025-11-11T11:13:30Z</time>
      </trkpt>
      <trkpt lat="45.70363" lon="4.61454">
        <ele>718</ele>
        <time>2025-11-11T11:13:31Z</time>
      </trkpt>
      <trkpt lat="45.70363" lon="4.61454">
        <ele>718</ele>
        <time>2025-11-11T11:13:32Z</time>
      </trkpt>
      <trkpt lat="45.70363" lon="4.61454">
        <ele>718</ele>
        <time>2025-11-11T11:13:33Z</time>
      </trkpt>
      <trkpt lat="45.70363" lon="4.61454">
        <ele>718</ele>
        <time>2025-11-11T11:13:34Z</time>
      </trkpt>
      <trkpt lat="45.70363" lon="4.61454">
        <ele>718</ele>
        <time>2025-11-11T11:13:35Z</time>
      </trkpt>
      <trkpt lat="45.70363" lon="4.61454">
        <ele>718</ele>
        <time>2025-11-11T11:13:36Z</time>
      </trkpt>
      <trkpt lat="45.70363" lon="4.61454">
        <ele>718</ele>
        <time>2025-11-11T11:13:37Z</time>
      </trkpt>
      <trkpt lat="45.70363" lon="4.61454">
        <ele>718</ele>
        <time>2025-11-11T11:13:38Z</time>
      </trkpt>
      <trkpt lat="45.70364" lon="4.61456">
        <ele>718</ele>
        <time>2025-11-11T11:13:39Z</time>
      </trkpt>
      <trkpt lat="45.70365" lon="4.61458">
        <ele>718</ele>
        <time>2025-11-11T11:13:40Z</time>
      </trkpt>
      <trkpt lat="45.70365" lon="4.6146">
        <ele>718</ele>
        <time>2025-11-11T11:13:41Z</time>
      </trkpt>
      <trkpt lat="45.70366" lon="4.61463">
        <ele>718</ele>
        <time>2025-11-11T11:13:42Z</time>
      </trkpt>
      <trkpt lat="45.70367" lon="4.61466">
        <ele>718.2</ele>
        <time>2025-11-11T11:13:43Z</time>
      </trkpt>
      <trkpt lat="45.70368" lon="4.6147">
        <ele>718.2</ele>
        <time>2025-11-11T11:13:44Z</time>
      </trkpt>
      <trkpt lat="45.7037" lon="4.61474">
        <ele>718</ele>
        <time>2025-11-11T11:13:45Z</time>
      </trkpt>
      <trkpt lat="45.70372" lon="4.61479">
        <ele>717.8</ele>
        <time>2025-11-11T11:13:46Z</time>
      </trkpt>
      <trkpt lat="45.70374" lon="4.61484">
        <ele>717.6</ele>
        <time>2025-11-11T11:13:47Z</time>
      </trkpt>
      <trkpt lat="45.70376" lon="4.61491">
        <ele>717.4</ele>
        <time>2025-11-11T11:13:48Z</time>
      </trkpt>
      <trkpt lat="45.70377" lon="4.61495">
        <ele>717.2</ele>
        <time>2025-11-11T11:13:49Z</time>
      </trkpt>
      <trkpt lat="45.70379" lon="4.61501">
        <ele>717</ele>
        <time>2025-11-11T11:13:50Z</time>
      </trkpt>
      <trkpt lat="45.70381" lon="4.61507">
        <ele>716.6</ele>
        <time>2025-11-11T11:13:51Z</time>
      </trkpt>
      <trkpt lat="45.70383" lon="4.61513">
        <ele>716.4</ele>
        <time>2025-11-11T11:13:52Z</time>
      </trkpt>
      <trkpt lat="45.70385" lon="4.61517">
        <ele>716</ele>
        <time>2025-11-11T11:13:53Z</time>
      </trkpt>
      <trkpt lat="45.70387" lon="4.61522">
        <ele>715.6</ele>
        <time>2025-11-11T11:13:54Z</time>
      </trkpt>
      <trkpt lat="45.70389" lon="4.61525">
        <ele>715.2</ele>
        <time>2025-11-11T11:13:55Z</time>
      </trkpt>
      <trkpt lat="45.70392" lon="4.61531">
        <ele>714.6</ele>
        <time>2025-11-11T11:13:56Z</time>
      </trkpt>
      <trkpt lat="45.70396" lon="4.61536">
        <ele>714.2</ele>
        <time>2025-11-11T11:13:57Z</time>
      </trkpt>
      <trkpt lat="45.70398" lon="4.61542">
        <ele>713.6</ele>
        <time>2025-11-11T11:13:58Z</time>
      </trkpt>
      <trkpt lat="45.704" lon="4.61547">
        <ele>713</ele>
        <time>2025-11-11T11:13:59Z</time>
      </trkpt>
      <trkpt lat="45.70403" lon="4.61553">
        <ele>712.4</ele>
        <time>2025-11-11T11:14:00Z</time>
      </trkpt>
      <trkpt lat="45.70407" lon="4.61559">
        <ele>711.6</ele>
        <time>2025-11-11T11:14:01Z</time>
      </trkpt>
      <trkpt lat="45.7041" lon="4.61564">
        <ele>711</ele>
        <time>2025-11-11T11:14:02Z</time>
      </trkpt>
      <trkpt lat="45.70414" lon="4.61568">
        <ele>710.2</ele>
        <time>2025-11-11T11:14:03Z</time>
      </trkpt>
      <trkpt lat="45.70417" lon="4.61571">
        <ele>709.6</ele>
        <time>2025-11-11T11:14:04Z</time>
      </trkpt>
      <trkpt lat="45.7042" lon="4.61574">
        <ele>708.8</ele>
        <time>2025-11-11T11:14:05Z</time>
      </trkpt>
      <trkpt lat="45.70423" lon="4.61577">
        <ele>708.2</ele>
        <time>2025-11-11T11:14:06Z</time>
      </trkpt>
      <trkpt lat="45.70426" lon="4.6158">
        <ele>707.4</ele>
        <time>2025-11-11T11:14:07Z</time>
      </trkpt>
      <trkpt lat="45.70429" lon="4.61583">
        <ele>706.8</ele>
        <time>2025-11-11T11:14:08Z</time>
      </trkpt>
      <trkpt lat="45.70432" lon="4.61587">
        <ele>706</ele>
        <time>2025-11-11T11:14:09Z</time>
      </trkpt>
      <trkpt lat="45.70437" lon="4.6159">
        <ele>705.4</ele>
        <time>2025-11-11T11:14:10Z</time>
      </trkpt>
      <trkpt lat="45.70442" lon="4.61594">
        <ele>704.6</ele>
        <time>2025-11-11T11:14:11Z</time>
      </trkpt>
      <trkpt lat="45.70448" lon="4.61598">
        <ele>703.8</ele>
        <time>2025-11-11T11:14:12Z</time>
      </trkpt>
      <trkpt lat="45.70453" lon="4.61601">
        <ele>703</ele>
        <time>2025-11-11T11:14:13Z</time>
      </trkpt>
      <trkpt lat="45.7046" lon="4.61604">
        <ele>702.2</ele>
        <time>2025-11-11T11:14:14Z</time>
      </trkpt>
      <trkpt lat="45.70467" lon="4.61609">
        <ele>701.2</ele>
        <time>2025-11-11T11:14:15Z</time>
      </trkpt>
      <trkpt lat="45.70473" lon="4.61616">
        <ele>700.2</ele>
        <time>2025-11-11T11:14:16Z</time>
      </trkpt>
      <trkpt lat="45.70481" lon="4.61625">
        <ele>699.4</ele>
        <time>2025-11-11T11:14:17Z</time>
      </trkpt>
      <trkpt lat="45.70487" lon="4.61634">
        <ele>698.4</ele>
        <time>2025-11-11T11:14:18Z</time>
      </trkpt>
      <trkpt lat="45.70493" lon="4.61641">
        <ele>697.4</ele>
        <time>2025-11-11T11:14:19Z</time>
      </trkpt>
      <trkpt lat="45.70499" lon="4.61647">
        <ele>696.2</ele>
        <time>2025-11-11T11:14:20Z</time>
      </trkpt>
      <trkpt lat="45.70504" lon="4.61651">
        <ele>695.2</ele>
        <time>2025-11-11T11:14:21Z</time>
      </trkpt>
      <trkpt lat="45.70506" lon="4.61653">
        <ele>694</ele>
        <time>2025-11-11T11:14:22Z</time>
      </trkpt>
      <trkpt lat="45.70508" lon="4.61654">
        <ele>693</ele>
        <time>2025-11-11T11:14:23Z</time>
      </trkpt>
      <trkpt lat="45.70509" lon="4.61654">
        <ele>692.2</ele>
        <time>2025-11-11T11:14:24Z</time>
      </trkpt>
      <trkpt lat="45.70509" lon="4.61654">
        <ele>691.4</ele>
        <time>2025-11-11T11:14:25Z</time>
      </trkpt>
      <trkpt lat="45.70509" lon="4.61654">
        <ele>691</ele>
        <time>2025-11-11T11:14:26Z</time>
      </trkpt>
      <trkpt lat="45.70509" lon="4.61654">
        <ele>690.6</ele>
        <time>2025-11-11T11:14:27Z</time>
      </trkpt>
      <trkpt lat="45.70509" lon="4.61654">
        <ele>690.4</ele>
        <time>2025-11-11T11:14:28Z</time>
      </trkpt>
      <trkpt lat="45.70509" lon="4.61654">
        <ele>690.2</ele>
        <time>2025-11-11T11:14:29Z</time>
      </trkpt>
      <trkpt lat="45.70509" lon="4.61654">
        <ele>690.2</ele>
        <time>2025-11-11T11:14:30Z</time>
      </trkpt>
      <trkpt lat="45.7051" lon="4.61654">
        <ele>690</ele>
        <time>2025-11-11T11:14:31Z</time>
      </trkpt>
      <trkpt lat="45.70511" lon="4.61654">
        <ele>690</ele>
        <time>2025-11-11T11:14:32Z</time>
      </trkpt>
      <trkpt lat="45.70512" lon="4.61655">
        <ele>690</ele>
        <time>2025-11-11T11:14:33Z</time>
      </trkpt>
      <trkpt lat="45.70513" lon="4.61655">
        <ele>689.8</ele>
        <time>2025-11-11T11:14:34Z</time>
      </trkpt>
      <trkpt lat="45.70514" lon="4.61655">
        <ele>689.6</ele>
        <time>2025-11-11T11:14:35Z</time>
      </trkpt>
      <trkpt lat="45.70515" lon="4.61656">
        <ele>689.6</ele>
        <time>2025-11-11T11:14:36Z</time>
      </trkpt>
      <trkpt lat="45.70517" lon="4.61658">
        <ele>689.4</ele>
        <time>2025-11-11T11:14:37Z</time>
      </trkpt>
      <trkpt lat="45.70519" lon="4.61659">
        <ele>689</ele>
        <time>2025-11-11T11:14:38Z</time>
      </trkpt>
      <trkpt lat="45.7052" lon="4.61663">
        <ele>688.8</ele>
        <time>2025-11-11T11:14:39Z</time>
      </trkpt>
      <trkpt lat="45.7052" lon="4.61667">
        <ele>688.4</ele>
        <time>2025-11-11T11:14:40Z</time>
      </trkpt>
      <trkpt lat="45.7052" lon="4.61671">
        <ele>688.2</ele>
        <time>2025-11-11T11:14:41Z</time>
      </trkpt>
      <trkpt lat="45.70519" lon="4.61676">
        <ele>688.2</ele>
        <time>2025-11-11T11:14:42Z</time>
      </trkpt>
      <trkpt lat="45.70517" lon="4.6168">
        <ele>688.2</ele>
        <time>2025-11-11T11:14:43Z</time>
      </trkpt>
      <trkpt lat="45.70516" lon="4.61684">
        <ele>688.2</ele>
        <time>2025-11-11T11:14:44Z</time>
      </trkpt>
      <trkpt lat="45.70513" lon="4.61689">
        <ele>688.4</ele>
        <time>2025-11-11T11:14:45Z</time>
      </trkpt>
      <trkpt lat="45.70511" lon="4.61694">
        <ele>688.6</ele>
        <time>2025-11-11T11:14:46Z</time>
      </trkpt>
      <trkpt lat="45.70508" lon="4.61698">
        <ele>688.6</ele>
        <time>2025-11-11T11:14:47Z</time>
      </trkpt>
      <trkpt lat="45.70505" lon="4.61703">
        <ele>688.8</ele>
        <time>2025-11-11T11:14:48Z</time>
      </trkpt>
      <trkpt lat="45.70503" lon="4.61709">
        <ele>688.8</ele>
        <time>2025-11-11T11:14:49Z</time>
      </trkpt>
      <trkpt lat="45.705" lon="4.61714">
        <ele>688.8</ele>
        <time>2025-11-11T11:14:50Z</time>
      </trkpt>
      <trkpt lat="45.70498" lon="4.6172">
        <ele>688.8</ele>
        <time>2025-11-11T11:14:51Z</time>
      </trkpt>
      <trkpt lat="45.70496" lon="4.61725">
        <ele>689</ele>
        <time>2025-11-11T11:14:52Z</time>
      </trkpt>
      <trkpt lat="45.70495" lon="4.61731">
        <ele>689</ele>
        <time>2025-11-11T11:14:53Z</time>
      </trkpt>
      <trkpt lat="45.70493" lon="4.61736">
        <ele>689.2</ele>
        <time>2025-11-11T11:14:54Z</time>
      </trkpt>
      <trkpt lat="45.70494" lon="4.61741">
        <ele>689.4</ele>
        <time>2025-11-11T11:14:55Z</time>
      </trkpt>
      <trkpt lat="45.70495" lon="4.61744">
        <ele>689.6</ele>
        <time>2025-11-11T11:14:56Z</time>
      </trkpt>
      <trkpt lat="45.70497" lon="4.61746">
        <ele>689.8</ele>
        <time>2025-11-11T11:14:57Z</time>
      </trkpt>
      <trkpt lat="45.705" lon="4.61748">
        <ele>689.6</ele>
        <time>2025-11-11T11:14:58Z</time>
      </trkpt>
      <trkpt lat="45.70504" lon="4.6175">
        <ele>689.4</ele>
        <time>2025-11-11T11:14:59Z</time>
      </trkpt>
      <trkpt lat="45.70509" lon="4.61753">
        <ele>688.8</ele>
        <time>2025-11-11T11:15:00Z</time>
      </trkpt>
      <trkpt lat="45.70513" lon="4.61756">
        <ele>688.2</ele>
        <time>2025-11-11T11:15:01Z</time>
      </trkpt>
      <trkpt lat="45.70515" lon="4.6176">
        <ele>687.2</ele>
        <time>2025-11-11T11:15:02Z</time>
      </trkpt>
      <trkpt lat="45.70517" lon="4.61766">
        <ele>686.4</ele>
        <time>2025-11-11T11:15:03Z</time>
      </trkpt>
      <trkpt lat="45.70518" lon="4.61773">
        <ele>685.6</ele>
        <time>2025-11-11T11:15:04Z</time>
      </trkpt>
      <trkpt lat="45.70519" lon="4.6178">
        <ele>684.8</ele>
        <time>2025-11-11T11:15:05Z</time>
      </trkpt>
      <trkpt lat="45.70519" lon="4.61789">
        <ele>684</ele>
        <time>2025-11-11T11:15:06Z</time>
      </trkpt>
      <trkpt lat="45.7052" lon="4.61798">
        <ele>683.2</ele>
        <time>2025-11-11T11:15:07Z</time>
      </trkpt>
      <trkpt lat="45.70521" lon="4.61805">
        <ele>682.6</ele>
        <time>2025-11-11T11:15:08Z</time>
      </trkpt>
      <trkpt lat="45.70524" lon="4.61813">
        <ele>681.8</ele>
        <time>2025-11-11T11:15:09Z</time>
      </trkpt>
      <trkpt lat="45.70528" lon="4.6182">
        <ele>680.8</ele>
        <time>2025-11-11T11:15:10Z</time>
      </trkpt>
      <trkpt lat="45.70531" lon="4.61826">
        <ele>679.8</ele>
        <time>2025-11-11T11:15:11Z</time>
      </trkpt>
      <trkpt lat="45.70533" lon="4.61832">
        <ele>678.8</ele>
        <time>2025-11-11T11:15:12Z</time>
      </trkpt>
      <trkpt lat="45.70533" lon="4.61836">
        <ele>677.8</ele>
        <time>2025-11-11T11:15:13Z</time>
      </trkpt>
      <trkpt lat="45.70532" lon="4.6184">
        <ele>677</ele>
        <time>2025-11-11T11:15:14Z</time>
      </trkpt>
      <trkpt lat="45.70532" lon="4.61844">
        <ele>676.2</ele>
        <time>2025-11-11T11:15:15Z</time>
      </trkpt>
      <trkpt lat="45.70531" lon="4.61847">
        <ele>675.8</ele>
        <time>2025-11-11T11:15:16Z</time>
      </trkpt>
      <trkpt lat="45.70531" lon="4.61852">
        <ele>675.6</ele>
        <time>2025-11-11T11:15:17Z</time>
      </trkpt>
      <trkpt lat="45.7053" lon="4.61856">
        <ele>675.6</ele>
        <time>2025-11-11T11:15:18Z</time>
      </trkpt>
      <trkpt lat="45.70528" lon="4.61861">
        <ele>675.6</ele>
        <time>2025-11-11T11:15:19Z</time>
      </trkpt>
      <trkpt lat="45.70526" lon="4.61866">
        <ele>675.6</ele>
        <time>2025-11-11T11:15:20Z</time>
      </trkpt>
      <trkpt lat="45.70525" lon="4.61871">
        <ele>675.8</ele>
        <time>2025-11-11T11:15:21Z</time>
      </trkpt>
      <trkpt lat="45.70524" lon="4.61877">
        <ele>675.8</ele>
        <time>2025-11-11T11:15:22Z</time>
      </trkpt>
      <trkpt lat="45.70524" lon="4.61883">
        <ele>675.8</ele>
        <time>2025-11-11T11:15:23Z</time>
      </trkpt>
      <trkpt lat="45.70523" lon="4.61889">
        <ele>675.8</ele>
        <time>2025-11-11T11:15:24Z</time>
      </trkpt>
      <trkpt lat="45.70523" lon="4.61896">
        <ele>675.8</ele>
        <time>2025-11-11T11:15:25Z</time>
      </trkpt>
      <trkpt lat="45.70524" lon="4.61903">
        <ele>675.8</ele>
        <time>2025-11-11T11:15:26Z</time>
      </trkpt>
      <trkpt lat="45.70524" lon="4.61911">
        <ele>675.6</ele>
        <time>2025-11-11T11:15:27Z</time>
      </trkpt>
      <trkpt lat="45.70524" lon="4.6192">
        <ele>675.6</ele>
        <time>2025-11-11T11:15:28Z</time>
      </trkpt>
      <trkpt lat="45.70524" lon="4.61928">
        <ele>675.4</ele>
        <time>2025-11-11T11:15:29Z</time>
      </trkpt>
      <trkpt lat="45.70524" lon="4.61936">
        <ele>675.4</ele>
        <time>2025-11-11T11:15:30Z</time>
      </trkpt>
      <trkpt lat="45.70525" lon="4.61945">
        <ele>675.4</ele>
        <time>2025-11-11T11:15:31Z</time>
      </trkpt>
      <trkpt lat="45.70525" lon="4.61953">
        <ele>675.4</ele>
        <time>2025-11-11T11:15:32Z</time>
      </trkpt>
      <trkpt lat="45.70525" lon="4.61961">
        <ele>675.4</ele>
        <time>2025-11-11T11:15:33Z</time>
      </trkpt>
      <trkpt lat="45.70524" lon="4.61969">
        <ele>675.4</ele>
        <time>2025-11-11T11:15:34Z</time>
      </trkpt>
      <trkpt lat="45.70524" lon="4.61977">
        <ele>675.4</ele>
        <time>2025-11-11T11:15:35Z</time>
      </trkpt>
      <trkpt lat="45.70523" lon="4.61985">
        <ele>675.4</ele>
        <time>2025-11-11T11:15:36Z</time>
      </trkpt>
      <trkpt lat="45.70522" lon="4.61993">
        <ele>675.6</ele>
        <time>2025-11-11T11:15:37Z</time>
      </trkpt>
      <trkpt lat="45.70521" lon="4.62001">
        <ele>675.6</ele>
        <time>2025-11-11T11:15:38Z</time>
      </trkpt>
      <trkpt lat="45.70519" lon="4.62009">
        <ele>675.6</ele>
        <time>2025-11-11T11:15:39Z</time>
      </trkpt>
      <trkpt lat="45.70518" lon="4.62017">
        <ele>675.8</ele>
        <time>2025-11-11T11:15:40Z</time>
      </trkpt>
      <trkpt lat="45.70518" lon="4.62026">
        <ele>675.8</ele>
        <time>2025-11-11T11:15:41Z</time>
      </trkpt>
      <trkpt lat="45.70516" lon="4.62034">
        <ele>675.8</ele>
        <time>2025-11-11T11:15:42Z</time>
      </trkpt>
      <trkpt lat="45.70515" lon="4.62042">
        <ele>676</ele>
        <time>2025-11-11T11:15:43Z</time>
      </trkpt>
      <trkpt lat="45.70514" lon="4.6205">
        <ele>676.2</ele>
        <time>2025-11-11T11:15:44Z</time>
      </trkpt>
      <trkpt lat="45.70512" lon="4.62057">
        <ele>676.2</ele>
        <time>2025-11-11T11:15:45Z</time>
      </trkpt>
      <trkpt lat="45.70511" lon="4.62064">
        <ele>676.4</ele>
        <time>2025-11-11T11:15:46Z</time>
      </trkpt>
      <trkpt lat="45.7051" lon="4.62071">
        <ele>676.6</ele>
        <time>2025-11-11T11:15:47Z</time>
      </trkpt>
      <trkpt lat="45.70508" lon="4.62077">
        <ele>676.6</ele>
        <time>2025-11-11T11:15:48Z</time>
      </trkpt>
      <trkpt lat="45.70506" lon="4.62083">
        <ele>676.8</ele>
        <time>2025-11-11T11:15:49Z</time>
      </trkpt>
      <trkpt lat="45.70504" lon="4.6209">
        <ele>676.8</ele>
        <time>2025-11-11T11:15:50Z</time>
      </trkpt>
      <trkpt lat="45.70502" lon="4.62097">
        <ele>677</ele>
        <time>2025-11-11T11:15:51Z</time>
      </trkpt>
      <trkpt lat="45.705" lon="4.62103">
        <ele>677</ele>
        <time>2025-11-11T11:15:52Z</time>
      </trkpt>
      <trkpt lat="45.70498" lon="4.6211">
        <ele>677</ele>
        <time>2025-11-11T11:15:53Z</time>
      </trkpt>
      <trkpt lat="45.70495" lon="4.62117">
        <ele>677.2</ele>
        <time>2025-11-11T11:15:54Z</time>
      </trkpt>
      <trkpt lat="45.70493" lon="4.62124">
        <ele>677.2</ele>
        <time>2025-11-11T11:15:55Z</time>
      </trkpt>
      <trkpt lat="45.7049" lon="4.62131">
        <ele>677.2</ele>
        <time>2025-11-11T11:15:56Z</time>
      </trkpt>
      <trkpt lat="45.70488" lon="4.62137">
        <ele>677.2</ele>
        <time>2025-11-11T11:15:57Z</time>
      </trkpt>
      <trkpt lat="45.70485" lon="4.62144">
        <ele>677.2</ele>
        <time>2025-11-11T11:15:58Z</time>
      </trkpt>
      <trkpt lat="45.70483" lon="4.62151">
        <ele>677.2</ele>
        <time>2025-11-11T11:15:59Z</time>
      </trkpt>
      <trkpt lat="45.70481" lon="4.62158">
        <ele>677.2</ele>
        <time>2025-11-11T11:16:00Z</time>
      </trkpt>
      <trkpt lat="45.70479" lon="4.62164">
        <ele>677.2</ele>
        <time>2025-11-11T11:16:01Z</time>
      </trkpt>
      <trkpt lat="45.70477" lon="4.62171">
        <ele>677.2</ele>
        <time>2025-11-11T11:16:02Z</time>
      </trkpt>
      <trkpt lat="45.70474" lon="4.62178">
        <ele>677</ele>
        <time>2025-11-11T11:16:03Z</time>
      </trkpt>
      <trkpt lat="45.70472" lon="4.62185">
        <ele>676.8</ele>
        <time>2025-11-11T11:16:04Z</time>
      </trkpt>
      <trkpt lat="45.7047" lon="4.62193">
        <ele>676.6</ele>
        <time>2025-11-11T11:16:05Z</time>
      </trkpt>
      <trkpt lat="45.70467" lon="4.62201">
        <ele>676.4</ele>
        <time>2025-11-11T11:16:06Z</time>
      </trkpt>
      <trkpt lat="45.70464" lon="4.62208">
        <ele>676.2</ele>
        <time>2025-11-11T11:16:07Z</time>
      </trkpt>
      <trkpt lat="45.7046" lon="4.62216">
        <ele>676</ele>
        <time>2025-11-11T11:16:08Z</time>
      </trkpt>
      <trkpt lat="45.70457" lon="4.62223">
        <ele>675.8</ele>
        <time>2025-11-11T11:16:09Z</time>
      </trkpt>
      <trkpt lat="45.70454" lon="4.62231">
        <ele>675.6</ele>
        <time>2025-11-11T11:16:10Z</time>
      </trkpt>
      <trkpt lat="45.7045" lon="4.62238">
        <ele>675.2</ele>
        <time>2025-11-11T11:16:11Z</time>
      </trkpt>
      <trkpt lat="45.70447" lon="4.62246">
        <ele>675</ele>
        <time>2025-11-11T11:16:12Z</time>
      </trkpt>
      <trkpt lat="45.70443" lon="4.62253">
        <ele>674.8</ele>
        <time>2025-11-11T11:16:13Z</time>
      </trkpt>
      <trkpt lat="45.7044" lon="4.62261">
        <ele>674.8</ele>
        <time>2025-11-11T11:16:14Z</time>
      </trkpt>
      <trkpt lat="45.70437" lon="4.62269">
        <ele>674.6</ele>
        <time>2025-11-11T11:16:15Z</time>
      </trkpt>
      <trkpt lat="45.70434" lon="4.62277">
        <ele>674.4</ele>
        <time>2025-11-11T11:16:16Z</time>
      </trkpt>
      <trkpt lat="45.70432" lon="4.62285">
        <ele>674.4</ele>
        <time>2025-11-11T11:16:17Z</time>
      </trkpt>
      <trkpt lat="45.70429" lon="4.62293">
        <ele>674.2</ele>
        <time>2025-11-11T11:16:18Z</time>
      </trkpt>
      <trkpt lat="45.70427" lon="4.623">
        <ele>674.2</ele>
        <time>2025-11-11T11:16:19Z</time>
      </trkpt>
      <trkpt lat="45.70425" lon="4.62308">
        <ele>674</ele>
        <time>2025-11-11T11:16:20Z</time>
      </trkpt>
      <trkpt lat="45.70423" lon="4.62316">
        <ele>673.8</ele>
        <time>2025-11-11T11:16:21Z</time>
      </trkpt>
      <trkpt lat="45.7042" lon="4.62325">
        <ele>673.6</ele>
        <time>2025-11-11T11:16:22Z</time>
      </trkpt>
      <trkpt lat="45.70418" lon="4.62333">
        <ele>673.4</ele>
        <time>2025-11-11T11:16:23Z</time>
      </trkpt>
      <trkpt lat="45.70417" lon="4.62341">
        <ele>673.2</ele>
        <time>2025-11-11T11:16:24Z</time>
      </trkpt>
      <trkpt lat="45.70415" lon="4.6235">
        <ele>672.8</ele>
        <time>2025-11-11T11:16:25Z</time>
      </trkpt>
      <trkpt lat="45.70413" lon="4.62359">
        <ele>672.6</ele>
        <time>2025-11-11T11:16:26Z</time>
      </trkpt>
      <trkpt lat="45.70412" lon="4.62368">
        <ele>672.2</ele>
        <time>2025-11-11T11:16:27Z</time>
      </trkpt>
      <trkpt lat="45.70411" lon="4.62378">
        <ele>672</ele>
        <time>2025-11-11T11:16:28Z</time>
      </trkpt>
      <trkpt lat="45.7041" lon="4.62388">
        <ele>671.6</ele>
        <time>2025-11-11T11:16:29Z</time>
      </trkpt>
      <trkpt lat="45.70409" lon="4.62399">
        <ele>671.2</ele>
        <time>2025-11-11T11:16:30Z</time>
      </trkpt>
      <trkpt lat="45.70407" lon="4.62409">
        <ele>670.8</ele>
        <time>2025-11-11T11:16:31Z</time>
      </trkpt>
      <trkpt lat="45.70406" lon="4.6242">
        <ele>670.2</ele>
        <time>2025-11-11T11:16:32Z</time>
      </trkpt>
      <trkpt lat="45.70405" lon="4.6243">
        <ele>669.8</ele>
        <time>2025-11-11T11:16:33Z</time>
      </trkpt>
      <trkpt lat="45.70404" lon="4.62441">
        <ele>669.4</ele>
        <time>2025-11-11T11:16:34Z</time>
      </trkpt>
      <trkpt lat="45.70403" lon="4.62451">
        <ele>669</ele>
        <time>2025-11-11T11:16:35Z</time>
      </trkpt>
      <trkpt lat="45.70402" lon="4.62461">
        <ele>668.8</ele>
        <time>2025-11-11T11:16:36Z</time>
      </trkpt>
      <trkpt lat="45.70401" lon="4.62471">
        <ele>668.4</ele>
        <time>2025-11-11T11:16:37Z</time>
      </trkpt>
      <trkpt lat="45.704" lon="4.62481">
        <ele>668.2</ele>
        <time>2025-11-11T11:16:38Z</time>
      </trkpt>
      <trkpt lat="45.70399" lon="4.62491">
        <ele>668</ele>
        <time>2025-11-11T11:16:39Z</time>
      </trkpt>
      <trkpt lat="45.70398" lon="4.62499">
        <ele>667.6</ele>
        <time>2025-11-11T11:16:40Z</time>
      </trkpt>
      <trkpt lat="45.70398" lon="4.62508">
        <ele>667.4</ele>
        <time>2025-11-11T11:16:41Z</time>
      </trkpt>
      <trkpt lat="45.70397" lon="4.62516">
        <ele>667</ele>
        <time>2025-11-11T11:16:42Z</time>
      </trkpt>
      <trkpt lat="45.70394" lon="4.62524">
        <ele>666.6</ele>
        <time>2025-11-11T11:16:43Z</time>
      </trkpt>
      <trkpt lat="45.70391" lon="4.62532">
        <ele>666.2</ele>
        <time>2025-11-11T11:16:44Z</time>
      </trkpt>
      <trkpt lat="45.70387" lon="4.62539">
        <ele>666</ele>
        <time>2025-11-11T11:16:45Z</time>
      </trkpt>
      <trkpt lat="45.70382" lon="4.62546">
        <ele>665.4</ele>
        <time>2025-11-11T11:16:46Z</time>
      </trkpt>
      <trkpt lat="45.70378" lon="4.62554">
        <ele>665</ele>
        <time>2025-11-11T11:16:47Z</time>
      </trkpt>
      <trkpt lat="45.70373" lon="4.62561">
        <ele>664.6</ele>
        <time>2025-11-11T11:16:48Z</time>
      </trkpt>
      <trkpt lat="45.70368" lon="4.62567">
        <ele>664.2</ele>
        <time>2025-11-11T11:16:49Z</time>
      </trkpt>
      <trkpt lat="45.70364" lon="4.62574">
        <ele>663.8</ele>
        <time>2025-11-11T11:16:50Z</time>
      </trkpt>
      <trkpt lat="45.7036" lon="4.6258">
        <ele>663.4</ele>
        <time>2025-11-11T11:16:51Z</time>
      </trkpt>
      <trkpt lat="45.70356" lon="4.62585">
        <ele>663</ele>
        <time>2025-11-11T11:16:52Z</time>
      </trkpt>
      <trkpt lat="45.70351" lon="4.62588">
        <ele>662.4</ele>
        <time>2025-11-11T11:16:53Z</time>
      </trkpt>
      <trkpt lat="45.70348" lon="4.62591">
        <ele>662</ele>
        <time>2025-11-11T11:16:54Z</time>
      </trkpt>
      <trkpt lat="45.70346" lon="4.62593">
        <ele>661.4</ele>
        <time>2025-11-11T11:16:55Z</time>
      </trkpt>
      <trkpt lat="45.70346" lon="4.62597">
        <ele>661</ele>
        <time>2025-11-11T11:16:56Z</time>
      </trkpt>
      <trkpt lat="45.70347" lon="4.626">
        <ele>660.4</ele>
        <time>2025-11-11T11:16:57Z</time>
      </trkpt>
      <trkpt lat="45.70347" lon="4.62605">
        <ele>660</ele>
        <time>2025-11-11T11:16:58Z</time>
      </trkpt>
      <trkpt lat="45.70346" lon="4.6261">
        <ele>659.6</ele>
        <time>2025-11-11T11:16:59Z</time>
      </trkpt>
      <trkpt lat="45.70346" lon="4.62617">
        <ele>659.2</ele>
        <time>2025-11-11T11:17:00Z</time>
      </trkpt>
      <trkpt lat="45.70344" lon="4.62625">
        <ele>659</ele>
        <time>2025-11-11T11:17:01Z</time>
      </trkpt>
      <trkpt lat="45.70343" lon="4.62632">
        <ele>658.8</ele>
        <time>2025-11-11T11:17:02Z</time>
      </trkpt>
      <trkpt lat="45.70341" lon="4.6264">
        <ele>658.6</ele>
        <time>2025-11-11T11:17:03Z</time>
      </trkpt>
      <trkpt lat="45.70339" lon="4.62647">
        <ele>658.6</ele>
        <time>2025-11-11T11:17:04Z</time>
      </trkpt>
      <trkpt lat="45.70337" lon="4.62655">
        <ele>658.6</ele>
        <time>2025-11-11T11:17:05Z</time>
      </trkpt>
      <trkpt lat="45.70336" lon="4.62663">
        <ele>658.6</ele>
        <time>2025-11-11T11:17:06Z</time>
      </trkpt>
      <trkpt lat="45.70334" lon="4.62671">
        <ele>658.6</ele>
        <time>2025-11-11T11:17:07Z</time>
      </trkpt>
      <trkpt lat="45.70333" lon="4.62679">
        <ele>658.8</ele>
        <time>2025-11-11T11:17:08Z</time>
      </trkpt>
      <trkpt lat="45.70332" lon="4.62687">
        <ele>658.8</ele>
        <time>2025-11-11T11:17:09Z</time>
      </trkpt>
      <trkpt lat="45.70331" lon="4.62695">
        <ele>658.8</ele>
        <time>2025-11-11T11:17:10Z</time>
      </trkpt>
      <trkpt lat="45.7033" lon="4.62704">
        <ele>659</ele>
        <time>2025-11-11T11:17:11Z</time>
      </trkpt>
      <trkpt lat="45.70328" lon="4.62711">
        <ele>659</ele>
        <time>2025-11-11T11:17:12Z</time>
      </trkpt>
      <trkpt lat="45.70327" lon="4.62718">
        <ele>659.2</ele>
        <time>2025-11-11T11:17:13Z</time>
      </trkpt>
      <trkpt lat="45.70325" lon="4.62724">
        <ele>659.2</ele>
        <time>2025-11-11T11:17:14Z</time>
      </trkpt>
      <trkpt lat="45.70324" lon="4.62729">
        <ele>659.4</ele>
        <time>2025-11-11T11:17:15Z</time>
      </trkpt>
      <trkpt lat="45.70322" lon="4.62734">
        <ele>659.6</ele>
        <time>2025-11-11T11:17:16Z</time>
      </trkpt>
      <trkpt lat="45.70319" lon="4.62738">
        <ele>659.8</ele>
        <time>2025-11-11T11:17:17Z</time>
      </trkpt>
      <trkpt lat="45.70318" lon="4.62744">
        <ele>660</ele>
        <time>2025-11-11T11:17:18Z</time>
      </trkpt>
      <trkpt lat="45.70316" lon="4.6275">
        <ele>660.2</ele>
        <time>2025-11-11T11:17:19Z</time>
      </trkpt>
      <trkpt lat="45.70314" lon="4.62755">
        <ele>660.2</ele>
        <time>2025-11-11T11:17:20Z</time>
      </trkpt>
      <trkpt lat="45.70312" lon="4.6276">
        <ele>660.4</ele>
        <time>2025-11-11T11:17:21Z</time>
      </trkpt>
      <trkpt lat="45.70311" lon="4.62765">
        <ele>660.6</ele>
        <time>2025-11-11T11:17:22Z</time>
      </trkpt>
      <trkpt lat="45.7031" lon="4.62771">
        <ele>660.8</ele>
        <time>2025-11-11T11:17:23Z</time>
      </trkpt>
      <trkpt lat="45.70309" lon="4.62776">
        <ele>661</ele>
        <time>2025-11-11T11:17:24Z</time>
      </trkpt>
      <trkpt lat="45.70308" lon="4.62782">
        <ele>661.2</ele>
        <time>2025-11-11T11:17:25Z</time>
      </trkpt>
      <trkpt lat="45.70308" lon="4.62787">
        <ele>661.6</ele>
        <time>2025-11-11T11:17:26Z</time>
      </trkpt>
      <trkpt lat="45.70308" lon="4.62793">
        <ele>662</ele>
        <time>2025-11-11T11:17:27Z</time>
      </trkpt>
      <trkpt lat="45.70308" lon="4.62797">
        <ele>662.2</ele>
        <time>2025-11-11T11:17:28Z</time>
      </trkpt>
      <trkpt lat="45.70307" lon="4.628">
        <ele>662.4</ele>
        <time>2025-11-11T11:17:29Z</time>
      </trkpt>
      <trkpt lat="45.70308" lon="4.62803">
        <ele>662.8</ele>
        <time>2025-11-11T11:17:30Z</time>
      </trkpt>
      <trkpt lat="45.70308" lon="4.62805">
        <ele>663.2</ele>
        <time>2025-11-11T11:17:31Z</time>
      </trkpt>
      <trkpt lat="45.70308" lon="4.62808">
        <ele>663.4</ele>
        <time>2025-11-11T11:17:32Z</time>
      </trkpt>
      <trkpt lat="45.70309" lon="4.6281">
        <ele>663.8</ele>
        <time>2025-11-11T11:17:33Z</time>
      </trkpt>
      <trkpt lat="45.70309" lon="4.62813">
        <ele>664.2</ele>
        <time>2025-11-11T11:17:34Z</time>
      </trkpt>
      <trkpt lat="45.7031" lon="4.62816">
        <ele>664.6</ele>
        <time>2025-11-11T11:17:35Z</time>
      </trkpt>
      <trkpt lat="45.70311" lon="4.6282">
        <ele>665</ele>
        <time>2025-11-11T11:17:36Z</time>
      </trkpt>
      <trkpt lat="45.70312" lon="4.62823">
        <ele>665.2</ele>
        <time>2025-11-11T11:17:37Z</time>
      </trkpt>
      <trkpt lat="45.70312" lon="4.62827">
        <ele>665.6</ele>
        <time>2025-11-11T11:17:38Z</time>
      </trkpt>
      <trkpt lat="45.70312" lon="4.62829">
        <ele>666</ele>
        <time>2025-11-11T11:17:39Z</time>
      </trkpt>
      <trkpt lat="45.70313" lon="4.62833">
        <ele>666.2</ele>
        <time>2025-11-11T11:17:40Z</time>
      </trkpt>
      <trkpt lat="45.70314" lon="4.62836">
        <ele>666.4</ele>
        <time>2025-11-11T11:17:41Z</time>
      </trkpt>
      <trkpt lat="45.70314" lon="4.6284">
        <ele>666.8</ele>
        <time>2025-11-11T11:17:42Z</time>
      </trkpt>
      <trkpt lat="45.70314" lon="4.62845">
        <ele>667</ele>
        <time>2025-11-11T11:17:43Z</time>
      </trkpt>
      <trkpt lat="45.70314" lon="4.6285">
        <ele>667.2</ele>
        <time>2025-11-11T11:17:44Z</time>
      </trkpt>
      <trkpt lat="45.70315" lon="4.62855">
        <ele>667.2</ele>
        <time>2025-11-11T11:17:45Z</time>
      </trkpt>
      <trkpt lat="45.70315" lon="4.6286">
        <ele>667.4</ele>
        <time>2025-11-11T11:17:46Z</time>
      </trkpt>
      <trkpt lat="45.70315" lon="4.62864">
        <ele>667.6</ele>
        <time>2025-11-11T11:17:47Z</time>
      </trkpt>
      <trkpt lat="45.70315" lon="4.62868">
        <ele>667.6</ele>
        <time>2025-11-11T11:17:48Z</time>
      </trkpt>
      <trkpt lat="45.70314" lon="4.62873">
        <ele>667.8</ele>
        <time>2025-11-11T11:17:49Z</time>
      </trkpt>
      <trkpt lat="45.70314" lon="4.62877">
        <ele>668</ele>
        <time>2025-11-11T11:17:50Z</time>
      </trkpt>
      <trkpt lat="45.70314" lon="4.62882">
        <ele>668.2</ele>
        <time>2025-11-11T11:17:51Z</time>
      </trkpt>
      <trkpt lat="45.70313" lon="4.62887">
        <ele>668.4</ele>
        <time>2025-11-11T11:17:52Z</time>
      </trkpt>
      <trkpt lat="45.70313" lon="4.62891">
        <ele>668.6</ele>
        <time>2025-11-11T11:17:53Z</time>
      </trkpt>
      <trkpt lat="45.70311" lon="4.62896">
        <ele>668.8</ele>
        <time>2025-11-11T11:17:54Z</time>
      </trkpt>
      <trkpt lat="45.70309" lon="4.629">
        <ele>669</ele>
        <time>2025-11-11T11:17:55Z</time>
      </trkpt>
      <trkpt lat="45.70307" lon="4.62904">
        <ele>669.2</ele>
        <time>2025-11-11T11:17:56Z</time>
      </trkpt>
      <trkpt lat="45.70305" lon="4.62908">
        <ele>669.4</ele>
        <time>2025-11-11T11:17:57Z</time>
      </trkpt>
      <trkpt lat="45.70302" lon="4.62913">
        <ele>669.4</ele>
        <time>2025-11-11T11:17:58Z</time>
      </trkpt>
      <trkpt lat="45.703" lon="4.62918">
        <ele>669.6</ele>
        <time>2025-11-11T11:17:59Z</time>
      </trkpt>
      <trkpt lat="45.70298" lon="4.62922">
        <ele>669.6</ele>
        <time>2025-11-11T11:18:00Z</time>
      </trkpt>
      <trkpt lat="45.70296" lon="4.62927">
        <ele>669.6</ele>
        <time>2025-11-11T11:18:01Z</time>
      </trkpt>
      <trkpt lat="45.70295" lon="4.62931">
        <ele>669.8</ele>
        <time>2025-11-11T11:18:02Z</time>
      </trkpt>
      <trkpt lat="45.70293" lon="4.62936">
        <ele>670</ele>
        <time>2025-11-11T11:18:03Z</time>
      </trkpt>
      <trkpt lat="45.70291" lon="4.6294">
        <ele>670.2</ele>
        <time>2025-11-11T11:18:04Z</time>
      </trkpt>
      <trkpt lat="45.7029" lon="4.62944">
        <ele>670.4</ele>
        <time>2025-11-11T11:18:05Z</time>
      </trkpt>
      <trkpt lat="45.70288" lon="4.62948">
        <ele>670.8</ele>
        <time>2025-11-11T11:18:06Z</time>
      </trkpt>
      <trkpt lat="45.70286" lon="4.62953">
        <ele>671</ele>
        <time>2025-11-11T11:18:07Z</time>
      </trkpt>
      <trkpt lat="45.70285" lon="4.62957">
        <ele>671.2</ele>
        <time>2025-11-11T11:18:08Z</time>
      </trkpt>
      <trkpt lat="45.70283" lon="4.62962">
        <ele>671.4</ele>
        <time>2025-11-11T11:18:09Z</time>
      </trkpt>
      <trkpt lat="45.70281" lon="4.62967">
        <ele>671.6</ele>
        <time>2025-11-11T11:18:10Z</time>
      </trkpt>
      <trkpt lat="45.70279" lon="4.62971">
        <ele>671.8</ele>
        <time>2025-11-11T11:18:11Z</time>
      </trkpt>
      <trkpt lat="45.70277" lon="4.62976">
        <ele>672</ele>
        <time>2025-11-11T11:18:12Z</time>
      </trkpt>
      <trkpt lat="45.70275" lon="4.62981">
        <ele>672.2</ele>
        <time>2025-11-11T11:18:13Z</time>
      </trkpt>
      <trkpt lat="45.70274" lon="4.62986">
        <ele>672.2</ele>
        <time>2025-11-11T11:18:14Z</time>
      </trkpt>
      <trkpt lat="45.70272" lon="4.62991">
        <ele>672.4</ele>
        <time>2025-11-11T11:18:15Z</time>
      </trkpt>
      <trkpt lat="45.70271" lon="4.62996">
        <ele>672.6</ele>
        <time>2025-11-11T11:18:16Z</time>
      </trkpt>
      <trkpt lat="45.7027" lon="4.63">
        <ele>672.8</ele>
        <time>2025-11-11T11:18:17Z</time>
      </trkpt>
      <trkpt lat="45.70269" lon="4.63005">
        <ele>673</ele>
        <time>2025-11-11T11:18:18Z</time>
      </trkpt>
      <trkpt lat="45.70267" lon="4.63011">
        <ele>673.2</ele>
        <time>2025-11-11T11:18:19Z</time>
      </trkpt>
      <trkpt lat="45.70266" lon="4.63017">
        <ele>673.4</ele>
        <time>2025-11-11T11:18:20Z</time>
      </trkpt>
      <trkpt lat="45.70264" lon="4.63023">
        <ele>673.4</ele>
        <time>2025-11-11T11:18:21Z</time>
      </trkpt>
      <trkpt lat="45.70263" lon="4.6303">
        <ele>673.6</ele>
        <time>2025-11-11T11:18:22Z</time>
      </trkpt>
      <trkpt lat="45.70262" lon="4.63036">
        <ele>673.6</ele>
        <time>2025-11-11T11:18:23Z</time>
      </trkpt>
      <trkpt lat="45.70261" lon="4.63042">
        <ele>673.6</ele>
        <time>2025-11-11T11:18:24Z</time>
      </trkpt>
      <trkpt lat="45.70261" lon="4.63048">
        <ele>673.6</ele>
        <time>2025-11-11T11:18:25Z</time>
      </trkpt>
      <trkpt lat="45.70261" lon="4.63054">
        <ele>673.6</ele>
        <time>2025-11-11T11:18:26Z</time>
      </trkpt>
      <trkpt lat="45.7026" lon="4.63059">
        <ele>673.4</ele>
        <time>2025-11-11T11:18:27Z</time>
      </trkpt>
      <trkpt lat="45.70259" lon="4.63064">
        <ele>673.4</ele>
        <time>2025-11-11T11:18:28Z</time>
      </trkpt>
      <trkpt lat="45.70256" lon="4.63069">
        <ele>673.4</ele>
        <time>2025-11-11T11:18:29Z</time>
      </trkpt>
      <trkpt lat="45.70254" lon="4.63075">
        <ele>673.4</ele>
        <time>2025-11-11T11:18:30Z</time>
      </trkpt>
      <trkpt lat="45.70251" lon="4.6308">
        <ele>673.6</ele>
        <time>2025-11-11T11:18:31Z</time>
      </trkpt>
      <trkpt lat="45.70248" lon="4.63084">
        <ele>673.6</ele>
        <time>2025-11-11T11:18:32Z</time>
      </trkpt>
      <trkpt lat="45.70246" lon="4.63087">
        <ele>673.8</ele>
        <time>2025-11-11T11:18:33Z</time>
      </trkpt>
      <trkpt lat="45.70243" lon="4.63091">
        <ele>674</ele>
        <time>2025-11-11T11:18:34Z</time>
      </trkpt>
      <trkpt lat="45.7024" lon="4.63095">
        <ele>674.2</ele>
        <time>2025-11-11T11:18:35Z</time>
      </trkpt>
      <trkpt lat="45.70238" lon="4.63099">
        <ele>674.4</ele>
        <time>2025-11-11T11:18:36Z</time>
      </trkpt>
      <trkpt lat="45.70236" lon="4.63102">
        <ele>674.6</ele>
        <time>2025-11-11T11:18:37Z</time>
      </trkpt>
      <trkpt lat="45.70234" lon="4.63105">
        <ele>674.8</ele>
        <time>2025-11-11T11:18:38Z</time>
      </trkpt>
      <trkpt lat="45.70232" lon="4.6311">
        <ele>674.8</ele>
        <time>2025-11-11T11:18:39Z</time>
      </trkpt>
      <trkpt lat="45.70229" lon="4.63115">
        <ele>675</ele>
        <time>2025-11-11T11:18:40Z</time>
      </trkpt>
      <trkpt lat="45.70227" lon="4.63119">
        <ele>675.2</ele>
        <time>2025-11-11T11:18:41Z</time>
      </trkpt>
      <trkpt lat="45.70225" lon="4.63122">
        <ele>675.6</ele>
        <time>2025-11-11T11:18:42Z</time>
      </trkpt>
      <trkpt lat="45.70223" lon="4.63125">
        <ele>675.8</ele>
        <time>2025-11-11T11:18:43Z</time>
      </trkpt>
      <trkpt lat="45.70221" lon="4.63128">
        <ele>676</ele>
        <time>2025-11-11T11:18:44Z</time>
      </trkpt>
      <trkpt lat="45.70219" lon="4.63131">
        <ele>676.4</ele>
        <time>2025-11-11T11:18:45Z</time>
      </trkpt>
      <trkpt lat="45.70218" lon="4.63133">
        <ele>676.6</ele>
        <time>2025-11-11T11:18:46Z</time>
      </trkpt>
      <trkpt lat="45.70216" lon="4.63135">
        <ele>677</ele>
        <time>2025-11-11T11:18:47Z</time>
      </trkpt>
      <trkpt lat="45.70214" lon="4.63138">
        <ele>677.2</ele>
        <time>2025-11-11T11:18:48Z</time>
      </trkpt>
      <trkpt lat="45.70212" lon="4.6314">
        <ele>677.6</ele>
        <time>2025-11-11T11:18:49Z</time>
      </trkpt>
      <trkpt lat="45.7021" lon="4.63142">
        <ele>677.8</ele>
        <time>2025-11-11T11:18:50Z</time>
      </trkpt>
      <trkpt lat="45.70208" lon="4.63144">
        <ele>678.2</ele>
        <time>2025-11-11T11:18:51Z</time>
      </trkpt>
      <trkpt lat="45.70205" lon="4.63146">
        <ele>678.4</ele>
        <time>2025-11-11T11:18:52Z</time>
      </trkpt>
      <trkpt lat="45.70203" lon="4.63148">
        <ele>678.6</ele>
        <time>2025-11-11T11:18:53Z</time>
      </trkpt>
      <trkpt lat="45.70199" lon="4.63151">
        <ele>679</ele>
        <time>2025-11-11T11:18:54Z</time>
      </trkpt>
      <trkpt lat="45.70197" lon="4.63153">
        <ele>679.2</ele>
        <time>2025-11-11T11:18:55Z</time>
      </trkpt>
      <trkpt lat="45.70195" lon="4.63156">
        <ele>679.4</ele>
        <time>2025-11-11T11:18:56Z</time>
      </trkpt>
      <trkpt lat="45.70193" lon="4.63159">
        <ele>679.8</ele>
        <time>2025-11-11T11:18:57Z</time>
      </trkpt>
      <trkpt lat="45.7019" lon="4.63163">
        <ele>680.2</ele>
        <time>2025-11-11T11:18:58Z</time>
      </trkpt>
      <trkpt lat="45.70188" lon="4.63166">
        <ele>680.4</ele>
        <time>2025-11-11T11:18:59Z</time>
      </trkpt>
      <trkpt lat="45.70187" lon="4.63171">
        <ele>680.8</ele>
        <time>2025-11-11T11:19:00Z</time>
      </trkpt>
      <trkpt lat="45.70185" lon="4.63176">
        <ele>681.2</ele>
        <time>2025-11-11T11:19:01Z</time>
      </trkpt>
      <trkpt lat="45.70183" lon="4.6318">
        <ele>681.6</ele>
        <time>2025-11-11T11:19:02Z</time>
      </trkpt>
      <trkpt lat="45.7018" lon="4.63185">
        <ele>682</ele>
        <time>2025-11-11T11:19:03Z</time>
      </trkpt>
      <trkpt lat="45.70178" lon="4.6319">
        <ele>682.4</ele>
        <time>2025-11-11T11:19:04Z</time>
      </trkpt>
      <trkpt lat="45.70176" lon="4.63193">
        <ele>682.8</ele>
        <time>2025-11-11T11:19:05Z</time>
      </trkpt>
      <trkpt lat="45.70173" lon="4.63198">
        <ele>683.2</ele>
        <time>2025-11-11T11:19:06Z</time>
      </trkpt>
      <trkpt lat="45.7017" lon="4.63202">
        <ele>683.6</ele>
        <time>2025-11-11T11:19:07Z</time>
      </trkpt>
      <trkpt lat="45.70168" lon="4.63206">
        <ele>684</ele>
        <time>2025-11-11T11:19:08Z</time>
      </trkpt>
      <trkpt lat="45.70165" lon="4.6321">
        <ele>684.2</ele>
        <time>2025-11-11T11:19:09Z</time>
      </trkpt>
      <trkpt lat="45.70163" lon="4.63215">
        <ele>684.4</ele>
        <time>2025-11-11T11:19:10Z</time>
      </trkpt>
      <trkpt lat="45.70161" lon="4.63221">
        <ele>684.6</ele>
        <time>2025-11-11T11:19:11Z</time>
      </trkpt>
      <trkpt lat="45.7016" lon="4.63226">
        <ele>684.8</ele>
        <time>2025-11-11T11:19:12Z</time>
      </trkpt>
      <trkpt lat="45.70159" lon="4.63231">
        <ele>685</ele>
        <time>2025-11-11T11:19:13Z</time>
      </trkpt>
      <trkpt lat="45.70158" lon="4.63236">
        <ele>685</ele>
        <time>2025-11-11T11:19:14Z</time>
      </trkpt>
      <trkpt lat="45.70157" lon="4.63243">
        <ele>685.2</ele>
        <time>2025-11-11T11:19:15Z</time>
      </trkpt>
      <trkpt lat="45.70156" lon="4.63248">
        <ele>685.2</ele>
        <time>2025-11-11T11:19:16Z</time>
      </trkpt>
      <trkpt lat="45.70156" lon="4.63253">
        <ele>685.2</ele>
        <time>2025-11-11T11:19:17Z</time>
      </trkpt>
      <trkpt lat="45.70156" lon="4.63258">
        <ele>685.4</ele>
        <time>2025-11-11T11:19:18Z</time>
      </trkpt>
      <trkpt lat="45.70156" lon="4.63263">
        <ele>685.4</ele>
        <time>2025-11-11T11:19:19Z</time>
      </trkpt>
      <trkpt lat="45.70157" lon="4.63268">
        <ele>685.4</ele>
        <time>2025-11-11T11:19:20Z</time>
      </trkpt>
      <trkpt lat="45.70158" lon="4.63274">
        <ele>685.2</ele>
        <time>2025-11-11T11:19:21Z</time>
      </trkpt>
      <trkpt lat="45.70158" lon="4.6328">
        <ele>685.2</ele>
        <time>2025-11-11T11:19:22Z</time>
      </trkpt>
      <trkpt lat="45.70158" lon="4.63286">
        <ele>685</ele>
        <time>2025-11-11T11:19:23Z</time>
      </trkpt>
      <trkpt lat="45.70158" lon="4.63293">
        <ele>684.6</ele>
        <time>2025-11-11T11:19:24Z</time>
      </trkpt>
      <trkpt lat="45.70159" lon="4.633">
        <ele>684.4</ele>
        <time>2025-11-11T11:19:25Z</time>
      </trkpt>
      <trkpt lat="45.7016" lon="4.63307">
        <ele>684</ele>
        <time>2025-11-11T11:19:26Z</time>
      </trkpt>
      <trkpt lat="45.70161" lon="4.63313">
        <ele>683.6</ele>
        <time>2025-11-11T11:19:27Z</time>
      </trkpt>
      <trkpt lat="45.70161" lon="4.63318">
        <ele>683.4</ele>
        <time>2025-11-11T11:19:28Z</time>
      </trkpt>
      <trkpt lat="45.7016" lon="4.6332">
        <ele>683.2</ele>
        <time>2025-11-11T11:19:29Z</time>
      </trkpt>
      <trkpt lat="45.70158" lon="4.63322">
        <ele>682.8</ele>
        <time>2025-11-11T11:19:30Z</time>
      </trkpt>
      <trkpt lat="45.70158" lon="4.63326">
        <ele>682.4</ele>
        <time>2025-11-11T11:19:31Z</time>
      </trkpt>
      <trkpt lat="45.70158" lon="4.63333">
        <ele>681.8</ele>
        <time>2025-11-11T11:19:32Z</time>
      </trkpt>
      <trkpt lat="45.70159" lon="4.6334">
        <ele>681.2</ele>
        <time>2025-11-11T11:19:33Z</time>
      </trkpt>
      <trkpt lat="45.70159" lon="4.63348">
        <ele>680.6</ele>
        <time>2025-11-11T11:19:34Z</time>
      </trkpt>
      <trkpt lat="45.70159" lon="4.63356">
        <ele>680</ele>
        <time>2025-11-11T11:19:35Z</time>
      </trkpt>
      <trkpt lat="45.70159" lon="4.63363">
        <ele>679.6</ele>
        <time>2025-11-11T11:19:36Z</time>
      </trkpt>
      <trkpt lat="45.7016" lon="4.63372">
        <ele>679.2</ele>
        <time>2025-11-11T11:19:37Z</time>
      </trkpt>
      <trkpt lat="45.70161" lon="4.63379">
        <ele>678.8</ele>
        <time>2025-11-11T11:19:38Z</time>
      </trkpt>
      <trkpt lat="45.70161" lon="4.63386">
        <ele>678.2</ele>
        <time>2025-11-11T11:19:39Z</time>
      </trkpt>
      <trkpt lat="45.70161" lon="4.63392">
        <ele>677.4</ele>
        <time>2025-11-11T11:19:40Z</time>
      </trkpt>
      <trkpt lat="45.70163" lon="4.634">
        <ele>676.8</ele>
        <time>2025-11-11T11:19:41Z</time>
      </trkpt>
      <trkpt lat="45.70164" lon="4.63405">
        <ele>676</ele>
        <time>2025-11-11T11:19:42Z</time>
      </trkpt>
      <trkpt lat="45.70165" lon="4.63412">
        <ele>675.2</ele>
        <time>2025-11-11T11:19:43Z</time>
      </trkpt>
      <trkpt lat="45.70164" lon="4.6342">
        <ele>674.6</ele>
        <time>2025-11-11T11:19:44Z</time>
      </trkpt>
      <trkpt lat="45.70163" lon="4.63428">
        <ele>673.8</ele>
        <time>2025-11-11T11:19:45Z</time>
      </trkpt>
      <trkpt lat="45.70163" lon="4.63437">
        <ele>673</ele>
        <time>2025-11-11T11:19:46Z</time>
      </trkpt>
      <trkpt lat="45.70162" lon="4.63444">
        <ele>672.2</ele>
        <time>2025-11-11T11:19:47Z</time>
      </trkpt>
      <trkpt lat="45.70161" lon="4.63452">
        <ele>671.4</ele>
        <time>2025-11-11T11:19:48Z</time>
      </trkpt>
      <trkpt lat="45.70159" lon="4.63459">
        <ele>670.6</ele>
        <time>2025-11-11T11:19:49Z</time>
      </trkpt>
      <trkpt lat="45.70159" lon="4.63468">
        <ele>670</ele>
        <time>2025-11-11T11:19:50Z</time>
      </trkpt>
      <trkpt lat="45.70158" lon="4.63476">
        <ele>669.4</ele>
        <time>2025-11-11T11:19:51Z</time>
      </trkpt>
      <trkpt lat="45.70156" lon="4.63482">
        <ele>668.6</ele>
        <time>2025-11-11T11:19:52Z</time>
      </trkpt>
      <trkpt lat="45.70155" lon="4.63487">
        <ele>668</ele>
        <time>2025-11-11T11:19:53Z</time>
      </trkpt>
      <trkpt lat="45.70153" lon="4.63491">
        <ele>667.2</ele>
        <time>2025-11-11T11:19:54Z</time>
      </trkpt>
      <trkpt lat="45.70152" lon="4.63497">
        <ele>666.6</ele>
        <time>2025-11-11T11:19:55Z</time>
      </trkpt>
      <trkpt lat="45.70151" lon="4.63504">
        <ele>665.8</ele>
        <time>2025-11-11T11:19:56Z</time>
      </trkpt>
      <trkpt lat="45.70152" lon="4.63509">
        <ele>665</ele>
        <time>2025-11-11T11:19:57Z</time>
      </trkpt>
      <trkpt lat="45.70152" lon="4.63518">
        <ele>664.4</ele>
        <time>2025-11-11T11:19:58Z</time>
      </trkpt>
      <trkpt lat="45.70153" lon="4.63525">
        <ele>663.8</ele>
        <time>2025-11-11T11:19:59Z</time>
      </trkpt>
      <trkpt lat="45.70154" lon="4.63532">
        <ele>663</ele>
        <time>2025-11-11T11:20:00Z</time>
      </trkpt>
      <trkpt lat="45.70154" lon="4.63538">
        <ele>662.4</ele>
        <time>2025-11-11T11:20:01Z</time>
      </trkpt>
      <trkpt lat="45.70154" lon="4.63545">
        <ele>661.8</ele>
        <time>2025-11-11T11:20:02Z</time>
      </trkpt>
      <trkpt lat="45.70154" lon="4.63551">
        <ele>661</ele>
        <time>2025-11-11T11:20:03Z</time>
      </trkpt>
      <trkpt lat="45.70153" lon="4.63558">
        <ele>660.2</ele>
        <time>2025-11-11T11:20:04Z</time>
      </trkpt>
      <trkpt lat="45.70152" lon="4.63564">
        <ele>659.4</ele>
        <time>2025-11-11T11:20:05Z</time>
      </trkpt>
      <trkpt lat="45.70152" lon="4.63569">
        <ele>658.6</ele>
        <time>2025-11-11T11:20:06Z</time>
      </trkpt>
      <trkpt lat="45.70151" lon="4.63574">
        <ele>657.8</ele>
        <time>2025-11-11T11:20:07Z</time>
      </trkpt>
      <trkpt lat="45.70151" lon="4.6358">
        <ele>657</ele>
        <time>2025-11-11T11:20:08Z</time>
      </trkpt>
      <trkpt lat="45.70152" lon="4.63586">
        <ele>656.4</ele>
        <time>2025-11-11T11:20:09Z</time>
      </trkpt>
      <trkpt lat="45.70154" lon="4.63593">
        <ele>655.8</ele>
        <time>2025-11-11T11:20:10Z</time>
      </trkpt>
      <trkpt lat="45.70155" lon="4.63599">
        <ele>655.2</ele>
        <time>2025-11-11T11:20:11Z</time>
      </trkpt>
      <trkpt lat="45.70155" lon="4.63606">
        <ele>654.6</ele>
        <time>2025-11-11T11:20:12Z</time>
      </trkpt>
      <trkpt lat="45.70156" lon="4.63613">
        <ele>654.2</ele>
        <time>2025-11-11T11:20:13Z</time>
      </trkpt>
      <trkpt lat="45.70157" lon="4.6362">
        <ele>653.8</ele>
        <time>2025-11-11T11:20:14Z</time>
      </trkpt>
      <trkpt lat="45.70158" lon="4.63627">
        <ele>653.2</ele>
        <time>2025-11-11T11:20:15Z</time>
      </trkpt>
      <trkpt lat="45.7016" lon="4.63634">
        <ele>652.6</ele>
        <time>2025-11-11T11:20:16Z</time>
      </trkpt>
      <trkpt lat="45.70161" lon="4.6364">
        <ele>652.2</ele>
        <time>2025-11-11T11:20:17Z</time>
      </trkpt>
      <trkpt lat="45.70162" lon="4.63646">
        <ele>651.6</ele>
        <time>2025-11-11T11:20:18Z</time>
      </trkpt>
      <trkpt lat="45.70163" lon="4.6365">
        <ele>651</ele>
        <time>2025-11-11T11:20:19Z</time>
      </trkpt>
      <trkpt lat="45.70164" lon="4.63657">
        <ele>650.4</ele>
        <time>2025-11-11T11:20:20Z</time>
      </trkpt>
      <trkpt lat="45.70167" lon="4.63662">
        <ele>650</ele>
        <time>2025-11-11T11:20:21Z</time>
      </trkpt>
      <trkpt lat="45.70169" lon="4.63666">
        <ele>649.4</ele>
        <time>2025-11-11T11:20:22Z</time>
      </trkpt>
      <trkpt lat="45.70171" lon="4.63671">
        <ele>648.8</ele>
        <time>2025-11-11T11:20:23Z</time>
      </trkpt>
      <trkpt lat="45.70173" lon="4.63675">
        <ele>648.4</ele>
        <time>2025-11-11T11:20:24Z</time>
      </trkpt>
      <trkpt lat="45.70175" lon="4.63678">
        <ele>647.8</ele>
        <time>2025-11-11T11:20:25Z</time>
      </trkpt>
      <trkpt lat="45.70176" lon="4.6368">
        <ele>647.2</ele>
        <time>2025-11-11T11:20:26Z</time>
      </trkpt>
      <trkpt lat="45.70177" lon="4.63683">
        <ele>646.8</ele>
        <time>2025-11-11T11:20:27Z</time>
      </trkpt>
      <trkpt lat="45.70179" lon="4.63687">
        <ele>646.4</ele>
        <time>2025-11-11T11:20:28Z</time>
      </trkpt>
      <trkpt lat="45.70181" lon="4.63691">
        <ele>646</ele>
        <time>2025-11-11T11:20:29Z</time>
      </trkpt>
      <trkpt lat="45.70183" lon="4.63695">
        <ele>645.6</ele>
        <time>2025-11-11T11:20:30Z</time>
      </trkpt>
      <trkpt lat="45.70186" lon="4.637">
        <ele>645.2</ele>
        <time>2025-11-11T11:20:31Z</time>
      </trkpt>
      <trkpt lat="45.70189" lon="4.63704">
        <ele>644.6</ele>
        <time>2025-11-11T11:20:32Z</time>
      </trkpt>
      <trkpt lat="45.70192" lon="4.63709">
        <ele>644.2</ele>
        <time>2025-11-11T11:20:33Z</time>
      </trkpt>
      <trkpt lat="45.70195" lon="4.63713">
        <ele>643.6</ele>
        <time>2025-11-11T11:20:34Z</time>
      </trkpt>
      <trkpt lat="45.70197" lon="4.63716">
        <ele>643</ele>
        <time>2025-11-11T11:20:35Z</time>
      </trkpt>
      <trkpt lat="45.702" lon="4.6372">
        <ele>642.4</ele>
        <time>2025-11-11T11:20:36Z</time>
      </trkpt>
      <trkpt lat="45.70203" lon="4.63726">
        <ele>641.6</ele>
        <time>2025-11-11T11:20:37Z</time>
      </trkpt>
      <trkpt lat="45.70207" lon="4.63732">
        <ele>640.8</ele>
        <time>2025-11-11T11:20:38Z</time>
      </trkpt>
      <trkpt lat="45.70209" lon="4.63736">
        <ele>640</ele>
        <time>2025-11-11T11:20:39Z</time>
      </trkpt>
      <trkpt lat="45.70209" lon="4.63738">
        <ele>639.4</ele>
        <time>2025-11-11T11:20:40Z</time>
      </trkpt>
      <trkpt lat="45.70212" lon="4.63743">
        <ele>638.8</ele>
        <time>2025-11-11T11:20:41Z</time>
      </trkpt>
      <trkpt lat="45.70214" lon="4.63748">
        <ele>638.2</ele>
        <time>2025-11-11T11:20:42Z</time>
      </trkpt>
      <trkpt lat="45.70217" lon="4.63753">
        <ele>637.6</ele>
        <time>2025-11-11T11:20:43Z</time>
      </trkpt>
      <trkpt lat="45.7022" lon="4.6376">
        <ele>637</ele>
        <time>2025-11-11T11:20:44Z</time>
      </trkpt>
      <trkpt lat="45.70221" lon="4.63766">
        <ele>636.6</ele>
        <time>2025-11-11T11:20:45Z</time>
      </trkpt>
      <trkpt lat="45.70224" lon="4.63771">
        <ele>636</ele>
        <time>2025-11-11T11:20:46Z</time>
      </trkpt>
      <trkpt lat="45.70228" lon="4.63776">
        <ele>635.4</ele>
        <time>2025-11-11T11:20:47Z</time>
      </trkpt>
      <trkpt lat="45.70233" lon="4.63783">
        <ele>635</ele>
        <time>2025-11-11T11:20:48Z</time>
      </trkpt>
      <trkpt lat="45.70237" lon="4.6379">
        <ele>634.4</ele>
        <time>2025-11-11T11:20:49Z</time>
      </trkpt>
      <trkpt lat="45.70242" lon="4.63797">
        <ele>634</ele>
        <time>2025-11-11T11:20:50Z</time>
      </trkpt>
      <trkpt lat="45.70247" lon="4.63804">
        <ele>633.4</ele>
        <time>2025-11-11T11:20:51Z</time>
      </trkpt>
      <trkpt lat="45.70252" lon="4.63812">
        <ele>633</ele>
        <time>2025-11-11T11:20:52Z</time>
      </trkpt>
      <trkpt lat="45.70257" lon="4.63819">
        <ele>632.6</ele>
        <time>2025-11-11T11:20:53Z</time>
      </trkpt>
      <trkpt lat="45.70261" lon="4.63827">
        <ele>632</ele>
        <time>2025-11-11T11:20:54Z</time>
      </trkpt>
      <trkpt lat="45.70266" lon="4.63835">
        <ele>631.4</ele>
        <time>2025-11-11T11:20:55Z</time>
      </trkpt>
      <trkpt lat="45.7027" lon="4.63844">
        <ele>631</ele>
        <time>2025-11-11T11:20:56Z</time>
      </trkpt>
      <trkpt lat="45.70274" lon="4.63852">
        <ele>630.6</ele>
        <time>2025-11-11T11:20:57Z</time>
      </trkpt>
      <trkpt lat="45.70277" lon="4.63861">
        <ele>630.2</ele>
        <time>2025-11-11T11:20:58Z</time>
      </trkpt>
      <trkpt lat="45.70279" lon="4.6387">
        <ele>629.8</ele>
        <time>2025-11-11T11:20:59Z</time>
      </trkpt>
      <trkpt lat="45.70281" lon="4.63877">
        <ele>629.6</ele>
        <time>2025-11-11T11:21:00Z</time>
      </trkpt>
      <trkpt lat="45.70283" lon="4.63887">
        <ele>629.2</ele>
        <time>2025-11-11T11:21:01Z</time>
      </trkpt>
      <trkpt lat="45.70284" lon="4.63894">
        <ele>628.8</ele>
        <time>2025-11-11T11:21:02Z</time>
      </trkpt>
      <trkpt lat="45.70285" lon="4.63903">
        <ele>628.6</ele>
        <time>2025-11-11T11:21:03Z</time>
      </trkpt>
      <trkpt lat="45.70286" lon="4.63911">
        <ele>628.4</ele>
        <time>2025-11-11T11:21:04Z</time>
      </trkpt>
      <trkpt lat="45.70288" lon="4.63921">
        <ele>628</ele>
        <time>2025-11-11T11:21:05Z</time>
      </trkpt>
      <trkpt lat="45.7029" lon="4.63928">
        <ele>627.8</ele>
        <time>2025-11-11T11:21:06Z</time>
      </trkpt>
      <trkpt lat="45.70293" lon="4.63935">
        <ele>627.4</ele>
        <time>2025-11-11T11:21:07Z</time>
      </trkpt>
      <trkpt lat="45.70297" lon="4.6394">
        <ele>627</ele>
        <time>2025-11-11T11:21:08Z</time>
      </trkpt>
      <trkpt lat="45.70301" lon="4.63946">
        <ele>626.6</ele>
        <time>2025-11-11T11:21:09Z</time>
      </trkpt>
      <trkpt lat="45.70306" lon="4.63956">
        <ele>626.2</ele>
        <time>2025-11-11T11:21:10Z</time>
      </trkpt>
      <trkpt lat="45.70309" lon="4.63965">
        <ele>625.8</ele>
        <time>2025-11-11T11:21:11Z</time>
      </trkpt>
      <trkpt lat="45.70311" lon="4.63974">
        <ele>625.4</ele>
        <time>2025-11-11T11:21:12Z</time>
      </trkpt>
      <trkpt lat="45.70313" lon="4.63982">
        <ele>625</ele>
        <time>2025-11-11T11:21:13Z</time>
      </trkpt>
      <trkpt lat="45.70314" lon="4.63993">
        <ele>624.6</ele>
        <time>2025-11-11T11:21:14Z</time>
      </trkpt>
      <trkpt lat="45.70315" lon="4.64003">
        <ele>624.2</ele>
        <time>2025-11-11T11:21:15Z</time>
      </trkpt>
      <trkpt lat="45.70315" lon="4.64012">
        <ele>623.8</ele>
        <time>2025-11-11T11:21:16Z</time>
      </trkpt>
      <trkpt lat="45.70315" lon="4.6402">
        <ele>623.6</ele>
        <time>2025-11-11T11:21:17Z</time>
      </trkpt>
      <trkpt lat="45.70315" lon="4.64029">
        <ele>623.2</ele>
        <time>2025-11-11T11:21:18Z</time>
      </trkpt>
      <trkpt lat="45.70314" lon="4.6404">
        <ele>622.8</ele>
        <time>2025-11-11T11:21:19Z</time>
      </trkpt>
      <trkpt lat="45.70314" lon="4.6405">
        <ele>622.6</ele>
        <time>2025-11-11T11:21:20Z</time>
      </trkpt>
      <trkpt lat="45.70314" lon="4.64058">
        <ele>622.4</ele>
        <time>2025-11-11T11:21:21Z</time>
      </trkpt>
      <trkpt lat="45.70313" lon="4.64067">
        <ele>622</ele>
        <time>2025-11-11T11:21:22Z</time>
      </trkpt>
      <trkpt lat="45.70311" lon="4.64073">
        <ele>622</ele>
        <time>2025-11-11T11:21:23Z</time>
      </trkpt>
      <trkpt lat="45.70308" lon="4.64081">
        <ele>621.6</ele>
        <time>2025-11-11T11:21:24Z</time>
      </trkpt>
      <trkpt lat="45.70305" lon="4.64087">
        <ele>621.2</ele>
        <time>2025-11-11T11:21:25Z</time>
      </trkpt>
      <trkpt lat="45.70302" lon="4.64094">
        <ele>620.8</ele>
        <time>2025-11-11T11:21:26Z</time>
      </trkpt>
      <trkpt lat="45.703" lon="4.64101">
        <ele>620.4</ele>
        <time>2025-11-11T11:21:27Z</time>
      </trkpt>
      <trkpt lat="45.703" lon="4.64109">
        <ele>619.6</ele>
        <time>2025-11-11T11:21:28Z</time>
      </trkpt>
      <trkpt lat="45.70302" lon="4.64115">
        <ele>619</ele>
        <time>2025-11-11T11:21:29Z</time>
      </trkpt>
      <trkpt lat="45.70305" lon="4.64121">
        <ele>618.4</ele>
        <time>2025-11-11T11:21:30Z</time>
      </trkpt>
      <trkpt lat="45.70307" lon="4.64125">
        <ele>617.6</ele>
        <time>2025-11-11T11:21:31Z</time>
      </trkpt>
      <trkpt lat="45.7031" lon="4.64127">
        <ele>616.8</ele>
        <time>2025-11-11T11:21:32Z</time>
      </trkpt>
      <trkpt lat="45.70313" lon="4.64126">
        <ele>616.4</ele>
        <time>2025-11-11T11:21:33Z</time>
      </trkpt>
      <trkpt lat="45.70317" lon="4.64125">
        <ele>615.8</ele>
        <time>2025-11-11T11:21:34Z</time>
      </trkpt>
      <trkpt lat="45.70321" lon="4.64124">
        <ele>615.4</ele>
        <time>2025-11-11T11:21:35Z</time>
      </trkpt>
      <trkpt lat="45.70325" lon="4.64123">
        <ele>615</ele>
        <time>2025-11-11T11:21:36Z</time>
      </trkpt>
      <trkpt lat="45.7033" lon="4.64121">
        <ele>614.6</ele>
        <time>2025-11-11T11:21:37Z</time>
      </trkpt>
      <trkpt lat="45.70335" lon="4.64118">
        <ele>614.2</ele>
        <time>2025-11-11T11:21:38Z</time>
      </trkpt>
      <trkpt lat="45.70339" lon="4.64114">
        <ele>613.6</ele>
        <time>2025-11-11T11:21:39Z</time>
      </trkpt>
      <trkpt lat="45.70344" lon="4.64109">
        <ele>613.2</ele>
        <time>2025-11-11T11:21:40Z</time>
      </trkpt>
      <trkpt lat="45.70349" lon="4.64101">
        <ele>612.8</ele>
        <time>2025-11-11T11:21:41Z</time>
      </trkpt>
      <trkpt lat="45.70354" lon="4.64094">
        <ele>612.4</ele>
        <time>2025-11-11T11:21:42Z</time>
      </trkpt>
      <trkpt lat="45.70356" lon="4.64087">
        <ele>611.8</ele>
        <time>2025-11-11T11:21:43Z</time>
      </trkpt>
      <trkpt lat="45.70359" lon="4.64077">
        <ele>611.4</ele>
        <time>2025-11-11T11:21:44Z</time>
      </trkpt>
      <trkpt lat="45.70361" lon="4.64067">
        <ele>610.8</ele>
        <time>2025-11-11T11:21:45Z</time>
      </trkpt>
      <trkpt lat="45.70364" lon="4.64055">
        <ele>610.4</ele>
        <time>2025-11-11T11:21:46Z</time>
      </trkpt>
      <trkpt lat="45.70365" lon="4.64045">
        <ele>609.8</ele>
        <time>2025-11-11T11:21:47Z</time>
      </trkpt>
      <trkpt lat="45.70366" lon="4.64037">
        <ele>609.2</ele>
        <time>2025-11-11T11:21:48Z</time>
      </trkpt>
      <trkpt lat="45.70367" lon="4.64027">
        <ele>608.6</ele>
        <time>2025-11-11T11:21:49Z</time>
      </trkpt>
      <trkpt lat="45.70368" lon="4.64017">
        <ele>607.8</ele>
        <time>2025-11-11T11:21:50Z</time>
      </trkpt>
      <trkpt lat="45.70369" lon="4.64007">
        <ele>607.2</ele>
        <time>2025-11-11T11:21:51Z</time>
      </trkpt>
      <trkpt lat="45.70371" lon="4.63997">
        <ele>606.4</ele>
        <time>2025-11-11T11:21:52Z</time>
      </trkpt>
      <trkpt lat="45.70372" lon="4.63987">
        <ele>605.6</ele>
        <time>2025-11-11T11:21:53Z</time>
      </trkpt>
      <trkpt lat="45.70372" lon="4.63978">
        <ele>605</ele>
        <time>2025-11-11T11:21:54Z</time>
      </trkpt>
      <trkpt lat="45.70373" lon="4.63968">
        <ele>604.2</ele>
        <time>2025-11-11T11:21:55Z</time>
      </trkpt>
      <trkpt lat="45.70376" lon="4.63959">
        <ele>603.2</ele>
        <time>2025-11-11T11:21:56Z</time>
      </trkpt>
      <trkpt lat="45.70379" lon="4.6395">
        <ele>602.4</ele>
        <time>2025-11-11T11:21:57Z</time>
      </trkpt>
      <trkpt lat="45.70382" lon="4.63941">
        <ele>601.4</ele>
        <time>2025-11-11T11:21:58Z</time>
      </trkpt>
      <trkpt lat="45.70384" lon="4.63931">
        <ele>600.6</ele>
        <time>2025-11-11T11:21:59Z</time>
      </trkpt>
      <trkpt lat="45.70385" lon="4.63923">
        <ele>599.6</ele>
        <time>2025-11-11T11:22:00Z</time>
      </trkpt>
      <trkpt lat="45.70386" lon="4.63917">
        <ele>598.8</ele>
        <time>2025-11-11T11:22:01Z</time>
      </trkpt>
      <trkpt lat="45.70387" lon="4.63913">
        <ele>598</ele>
        <time>2025-11-11T11:22:02Z</time>
      </trkpt>
      <trkpt lat="45.70388" lon="4.6391">
        <ele>597.2</ele>
        <time>2025-11-11T11:22:03Z</time>
      </trkpt>
      <trkpt lat="45.70389" lon="4.63907">
        <ele>596.4</ele>
        <time>2025-11-11T11:22:04Z</time>
      </trkpt>
      <trkpt lat="45.70389" lon="4.63904">
        <ele>595.8</ele>
        <time>2025-11-11T11:22:05Z</time>
      </trkpt>
      <trkpt lat="45.70389" lon="4.63902">
        <ele>595.4</ele>
        <time>2025-11-11T11:22:06Z</time>
      </trkpt>
      <trkpt lat="45.70389" lon="4.639">
        <ele>595.2</ele>
        <time>2025-11-11T11:22:07Z</time>
      </trkpt>
      <trkpt lat="45.70389" lon="4.63899">
        <ele>595</ele>
        <time>2025-11-11T11:22:08Z</time>
      </trkpt>
      <trkpt lat="45.70389" lon="4.63899">
        <ele>594.8</ele>
        <time>2025-11-11T11:22:09Z</time>
      </trkpt>
      <trkpt lat="45.70389" lon="4.63899">
        <ele>594.8</ele>
        <time>2025-11-11T11:22:10Z</time>
      </trkpt>
      <trkpt lat="45.70389" lon="4.63899">
        <ele>594.8</ele>
        <time>2025-11-11T11:22:11Z</time>
      </trkpt>
      <trkpt lat="45.70389" lon="4.63899">
        <ele>594.6</ele>
        <time>2025-11-11T11:22:12Z</time>
      </trkpt>
      <trkpt lat="45.70389" lon="4.63899">
        <ele>594.8</ele>
        <time>2025-11-11T11:22:13Z</time>
      </trkpt>
      <trkpt lat="45.70389" lon="4.63899">
        <ele>594.8</ele>
        <time>2025-11-11T11:22:14Z</time>
      </trkpt>
      <trkpt lat="45.70389" lon="4.63899">
        <ele>594.8</ele>
        <time>2025-11-11T11:22:15Z</time>
      </trkpt>
      <trkpt lat="45.70389" lon="4.63899">
        <ele>594.8</ele>
        <time>2025-11-11T11:22:16Z</time>
      </trkpt>
      <trkpt lat="45.70389" lon="4.63899">
        <ele>594.8</ele>
        <time>2025-11-11T11:22:17Z</time>
      </trkpt>
      <trkpt lat="45.70389" lon="4.63899">
        <ele>594.8</ele>
        <time>2025-11-11T11:22:18Z</time>
      </trkpt>
      <trkpt lat="45.70389" lon="4.63899">
        <ele>594.8</ele>
        <time>2025-11-11T11:22:19Z</time>
      </trkpt>
      <trkpt lat="45.70389" lon="4.63899">
        <ele>594.8</ele>
        <time>2025-11-11T11:22:20Z</time>
      </trkpt>
      <trkpt lat="45.70389" lon="4.63899">
        <ele>594.8</ele>
        <time>2025-11-11T11:22:21Z</time>
      </trkpt>
      <trkpt lat="45.70389" lon="4.63899">
        <ele>594.8</ele>
        <time>2025-11-11T11:22:22Z</time>
      </trkpt>
      <trkpt lat="45.70389" lon="4.63899">
        <ele>594.8</ele>
        <time>2025-11-11T11:22:23Z</time>
      </trkpt>
      <trkpt lat="45.70389" lon="4.63899">
        <ele>594.8</ele>
        <time>2025-11-11T11:22:24Z</time>
      </trkpt>
      <trkpt lat="45.70389" lon="4.63899">
        <ele>594.8</ele>
        <time>2025-11-11T11:22:25Z</time>
      </trkpt>
      <trkpt lat="45.70389" lon="4.63899">
        <ele>594.8</ele>
        <time>2025-11-11T11:22:26Z</time>
      </trkpt>
      <trkpt lat="45.70389" lon="4.63899">
        <ele>594.8</ele>
        <time>2025-11-11T11:22:27Z</time>
      </trkpt>
      <trkpt lat="45.70389" lon="4.63899">
        <ele>594.8</ele>
        <time>2025-11-11T11:22:28Z</time>
      </trkpt>
      <trkpt lat="45.70389" lon="4.63899">
        <ele>594.8</ele>
        <time>2025-11-11T11:22:29Z</time>
      </trkpt>
      <trkpt lat="45.70389" lon="4.63899">
        <ele>594.8</ele>
        <time>2025-11-11T11:22:30Z</time>
      </trkpt>
      <trkpt lat="45.70389" lon="4.63899">
        <ele>594.8</ele>
        <time>2025-11-11T11:22:31Z</time>
      </trkpt>
      <trkpt lat="45.70389" lon="4.63899">
        <ele>595</ele>
        <time>2025-11-11T11:22:32Z</time>
      </trkpt>
      <trkpt lat="45.70389" lon="4.63899">
        <ele>595</ele>
        <time>2025-11-11T11:22:33Z</time>
      </trkpt>
      <trkpt lat="45.70389" lon="4.63899">
        <ele>595</ele>
        <time>2025-11-11T11:22:34Z</time>
      </trkpt>
      <trkpt lat="45.70389" lon="4.63899">
        <ele>595</ele>
        <time>2025-11-11T11:22:35Z</time>
      </trkpt>
      <trkpt lat="45.70389" lon="4.63899">
        <ele>595</ele>
        <time>2025-11-11T11:22:36Z</time>
      </trkpt>
      <trkpt lat="45.70389" lon="4.63899">
        <ele>595</ele>
        <time>2025-11-11T11:22:37Z</time>
      </trkpt>
      <trkpt lat="45.70389" lon="4.63899">
        <ele>595</ele>
        <time>2025-11-11T11:22:38Z</time>
      </trkpt>
      <trkpt lat="45.70389" lon="4.63899">
        <ele>595</ele>
        <time>2025-11-11T11:22:39Z</time>
      </trkpt>
      <trkpt lat="45.70389" lon="4.63899">
        <ele>595</ele>
        <time>2025-11-11T11:22:40Z</time>
      </trkpt>
      <trkpt lat="45.70389" lon="4.63899">
        <ele>595</ele>
        <time>2025-11-11T11:22:41Z</time>
      </trkpt>
      <trkpt lat="45.70389" lon="4.63899">
        <ele>595</ele>
        <time>2025-11-11T11:22:42Z</time>
      </trkpt>
      <trkpt lat="45.70389" lon="4.63899">
        <ele>595</ele>
        <time>2025-11-11T11:22:43Z</time>
      </trkpt>
      <trkpt lat="45.70389" lon="4.63899">
        <ele>595</ele>
        <time>2025-11-11T11:22:44Z</time>
      </trkpt>
      <trkpt lat="45.70389" lon="4.63899">
        <ele>595</ele>
        <time>2025-11-11T11:22:45Z</time>
      </trkpt>
      <trkpt lat="45.70389" lon="4.63899">
        <ele>595</ele>
        <time>2025-11-11T11:22:46Z</time>
      </trkpt>
      <trkpt lat="45.70389" lon="4.63899">
        <ele>595</ele>
        <time>2025-11-11T11:22:47Z</time>
      </trkpt>
      <trkpt lat="45.70389" lon="4.63899">
        <ele>595.2</ele>
        <time>2025-11-11T11:22:48Z</time>
      </trkpt>
      <trkpt lat="45.70389" lon="4.63899">
        <ele>595.2</ele>
        <time>2025-11-11T11:22:49Z</time>
      </trkpt>
      <trkpt lat="45.70389" lon="4.63899">
        <ele>595.2</ele>
        <time>2025-11-11T11:22:50Z</time>
      </trkpt>
      <trkpt lat="45.70389" lon="4.63899">
        <ele>595.2</ele>
        <time>2025-11-11T11:22:51Z</time>
      </trkpt>
      <trkpt lat="45.70389" lon="4.63899">
        <ele>595.2</ele>
        <time>2025-11-11T11:22:52Z</time>
      </trkpt>
      <trkpt lat="45.70389" lon="4.63899">
        <ele>595.2</ele>
        <time>2025-11-11T11:22:53Z</time>
      </trkpt>
      <trkpt lat="45.70389" lon="4.63899">
        <ele>595.2</ele>
        <time>2025-11-11T11:22:54Z</time>
      </trkpt>
      <trkpt lat="45.70389" lon="4.63899">
        <ele>595.2</ele>
        <time>2025-11-11T11:22:55Z</time>
      </trkpt>
      <trkpt lat="45.70389" lon="4.63899">
        <ele>595.2</ele>
        <time>2025-11-11T11:22:56Z</time>
      </trkpt>
      <trkpt lat="45.70389" lon="4.63899">
        <ele>595.2</ele>
        <time>2025-11-11T11:22:57Z</time>
      </trkpt>
      <trkpt lat="45.70389" lon="4.63899">
        <ele>595.2</ele>
        <time>2025-11-11T11:22:58Z</time>
      </trkpt>
      <trkpt lat="45.70389" lon="4.63899">
        <ele>595.2</ele>
        <time>2025-11-11T11:22:59Z</time>
      </trkpt>
      <trkpt lat="45.70389" lon="4.63899">
        <ele>595.2</ele>
        <time>2025-11-11T11:23:00Z</time>
      </trkpt>
      <trkpt lat="45.70389" lon="4.63899">
        <ele>595.2</ele>
        <time>2025-11-11T11:23:01Z</time>
      </trkpt>
      <trkpt lat="45.70389" lon="4.63899">
        <ele>595.2</ele>
        <time>2025-11-11T11:23:02Z</time>
      </trkpt>
      <trkpt lat="45.70389" lon="4.63899">
        <ele>595.2</ele>
        <time>2025-11-11T11:23:03Z</time>
      </trkpt>
      <trkpt lat="45.70389" lon="4.63899">
        <ele>595.2</ele>
        <time>2025-11-11T11:23:04Z</time>
      </trkpt>
      <trkpt lat="45.70389" lon="4.63899">
        <ele>595.4</ele>
        <time>2025-11-11T11:23:05Z</time>
      </trkpt>
      <trkpt lat="45.70389" lon="4.63899">
        <ele>595.4</ele>
        <time>2025-11-11T11:23:06Z</time>
      </trkpt>
      <trkpt lat="45.70389" lon="4.63899">
        <ele>595.4</ele>
        <time>2025-11-11T11:23:07Z</time>
      </trkpt>
      <trkpt lat="45.70389" lon="4.63899">
        <ele>595.4</ele>
        <time>2025-11-11T11:23:08Z</time>
      </trkpt>
      <trkpt lat="45.70389" lon="4.63899">
        <ele>595.4</ele>
        <time>2025-11-11T11:23:09Z</time>
      </trkpt>
      <trkpt lat="45.70389" lon="4.63899">
        <ele>595.4</ele>
        <time>2025-11-11T11:23:10Z</time>
      </trkpt>
      <trkpt lat="45.70389" lon="4.63899">
        <ele>595.4</ele>
        <time>2025-11-11T11:23:11Z</time>
      </trkpt>
      <trkpt lat="45.70389" lon="4.63899">
        <ele>595.4</ele>
        <time>2025-11-11T11:23:12Z</time>
      </trkpt>
      <trkpt lat="45.70389" lon="4.63899">
        <ele>595.4</ele>
        <time>2025-11-11T11:23:13Z</time>
      </trkpt>
      <trkpt lat="45.70389" lon="4.63899">
        <ele>595.4</ele>
        <time>2025-11-11T11:23:14Z</time>
      </trkpt>
      <trkpt lat="45.7039" lon="4.639">
        <ele>595.4</ele>
        <time>2025-11-11T11:23:15Z</time>
      </trkpt>
      <trkpt lat="45.70391" lon="4.63901">
        <ele>595.4</ele>
        <time>2025-11-11T11:23:16Z</time>
      </trkpt>
      <trkpt lat="45.70392" lon="4.63902">
        <ele>595.4</ele>
        <time>2025-11-11T11:23:17Z</time>
      </trkpt>
      <trkpt lat="45.70392" lon="4.63903">
        <ele>595.2</ele>
        <time>2025-11-11T11:23:18Z</time>
      </trkpt>
      <trkpt lat="45.70391" lon="4.63904">
        <ele>595.2</ele>
        <time>2025-11-11T11:23:19Z</time>
      </trkpt>
      <trkpt lat="45.70391" lon="4.63904">
        <ele>595.2</ele>
        <time>2025-11-11T11:23:20Z</time>
      </trkpt>
      <trkpt lat="45.70391" lon="4.63904">
        <ele>595.2</ele>
        <time>2025-11-11T11:23:21Z</time>
      </trkpt>
      <trkpt lat="45.70391" lon="4.63904">
        <ele>595.4</ele>
        <time>2025-11-11T11:23:22Z</time>
      </trkpt>
      <trkpt lat="45.70391" lon="4.63904">
        <ele>595.6</ele>
        <time>2025-11-11T11:23:23Z</time>
      </trkpt>
      <trkpt lat="45.70391" lon="4.63904">
        <ele>595.6</ele>
        <time>2025-11-11T11:23:24Z</time>
      </trkpt>
      <trkpt lat="45.70391" lon="4.63904">
        <ele>595.6</ele>
        <time>2025-11-11T11:23:25Z</time>
      </trkpt>
      <trkpt lat="45.70391" lon="4.63904">
        <ele>595.6</ele>
        <time>2025-11-11T11:23:26Z</time>
      </trkpt>
      <trkpt lat="45.70391" lon="4.63904">
        <ele>595.6</ele>
        <time>2025-11-11T11:23:27Z</time>
      </trkpt>
      <trkpt lat="45.70391" lon="4.63904">
        <ele>595.6</ele>
        <time>2025-11-11T11:23:28Z</time>
      </trkpt>
      <trkpt lat="45.70391" lon="4.63904">
        <ele>595.6</ele>
        <time>2025-11-11T11:23:29Z</time>
      </trkpt>
      <trkpt lat="45.70391" lon="4.63904">
        <ele>595.6</ele>
        <time>2025-11-11T11:23:30Z</time>
      </trkpt>
      <trkpt lat="45.70391" lon="4.63904">
        <ele>595.6</ele>
        <time>2025-11-11T11:23:31Z</time>
      </trkpt>
      <trkpt lat="45.70391" lon="4.63904">
        <ele>595.6</ele>
        <time>2025-11-11T11:23:32Z</time>
      </trkpt>
      <trkpt lat="45.70391" lon="4.63904">
        <ele>595.6</ele>
        <time>2025-11-11T11:23:33Z</time>
      </trkpt>
      <trkpt lat="45.70391" lon="4.63905">
        <ele>595.6</ele>
        <time>2025-11-11T11:23:34Z</time>
      </trkpt>
      <trkpt lat="45.70391" lon="4.63906">
        <ele>595.6</ele>
        <time>2025-11-11T11:23:35Z</time>
      </trkpt>
      <trkpt lat="45.70391" lon="4.63907">
        <ele>595.6</ele>
        <time>2025-11-11T11:23:36Z</time>
      </trkpt>
      <trkpt lat="45.70391" lon="4.63907">
        <ele>595.6</ele>
        <time>2025-11-11T11:23:37Z</time>
      </trkpt>
      <trkpt lat="45.70391" lon="4.63907">
        <ele>595.6</ele>
        <time>2025-11-11T11:23:38Z</time>
      </trkpt>
      <trkpt lat="45.70391" lon="4.63907">
        <ele>595.6</ele>
        <time>2025-11-11T11:23:39Z</time>
      </trkpt>
      <trkpt lat="45.70391" lon="4.63907">
        <ele>595.6</ele>
        <time>2025-11-11T11:23:40Z</time>
      </trkpt>
      <trkpt lat="45.70391" lon="4.63907">
        <ele>595.6</ele>
        <time>2025-11-11T11:23:41Z</time>
      </trkpt>
      <trkpt lat="45.70391" lon="4.63907">
        <ele>595.8</ele>
        <time>2025-11-11T11:23:42Z</time>
      </trkpt>
      <trkpt lat="45.70391" lon="4.63907">
        <ele>595.8</ele>
        <time>2025-11-11T11:23:43Z</time>
      </trkpt>
      <trkpt lat="45.70391" lon="4.63907">
        <ele>595.8</ele>
        <time>2025-11-11T11:23:44Z</time>
      </trkpt>
      <trkpt lat="45.70391" lon="4.63907">
        <ele>595.8</ele>
        <time>2025-11-11T11:23:45Z</time>
      </trkpt>
      <trkpt lat="45.70391" lon="4.63907">
        <ele>595.8</ele>
        <time>2025-11-11T11:23:46Z</time>
      </trkpt>
      <trkpt lat="45.70391" lon="4.63907">
        <ele>595.8</ele>
        <time>2025-11-11T11:23:47Z</time>
      </trkpt>
      <trkpt lat="45.70391" lon="4.63907">
        <ele>595.8</ele>
        <time>2025-11-11T11:23:48Z</time>
      </trkpt>
      <trkpt lat="45.70391" lon="4.63907">
        <ele>595.8</ele>
        <time>2025-11-11T11:23:49Z</time>
      </trkpt>
      <trkpt lat="45.70391" lon="4.63907">
        <ele>595.8</ele>
        <time>2025-11-11T11:23:50Z</time>
      </trkpt>
      <trkpt lat="45.70391" lon="4.63907">
        <ele>595.8</ele>
        <time>2025-11-11T11:23:51Z</time>
      </trkpt>
      <trkpt lat="45.70391" lon="4.63907">
        <ele>595.8</ele>
        <time>2025-11-11T11:23:52Z</time>
      </trkpt>
      <trkpt lat="45.70391" lon="4.63907">
        <ele>595.8</ele>
        <time>2025-11-11T11:23:53Z</time>
      </trkpt>
      <trkpt lat="45.70391" lon="4.63907">
        <ele>595.8</ele>
        <time>2025-11-11T11:23:54Z</time>
      </trkpt>
      <trkpt lat="45.70391" lon="4.63907">
        <ele>595.8</ele>
        <time>2025-11-11T11:23:55Z</time>
      </trkpt>
      <trkpt lat="45.70391" lon="4.63907">
        <ele>595.8</ele>
        <time>2025-11-11T11:23:56Z</time>
      </trkpt>
      <trkpt lat="45.70391" lon="4.63907">
        <ele>595.8</ele>
        <time>2025-11-11T11:23:57Z</time>
      </trkpt>
      <trkpt lat="45.70391" lon="4.63907">
        <ele>595.8</ele>
        <time>2025-11-11T11:23:58Z</time>
      </trkpt>
      <trkpt lat="45.70391" lon="4.63907">
        <ele>596</ele>
        <time>2025-11-11T11:23:59Z</time>
      </trkpt>
      <trkpt lat="45.70391" lon="4.63907">
        <ele>596</ele>
        <time>2025-11-11T11:24:00Z</time>
      </trkpt>
      <trkpt lat="45.70391" lon="4.63907">
        <ele>596</ele>
        <time>2025-11-11T11:24:01Z</time>
      </trkpt>
      <trkpt lat="45.70391" lon="4.63907">
        <ele>596</ele>
        <time>2025-11-11T11:24:02Z</time>
      </trkpt>
      <trkpt lat="45.70391" lon="4.63907">
        <ele>596</ele>
        <time>2025-11-11T11:24:03Z</time>
      </trkpt>
      <trkpt lat="45.70391" lon="4.63907">
        <ele>596</ele>
        <time>2025-11-11T11:24:04Z</time>
      </trkpt>
      <trkpt lat="45.70391" lon="4.63907">
        <ele>596</ele>
        <time>2025-11-11T11:24:05Z</time>
      </trkpt>
      <trkpt lat="45.70391" lon="4.63907">
        <ele>596</ele>
        <time>2025-11-11T11:24:06Z</time>
      </trkpt>
      <trkpt lat="45.70391" lon="4.63907">
        <ele>596</ele>
        <time>2025-11-11T11:24:07Z</time>
      </trkpt>
      <trkpt lat="45.70391" lon="4.63907">
        <ele>596</ele>
        <time>2025-11-11T11:24:08Z</time>
      </trkpt>
      <trkpt lat="45.70391" lon="4.63907">
        <ele>596</ele>
        <time>2025-11-11T11:24:09Z</time>
      </trkpt>
      <trkpt lat="45.70391" lon="4.63907">
        <ele>596</ele>
        <time>2025-11-11T11:24:10Z</time>
      </trkpt>
      <trkpt lat="45.70391" lon="4.63907">
        <ele>596</ele>
        <time>2025-11-11T11:24:11Z</time>
      </trkpt>
      <trkpt lat="45.70391" lon="4.63907">
        <ele>596</ele>
        <time>2025-11-11T11:24:12Z</time>
      </trkpt>
      <trkpt lat="45.70391" lon="4.63907">
        <ele>596</ele>
        <time>2025-11-11T11:24:13Z</time>
      </trkpt>
      <trkpt lat="45.70391" lon="4.63907">
        <ele>596</ele>
        <time>2025-11-11T11:24:14Z</time>
      </trkpt>
      <trkpt lat="45.70391" lon="4.63907">
        <ele>596</ele>
        <time>2025-11-11T11:24:15Z</time>
      </trkpt>
      <trkpt lat="45.70391" lon="4.63907">
        <ele>596</ele>
        <time>2025-11-11T11:24:16Z</time>
      </trkpt>
      <trkpt lat="45.70391" lon="4.63907">
        <ele>596.2</ele>
        <time>2025-11-11T11:24:17Z</time>
      </trkpt>
      <trkpt lat="45.70391" lon="4.63907">
        <ele>596.2</ele>
        <time>2025-11-11T11:24:18Z</time>
      </trkpt>
      <trkpt lat="45.70391" lon="4.63907">
        <ele>596.2</ele>
        <time>2025-11-11T11:24:19Z</time>
      </trkpt>
      <trkpt lat="45.70391" lon="4.63907">
        <ele>596.2</ele>
        <time>2025-11-11T11:24:20Z</time>
      </trkpt>
      <trkpt lat="45.70391" lon="4.63907">
        <ele>596.2</ele>
        <time>2025-11-11T11:24:21Z</time>
      </trkpt>
      <trkpt lat="45.70391" lon="4.63907">
        <ele>596.2</ele>
        <time>2025-11-11T11:24:22Z</time>
      </trkpt>
      <trkpt lat="45.70391" lon="4.63907">
        <ele>596.2</ele>
        <time>2025-11-11T11:24:23Z</time>
      </trkpt>
      <trkpt lat="45.70391" lon="4.63907">
        <ele>596.2</ele>
        <time>2025-11-11T11:24:24Z</time>
      </trkpt>
      <trkpt lat="45.70391" lon="4.63909">
        <ele>596.2</ele>
        <time>2025-11-11T11:24:25Z</time>
      </trkpt>
      <trkpt lat="45.70391" lon="4.63912">
        <ele>596</ele>
        <time>2025-11-11T11:24:26Z</time>
      </trkpt>
      <trkpt lat="45.70391" lon="4.63915">
        <ele>595.8</ele>
        <time>2025-11-11T11:24:27Z</time>
      </trkpt>
      <trkpt lat="45.70392" lon="4.63918">
        <ele>595.8</ele>
        <time>2025-11-11T11:24:28Z</time>
      </trkpt>
      <trkpt lat="45.70392" lon="4.63922">
        <ele>595.8</ele>
        <time>2025-11-11T11:24:29Z</time>
      </trkpt>
      <trkpt lat="45.70392" lon="4.63925">
        <ele>595.6</ele>
        <time>2025-11-11T11:24:30Z</time>
      </trkpt>
      <trkpt lat="45.70392" lon="4.63929">
        <ele>595.6</ele>
        <time>2025-11-11T11:24:31Z</time>
      </trkpt>
      <trkpt lat="45.70392" lon="4.63934">
        <ele>595.6</ele>
        <time>2025-11-11T11:24:32Z</time>
      </trkpt>
      <trkpt lat="45.70391" lon="4.63939">
        <ele>595.4</ele>
        <time>2025-11-11T11:24:33Z</time>
      </trkpt>
      <trkpt lat="45.70392" lon="4.63943">
        <ele>595.4</ele>
        <time>2025-11-11T11:24:34Z</time>
      </trkpt>
      <trkpt lat="45.70393" lon="4.63949">
        <ele>595.2</ele>
        <time>2025-11-11T11:24:35Z</time>
      </trkpt>
      <trkpt lat="45.70394" lon="4.63955">
        <ele>595</ele>
        <time>2025-11-11T11:24:36Z</time>
      </trkpt>
      <trkpt lat="45.70395" lon="4.63962">
        <ele>595</ele>
        <time>2025-11-11T11:24:37Z</time>
      </trkpt>
      <trkpt lat="45.70396" lon="4.63968">
        <ele>594.8</ele>
        <time>2025-11-11T11:24:38Z</time>
      </trkpt>
      <trkpt lat="45.70397" lon="4.63975">
        <ele>594.8</ele>
        <time>2025-11-11T11:24:39Z</time>
      </trkpt>
      <trkpt lat="45.70397" lon="4.63981">
        <ele>594.8</ele>
        <time>2025-11-11T11:24:40Z</time>
      </trkpt>
      <trkpt lat="45.70398" lon="4.63988">
        <ele>595</ele>
        <time>2025-11-11T11:24:41Z</time>
      </trkpt>
      <trkpt lat="45.70398" lon="4.63995">
        <ele>595</ele>
        <time>2025-11-11T11:24:42Z</time>
      </trkpt>
      <trkpt lat="45.70399" lon="4.64001">
        <ele>595.2</ele>
        <time>2025-11-11T11:24:43Z</time>
      </trkpt>
      <trkpt lat="45.70399" lon="4.64008">
        <ele>595.2</ele>
        <time>2025-11-11T11:24:44Z</time>
      </trkpt>
      <trkpt lat="45.704" lon="4.64014">
        <ele>595.4</ele>
        <time>2025-11-11T11:24:45Z</time>
      </trkpt>
      <trkpt lat="45.704" lon="4.64021">
        <ele>595.4</ele>
        <time>2025-11-11T11:24:46Z</time>
      </trkpt>
      <trkpt lat="45.70401" lon="4.64028">
        <ele>595.4</ele>
        <time>2025-11-11T11:24:47Z</time>
      </trkpt>
      <trkpt lat="45.70402" lon="4.64034">
        <ele>595.4</ele>
        <time>2025-11-11T11:24:48Z</time>
      </trkpt>
      <trkpt lat="45.70403" lon="4.64041">
        <ele>595.6</ele>
        <time>2025-11-11T11:24:49Z</time>
      </trkpt>
      <trkpt lat="45.70403" lon="4.64047">
        <ele>595.8</ele>
        <time>2025-11-11T11:24:50Z</time>
      </trkpt>
      <trkpt lat="45.70404" lon="4.64054">
        <ele>596</ele>
        <time>2025-11-11T11:24:51Z</time>
      </trkpt>
      <trkpt lat="45.70404" lon="4.6406">
        <ele>596.4</ele>
        <time>2025-11-11T11:24:52Z</time>
      </trkpt>
      <trkpt lat="45.70405" lon="4.64067">
        <ele>596.6</ele>
        <time>2025-11-11T11:24:53Z</time>
      </trkpt>
      <trkpt lat="45.70406" lon="4.64073">
        <ele>596.8</ele>
        <time>2025-11-11T11:24:54Z</time>
      </trkpt>
      <trkpt lat="45.70408" lon="4.64079">
        <ele>597.2</ele>
        <time>2025-11-11T11:24:55Z</time>
      </trkpt>
      <trkpt lat="45.70409" lon="4.64086">
        <ele>597.4</ele>
        <time>2025-11-11T11:24:56Z</time>
      </trkpt>
      <trkpt lat="45.7041" lon="4.64092">
        <ele>597.6</ele>
        <time>2025-11-11T11:24:57Z</time>
      </trkpt>
      <trkpt lat="45.70411" lon="4.64098">
        <ele>597.8</ele>
        <time>2025-11-11T11:24:58Z</time>
      </trkpt>
      <trkpt lat="45.70413" lon="4.64104">
        <ele>598.2</ele>
        <time>2025-11-11T11:24:59Z</time>
      </trkpt>
      <trkpt lat="45.70414" lon="4.64109">
        <ele>598.6</ele>
        <time>2025-11-11T11:25:00Z</time>
      </trkpt>
      <trkpt lat="45.70415" lon="4.64115">
        <ele>598.8</ele>
        <time>2025-11-11T11:25:01Z</time>
      </trkpt>
      <trkpt lat="45.70417" lon="4.6412">
        <ele>599.2</ele>
        <time>2025-11-11T11:25:02Z</time>
      </trkpt>
      <trkpt lat="45.70419" lon="4.64128">
        <ele>599.4</ele>
        <time>2025-11-11T11:25:03Z</time>
      </trkpt>
      <trkpt lat="45.7042" lon="4.64134">
        <ele>599.6</ele>
        <time>2025-11-11T11:25:04Z</time>
      </trkpt>
      <trkpt lat="45.70422" lon="4.6414">
        <ele>599.8</ele>
        <time>2025-11-11T11:25:05Z</time>
      </trkpt>
      <trkpt lat="45.70424" lon="4.64146">
        <ele>600</ele>
        <time>2025-11-11T11:25:06Z</time>
      </trkpt>
      <trkpt lat="45.70425" lon="4.64151">
        <ele>600.4</ele>
        <time>2025-11-11T11:25:07Z</time>
      </trkpt>
      <trkpt lat="45.70426" lon="4.64156">
        <ele>600.6</ele>
        <time>2025-11-11T11:25:08Z</time>
      </trkpt>
      <trkpt lat="45.70428" lon="4.64161">
        <ele>600.8</ele>
        <time>2025-11-11T11:25:09Z</time>
      </trkpt>
      <trkpt lat="45.70429" lon="4.64167">
        <ele>601.2</ele>
        <time>2025-11-11T11:25:10Z</time>
      </trkpt>
      <trkpt lat="45.7043" lon="4.64172">
        <ele>601.4</ele>
        <time>2025-11-11T11:25:11Z</time>
      </trkpt>
      <trkpt lat="45.70431" lon="4.64178">
        <ele>601.6</ele>
        <time>2025-11-11T11:25:12Z</time>
      </trkpt>
      <trkpt lat="45.70431" lon="4.64184">
        <ele>602</ele>
        <time>2025-11-11T11:25:13Z</time>
      </trkpt>
      <trkpt lat="45.70431" lon="4.6419">
        <ele>602.2</ele>
        <time>2025-11-11T11:25:14Z</time>
      </trkpt>
      <trkpt lat="45.70431" lon="4.64196">
        <ele>602.4</ele>
        <time>2025-11-11T11:25:15Z</time>
      </trkpt>
      <trkpt lat="45.70431" lon="4.64202">
        <ele>602.8</ele>
        <time>2025-11-11T11:25:16Z</time>
      </trkpt>
      <trkpt lat="45.70431" lon="4.64209">
        <ele>603</ele>
        <time>2025-11-11T11:25:17Z</time>
      </trkpt>
      <trkpt lat="45.70431" lon="4.64215">
        <ele>603.4</ele>
        <time>2025-11-11T11:25:18Z</time>
      </trkpt>
      <trkpt lat="45.70431" lon="4.6422">
        <ele>603.6</ele>
        <time>2025-11-11T11:25:19Z</time>
      </trkpt>
      <trkpt lat="45.70431" lon="4.64226">
        <ele>604</ele>
        <time>2025-11-11T11:25:20Z</time>
      </trkpt>
      <trkpt lat="45.7043" lon="4.64234">
        <ele>604.4</ele>
        <time>2025-11-11T11:25:21Z</time>
      </trkpt>
      <trkpt lat="45.7043" lon="4.64239">
        <ele>604.6</ele>
        <time>2025-11-11T11:25:22Z</time>
      </trkpt>
      <trkpt lat="45.7043" lon="4.64246">
        <ele>605</ele>
        <time>2025-11-11T11:25:23Z</time>
      </trkpt>
      <trkpt lat="45.70429" lon="4.6425">
        <ele>605.2</ele>
        <time>2025-11-11T11:25:24Z</time>
      </trkpt>
      <trkpt lat="45.70427" lon="4.64257">
        <ele>605.2</ele>
        <time>2025-11-11T11:25:25Z</time>
      </trkpt>
      <trkpt lat="45.70426" lon="4.64263">
        <ele>605.4</ele>
        <time>2025-11-11T11:25:26Z</time>
      </trkpt>
      <trkpt lat="45.70425" lon="4.64269">
        <ele>605.4</ele>
        <time>2025-11-11T11:25:27Z</time>
      </trkpt>
      <trkpt lat="45.70424" lon="4.64273">
        <ele>605.6</ele>
        <time>2025-11-11T11:25:28Z</time>
      </trkpt>
      <trkpt lat="45.70422" lon="4.64279">
        <ele>605.6</ele>
        <time>2025-11-11T11:25:29Z</time>
      </trkpt>
      <trkpt lat="45.7042" lon="4.64286">
        <ele>605.8</ele>
        <time>2025-11-11T11:25:30Z</time>
      </trkpt>
      <trkpt lat="45.70419" lon="4.64291">
        <ele>605.8</ele>
        <time>2025-11-11T11:25:31Z</time>
      </trkpt>
      <trkpt lat="45.70417" lon="4.64295">
        <ele>605.8</ele>
        <time>2025-11-11T11:25:32Z</time>
      </trkpt>
      <trkpt lat="45.70416" lon="4.64301">
        <ele>606</ele>
        <time>2025-11-11T11:25:33Z</time>
      </trkpt>
      <trkpt lat="45.70414" lon="4.64306">
        <ele>606</ele>
        <time>2025-11-11T11:25:34Z</time>
      </trkpt>
      <trkpt lat="45.70412" lon="4.64311">
        <ele>606</ele>
        <time>2025-11-11T11:25:35Z</time>
      </trkpt>
      <trkpt lat="45.7041" lon="4.64317">
        <ele>606</ele>
        <time>2025-11-11T11:25:36Z</time>
      </trkpt>
      <trkpt lat="45.70409" lon="4.64321">
        <ele>606</ele>
        <time>2025-11-11T11:25:37Z</time>
      </trkpt>
      <trkpt lat="45.70407" lon="4.64327">
        <ele>606</ele>
        <time>2025-11-11T11:25:38Z</time>
      </trkpt>
      <trkpt lat="45.70405" lon="4.64334">
        <ele>605.8</ele>
        <time>2025-11-11T11:25:39Z</time>
      </trkpt>
      <trkpt lat="45.70403" lon="4.6434">
        <ele>605.8</ele>
        <time>2025-11-11T11:25:40Z</time>
      </trkpt>
      <trkpt lat="45.70401" lon="4.64344">
        <ele>605.6</ele>
        <time>2025-11-11T11:25:41Z</time>
      </trkpt>
      <trkpt lat="45.70399" lon="4.6435">
        <ele>605.4</ele>
        <time>2025-11-11T11:25:42Z</time>
      </trkpt>
      <trkpt lat="45.70397" lon="4.64355">
        <ele>605</ele>
        <time>2025-11-11T11:25:43Z</time>
      </trkpt>
      <trkpt lat="45.70395" lon="4.64361">
        <ele>604.8</ele>
        <time>2025-11-11T11:25:44Z</time>
      </trkpt>
      <trkpt lat="45.70392" lon="4.64367">
        <ele>604.4</ele>
        <time>2025-11-11T11:25:45Z</time>
      </trkpt>
      <trkpt lat="45.7039" lon="4.64373">
        <ele>604</ele>
        <time>2025-11-11T11:25:46Z</time>
      </trkpt>
      <trkpt lat="45.70386" lon="4.6438">
        <ele>603.8</ele>
        <time>2025-11-11T11:25:47Z</time>
      </trkpt>
      <trkpt lat="45.70383" lon="4.64386">
        <ele>603.4</ele>
        <time>2025-11-11T11:25:48Z</time>
      </trkpt>
      <trkpt lat="45.70379" lon="4.64391">
        <ele>603</ele>
        <time>2025-11-11T11:25:49Z</time>
      </trkpt>
      <trkpt lat="45.70376" lon="4.64396">
        <ele>602.8</ele>
        <time>2025-11-11T11:25:50Z</time>
      </trkpt>
      <trkpt lat="45.70373" lon="4.64402">
        <ele>602.4</ele>
        <time>2025-11-11T11:25:51Z</time>
      </trkpt>
      <trkpt lat="45.70369" lon="4.64409">
        <ele>602.2</ele>
        <time>2025-11-11T11:25:52Z</time>
      </trkpt>
      <trkpt lat="45.70366" lon="4.64416">
        <ele>601.8</ele>
        <time>2025-11-11T11:25:53Z</time>
      </trkpt>
      <trkpt lat="45.70361" lon="4.64422">
        <ele>601.6</ele>
        <time>2025-11-11T11:25:54Z</time>
      </trkpt>
      <trkpt lat="45.70357" lon="4.64428">
        <ele>601.2</ele>
        <time>2025-11-11T11:25:55Z</time>
      </trkpt>
      <trkpt lat="45.70352" lon="4.64436">
        <ele>600.8</ele>
        <time>2025-11-11T11:25:56Z</time>
      </trkpt>
      <trkpt lat="45.70348" lon="4.64443">
        <ele>600.2</ele>
        <time>2025-11-11T11:25:57Z</time>
      </trkpt>
      <trkpt lat="45.70344" lon="4.64448">
        <ele>599.6</ele>
        <time>2025-11-11T11:25:58Z</time>
      </trkpt>
      <trkpt lat="45.70339" lon="4.64455">
        <ele>599.2</ele>
        <time>2025-11-11T11:25:59Z</time>
      </trkpt>
      <trkpt lat="45.70333" lon="4.64464">
        <ele>598.4</ele>
        <time>2025-11-11T11:26:00Z</time>
      </trkpt>
      <trkpt lat="45.70329" lon="4.6447">
        <ele>597.8</ele>
        <time>2025-11-11T11:26:01Z</time>
      </trkpt>
      <trkpt lat="45.70323" lon="4.64477">
        <ele>597.2</ele>
        <time>2025-11-11T11:26:02Z</time>
      </trkpt>
      <trkpt lat="45.70316" lon="4.64485">
        <ele>596.4</ele>
        <time>2025-11-11T11:26:03Z</time>
      </trkpt>
      <trkpt lat="45.7031" lon="4.64491">
        <ele>595.6</ele>
        <time>2025-11-11T11:26:04Z</time>
      </trkpt>
      <trkpt lat="45.70303" lon="4.64498">
        <ele>594.6</ele>
        <time>2025-11-11T11:26:05Z</time>
      </trkpt>
      <trkpt lat="45.70296" lon="4.64505">
        <ele>593.8</ele>
        <time>2025-11-11T11:26:06Z</time>
      </trkpt>
      <trkpt lat="45.70291" lon="4.64508">
        <ele>593.2</ele>
        <time>2025-11-11T11:26:07Z</time>
      </trkpt>
      <trkpt lat="45.70288" lon="4.6451">
        <ele>592.8</ele>
        <time>2025-11-11T11:26:08Z</time>
      </trkpt>
      <trkpt lat="45.70287" lon="4.64512">
        <ele>592.6</ele>
        <time>2025-11-11T11:26:09Z</time>
      </trkpt>
      <trkpt lat="45.70286" lon="4.64514">
        <ele>592.8</ele>
        <time>2025-11-11T11:26:10Z</time>
      </trkpt>
      <trkpt lat="45.70286" lon="4.64515">
        <ele>593</ele>
        <time>2025-11-11T11:26:11Z</time>
      </trkpt>
      <trkpt lat="45.70286" lon="4.64515">
        <ele>593.2</ele>
        <time>2025-11-11T11:26:12Z</time>
      </trkpt>
      <trkpt lat="45.70286" lon="4.64515">
        <ele>593.2</ele>
        <time>2025-11-11T11:26:13Z</time>
      </trkpt>
      <trkpt lat="45.70286" lon="4.64515">
        <ele>593.4</ele>
        <time>2025-11-11T11:26:14Z</time>
      </trkpt>
      <trkpt lat="45.70286" lon="4.64515">
        <ele>593.4</ele>
        <time>2025-11-11T11:26:15Z</time>
      </trkpt>
      <trkpt lat="45.70286" lon="4.64515">
        <ele>593.4</ele>
        <time>2025-11-11T11:26:16Z</time>
      </trkpt>
      <trkpt lat="45.70286" lon="4.64515">
        <ele>593.4</ele>
        <time>2025-11-11T11:26:17Z</time>
      </trkpt>
      <trkpt lat="45.70286" lon="4.64515">
        <ele>593.4</ele>
        <time>2025-11-11T11:26:18Z</time>
      </trkpt>
      <trkpt lat="45.70285" lon="4.64517">
        <ele>593.4</ele>
        <time>2025-11-11T11:26:19Z</time>
      </trkpt>
      <trkpt lat="45.70284" lon="4.64518">
        <ele>593.2</ele>
        <time>2025-11-11T11:26:20Z</time>
      </trkpt>
      <trkpt lat="45.70282" lon="4.6452">
        <ele>592.8</ele>
        <time>2025-11-11T11:26:21Z</time>
      </trkpt>
      <trkpt lat="45.70279" lon="4.64523">
        <ele>592.4</ele>
        <time>2025-11-11T11:26:22Z</time>
      </trkpt>
      <trkpt lat="45.70276" lon="4.64525">
        <ele>591.8</ele>
        <time>2025-11-11T11:26:23Z</time>
      </trkpt>
      <trkpt lat="45.70273" lon="4.64529">
        <ele>591.2</ele>
        <time>2025-11-11T11:26:24Z</time>
      </trkpt>
      <trkpt lat="45.7027" lon="4.64533">
        <ele>590.2</ele>
        <time>2025-11-11T11:26:25Z</time>
      </trkpt>
      <trkpt lat="45.70267" lon="4.64538">
        <ele>589.2</ele>
        <time>2025-11-11T11:26:26Z</time>
      </trkpt>
      <trkpt lat="45.70264" lon="4.64544">
        <ele>588.2</ele>
        <time>2025-11-11T11:26:27Z</time>
      </trkpt>
      <trkpt lat="45.70261" lon="4.64551">
        <ele>587.2</ele>
        <time>2025-11-11T11:26:28Z</time>
      </trkpt>
      <trkpt lat="45.7026" lon="4.64556">
        <ele>586.4</ele>
        <time>2025-11-11T11:26:29Z</time>
      </trkpt>
      <trkpt lat="45.70258" lon="4.64562">
        <ele>585.8</ele>
        <time>2025-11-11T11:26:30Z</time>
      </trkpt>
      <trkpt lat="45.70257" lon="4.64569">
        <ele>585</ele>
        <time>2025-11-11T11:26:31Z</time>
      </trkpt>
      <trkpt lat="45.70254" lon="4.64574">
        <ele>584.4</ele>
        <time>2025-11-11T11:26:32Z</time>
      </trkpt>
      <trkpt lat="45.70251" lon="4.64579">
        <ele>583.8</ele>
        <time>2025-11-11T11:26:33Z</time>
      </trkpt>
      <trkpt lat="45.70247" lon="4.64583">
        <ele>583.2</ele>
        <time>2025-11-11T11:26:34Z</time>
      </trkpt>
      <trkpt lat="45.70242" lon="4.64588">
        <ele>582.4</ele>
        <time>2025-11-11T11:26:35Z</time>
      </trkpt>
      <trkpt lat="45.70237" lon="4.64593">
        <ele>581.8</ele>
        <time>2025-11-11T11:26:36Z</time>
      </trkpt>
      <trkpt lat="45.70233" lon="4.64597">
        <ele>581.2</ele>
        <time>2025-11-11T11:26:37Z</time>
      </trkpt>
      <trkpt lat="45.70229" lon="4.64601">
        <ele>580.6</ele>
        <time>2025-11-11T11:26:38Z</time>
      </trkpt>
      <trkpt lat="45.70225" lon="4.64606">
        <ele>580.2</ele>
        <time>2025-11-11T11:26:39Z</time>
      </trkpt>
      <trkpt lat="45.70221" lon="4.64612">
        <ele>579.8</ele>
        <time>2025-11-11T11:26:40Z</time>
      </trkpt>
      <trkpt lat="45.70216" lon="4.64618">
        <ele>579.4</ele>
        <time>2025-11-11T11:26:41Z</time>
      </trkpt>
      <trkpt lat="45.70213" lon="4.64621">
        <ele>579.2</ele>
        <time>2025-11-11T11:26:42Z</time>
      </trkpt>
      <trkpt lat="45.7021" lon="4.64625">
        <ele>578.8</ele>
        <time>2025-11-11T11:26:43Z</time>
      </trkpt>
      <trkpt lat="45.70207" lon="4.64629">
        <ele>578.6</ele>
        <time>2025-11-11T11:26:44Z</time>
      </trkpt>
      <trkpt lat="45.70205" lon="4.64631">
        <ele>578.6</ele>
        <time>2025-11-11T11:26:45Z</time>
      </trkpt>
      <trkpt lat="45.70202" lon="4.64635">
        <ele>578.4</ele>
        <time>2025-11-11T11:26:46Z</time>
      </trkpt>
      <trkpt lat="45.70199" lon="4.64638">
        <ele>578.2</ele>
        <time>2025-11-11T11:26:47Z</time>
      </trkpt>
      <trkpt lat="45.70197" lon="4.64641">
        <ele>577.8</ele>
        <time>2025-11-11T11:26:48Z</time>
      </trkpt>
      <trkpt lat="45.70193" lon="4.64645">
        <ele>577.6</ele>
        <time>2025-11-11T11:26:49Z</time>
      </trkpt>
      <trkpt lat="45.70191" lon="4.64649">
        <ele>577.2</ele>
        <time>2025-11-11T11:26:50Z</time>
      </trkpt>
      <trkpt lat="45.70189" lon="4.64653">
        <ele>577</ele>
        <time>2025-11-11T11:26:51Z</time>
      </trkpt>
      <trkpt lat="45.70186" lon="4.64658">
        <ele>576.8</ele>
        <time>2025-11-11T11:26:52Z</time>
      </trkpt>
      <trkpt lat="45.70184" lon="4.64662">
        <ele>576.4</ele>
        <time>2025-11-11T11:26:53Z</time>
      </trkpt>
      <trkpt lat="45.7018" lon="4.64668">
        <ele>576.2</ele>
        <time>2025-11-11T11:26:54Z</time>
      </trkpt>
      <trkpt lat="45.70178" lon="4.64672">
        <ele>576</ele>
        <time>2025-11-11T11:26:55Z</time>
      </trkpt>
      <trkpt lat="45.70175" lon="4.64676">
        <ele>575.8</ele>
        <time>2025-11-11T11:26:56Z</time>
      </trkpt>
      <trkpt lat="45.70171" lon="4.64681">
        <ele>575.6</ele>
        <time>2025-11-11T11:26:57Z</time>
      </trkpt>
      <trkpt lat="45.70168" lon="4.64686">
        <ele>575.6</ele>
        <time>2025-11-11T11:26:58Z</time>
      </trkpt>
      <trkpt lat="45.70165" lon="4.6469">
        <ele>575.4</ele>
        <time>2025-11-11T11:26:59Z</time>
      </trkpt>
      <trkpt lat="45.70162" lon="4.64695">
        <ele>575.2</ele>
        <time>2025-11-11T11:27:00Z</time>
      </trkpt>
      <trkpt lat="45.70159" lon="4.64701">
        <ele>575</ele>
        <time>2025-11-11T11:27:01Z</time>
      </trkpt>
      <trkpt lat="45.70157" lon="4.64704">
        <ele>574.8</ele>
        <time>2025-11-11T11:27:02Z</time>
      </trkpt>
      <trkpt lat="45.70154" lon="4.64709">
        <ele>574.8</ele>
        <time>2025-11-11T11:27:03Z</time>
      </trkpt>
      <trkpt lat="45.70151" lon="4.64713">
        <ele>574.6</ele>
        <time>2025-11-11T11:27:04Z</time>
      </trkpt>
      <trkpt lat="45.70148" lon="4.64718">
        <ele>574.4</ele>
        <time>2025-11-11T11:27:05Z</time>
      </trkpt>
      <trkpt lat="45.70145" lon="4.64724">
        <ele>574.2</ele>
        <time>2025-11-11T11:27:06Z</time>
      </trkpt>
      <trkpt lat="45.70141" lon="4.64728">
        <ele>574.2</ele>
        <time>2025-11-11T11:27:07Z</time>
      </trkpt>
      <trkpt lat="45.70138" lon="4.64731">
        <ele>574</ele>
        <time>2025-11-11T11:27:08Z</time>
      </trkpt>
      <trkpt lat="45.70135" lon="4.64733">
        <ele>574</ele>
        <time>2025-11-11T11:27:09Z</time>
      </trkpt>
      <trkpt lat="45.70132" lon="4.64736">
        <ele>574</ele>
        <time>2025-11-11T11:27:10Z</time>
      </trkpt>
      <trkpt lat="45.70128" lon="4.64739">
        <ele>573.8</ele>
        <time>2025-11-11T11:27:11Z</time>
      </trkpt>
      <trkpt lat="45.70125" lon="4.64742">
        <ele>573.8</ele>
        <time>2025-11-11T11:27:12Z</time>
      </trkpt>
      <trkpt lat="45.70123" lon="4.64745">
        <ele>573.6</ele>
        <time>2025-11-11T11:27:13Z</time>
      </trkpt>
      <trkpt lat="45.70119" lon="4.64751">
        <ele>573.4</ele>
        <time>2025-11-11T11:27:14Z</time>
      </trkpt>
      <trkpt lat="45.70116" lon="4.64753">
        <ele>573.2</ele>
        <time>2025-11-11T11:27:15Z</time>
      </trkpt>
      <trkpt lat="45.70111" lon="4.64754">
        <ele>572.8</ele>
        <time>2025-11-11T11:27:16Z</time>
      </trkpt>
      <trkpt lat="45.70108" lon="4.64756">
        <ele>572.6</ele>
        <time>2025-11-11T11:27:17Z</time>
      </trkpt>
      <trkpt lat="45.70105" lon="4.64758">
        <ele>572.2</ele>
        <time>2025-11-11T11:27:18Z</time>
      </trkpt>
      <trkpt lat="45.70101" lon="4.64761">
        <ele>572</ele>
        <time>2025-11-11T11:27:19Z</time>
      </trkpt>
      <trkpt lat="45.70099" lon="4.64764">
        <ele>571.8</ele>
        <time>2025-11-11T11:27:20Z</time>
      </trkpt>
      <trkpt lat="45.70097" lon="4.64767">
        <ele>571.6</ele>
        <time>2025-11-11T11:27:21Z</time>
      </trkpt>
      <trkpt lat="45.70094" lon="4.6477">
        <ele>571.4</ele>
        <time>2025-11-11T11:27:22Z</time>
      </trkpt>
      <trkpt lat="45.70092" lon="4.64773">
        <ele>571.2</ele>
        <time>2025-11-11T11:27:23Z</time>
      </trkpt>
      <trkpt lat="45.7009" lon="4.64775">
        <ele>571</ele>
        <time>2025-11-11T11:27:24Z</time>
      </trkpt>
      <trkpt lat="45.70086" lon="4.64777">
        <ele>570.6</ele>
        <time>2025-11-11T11:27:25Z</time>
      </trkpt>
      <trkpt lat="45.70083" lon="4.64779">
        <ele>570.4</ele>
        <time>2025-11-11T11:27:26Z</time>
      </trkpt>
      <trkpt lat="45.70079" lon="4.64781">
        <ele>570</ele>
        <time>2025-11-11T11:27:27Z</time>
      </trkpt>
      <trkpt lat="45.70075" lon="4.64783">
        <ele>569.6</ele>
        <time>2025-11-11T11:27:28Z</time>
      </trkpt>
      <trkpt lat="45.70072" lon="4.64783">
        <ele>569.2</ele>
        <time>2025-11-11T11:27:29Z</time>
      </trkpt>
      <trkpt lat="45.70069" lon="4.64785">
        <ele>568.8</ele>
        <time>2025-11-11T11:27:30Z</time>
      </trkpt>
      <trkpt lat="45.70066" lon="4.64787">
        <ele>568.4</ele>
        <time>2025-11-11T11:27:31Z</time>
      </trkpt>
      <trkpt lat="45.70062" lon="4.6479">
        <ele>567.8</ele>
        <time>2025-11-11T11:27:32Z</time>
      </trkpt>
      <trkpt lat="45.70059" lon="4.64794">
        <ele>567.2</ele>
        <time>2025-11-11T11:27:33Z</time>
      </trkpt>
      <trkpt lat="45.70056" lon="4.64797">
        <ele>566.6</ele>
        <time>2025-11-11T11:27:34Z</time>
      </trkpt>
      <trkpt lat="45.70054" lon="4.64802">
        <ele>566</ele>
        <time>2025-11-11T11:27:35Z</time>
      </trkpt>
      <trkpt lat="45.70052" lon="4.64805">
        <ele>565.2</ele>
        <time>2025-11-11T11:27:36Z</time>
      </trkpt>
      <trkpt lat="45.70049" lon="4.64808">
        <ele>564.6</ele>
        <time>2025-11-11T11:27:37Z</time>
      </trkpt>
      <trkpt lat="45.70046" lon="4.6481">
        <ele>564</ele>
        <time>2025-11-11T11:27:38Z</time>
      </trkpt>
      <trkpt lat="45.70043" lon="4.64813">
        <ele>563.4</ele>
        <time>2025-11-11T11:27:39Z</time>
      </trkpt>
      <trkpt lat="45.70041" lon="4.64815">
        <ele>562.8</ele>
        <time>2025-11-11T11:27:40Z</time>
      </trkpt>
      <trkpt lat="45.70039" lon="4.64819">
        <ele>562.2</ele>
        <time>2025-11-11T11:27:41Z</time>
      </trkpt>
      <trkpt lat="45.70035" lon="4.64824">
        <ele>561.4</ele>
        <time>2025-11-11T11:27:42Z</time>
      </trkpt>
      <trkpt lat="45.70032" lon="4.64828">
        <ele>560.6</ele>
        <time>2025-11-11T11:27:43Z</time>
      </trkpt>
      <trkpt lat="45.70028" lon="4.64834">
        <ele>559.6</ele>
        <time>2025-11-11T11:27:44Z</time>
      </trkpt>
      <trkpt lat="45.70024" lon="4.6484">
        <ele>558.6</ele>
        <time>2025-11-11T11:27:45Z</time>
      </trkpt>
      <trkpt lat="45.70019" lon="4.64846">
        <ele>557.6</ele>
        <time>2025-11-11T11:27:46Z</time>
      </trkpt>
      <trkpt lat="45.70016" lon="4.6485">
        <ele>556.8</ele>
        <time>2025-11-11T11:27:47Z</time>
      </trkpt>
      <trkpt lat="45.70013" lon="4.64854">
        <ele>556.4</ele>
        <time>2025-11-11T11:27:48Z</time>
      </trkpt>
      <trkpt lat="45.7001" lon="4.64859">
        <ele>556</ele>
        <time>2025-11-11T11:27:49Z</time>
      </trkpt>
      <trkpt lat="45.70006" lon="4.64863">
        <ele>555.6</ele>
        <time>2025-11-11T11:27:50Z</time>
      </trkpt>
      <trkpt lat="45.70004" lon="4.64866">
        <ele>555</ele>
        <time>2025-11-11T11:27:51Z</time>
      </trkpt>
      <trkpt lat="45.69999" lon="4.6487">
        <ele>554.4</ele>
        <time>2025-11-11T11:27:52Z</time>
      </trkpt>
      <trkpt lat="45.69996" lon="4.64872">
        <ele>553.8</ele>
        <time>2025-11-11T11:27:53Z</time>
      </trkpt>
      <trkpt lat="45.69994" lon="4.64874">
        <ele>553.4</ele>
        <time>2025-11-11T11:27:54Z</time>
      </trkpt>
      <trkpt lat="45.69992" lon="4.64876">
        <ele>553</ele>
        <time>2025-11-11T11:27:55Z</time>
      </trkpt>
      <trkpt lat="45.69989" lon="4.64878">
        <ele>552.8</ele>
        <time>2025-11-11T11:27:56Z</time>
      </trkpt>
      <trkpt lat="45.69986" lon="4.6488">
        <ele>552.4</ele>
        <time>2025-11-11T11:27:57Z</time>
      </trkpt>
      <trkpt lat="45.69983" lon="4.64884">
        <ele>552.2</ele>
        <time>2025-11-11T11:27:58Z</time>
      </trkpt>
      <trkpt lat="45.69979" lon="4.64888">
        <ele>551.6</ele>
        <time>2025-11-11T11:27:59Z</time>
      </trkpt>
      <trkpt lat="45.69976" lon="4.64891">
        <ele>551.2</ele>
        <time>2025-11-11T11:28:00Z</time>
      </trkpt>
      <trkpt lat="45.69973" lon="4.64896">
        <ele>550.6</ele>
        <time>2025-11-11T11:28:01Z</time>
      </trkpt>
      <trkpt lat="45.6997" lon="4.649">
        <ele>550</ele>
        <time>2025-11-11T11:28:02Z</time>
      </trkpt>
      <trkpt lat="45.69967" lon="4.64903">
        <ele>549.6</ele>
        <time>2025-11-11T11:28:03Z</time>
      </trkpt>
      <trkpt lat="45.69963" lon="4.64906">
        <ele>549</ele>
        <time>2025-11-11T11:28:04Z</time>
      </trkpt>
      <trkpt lat="45.69959" lon="4.64908">
        <ele>548.4</ele>
        <time>2025-11-11T11:28:05Z</time>
      </trkpt>
      <trkpt lat="45.69957" lon="4.64909">
        <ele>548.2</ele>
        <time>2025-11-11T11:28:06Z</time>
      </trkpt>
      <trkpt lat="45.69956" lon="4.64908">
        <ele>548</ele>
        <time>2025-11-11T11:28:07Z</time>
      </trkpt>
      <trkpt lat="45.69954" lon="4.64908">
        <ele>547.8</ele>
        <time>2025-11-11T11:28:08Z</time>
      </trkpt>
      <trkpt lat="45.69952" lon="4.64909">
        <ele>547.8</ele>
        <time>2025-11-11T11:28:09Z</time>
      </trkpt>
      <trkpt lat="45.6995" lon="4.6491">
        <ele>547.6</ele>
        <time>2025-11-11T11:28:10Z</time>
      </trkpt>
      <trkpt lat="45.69947" lon="4.64912">
        <ele>547.4</ele>
        <time>2025-11-11T11:28:11Z</time>
      </trkpt>
      <trkpt lat="45.69945" lon="4.64914">
        <ele>547</ele>
        <time>2025-11-11T11:28:12Z</time>
      </trkpt>
      <trkpt lat="45.69942" lon="4.64916">
        <ele>546.6</ele>
        <time>2025-11-11T11:28:13Z</time>
      </trkpt>
      <trkpt lat="45.6994" lon="4.64919">
        <ele>546.4</ele>
        <time>2025-11-11T11:28:14Z</time>
      </trkpt>
      <trkpt lat="45.69937" lon="4.64923">
        <ele>545.8</ele>
        <time>2025-11-11T11:28:15Z</time>
      </trkpt>
      <trkpt lat="45.69935" lon="4.64925">
        <ele>545.6</ele>
        <time>2025-11-11T11:28:16Z</time>
      </trkpt>
      <trkpt lat="45.69933" lon="4.64928">
        <ele>545.2</ele>
        <time>2025-11-11T11:28:17Z</time>
      </trkpt>
      <trkpt lat="45.6993" lon="4.64931">
        <ele>544.8</ele>
        <time>2025-11-11T11:28:18Z</time>
      </trkpt>
      <trkpt lat="45.69928" lon="4.64934">
        <ele>544.4</ele>
        <time>2025-11-11T11:28:19Z</time>
      </trkpt>
      <trkpt lat="45.69926" lon="4.64939">
        <ele>544</ele>
        <time>2025-11-11T11:28:20Z</time>
      </trkpt>
      <trkpt lat="45.69923" lon="4.64943">
        <ele>543.4</ele>
        <time>2025-11-11T11:28:21Z</time>
      </trkpt>
      <trkpt lat="45.6992" lon="4.64946">
        <ele>542.6</ele>
        <time>2025-11-11T11:28:22Z</time>
      </trkpt>
      <trkpt lat="45.69916" lon="4.64949">
        <ele>542</ele>
        <time>2025-11-11T11:28:23Z</time>
      </trkpt>
      <trkpt lat="45.69911" lon="4.64951">
        <ele>541.2</ele>
        <time>2025-11-11T11:28:24Z</time>
      </trkpt>
      <trkpt lat="45.69905" lon="4.64951">
        <ele>540.4</ele>
        <time>2025-11-11T11:28:25Z</time>
      </trkpt>
      <trkpt lat="45.69902" lon="4.6495">
        <ele>539.8</ele>
        <time>2025-11-11T11:28:26Z</time>
      </trkpt>
      <trkpt lat="45.69899" lon="4.64949">
        <ele>539.6</ele>
        <time>2025-11-11T11:28:27Z</time>
      </trkpt>
      <trkpt lat="45.69897" lon="4.64947">
        <ele>539.2</ele>
        <time>2025-11-11T11:28:28Z</time>
      </trkpt>
      <trkpt lat="45.69895" lon="4.64945">
        <ele>539</ele>
        <time>2025-11-11T11:28:29Z</time>
      </trkpt>
      <trkpt lat="45.69894" lon="4.64944">
        <ele>538.6</ele>
        <time>2025-11-11T11:28:30Z</time>
      </trkpt>
      <trkpt lat="45.69894" lon="4.64944">
        <ele>538.4</ele>
        <time>2025-11-11T11:28:31Z</time>
      </trkpt>
      <trkpt lat="45.69893" lon="4.64944">
        <ele>538.2</ele>
        <time>2025-11-11T11:28:32Z</time>
      </trkpt>
      <trkpt lat="45.69893" lon="4.64944">
        <ele>538</ele>
        <time>2025-11-11T11:28:33Z</time>
      </trkpt>
      <trkpt lat="45.69893" lon="4.64944">
        <ele>537.8</ele>
        <time>2025-11-11T11:28:34Z</time>
      </trkpt>
      <trkpt lat="45.69893" lon="4.64944">
        <ele>537.8</ele>
        <time>2025-11-11T11:28:35Z</time>
      </trkpt>
      <trkpt lat="45.69893" lon="4.64944">
        <ele>537.6</ele>
        <time>2025-11-11T11:28:36Z</time>
      </trkpt>
      <trkpt lat="45.69893" lon="4.64944">
        <ele>537.6</ele>
        <time>2025-11-11T11:28:37Z</time>
      </trkpt>
      <trkpt lat="45.69893" lon="4.64944">
        <ele>537.6</ele>
        <time>2025-11-11T11:28:38Z</time>
      </trkpt>
      <trkpt lat="45.69893" lon="4.64944">
        <ele>537.6</ele>
        <time>2025-11-11T11:28:39Z</time>
      </trkpt>
      <trkpt lat="45.69893" lon="4.64944">
        <ele>537.6</ele>
        <time>2025-11-11T11:28:40Z</time>
      </trkpt>
      <trkpt lat="45.69893" lon="4.64944">
        <ele>537.6</ele>
        <time>2025-11-11T11:28:41Z</time>
      </trkpt>
      <trkpt lat="45.69893" lon="4.64944">
        <ele>537.6</ele>
        <time>2025-11-11T11:28:42Z</time>
      </trkpt>
      <trkpt lat="45.69893" lon="4.64944">
        <ele>537.6</ele>
        <time>2025-11-11T11:28:43Z</time>
      </trkpt>
      <trkpt lat="45.69893" lon="4.64944">
        <ele>537.4</ele>
        <time>2025-11-11T11:28:44Z</time>
      </trkpt>
      <trkpt lat="45.69893" lon="4.64944">
        <ele>537.4</ele>
        <time>2025-11-11T11:28:45Z</time>
      </trkpt>
      <trkpt lat="45.69893" lon="4.64944">
        <ele>537.4</ele>
        <time>2025-11-11T11:28:46Z</time>
      </trkpt>
      <trkpt lat="45.69893" lon="4.64944">
        <ele>537.4</ele>
        <time>2025-11-11T11:28:47Z</time>
      </trkpt>
      <trkpt lat="45.69893" lon="4.64944">
        <ele>537.4</ele>
        <time>2025-11-11T11:28:48Z</time>
      </trkpt>
      <trkpt lat="45.69893" lon="4.64944">
        <ele>537.4</ele>
        <time>2025-11-11T11:28:49Z</time>
      </trkpt>
      <trkpt lat="45.69893" lon="4.64944">
        <ele>537.4</ele>
        <time>2025-11-11T11:28:50Z</time>
      </trkpt>
      <trkpt lat="45.69893" lon="4.64944">
        <ele>537.4</ele>
        <time>2025-11-11T11:28:51Z</time>
      </trkpt>
      <trkpt lat="45.69893" lon="4.64944">
        <ele>537.4</ele>
        <time>2025-11-11T11:28:52Z</time>
      </trkpt>
      <trkpt lat="45.69893" lon="4.64944">
        <ele>537.4</ele>
        <time>2025-11-11T11:28:53Z</time>
      </trkpt>
      <trkpt lat="45.69893" lon="4.64944">
        <ele>537.4</ele>
        <time>2025-11-11T11:28:54Z</time>
      </trkpt>
      <trkpt lat="45.69893" lon="4.64944">
        <ele>537.4</ele>
        <time>2025-11-11T11:28:55Z</time>
      </trkpt>
      <trkpt lat="45.69893" lon="4.64944">
        <ele>537.4</ele>
        <time>2025-11-11T11:28:56Z</time>
      </trkpt>
      <trkpt lat="45.69893" lon="4.64944">
        <ele>537.4</ele>
        <time>2025-11-11T11:28:57Z</time>
      </trkpt>
      <trkpt lat="45.69893" lon="4.64944">
        <ele>537.4</ele>
        <time>2025-11-11T11:28:58Z</time>
      </trkpt>
      <trkpt lat="45.69893" lon="4.64944">
        <ele>537.4</ele>
        <time>2025-11-11T11:28:59Z</time>
      </trkpt>
      <trkpt lat="45.69892" lon="4.64944">
        <ele>537.4</ele>
        <time>2025-11-11T11:29:00Z</time>
      </trkpt>
      <trkpt lat="45.69892" lon="4.64944">
        <ele>537.4</ele>
        <time>2025-11-11T11:29:01Z</time>
      </trkpt>
      <trkpt lat="45.69892" lon="4.64944">
        <ele>537.4</ele>
        <time>2025-11-11T11:29:02Z</time>
      </trkpt>
      <trkpt lat="45.69892" lon="4.64944">
        <ele>537.4</ele>
        <time>2025-11-11T11:29:03Z</time>
      </trkpt>
      <trkpt lat="45.69892" lon="4.64944">
        <ele>537.4</ele>
        <time>2025-11-11T11:29:04Z</time>
      </trkpt>
      <trkpt lat="45.69892" lon="4.64944">
        <ele>537.2</ele>
        <time>2025-11-11T11:29:05Z</time>
      </trkpt>
      <trkpt lat="45.69892" lon="4.64944">
        <ele>537.2</ele>
        <time>2025-11-11T11:29:06Z</time>
      </trkpt>
      <trkpt lat="45.69892" lon="4.64944">
        <ele>537.2</ele>
        <time>2025-11-11T11:29:07Z</time>
      </trkpt>
      <trkpt lat="45.69892" lon="4.64944">
        <ele>537.2</ele>
        <time>2025-11-11T11:29:08Z</time>
      </trkpt>
      <trkpt lat="45.69892" lon="4.64944">
        <ele>537.2</ele>
        <time>2025-11-11T11:29:09Z</time>
      </trkpt>
      <trkpt lat="45.69892" lon="4.64943">
        <ele>537.2</ele>
        <time>2025-11-11T11:29:10Z</time>
      </trkpt>
      <trkpt lat="45.69891" lon="4.64942">
        <ele>537</ele>
        <time>2025-11-11T11:29:11Z</time>
      </trkpt>
      <trkpt lat="45.6989" lon="4.64942">
        <ele>537</ele>
        <time>2025-11-11T11:29:12Z</time>
      </trkpt>
      <trkpt lat="45.69888" lon="4.64941">
        <ele>536.8</ele>
        <time>2025-11-11T11:29:13Z</time>
      </trkpt>
      <trkpt lat="45.69886" lon="4.6494">
        <ele>536.6</ele>
        <time>2025-11-11T11:29:14Z</time>
      </trkpt>
      <trkpt lat="45.69885" lon="4.6494">
        <ele>536.4</ele>
        <time>2025-11-11T11:29:15Z</time>
      </trkpt>
      <trkpt lat="45.69883" lon="4.6494">
        <ele>536.2</ele>
        <time>2025-11-11T11:29:16Z</time>
      </trkpt>
      <trkpt lat="45.69882" lon="4.6494">
        <ele>536</ele>
        <time>2025-11-11T11:29:17Z</time>
      </trkpt>
      <trkpt lat="45.6988" lon="4.6494">
        <ele>535.8</ele>
        <time>2025-11-11T11:29:18Z</time>
      </trkpt>
      <trkpt lat="45.69878" lon="4.64942">
        <ele>535.4</ele>
        <time>2025-11-11T11:29:19Z</time>
      </trkpt>
      <trkpt lat="45.69875" lon="4.64946">
        <ele>534.8</ele>
        <time>2025-11-11T11:29:20Z</time>
      </trkpt>
      <trkpt lat="45.69873" lon="4.64948">
        <ele>534.4</ele>
        <time>2025-11-11T11:29:21Z</time>
      </trkpt>
      <trkpt lat="45.69871" lon="4.64951">
        <ele>533.8</ele>
        <time>2025-11-11T11:29:22Z</time>
      </trkpt>
      <trkpt lat="45.69869" lon="4.64954">
        <ele>533.4</ele>
        <time>2025-11-11T11:29:23Z</time>
      </trkpt>
      <trkpt lat="45.69866" lon="4.64956">
        <ele>532.8</ele>
        <time>2025-11-11T11:29:24Z</time>
      </trkpt>
      <trkpt lat="45.69863" lon="4.64957">
        <ele>532.4</ele>
        <time>2025-11-11T11:29:25Z</time>
      </trkpt>
      <trkpt lat="45.6986" lon="4.64957">
        <ele>532</ele>
        <time>2025-11-11T11:29:26Z</time>
      </trkpt>
      <trkpt lat="45.69857" lon="4.64957">
        <ele>531.6</ele>
        <time>2025-11-11T11:29:27Z</time>
      </trkpt>
      <trkpt lat="45.69855" lon="4.64959">
        <ele>531</ele>
        <time>2025-11-11T11:29:28Z</time>
      </trkpt>
      <trkpt lat="45.69852" lon="4.64962">
        <ele>530.6</ele>
        <time>2025-11-11T11:29:29Z</time>
      </trkpt>
      <trkpt lat="45.69851" lon="4.64965">
        <ele>530</ele>
        <time>2025-11-11T11:29:30Z</time>
      </trkpt>
      <trkpt lat="45.69849" lon="4.64967">
        <ele>529.6</ele>
        <time>2025-11-11T11:29:31Z</time>
      </trkpt>
      <trkpt lat="45.69847" lon="4.64968">
        <ele>529</ele>
        <time>2025-11-11T11:29:32Z</time>
      </trkpt>
      <trkpt lat="45.69846" lon="4.64969">
        <ele>528.8</ele>
        <time>2025-11-11T11:29:33Z</time>
      </trkpt>
      <trkpt lat="45.69844" lon="4.64971">
        <ele>528.4</ele>
        <time>2025-11-11T11:29:34Z</time>
      </trkpt>
      <trkpt lat="45.69842" lon="4.64972">
        <ele>528.2</ele>
        <time>2025-11-11T11:29:35Z</time>
      </trkpt>
      <trkpt lat="45.69839" lon="4.64975">
        <ele>527.8</ele>
        <time>2025-11-11T11:29:36Z</time>
      </trkpt>
      <trkpt lat="45.69835" lon="4.64978">
        <ele>527.2</ele>
        <time>2025-11-11T11:29:37Z</time>
      </trkpt>
      <trkpt lat="45.69831" lon="4.6498">
        <ele>526.6</ele>
        <time>2025-11-11T11:29:38Z</time>
      </trkpt>
      <trkpt lat="45.69829" lon="4.64983">
        <ele>526.2</ele>
        <time>2025-11-11T11:29:39Z</time>
      </trkpt>
      <trkpt lat="45.69827" lon="4.64986">
        <ele>525.6</ele>
        <time>2025-11-11T11:29:40Z</time>
      </trkpt>
      <trkpt lat="45.69824" lon="4.64989">
        <ele>525.2</ele>
        <time>2025-11-11T11:29:41Z</time>
      </trkpt>
      <trkpt lat="45.69821" lon="4.64992">
        <ele>524.8</ele>
        <time>2025-11-11T11:29:42Z</time>
      </trkpt>
      <trkpt lat="45.69818" lon="4.64995">
        <ele>524.6</ele>
        <time>2025-11-11T11:29:43Z</time>
      </trkpt>
      <trkpt lat="45.69816" lon="4.64998">
        <ele>524.2</ele>
        <time>2025-11-11T11:29:44Z</time>
      </trkpt>
      <trkpt lat="45.69814" lon="4.65001">
        <ele>523.8</ele>
        <time>2025-11-11T11:29:45Z</time>
      </trkpt>
      <trkpt lat="45.69811" lon="4.65005">
        <ele>523.4</ele>
        <time>2025-11-11T11:29:46Z</time>
      </trkpt>
      <trkpt lat="45.69809" lon="4.65009">
        <ele>523</ele>
        <time>2025-11-11T11:29:47Z</time>
      </trkpt>
      <trkpt lat="45.69807" lon="4.65011">
        <ele>522.6</ele>
        <time>2025-11-11T11:29:48Z</time>
      </trkpt>
      <trkpt lat="45.69804" lon="4.65014">
        <ele>522.2</ele>
        <time>2025-11-11T11:29:49Z</time>
      </trkpt>
      <trkpt lat="45.69802" lon="4.65018">
        <ele>522</ele>
        <time>2025-11-11T11:29:50Z</time>
      </trkpt>
      <trkpt lat="45.698" lon="4.65021">
        <ele>521.8</ele>
        <time>2025-11-11T11:29:51Z</time>
      </trkpt>
      <trkpt lat="45.69797" lon="4.65024">
        <ele>521.6</ele>
        <time>2025-11-11T11:29:52Z</time>
      </trkpt>
      <trkpt lat="45.69795" lon="4.65027">
        <ele>521.2</ele>
        <time>2025-11-11T11:29:53Z</time>
      </trkpt>
      <trkpt lat="45.69791" lon="4.65032">
        <ele>520.8</ele>
        <time>2025-11-11T11:29:54Z</time>
      </trkpt>
      <trkpt lat="45.69788" lon="4.65037">
        <ele>520.4</ele>
        <time>2025-11-11T11:29:55Z</time>
      </trkpt>
      <trkpt lat="45.69784" lon="4.65041">
        <ele>520.2</ele>
        <time>2025-11-11T11:29:56Z</time>
      </trkpt>
      <trkpt lat="45.69782" lon="4.65045">
        <ele>519.8</ele>
        <time>2025-11-11T11:29:57Z</time>
      </trkpt>
      <trkpt lat="45.69777" lon="4.6505">
        <ele>519.4</ele>
        <time>2025-11-11T11:29:58Z</time>
      </trkpt>
      <trkpt lat="45.69774" lon="4.65055">
        <ele>519</ele>
        <time>2025-11-11T11:29:59Z</time>
      </trkpt>
      <trkpt lat="45.69772" lon="4.6506">
        <ele>518.8</ele>
        <time>2025-11-11T11:30:00Z</time>
      </trkpt>
      <trkpt lat="45.69772" lon="4.65062">
        <ele>518.6</ele>
        <time>2025-11-11T11:30:01Z</time>
      </trkpt>
      <trkpt lat="45.69771" lon="4.65064">
        <ele>518.4</ele>
        <time>2025-11-11T11:30:02Z</time>
      </trkpt>
      <trkpt lat="45.69771" lon="4.65065">
        <ele>518.4</ele>
        <time>2025-11-11T11:30:03Z</time>
      </trkpt>
      <trkpt lat="45.69772" lon="4.65066">
        <ele>518.4</ele>
        <time>2025-11-11T11:30:04Z</time>
      </trkpt>
      <trkpt lat="45.69773" lon="4.65067">
        <ele>518.4</ele>
        <time>2025-11-11T11:30:05Z</time>
      </trkpt>
      <trkpt lat="45.69774" lon="4.65067">
        <ele>518.6</ele>
        <time>2025-11-11T11:30:06Z</time>
      </trkpt>
      <trkpt lat="45.69775" lon="4.65067">
        <ele>518.6</ele>
        <time>2025-11-11T11:30:07Z</time>
      </trkpt>
      <trkpt lat="45.69778" lon="4.65067">
        <ele>518.6</ele>
        <time>2025-11-11T11:30:08Z</time>
      </trkpt>
      <trkpt lat="45.6978" lon="4.65067">
        <ele>518.6</ele>
        <time>2025-11-11T11:30:09Z</time>
      </trkpt>
      <trkpt lat="45.69782" lon="4.65067">
        <ele>518.6</ele>
        <time>2025-11-11T11:30:10Z</time>
      </trkpt>
      <trkpt lat="45.69784" lon="4.65067">
        <ele>518.6</ele>
        <time>2025-11-11T11:30:11Z</time>
      </trkpt>
      <trkpt lat="45.69787" lon="4.65068">
        <ele>518.6</ele>
        <time>2025-11-11T11:30:12Z</time>
      </trkpt>
      <trkpt lat="45.6979" lon="4.65068">
        <ele>518.8</ele>
        <time>2025-11-11T11:30:13Z</time>
      </trkpt>
      <trkpt lat="45.69792" lon="4.65068">
        <ele>518.8</ele>
        <time>2025-11-11T11:30:14Z</time>
      </trkpt>
      <trkpt lat="45.69794" lon="4.65068">
        <ele>519</ele>
        <time>2025-11-11T11:30:15Z</time>
      </trkpt>
      <trkpt lat="45.69795" lon="4.65069">
        <ele>519</ele>
        <time>2025-11-11T11:30:16Z</time>
      </trkpt>
      <trkpt lat="45.69798" lon="4.65068">
        <ele>519.2</ele>
        <time>2025-11-11T11:30:17Z</time>
      </trkpt>
      <trkpt lat="45.69801" lon="4.65069">
        <ele>519.2</ele>
        <time>2025-11-11T11:30:18Z</time>
      </trkpt>
      <trkpt lat="45.69803" lon="4.65069">
        <ele>519.4</ele>
        <time>2025-11-11T11:30:19Z</time>
      </trkpt>
      <trkpt lat="45.69806" lon="4.65069">
        <ele>519.4</ele>
        <time>2025-11-11T11:30:20Z</time>
      </trkpt>
      <trkpt lat="45.69809" lon="4.65068">
        <ele>519.6</ele>
        <time>2025-11-11T11:30:21Z</time>
      </trkpt>
      <trkpt lat="45.69812" lon="4.65068">
        <ele>519.6</ele>
        <time>2025-11-11T11:30:22Z</time>
      </trkpt>
      <trkpt lat="45.69815" lon="4.65068">
        <ele>519.6</ele>
        <time>2025-11-11T11:30:23Z</time>
      </trkpt>
      <trkpt lat="45.69817" lon="4.65068">
        <ele>519.6</ele>
        <time>2025-11-11T11:30:24Z</time>
      </trkpt>
      <trkpt lat="45.6982" lon="4.65068">
        <ele>519.6</ele>
        <time>2025-11-11T11:30:25Z</time>
      </trkpt>
      <trkpt lat="45.69823" lon="4.65067">
        <ele>519.6</ele>
        <time>2025-11-11T11:30:26Z</time>
      </trkpt>
      <trkpt lat="45.69826" lon="4.65067">
        <ele>519.6</ele>
        <time>2025-11-11T11:30:27Z</time>
      </trkpt>
      <trkpt lat="45.6983" lon="4.65068">
        <ele>519.8</ele>
        <time>2025-11-11T11:30:28Z</time>
      </trkpt>
      <trkpt lat="45.69835" lon="4.65068">
        <ele>519.8</ele>
        <time>2025-11-11T11:30:29Z</time>
      </trkpt>
      <trkpt lat="45.69839" lon="4.65067">
        <ele>519.8</ele>
        <time>2025-11-11T11:30:30Z</time>
      </trkpt>
      <trkpt lat="45.69844" lon="4.65068">
        <ele>519.6</ele>
        <time>2025-11-11T11:30:31Z</time>
      </trkpt>
      <trkpt lat="45.69847" lon="4.65069">
        <ele>519.6</ele>
        <time>2025-11-11T11:30:32Z</time>
      </trkpt>
      <trkpt lat="45.69853" lon="4.65069">
        <ele>519.4</ele>
        <time>2025-11-11T11:30:33Z</time>
      </trkpt>
      <trkpt lat="45.69858" lon="4.65069">
        <ele>519.2</ele>
        <time>2025-11-11T11:30:34Z</time>
      </trkpt>
      <trkpt lat="45.69865" lon="4.65069">
        <ele>519.2</ele>
        <time>2025-11-11T11:30:35Z</time>
      </trkpt>
      <trkpt lat="45.6987" lon="4.6507">
        <ele>519.2</ele>
        <time>2025-11-11T11:30:36Z</time>
      </trkpt>
      <trkpt lat="45.69877" lon="4.65071">
        <ele>519.2</ele>
        <time>2025-11-11T11:30:37Z</time>
      </trkpt>
      <trkpt lat="45.69883" lon="4.65071">
        <ele>519</ele>
        <time>2025-11-11T11:30:38Z</time>
      </trkpt>
      <trkpt lat="45.69892" lon="4.65071">
        <ele>518.8</ele>
        <time>2025-11-11T11:30:39Z</time>
      </trkpt>
      <trkpt lat="45.69899" lon="4.65071">
        <ele>518.6</ele>
        <time>2025-11-11T11:30:40Z</time>
      </trkpt>
      <trkpt lat="45.69905" lon="4.65071">
        <ele>518.2</ele>
        <time>2025-11-11T11:30:41Z</time>
      </trkpt>
      <trkpt lat="45.69913" lon="4.65071">
        <ele>518</ele>
        <time>2025-11-11T11:30:42Z</time>
      </trkpt>
      <trkpt lat="45.69921" lon="4.65071">
        <ele>518</ele>
        <time>2025-11-11T11:30:43Z</time>
      </trkpt>
      <trkpt lat="45.69928" lon="4.65072">
        <ele>517.8</ele>
        <time>2025-11-11T11:30:44Z</time>
      </trkpt>
      <trkpt lat="45.69934" lon="4.65072">
        <ele>517.8</ele>
        <time>2025-11-11T11:30:45Z</time>
      </trkpt>
      <trkpt lat="45.69941" lon="4.65073">
        <ele>517.8</ele>
        <time>2025-11-11T11:30:46Z</time>
      </trkpt>
      <trkpt lat="45.69946" lon="4.65074">
        <ele>517.8</ele>
        <time>2025-11-11T11:30:47Z</time>
      </trkpt>
      <trkpt lat="45.69952" lon="4.65076">
        <ele>517.8</ele>
        <time>2025-11-11T11:30:48Z</time>
      </trkpt>
      <trkpt lat="45.69959" lon="4.65075">
        <ele>517.8</ele>
        <time>2025-11-11T11:30:49Z</time>
      </trkpt>
      <trkpt lat="45.69965" lon="4.65076">
        <ele>517.8</ele>
        <time>2025-11-11T11:30:50Z</time>
      </trkpt>
      <trkpt lat="45.69971" lon="4.65077">
        <ele>517.8</ele>
        <time>2025-11-11T11:30:51Z</time>
      </trkpt>
      <trkpt lat="45.69976" lon="4.65076">
        <ele>518</ele>
        <time>2025-11-11T11:30:52Z</time>
      </trkpt>
      <trkpt lat="45.69982" lon="4.65074">
        <ele>518</ele>
        <time>2025-11-11T11:30:53Z</time>
      </trkpt>
      <trkpt lat="45.69988" lon="4.65074">
        <ele>518.2</ele>
        <time>2025-11-11T11:30:54Z</time>
      </trkpt>
      <trkpt lat="45.69992" lon="4.65075">
        <ele>518.2</ele>
        <time>2025-11-11T11:30:55Z</time>
      </trkpt>
      <trkpt lat="45.69997" lon="4.65075">
        <ele>518.4</ele>
        <time>2025-11-11T11:30:56Z</time>
      </trkpt>
      <trkpt lat="45.70005" lon="4.65075">
        <ele>518.2</ele>
        <time>2025-11-11T11:30:57Z</time>
      </trkpt>
      <trkpt lat="45.70013" lon="4.65075">
        <ele>518.2</ele>
        <time>2025-11-11T11:30:58Z</time>
      </trkpt>
      <trkpt lat="45.70017" lon="4.65076">
        <ele>518</ele>
        <time>2025-11-11T11:30:59Z</time>
      </trkpt>
      <trkpt lat="45.70023" lon="4.65078">
        <ele>517.8</ele>
        <time>2025-11-11T11:31:00Z</time>
      </trkpt>
      <trkpt lat="45.70029" lon="4.65078">
        <ele>517.4</ele>
        <time>2025-11-11T11:31:01Z</time>
      </trkpt>
      <trkpt lat="45.70034" lon="4.65077">
        <ele>517</ele>
        <time>2025-11-11T11:31:02Z</time>
      </trkpt>
      <trkpt lat="45.70042" lon="4.65076">
        <ele>516.8</ele>
        <time>2025-11-11T11:31:03Z</time>
      </trkpt>
      <trkpt lat="45.70048" lon="4.65074">
        <ele>516.2</ele>
        <time>2025-11-11T11:31:04Z</time>
      </trkpt>
      <trkpt lat="45.70056" lon="4.65072">
        <ele>515.8</ele>
        <time>2025-11-11T11:31:05Z</time>
      </trkpt>
      <trkpt lat="45.70065" lon="4.65074">
        <ele>515.2</ele>
        <time>2025-11-11T11:31:06Z</time>
      </trkpt>
      <trkpt lat="45.70073" lon="4.65073">
        <ele>514.6</ele>
        <time>2025-11-11T11:31:07Z</time>
      </trkpt>
      <trkpt lat="45.70082" lon="4.6507">
        <ele>514</ele>
        <time>2025-11-11T11:31:08Z</time>
      </trkpt>
      <trkpt lat="45.70087" lon="4.65067">
        <ele>513.4</ele>
        <time>2025-11-11T11:31:09Z</time>
      </trkpt>
      <trkpt lat="45.70097" lon="4.65063">
        <ele>512.8</ele>
        <time>2025-11-11T11:31:10Z</time>
      </trkpt>
      <trkpt lat="45.70103" lon="4.6506">
        <ele>512.6</ele>
        <time>2025-11-11T11:31:11Z</time>
      </trkpt>
      <trkpt lat="45.70108" lon="4.65055">
        <ele>512.6</ele>
        <time>2025-11-11T11:31:12Z</time>
      </trkpt>
      <trkpt lat="45.70112" lon="4.65049">
        <ele>512.6</ele>
        <time>2025-11-11T11:31:13Z</time>
      </trkpt>
      <trkpt lat="45.70116" lon="4.65043">
        <ele>512.8</ele>
        <time>2025-11-11T11:31:14Z</time>
      </trkpt>
      <trkpt lat="45.7012" lon="4.65038">
        <ele>513.2</ele>
        <time>2025-11-11T11:31:15Z</time>
      </trkpt>
      <trkpt lat="45.70125" lon="4.65034">
        <ele>513.6</ele>
        <time>2025-11-11T11:31:16Z</time>
      </trkpt>
      <trkpt lat="45.70129" lon="4.65029">
        <ele>514</ele>
        <time>2025-11-11T11:31:17Z</time>
      </trkpt>
      <trkpt lat="45.70133" lon="4.65026">
        <ele>514.2</ele>
        <time>2025-11-11T11:31:18Z</time>
      </trkpt>
      <trkpt lat="45.70138" lon="4.65022">
        <ele>514.6</ele>
        <time>2025-11-11T11:31:19Z</time>
      </trkpt>
      <trkpt lat="45.70143" lon="4.65016">
        <ele>514.8</ele>
        <time>2025-11-11T11:31:20Z</time>
      </trkpt>
      <trkpt lat="45.70148" lon="4.6501">
        <ele>514.8</ele>
        <time>2025-11-11T11:31:21Z</time>
      </trkpt>
      <trkpt lat="45.70153" lon="4.65004">
        <ele>514.8</ele>
        <time>2025-11-11T11:31:22Z</time>
      </trkpt>
      <trkpt lat="45.70156" lon="4.64997">
        <ele>514.6</ele>
        <time>2025-11-11T11:31:23Z</time>
      </trkpt>
      <trkpt lat="45.70159" lon="4.64989">
        <ele>514</ele>
        <time>2025-11-11T11:31:24Z</time>
      </trkpt>
      <trkpt lat="45.70162" lon="4.6498">
        <ele>513.6</ele>
        <time>2025-11-11T11:31:25Z</time>
      </trkpt>
      <trkpt lat="45.70165" lon="4.64971">
        <ele>513</ele>
        <time>2025-11-11T11:31:26Z</time>
      </trkpt>
      <trkpt lat="45.70168" lon="4.64963">
        <ele>512.4</ele>
        <time>2025-11-11T11:31:27Z</time>
      </trkpt>
      <trkpt lat="45.7017" lon="4.64957">
        <ele>512</ele>
        <time>2025-11-11T11:31:28Z</time>
      </trkpt>
      <trkpt lat="45.70173" lon="4.64947">
        <ele>511.8</ele>
        <time>2025-11-11T11:31:29Z</time>
      </trkpt>
      <trkpt lat="45.70177" lon="4.6494">
        <ele>511.6</ele>
        <time>2025-11-11T11:31:30Z</time>
      </trkpt>
      <trkpt lat="45.7018" lon="4.64935">
        <ele>511.6</ele>
        <time>2025-11-11T11:31:31Z</time>
      </trkpt>
      <trkpt lat="45.70183" lon="4.64934">
        <ele>511.6</ele>
        <time>2025-11-11T11:31:32Z</time>
      </trkpt>
      <trkpt lat="45.70187" lon="4.64934">
        <ele>511.8</ele>
        <time>2025-11-11T11:31:33Z</time>
      </trkpt>
      <trkpt lat="45.70192" lon="4.64934">
        <ele>511.8</ele>
        <time>2025-11-11T11:31:34Z</time>
      </trkpt>
      <trkpt lat="45.70197" lon="4.64934">
        <ele>512</ele>
        <time>2025-11-11T11:31:35Z</time>
      </trkpt>
      <trkpt lat="45.70202" lon="4.64932">
        <ele>512.2</ele>
        <time>2025-11-11T11:31:36Z</time>
      </trkpt>
      <trkpt lat="45.70207" lon="4.64928">
        <ele>512.4</ele>
        <time>2025-11-11T11:31:37Z</time>
      </trkpt>
      <trkpt lat="45.70212" lon="4.64924">
        <ele>512.4</ele>
        <time>2025-11-11T11:31:38Z</time>
      </trkpt>
      <trkpt lat="45.70219" lon="4.64918">
        <ele>512.2</ele>
        <time>2025-11-11T11:31:39Z</time>
      </trkpt>
      <trkpt lat="45.70224" lon="4.64911">
        <ele>512</ele>
        <time>2025-11-11T11:31:40Z</time>
      </trkpt>
      <trkpt lat="45.70228" lon="4.64902">
        <ele>511.8</ele>
        <time>2025-11-11T11:31:41Z</time>
      </trkpt>
      <trkpt lat="45.70231" lon="4.64894">
        <ele>511.6</ele>
        <time>2025-11-11T11:31:42Z</time>
      </trkpt>
      <trkpt lat="45.70233" lon="4.64888">
        <ele>511.6</ele>
        <time>2025-11-11T11:31:43Z</time>
      </trkpt>
      <trkpt lat="45.70235" lon="4.64882">
        <ele>511.6</ele>
        <time>2025-11-11T11:31:44Z</time>
      </trkpt>
      <trkpt lat="45.70237" lon="4.64878">
        <ele>511.8</ele>
        <time>2025-11-11T11:31:45Z</time>
      </trkpt>
      <trkpt lat="45.7024" lon="4.64873">
        <ele>512</ele>
        <time>2025-11-11T11:31:46Z</time>
      </trkpt>
      <trkpt lat="45.70243" lon="4.64869">
        <ele>512.2</ele>
        <time>2025-11-11T11:31:47Z</time>
      </trkpt>
      <trkpt lat="45.70246" lon="4.64866">
        <ele>512.4</ele>
        <time>2025-11-11T11:31:48Z</time>
      </trkpt>
      <trkpt lat="45.7025" lon="4.64864">
        <ele>512.4</ele>
        <time>2025-11-11T11:31:49Z</time>
      </trkpt>
      <trkpt lat="45.70254" lon="4.64863">
        <ele>512.6</ele>
        <time>2025-11-11T11:31:50Z</time>
      </trkpt>
      <trkpt lat="45.70259" lon="4.64862">
        <ele>512.8</ele>
        <time>2025-11-11T11:31:51Z</time>
      </trkpt>
      <trkpt lat="45.70263" lon="4.64861">
        <ele>513.2</ele>
        <time>2025-11-11T11:31:52Z</time>
      </trkpt>
      <trkpt lat="45.70268" lon="4.6486">
        <ele>513.6</ele>
        <time>2025-11-11T11:31:53Z</time>
      </trkpt>
      <trkpt lat="45.70273" lon="4.64859">
        <ele>514</ele>
        <time>2025-11-11T11:31:54Z</time>
      </trkpt>
      <trkpt lat="45.70278" lon="4.64855">
        <ele>514.4</ele>
        <time>2025-11-11T11:31:55Z</time>
      </trkpt>
      <trkpt lat="45.70281" lon="4.6485">
        <ele>514.8</ele>
        <time>2025-11-11T11:31:56Z</time>
      </trkpt>
      <trkpt lat="45.70284" lon="4.64847">
        <ele>515.2</ele>
        <time>2025-11-11T11:31:57Z</time>
      </trkpt>
      <trkpt lat="45.70287" lon="4.64844">
        <ele>515.8</ele>
        <time>2025-11-11T11:31:58Z</time>
      </trkpt>
      <trkpt lat="45.7029" lon="4.6484">
        <ele>516.4</ele>
        <time>2025-11-11T11:31:59Z</time>
      </trkpt>
      <trkpt lat="45.70293" lon="4.64837">
        <ele>517</ele>
        <time>2025-11-11T11:32:00Z</time>
      </trkpt>
      <trkpt lat="45.70295" lon="4.64835">
        <ele>517.8</ele>
        <time>2025-11-11T11:32:01Z</time>
      </trkpt>
      <trkpt lat="45.70298" lon="4.64834">
        <ele>518.4</ele>
        <time>2025-11-11T11:32:02Z</time>
      </trkpt>
      <trkpt lat="45.70301" lon="4.64831">
        <ele>519</ele>
        <time>2025-11-11T11:32:03Z</time>
      </trkpt>
      <trkpt lat="45.70304" lon="4.64829">
        <ele>519.8</ele>
        <time>2025-11-11T11:32:04Z</time>
      </trkpt>
      <trkpt lat="45.70306" lon="4.64826">
        <ele>520.4</ele>
        <time>2025-11-11T11:32:05Z</time>
      </trkpt>
      <trkpt lat="45.70308" lon="4.64824">
        <ele>521</ele>
        <time>2025-11-11T11:32:06Z</time>
      </trkpt>
      <trkpt lat="45.7031" lon="4.6482">
        <ele>521.6</ele>
        <time>2025-11-11T11:32:07Z</time>
      </trkpt>
      <trkpt lat="45.70313" lon="4.64816">
        <ele>522.2</ele>
        <time>2025-11-11T11:32:08Z</time>
      </trkpt>
      <trkpt lat="45.70316" lon="4.64811">
        <ele>522.8</ele>
        <time>2025-11-11T11:32:09Z</time>
      </trkpt>
      <trkpt lat="45.70317" lon="4.64806">
        <ele>523.2</ele>
        <time>2025-11-11T11:32:10Z</time>
      </trkpt>
      <trkpt lat="45.70318" lon="4.64802">
        <ele>523.4</ele>
        <time>2025-11-11T11:32:11Z</time>
      </trkpt>
      <trkpt lat="45.70319" lon="4.64796">
        <ele>523.8</ele>
        <time>2025-11-11T11:32:12Z</time>
      </trkpt>
      <trkpt lat="45.70319" lon="4.64791">
        <ele>524</ele>
        <time>2025-11-11T11:32:13Z</time>
      </trkpt>
      <trkpt lat="45.7032" lon="4.64785">
        <ele>524.2</ele>
        <time>2025-11-11T11:32:14Z</time>
      </trkpt>
      <trkpt lat="45.70321" lon="4.6478">
        <ele>524.4</ele>
        <time>2025-11-11T11:32:15Z</time>
      </trkpt>
      <trkpt lat="45.70322" lon="4.64774">
        <ele>524.6</ele>
        <time>2025-11-11T11:32:16Z</time>
      </trkpt>
      <trkpt lat="45.70324" lon="4.64769">
        <ele>524.8</ele>
        <time>2025-11-11T11:32:17Z</time>
      </trkpt>
      <trkpt lat="45.70326" lon="4.64764">
        <ele>525</ele>
        <time>2025-11-11T11:32:18Z</time>
      </trkpt>
      <trkpt lat="45.70327" lon="4.6476">
        <ele>525.2</ele>
        <time>2025-11-11T11:32:19Z</time>
      </trkpt>
      <trkpt lat="45.70328" lon="4.64757">
        <ele>525.6</ele>
        <time>2025-11-11T11:32:20Z</time>
      </trkpt>
      <trkpt lat="45.70329" lon="4.64755">
        <ele>525.8</ele>
        <time>2025-11-11T11:32:21Z</time>
      </trkpt>
      <trkpt lat="45.7033" lon="4.64754">
        <ele>526.2</ele>
        <time>2025-11-11T11:32:22Z</time>
      </trkpt>
      <trkpt lat="45.70331" lon="4.64753">
        <ele>526.4</ele>
        <time>2025-11-11T11:32:23Z</time>
      </trkpt>
      <trkpt lat="45.70333" lon="4.64754">
        <ele>526.4</ele>
        <time>2025-11-11T11:32:24Z</time>
      </trkpt>
      <trkpt lat="45.70334" lon="4.64755">
        <ele>526.4</ele>
        <time>2025-11-11T11:32:25Z</time>
      </trkpt>
      <trkpt lat="45.70336" lon="4.64756">
        <ele>526.4</ele>
        <time>2025-11-11T11:32:26Z</time>
      </trkpt>
      <trkpt lat="45.70338" lon="4.64757">
        <ele>526.2</ele>
        <time>2025-11-11T11:32:27Z</time>
      </trkpt>
      <trkpt lat="45.7034" lon="4.64758">
        <ele>526</ele>
        <time>2025-11-11T11:32:28Z</time>
      </trkpt>
      <trkpt lat="45.70342" lon="4.6476">
        <ele>526</ele>
        <time>2025-11-11T11:32:29Z</time>
      </trkpt>
      <trkpt lat="45.70345" lon="4.64761">
        <ele>525.8</ele>
        <time>2025-11-11T11:32:30Z</time>
      </trkpt>
      <trkpt lat="45.70349" lon="4.64764">
        <ele>525.8</ele>
        <time>2025-11-11T11:32:31Z</time>
      </trkpt>
      <trkpt lat="45.70353" lon="4.64766">
        <ele>525.8</ele>
        <time>2025-11-11T11:32:32Z</time>
      </trkpt>
      <trkpt lat="45.70357" lon="4.64769">
        <ele>525.6</ele>
        <time>2025-11-11T11:32:33Z</time>
      </trkpt>
      <trkpt lat="45.70361" lon="4.64772">
        <ele>525.4</ele>
        <time>2025-11-11T11:32:34Z</time>
      </trkpt>
      <trkpt lat="45.70365" lon="4.64775">
        <ele>525.4</ele>
        <time>2025-11-11T11:32:35Z</time>
      </trkpt>
      <trkpt lat="45.7037" lon="4.64778">
        <ele>525</ele>
        <time>2025-11-11T11:32:36Z</time>
      </trkpt>
      <trkpt lat="45.70374" lon="4.6478">
        <ele>524.8</ele>
        <time>2025-11-11T11:32:37Z</time>
      </trkpt>
      <trkpt lat="45.70379" lon="4.64783">
        <ele>524.4</ele>
        <time>2025-11-11T11:32:38Z</time>
      </trkpt>
      <trkpt lat="45.70383" lon="4.64786">
        <ele>524.2</ele>
        <time>2025-11-11T11:32:39Z</time>
      </trkpt>
      <trkpt lat="45.70387" lon="4.64792">
        <ele>523.8</ele>
        <time>2025-11-11T11:32:40Z</time>
      </trkpt>
      <trkpt lat="45.7039" lon="4.64798">
        <ele>523.2</ele>
        <time>2025-11-11T11:32:41Z</time>
      </trkpt>
      <trkpt lat="45.7039" lon="4.64806">
        <ele>522.4</ele>
        <time>2025-11-11T11:32:42Z</time>
      </trkpt>
      <trkpt lat="45.70389" lon="4.64816">
        <ele>521.8</ele>
        <time>2025-11-11T11:32:43Z</time>
      </trkpt>
      <trkpt lat="45.7039" lon="4.64826">
        <ele>520.8</ele>
        <time>2025-11-11T11:32:44Z</time>
      </trkpt>
      <trkpt lat="45.70391" lon="4.64835">
        <ele>520.2</ele>
        <time>2025-11-11T11:32:45Z</time>
      </trkpt>
      <trkpt lat="45.70393" lon="4.64845">
        <ele>519.6</ele>
        <time>2025-11-11T11:32:46Z</time>
      </trkpt>
      <trkpt lat="45.70395" lon="4.64854">
        <ele>519.2</ele>
        <time>2025-11-11T11:32:47Z</time>
      </trkpt>
      <trkpt lat="45.70398" lon="4.64862">
        <ele>519</ele>
        <time>2025-11-11T11:32:48Z</time>
      </trkpt>
      <trkpt lat="45.70401" lon="4.64869">
        <ele>518.8</ele>
        <time>2025-11-11T11:32:49Z</time>
      </trkpt>
      <trkpt lat="45.70406" lon="4.64875">
        <ele>518.8</ele>
        <time>2025-11-11T11:32:50Z</time>
      </trkpt>
      <trkpt lat="45.7041" lon="4.64882">
        <ele>519</ele>
        <time>2025-11-11T11:32:51Z</time>
      </trkpt>
      <trkpt lat="45.70413" lon="4.64888">
        <ele>519.2</ele>
        <time>2025-11-11T11:32:52Z</time>
      </trkpt>
      <trkpt lat="45.70417" lon="4.64895">
        <ele>519.4</ele>
        <time>2025-11-11T11:32:53Z</time>
      </trkpt>
      <trkpt lat="45.7042" lon="4.64901">
        <ele>519.6</ele>
        <time>2025-11-11T11:32:54Z</time>
      </trkpt>
      <trkpt lat="45.70423" lon="4.64908">
        <ele>519.8</ele>
        <time>2025-11-11T11:32:55Z</time>
      </trkpt>
      <trkpt lat="45.70426" lon="4.64914">
        <ele>520</ele>
        <time>2025-11-11T11:32:56Z</time>
      </trkpt>
      <trkpt lat="45.70427" lon="4.64919">
        <ele>520.2</ele>
        <time>2025-11-11T11:32:57Z</time>
      </trkpt>
      <trkpt lat="45.70428" lon="4.64923">
        <ele>520.4</ele>
        <time>2025-11-11T11:32:58Z</time>
      </trkpt>
      <trkpt lat="45.70428" lon="4.64928">
        <ele>520.6</ele>
        <time>2025-11-11T11:32:59Z</time>
      </trkpt>
      <trkpt lat="45.70428" lon="4.64933">
        <ele>520.8</ele>
        <time>2025-11-11T11:33:00Z</time>
      </trkpt>
      <trkpt lat="45.70428" lon="4.64938">
        <ele>520.8</ele>
        <time>2025-11-11T11:33:01Z</time>
      </trkpt>
      <trkpt lat="45.70428" lon="4.64944">
        <ele>520.6</ele>
        <time>2025-11-11T11:33:02Z</time>
      </trkpt>
      <trkpt lat="45.70428" lon="4.64951">
        <ele>520.4</ele>
        <time>2025-11-11T11:33:03Z</time>
      </trkpt>
      <trkpt lat="45.70429" lon="4.64957">
        <ele>520.2</ele>
        <time>2025-11-11T11:33:04Z</time>
      </trkpt>
      <trkpt lat="45.70431" lon="4.64963">
        <ele>519.8</ele>
        <time>2025-11-11T11:33:05Z</time>
      </trkpt>
      <trkpt lat="45.70434" lon="4.64968">
        <ele>519.4</ele>
        <time>2025-11-11T11:33:06Z</time>
      </trkpt>
      <trkpt lat="45.70437" lon="4.64974">
        <ele>518.8</ele>
        <time>2025-11-11T11:33:07Z</time>
      </trkpt>
      <trkpt lat="45.70441" lon="4.64981">
        <ele>518.4</ele>
        <time>2025-11-11T11:33:08Z</time>
      </trkpt>
      <trkpt lat="45.70444" lon="4.64988">
        <ele>517.8</ele>
        <time>2025-11-11T11:33:09Z</time>
      </trkpt>
      <trkpt lat="45.70446" lon="4.64996">
        <ele>517.4</ele>
        <time>2025-11-11T11:33:10Z</time>
      </trkpt>
      <trkpt lat="45.70446" lon="4.65004">
        <ele>517</ele>
        <time>2025-11-11T11:33:11Z</time>
      </trkpt>
      <trkpt lat="45.70446" lon="4.65013">
        <ele>516.8</ele>
        <time>2025-11-11T11:33:12Z</time>
      </trkpt>
      <trkpt lat="45.70445" lon="4.6502">
        <ele>516.6</ele>
        <time>2025-11-11T11:33:13Z</time>
      </trkpt>
      <trkpt lat="45.70443" lon="4.65028">
        <ele>516.4</ele>
        <time>2025-11-11T11:33:14Z</time>
      </trkpt>
      <trkpt lat="45.70442" lon="4.65036">
        <ele>516.2</ele>
        <time>2025-11-11T11:33:15Z</time>
      </trkpt>
      <trkpt lat="45.70441" lon="4.65043">
        <ele>516.2</ele>
        <time>2025-11-11T11:33:16Z</time>
      </trkpt>
      <trkpt lat="45.70441" lon="4.6505">
        <ele>516.2</ele>
        <time>2025-11-11T11:33:17Z</time>
      </trkpt>
      <trkpt lat="45.70441" lon="4.65057">
        <ele>516.2</ele>
        <time>2025-11-11T11:33:18Z</time>
      </trkpt>
      <trkpt lat="45.70441" lon="4.65064">
        <ele>516.4</ele>
        <time>2025-11-11T11:33:19Z</time>
      </trkpt>
      <trkpt lat="45.7044" lon="4.65071">
        <ele>516.4</ele>
        <time>2025-11-11T11:33:20Z</time>
      </trkpt>
      <trkpt lat="45.70439" lon="4.65076">
        <ele>516.4</ele>
        <time>2025-11-11T11:33:21Z</time>
      </trkpt>
      <trkpt lat="45.70439" lon="4.65082">
        <ele>516.4</ele>
        <time>2025-11-11T11:33:22Z</time>
      </trkpt>
      <trkpt lat="45.70439" lon="4.65088">
        <ele>516.4</ele>
        <time>2025-11-11T11:33:23Z</time>
      </trkpt>
      <trkpt lat="45.7044" lon="4.65095">
        <ele>516.4</ele>
        <time>2025-11-11T11:33:24Z</time>
      </trkpt>
      <trkpt lat="45.7044" lon="4.65102">
        <ele>516.2</ele>
        <time>2025-11-11T11:33:25Z</time>
      </trkpt>
      <trkpt lat="45.7044" lon="4.65109">
        <ele>516</ele>
        <time>2025-11-11T11:33:26Z</time>
      </trkpt>
      <trkpt lat="45.7044" lon="4.65116">
        <ele>515.8</ele>
        <time>2025-11-11T11:33:27Z</time>
      </trkpt>
      <trkpt lat="45.7044" lon="4.65123">
        <ele>515.6</ele>
        <time>2025-11-11T11:33:28Z</time>
      </trkpt>
      <trkpt lat="45.70441" lon="4.6513">
        <ele>515.4</ele>
        <time>2025-11-11T11:33:29Z</time>
      </trkpt>
      <trkpt lat="45.70442" lon="4.65136">
        <ele>515.2</ele>
        <time>2025-11-11T11:33:30Z</time>
      </trkpt>
      <trkpt lat="45.70443" lon="4.65142">
        <ele>515</ele>
        <time>2025-11-11T11:33:31Z</time>
      </trkpt>
      <trkpt lat="45.70445" lon="4.65148">
        <ele>514.8</ele>
        <time>2025-11-11T11:33:32Z</time>
      </trkpt>
      <trkpt lat="45.70446" lon="4.65155">
        <ele>514.6</ele>
        <time>2025-11-11T11:33:33Z</time>
      </trkpt>
      <trkpt lat="45.70448" lon="4.65163">
        <ele>514.2</ele>
        <time>2025-11-11T11:33:34Z</time>
      </trkpt>
      <trkpt lat="45.70449" lon="4.65171">
        <ele>513.8</ele>
        <time>2025-11-11T11:33:35Z</time>
      </trkpt>
      <trkpt lat="45.70451" lon="4.65179">
        <ele>513.2</ele>
        <time>2025-11-11T11:33:36Z</time>
      </trkpt>
      <trkpt lat="45.70453" lon="4.65186">
        <ele>512.8</ele>
        <time>2025-11-11T11:33:37Z</time>
      </trkpt>
      <trkpt lat="45.70456" lon="4.65194">
        <ele>512.2</ele>
        <time>2025-11-11T11:33:38Z</time>
      </trkpt>
      <trkpt lat="45.70459" lon="4.652">
        <ele>511.4</ele>
        <time>2025-11-11T11:33:39Z</time>
      </trkpt>
      <trkpt lat="45.70463" lon="4.65206">
        <ele>510.8</ele>
        <time>2025-11-11T11:33:40Z</time>
      </trkpt>
      <trkpt lat="45.70466" lon="4.65213">
        <ele>510.2</ele>
        <time>2025-11-11T11:33:41Z</time>
      </trkpt>
      <trkpt lat="45.7047" lon="4.65219">
        <ele>509.8</ele>
        <time>2025-11-11T11:33:42Z</time>
      </trkpt>
      <trkpt lat="45.70474" lon="4.65227">
        <ele>509.2</ele>
        <time>2025-11-11T11:33:43Z</time>
      </trkpt>
      <trkpt lat="45.70477" lon="4.65234">
        <ele>508.4</ele>
        <time>2025-11-11T11:33:44Z</time>
      </trkpt>
      <trkpt lat="45.70481" lon="4.65242">
        <ele>507.8</ele>
        <time>2025-11-11T11:33:45Z</time>
      </trkpt>
      <trkpt lat="45.70484" lon="4.65249">
        <ele>507</ele>
        <time>2025-11-11T11:33:46Z</time>
      </trkpt>
      <trkpt lat="45.70487" lon="4.65256">
        <ele>506.6</ele>
        <time>2025-11-11T11:33:47Z</time>
      </trkpt>
      <trkpt lat="45.7049" lon="4.65261">
        <ele>506</ele>
        <time>2025-11-11T11:33:48Z</time>
      </trkpt>
      <trkpt lat="45.70492" lon="4.65267">
        <ele>505.6</ele>
        <time>2025-11-11T11:33:49Z</time>
      </trkpt>
      <trkpt lat="45.70494" lon="4.65273">
        <ele>505</ele>
        <time>2025-11-11T11:33:50Z</time>
      </trkpt>
      <trkpt lat="45.70497" lon="4.65279">
        <ele>504.2</ele>
        <time>2025-11-11T11:33:51Z</time>
      </trkpt>
      <trkpt lat="45.70501" lon="4.65285">
        <ele>503.8</ele>
        <time>2025-11-11T11:33:52Z</time>
      </trkpt>
      <trkpt lat="45.70505" lon="4.65292">
        <ele>502.8</ele>
        <time>2025-11-11T11:33:53Z</time>
      </trkpt>
      <trkpt lat="45.70509" lon="4.65299">
        <ele>501.8</ele>
        <time>2025-11-11T11:33:54Z</time>
      </trkpt>
      <trkpt lat="45.70513" lon="4.65305">
        <ele>500.8</ele>
        <time>2025-11-11T11:33:55Z</time>
      </trkpt>
      <trkpt lat="45.70518" lon="4.65312">
        <ele>500.2</ele>
        <time>2025-11-11T11:33:56Z</time>
      </trkpt>
      <trkpt lat="45.70522" lon="4.65318">
        <ele>499.6</ele>
        <time>2025-11-11T11:33:57Z</time>
      </trkpt>
      <trkpt lat="45.70526" lon="4.65323">
        <ele>499</ele>
        <time>2025-11-11T11:33:58Z</time>
      </trkpt>
      <trkpt lat="45.70531" lon="4.65327">
        <ele>498.6</ele>
        <time>2025-11-11T11:33:59Z</time>
      </trkpt>
      <trkpt lat="45.70536" lon="4.65332">
        <ele>498</ele>
        <time>2025-11-11T11:34:00Z</time>
      </trkpt>
      <trkpt lat="45.7054" lon="4.65337">
        <ele>497.4</ele>
        <time>2025-11-11T11:34:01Z</time>
      </trkpt>
      <trkpt lat="45.70544" lon="4.65341">
        <ele>496.6</ele>
        <time>2025-11-11T11:34:02Z</time>
      </trkpt>
      <trkpt lat="45.70549" lon="4.65346">
        <ele>496</ele>
        <time>2025-11-11T11:34:03Z</time>
      </trkpt>
      <trkpt lat="45.70554" lon="4.6535">
        <ele>495.4</ele>
        <time>2025-11-11T11:34:04Z</time>
      </trkpt>
      <trkpt lat="45.70559" lon="4.65353">
        <ele>494.8</ele>
        <time>2025-11-11T11:34:05Z</time>
      </trkpt>
      <trkpt lat="45.70563" lon="4.65355">
        <ele>494.4</ele>
        <time>2025-11-11T11:34:06Z</time>
      </trkpt>
      <trkpt lat="45.70566" lon="4.65358">
        <ele>494</ele>
        <time>2025-11-11T11:34:07Z</time>
      </trkpt>
      <trkpt lat="45.70569" lon="4.6536">
        <ele>493.4</ele>
        <time>2025-11-11T11:34:08Z</time>
      </trkpt>
      <trkpt lat="45.70572" lon="4.65363">
        <ele>493</ele>
        <time>2025-11-11T11:34:09Z</time>
      </trkpt>
      <trkpt lat="45.70576" lon="4.65366">
        <ele>492.4</ele>
        <time>2025-11-11T11:34:10Z</time>
      </trkpt>
      <trkpt lat="45.70579" lon="4.6537">
        <ele>491.8</ele>
        <time>2025-11-11T11:34:11Z</time>
      </trkpt>
      <trkpt lat="45.70582" lon="4.65373">
        <ele>491</ele>
        <time>2025-11-11T11:34:12Z</time>
      </trkpt>
      <trkpt lat="45.70585" lon="4.65377">
        <ele>490.4</ele>
        <time>2025-11-11T11:34:13Z</time>
      </trkpt>
      <trkpt lat="45.70587" lon="4.6538">
        <ele>489.8</ele>
        <time>2025-11-11T11:34:14Z</time>
      </trkpt>
      <trkpt lat="45.70588" lon="4.65382">
        <ele>489.4</ele>
        <time>2025-11-11T11:34:15Z</time>
      </trkpt>
      <trkpt lat="45.70589" lon="4.65385">
        <ele>488.8</ele>
        <time>2025-11-11T11:34:16Z</time>
      </trkpt>
      <trkpt lat="45.70592" lon="4.6539">
        <ele>488.4</ele>
        <time>2025-11-11T11:34:17Z</time>
      </trkpt>
      <trkpt lat="45.70594" lon="4.65395">
        <ele>487.8</ele>
        <time>2025-11-11T11:34:18Z</time>
      </trkpt>
      <trkpt lat="45.70597" lon="4.65399">
        <ele>487.2</ele>
        <time>2025-11-11T11:34:19Z</time>
      </trkpt>
      <trkpt lat="45.70598" lon="4.65402">
        <ele>486.6</ele>
        <time>2025-11-11T11:34:20Z</time>
      </trkpt>
      <trkpt lat="45.706" lon="4.65405">
        <ele>486</ele>
        <time>2025-11-11T11:34:21Z</time>
      </trkpt>
      <trkpt lat="45.70603" lon="4.65408">
        <ele>485.4</ele>
        <time>2025-11-11T11:34:22Z</time>
      </trkpt>
      <trkpt lat="45.70606" lon="4.65412">
        <ele>484.8</ele>
        <time>2025-11-11T11:34:23Z</time>
      </trkpt>
      <trkpt lat="45.70607" lon="4.65416">
        <ele>484</ele>
        <time>2025-11-11T11:34:24Z</time>
      </trkpt>
      <trkpt lat="45.70609" lon="4.65419">
        <ele>483.2</ele>
        <time>2025-11-11T11:34:25Z</time>
      </trkpt>
      <trkpt lat="45.70611" lon="4.65422">
        <ele>482.4</ele>
        <time>2025-11-11T11:34:26Z</time>
      </trkpt>
      <trkpt lat="45.70613" lon="4.65425">
        <ele>482</ele>
        <time>2025-11-11T11:34:27Z</time>
      </trkpt>
      <trkpt lat="45.70615" lon="4.65427">
        <ele>481.4</ele>
        <time>2025-11-11T11:34:28Z</time>
      </trkpt>
      <trkpt lat="45.70617" lon="4.65431">
        <ele>480.8</ele>
        <time>2025-11-11T11:34:29Z</time>
      </trkpt>
      <trkpt lat="45.7062" lon="4.65435">
        <ele>480.2</ele>
        <time>2025-11-11T11:34:30Z</time>
      </trkpt>
      <trkpt lat="45.70623" lon="4.6544">
        <ele>479.6</ele>
        <time>2025-11-11T11:34:31Z</time>
      </trkpt>
      <trkpt lat="45.70625" lon="4.65445">
        <ele>478.6</ele>
        <time>2025-11-11T11:34:32Z</time>
      </trkpt>
      <trkpt lat="45.70628" lon="4.6545">
        <ele>477.6</ele>
        <time>2025-11-11T11:34:33Z</time>
      </trkpt>
      <trkpt lat="45.7063" lon="4.65457">
        <ele>476.8</ele>
        <time>2025-11-11T11:34:34Z</time>
      </trkpt>
      <trkpt lat="45.70633" lon="4.65463">
        <ele>475.8</ele>
        <time>2025-11-11T11:34:35Z</time>
      </trkpt>
      <trkpt lat="45.70636" lon="4.65469">
        <ele>475</ele>
        <time>2025-11-11T11:34:36Z</time>
      </trkpt>
      <trkpt lat="45.70639" lon="4.65475">
        <ele>474</ele>
        <time>2025-11-11T11:34:37Z</time>
      </trkpt>
      <trkpt lat="45.70643" lon="4.6548">
        <ele>473</ele>
        <time>2025-11-11T11:34:38Z</time>
      </trkpt>
      <trkpt lat="45.70647" lon="4.65485">
        <ele>472.2</ele>
        <time>2025-11-11T11:34:39Z</time>
      </trkpt>
      <trkpt lat="45.70652" lon="4.65489">
        <ele>471.4</ele>
        <time>2025-11-11T11:34:40Z</time>
      </trkpt>
      <trkpt lat="45.70655" lon="4.65492">
        <ele>471</ele>
        <time>2025-11-11T11:34:41Z</time>
      </trkpt>
      <trkpt lat="45.70657" lon="4.65495">
        <ele>470.6</ele>
        <time>2025-11-11T11:34:42Z</time>
      </trkpt>
      <trkpt lat="45.70658" lon="4.65497">
        <ele>470.6</ele>
        <time>2025-11-11T11:34:43Z</time>
      </trkpt>
      <trkpt lat="45.70659" lon="4.65498">
        <ele>470.6</ele>
        <time>2025-11-11T11:34:44Z</time>
      </trkpt>
      <trkpt lat="45.70659" lon="4.65498">
        <ele>470.4</ele>
        <time>2025-11-11T11:34:45Z</time>
      </trkpt>
      <trkpt lat="45.70659" lon="4.65498">
        <ele>470.4</ele>
        <time>2025-11-11T11:34:46Z</time>
      </trkpt>
      <trkpt lat="45.70659" lon="4.65498">
        <ele>470.4</ele>
        <time>2025-11-11T11:34:47Z</time>
      </trkpt>
      <trkpt lat="45.70659" lon="4.65498">
        <ele>470.4</ele>
        <time>2025-11-11T11:34:48Z</time>
      </trkpt>
      <trkpt lat="45.70659" lon="4.65498">
        <ele>470.4</ele>
        <time>2025-11-11T11:34:49Z</time>
      </trkpt>
      <trkpt lat="45.70658" lon="4.65497">
        <ele>470.4</ele>
        <time>2025-11-11T11:34:50Z</time>
      </trkpt>
      <trkpt lat="45.70658" lon="4.65497">
        <ele>470.4</ele>
        <time>2025-11-11T11:34:51Z</time>
      </trkpt>
      <trkpt lat="45.70658" lon="4.65497">
        <ele>470.4</ele>
        <time>2025-11-11T11:34:52Z</time>
      </trkpt>
      <trkpt lat="45.70658" lon="4.65497">
        <ele>470.4</ele>
        <time>2025-11-11T11:34:53Z</time>
      </trkpt>
      <trkpt lat="45.70658" lon="4.65497">
        <ele>470.4</ele>
        <time>2025-11-11T11:34:54Z</time>
      </trkpt>
      <trkpt lat="45.70658" lon="4.65497">
        <ele>470.4</ele>
        <time>2025-11-11T11:34:55Z</time>
      </trkpt>
      <trkpt lat="45.70658" lon="4.65497">
        <ele>470.4</ele>
        <time>2025-11-11T11:34:56Z</time>
      </trkpt>
      <trkpt lat="45.70658" lon="4.65497">
        <ele>470.4</ele>
        <time>2025-11-11T11:34:57Z</time>
      </trkpt>
      <trkpt lat="45.70658" lon="4.65497">
        <ele>470.4</ele>
        <time>2025-11-11T11:34:58Z</time>
      </trkpt>
      <trkpt lat="45.70658" lon="4.65497">
        <ele>470.4</ele>
        <time>2025-11-11T11:34:59Z</time>
      </trkpt>
      <trkpt lat="45.70658" lon="4.65497">
        <ele>470.4</ele>
        <time>2025-11-11T11:35:00Z</time>
      </trkpt>
      <trkpt lat="45.70658" lon="4.65497">
        <ele>470.4</ele>
        <time>2025-11-11T11:35:01Z</time>
      </trkpt>
      <trkpt lat="45.70658" lon="4.65497">
        <ele>470.4</ele>
        <time>2025-11-11T11:35:02Z</time>
      </trkpt>
      <trkpt lat="45.70658" lon="4.65497">
        <ele>470.4</ele>
        <time>2025-11-11T11:35:03Z</time>
      </trkpt>
      <trkpt lat="45.70658" lon="4.65497">
        <ele>470.4</ele>
        <time>2025-11-11T11:35:04Z</time>
      </trkpt>
      <trkpt lat="45.70658" lon="4.65497">
        <ele>470.4</ele>
        <time>2025-11-11T11:35:05Z</time>
      </trkpt>
      <trkpt lat="45.70658" lon="4.65497">
        <ele>470.2</ele>
        <time>2025-11-11T11:35:06Z</time>
      </trkpt>
      <trkpt lat="45.70658" lon="4.65497">
        <ele>470.2</ele>
        <time>2025-11-11T11:35:07Z</time>
      </trkpt>
      <trkpt lat="45.70658" lon="4.65497">
        <ele>470.2</ele>
        <time>2025-11-11T11:35:08Z</time>
      </trkpt>
      <trkpt lat="45.70658" lon="4.65497">
        <ele>470.2</ele>
        <time>2025-11-11T11:35:09Z</time>
      </trkpt>
      <trkpt lat="45.70658" lon="4.65497">
        <ele>470.2</ele>
        <time>2025-11-11T11:35:10Z</time>
      </trkpt>
      <trkpt lat="45.70658" lon="4.65497">
        <ele>470.2</ele>
        <time>2025-11-11T11:35:11Z</time>
      </trkpt>
      <trkpt lat="45.70658" lon="4.65497">
        <ele>470.2</ele>
        <time>2025-11-11T11:35:12Z</time>
      </trkpt>
      <trkpt lat="45.70658" lon="4.65497">
        <ele>470.2</ele>
        <time>2025-11-11T11:35:13Z</time>
      </trkpt>
      <trkpt lat="45.70658" lon="4.65497">
        <ele>470.2</ele>
        <time>2025-11-11T11:35:14Z</time>
      </trkpt>
      <trkpt lat="45.70658" lon="4.65497">
        <ele>470</ele>
        <time>2025-11-11T11:35:15Z</time>
      </trkpt>
      <trkpt lat="45.70658" lon="4.65497">
        <ele>470</ele>
        <time>2025-11-11T11:35:16Z</time>
      </trkpt>
      <trkpt lat="45.70658" lon="4.65497">
        <ele>470</ele>
        <time>2025-11-11T11:35:17Z</time>
      </trkpt>
      <trkpt lat="45.70658" lon="4.65497">
        <ele>470</ele>
        <time>2025-11-11T11:35:18Z</time>
      </trkpt>
      <trkpt lat="45.70658" lon="4.65497">
        <ele>470</ele>
        <time>2025-11-11T11:35:19Z</time>
      </trkpt>
      <trkpt lat="45.70658" lon="4.65497">
        <ele>470</ele>
        <time>2025-11-11T11:35:20Z</time>
      </trkpt>
      <trkpt lat="45.70658" lon="4.65497">
        <ele>470</ele>
        <time>2025-11-11T11:35:21Z</time>
      </trkpt>
      <trkpt lat="45.70658" lon="4.65497">
        <ele>470</ele>
        <time>2025-11-11T11:35:22Z</time>
      </trkpt>
      <trkpt lat="45.70658" lon="4.65497">
        <ele>470</ele>
        <time>2025-11-11T11:35:23Z</time>
      </trkpt>
      <trkpt lat="45.70658" lon="4.65497">
        <ele>470</ele>
        <time>2025-11-11T11:35:24Z</time>
      </trkpt>
      <trkpt lat="45.70658" lon="4.65497">
        <ele>470</ele>
        <time>2025-11-11T11:35:25Z</time>
      </trkpt>
      <trkpt lat="45.70658" lon="4.65497">
        <ele>470</ele>
        <time>2025-11-11T11:35:26Z</time>
      </trkpt>
      <trkpt lat="45.70658" lon="4.65497">
        <ele>470</ele>
        <time>2025-11-11T11:35:27Z</time>
      </trkpt>
      <trkpt lat="45.70658" lon="4.65497">
        <ele>470</ele>
        <time>2025-11-11T11:35:28Z</time>
      </trkpt>
      <trkpt lat="45.70658" lon="4.65497">
        <ele>470</ele>
        <time>2025-11-11T11:35:29Z</time>
      </trkpt>
      <trkpt lat="45.70658" lon="4.65497">
        <ele>470</ele>
        <time>2025-11-11T11:35:30Z</time>
      </trkpt>
      <trkpt lat="45.70658" lon="4.65497">
        <ele>470</ele>
        <time>2025-11-11T11:35:31Z</time>
      </trkpt>
      <trkpt lat="45.70658" lon="4.65497">
        <ele>470</ele>
        <time>2025-11-11T11:35:32Z</time>
      </trkpt>
      <trkpt lat="45.70658" lon="4.65497">
        <ele>469.8</ele>
        <time>2025-11-11T11:35:33Z</time>
      </trkpt>
      <trkpt lat="45.70658" lon="4.65497">
        <ele>469.8</ele>
        <time>2025-11-11T11:35:34Z</time>
      </trkpt>
      <trkpt lat="45.70658" lon="4.65497">
        <ele>469.8</ele>
        <time>2025-11-11T11:35:35Z</time>
      </trkpt>
      <trkpt lat="45.70658" lon="4.65497">
        <ele>469.8</ele>
        <time>2025-11-11T11:35:36Z</time>
      </trkpt>
      <trkpt lat="45.70658" lon="4.65497">
        <ele>469.8</ele>
        <time>2025-11-11T11:35:37Z</time>
      </trkpt>
      <trkpt lat="45.70658" lon="4.65497">
        <ele>469.8</ele>
        <time>2025-11-11T11:35:38Z</time>
      </trkpt>
      <trkpt lat="45.70658" lon="4.65497">
        <ele>469.8</ele>
        <time>2025-11-11T11:35:39Z</time>
      </trkpt>
      <trkpt lat="45.70658" lon="4.65497">
        <ele>469.8</ele>
        <time>2025-11-11T11:35:40Z</time>
      </trkpt>
      <trkpt lat="45.70658" lon="4.65497">
        <ele>469.8</ele>
        <time>2025-11-11T11:35:41Z</time>
      </trkpt>
      <trkpt lat="45.70658" lon="4.65497">
        <ele>469.8</ele>
        <time>2025-11-11T11:35:42Z</time>
      </trkpt>
      <trkpt lat="45.70658" lon="4.65497">
        <ele>469.8</ele>
        <time>2025-11-11T11:35:43Z</time>
      </trkpt>
      <trkpt lat="45.70658" lon="4.65497">
        <ele>469.8</ele>
        <time>2025-11-11T11:35:44Z</time>
      </trkpt>
      <trkpt lat="45.70658" lon="4.65497">
        <ele>469.8</ele>
        <time>2025-11-11T11:35:45Z</time>
      </trkpt>
      <trkpt lat="45.70658" lon="4.65497">
        <ele>469.6</ele>
        <time>2025-11-11T11:35:46Z</time>
      </trkpt>
      <trkpt lat="45.70658" lon="4.65497">
        <ele>469.6</ele>
        <time>2025-11-11T11:35:47Z</time>
      </trkpt>
      <trkpt lat="45.70658" lon="4.65497">
        <ele>469.6</ele>
        <time>2025-11-11T11:35:48Z</time>
      </trkpt>
      <trkpt lat="45.70658" lon="4.65497">
        <ele>469.6</ele>
        <time>2025-11-11T11:35:49Z</time>
      </trkpt>
      <trkpt lat="45.70658" lon="4.65497">
        <ele>469.6</ele>
        <time>2025-11-11T11:35:50Z</time>
      </trkpt>
      <trkpt lat="45.70658" lon="4.65497">
        <ele>469.6</ele>
        <time>2025-11-11T11:35:51Z</time>
      </trkpt>
      <trkpt lat="45.70658" lon="4.65497">
        <ele>469.6</ele>
        <time>2025-11-11T11:35:52Z</time>
      </trkpt>
      <trkpt lat="45.70658" lon="4.65497">
        <ele>469.6</ele>
        <time>2025-11-11T11:35:53Z</time>
      </trkpt>
      <trkpt lat="45.70658" lon="4.65497">
        <ele>469.6</ele>
        <time>2025-11-11T11:35:54Z</time>
      </trkpt>
      <trkpt lat="45.70658" lon="4.65497">
        <ele>469.6</ele>
        <time>2025-11-11T11:35:55Z</time>
      </trkpt>
      <trkpt lat="45.70658" lon="4.65497">
        <ele>469.6</ele>
        <time>2025-11-11T11:35:56Z</time>
      </trkpt>
      <trkpt lat="45.70658" lon="4.65497">
        <ele>469.6</ele>
        <time>2025-11-11T11:35:57Z</time>
      </trkpt>
      <trkpt lat="45.70658" lon="4.65497">
        <ele>469.6</ele>
        <time>2025-11-11T11:35:58Z</time>
      </trkpt>
      <trkpt lat="45.70658" lon="4.65497">
        <ele>469.6</ele>
        <time>2025-11-11T11:35:59Z</time>
      </trkpt>
      <trkpt lat="45.70658" lon="4.65497">
        <ele>469.6</ele>
        <time>2025-11-11T11:36:00Z</time>
      </trkpt>
      <trkpt lat="45.70658" lon="4.65497">
        <ele>469.6</ele>
        <time>2025-11-11T11:36:01Z</time>
      </trkpt>
      <trkpt lat="45.70658" lon="4.65497">
        <ele>469.6</ele>
        <time>2025-11-11T11:36:02Z</time>
      </trkpt>
      <trkpt lat="45.70658" lon="4.65497">
        <ele>469.6</ele>
        <time>2025-11-11T11:36:03Z</time>
      </trkpt>
      <trkpt lat="45.70658" lon="4.65497">
        <ele>469.6</ele>
        <time>2025-11-11T11:36:04Z</time>
      </trkpt>
      <trkpt lat="45.70658" lon="4.65497">
        <ele>469.6</ele>
        <time>2025-11-11T11:36:05Z</time>
      </trkpt>
      <trkpt lat="45.70658" lon="4.65497">
        <ele>469.6</ele>
        <time>2025-11-11T11:36:06Z</time>
      </trkpt>
      <trkpt lat="45.70658" lon="4.65497">
        <ele>469.6</ele>
        <time>2025-11-11T11:36:07Z</time>
      </trkpt>
      <trkpt lat="45.70658" lon="4.65497">
        <ele>469.6</ele>
        <time>2025-11-11T11:36:08Z</time>
      </trkpt>
      <trkpt lat="45.70658" lon="4.65497">
        <ele>469.6</ele>
        <time>2025-11-11T11:36:09Z</time>
      </trkpt>
      <trkpt lat="45.70658" lon="4.65497">
        <ele>469.4</ele>
        <time>2025-11-11T11:36:10Z</time>
      </trkpt>
      <trkpt lat="45.70658" lon="4.65497">
        <ele>469.4</ele>
        <time>2025-11-11T11:36:11Z</time>
      </trkpt>
      <trkpt lat="45.70658" lon="4.65497">
        <ele>469.4</ele>
        <time>2025-11-11T11:36:12Z</time>
      </trkpt>
      <trkpt lat="45.70658" lon="4.65497">
        <ele>469.4</ele>
        <time>2025-11-11T11:36:13Z</time>
      </trkpt>
      <trkpt lat="45.70659" lon="4.65498">
        <ele>469.4</ele>
        <time>2025-11-11T11:36:14Z</time>
      </trkpt>
      <trkpt lat="45.70659" lon="4.655">
        <ele>469.4</ele>
        <time>2025-11-11T11:36:15Z</time>
      </trkpt>
      <trkpt lat="45.70661" lon="4.65502">
        <ele>469.2</ele>
        <time>2025-11-11T11:36:16Z</time>
      </trkpt>
      <trkpt lat="45.70663" lon="4.65506">
        <ele>469</ele>
        <time>2025-11-11T11:36:17Z</time>
      </trkpt>
      <trkpt lat="45.70666" lon="4.6551">
        <ele>468.4</ele>
        <time>2025-11-11T11:36:18Z</time>
      </trkpt>
      <trkpt lat="45.7067" lon="4.65514">
        <ele>467.8</ele>
        <time>2025-11-11T11:36:19Z</time>
      </trkpt>
      <trkpt lat="45.70675" lon="4.65517">
        <ele>467</ele>
        <time>2025-11-11T11:36:20Z</time>
      </trkpt>
      <trkpt lat="45.70682" lon="4.65519">
        <ele>466</ele>
        <time>2025-11-11T11:36:21Z</time>
      </trkpt>
      <trkpt lat="45.70689" lon="4.65523">
        <ele>464.8</ele>
        <time>2025-11-11T11:36:22Z</time>
      </trkpt>
      <trkpt lat="45.70696" lon="4.65528">
        <ele>463.8</ele>
        <time>2025-11-11T11:36:23Z</time>
      </trkpt>
      <trkpt lat="45.70702" lon="4.65535">
        <ele>462.8</ele>
        <time>2025-11-11T11:36:24Z</time>
      </trkpt>
      <trkpt lat="45.70704" lon="4.65543">
        <ele>462</ele>
        <time>2025-11-11T11:36:25Z</time>
      </trkpt>
      <trkpt lat="45.70703" lon="4.65555">
        <ele>461.2</ele>
        <time>2025-11-11T11:36:26Z</time>
      </trkpt>
      <trkpt lat="45.70699" lon="4.65565">
        <ele>460.6</ele>
        <time>2025-11-11T11:36:27Z</time>
      </trkpt>
      <trkpt lat="45.70694" lon="4.65576">
        <ele>460</ele>
        <time>2025-11-11T11:36:28Z</time>
      </trkpt>
      <trkpt lat="45.70691" lon="4.65585">
        <ele>459.4</ele>
        <time>2025-11-11T11:36:29Z</time>
      </trkpt>
      <trkpt lat="45.70687" lon="4.65599">
        <ele>458.8</ele>
        <time>2025-11-11T11:36:30Z</time>
      </trkpt>
      <trkpt lat="45.70684" lon="4.6561">
        <ele>458.4</ele>
        <time>2025-11-11T11:36:31Z</time>
      </trkpt>
      <trkpt lat="45.70681" lon="4.65622">
        <ele>458</ele>
        <time>2025-11-11T11:36:32Z</time>
      </trkpt>
      <trkpt lat="45.70679" lon="4.65633">
        <ele>457.8</ele>
        <time>2025-11-11T11:36:33Z</time>
      </trkpt>
      <trkpt lat="45.70678" lon="4.65644">
        <ele>457.6</ele>
        <time>2025-11-11T11:36:34Z</time>
      </trkpt>
      <trkpt lat="45.70678" lon="4.65655">
        <ele>457.4</ele>
        <time>2025-11-11T11:36:35Z</time>
      </trkpt>
      <trkpt lat="45.70677" lon="4.65667">
        <ele>457</ele>
        <time>2025-11-11T11:36:36Z</time>
      </trkpt>
      <trkpt lat="45.70677" lon="4.65679">
        <ele>456.4</ele>
        <time>2025-11-11T11:36:37Z</time>
      </trkpt>
      <trkpt lat="45.70677" lon="4.65692">
        <ele>455.6</ele>
        <time>2025-11-11T11:36:38Z</time>
      </trkpt>
      <trkpt lat="45.70677" lon="4.65706">
        <ele>454.4</ele>
        <time>2025-11-11T11:36:39Z</time>
      </trkpt>
      <trkpt lat="45.70676" lon="4.6572">
        <ele>453.2</ele>
        <time>2025-11-11T11:36:40Z</time>
      </trkpt>
      <trkpt lat="45.70676" lon="4.65734">
        <ele>452</ele>
        <time>2025-11-11T11:36:41Z</time>
      </trkpt>
      <trkpt lat="45.70675" lon="4.65749">
        <ele>450.8</ele>
        <time>2025-11-11T11:36:42Z</time>
      </trkpt>
      <trkpt lat="45.70675" lon="4.65764">
        <ele>449.6</ele>
        <time>2025-11-11T11:36:43Z</time>
      </trkpt>
      <trkpt lat="45.70675" lon="4.65779">
        <ele>448.4</ele>
        <time>2025-11-11T11:36:44Z</time>
      </trkpt>
      <trkpt lat="45.70673" lon="4.65793">
        <ele>447.4</ele>
        <time>2025-11-11T11:36:45Z</time>
      </trkpt>
      <trkpt lat="45.70671" lon="4.65807">
        <ele>446.2</ele>
        <time>2025-11-11T11:36:46Z</time>
      </trkpt>
      <trkpt lat="45.70666" lon="4.6582">
        <ele>445</ele>
        <time>2025-11-11T11:36:47Z</time>
      </trkpt>
      <trkpt lat="45.70661" lon="4.65832">
        <ele>443.6</ele>
        <time>2025-11-11T11:36:48Z</time>
      </trkpt>
      <trkpt lat="45.70654" lon="4.65845">
        <ele>442.2</ele>
        <time>2025-11-11T11:36:49Z</time>
      </trkpt>
      <trkpt lat="45.70649" lon="4.65858">
        <ele>440.6</ele>
        <time>2025-11-11T11:36:50Z</time>
      </trkpt>
      <trkpt lat="45.70645" lon="4.65872">
        <ele>439.2</ele>
        <time>2025-11-11T11:36:51Z</time>
      </trkpt>
      <trkpt lat="45.70644" lon="4.65888">
        <ele>437.4</ele>
        <time>2025-11-11T11:36:52Z</time>
      </trkpt>
      <trkpt lat="45.70643" lon="4.65904">
        <ele>435.4</ele>
        <time>2025-11-11T11:36:53Z</time>
      </trkpt>
      <trkpt lat="45.70643" lon="4.6592">
        <ele>433.4</ele>
        <time>2025-11-11T11:36:54Z</time>
      </trkpt>
      <trkpt lat="45.70642" lon="4.65937">
        <ele>431.2</ele>
        <time>2025-11-11T11:36:55Z</time>
      </trkpt>
      <trkpt lat="45.70642" lon="4.65954">
        <ele>429.6</ele>
        <time>2025-11-11T11:36:56Z</time>
      </trkpt>
      <trkpt lat="45.70642" lon="4.65971">
        <ele>428.2</ele>
        <time>2025-11-11T11:36:57Z</time>
      </trkpt>
      <trkpt lat="45.70641" lon="4.65988">
        <ele>426.8</ele>
        <time>2025-11-11T11:36:58Z</time>
      </trkpt>
      <trkpt lat="45.70641" lon="4.66005">
        <ele>425.8</ele>
        <time>2025-11-11T11:36:59Z</time>
      </trkpt>
      <trkpt lat="45.7064" lon="4.66019">
        <ele>425</ele>
        <time>2025-11-11T11:37:00Z</time>
      </trkpt>
      <trkpt lat="45.7064" lon="4.66039">
        <ele>424</ele>
        <time>2025-11-11T11:37:01Z</time>
      </trkpt>
      <trkpt lat="45.70641" lon="4.66053">
        <ele>423</ele>
        <time>2025-11-11T11:37:02Z</time>
      </trkpt>
      <trkpt lat="45.7064" lon="4.66072">
        <ele>422.2</ele>
        <time>2025-11-11T11:37:03Z</time>
      </trkpt>
      <trkpt lat="45.70639" lon="4.66085">
        <ele>421.4</ele>
        <time>2025-11-11T11:37:04Z</time>
      </trkpt>
      <trkpt lat="45.70636" lon="4.66103">
        <ele>421</ele>
        <time>2025-11-11T11:37:05Z</time>
      </trkpt>
      <trkpt lat="45.70632" lon="4.66117">
        <ele>421</ele>
        <time>2025-11-11T11:37:06Z</time>
      </trkpt>
      <trkpt lat="45.70628" lon="4.66131">
        <ele>420.8</ele>
        <time>2025-11-11T11:37:07Z</time>
      </trkpt>
      <trkpt lat="45.70623" lon="4.66143">
        <ele>420.8</ele>
        <time>2025-11-11T11:37:08Z</time>
      </trkpt>
      <trkpt lat="45.70619" lon="4.66153">
        <ele>420.4</ele>
        <time>2025-11-11T11:37:09Z</time>
      </trkpt>
      <trkpt lat="45.70614" lon="4.66165">
        <ele>419.8</ele>
        <time>2025-11-11T11:37:10Z</time>
      </trkpt>
      <trkpt lat="45.70607" lon="4.66178">
        <ele>419.4</ele>
        <time>2025-11-11T11:37:11Z</time>
      </trkpt>
      <trkpt lat="45.70602" lon="4.66187">
        <ele>419</ele>
        <time>2025-11-11T11:37:12Z</time>
      </trkpt>
      <trkpt lat="45.70596" lon="4.66199">
        <ele>418.8</ele>
        <time>2025-11-11T11:37:13Z</time>
      </trkpt>
      <trkpt lat="45.70592" lon="4.66207">
        <ele>418.6</ele>
        <time>2025-11-11T11:37:14Z</time>
      </trkpt>
      <trkpt lat="45.7059" lon="4.66212">
        <ele>418.6</ele>
        <time>2025-11-11T11:37:15Z</time>
      </trkpt>
      <trkpt lat="45.70589" lon="4.66218">
        <ele>418.6</ele>
        <time>2025-11-11T11:37:16Z</time>
      </trkpt>
      <trkpt lat="45.70589" lon="4.66222">
        <ele>418.8</ele>
        <time>2025-11-11T11:37:17Z</time>
      </trkpt>
      <trkpt lat="45.70589" lon="4.66224">
        <ele>419.2</ele>
        <time>2025-11-11T11:37:18Z</time>
      </trkpt>
      <trkpt lat="45.7059" lon="4.66226">
        <ele>419.4</ele>
        <time>2025-11-11T11:37:19Z</time>
      </trkpt>
      <trkpt lat="45.70591" lon="4.66226">
        <ele>419.6</ele>
        <time>2025-11-11T11:37:20Z</time>
      </trkpt>
      <trkpt lat="45.70591" lon="4.66226">
        <ele>420</ele>
        <time>2025-11-11T11:37:21Z</time>
      </trkpt>
      <trkpt lat="45.70591" lon="4.66226">
        <ele>420</ele>
        <time>2025-11-11T11:37:22Z</time>
      </trkpt>
      <trkpt lat="45.70591" lon="4.66226">
        <ele>420.2</ele>
        <time>2025-11-11T11:37:23Z</time>
      </trkpt>
      <trkpt lat="45.70591" lon="4.66226">
        <ele>420.2</ele>
        <time>2025-11-11T11:37:24Z</time>
      </trkpt>
      <trkpt lat="45.70592" lon="4.66227">
        <ele>420.2</ele>
        <time>2025-11-11T11:37:25Z</time>
      </trkpt>
      <trkpt lat="45.70594" lon="4.66228">
        <ele>420</ele>
        <time>2025-11-11T11:37:26Z</time>
      </trkpt>
      <trkpt lat="45.70596" lon="4.66229">
        <ele>420</ele>
        <time>2025-11-11T11:37:27Z</time>
      </trkpt>
      <trkpt lat="45.706" lon="4.66231">
        <ele>419.8</ele>
        <time>2025-11-11T11:37:28Z</time>
      </trkpt>
      <trkpt lat="45.70604" lon="4.66232">
        <ele>419.4</ele>
        <time>2025-11-11T11:37:29Z</time>
      </trkpt>
      <trkpt lat="45.70608" lon="4.66234">
        <ele>419.2</ele>
        <time>2025-11-11T11:37:30Z</time>
      </trkpt>
      <trkpt lat="45.70612" lon="4.66237">
        <ele>419</ele>
        <time>2025-11-11T11:37:31Z</time>
      </trkpt>
      <trkpt lat="45.70617" lon="4.66239">
        <ele>418.8</ele>
        <time>2025-11-11T11:37:32Z</time>
      </trkpt>
      <trkpt lat="45.70621" lon="4.66241">
        <ele>418.8</ele>
        <time>2025-11-11T11:37:33Z</time>
      </trkpt>
      <trkpt lat="45.70626" lon="4.66243">
        <ele>418.6</ele>
        <time>2025-11-11T11:37:34Z</time>
      </trkpt>
      <trkpt lat="45.70631" lon="4.66245">
        <ele>418.4</ele>
        <time>2025-11-11T11:37:35Z</time>
      </trkpt>
      <trkpt lat="45.70637" lon="4.66246">
        <ele>418</ele>
        <time>2025-11-11T11:37:36Z</time>
      </trkpt>
      <trkpt lat="45.70643" lon="4.66247">
        <ele>417.6</ele>
        <time>2025-11-11T11:37:37Z</time>
      </trkpt>
      <trkpt lat="45.7065" lon="4.66248">
        <ele>417</ele>
        <time>2025-11-11T11:37:38Z</time>
      </trkpt>
      <trkpt lat="45.70657" lon="4.66249">
        <ele>416.4</ele>
        <time>2025-11-11T11:37:39Z</time>
      </trkpt>
      <trkpt lat="45.70663" lon="4.66249">
        <ele>415.6</ele>
        <time>2025-11-11T11:37:40Z</time>
      </trkpt>
      <trkpt lat="45.70668" lon="4.66248">
        <ele>415</ele>
        <time>2025-11-11T11:37:41Z</time>
      </trkpt>
      <trkpt lat="45.70672" lon="4.66245">
        <ele>414.4</ele>
        <time>2025-11-11T11:37:42Z</time>
      </trkpt>
      <trkpt lat="45.70677" lon="4.6624">
        <ele>413.8</ele>
        <time>2025-11-11T11:37:43Z</time>
      </trkpt>
      <trkpt lat="45.70682" lon="4.66233">
        <ele>413</ele>
        <time>2025-11-11T11:37:44Z</time>
      </trkpt>
      <trkpt lat="45.70688" lon="4.66225">
        <ele>411.6</ele>
        <time>2025-11-11T11:37:45Z</time>
      </trkpt>
      <trkpt lat="45.70694" lon="4.66219">
        <ele>410.4</ele>
        <time>2025-11-11T11:37:46Z</time>
      </trkpt>
      <trkpt lat="45.707" lon="4.66216">
        <ele>409.2</ele>
        <time>2025-11-11T11:37:47Z</time>
      </trkpt>
      <trkpt lat="45.70706" lon="4.66216">
        <ele>408.4</ele>
        <time>2025-11-11T11:37:48Z</time>
      </trkpt>
      <trkpt lat="45.70711" lon="4.66221">
        <ele>407.8</ele>
        <time>2025-11-11T11:37:49Z</time>
      </trkpt>
      <trkpt lat="45.70715" lon="4.66229">
        <ele>407.4</ele>
        <time>2025-11-11T11:37:50Z</time>
      </trkpt>
      <trkpt lat="45.70719" lon="4.66237">
        <ele>407</ele>
        <time>2025-11-11T11:37:51Z</time>
      </trkpt>
      <trkpt lat="45.70721" lon="4.66246">
        <ele>406.8</ele>
        <time>2025-11-11T11:37:52Z</time>
      </trkpt>
      <trkpt lat="45.70722" lon="4.66255">
        <ele>406.6</ele>
        <time>2025-11-11T11:37:53Z</time>
      </trkpt>
      <trkpt lat="45.70721" lon="4.66264">
        <ele>406.4</ele>
        <time>2025-11-11T11:37:54Z</time>
      </trkpt>
      <trkpt lat="45.70719" lon="4.66271">
        <ele>406.4</ele>
        <time>2025-11-11T11:37:55Z</time>
      </trkpt>
      <trkpt lat="45.70717" lon="4.66281">
        <ele>406.4</ele>
        <time>2025-11-11T11:37:56Z</time>
      </trkpt>
      <trkpt lat="45.70715" lon="4.6629">
        <ele>406.4</ele>
        <time>2025-11-11T11:37:57Z</time>
      </trkpt>
      <trkpt lat="45.70713" lon="4.66299">
        <ele>406.4</ele>
        <time>2025-11-11T11:37:58Z</time>
      </trkpt>
      <trkpt lat="45.7071" lon="4.66307">
        <ele>406.4</ele>
        <time>2025-11-11T11:37:59Z</time>
      </trkpt>
      <trkpt lat="45.70707" lon="4.66314">
        <ele>406.2</ele>
        <time>2025-11-11T11:38:00Z</time>
      </trkpt>
      <trkpt lat="45.70704" lon="4.66322">
        <ele>405.8</ele>
        <time>2025-11-11T11:38:01Z</time>
      </trkpt>
      <trkpt lat="45.70701" lon="4.6633">
        <ele>405.6</ele>
        <time>2025-11-11T11:38:02Z</time>
      </trkpt>
      <trkpt lat="45.70698" lon="4.66339">
        <ele>405</ele>
        <time>2025-11-11T11:38:03Z</time>
      </trkpt>
      <trkpt lat="45.70695" lon="4.66347">
        <ele>404.4</ele>
        <time>2025-11-11T11:38:04Z</time>
      </trkpt>
      <trkpt lat="45.70693" lon="4.66357">
        <ele>404</ele>
        <time>2025-11-11T11:38:05Z</time>
      </trkpt>
      <trkpt lat="45.7069" lon="4.66366">
        <ele>403.4</ele>
        <time>2025-11-11T11:38:06Z</time>
      </trkpt>
      <trkpt lat="45.70688" lon="4.66376">
        <ele>403</ele>
        <time>2025-11-11T11:38:07Z</time>
      </trkpt>
      <trkpt lat="45.70686" lon="4.66387">
        <ele>402.6</ele>
        <time>2025-11-11T11:38:08Z</time>
      </trkpt>
      <trkpt lat="45.70684" lon="4.66397">
        <ele>402</ele>
        <time>2025-11-11T11:38:09Z</time>
      </trkpt>
      <trkpt lat="45.70682" lon="4.66408">
        <ele>401.6</ele>
        <time>2025-11-11T11:38:10Z</time>
      </trkpt>
      <trkpt lat="45.7068" lon="4.66418">
        <ele>401.2</ele>
        <time>2025-11-11T11:38:11Z</time>
      </trkpt>
      <trkpt lat="45.70679" lon="4.66428">
        <ele>401</ele>
        <time>2025-11-11T11:38:12Z</time>
      </trkpt>
      <trkpt lat="45.70678" lon="4.66438">
        <ele>400.6</ele>
        <time>2025-11-11T11:38:13Z</time>
      </trkpt>
      <trkpt lat="45.70677" lon="4.66448">
        <ele>400.6</ele>
        <time>2025-11-11T11:38:14Z</time>
      </trkpt>
      <trkpt lat="45.70676" lon="4.66457">
        <ele>400.6</ele>
        <time>2025-11-11T11:38:15Z</time>
      </trkpt>
      <trkpt lat="45.70676" lon="4.66467">
        <ele>400.6</ele>
        <time>2025-11-11T11:38:16Z</time>
      </trkpt>
      <trkpt lat="45.70675" lon="4.66474">
        <ele>400.8</ele>
        <time>2025-11-11T11:38:17Z</time>
      </trkpt>
      <trkpt lat="45.70675" lon="4.66484">
        <ele>400.8</ele>
        <time>2025-11-11T11:38:18Z</time>
      </trkpt>
      <trkpt lat="45.70674" lon="4.66493">
        <ele>401</ele>
        <time>2025-11-11T11:38:19Z</time>
      </trkpt>
      <trkpt lat="45.70674" lon="4.66501">
        <ele>401.2</ele>
        <time>2025-11-11T11:38:20Z</time>
      </trkpt>
      <trkpt lat="45.70674" lon="4.66508">
        <ele>401.4</ele>
        <time>2025-11-11T11:38:21Z</time>
      </trkpt>
      <trkpt lat="45.70674" lon="4.66516">
        <ele>401.6</ele>
        <time>2025-11-11T11:38:22Z</time>
      </trkpt>
      <trkpt lat="45.70674" lon="4.66523">
        <ele>401.8</ele>
        <time>2025-11-11T11:38:23Z</time>
      </trkpt>
      <trkpt lat="45.70675" lon="4.66531">
        <ele>402</ele>
        <time>2025-11-11T11:38:24Z</time>
      </trkpt>
      <trkpt lat="45.70675" lon="4.66539">
        <ele>402.2</ele>
        <time>2025-11-11T11:38:25Z</time>
      </trkpt>
      <trkpt lat="45.70675" lon="4.66547">
        <ele>402.4</ele>
        <time>2025-11-11T11:38:26Z</time>
      </trkpt>
      <trkpt lat="45.70675" lon="4.66554">
        <ele>402.6</ele>
        <time>2025-11-11T11:38:27Z</time>
      </trkpt>
      <trkpt lat="45.70675" lon="4.66562">
        <ele>402.8</ele>
        <time>2025-11-11T11:38:28Z</time>
      </trkpt>
      <trkpt lat="45.70674" lon="4.6657">
        <ele>403</ele>
        <time>2025-11-11T11:38:29Z</time>
      </trkpt>
      <trkpt lat="45.70673" lon="4.66578">
        <ele>402.8</ele>
        <time>2025-11-11T11:38:30Z</time>
      </trkpt>
      <trkpt lat="45.70672" lon="4.66586">
        <ele>402.8</ele>
        <time>2025-11-11T11:38:31Z</time>
      </trkpt>
      <trkpt lat="45.70671" lon="4.66594">
        <ele>402.6</ele>
        <time>2025-11-11T11:38:32Z</time>
      </trkpt>
      <trkpt lat="45.7067" lon="4.66601">
        <ele>402.4</ele>
        <time>2025-11-11T11:38:33Z</time>
      </trkpt>
      <trkpt lat="45.70669" lon="4.66609">
        <ele>402.2</ele>
        <time>2025-11-11T11:38:34Z</time>
      </trkpt>
      <trkpt lat="45.70669" lon="4.66616">
        <ele>402.2</ele>
        <time>2025-11-11T11:38:35Z</time>
      </trkpt>
      <trkpt lat="45.70669" lon="4.66624">
        <ele>402.2</ele>
        <time>2025-11-11T11:38:36Z</time>
      </trkpt>
      <trkpt lat="45.70669" lon="4.66631">
        <ele>402</ele>
        <time>2025-11-11T11:38:37Z</time>
      </trkpt>
      <trkpt lat="45.7067" lon="4.66637">
        <ele>402</ele>
        <time>2025-11-11T11:38:38Z</time>
      </trkpt>
      <trkpt lat="45.70672" lon="4.66646">
        <ele>402</ele>
        <time>2025-11-11T11:38:39Z</time>
      </trkpt>
      <trkpt lat="45.70675" lon="4.66653">
        <ele>401.8</ele>
        <time>2025-11-11T11:38:40Z</time>
      </trkpt>
      <trkpt lat="45.70678" lon="4.6666">
        <ele>401.8</ele>
        <time>2025-11-11T11:38:41Z</time>
      </trkpt>
      <trkpt lat="45.70681" lon="4.66666">
        <ele>401.8</ele>
        <time>2025-11-11T11:38:42Z</time>
      </trkpt>
      <trkpt lat="45.70684" lon="4.66673">
        <ele>402</ele>
        <time>2025-11-11T11:38:43Z</time>
      </trkpt>
      <trkpt lat="45.70687" lon="4.66678">
        <ele>402</ele>
        <time>2025-11-11T11:38:44Z</time>
      </trkpt>
      <trkpt lat="45.7069" lon="4.66684">
        <ele>402.4</ele>
        <time>2025-11-11T11:38:45Z</time>
      </trkpt>
      <trkpt lat="45.70693" lon="4.66689">
        <ele>402.6</ele>
        <time>2025-11-11T11:38:46Z</time>
      </trkpt>
      <trkpt lat="45.70697" lon="4.66694">
        <ele>402.8</ele>
        <time>2025-11-11T11:38:47Z</time>
      </trkpt>
      <trkpt lat="45.707" lon="4.66699">
        <ele>403.2</ele>
        <time>2025-11-11T11:38:48Z</time>
      </trkpt>
      <trkpt lat="45.70703" lon="4.66703">
        <ele>403.4</ele>
        <time>2025-11-11T11:38:49Z</time>
      </trkpt>
      <trkpt lat="45.70706" lon="4.66708">
        <ele>403.6</ele>
        <time>2025-11-11T11:38:50Z</time>
      </trkpt>
      <trkpt lat="45.7071" lon="4.66714">
        <ele>403.6</ele>
        <time>2025-11-11T11:38:51Z</time>
      </trkpt>
      <trkpt lat="45.70714" lon="4.66719">
        <ele>403.8</ele>
        <time>2025-11-11T11:38:52Z</time>
      </trkpt>
      <trkpt lat="45.70718" lon="4.66723">
        <ele>403.8</ele>
        <time>2025-11-11T11:38:53Z</time>
      </trkpt>
      <trkpt lat="45.70722" lon="4.66727">
        <ele>403.8</ele>
        <time>2025-11-11T11:38:54Z</time>
      </trkpt>
      <trkpt lat="45.70727" lon="4.66732">
        <ele>403.6</ele>
        <time>2025-11-11T11:38:55Z</time>
      </trkpt>
      <trkpt lat="45.70732" lon="4.66737">
        <ele>403.6</ele>
        <time>2025-11-11T11:38:56Z</time>
      </trkpt>
      <trkpt lat="45.70736" lon="4.66742">
        <ele>403.6</ele>
        <time>2025-11-11T11:38:57Z</time>
      </trkpt>
      <trkpt lat="45.70741" lon="4.66747">
        <ele>403.4</ele>
        <time>2025-11-11T11:38:58Z</time>
      </trkpt>
      <trkpt lat="45.70746" lon="4.66751">
        <ele>403.2</ele>
        <time>2025-11-11T11:38:59Z</time>
      </trkpt>
      <trkpt lat="45.7075" lon="4.66754">
        <ele>403.2</ele>
        <time>2025-11-11T11:39:00Z</time>
      </trkpt>
      <trkpt lat="45.70756" lon="4.6676">
        <ele>402.8</ele>
        <time>2025-11-11T11:39:01Z</time>
      </trkpt>
      <trkpt lat="45.70761" lon="4.66764">
        <ele>402.4</ele>
        <time>2025-11-11T11:39:02Z</time>
      </trkpt>
      <trkpt lat="45.70767" lon="4.66768">
        <ele>402.2</ele>
        <time>2025-11-11T11:39:03Z</time>
      </trkpt>
      <trkpt lat="45.70772" lon="4.66771">
        <ele>401.6</ele>
        <time>2025-11-11T11:39:04Z</time>
      </trkpt>
      <trkpt lat="45.70779" lon="4.66777">
        <ele>401</ele>
        <time>2025-11-11T11:39:05Z</time>
      </trkpt>
      <trkpt lat="45.70785" lon="4.66781">
        <ele>400.6</ele>
        <time>2025-11-11T11:39:06Z</time>
      </trkpt>
      <trkpt lat="45.70792" lon="4.66786">
        <ele>400</ele>
        <time>2025-11-11T11:39:07Z</time>
      </trkpt>
      <trkpt lat="45.70798" lon="4.6679">
        <ele>399.4</ele>
        <time>2025-11-11T11:39:08Z</time>
      </trkpt>
      <trkpt lat="45.70804" lon="4.66793">
        <ele>399</ele>
        <time>2025-11-11T11:39:09Z</time>
      </trkpt>
      <trkpt lat="45.70808" lon="4.66796">
        <ele>398.8</ele>
        <time>2025-11-11T11:39:10Z</time>
      </trkpt>
      <trkpt lat="45.70811" lon="4.66799">
        <ele>398.6</ele>
        <time>2025-11-11T11:39:11Z</time>
      </trkpt>
      <trkpt lat="45.70811" lon="4.66802">
        <ele>398.4</ele>
        <time>2025-11-11T11:39:12Z</time>
      </trkpt>
      <trkpt lat="45.70811" lon="4.66804">
        <ele>398.4</ele>
        <time>2025-11-11T11:39:13Z</time>
      </trkpt>
      <trkpt lat="45.70809" lon="4.66806">
        <ele>398.4</ele>
        <time>2025-11-11T11:39:14Z</time>
      </trkpt>
      <trkpt lat="45.70808" lon="4.66808">
        <ele>398.4</ele>
        <time>2025-11-11T11:39:15Z</time>
      </trkpt>
      <trkpt lat="45.70807" lon="4.66809">
        <ele>398.2</ele>
        <time>2025-11-11T11:39:16Z</time>
      </trkpt>
      <trkpt lat="45.70805" lon="4.66812">
        <ele>398</ele>
        <time>2025-11-11T11:39:17Z</time>
      </trkpt>
      <trkpt lat="45.70803" lon="4.66815">
        <ele>397.8</ele>
        <time>2025-11-11T11:39:18Z</time>
      </trkpt>
      <trkpt lat="45.70801" lon="4.66818">
        <ele>397.6</ele>
        <time>2025-11-11T11:39:19Z</time>
      </trkpt>
      <trkpt lat="45.70799" lon="4.66821">
        <ele>397.4</ele>
        <time>2025-11-11T11:39:20Z</time>
      </trkpt>
      <trkpt lat="45.70796" lon="4.66825">
        <ele>397</ele>
        <time>2025-11-11T11:39:21Z</time>
      </trkpt>
      <trkpt lat="45.70791" lon="4.6683">
        <ele>396.6</ele>
        <time>2025-11-11T11:39:22Z</time>
      </trkpt>
      <trkpt lat="45.70788" lon="4.66834">
        <ele>396.4</ele>
        <time>2025-11-11T11:39:23Z</time>
      </trkpt>
      <trkpt lat="45.70784" lon="4.66839">
        <ele>395.8</ele>
        <time>2025-11-11T11:39:24Z</time>
      </trkpt>
      <trkpt lat="45.70781" lon="4.66843">
        <ele>395.4</ele>
        <time>2025-11-11T11:39:25Z</time>
      </trkpt>
      <trkpt lat="45.70776" lon="4.6685">
        <ele>394.8</ele>
        <time>2025-11-11T11:39:26Z</time>
      </trkpt>
      <trkpt lat="45.70772" lon="4.66856">
        <ele>394.2</ele>
        <time>2025-11-11T11:39:27Z</time>
      </trkpt>
      <trkpt lat="45.70767" lon="4.66863">
        <ele>393.4</ele>
        <time>2025-11-11T11:39:28Z</time>
      </trkpt>
      <trkpt lat="45.70763" lon="4.66869">
        <ele>392.6</ele>
        <time>2025-11-11T11:39:29Z</time>
      </trkpt>
      <trkpt lat="45.70758" lon="4.66876">
        <ele>392</ele>
        <time>2025-11-11T11:39:30Z</time>
      </trkpt>
      <trkpt lat="45.70753" lon="4.66883">
        <ele>391.2</ele>
        <time>2025-11-11T11:39:31Z</time>
      </trkpt>
      <trkpt lat="45.70748" lon="4.6689">
        <ele>390.6</ele>
        <time>2025-11-11T11:39:32Z</time>
      </trkpt>
      <trkpt lat="45.70743" lon="4.66897">
        <ele>390</ele>
        <time>2025-11-11T11:39:33Z</time>
      </trkpt>
      <trkpt lat="45.70738" lon="4.66904">
        <ele>389.4</ele>
        <time>2025-11-11T11:39:34Z</time>
      </trkpt>
      <trkpt lat="45.70734" lon="4.66911">
        <ele>388.8</ele>
        <time>2025-11-11T11:39:35Z</time>
      </trkpt>
      <trkpt lat="45.70729" lon="4.66918">
        <ele>388.2</ele>
        <time>2025-11-11T11:39:36Z</time>
      </trkpt>
      <trkpt lat="45.70724" lon="4.66925">
        <ele>388</ele>
        <time>2025-11-11T11:39:37Z</time>
      </trkpt>
      <trkpt lat="45.70719" lon="4.66932">
        <ele>387.6</ele>
        <time>2025-11-11T11:39:38Z</time>
      </trkpt>
      <trkpt lat="45.70715" lon="4.66939">
        <ele>387.2</ele>
        <time>2025-11-11T11:39:39Z</time>
      </trkpt>
      <trkpt lat="45.70711" lon="4.66947">
        <ele>386.8</ele>
        <time>2025-11-11T11:39:40Z</time>
      </trkpt>
      <trkpt lat="45.70707" lon="4.66954">
        <ele>386.4</ele>
        <time>2025-11-11T11:39:41Z</time>
      </trkpt>
      <trkpt lat="45.70702" lon="4.66962">
        <ele>385.6</ele>
        <time>2025-11-11T11:39:42Z</time>
      </trkpt>
      <trkpt lat="45.70699" lon="4.66968">
        <ele>385</ele>
        <time>2025-11-11T11:39:43Z</time>
      </trkpt>
      <trkpt lat="45.70694" lon="4.66977">
        <ele>384.2</ele>
        <time>2025-11-11T11:39:44Z</time>
      </trkpt>
      <trkpt lat="45.70689" lon="4.66984">
        <ele>383.6</ele>
        <time>2025-11-11T11:39:45Z</time>
      </trkpt>
      <trkpt lat="45.70684" lon="4.66991">
        <ele>383</ele>
        <time>2025-11-11T11:39:46Z</time>
      </trkpt>
      <trkpt lat="45.70679" lon="4.66998">
        <ele>382.4</ele>
        <time>2025-11-11T11:39:47Z</time>
      </trkpt>
      <trkpt lat="45.70674" lon="4.67004">
        <ele>381.8</ele>
        <time>2025-11-11T11:39:48Z</time>
      </trkpt>
      <trkpt lat="45.70667" lon="4.67012">
        <ele>381.2</ele>
        <time>2025-11-11T11:39:49Z</time>
      </trkpt>
      <trkpt lat="45.70661" lon="4.67019">
        <ele>380.4</ele>
        <time>2025-11-11T11:39:50Z</time>
      </trkpt>
      <trkpt lat="45.70656" lon="4.67026">
        <ele>379.8</ele>
        <time>2025-11-11T11:39:51Z</time>
      </trkpt>
      <trkpt lat="45.7065" lon="4.6703">
        <ele>379.2</ele>
        <time>2025-11-11T11:39:52Z</time>
      </trkpt>
      <trkpt lat="45.70644" lon="4.67033">
        <ele>378.6</ele>
        <time>2025-11-11T11:39:53Z</time>
      </trkpt>
      <trkpt lat="45.70637" lon="4.67037">
        <ele>378.2</ele>
        <time>2025-11-11T11:39:54Z</time>
      </trkpt>
      <trkpt lat="45.70631" lon="4.67041">
        <ele>377.6</ele>
        <time>2025-11-11T11:39:55Z</time>
      </trkpt>
      <trkpt lat="45.70624" lon="4.67045">
        <ele>376.8</ele>
        <time>2025-11-11T11:39:56Z</time>
      </trkpt>
      <trkpt lat="45.70617" lon="4.67049">
        <ele>376.2</ele>
        <time>2025-11-11T11:39:57Z</time>
      </trkpt>
      <trkpt lat="45.7061" lon="4.67052">
        <ele>375.6</ele>
        <time>2025-11-11T11:39:58Z</time>
      </trkpt>
      <trkpt lat="45.70602" lon="4.67055">
        <ele>374.8</ele>
        <time>2025-11-11T11:39:59Z</time>
      </trkpt>
      <trkpt lat="45.70595" lon="4.67058">
        <ele>374.2</ele>
        <time>2025-11-11T11:40:00Z</time>
      </trkpt>
      <trkpt lat="45.70589" lon="4.6706">
        <ele>373.8</ele>
        <time>2025-11-11T11:40:01Z</time>
      </trkpt>
      <trkpt lat="45.70585" lon="4.67063">
        <ele>373.6</ele>
        <time>2025-11-11T11:40:02Z</time>
      </trkpt>
      <trkpt lat="45.70581" lon="4.67062">
        <ele>373.4</ele>
        <time>2025-11-11T11:40:03Z</time>
      </trkpt>
      <trkpt lat="45.70578" lon="4.67061">
        <ele>373.4</ele>
        <time>2025-11-11T11:40:04Z</time>
      </trkpt>
      <trkpt lat="45.70575" lon="4.67059">
        <ele>373.2</ele>
        <time>2025-11-11T11:40:05Z</time>
      </trkpt>
      <trkpt lat="45.70571" lon="4.6706">
        <ele>372.8</ele>
        <time>2025-11-11T11:40:06Z</time>
      </trkpt>
      <trkpt lat="45.70567" lon="4.67062">
        <ele>372.4</ele>
        <time>2025-11-11T11:40:07Z</time>
      </trkpt>
      <trkpt lat="45.70564" lon="4.67065">
        <ele>372</ele>
        <time>2025-11-11T11:40:08Z</time>
      </trkpt>
      <trkpt lat="45.70561" lon="4.67068">
        <ele>371.4</ele>
        <time>2025-11-11T11:40:09Z</time>
      </trkpt>
      <trkpt lat="45.70559" lon="4.6707">
        <ele>371</ele>
        <time>2025-11-11T11:40:10Z</time>
      </trkpt>
      <trkpt lat="45.70557" lon="4.67073">
        <ele>370.6</ele>
        <time>2025-11-11T11:40:11Z</time>
      </trkpt>
      <trkpt lat="45.70554" lon="4.67075">
        <ele>370.2</ele>
        <time>2025-11-11T11:40:12Z</time>
      </trkpt>
      <trkpt lat="45.70552" lon="4.67077">
        <ele>369.6</ele>
        <time>2025-11-11T11:40:13Z</time>
      </trkpt>
      <trkpt lat="45.70548" lon="4.6708">
        <ele>369.2</ele>
        <time>2025-11-11T11:40:14Z</time>
      </trkpt>
      <trkpt lat="45.70545" lon="4.67083">
        <ele>368.4</ele>
        <time>2025-11-11T11:40:15Z</time>
      </trkpt>
      <trkpt lat="45.70541" lon="4.67087">
        <ele>367.8</ele>
        <time>2025-11-11T11:40:16Z</time>
      </trkpt>
      <trkpt lat="45.70537" lon="4.67091">
        <ele>367</ele>
        <time>2025-11-11T11:40:17Z</time>
      </trkpt>
      <trkpt lat="45.70534" lon="4.67094">
        <ele>366.4</ele>
        <time>2025-11-11T11:40:18Z</time>
      </trkpt>
      <trkpt lat="45.7053" lon="4.671">
        <ele>365.6</ele>
        <time>2025-11-11T11:40:19Z</time>
      </trkpt>
      <trkpt lat="45.70527" lon="4.67105">
        <ele>365</ele>
        <time>2025-11-11T11:40:20Z</time>
      </trkpt>
      <trkpt lat="45.70523" lon="4.67108">
        <ele>364.6</ele>
        <time>2025-11-11T11:40:21Z</time>
      </trkpt>
      <trkpt lat="45.70519" lon="4.67111">
        <ele>364.2</ele>
        <time>2025-11-11T11:40:22Z</time>
      </trkpt>
      <trkpt lat="45.70515" lon="4.67115">
        <ele>363.6</ele>
        <time>2025-11-11T11:40:23Z</time>
      </trkpt>
      <trkpt lat="45.70511" lon="4.67119">
        <ele>363</ele>
        <time>2025-11-11T11:40:24Z</time>
      </trkpt>
      <trkpt lat="45.70507" lon="4.67123">
        <ele>362.2</ele>
        <time>2025-11-11T11:40:25Z</time>
      </trkpt>
      <trkpt lat="45.70504" lon="4.67127">
        <ele>361.6</ele>
        <time>2025-11-11T11:40:26Z</time>
      </trkpt>
      <trkpt lat="45.70499" lon="4.67132">
        <ele>361.2</ele>
        <time>2025-11-11T11:40:27Z</time>
      </trkpt>
      <trkpt lat="45.70494" lon="4.67136">
        <ele>360.6</ele>
        <time>2025-11-11T11:40:28Z</time>
      </trkpt>
      <trkpt lat="45.7049" lon="4.67139">
        <ele>360</ele>
        <time>2025-11-11T11:40:29Z</time>
      </trkpt>
      <trkpt lat="45.70486" lon="4.67143">
        <ele>359.4</ele>
        <time>2025-11-11T11:40:30Z</time>
      </trkpt>
      <trkpt lat="45.70483" lon="4.67147">
        <ele>358.8</ele>
        <time>2025-11-11T11:40:31Z</time>
      </trkpt>
      <trkpt lat="45.70479" lon="4.67151">
        <ele>358.2</ele>
        <time>2025-11-11T11:40:32Z</time>
      </trkpt>
      <trkpt lat="45.70476" lon="4.67154">
        <ele>357.6</ele>
        <time>2025-11-11T11:40:33Z</time>
      </trkpt>
      <trkpt lat="45.70472" lon="4.67157">
        <ele>357</ele>
        <time>2025-11-11T11:40:34Z</time>
      </trkpt>
      <trkpt lat="45.70469" lon="4.6716">
        <ele>356.6</ele>
        <time>2025-11-11T11:40:35Z</time>
      </trkpt>
      <trkpt lat="45.70466" lon="4.67165">
        <ele>356</ele>
        <time>2025-11-11T11:40:36Z</time>
      </trkpt>
      <trkpt lat="45.70461" lon="4.6717">
        <ele>355.2</ele>
        <time>2025-11-11T11:40:37Z</time>
      </trkpt>
      <trkpt lat="45.70456" lon="4.67176">
        <ele>354.4</ele>
        <time>2025-11-11T11:40:38Z</time>
      </trkpt>
      <trkpt lat="45.70452" lon="4.67181">
        <ele>353.4</ele>
        <time>2025-11-11T11:40:39Z</time>
      </trkpt>
      <trkpt lat="45.70448" lon="4.67186">
        <ele>352.6</ele>
        <time>2025-11-11T11:40:40Z</time>
      </trkpt>
      <trkpt lat="45.70445" lon="4.67191">
        <ele>352.2</ele>
        <time>2025-11-11T11:40:41Z</time>
      </trkpt>
      <trkpt lat="45.70444" lon="4.67196">
        <ele>351.8</ele>
        <time>2025-11-11T11:40:42Z</time>
      </trkpt>
      <trkpt lat="45.70444" lon="4.67198">
        <ele>351.6</ele>
        <time>2025-11-11T11:40:43Z</time>
      </trkpt>
      <trkpt lat="45.70444" lon="4.67198">
        <ele>351.6</ele>
        <time>2025-11-11T11:40:44Z</time>
      </trkpt>
      <trkpt lat="45.70443" lon="4.67198">
        <ele>351.6</ele>
        <time>2025-11-11T11:40:45Z</time>
      </trkpt>
      <trkpt lat="45.70443" lon="4.67198">
        <ele>351.6</ele>
        <time>2025-11-11T11:40:46Z</time>
      </trkpt>
      <trkpt lat="45.70443" lon="4.67198">
        <ele>351.6</ele>
        <time>2025-11-11T11:40:47Z</time>
      </trkpt>
      <trkpt lat="45.70443" lon="4.67198">
        <ele>351.6</ele>
        <time>2025-11-11T11:40:48Z</time>
      </trkpt>
      <trkpt lat="45.70443" lon="4.67198">
        <ele>351.6</ele>
        <time>2025-11-11T11:40:49Z</time>
      </trkpt>
      <trkpt lat="45.70443" lon="4.67198">
        <ele>351.6</ele>
        <time>2025-11-11T11:40:50Z</time>
      </trkpt>
      <trkpt lat="45.70443" lon="4.67198">
        <ele>351.6</ele>
        <time>2025-11-11T11:40:51Z</time>
      </trkpt>
      <trkpt lat="45.70443" lon="4.67198">
        <ele>351.6</ele>
        <time>2025-11-11T11:40:52Z</time>
      </trkpt>
      <trkpt lat="45.70443" lon="4.67198">
        <ele>351.4</ele>
        <time>2025-11-11T11:40:53Z</time>
      </trkpt>
      <trkpt lat="45.70443" lon="4.67198">
        <ele>351.4</ele>
        <time>2025-11-11T11:40:54Z</time>
      </trkpt>
      <trkpt lat="45.70443" lon="4.67198">
        <ele>351.4</ele>
        <time>2025-11-11T11:40:55Z</time>
      </trkpt>
      <trkpt lat="45.70443" lon="4.67198">
        <ele>351.4</ele>
        <time>2025-11-11T11:40:56Z</time>
      </trkpt>
      <trkpt lat="45.70443" lon="4.67198">
        <ele>351.4</ele>
        <time>2025-11-11T11:40:57Z</time>
      </trkpt>
      <trkpt lat="45.70443" lon="4.67198">
        <ele>351.4</ele>
        <time>2025-11-11T11:40:58Z</time>
      </trkpt>
      <trkpt lat="45.70444" lon="4.67199">
        <ele>351.4</ele>
        <time>2025-11-11T11:40:59Z</time>
      </trkpt>
      <trkpt lat="45.70444" lon="4.672">
        <ele>351.6</ele>
        <time>2025-11-11T11:41:00Z</time>
      </trkpt>
      <trkpt lat="45.70446" lon="4.67202">
        <ele>351.6</ele>
        <time>2025-11-11T11:41:01Z</time>
      </trkpt>
      <trkpt lat="45.70448" lon="4.67204">
        <ele>351.4</ele>
        <time>2025-11-11T11:41:02Z</time>
      </trkpt>
      <trkpt lat="45.7045" lon="4.67205">
        <ele>351.4</ele>
        <time>2025-11-11T11:41:03Z</time>
      </trkpt>
      <trkpt lat="45.70453" lon="4.67206">
        <ele>351.2</ele>
        <time>2025-11-11T11:41:04Z</time>
      </trkpt>
      <trkpt lat="45.70457" lon="4.67208">
        <ele>351.2</ele>
        <time>2025-11-11T11:41:05Z</time>
      </trkpt>
      <trkpt lat="45.70461" lon="4.6721">
        <ele>351</ele>
        <time>2025-11-11T11:41:06Z</time>
      </trkpt>
      <trkpt lat="45.70465" lon="4.67212">
        <ele>351</ele>
        <time>2025-11-11T11:41:07Z</time>
      </trkpt>
      <trkpt lat="45.70469" lon="4.67214">
        <ele>351</ele>
        <time>2025-11-11T11:41:08Z</time>
      </trkpt>
      <trkpt lat="45.70473" lon="4.67216">
        <ele>351</ele>
        <time>2025-11-11T11:41:09Z</time>
      </trkpt>
      <trkpt lat="45.70479" lon="4.67217">
        <ele>351</ele>
        <time>2025-11-11T11:41:10Z</time>
      </trkpt>
      <trkpt lat="45.70484" lon="4.67218">
        <ele>351.2</ele>
        <time>2025-11-11T11:41:11Z</time>
      </trkpt>
      <trkpt lat="45.70488" lon="4.67219">
        <ele>351.4</ele>
        <time>2025-11-11T11:41:12Z</time>
      </trkpt>
      <trkpt lat="45.70493" lon="4.67219">
        <ele>351.6</ele>
        <time>2025-11-11T11:41:13Z</time>
      </trkpt>
      <trkpt lat="45.70497" lon="4.67219">
        <ele>351.8</ele>
        <time>2025-11-11T11:41:14Z</time>
      </trkpt>
      <trkpt lat="45.70501" lon="4.67218">
        <ele>352.2</ele>
        <time>2025-11-11T11:41:15Z</time>
      </trkpt>
      <trkpt lat="45.70505" lon="4.67218">
        <ele>352.6</ele>
        <time>2025-11-11T11:41:16Z</time>
      </trkpt>
      <trkpt lat="45.70509" lon="4.67217">
        <ele>352.8</ele>
        <time>2025-11-11T11:41:17Z</time>
      </trkpt>
      <trkpt lat="45.70513" lon="4.67216">
        <ele>353.2</ele>
        <time>2025-11-11T11:41:18Z</time>
      </trkpt>
      <trkpt lat="45.70518" lon="4.67216">
        <ele>353.4</ele>
        <time>2025-11-11T11:41:19Z</time>
      </trkpt>
      <trkpt lat="45.70522" lon="4.67216">
        <ele>353.8</ele>
        <time>2025-11-11T11:41:20Z</time>
      </trkpt>
      <trkpt lat="45.70526" lon="4.67216">
        <ele>354.2</ele>
        <time>2025-11-11T11:41:21Z</time>
      </trkpt>
      <trkpt lat="45.7053" lon="4.67216">
        <ele>354.6</ele>
        <time>2025-11-11T11:41:22Z</time>
      </trkpt>
      <trkpt lat="45.70533" lon="4.67216">
        <ele>355</ele>
        <time>2025-11-11T11:41:23Z</time>
      </trkpt>
      <trkpt lat="45.70537" lon="4.67217">
        <ele>355.4</ele>
        <time>2025-11-11T11:41:24Z</time>
      </trkpt>
      <trkpt lat="45.7054" lon="4.67217">
        <ele>355.8</ele>
        <time>2025-11-11T11:41:25Z</time>
      </trkpt>
      <trkpt lat="45.70543" lon="4.67216">
        <ele>356.4</ele>
        <time>2025-11-11T11:41:26Z</time>
      </trkpt>
      <trkpt lat="45.70547" lon="4.67216">
        <ele>356.8</ele>
        <time>2025-11-11T11:41:27Z</time>
      </trkpt>
      <trkpt lat="45.70551" lon="4.67216">
        <ele>357.2</ele>
        <time>2025-11-11T11:41:28Z</time>
      </trkpt>
      <trkpt lat="45.70554" lon="4.67217">
        <ele>357.6</ele>
        <time>2025-11-11T11:41:29Z</time>
      </trkpt>
      <trkpt lat="45.70558" lon="4.67217">
        <ele>358</ele>
        <time>2025-11-11T11:41:30Z</time>
      </trkpt>
      <trkpt lat="45.7056" lon="4.67216">
        <ele>358.4</ele>
        <time>2025-11-11T11:41:31Z</time>
      </trkpt>
      <trkpt lat="45.70565" lon="4.67216">
        <ele>358.8</ele>
        <time>2025-11-11T11:41:32Z</time>
      </trkpt>
      <trkpt lat="45.7057" lon="4.67215">
        <ele>359.2</ele>
        <time>2025-11-11T11:41:33Z</time>
      </trkpt>
      <trkpt lat="45.70573" lon="4.67214">
        <ele>359.6</ele>
        <time>2025-11-11T11:41:34Z</time>
      </trkpt>
      <trkpt lat="45.70576" lon="4.67214">
        <ele>360</ele>
        <time>2025-11-11T11:41:35Z</time>
      </trkpt>
      <trkpt lat="45.7058" lon="4.67214">
        <ele>360.4</ele>
        <time>2025-11-11T11:41:36Z</time>
      </trkpt>
      <trkpt lat="45.70584" lon="4.67213">
        <ele>360.8</ele>
        <time>2025-11-11T11:41:37Z</time>
      </trkpt>
      <trkpt lat="45.70588" lon="4.67212">
        <ele>361.2</ele>
        <time>2025-11-11T11:41:38Z</time>
      </trkpt>
      <trkpt lat="45.70591" lon="4.67212">
        <ele>361.6</ele>
        <time>2025-11-11T11:41:39Z</time>
      </trkpt>
      <trkpt lat="45.70594" lon="4.67212">
        <ele>361.8</ele>
        <time>2025-11-11T11:41:40Z</time>
      </trkpt>
      <trkpt lat="45.70598" lon="4.67211">
        <ele>362.2</ele>
        <time>2025-11-11T11:41:41Z</time>
      </trkpt>
      <trkpt lat="45.70602" lon="4.67211">
        <ele>362.6</ele>
        <time>2025-11-11T11:41:42Z</time>
      </trkpt>
      <trkpt lat="45.70605" lon="4.6721">
        <ele>363</ele>
        <time>2025-11-11T11:41:43Z</time>
      </trkpt>
      <trkpt lat="45.70608" lon="4.6721">
        <ele>363.4</ele>
        <time>2025-11-11T11:41:44Z</time>
      </trkpt>
      <trkpt lat="45.70612" lon="4.6721">
        <ele>363.8</ele>
        <time>2025-11-11T11:41:45Z</time>
      </trkpt>
      <trkpt lat="45.70615" lon="4.6721">
        <ele>364</ele>
        <time>2025-11-11T11:41:46Z</time>
      </trkpt>
      <trkpt lat="45.70619" lon="4.6721">
        <ele>364.4</ele>
        <time>2025-11-11T11:41:47Z</time>
      </trkpt>
      <trkpt lat="45.70623" lon="4.67209">
        <ele>364.6</ele>
        <time>2025-11-11T11:41:48Z</time>
      </trkpt>
      <trkpt lat="45.70626" lon="4.67209">
        <ele>365</ele>
        <time>2025-11-11T11:41:49Z</time>
      </trkpt>
      <trkpt lat="45.7063" lon="4.67209">
        <ele>365.4</ele>
        <time>2025-11-11T11:41:50Z</time>
      </trkpt>
      <trkpt lat="45.70633" lon="4.67209">
        <ele>365.8</ele>
        <time>2025-11-11T11:41:51Z</time>
      </trkpt>
      <trkpt lat="45.70636" lon="4.6721">
        <ele>366.2</ele>
        <time>2025-11-11T11:41:52Z</time>
      </trkpt>
      <trkpt lat="45.70639" lon="4.67209">
        <ele>366.4</ele>
        <time>2025-11-11T11:41:53Z</time>
      </trkpt>
      <trkpt lat="45.70644" lon="4.67209">
        <ele>366.8</ele>
        <time>2025-11-11T11:41:54Z</time>
      </trkpt>
      <trkpt lat="45.70648" lon="4.67209">
        <ele>367</ele>
        <time>2025-11-11T11:41:55Z</time>
      </trkpt>
      <trkpt lat="45.70652" lon="4.67209">
        <ele>367.2</ele>
        <time>2025-11-11T11:41:56Z</time>
      </trkpt>
      <trkpt lat="45.70656" lon="4.67209">
        <ele>367.4</ele>
        <time>2025-11-11T11:41:57Z</time>
      </trkpt>
      <trkpt lat="45.7066" lon="4.67208">
        <ele>367.6</ele>
        <time>2025-11-11T11:41:58Z</time>
      </trkpt>
      <trkpt lat="45.70664" lon="4.67208">
        <ele>367.8</ele>
        <time>2025-11-11T11:41:59Z</time>
      </trkpt>
      <trkpt lat="45.70667" lon="4.67208">
        <ele>368</ele>
        <time>2025-11-11T11:42:00Z</time>
      </trkpt>
      <trkpt lat="45.70671" lon="4.67207">
        <ele>368.2</ele>
        <time>2025-11-11T11:42:01Z</time>
      </trkpt>
      <trkpt lat="45.70675" lon="4.67207">
        <ele>368.4</ele>
        <time>2025-11-11T11:42:02Z</time>
      </trkpt>
      <trkpt lat="45.70678" lon="4.67207">
        <ele>368.8</ele>
        <time>2025-11-11T11:42:03Z</time>
      </trkpt>
      <trkpt lat="45.70682" lon="4.67207">
        <ele>369</ele>
        <time>2025-11-11T11:42:04Z</time>
      </trkpt>
      <trkpt lat="45.70685" lon="4.67208">
        <ele>369.2</ele>
        <time>2025-11-11T11:42:05Z</time>
      </trkpt>
      <trkpt lat="45.70689" lon="4.67208">
        <ele>369.6</ele>
        <time>2025-11-11T11:42:06Z</time>
      </trkpt>
      <trkpt lat="45.70693" lon="4.67208">
        <ele>369.8</ele>
        <time>2025-11-11T11:42:07Z</time>
      </trkpt>
      <trkpt lat="45.70697" lon="4.67207">
        <ele>370.2</ele>
        <time>2025-11-11T11:42:08Z</time>
      </trkpt>
      <trkpt lat="45.707" lon="4.67207">
        <ele>370.4</ele>
        <time>2025-11-11T11:42:09Z</time>
      </trkpt>
      <trkpt lat="45.70704" lon="4.67207">
        <ele>370.8</ele>
        <time>2025-11-11T11:42:10Z</time>
      </trkpt>
      <trkpt lat="45.70708" lon="4.67207">
        <ele>371</ele>
        <time>2025-11-11T11:42:11Z</time>
      </trkpt>
      <trkpt lat="45.70712" lon="4.67207">
        <ele>371.4</ele>
        <time>2025-11-11T11:42:12Z</time>
      </trkpt>
      <trkpt lat="45.70716" lon="4.67206">
        <ele>371.6</ele>
        <time>2025-11-11T11:42:13Z</time>
      </trkpt>
      <trkpt lat="45.70719" lon="4.67206">
        <ele>372</ele>
        <time>2025-11-11T11:42:14Z</time>
      </trkpt>
      <trkpt lat="45.70724" lon="4.67206">
        <ele>372.2</ele>
        <time>2025-11-11T11:42:15Z</time>
      </trkpt>
      <trkpt lat="45.70728" lon="4.67205">
        <ele>372.4</ele>
        <time>2025-11-11T11:42:16Z</time>
      </trkpt>
      <trkpt lat="45.70732" lon="4.67205">
        <ele>372.8</ele>
        <time>2025-11-11T11:42:17Z</time>
      </trkpt>
      <trkpt lat="45.70736" lon="4.67205">
        <ele>373</ele>
        <time>2025-11-11T11:42:18Z</time>
      </trkpt>
      <trkpt lat="45.7074" lon="4.67204">
        <ele>373.2</ele>
        <time>2025-11-11T11:42:19Z</time>
      </trkpt>
      <trkpt lat="45.70744" lon="4.67204">
        <ele>373.4</ele>
        <time>2025-11-11T11:42:20Z</time>
      </trkpt>
      <trkpt lat="45.70748" lon="4.67204">
        <ele>373.6</ele>
        <time>2025-11-11T11:42:21Z</time>
      </trkpt>
      <trkpt lat="45.70752" lon="4.67203">
        <ele>373.8</ele>
        <time>2025-11-11T11:42:22Z</time>
      </trkpt>
      <trkpt lat="45.70756" lon="4.67203">
        <ele>374</ele>
        <time>2025-11-11T11:42:23Z</time>
      </trkpt>
      <trkpt lat="45.7076" lon="4.67203">
        <ele>374.2</ele>
        <time>2025-11-11T11:42:24Z</time>
      </trkpt>
      <trkpt lat="45.70764" lon="4.67202">
        <ele>374.4</ele>
        <time>2025-11-11T11:42:25Z</time>
      </trkpt>
      <trkpt lat="45.70768" lon="4.67202">
        <ele>374.6</ele>
        <time>2025-11-11T11:42:26Z</time>
      </trkpt>
      <trkpt lat="45.70772" lon="4.67201">
        <ele>374.6</ele>
        <time>2025-11-11T11:42:27Z</time>
      </trkpt>
      <trkpt lat="45.70777" lon="4.672">
        <ele>374.8</ele>
        <time>2025-11-11T11:42:28Z</time>
      </trkpt>
      <trkpt lat="45.70781" lon="4.67199">
        <ele>374.8</ele>
        <time>2025-11-11T11:42:29Z</time>
      </trkpt>
      <trkpt lat="45.70786" lon="4.67199">
        <ele>374.8</ele>
        <time>2025-11-11T11:42:30Z</time>
      </trkpt>
      <trkpt lat="45.7079" lon="4.67198">
        <ele>374.8</ele>
        <time>2025-11-11T11:42:31Z</time>
      </trkpt>
      <trkpt lat="45.70795" lon="4.67197">
        <ele>374.6</ele>
        <time>2025-11-11T11:42:32Z</time>
      </trkpt>
      <trkpt lat="45.708" lon="4.67197">
        <ele>374.6</ele>
        <time>2025-11-11T11:42:33Z</time>
      </trkpt>
      <trkpt lat="45.70805" lon="4.67196">
        <ele>374.4</ele>
        <time>2025-11-11T11:42:34Z</time>
      </trkpt>
      <trkpt lat="45.7081" lon="4.67196">
        <ele>374.2</ele>
        <time>2025-11-11T11:42:35Z</time>
      </trkpt>
      <trkpt lat="45.70816" lon="4.67196">
        <ele>374</ele>
        <time>2025-11-11T11:42:36Z</time>
      </trkpt>
      <trkpt lat="45.70822" lon="4.67196">
        <ele>373.8</ele>
        <time>2025-11-11T11:42:37Z</time>
      </trkpt>
      <trkpt lat="45.70828" lon="4.67195">
        <ele>373.4</ele>
        <time>2025-11-11T11:42:38Z</time>
      </trkpt>
      <trkpt lat="45.70834" lon="4.67194">
        <ele>373</ele>
        <time>2025-11-11T11:42:39Z</time>
      </trkpt>
      <trkpt lat="45.7084" lon="4.67194">
        <ele>372.6</ele>
        <time>2025-11-11T11:42:40Z</time>
      </trkpt>
      <trkpt lat="45.70847" lon="4.67193">
        <ele>372.2</ele>
        <time>2025-11-11T11:42:41Z</time>
      </trkpt>
      <trkpt lat="45.70854" lon="4.67192">
        <ele>371.8</ele>
        <time>2025-11-11T11:42:42Z</time>
      </trkpt>
      <trkpt lat="45.70861" lon="4.67191">
        <ele>371.2</ele>
        <time>2025-11-11T11:42:43Z</time>
      </trkpt>
      <trkpt lat="45.70868" lon="4.67189">
        <ele>370.6</ele>
        <time>2025-11-11T11:42:44Z</time>
      </trkpt>
      <trkpt lat="45.70875" lon="4.67186">
        <ele>370.2</ele>
        <time>2025-11-11T11:42:45Z</time>
      </trkpt>
      <trkpt lat="45.70882" lon="4.67183">
        <ele>369.6</ele>
        <time>2025-11-11T11:42:46Z</time>
      </trkpt>
      <trkpt lat="45.70889" lon="4.6718">
        <ele>369</ele>
        <time>2025-11-11T11:42:47Z</time>
      </trkpt>
      <trkpt lat="45.70895" lon="4.67179">
        <ele>368.6</ele>
        <time>2025-11-11T11:42:48Z</time>
      </trkpt>
      <trkpt lat="45.709" lon="4.67182">
        <ele>368.4</ele>
        <time>2025-11-11T11:42:49Z</time>
      </trkpt>
      <trkpt lat="45.70904" lon="4.67188">
        <ele>368.2</ele>
        <time>2025-11-11T11:42:50Z</time>
      </trkpt>
      <trkpt lat="45.70906" lon="4.67195">
        <ele>368</ele>
        <time>2025-11-11T11:42:51Z</time>
      </trkpt>
      <trkpt lat="45.70906" lon="4.67201">
        <ele>368.2</ele>
        <time>2025-11-11T11:42:52Z</time>
      </trkpt>
      <trkpt lat="45.70906" lon="4.67209">
        <ele>368.2</ele>
        <time>2025-11-11T11:42:53Z</time>
      </trkpt>
      <trkpt lat="45.70906" lon="4.67216">
        <ele>368.4</ele>
        <time>2025-11-11T11:42:54Z</time>
      </trkpt>
      <trkpt lat="45.70906" lon="4.67224">
        <ele>368.6</ele>
        <time>2025-11-11T11:42:55Z</time>
      </trkpt>
      <trkpt lat="45.70907" lon="4.67232">
        <ele>368.6</ele>
        <time>2025-11-11T11:42:56Z</time>
      </trkpt>
      <trkpt lat="45.70908" lon="4.6724">
        <ele>368.6</ele>
        <time>2025-11-11T11:42:57Z</time>
      </trkpt>
      <trkpt lat="45.70909" lon="4.67247">
        <ele>368.4</ele>
        <time>2025-11-11T11:42:58Z</time>
      </trkpt>
      <trkpt lat="45.7091" lon="4.67256">
        <ele>368.4</ele>
        <time>2025-11-11T11:42:59Z</time>
      </trkpt>
      <trkpt lat="45.70912" lon="4.67264">
        <ele>368.2</ele>
        <time>2025-11-11T11:43:00Z</time>
      </trkpt>
      <trkpt lat="45.70914" lon="4.67272">
        <ele>368</ele>
        <time>2025-11-11T11:43:01Z</time>
      </trkpt>
      <trkpt lat="45.70917" lon="4.67281">
        <ele>367.6</ele>
        <time>2025-11-11T11:43:02Z</time>
      </trkpt>
      <trkpt lat="45.7092" lon="4.67289">
        <ele>367.2</ele>
        <time>2025-11-11T11:43:03Z</time>
      </trkpt>
      <trkpt lat="45.70924" lon="4.67298">
        <ele>366.8</ele>
        <time>2025-11-11T11:43:04Z</time>
      </trkpt>
      <trkpt lat="45.70928" lon="4.67306">
        <ele>366.2</ele>
        <time>2025-11-11T11:43:05Z</time>
      </trkpt>
      <trkpt lat="45.70932" lon="4.67315">
        <ele>365.8</ele>
        <time>2025-11-11T11:43:06Z</time>
      </trkpt>
      <trkpt lat="45.70936" lon="4.67323">
        <ele>365.4</ele>
        <time>2025-11-11T11:43:07Z</time>
      </trkpt>
      <trkpt lat="45.7094" lon="4.67331">
        <ele>365</ele>
        <time>2025-11-11T11:43:08Z</time>
      </trkpt>
      <trkpt lat="45.70944" lon="4.67339">
        <ele>364.8</ele>
        <time>2025-11-11T11:43:09Z</time>
      </trkpt>
      <trkpt lat="45.70948" lon="4.67346">
        <ele>364.8</ele>
        <time>2025-11-11T11:43:10Z</time>
      </trkpt>
      <trkpt lat="45.70952" lon="4.67354">
        <ele>364.6</ele>
        <time>2025-11-11T11:43:11Z</time>
      </trkpt>
      <trkpt lat="45.70955" lon="4.67361">
        <ele>364.6</ele>
        <time>2025-11-11T11:43:12Z</time>
      </trkpt>
      <trkpt lat="45.70959" lon="4.67369">
        <ele>364.6</ele>
        <time>2025-11-11T11:43:13Z</time>
      </trkpt>
      <trkpt lat="45.70961" lon="4.67376">
        <ele>364.8</ele>
        <time>2025-11-11T11:43:14Z</time>
      </trkpt>
      <trkpt lat="45.70963" lon="4.67384">
        <ele>364.8</ele>
        <time>2025-11-11T11:43:15Z</time>
      </trkpt>
      <trkpt lat="45.70965" lon="4.67391">
        <ele>364.8</ele>
        <time>2025-11-11T11:43:16Z</time>
      </trkpt>
      <trkpt lat="45.70966" lon="4.67399">
        <ele>365</ele>
        <time>2025-11-11T11:43:17Z</time>
      </trkpt>
      <trkpt lat="45.70966" lon="4.67406">
        <ele>365.2</ele>
        <time>2025-11-11T11:43:18Z</time>
      </trkpt>
      <trkpt lat="45.70966" lon="4.67414">
        <ele>365.4</ele>
        <time>2025-11-11T11:43:19Z</time>
      </trkpt>
      <trkpt lat="45.70966" lon="4.67421">
        <ele>365.6</ele>
        <time>2025-11-11T11:43:20Z</time>
      </trkpt>
      <trkpt lat="45.70965" lon="4.67428">
        <ele>365.8</ele>
        <time>2025-11-11T11:43:21Z</time>
      </trkpt>
      <trkpt lat="45.70965" lon="4.67435">
        <ele>366.2</ele>
        <time>2025-11-11T11:43:22Z</time>
      </trkpt>
      <trkpt lat="45.70964" lon="4.67442">
        <ele>366.4</ele>
        <time>2025-11-11T11:43:23Z</time>
      </trkpt>
      <trkpt lat="45.70963" lon="4.67449">
        <ele>366.6</ele>
        <time>2025-11-11T11:43:24Z</time>
      </trkpt>
      <trkpt lat="45.70962" lon="4.67455">
        <ele>366.8</ele>
        <time>2025-11-11T11:43:25Z</time>
      </trkpt>
      <trkpt lat="45.70962" lon="4.67462">
        <ele>367</ele>
        <time>2025-11-11T11:43:26Z</time>
      </trkpt>
      <trkpt lat="45.70961" lon="4.67468">
        <ele>367.2</ele>
        <time>2025-11-11T11:43:27Z</time>
      </trkpt>
      <trkpt lat="45.7096" lon="4.67474">
        <ele>367.4</ele>
        <time>2025-11-11T11:43:28Z</time>
      </trkpt>
      <trkpt lat="45.70959" lon="4.6748">
        <ele>367.4</ele>
        <time>2025-11-11T11:43:29Z</time>
      </trkpt>
      <trkpt lat="45.70959" lon="4.67487">
        <ele>367.4</ele>
        <time>2025-11-11T11:43:30Z</time>
      </trkpt>
      <trkpt lat="45.70958" lon="4.67493">
        <ele>367.4</ele>
        <time>2025-11-11T11:43:31Z</time>
      </trkpt>
      <trkpt lat="45.70957" lon="4.67499">
        <ele>367.4</ele>
        <time>2025-11-11T11:43:32Z</time>
      </trkpt>
      <trkpt lat="45.70956" lon="4.67505">
        <ele>367.4</ele>
        <time>2025-11-11T11:43:33Z</time>
      </trkpt>
      <trkpt lat="45.70955" lon="4.6751">
        <ele>367.4</ele>
        <time>2025-11-11T11:43:34Z</time>
      </trkpt>
      <trkpt lat="45.70955" lon="4.67513">
        <ele>367.4</ele>
        <time>2025-11-11T11:43:35Z</time>
      </trkpt>
      <trkpt lat="45.70956" lon="4.67516">
        <ele>367.4</ele>
        <time>2025-11-11T11:43:36Z</time>
      </trkpt>
      <trkpt lat="45.70958" lon="4.67518">
        <ele>367.4</ele>
        <time>2025-11-11T11:43:37Z</time>
      </trkpt>
      <trkpt lat="45.7096" lon="4.67518">
        <ele>367.6</ele>
        <time>2025-11-11T11:43:38Z</time>
      </trkpt>
      <trkpt lat="45.70962" lon="4.67519">
        <ele>367.6</ele>
        <time>2025-11-11T11:43:39Z</time>
      </trkpt>
      <trkpt lat="45.70964" lon="4.67521">
        <ele>367.6</ele>
        <time>2025-11-11T11:43:40Z</time>
      </trkpt>
      <trkpt lat="45.70967" lon="4.67524">
        <ele>367.4</ele>
        <time>2025-11-11T11:43:41Z</time>
      </trkpt>
      <trkpt lat="45.70971" lon="4.67527">
        <ele>366.8</ele>
        <time>2025-11-11T11:43:42Z</time>
      </trkpt>
      <trkpt lat="45.70976" lon="4.6753">
        <ele>366.4</ele>
        <time>2025-11-11T11:43:43Z</time>
      </trkpt>
      <trkpt lat="45.70981" lon="4.67532">
        <ele>365.8</ele>
        <time>2025-11-11T11:43:44Z</time>
      </trkpt>
      <trkpt lat="45.70987" lon="4.67533">
        <ele>365.2</ele>
        <time>2025-11-11T11:43:45Z</time>
      </trkpt>
      <trkpt lat="45.70993" lon="4.67534">
        <ele>364.6</ele>
        <time>2025-11-11T11:43:46Z</time>
      </trkpt>
      <trkpt lat="45.70999" lon="4.67533">
        <ele>364.2</ele>
        <time>2025-11-11T11:43:47Z</time>
      </trkpt>
      <trkpt lat="45.71005" lon="4.67533">
        <ele>363.6</ele>
        <time>2025-11-11T11:43:48Z</time>
      </trkpt>
      <trkpt lat="45.71012" lon="4.67532">
        <ele>363</ele>
        <time>2025-11-11T11:43:49Z</time>
      </trkpt>
      <trkpt lat="45.71018" lon="4.67532">
        <ele>362.4</ele>
        <time>2025-11-11T11:43:50Z</time>
      </trkpt>
      <trkpt lat="45.71025" lon="4.67532">
        <ele>361.8</ele>
        <time>2025-11-11T11:43:51Z</time>
      </trkpt>
      <trkpt lat="45.71032" lon="4.67534">
        <ele>361.2</ele>
        <time>2025-11-11T11:43:52Z</time>
      </trkpt>
      <trkpt lat="45.71038" lon="4.67538">
        <ele>360.6</ele>
        <time>2025-11-11T11:43:53Z</time>
      </trkpt>
      <trkpt lat="45.71043" lon="4.67544">
        <ele>360</ele>
        <time>2025-11-11T11:43:54Z</time>
      </trkpt>
      <trkpt lat="45.71046" lon="4.67552">
        <ele>359.4</ele>
        <time>2025-11-11T11:43:55Z</time>
      </trkpt>
      <trkpt lat="45.71048" lon="4.67561">
        <ele>358.8</ele>
        <time>2025-11-11T11:43:56Z</time>
      </trkpt>
      <trkpt lat="45.7105" lon="4.6757">
        <ele>358.4</ele>
        <time>2025-11-11T11:43:57Z</time>
      </trkpt>
      <trkpt lat="45.71052" lon="4.67579">
        <ele>358</ele>
        <time>2025-11-11T11:43:58Z</time>
      </trkpt>
      <trkpt lat="45.71054" lon="4.67588">
        <ele>357.6</ele>
        <time>2025-11-11T11:43:59Z</time>
      </trkpt>
      <trkpt lat="45.71056" lon="4.67596">
        <ele>357</ele>
        <time>2025-11-11T11:44:00Z</time>
      </trkpt>
      <trkpt lat="45.71058" lon="4.67605">
        <ele>356.6</ele>
        <time>2025-11-11T11:44:01Z</time>
      </trkpt>
      <trkpt lat="45.7106" lon="4.67611">
        <ele>356.2</ele>
        <time>2025-11-11T11:44:02Z</time>
      </trkpt>
      <trkpt lat="45.71063" lon="4.67622">
        <ele>355.8</ele>
        <time>2025-11-11T11:44:03Z</time>
      </trkpt>
      <trkpt lat="45.71066" lon="4.67631">
        <ele>355.4</ele>
        <time>2025-11-11T11:44:04Z</time>
      </trkpt>
      <trkpt lat="45.71069" lon="4.6764">
        <ele>355</ele>
        <time>2025-11-11T11:44:05Z</time>
      </trkpt>
      <trkpt lat="45.71072" lon="4.67648">
        <ele>354.6</ele>
        <time>2025-11-11T11:44:06Z</time>
      </trkpt>
      <trkpt lat="45.71075" lon="4.67656">
        <ele>354.2</ele>
        <time>2025-11-11T11:44:07Z</time>
      </trkpt>
      <trkpt lat="45.71079" lon="4.67663">
        <ele>354</ele>
        <time>2025-11-11T11:44:08Z</time>
      </trkpt>
      <trkpt lat="45.71082" lon="4.67667">
        <ele>354</ele>
        <time>2025-11-11T11:44:09Z</time>
      </trkpt>
      <trkpt lat="45.71086" lon="4.67666">
        <ele>354</ele>
        <time>2025-11-11T11:44:10Z</time>
      </trkpt>
      <trkpt lat="45.7109" lon="4.67664">
        <ele>354.2</ele>
        <time>2025-11-11T11:44:11Z</time>
      </trkpt>
      <trkpt lat="45.71094" lon="4.6766">
        <ele>354.4</ele>
        <time>2025-11-11T11:44:12Z</time>
      </trkpt>
      <trkpt lat="45.71098" lon="4.67656">
        <ele>354.6</ele>
        <time>2025-11-11T11:44:13Z</time>
      </trkpt>
      <trkpt lat="45.71102" lon="4.67652">
        <ele>354.8</ele>
        <time>2025-11-11T11:44:14Z</time>
      </trkpt>
      <trkpt lat="45.71107" lon="4.67648">
        <ele>354.6</ele>
        <time>2025-11-11T11:44:15Z</time>
      </trkpt>
      <trkpt lat="45.71112" lon="4.67643">
        <ele>354.6</ele>
        <time>2025-11-11T11:44:16Z</time>
      </trkpt>
      <trkpt lat="45.71116" lon="4.67639">
        <ele>354.6</ele>
        <time>2025-11-11T11:44:17Z</time>
      </trkpt>
      <trkpt lat="45.71121" lon="4.67635">
        <ele>354.6</ele>
        <time>2025-11-11T11:44:18Z</time>
      </trkpt>
      <trkpt lat="45.71126" lon="4.6763">
        <ele>354.4</ele>
        <time>2025-11-11T11:44:19Z</time>
      </trkpt>
      <trkpt lat="45.71131" lon="4.67627">
        <ele>354.4</ele>
        <time>2025-11-11T11:44:20Z</time>
      </trkpt>
      <trkpt lat="45.71136" lon="4.67624">
        <ele>354.4</ele>
        <time>2025-11-11T11:44:21Z</time>
      </trkpt>
      <trkpt lat="45.7114" lon="4.67622">
        <ele>354.4</ele>
        <time>2025-11-11T11:44:22Z</time>
      </trkpt>
      <trkpt lat="45.71145" lon="4.67623">
        <ele>354.2</ele>
        <time>2025-11-11T11:44:23Z</time>
      </trkpt>
      <trkpt lat="45.71148" lon="4.67626">
        <ele>354.2</ele>
        <time>2025-11-11T11:44:24Z</time>
      </trkpt>
      <trkpt lat="45.71151" lon="4.67633">
        <ele>354</ele>
        <time>2025-11-11T11:44:25Z</time>
      </trkpt>
      <trkpt lat="45.71153" lon="4.67639">
        <ele>353.6</ele>
        <time>2025-11-11T11:44:26Z</time>
      </trkpt>
      <trkpt lat="45.71155" lon="4.67646">
        <ele>353.4</ele>
        <time>2025-11-11T11:44:27Z</time>
      </trkpt>
      <trkpt lat="45.71158" lon="4.67651">
        <ele>353</ele>
        <time>2025-11-11T11:44:28Z</time>
      </trkpt>
      <trkpt lat="45.71161" lon="4.67653">
        <ele>352.8</ele>
        <time>2025-11-11T11:44:29Z</time>
      </trkpt>
      <trkpt lat="45.71165" lon="4.67653">
        <ele>352.8</ele>
        <time>2025-11-11T11:44:30Z</time>
      </trkpt>
      <trkpt lat="45.71169" lon="4.67649">
        <ele>352.6</ele>
        <time>2025-11-11T11:44:31Z</time>
      </trkpt>
      <trkpt lat="45.71171" lon="4.67644">
        <ele>352.6</ele>
        <time>2025-11-11T11:44:32Z</time>
      </trkpt>
      <trkpt lat="45.71174" lon="4.67638">
        <ele>352.4</ele>
        <time>2025-11-11T11:44:33Z</time>
      </trkpt>
      <trkpt lat="45.71177" lon="4.67632">
        <ele>352.4</ele>
        <time>2025-11-11T11:44:34Z</time>
      </trkpt>
      <trkpt lat="45.7118" lon="4.67626">
        <ele>352.2</ele>
        <time>2025-11-11T11:44:35Z</time>
      </trkpt>
      <trkpt lat="45.71184" lon="4.6762">
        <ele>352.2</ele>
        <time>2025-11-11T11:44:36Z</time>
      </trkpt>
      <trkpt lat="45.71187" lon="4.67614">
        <ele>352</ele>
        <time>2025-11-11T11:44:37Z</time>
      </trkpt>
      <trkpt lat="45.71191" lon="4.67608">
        <ele>352</ele>
        <time>2025-11-11T11:44:38Z</time>
      </trkpt>
      <trkpt lat="45.71194" lon="4.67602">
        <ele>351.8</ele>
        <time>2025-11-11T11:44:39Z</time>
      </trkpt>
      <trkpt lat="45.71198" lon="4.67597">
        <ele>351.8</ele>
        <time>2025-11-11T11:44:40Z</time>
      </trkpt>
      <trkpt lat="45.71202" lon="4.67593">
        <ele>351.6</ele>
        <time>2025-11-11T11:44:41Z</time>
      </trkpt>
      <trkpt lat="45.71206" lon="4.67592">
        <ele>351.2</ele>
        <time>2025-11-11T11:44:42Z</time>
      </trkpt>
      <trkpt lat="45.7121" lon="4.67593">
        <ele>351</ele>
        <time>2025-11-11T11:44:43Z</time>
      </trkpt>
      <trkpt lat="45.71213" lon="4.67596">
        <ele>350.6</ele>
        <time>2025-11-11T11:44:44Z</time>
      </trkpt>
      <trkpt lat="45.71215" lon="4.676">
        <ele>350.2</ele>
        <time>2025-11-11T11:44:45Z</time>
      </trkpt>
      <trkpt lat="45.71219" lon="4.67606">
        <ele>349.8</ele>
        <time>2025-11-11T11:44:46Z</time>
      </trkpt>
      <trkpt lat="45.71223" lon="4.67611">
        <ele>349.4</ele>
        <time>2025-11-11T11:44:47Z</time>
      </trkpt>
      <trkpt lat="45.71227" lon="4.67616">
        <ele>349</ele>
        <time>2025-11-11T11:44:48Z</time>
      </trkpt>
      <trkpt lat="45.71231" lon="4.6762">
        <ele>348.4</ele>
        <time>2025-11-11T11:44:49Z</time>
      </trkpt>
      <trkpt lat="45.71236" lon="4.67621">
        <ele>348</ele>
        <time>2025-11-11T11:44:50Z</time>
      </trkpt>
      <trkpt lat="45.71239" lon="4.67619">
        <ele>347.4</ele>
        <time>2025-11-11T11:44:51Z</time>
      </trkpt>
      <trkpt lat="45.71241" lon="4.67614">
        <ele>347</ele>
        <time>2025-11-11T11:44:52Z</time>
      </trkpt>
      <trkpt lat="45.71242" lon="4.67606">
        <ele>346.4</ele>
        <time>2025-11-11T11:44:53Z</time>
      </trkpt>
      <trkpt lat="45.71244" lon="4.67599">
        <ele>346</ele>
        <time>2025-11-11T11:44:54Z</time>
      </trkpt>
      <trkpt lat="45.71246" lon="4.67591">
        <ele>345.6</ele>
        <time>2025-11-11T11:44:55Z</time>
      </trkpt>
      <trkpt lat="45.71249" lon="4.67584">
        <ele>345.2</ele>
        <time>2025-11-11T11:44:56Z</time>
      </trkpt>
      <trkpt lat="45.71253" lon="4.6758">
        <ele>344.8</ele>
        <time>2025-11-11T11:44:57Z</time>
      </trkpt>
      <trkpt lat="45.71258" lon="4.67579">
        <ele>344.8</ele>
        <time>2025-11-11T11:44:58Z</time>
      </trkpt>
      <trkpt lat="45.71262" lon="4.67581">
        <ele>344.6</ele>
        <time>2025-11-11T11:44:59Z</time>
      </trkpt>
      <trkpt lat="45.71266" lon="4.67585">
        <ele>344.6</ele>
        <time>2025-11-11T11:45:00Z</time>
      </trkpt>
      <trkpt lat="45.71271" lon="4.67589">
        <ele>344.6</ele>
        <time>2025-11-11T11:45:01Z</time>
      </trkpt>
      <trkpt lat="45.71274" lon="4.67595">
        <ele>344.4</ele>
        <time>2025-11-11T11:45:02Z</time>
      </trkpt>
      <trkpt lat="45.71278" lon="4.67601">
        <ele>344.4</ele>
        <time>2025-11-11T11:45:03Z</time>
      </trkpt>
      <trkpt lat="45.71282" lon="4.67607">
        <ele>344.4</ele>
        <time>2025-11-11T11:45:04Z</time>
      </trkpt>
      <trkpt lat="45.71286" lon="4.67613">
        <ele>344.4</ele>
        <time>2025-11-11T11:45:05Z</time>
      </trkpt>
      <trkpt lat="45.7129" lon="4.67618">
        <ele>344.4</ele>
        <time>2025-11-11T11:45:06Z</time>
      </trkpt>
      <trkpt lat="45.71293" lon="4.67623">
        <ele>344.6</ele>
        <time>2025-11-11T11:45:07Z</time>
      </trkpt>
      <trkpt lat="45.71297" lon="4.6763">
        <ele>344.8</ele>
        <time>2025-11-11T11:45:08Z</time>
      </trkpt>
      <trkpt lat="45.713" lon="4.67635">
        <ele>345.2</ele>
        <time>2025-11-11T11:45:09Z</time>
      </trkpt>
      <trkpt lat="45.71303" lon="4.67639">
        <ele>345.4</ele>
        <time>2025-11-11T11:45:10Z</time>
      </trkpt>
      <trkpt lat="45.71306" lon="4.67644">
        <ele>345.8</ele>
        <time>2025-11-11T11:45:11Z</time>
      </trkpt>
      <trkpt lat="45.71308" lon="4.67649">
        <ele>346.2</ele>
        <time>2025-11-11T11:45:12Z</time>
      </trkpt>
      <trkpt lat="45.71311" lon="4.67653">
        <ele>346.6</ele>
        <time>2025-11-11T11:45:13Z</time>
      </trkpt>
      <trkpt lat="45.71313" lon="4.67656">
        <ele>347</ele>
        <time>2025-11-11T11:45:14Z</time>
      </trkpt>
      <trkpt lat="45.71316" lon="4.6766">
        <ele>347.4</ele>
        <time>2025-11-11T11:45:15Z</time>
      </trkpt>
      <trkpt lat="45.71318" lon="4.67663">
        <ele>347.8</ele>
        <time>2025-11-11T11:45:16Z</time>
      </trkpt>
      <trkpt lat="45.7132" lon="4.67667">
        <ele>348</ele>
        <time>2025-11-11T11:45:17Z</time>
      </trkpt>
      <trkpt lat="45.71321" lon="4.67672">
        <ele>348.2</ele>
        <time>2025-11-11T11:45:18Z</time>
      </trkpt>
      <trkpt lat="45.71323" lon="4.67677">
        <ele>348.2</ele>
        <time>2025-11-11T11:45:19Z</time>
      </trkpt>
      <trkpt lat="45.71325" lon="4.67682">
        <ele>347.8</ele>
        <time>2025-11-11T11:45:20Z</time>
      </trkpt>
      <trkpt lat="45.71328" lon="4.67688">
        <ele>347.4</ele>
        <time>2025-11-11T11:45:21Z</time>
      </trkpt>
      <trkpt lat="45.71332" lon="4.67692">
        <ele>347</ele>
        <time>2025-11-11T11:45:22Z</time>
      </trkpt>
      <trkpt lat="45.71336" lon="4.67695">
        <ele>346.6</ele>
        <time>2025-11-11T11:45:23Z</time>
      </trkpt>
      <trkpt lat="45.7134" lon="4.67697">
        <ele>346.4</ele>
        <time>2025-11-11T11:45:24Z</time>
      </trkpt>
      <trkpt lat="45.71345" lon="4.67696">
        <ele>346.4</ele>
        <time>2025-11-11T11:45:25Z</time>
      </trkpt>
      <trkpt lat="45.71349" lon="4.67695">
        <ele>346.4</ele>
        <time>2025-11-11T11:45:26Z</time>
      </trkpt>
      <trkpt lat="45.71353" lon="4.67694">
        <ele>346.8</ele>
        <time>2025-11-11T11:45:27Z</time>
      </trkpt>
      <trkpt lat="45.71356" lon="4.67695">
        <ele>347.2</ele>
        <time>2025-11-11T11:45:28Z</time>
      </trkpt>
      <trkpt lat="45.71359" lon="4.67698">
        <ele>347.4</ele>
        <time>2025-11-11T11:45:29Z</time>
      </trkpt>
      <trkpt lat="45.71362" lon="4.67701">
        <ele>347.6</ele>
        <time>2025-11-11T11:45:30Z</time>
      </trkpt>
      <trkpt lat="45.71364" lon="4.67705">
        <ele>347.8</ele>
        <time>2025-11-11T11:45:31Z</time>
      </trkpt>
      <trkpt lat="45.71367" lon="4.67709">
        <ele>347.8</ele>
        <time>2025-11-11T11:45:32Z</time>
      </trkpt>
      <trkpt lat="45.71369" lon="4.67714">
        <ele>347.8</ele>
        <time>2025-11-11T11:45:33Z</time>
      </trkpt>
      <trkpt lat="45.71372" lon="4.67719">
        <ele>348</ele>
        <time>2025-11-11T11:45:34Z</time>
      </trkpt>
      <trkpt lat="45.71375" lon="4.67724">
        <ele>348</ele>
        <time>2025-11-11T11:45:35Z</time>
      </trkpt>
      <trkpt lat="45.71377" lon="4.67729">
        <ele>347.8</ele>
        <time>2025-11-11T11:45:36Z</time>
      </trkpt>
      <trkpt lat="45.7138" lon="4.67734">
        <ele>347.8</ele>
        <time>2025-11-11T11:45:37Z</time>
      </trkpt>
      <trkpt lat="45.71383" lon="4.6774">
        <ele>347.8</ele>
        <time>2025-11-11T11:45:38Z</time>
      </trkpt>
      <trkpt lat="45.71386" lon="4.67746">
        <ele>347.8</ele>
        <time>2025-11-11T11:45:39Z</time>
      </trkpt>
      <trkpt lat="45.71389" lon="4.67751">
        <ele>347.6</ele>
        <time>2025-11-11T11:45:40Z</time>
      </trkpt>
      <trkpt lat="45.71391" lon="4.67757">
        <ele>347.6</ele>
        <time>2025-11-11T11:45:41Z</time>
      </trkpt>
      <trkpt lat="45.71394" lon="4.67763">
        <ele>347.6</ele>
        <time>2025-11-11T11:45:42Z</time>
      </trkpt>
      <trkpt lat="45.71397" lon="4.67768">
        <ele>347.6</ele>
        <time>2025-11-11T11:45:43Z</time>
      </trkpt>
      <trkpt lat="45.714" lon="4.67774">
        <ele>347.4</ele>
        <time>2025-11-11T11:45:44Z</time>
      </trkpt>
      <trkpt lat="45.71403" lon="4.6778">
        <ele>347.4</ele>
        <time>2025-11-11T11:45:45Z</time>
      </trkpt>
      <trkpt lat="45.71406" lon="4.67787">
        <ele>347.4</ele>
        <time>2025-11-11T11:45:46Z</time>
      </trkpt>
      <trkpt lat="45.7141" lon="4.67793">
        <ele>347.2</ele>
        <time>2025-11-11T11:45:47Z</time>
      </trkpt>
      <trkpt lat="45.71413" lon="4.678">
        <ele>347.2</ele>
        <time>2025-11-11T11:45:48Z</time>
      </trkpt>
      <trkpt lat="45.71416" lon="4.67807">
        <ele>347</ele>
        <time>2025-11-11T11:45:49Z</time>
      </trkpt>
      <trkpt lat="45.71418" lon="4.67813">
        <ele>346.8</ele>
        <time>2025-11-11T11:45:50Z</time>
      </trkpt>
      <trkpt lat="45.71423" lon="4.67821">
        <ele>346.4</ele>
        <time>2025-11-11T11:45:51Z</time>
      </trkpt>
      <trkpt lat="45.71426" lon="4.67829">
        <ele>346</ele>
        <time>2025-11-11T11:45:52Z</time>
      </trkpt>
      <trkpt lat="45.7143" lon="4.67837">
        <ele>345.6</ele>
        <time>2025-11-11T11:45:53Z</time>
      </trkpt>
      <trkpt lat="45.71434" lon="4.67845">
        <ele>345.2</ele>
        <time>2025-11-11T11:45:54Z</time>
      </trkpt>
      <trkpt lat="45.71438" lon="4.67853">
        <ele>344.8</ele>
        <time>2025-11-11T11:45:55Z</time>
      </trkpt>
      <trkpt lat="45.71441" lon="4.67861">
        <ele>344.2</ele>
        <time>2025-11-11T11:45:56Z</time>
      </trkpt>
      <trkpt lat="45.71445" lon="4.67869">
        <ele>343.8</ele>
        <time>2025-11-11T11:45:57Z</time>
      </trkpt>
      <trkpt lat="45.71448" lon="4.67877">
        <ele>343.6</ele>
        <time>2025-11-11T11:45:58Z</time>
      </trkpt>
      <trkpt lat="45.71452" lon="4.67886">
        <ele>343.2</ele>
        <time>2025-11-11T11:45:59Z</time>
      </trkpt>
      <trkpt lat="45.71455" lon="4.67896">
        <ele>342.6</ele>
        <time>2025-11-11T11:46:00Z</time>
      </trkpt>
      <trkpt lat="45.71459" lon="4.67906">
        <ele>342.2</ele>
        <time>2025-11-11T11:46:01Z</time>
      </trkpt>
      <trkpt lat="45.71462" lon="4.67916">
        <ele>341.6</ele>
        <time>2025-11-11T11:46:02Z</time>
      </trkpt>
      <trkpt lat="45.71465" lon="4.67927">
        <ele>340.8</ele>
        <time>2025-11-11T11:46:03Z</time>
      </trkpt>
      <trkpt lat="45.71469" lon="4.67937">
        <ele>340.2</ele>
        <time>2025-11-11T11:46:04Z</time>
      </trkpt>
      <trkpt lat="45.71472" lon="4.67948">
        <ele>339.4</ele>
        <time>2025-11-11T11:46:05Z</time>
      </trkpt>
      <trkpt lat="45.71475" lon="4.67959">
        <ele>339</ele>
        <time>2025-11-11T11:46:06Z</time>
      </trkpt>
      <trkpt lat="45.71479" lon="4.6797">
        <ele>338.6</ele>
        <time>2025-11-11T11:46:07Z</time>
      </trkpt>
      <trkpt lat="45.71482" lon="4.67981">
        <ele>338</ele>
        <time>2025-11-11T11:46:08Z</time>
      </trkpt>
      <trkpt lat="45.71485" lon="4.67991">
        <ele>337.6</ele>
        <time>2025-11-11T11:46:09Z</time>
      </trkpt>
      <trkpt lat="45.71488" lon="4.68002">
        <ele>337.2</ele>
        <time>2025-11-11T11:46:10Z</time>
      </trkpt>
      <trkpt lat="45.71491" lon="4.68012">
        <ele>336.8</ele>
        <time>2025-11-11T11:46:11Z</time>
      </trkpt>
      <trkpt lat="45.71494" lon="4.68023">
        <ele>336.6</ele>
        <time>2025-11-11T11:46:12Z</time>
      </trkpt>
      <trkpt lat="45.71497" lon="4.68033">
        <ele>336.2</ele>
        <time>2025-11-11T11:46:13Z</time>
      </trkpt>
      <trkpt lat="45.715" lon="4.68044">
        <ele>336</ele>
        <time>2025-11-11T11:46:14Z</time>
      </trkpt>
      <trkpt lat="45.71502" lon="4.68054">
        <ele>335.8</ele>
        <time>2025-11-11T11:46:15Z</time>
      </trkpt>
      <trkpt lat="45.71505" lon="4.68063">
        <ele>335.6</ele>
        <time>2025-11-11T11:46:16Z</time>
      </trkpt>
      <trkpt lat="45.71507" lon="4.68073">
        <ele>335.2</ele>
        <time>2025-11-11T11:46:17Z</time>
      </trkpt>
      <trkpt lat="45.71509" lon="4.68083">
        <ele>335</ele>
        <time>2025-11-11T11:46:18Z</time>
      </trkpt>
      <trkpt lat="45.7151" lon="4.68091">
        <ele>335</ele>
        <time>2025-11-11T11:46:19Z</time>
      </trkpt>
      <trkpt lat="45.71511" lon="4.68098">
        <ele>334.8</ele>
        <time>2025-11-11T11:46:20Z</time>
      </trkpt>
      <trkpt lat="45.71511" lon="4.68104">
        <ele>334.8</ele>
        <time>2025-11-11T11:46:21Z</time>
      </trkpt>
      <trkpt lat="45.71512" lon="4.68111">
        <ele>334.8</ele>
        <time>2025-11-11T11:46:22Z</time>
      </trkpt>
      <trkpt lat="45.71513" lon="4.68119">
        <ele>334.8</ele>
        <time>2025-11-11T11:46:23Z</time>
      </trkpt>
      <trkpt lat="45.71514" lon="4.68127">
        <ele>334.6</ele>
        <time>2025-11-11T11:46:24Z</time>
      </trkpt>
      <trkpt lat="45.71514" lon="4.68136">
        <ele>334</ele>
        <time>2025-11-11T11:46:25Z</time>
      </trkpt>
      <trkpt lat="45.71515" lon="4.68145">
        <ele>333.6</ele>
        <time>2025-11-11T11:46:26Z</time>
      </trkpt>
      <trkpt lat="45.71516" lon="4.68155">
        <ele>332.8</ele>
        <time>2025-11-11T11:46:27Z</time>
      </trkpt>
      <trkpt lat="45.71517" lon="4.68165">
        <ele>332</ele>
        <time>2025-11-11T11:46:28Z</time>
      </trkpt>
      <trkpt lat="45.71517" lon="4.68175">
        <ele>331.2</ele>
        <time>2025-11-11T11:46:29Z</time>
      </trkpt>
      <trkpt lat="45.71518" lon="4.68186">
        <ele>330.4</ele>
        <time>2025-11-11T11:46:30Z</time>
      </trkpt>
      <trkpt lat="45.71519" lon="4.68196">
        <ele>329.6</ele>
        <time>2025-11-11T11:46:31Z</time>
      </trkpt>
      <trkpt lat="45.71522" lon="4.68206">
        <ele>329</ele>
        <time>2025-11-11T11:46:32Z</time>
      </trkpt>
      <trkpt lat="45.71525" lon="4.68213">
        <ele>328.6</ele>
        <time>2025-11-11T11:46:33Z</time>
      </trkpt>
      <trkpt lat="45.71529" lon="4.68223">
        <ele>328.4</ele>
        <time>2025-11-11T11:46:34Z</time>
      </trkpt>
      <trkpt lat="45.71533" lon="4.6823">
        <ele>328.4</ele>
        <time>2025-11-11T11:46:35Z</time>
      </trkpt>
      <trkpt lat="45.71538" lon="4.68238">
        <ele>328.4</ele>
        <time>2025-11-11T11:46:36Z</time>
      </trkpt>
      <trkpt lat="45.71543" lon="4.68244">
        <ele>328.4</ele>
        <time>2025-11-11T11:46:37Z</time>
      </trkpt>
      <trkpt lat="45.71548" lon="4.6825">
        <ele>328.4</ele>
        <time>2025-11-11T11:46:38Z</time>
      </trkpt>
      <trkpt lat="45.71554" lon="4.68255">
        <ele>328.4</ele>
        <time>2025-11-11T11:46:39Z</time>
      </trkpt>
      <trkpt lat="45.7156" lon="4.68259">
        <ele>328.4</ele>
        <time>2025-11-11T11:46:40Z</time>
      </trkpt>
      <trkpt lat="45.71566" lon="4.68264">
        <ele>328.2</ele>
        <time>2025-11-11T11:46:41Z</time>
      </trkpt>
      <trkpt lat="45.71571" lon="4.68268">
        <ele>328</ele>
        <time>2025-11-11T11:46:42Z</time>
      </trkpt>
      <trkpt lat="45.71577" lon="4.68273">
        <ele>327.8</ele>
        <time>2025-11-11T11:46:43Z</time>
      </trkpt>
      <trkpt lat="45.71583" lon="4.68278">
        <ele>327.6</ele>
        <time>2025-11-11T11:46:44Z</time>
      </trkpt>
      <trkpt lat="45.7159" lon="4.68284">
        <ele>327</ele>
        <time>2025-11-11T11:46:45Z</time>
      </trkpt>
      <trkpt lat="45.71596" lon="4.6829">
        <ele>326.2</ele>
        <time>2025-11-11T11:46:46Z</time>
      </trkpt>
      <trkpt lat="45.71602" lon="4.68297">
        <ele>325.4</ele>
        <time>2025-11-11T11:46:47Z</time>
      </trkpt>
      <trkpt lat="45.71609" lon="4.68305">
        <ele>324.2</ele>
        <time>2025-11-11T11:46:48Z</time>
      </trkpt>
      <trkpt lat="45.71615" lon="4.68313">
        <ele>323.4</ele>
        <time>2025-11-11T11:46:49Z</time>
      </trkpt>
      <trkpt lat="45.71622" lon="4.68322">
        <ele>322.4</ele>
        <time>2025-11-11T11:46:50Z</time>
      </trkpt>
      <trkpt lat="45.71629" lon="4.68331">
        <ele>321.6</ele>
        <time>2025-11-11T11:46:51Z</time>
      </trkpt>
      <trkpt lat="45.71636" lon="4.68339">
        <ele>320.6</ele>
        <time>2025-11-11T11:46:52Z</time>
      </trkpt>
      <trkpt lat="45.71642" lon="4.68348">
        <ele>320</ele>
        <time>2025-11-11T11:46:53Z</time>
      </trkpt>
      <trkpt lat="45.71648" lon="4.68356">
        <ele>319.2</ele>
        <time>2025-11-11T11:46:54Z</time>
      </trkpt>
      <trkpt lat="45.71655" lon="4.68366">
        <ele>318.6</ele>
        <time>2025-11-11T11:46:55Z</time>
      </trkpt>
      <trkpt lat="45.71662" lon="4.68375">
        <ele>318.2</ele>
        <time>2025-11-11T11:46:56Z</time>
      </trkpt>
      <trkpt lat="45.71668" lon="4.68384">
        <ele>318</ele>
        <time>2025-11-11T11:46:57Z</time>
      </trkpt>
      <trkpt lat="45.71674" lon="4.68393">
        <ele>317.8</ele>
        <time>2025-11-11T11:46:58Z</time>
      </trkpt>
      <trkpt lat="45.7168" lon="4.68401">
        <ele>317.8</ele>
        <time>2025-11-11T11:46:59Z</time>
      </trkpt>
      <trkpt lat="45.71686" lon="4.68408">
        <ele>317.8</ele>
        <time>2025-11-11T11:47:00Z</time>
      </trkpt>
      <trkpt lat="45.71692" lon="4.68416">
        <ele>317.8</ele>
        <time>2025-11-11T11:47:01Z</time>
      </trkpt>
      <trkpt lat="45.71698" lon="4.68424">
        <ele>317.8</ele>
        <time>2025-11-11T11:47:02Z</time>
      </trkpt>
      <trkpt lat="45.71704" lon="4.68431">
        <ele>317.8</ele>
        <time>2025-11-11T11:47:03Z</time>
      </trkpt>
      <trkpt lat="45.71709" lon="4.68439">
        <ele>317.8</ele>
        <time>2025-11-11T11:47:04Z</time>
      </trkpt>
      <trkpt lat="45.71715" lon="4.68446">
        <ele>318</ele>
        <time>2025-11-11T11:47:05Z</time>
      </trkpt>
      <trkpt lat="45.7172" lon="4.68453">
        <ele>318</ele>
        <time>2025-11-11T11:47:06Z</time>
      </trkpt>
      <trkpt lat="45.71726" lon="4.6846">
        <ele>318</ele>
        <time>2025-11-11T11:47:07Z</time>
      </trkpt>
      <trkpt lat="45.71731" lon="4.68467">
        <ele>318</ele>
        <time>2025-11-11T11:47:08Z</time>
      </trkpt>
      <trkpt lat="45.71736" lon="4.68473">
        <ele>318</ele>
        <time>2025-11-11T11:47:09Z</time>
      </trkpt>
      <trkpt lat="45.71741" lon="4.6848">
        <ele>318</ele>
        <time>2025-11-11T11:47:10Z</time>
      </trkpt>
      <trkpt lat="45.71746" lon="4.68486">
        <ele>318</ele>
        <time>2025-11-11T11:47:11Z</time>
      </trkpt>
      <trkpt lat="45.71751" lon="4.68493">
        <ele>318.2</ele>
        <time>2025-11-11T11:47:12Z</time>
      </trkpt>
      <trkpt lat="45.71756" lon="4.685">
        <ele>318</ele>
        <time>2025-11-11T11:47:13Z</time>
      </trkpt>
      <trkpt lat="45.71761" lon="4.68507">
        <ele>318.2</ele>
        <time>2025-11-11T11:47:14Z</time>
      </trkpt>
      <trkpt lat="45.71765" lon="4.68514">
        <ele>318</ele>
        <time>2025-11-11T11:47:15Z</time>
      </trkpt>
      <trkpt lat="45.71768" lon="4.6852">
        <ele>318</ele>
        <time>2025-11-11T11:47:16Z</time>
      </trkpt>
      <trkpt lat="45.71773" lon="4.68528">
        <ele>318.2</ele>
        <time>2025-11-11T11:47:17Z</time>
      </trkpt>
      <trkpt lat="45.71776" lon="4.68536">
        <ele>318.2</ele>
        <time>2025-11-11T11:47:18Z</time>
      </trkpt>
      <trkpt lat="45.71779" lon="4.68543">
        <ele>318.2</ele>
        <time>2025-11-11T11:47:19Z</time>
      </trkpt>
      <trkpt lat="45.71782" lon="4.6855">
        <ele>318.4</ele>
        <time>2025-11-11T11:47:20Z</time>
      </trkpt>
      <trkpt lat="45.71785" lon="4.68557">
        <ele>318.4</ele>
        <time>2025-11-11T11:47:21Z</time>
      </trkpt>
      <trkpt lat="45.71788" lon="4.68564">
        <ele>318.6</ele>
        <time>2025-11-11T11:47:22Z</time>
      </trkpt>
      <trkpt lat="45.7179" lon="4.6857">
        <ele>318.8</ele>
        <time>2025-11-11T11:47:23Z</time>
      </trkpt>
      <trkpt lat="45.71793" lon="4.68577">
        <ele>319</ele>
        <time>2025-11-11T11:47:24Z</time>
      </trkpt>
      <trkpt lat="45.71795" lon="4.68583">
        <ele>319.2</ele>
        <time>2025-11-11T11:47:25Z</time>
      </trkpt>
      <trkpt lat="45.71797" lon="4.68589">
        <ele>319.4</ele>
        <time>2025-11-11T11:47:26Z</time>
      </trkpt>
      <trkpt lat="45.71798" lon="4.68595">
        <ele>319.8</ele>
        <time>2025-11-11T11:47:27Z</time>
      </trkpt>
      <trkpt lat="45.718" lon="4.686">
        <ele>320.2</ele>
        <time>2025-11-11T11:47:28Z</time>
      </trkpt>
      <trkpt lat="45.71802" lon="4.68605">
        <ele>320.6</ele>
        <time>2025-11-11T11:47:29Z</time>
      </trkpt>
      <trkpt lat="45.71804" lon="4.6861">
        <ele>320.8</ele>
        <time>2025-11-11T11:47:30Z</time>
      </trkpt>
      <trkpt lat="45.71805" lon="4.68614">
        <ele>321.2</ele>
        <time>2025-11-11T11:47:31Z</time>
      </trkpt>
      <trkpt lat="45.71807" lon="4.68618">
        <ele>321.6</ele>
        <time>2025-11-11T11:47:32Z</time>
      </trkpt>
      <trkpt lat="45.71808" lon="4.68623">
        <ele>322</ele>
        <time>2025-11-11T11:47:33Z</time>
      </trkpt>
      <trkpt lat="45.71809" lon="4.68627">
        <ele>322.4</ele>
        <time>2025-11-11T11:47:34Z</time>
      </trkpt>
      <trkpt lat="45.7181" lon="4.68632">
        <ele>322.8</ele>
        <time>2025-11-11T11:47:35Z</time>
      </trkpt>
      <trkpt lat="45.71811" lon="4.68636">
        <ele>323</ele>
        <time>2025-11-11T11:47:36Z</time>
      </trkpt>
      <trkpt lat="45.71811" lon="4.68639">
        <ele>323.4</ele>
        <time>2025-11-11T11:47:37Z</time>
      </trkpt>
      <trkpt lat="45.71811" lon="4.68644">
        <ele>323.6</ele>
        <time>2025-11-11T11:47:38Z</time>
      </trkpt>
      <trkpt lat="45.71811" lon="4.68649">
        <ele>323.8</ele>
        <time>2025-11-11T11:47:39Z</time>
      </trkpt>
      <trkpt lat="45.7181" lon="4.68654">
        <ele>324</ele>
        <time>2025-11-11T11:47:40Z</time>
      </trkpt>
      <trkpt lat="45.71809" lon="4.68658">
        <ele>324.2</ele>
        <time>2025-11-11T11:47:41Z</time>
      </trkpt>
      <trkpt lat="45.71808" lon="4.68664">
        <ele>324.2</ele>
        <time>2025-11-11T11:47:42Z</time>
      </trkpt>
      <trkpt lat="45.71807" lon="4.68669">
        <ele>324.2</ele>
        <time>2025-11-11T11:47:43Z</time>
      </trkpt>
      <trkpt lat="45.71805" lon="4.68674">
        <ele>324.2</ele>
        <time>2025-11-11T11:47:44Z</time>
      </trkpt>
      <trkpt lat="45.71804" lon="4.68679">
        <ele>324.4</ele>
        <time>2025-11-11T11:47:45Z</time>
      </trkpt>
      <trkpt lat="45.71802" lon="4.68684">
        <ele>324.4</ele>
        <time>2025-11-11T11:47:46Z</time>
      </trkpt>
      <trkpt lat="45.71801" lon="4.68689">
        <ele>324.4</ele>
        <time>2025-11-11T11:47:47Z</time>
      </trkpt>
      <trkpt lat="45.718" lon="4.68694">
        <ele>324.6</ele>
        <time>2025-11-11T11:47:48Z</time>
      </trkpt>
      <trkpt lat="45.718" lon="4.68699">
        <ele>324.6</ele>
        <time>2025-11-11T11:47:49Z</time>
      </trkpt>
      <trkpt lat="45.71799" lon="4.68704">
        <ele>324.6</ele>
        <time>2025-11-11T11:47:50Z</time>
      </trkpt>
      <trkpt lat="45.71798" lon="4.68708">
        <ele>324.6</ele>
        <time>2025-11-11T11:47:51Z</time>
      </trkpt>
      <trkpt lat="45.71796" lon="4.68711">
        <ele>324.8</ele>
        <time>2025-11-11T11:47:52Z</time>
      </trkpt>
      <trkpt lat="45.71793" lon="4.68713">
        <ele>324.8</ele>
        <time>2025-11-11T11:47:53Z</time>
      </trkpt>
      <trkpt lat="45.7179" lon="4.68717">
        <ele>324.6</ele>
        <time>2025-11-11T11:47:54Z</time>
      </trkpt>
      <trkpt lat="45.71788" lon="4.68721">
        <ele>324.4</ele>
        <time>2025-11-11T11:47:55Z</time>
      </trkpt>
      <trkpt lat="45.71785" lon="4.68727">
        <ele>324</ele>
        <time>2025-11-11T11:47:56Z</time>
      </trkpt>
      <trkpt lat="45.71782" lon="4.68733">
        <ele>323.4</ele>
        <time>2025-11-11T11:47:57Z</time>
      </trkpt>
      <trkpt lat="45.71779" lon="4.6874">
        <ele>322.8</ele>
        <time>2025-11-11T11:47:58Z</time>
      </trkpt>
      <trkpt lat="45.71776" lon="4.68745">
        <ele>322</ele>
        <time>2025-11-11T11:47:59Z</time>
      </trkpt>
      <trkpt lat="45.71771" lon="4.68754">
        <ele>321.2</ele>
        <time>2025-11-11T11:48:00Z</time>
      </trkpt>
      <trkpt lat="45.71767" lon="4.68761">
        <ele>320.4</ele>
        <time>2025-11-11T11:48:01Z</time>
      </trkpt>
      <trkpt lat="45.71763" lon="4.68769">
        <ele>319.8</ele>
        <time>2025-11-11T11:48:02Z</time>
      </trkpt>
      <trkpt lat="45.71759" lon="4.68776">
        <ele>319.4</ele>
        <time>2025-11-11T11:48:03Z</time>
      </trkpt>
      <trkpt lat="45.71756" lon="4.68783">
        <ele>319</ele>
        <time>2025-11-11T11:48:04Z</time>
      </trkpt>
      <trkpt lat="45.71752" lon="4.68791">
        <ele>318.8</ele>
        <time>2025-11-11T11:48:05Z</time>
      </trkpt>
      <trkpt lat="45.71748" lon="4.68798">
        <ele>318.6</ele>
        <time>2025-11-11T11:48:06Z</time>
      </trkpt>
      <trkpt lat="45.71744" lon="4.68805">
        <ele>318.2</ele>
        <time>2025-11-11T11:48:07Z</time>
      </trkpt>
      <trkpt lat="45.71741" lon="4.68813">
        <ele>318</ele>
        <time>2025-11-11T11:48:08Z</time>
      </trkpt>
      <trkpt lat="45.71737" lon="4.6882">
        <ele>317.8</ele>
        <time>2025-11-11T11:48:09Z</time>
      </trkpt>
      <trkpt lat="45.71733" lon="4.68827">
        <ele>317.6</ele>
        <time>2025-11-11T11:48:10Z</time>
      </trkpt>
      <trkpt lat="45.7173" lon="4.68834">
        <ele>317.2</ele>
        <time>2025-11-11T11:48:11Z</time>
      </trkpt>
      <trkpt lat="45.71726" lon="4.6884">
        <ele>317</ele>
        <time>2025-11-11T11:48:12Z</time>
      </trkpt>
      <trkpt lat="45.71722" lon="4.68847">
        <ele>317</ele>
        <time>2025-11-11T11:48:13Z</time>
      </trkpt>
      <trkpt lat="45.71718" lon="4.68853">
        <ele>317</ele>
        <time>2025-11-11T11:48:14Z</time>
      </trkpt>
      <trkpt lat="45.71715" lon="4.68859">
        <ele>317</ele>
        <time>2025-11-11T11:48:15Z</time>
      </trkpt>
      <trkpt lat="45.71711" lon="4.68865">
        <ele>317.2</ele>
        <time>2025-11-11T11:48:16Z</time>
      </trkpt>
      <trkpt lat="45.71708" lon="4.68871">
        <ele>317.2</ele>
        <time>2025-11-11T11:48:17Z</time>
      </trkpt>
      <trkpt lat="45.71704" lon="4.68877">
        <ele>317.4</ele>
        <time>2025-11-11T11:48:18Z</time>
      </trkpt>
      <trkpt lat="45.71701" lon="4.68883">
        <ele>317.6</ele>
        <time>2025-11-11T11:48:19Z</time>
      </trkpt>
      <trkpt lat="45.71697" lon="4.68889">
        <ele>317.6</ele>
        <time>2025-11-11T11:48:20Z</time>
      </trkpt>
      <trkpt lat="45.71694" lon="4.68895">
        <ele>317.8</ele>
        <time>2025-11-11T11:48:21Z</time>
      </trkpt>
      <trkpt lat="45.71691" lon="4.689">
        <ele>317.8</ele>
        <time>2025-11-11T11:48:22Z</time>
      </trkpt>
      <trkpt lat="45.71687" lon="4.68906">
        <ele>318</ele>
        <time>2025-11-11T11:48:23Z</time>
      </trkpt>
      <trkpt lat="45.71684" lon="4.68912">
        <ele>318</ele>
        <time>2025-11-11T11:48:24Z</time>
      </trkpt>
      <trkpt lat="45.71681" lon="4.68918">
        <ele>318.2</ele>
        <time>2025-11-11T11:48:25Z</time>
      </trkpt>
      <trkpt lat="45.71678" lon="4.68924">
        <ele>318.4</ele>
        <time>2025-11-11T11:48:26Z</time>
      </trkpt>
      <trkpt lat="45.71675" lon="4.6893">
        <ele>318.6</ele>
        <time>2025-11-11T11:48:27Z</time>
      </trkpt>
      <trkpt lat="45.71672" lon="4.68935">
        <ele>319</ele>
        <time>2025-11-11T11:48:28Z</time>
      </trkpt>
      <trkpt lat="45.7167" lon="4.68941">
        <ele>319</ele>
        <time>2025-11-11T11:48:29Z</time>
      </trkpt>
      <trkpt lat="45.71667" lon="4.68946">
        <ele>319.2</ele>
        <time>2025-11-11T11:48:30Z</time>
      </trkpt>
      <trkpt lat="45.71665" lon="4.68952">
        <ele>319.4</ele>
        <time>2025-11-11T11:48:31Z</time>
      </trkpt>
      <trkpt lat="45.71662" lon="4.68957">
        <ele>319.6</ele>
        <time>2025-11-11T11:48:32Z</time>
      </trkpt>
      <trkpt lat="45.71659" lon="4.68963">
        <ele>319.8</ele>
        <time>2025-11-11T11:48:33Z</time>
      </trkpt>
      <trkpt lat="45.71656" lon="4.68968">
        <ele>319.8</ele>
        <time>2025-11-11T11:48:34Z</time>
      </trkpt>
      <trkpt lat="45.71654" lon="4.68974">
        <ele>320</ele>
        <time>2025-11-11T11:48:35Z</time>
      </trkpt>
      <trkpt lat="45.71651" lon="4.6898">
        <ele>320</ele>
        <time>2025-11-11T11:48:36Z</time>
      </trkpt>
      <trkpt lat="45.71648" lon="4.68985">
        <ele>320.2</ele>
        <time>2025-11-11T11:48:37Z</time>
      </trkpt>
      <trkpt lat="45.71645" lon="4.68991">
        <ele>320.2</ele>
        <time>2025-11-11T11:48:38Z</time>
      </trkpt>
      <trkpt lat="45.71642" lon="4.68997">
        <ele>320.2</ele>
        <time>2025-11-11T11:48:39Z</time>
      </trkpt>
      <trkpt lat="45.71639" lon="4.69003">
        <ele>320.2</ele>
        <time>2025-11-11T11:48:40Z</time>
      </trkpt>
      <trkpt lat="45.71636" lon="4.69009">
        <ele>320.2</ele>
        <time>2025-11-11T11:48:41Z</time>
      </trkpt>
      <trkpt lat="45.71633" lon="4.69014">
        <ele>320.2</ele>
        <time>2025-11-11T11:48:42Z</time>
      </trkpt>
      <trkpt lat="45.7163" lon="4.69022">
        <ele>320.2</ele>
        <time>2025-11-11T11:48:43Z</time>
      </trkpt>
      <trkpt lat="45.71627" lon="4.69028">
        <ele>320.2</ele>
        <time>2025-11-11T11:48:44Z</time>
      </trkpt>
      <trkpt lat="45.71624" lon="4.69034">
        <ele>320.2</ele>
        <time>2025-11-11T11:48:45Z</time>
      </trkpt>
      <trkpt lat="45.71621" lon="4.69041">
        <ele>320.2</ele>
        <time>2025-11-11T11:48:46Z</time>
      </trkpt>
      <trkpt lat="45.71618" lon="4.69047">
        <ele>320</ele>
        <time>2025-11-11T11:48:47Z</time>
      </trkpt>
      <trkpt lat="45.71615" lon="4.69053">
        <ele>320</ele>
        <time>2025-11-11T11:48:48Z</time>
      </trkpt>
      <trkpt lat="45.71612" lon="4.6906">
        <ele>320</ele>
        <time>2025-11-11T11:48:49Z</time>
      </trkpt>
      <trkpt lat="45.7161" lon="4.69066">
        <ele>320</ele>
        <time>2025-11-11T11:48:50Z</time>
      </trkpt>
      <trkpt lat="45.71607" lon="4.69072">
        <ele>320</ele>
        <time>2025-11-11T11:48:51Z</time>
      </trkpt>
      <trkpt lat="45.71604" lon="4.69077">
        <ele>319.8</ele>
        <time>2025-11-11T11:48:52Z</time>
      </trkpt>
      <trkpt lat="45.71602" lon="4.69083">
        <ele>319.8</ele>
        <time>2025-11-11T11:48:53Z</time>
      </trkpt>
      <trkpt lat="45.71599" lon="4.69088">
        <ele>319.8</ele>
        <time>2025-11-11T11:48:54Z</time>
      </trkpt>
      <trkpt lat="45.71598" lon="4.69093">
        <ele>319.8</ele>
        <time>2025-11-11T11:48:55Z</time>
      </trkpt>
      <trkpt lat="45.71596" lon="4.69097">
        <ele>320</ele>
        <time>2025-11-11T11:48:56Z</time>
      </trkpt>
      <trkpt lat="45.71596" lon="4.69099">
        <ele>320.2</ele>
        <time>2025-11-11T11:48:57Z</time>
      </trkpt>
      <trkpt lat="45.71595" lon="4.69101">
        <ele>320.4</ele>
        <time>2025-11-11T11:48:58Z</time>
      </trkpt>
      <trkpt lat="45.71594" lon="4.69104">
        <ele>320.6</ele>
        <time>2025-11-11T11:48:59Z</time>
      </trkpt>
      <trkpt lat="45.71593" lon="4.69108">
        <ele>320.6</ele>
        <time>2025-11-11T11:49:00Z</time>
      </trkpt>
      <trkpt lat="45.71592" lon="4.69112">
        <ele>320.4</ele>
        <time>2025-11-11T11:49:01Z</time>
      </trkpt>
      <trkpt lat="45.7159" lon="4.69116">
        <ele>320.4</ele>
        <time>2025-11-11T11:49:02Z</time>
      </trkpt>
      <trkpt lat="45.71588" lon="4.6912">
        <ele>320</ele>
        <time>2025-11-11T11:49:03Z</time>
      </trkpt>
      <trkpt lat="45.71586" lon="4.69125">
        <ele>319.8</ele>
        <time>2025-11-11T11:49:04Z</time>
      </trkpt>
      <trkpt lat="45.71584" lon="4.6913">
        <ele>319.6</ele>
        <time>2025-11-11T11:49:05Z</time>
      </trkpt>
      <trkpt lat="45.71582" lon="4.69135">
        <ele>319.4</ele>
        <time>2025-11-11T11:49:06Z</time>
      </trkpt>
      <trkpt lat="45.71579" lon="4.69139">
        <ele>319.2</ele>
        <time>2025-11-11T11:49:07Z</time>
      </trkpt>
      <trkpt lat="45.71577" lon="4.69145">
        <ele>318.8</ele>
        <time>2025-11-11T11:49:08Z</time>
      </trkpt>
      <trkpt lat="45.71574" lon="4.6915">
        <ele>318.6</ele>
        <time>2025-11-11T11:49:09Z</time>
      </trkpt>
      <trkpt lat="45.71571" lon="4.69156">
        <ele>318.4</ele>
        <time>2025-11-11T11:49:10Z</time>
      </trkpt>
      <trkpt lat="45.71567" lon="4.69162">
        <ele>318</ele>
        <time>2025-11-11T11:49:11Z</time>
      </trkpt>
      <trkpt lat="45.71564" lon="4.69168">
        <ele>317.8</ele>
        <time>2025-11-11T11:49:12Z</time>
      </trkpt>
      <trkpt lat="45.71561" lon="4.69175">
        <ele>317.6</ele>
        <time>2025-11-11T11:49:13Z</time>
      </trkpt>
      <trkpt lat="45.71558" lon="4.69181">
        <ele>317.4</ele>
        <time>2025-11-11T11:49:14Z</time>
      </trkpt>
      <trkpt lat="45.71554" lon="4.69187">
        <ele>317.2</ele>
        <time>2025-11-11T11:49:15Z</time>
      </trkpt>
      <trkpt lat="45.71551" lon="4.69194">
        <ele>317.2</ele>
        <time>2025-11-11T11:49:16Z</time>
      </trkpt>
      <trkpt lat="45.71547" lon="4.692">
        <ele>317</ele>
        <time>2025-11-11T11:49:17Z</time>
      </trkpt>
      <trkpt lat="45.71544" lon="4.69206">
        <ele>316.8</ele>
        <time>2025-11-11T11:49:18Z</time>
      </trkpt>
      <trkpt lat="45.71541" lon="4.69212">
        <ele>316.8</ele>
        <time>2025-11-11T11:49:19Z</time>
      </trkpt>
      <trkpt lat="45.71537" lon="4.69219">
        <ele>316.6</ele>
        <time>2025-11-11T11:49:20Z</time>
      </trkpt>
      <trkpt lat="45.71534" lon="4.69225">
        <ele>316.4</ele>
        <time>2025-11-11T11:49:21Z</time>
      </trkpt>
      <trkpt lat="45.71531" lon="4.69232">
        <ele>316.4</ele>
        <time>2025-11-11T11:49:22Z</time>
      </trkpt>
      <trkpt lat="45.71528" lon="4.69239">
        <ele>316.2</ele>
        <time>2025-11-11T11:49:23Z</time>
      </trkpt>
      <trkpt lat="45.71524" lon="4.69246">
        <ele>316.2</ele>
        <time>2025-11-11T11:49:24Z</time>
      </trkpt>
      <trkpt lat="45.71522" lon="4.69251">
        <ele>316.2</ele>
        <time>2025-11-11T11:49:25Z</time>
      </trkpt>
      <trkpt lat="45.71518" lon="4.6926">
        <ele>316</ele>
        <time>2025-11-11T11:49:26Z</time>
      </trkpt>
      <trkpt lat="45.71514" lon="4.69266">
        <ele>315.8</ele>
        <time>2025-11-11T11:49:27Z</time>
      </trkpt>
      <trkpt lat="45.71511" lon="4.69273">
        <ele>315.6</ele>
        <time>2025-11-11T11:49:28Z</time>
      </trkpt>
      <trkpt lat="45.71508" lon="4.6928">
        <ele>315.6</ele>
        <time>2025-11-11T11:49:29Z</time>
      </trkpt>
      <trkpt lat="45.71505" lon="4.69286">
        <ele>315.4</ele>
        <time>2025-11-11T11:49:30Z</time>
      </trkpt>
      <trkpt lat="45.71502" lon="4.69293">
        <ele>315.2</ele>
        <time>2025-11-11T11:49:31Z</time>
      </trkpt>
      <trkpt lat="45.71499" lon="4.69299">
        <ele>315.2</ele>
        <time>2025-11-11T11:49:32Z</time>
      </trkpt>
      <trkpt lat="45.71496" lon="4.69305">
        <ele>315</ele>
        <time>2025-11-11T11:49:33Z</time>
      </trkpt>
      <trkpt lat="45.71493" lon="4.69311">
        <ele>315</ele>
        <time>2025-11-11T11:49:34Z</time>
      </trkpt>
      <trkpt lat="45.71491" lon="4.69315">
        <ele>315.2</ele>
        <time>2025-11-11T11:49:35Z</time>
      </trkpt>
      <trkpt lat="45.71488" lon="4.69318">
        <ele>315.4</ele>
        <time>2025-11-11T11:49:36Z</time>
      </trkpt>
      <trkpt lat="45.71486" lon="4.69321">
        <ele>315.6</ele>
        <time>2025-11-11T11:49:37Z</time>
      </trkpt>
      <trkpt lat="45.71483" lon="4.69326">
        <ele>315.8</ele>
        <time>2025-11-11T11:49:38Z</time>
      </trkpt>
      <trkpt lat="45.7148" lon="4.69331">
        <ele>315.8</ele>
        <time>2025-11-11T11:49:39Z</time>
      </trkpt>
      <trkpt lat="45.71477" lon="4.69337">
        <ele>315.8</ele>
        <time>2025-11-11T11:49:40Z</time>
      </trkpt>
      <trkpt lat="45.71474" lon="4.69343">
        <ele>315.6</ele>
        <time>2025-11-11T11:49:41Z</time>
      </trkpt>
      <trkpt lat="45.71471" lon="4.69348">
        <ele>315.4</ele>
        <time>2025-11-11T11:49:42Z</time>
      </trkpt>
      <trkpt lat="45.71467" lon="4.69354">
        <ele>315.4</ele>
        <time>2025-11-11T11:49:43Z</time>
      </trkpt>
      <trkpt lat="45.71463" lon="4.69359">
        <ele>315.4</ele>
        <time>2025-11-11T11:49:44Z</time>
      </trkpt>
      <trkpt lat="45.7146" lon="4.69365">
        <ele>315.4</ele>
        <time>2025-11-11T11:49:45Z</time>
      </trkpt>
      <trkpt lat="45.71456" lon="4.6937">
        <ele>315.6</ele>
        <time>2025-11-11T11:49:46Z</time>
      </trkpt>
      <trkpt lat="45.71453" lon="4.69375">
        <ele>315.6</ele>
        <time>2025-11-11T11:49:47Z</time>
      </trkpt>
      <trkpt lat="45.7145" lon="4.6938">
        <ele>315.8</ele>
        <time>2025-11-11T11:49:48Z</time>
      </trkpt>
      <trkpt lat="45.71447" lon="4.69384">
        <ele>315.8</ele>
        <time>2025-11-11T11:49:49Z</time>
      </trkpt>
      <trkpt lat="45.71445" lon="4.69389">
        <ele>316</ele>
        <time>2025-11-11T11:49:50Z</time>
      </trkpt>
      <trkpt lat="45.71442" lon="4.69393">
        <ele>316</ele>
        <time>2025-11-11T11:49:51Z</time>
      </trkpt>
      <trkpt lat="45.71439" lon="4.69398">
        <ele>316</ele>
        <time>2025-11-11T11:49:52Z</time>
      </trkpt>
      <trkpt lat="45.71436" lon="4.69402">
        <ele>315.8</ele>
        <time>2025-11-11T11:49:53Z</time>
      </trkpt>
      <trkpt lat="45.71432" lon="4.69407">
        <ele>315.8</ele>
        <time>2025-11-11T11:49:54Z</time>
      </trkpt>
      <trkpt lat="45.71429" lon="4.69413">
        <ele>315.8</ele>
        <time>2025-11-11T11:49:55Z</time>
      </trkpt>
      <trkpt lat="45.71426" lon="4.69419">
        <ele>315.6</ele>
        <time>2025-11-11T11:49:56Z</time>
      </trkpt>
      <trkpt lat="45.71423" lon="4.69425">
        <ele>315.4</ele>
        <time>2025-11-11T11:49:57Z</time>
      </trkpt>
      <trkpt lat="45.71419" lon="4.69431">
        <ele>315.4</ele>
        <time>2025-11-11T11:49:58Z</time>
      </trkpt>
      <trkpt lat="45.71416" lon="4.69437">
        <ele>315.2</ele>
        <time>2025-11-11T11:49:59Z</time>
      </trkpt>
      <trkpt lat="45.71413" lon="4.69443">
        <ele>315.2</ele>
        <time>2025-11-11T11:50:00Z</time>
      </trkpt>
      <trkpt lat="45.71409" lon="4.69449">
        <ele>315</ele>
        <time>2025-11-11T11:50:01Z</time>
      </trkpt>
      <trkpt lat="45.71406" lon="4.69455">
        <ele>315</ele>
        <time>2025-11-11T11:50:02Z</time>
      </trkpt>
      <trkpt lat="45.71403" lon="4.69461">
        <ele>315</ele>
        <time>2025-11-11T11:50:03Z</time>
      </trkpt>
      <trkpt lat="45.71399" lon="4.69467">
        <ele>314.8</ele>
        <time>2025-11-11T11:50:04Z</time>
      </trkpt>
      <trkpt lat="45.71396" lon="4.69474">
        <ele>314.8</ele>
        <time>2025-11-11T11:50:05Z</time>
      </trkpt>
      <trkpt lat="45.71393" lon="4.6948">
        <ele>314.6</ele>
        <time>2025-11-11T11:50:06Z</time>
      </trkpt>
      <trkpt lat="45.7139" lon="4.69486">
        <ele>314.6</ele>
        <time>2025-11-11T11:50:07Z</time>
      </trkpt>
      <trkpt lat="45.71388" lon="4.69491">
        <ele>314.6</ele>
        <time>2025-11-11T11:50:08Z</time>
      </trkpt>
      <trkpt lat="45.71385" lon="4.69499">
        <ele>314.6</ele>
        <time>2025-11-11T11:50:09Z</time>
      </trkpt>
      <trkpt lat="45.71382" lon="4.69505">
        <ele>314.6</ele>
        <time>2025-11-11T11:50:10Z</time>
      </trkpt>
      <trkpt lat="45.71379" lon="4.69512">
        <ele>314.4</ele>
        <time>2025-11-11T11:50:11Z</time>
      </trkpt>
      <trkpt lat="45.71376" lon="4.69518">
        <ele>314.2</ele>
        <time>2025-11-11T11:50:12Z</time>
      </trkpt>
      <trkpt lat="45.71373" lon="4.69525">
        <ele>314</ele>
        <time>2025-11-11T11:50:13Z</time>
      </trkpt>
      <trkpt lat="45.7137" lon="4.69532">
        <ele>314</ele>
        <time>2025-11-11T11:50:14Z</time>
      </trkpt>
      <trkpt lat="45.71367" lon="4.69539">
        <ele>313.8</ele>
        <time>2025-11-11T11:50:15Z</time>
      </trkpt>
      <trkpt lat="45.71363" lon="4.69546">
        <ele>313.6</ele>
        <time>2025-11-11T11:50:16Z</time>
      </trkpt>
      <trkpt lat="45.7136" lon="4.69553">
        <ele>313.4</ele>
        <time>2025-11-11T11:50:17Z</time>
      </trkpt>
      <trkpt lat="45.71356" lon="4.6956">
        <ele>313.2</ele>
        <time>2025-11-11T11:50:18Z</time>
      </trkpt>
      <trkpt lat="45.71353" lon="4.69567">
        <ele>313</ele>
        <time>2025-11-11T11:50:19Z</time>
      </trkpt>
      <trkpt lat="45.71349" lon="4.69574">
        <ele>313</ele>
        <time>2025-11-11T11:50:20Z</time>
      </trkpt>
      <trkpt lat="45.71346" lon="4.69581">
        <ele>313</ele>
        <time>2025-11-11T11:50:21Z</time>
      </trkpt>
      <trkpt lat="45.71342" lon="4.69587">
        <ele>313</ele>
        <time>2025-11-11T11:50:22Z</time>
      </trkpt>
      <trkpt lat="45.71339" lon="4.69594">
        <ele>313</ele>
        <time>2025-11-11T11:50:23Z</time>
      </trkpt>
      <trkpt lat="45.71336" lon="4.69601">
        <ele>313</ele>
        <time>2025-11-11T11:50:24Z</time>
      </trkpt>
      <trkpt lat="45.71333" lon="4.69607">
        <ele>313</ele>
        <time>2025-11-11T11:50:25Z</time>
      </trkpt>
      <trkpt lat="45.71329" lon="4.69614">
        <ele>313</ele>
        <time>2025-11-11T11:50:26Z</time>
      </trkpt>
      <trkpt lat="45.71327" lon="4.69621">
        <ele>313</ele>
        <time>2025-11-11T11:50:27Z</time>
      </trkpt>
      <trkpt lat="45.71324" lon="4.69627">
        <ele>313</ele>
        <time>2025-11-11T11:50:28Z</time>
      </trkpt>
      <trkpt lat="45.71321" lon="4.69634">
        <ele>313.2</ele>
        <time>2025-11-11T11:50:29Z</time>
      </trkpt>
      <trkpt lat="45.71318" lon="4.69639">
        <ele>313.2</ele>
        <time>2025-11-11T11:50:30Z</time>
      </trkpt>
      <trkpt lat="45.71314" lon="4.69647">
        <ele>313.2</ele>
        <time>2025-11-11T11:50:31Z</time>
      </trkpt>
      <trkpt lat="45.71311" lon="4.69654">
        <ele>313.2</ele>
        <time>2025-11-11T11:50:32Z</time>
      </trkpt>
      <trkpt lat="45.71308" lon="4.69661">
        <ele>313.2</ele>
        <time>2025-11-11T11:50:33Z</time>
      </trkpt>
      <trkpt lat="45.71305" lon="4.69668">
        <ele>313.2</ele>
        <time>2025-11-11T11:50:34Z</time>
      </trkpt>
      <trkpt lat="45.71301" lon="4.69675">
        <ele>313</ele>
        <time>2025-11-11T11:50:35Z</time>
      </trkpt>
      <trkpt lat="45.71298" lon="4.69682">
        <ele>313</ele>
        <time>2025-11-11T11:50:36Z</time>
      </trkpt>
      <trkpt lat="45.71295" lon="4.69688">
        <ele>313</ele>
        <time>2025-11-11T11:50:37Z</time>
      </trkpt>
      <trkpt lat="45.71291" lon="4.69695">
        <ele>312.8</ele>
        <time>2025-11-11T11:50:38Z</time>
      </trkpt>
      <trkpt lat="45.71288" lon="4.69702">
        <ele>312.8</ele>
        <time>2025-11-11T11:50:39Z</time>
      </trkpt>
      <trkpt lat="45.71285" lon="4.69709">
        <ele>312.8</ele>
        <time>2025-11-11T11:50:40Z</time>
      </trkpt>
      <trkpt lat="45.71281" lon="4.69716">
        <ele>312.6</ele>
        <time>2025-11-11T11:50:41Z</time>
      </trkpt>
      <trkpt lat="45.71278" lon="4.69723">
        <ele>312.6</ele>
        <time>2025-11-11T11:50:42Z</time>
      </trkpt>
      <trkpt lat="45.71275" lon="4.6973">
        <ele>312.4</ele>
        <time>2025-11-11T11:50:43Z</time>
      </trkpt>
      <trkpt lat="45.71271" lon="4.69737">
        <ele>312.4</ele>
        <time>2025-11-11T11:50:44Z</time>
      </trkpt>
      <trkpt lat="45.71268" lon="4.69744">
        <ele>312.2</ele>
        <time>2025-11-11T11:50:45Z</time>
      </trkpt>
      <trkpt lat="45.71264" lon="4.69751">
        <ele>312</ele>
        <time>2025-11-11T11:50:46Z</time>
      </trkpt>
      <trkpt lat="45.71261" lon="4.69758">
        <ele>312</ele>
        <time>2025-11-11T11:50:47Z</time>
      </trkpt>
      <trkpt lat="45.71257" lon="4.69765">
        <ele>312</ele>
        <time>2025-11-11T11:50:48Z</time>
      </trkpt>
      <trkpt lat="45.71254" lon="4.69772">
        <ele>311.8</ele>
        <time>2025-11-11T11:50:49Z</time>
      </trkpt>
      <trkpt lat="45.7125" lon="4.69779">
        <ele>311.8</ele>
        <time>2025-11-11T11:50:50Z</time>
      </trkpt>
      <trkpt lat="45.71248" lon="4.69785">
        <ele>311.8</ele>
        <time>2025-11-11T11:50:51Z</time>
      </trkpt>
      <trkpt lat="45.71244" lon="4.69794">
        <ele>311.8</ele>
        <time>2025-11-11T11:50:52Z</time>
      </trkpt>
      <trkpt lat="45.71241" lon="4.69801">
        <ele>311.8</ele>
        <time>2025-11-11T11:50:53Z</time>
      </trkpt>
      <trkpt lat="45.71237" lon="4.69808">
        <ele>311.6</ele>
        <time>2025-11-11T11:50:54Z</time>
      </trkpt>
      <trkpt lat="45.71234" lon="4.69815">
        <ele>311.4</ele>
        <time>2025-11-11T11:50:55Z</time>
      </trkpt>
      <trkpt lat="45.71231" lon="4.69822">
        <ele>311.4</ele>
        <time>2025-11-11T11:50:56Z</time>
      </trkpt>
      <trkpt lat="45.71227" lon="4.69829">
        <ele>311.4</ele>
        <time>2025-11-11T11:50:57Z</time>
      </trkpt>
      <trkpt lat="45.71224" lon="4.69837">
        <ele>311.4</ele>
        <time>2025-11-11T11:50:58Z</time>
      </trkpt>
      <trkpt lat="45.71221" lon="4.69844">
        <ele>311.4</ele>
        <time>2025-11-11T11:50:59Z</time>
      </trkpt>
      <trkpt lat="45.71217" lon="4.69851">
        <ele>311.4</ele>
        <time>2025-11-11T11:51:00Z</time>
      </trkpt>
      <trkpt lat="45.71213" lon="4.69858">
        <ele>311.4</ele>
        <time>2025-11-11T11:51:01Z</time>
      </trkpt>
      <trkpt lat="45.7121" lon="4.69866">
        <ele>311.4</ele>
        <time>2025-11-11T11:51:02Z</time>
      </trkpt>
      <trkpt lat="45.71206" lon="4.69872">
        <ele>311.2</ele>
        <time>2025-11-11T11:51:03Z</time>
      </trkpt>
      <trkpt lat="45.71203" lon="4.69879">
        <ele>311.2</ele>
        <time>2025-11-11T11:51:04Z</time>
      </trkpt>
      <trkpt lat="45.71199" lon="4.69885">
        <ele>311</ele>
        <time>2025-11-11T11:51:05Z</time>
      </trkpt>
      <trkpt lat="45.71195" lon="4.69891">
        <ele>310.8</ele>
        <time>2025-11-11T11:51:06Z</time>
      </trkpt>
      <trkpt lat="45.71191" lon="4.69897">
        <ele>310.6</ele>
        <time>2025-11-11T11:51:07Z</time>
      </trkpt>
      <trkpt lat="45.71187" lon="4.69904">
        <ele>310.4</ele>
        <time>2025-11-11T11:51:08Z</time>
      </trkpt>
      <trkpt lat="45.71183" lon="4.6991">
        <ele>310.2</ele>
        <time>2025-11-11T11:51:09Z</time>
      </trkpt>
      <trkpt lat="45.71179" lon="4.69916">
        <ele>310</ele>
        <time>2025-11-11T11:51:10Z</time>
      </trkpt>
      <trkpt lat="45.71175" lon="4.69922">
        <ele>310</ele>
        <time>2025-11-11T11:51:11Z</time>
      </trkpt>
      <trkpt lat="45.71171" lon="4.69928">
        <ele>310</ele>
        <time>2025-11-11T11:51:12Z</time>
      </trkpt>
      <trkpt lat="45.71167" lon="4.69934">
        <ele>309.8</ele>
        <time>2025-11-11T11:51:13Z</time>
      </trkpt>
      <trkpt lat="45.71163" lon="4.6994">
        <ele>309.8</ele>
        <time>2025-11-11T11:51:14Z</time>
      </trkpt>
      <trkpt lat="45.71159" lon="4.69946">
        <ele>309.8</ele>
        <time>2025-11-11T11:51:15Z</time>
      </trkpt>
      <trkpt lat="45.71155" lon="4.69952">
        <ele>309.6</ele>
        <time>2025-11-11T11:51:16Z</time>
      </trkpt>
      <trkpt lat="45.71151" lon="4.69958">
        <ele>309.6</ele>
        <time>2025-11-11T11:51:17Z</time>
      </trkpt>
      <trkpt lat="45.71147" lon="4.69964">
        <ele>309.6</ele>
        <time>2025-11-11T11:51:18Z</time>
      </trkpt>
      <trkpt lat="45.71143" lon="4.6997">
        <ele>309.6</ele>
        <time>2025-11-11T11:51:19Z</time>
      </trkpt>
      <trkpt lat="45.71138" lon="4.69976">
        <ele>309.4</ele>
        <time>2025-11-11T11:51:20Z</time>
      </trkpt>
      <trkpt lat="45.71135" lon="4.69982">
        <ele>309.4</ele>
        <time>2025-11-11T11:51:21Z</time>
      </trkpt>
      <trkpt lat="45.71131" lon="4.69988">
        <ele>309.4</ele>
        <time>2025-11-11T11:51:22Z</time>
      </trkpt>
      <trkpt lat="45.71127" lon="4.69995">
        <ele>309.2</ele>
        <time>2025-11-11T11:51:23Z</time>
      </trkpt>
      <trkpt lat="45.71123" lon="4.70001">
        <ele>309.2</ele>
        <time>2025-11-11T11:51:24Z</time>
      </trkpt>
      <trkpt lat="45.71119" lon="4.70008">
        <ele>309</ele>
        <time>2025-11-11T11:51:25Z</time>
      </trkpt>
      <trkpt lat="45.71114" lon="4.70014">
        <ele>309</ele>
        <time>2025-11-11T11:51:26Z</time>
      </trkpt>
      <trkpt lat="45.7111" lon="4.7002">
        <ele>308.8</ele>
        <time>2025-11-11T11:51:27Z</time>
      </trkpt>
      <trkpt lat="45.71106" lon="4.70027">
        <ele>308.8</ele>
        <time>2025-11-11T11:51:28Z</time>
      </trkpt>
      <trkpt lat="45.71102" lon="4.70033">
        <ele>308.8</ele>
        <time>2025-11-11T11:51:29Z</time>
      </trkpt>
      <trkpt lat="45.71098" lon="4.7004">
        <ele>308.8</ele>
        <time>2025-11-11T11:51:30Z</time>
      </trkpt>
      <trkpt lat="45.71095" lon="4.70046">
        <ele>308.6</ele>
        <time>2025-11-11T11:51:31Z</time>
      </trkpt>
      <trkpt lat="45.71091" lon="4.70052">
        <ele>308.6</ele>
        <time>2025-11-11T11:51:32Z</time>
      </trkpt>
      <trkpt lat="45.71087" lon="4.70059">
        <ele>308.6</ele>
        <time>2025-11-11T11:51:33Z</time>
      </trkpt>
      <trkpt lat="45.71083" lon="4.70064">
        <ele>308.6</ele>
        <time>2025-11-11T11:51:34Z</time>
      </trkpt>
      <trkpt lat="45.71079" lon="4.70072">
        <ele>308.6</ele>
        <time>2025-11-11T11:51:35Z</time>
      </trkpt>
      <trkpt lat="45.71075" lon="4.70078">
        <ele>308.8</ele>
        <time>2025-11-11T11:51:36Z</time>
      </trkpt>
      <trkpt lat="45.71072" lon="4.70085">
        <ele>308.8</ele>
        <time>2025-11-11T11:51:37Z</time>
      </trkpt>
      <trkpt lat="45.71068" lon="4.70091">
        <ele>308.8</ele>
        <time>2025-11-11T11:51:38Z</time>
      </trkpt>
      <trkpt lat="45.71065" lon="4.70098">
        <ele>308.8</ele>
        <time>2025-11-11T11:51:39Z</time>
      </trkpt>
      <trkpt lat="45.71061" lon="4.70105">
        <ele>308.8</ele>
        <time>2025-11-11T11:51:40Z</time>
      </trkpt>
      <trkpt lat="45.71058" lon="4.70112">
        <ele>308.8</ele>
        <time>2025-11-11T11:51:41Z</time>
      </trkpt>
      <trkpt lat="45.71054" lon="4.70119">
        <ele>308.8</ele>
        <time>2025-11-11T11:51:42Z</time>
      </trkpt>
      <trkpt lat="45.7105" lon="4.70125">
        <ele>308.8</ele>
        <time>2025-11-11T11:51:43Z</time>
      </trkpt>
      <trkpt lat="45.71047" lon="4.70132">
        <ele>308.8</ele>
        <time>2025-11-11T11:51:44Z</time>
      </trkpt>
      <trkpt lat="45.71044" lon="4.70139">
        <ele>308.8</ele>
        <time>2025-11-11T11:51:45Z</time>
      </trkpt>
      <trkpt lat="45.7104" lon="4.70145">
        <ele>309</ele>
        <time>2025-11-11T11:51:46Z</time>
      </trkpt>
      <trkpt lat="45.71037" lon="4.70152">
        <ele>309</ele>
        <time>2025-11-11T11:51:47Z</time>
      </trkpt>
      <trkpt lat="45.71034" lon="4.70158">
        <ele>309</ele>
        <time>2025-11-11T11:51:48Z</time>
      </trkpt>
      <trkpt lat="45.71031" lon="4.70165">
        <ele>309</ele>
        <time>2025-11-11T11:51:49Z</time>
      </trkpt>
      <trkpt lat="45.71027" lon="4.70172">
        <ele>309.2</ele>
        <time>2025-11-11T11:51:50Z</time>
      </trkpt>
      <trkpt lat="45.71024" lon="4.70179">
        <ele>309.2</ele>
        <time>2025-11-11T11:51:51Z</time>
      </trkpt>
      <trkpt lat="45.71021" lon="4.70185">
        <ele>309.2</ele>
        <time>2025-11-11T11:51:52Z</time>
      </trkpt>
      <trkpt lat="45.71018" lon="4.70192">
        <ele>309.4</ele>
        <time>2025-11-11T11:51:53Z</time>
      </trkpt>
      <trkpt lat="45.71015" lon="4.70198">
        <ele>309.4</ele>
        <time>2025-11-11T11:51:54Z</time>
      </trkpt>
      <trkpt lat="45.71012" lon="4.70205">
        <ele>309.4</ele>
        <time>2025-11-11T11:51:55Z</time>
      </trkpt>
      <trkpt lat="45.71009" lon="4.70211">
        <ele>309.4</ele>
        <time>2025-11-11T11:51:56Z</time>
      </trkpt>
      <trkpt lat="45.71006" lon="4.70218">
        <ele>309.4</ele>
        <time>2025-11-11T11:51:57Z</time>
      </trkpt>
      <trkpt lat="45.71002" lon="4.70225">
        <ele>309.4</ele>
        <time>2025-11-11T11:51:58Z</time>
      </trkpt>
      <trkpt lat="45.70999" lon="4.70232">
        <ele>309.4</ele>
        <time>2025-11-11T11:51:59Z</time>
      </trkpt>
      <trkpt lat="45.70997" lon="4.70238">
        <ele>309.4</ele>
        <time>2025-11-11T11:52:00Z</time>
      </trkpt>
      <trkpt lat="45.70994" lon="4.70245">
        <ele>309.4</ele>
        <time>2025-11-11T11:52:01Z</time>
      </trkpt>
      <trkpt lat="45.70991" lon="4.70251">
        <ele>309.4</ele>
        <time>2025-11-11T11:52:02Z</time>
      </trkpt>
      <trkpt lat="45.70988" lon="4.70258">
        <ele>309.6</ele>
        <time>2025-11-11T11:52:03Z</time>
      </trkpt>
      <trkpt lat="45.70985" lon="4.70264">
        <ele>309.6</ele>
        <time>2025-11-11T11:52:04Z</time>
      </trkpt>
      <trkpt lat="45.70981" lon="4.70271">
        <ele>309.6</ele>
        <time>2025-11-11T11:52:05Z</time>
      </trkpt>
      <trkpt lat="45.70978" lon="4.70277">
        <ele>309.6</ele>
        <time>2025-11-11T11:52:06Z</time>
      </trkpt>
      <trkpt lat="45.70976" lon="4.70283">
        <ele>309.6</ele>
        <time>2025-11-11T11:52:07Z</time>
      </trkpt>
      <trkpt lat="45.70973" lon="4.70289">
        <ele>309.6</ele>
        <time>2025-11-11T11:52:08Z</time>
      </trkpt>
      <trkpt lat="45.7097" lon="4.70295">
        <ele>309.8</ele>
        <time>2025-11-11T11:52:09Z</time>
      </trkpt>
      <trkpt lat="45.70967" lon="4.70302">
        <ele>309.8</ele>
        <time>2025-11-11T11:52:10Z</time>
      </trkpt>
      <trkpt lat="45.70964" lon="4.70308">
        <ele>310</ele>
        <time>2025-11-11T11:52:11Z</time>
      </trkpt>
      <trkpt lat="45.70961" lon="4.70314">
        <ele>310.4</ele>
        <time>2025-11-11T11:52:12Z</time>
      </trkpt>
      <trkpt lat="45.70958" lon="4.70319">
        <ele>310.6</ele>
        <time>2025-11-11T11:52:13Z</time>
      </trkpt>
      <trkpt lat="45.70956" lon="4.70325">
        <ele>310.8</ele>
        <time>2025-11-11T11:52:14Z</time>
      </trkpt>
      <trkpt lat="45.70953" lon="4.70331">
        <ele>310.8</ele>
        <time>2025-11-11T11:52:15Z</time>
      </trkpt>
      <trkpt lat="45.7095" lon="4.70337">
        <ele>310.8</ele>
        <time>2025-11-11T11:52:16Z</time>
      </trkpt>
      <trkpt lat="45.70948" lon="4.70341">
        <ele>311</ele>
        <time>2025-11-11T11:52:17Z</time>
      </trkpt>
      <trkpt lat="45.70944" lon="4.70348">
        <ele>311</ele>
        <time>2025-11-11T11:52:18Z</time>
      </trkpt>
      <trkpt lat="45.70942" lon="4.70353">
        <ele>311</ele>
        <time>2025-11-11T11:52:19Z</time>
      </trkpt>
      <trkpt lat="45.70939" lon="4.70358">
        <ele>311.4</ele>
        <time>2025-11-11T11:52:20Z</time>
      </trkpt>
      <trkpt lat="45.70937" lon="4.70364">
        <ele>311.8</ele>
        <time>2025-11-11T11:52:21Z</time>
      </trkpt>
      <trkpt lat="45.70934" lon="4.70369">
        <ele>312</ele>
        <time>2025-11-11T11:52:22Z</time>
      </trkpt>
      <trkpt lat="45.70932" lon="4.70373">
        <ele>312.2</ele>
        <time>2025-11-11T11:52:23Z</time>
      </trkpt>
      <trkpt lat="45.7093" lon="4.70378">
        <ele>312.2</ele>
        <time>2025-11-11T11:52:24Z</time>
      </trkpt>
      <trkpt lat="45.70927" lon="4.70382">
        <ele>312.4</ele>
        <time>2025-11-11T11:52:25Z</time>
      </trkpt>
      <trkpt lat="45.70924" lon="4.70385">
        <ele>312.4</ele>
        <time>2025-11-11T11:52:26Z</time>
      </trkpt>
      <trkpt lat="45.70921" lon="4.70388">
        <ele>312.6</ele>
        <time>2025-11-11T11:52:27Z</time>
      </trkpt>
      <trkpt lat="45.70919" lon="4.70392">
        <ele>312.8</ele>
        <time>2025-11-11T11:52:28Z</time>
      </trkpt>
      <trkpt lat="45.70918" lon="4.70396">
        <ele>313</ele>
        <time>2025-11-11T11:52:29Z</time>
      </trkpt>
      <trkpt lat="45.70918" lon="4.70402">
        <ele>313.2</ele>
        <time>2025-11-11T11:52:30Z</time>
      </trkpt>
      <trkpt lat="45.70918" lon="4.70408">
        <ele>313.2</ele>
        <time>2025-11-11T11:52:31Z</time>
      </trkpt>
      <trkpt lat="45.70919" lon="4.70414">
        <ele>313.4</ele>
        <time>2025-11-11T11:52:32Z</time>
      </trkpt>
      <trkpt lat="45.70918" lon="4.7042">
        <ele>313.4</ele>
        <time>2025-11-11T11:52:33Z</time>
      </trkpt>
      <trkpt lat="45.70917" lon="4.70425">
        <ele>313.4</ele>
        <time>2025-11-11T11:52:34Z</time>
      </trkpt>
      <trkpt lat="45.70914" lon="4.70431">
        <ele>313.4</ele>
        <time>2025-11-11T11:52:35Z</time>
      </trkpt>
      <trkpt lat="45.70912" lon="4.70436">
        <ele>313.4</ele>
        <time>2025-11-11T11:52:36Z</time>
      </trkpt>
      <trkpt lat="45.70909" lon="4.70441">
        <ele>313.4</ele>
        <time>2025-11-11T11:52:37Z</time>
      </trkpt>
      <trkpt lat="45.70906" lon="4.70445">
        <ele>313.4</ele>
        <time>2025-11-11T11:52:38Z</time>
      </trkpt>
      <trkpt lat="45.70904" lon="4.70449">
        <ele>313.4</ele>
        <time>2025-11-11T11:52:39Z</time>
      </trkpt>
      <trkpt lat="45.709" lon="4.70455">
        <ele>313.4</ele>
        <time>2025-11-11T11:52:40Z</time>
      </trkpt>
      <trkpt lat="45.70898" lon="4.7046">
        <ele>313.4</ele>
        <time>2025-11-11T11:52:41Z</time>
      </trkpt>
      <trkpt lat="45.70895" lon="4.70464">
        <ele>313.4</ele>
        <time>2025-11-11T11:52:42Z</time>
      </trkpt>
      <trkpt lat="45.70892" lon="4.70468">
        <ele>313.6</ele>
        <time>2025-11-11T11:52:43Z</time>
      </trkpt>
      <trkpt lat="45.70887" lon="4.70471">
        <ele>313.6</ele>
        <time>2025-11-11T11:52:44Z</time>
      </trkpt>
      <trkpt lat="45.70883" lon="4.70471">
        <ele>313.8</ele>
        <time>2025-11-11T11:52:45Z</time>
      </trkpt>
      <trkpt lat="45.70878" lon="4.7047">
        <ele>314</ele>
        <time>2025-11-11T11:52:46Z</time>
      </trkpt>
      <trkpt lat="45.70874" lon="4.70468">
        <ele>314.2</ele>
        <time>2025-11-11T11:52:47Z</time>
      </trkpt>
      <trkpt lat="45.70869" lon="4.70464">
        <ele>314.2</ele>
        <time>2025-11-11T11:52:48Z</time>
      </trkpt>
      <trkpt lat="45.70866" lon="4.70459">
        <ele>314.4</ele>
        <time>2025-11-11T11:52:49Z</time>
      </trkpt>
      <trkpt lat="45.70862" lon="4.70455">
        <ele>314.4</ele>
        <time>2025-11-11T11:52:50Z</time>
      </trkpt>
      <trkpt lat="45.70858" lon="4.7045">
        <ele>314.6</ele>
        <time>2025-11-11T11:52:51Z</time>
      </trkpt>
      <trkpt lat="45.70854" lon="4.70446">
        <ele>314.6</ele>
        <time>2025-11-11T11:52:52Z</time>
      </trkpt>
      <trkpt lat="45.7085" lon="4.70442">
        <ele>314.6</ele>
        <time>2025-11-11T11:52:53Z</time>
      </trkpt>
      <trkpt lat="45.70846" lon="4.70437">
        <ele>314.8</ele>
        <time>2025-11-11T11:52:54Z</time>
      </trkpt>
      <trkpt lat="45.70843" lon="4.70433">
        <ele>314.8</ele>
        <time>2025-11-11T11:52:55Z</time>
      </trkpt>
      <trkpt lat="45.70839" lon="4.70429">
        <ele>314.8</ele>
        <time>2025-11-11T11:52:56Z</time>
      </trkpt>
      <trkpt lat="45.70835" lon="4.70424">
        <ele>315</ele>
        <time>2025-11-11T11:52:57Z</time>
      </trkpt>
      <trkpt lat="45.70831" lon="4.7042">
        <ele>315</ele>
        <time>2025-11-11T11:52:58Z</time>
      </trkpt>
      <trkpt lat="45.70827" lon="4.70416">
        <ele>315.2</ele>
        <time>2025-11-11T11:52:59Z</time>
      </trkpt>
      <trkpt lat="45.70823" lon="4.70413">
        <ele>315.2</ele>
        <time>2025-11-11T11:53:00Z</time>
      </trkpt>
      <trkpt lat="45.70818" lon="4.70412">
        <ele>315.2</ele>
        <time>2025-11-11T11:53:01Z</time>
      </trkpt>
      <trkpt lat="45.70814" lon="4.70414">
        <ele>315.2</ele>
        <time>2025-11-11T11:53:02Z</time>
      </trkpt>
      <trkpt lat="45.70811" lon="4.70419">
        <ele>315.2</ele>
        <time>2025-11-11T11:53:03Z</time>
      </trkpt>
      <trkpt lat="45.7081" lon="4.70425">
        <ele>315.2</ele>
        <time>2025-11-11T11:53:04Z</time>
      </trkpt>
      <trkpt lat="45.70808" lon="4.70432">
        <ele>315.2</ele>
        <time>2025-11-11T11:53:05Z</time>
      </trkpt>
      <trkpt lat="45.70808" lon="4.70438">
        <ele>315.2</ele>
        <time>2025-11-11T11:53:06Z</time>
      </trkpt>
      <trkpt lat="45.70807" lon="4.70445">
        <ele>315.2</ele>
        <time>2025-11-11T11:53:07Z</time>
      </trkpt>
      <trkpt lat="45.70806" lon="4.70452">
        <ele>315.2</ele>
        <time>2025-11-11T11:53:08Z</time>
      </trkpt>
      <trkpt lat="45.70805" lon="4.7046">
        <ele>315.2</ele>
        <time>2025-11-11T11:53:09Z</time>
      </trkpt>
      <trkpt lat="45.70803" lon="4.70467">
        <ele>315.2</ele>
        <time>2025-11-11T11:53:10Z</time>
      </trkpt>
      <trkpt lat="45.70801" lon="4.70474">
        <ele>315.2</ele>
        <time>2025-11-11T11:53:11Z</time>
      </trkpt>
      <trkpt lat="45.708" lon="4.70482">
        <ele>315.4</ele>
        <time>2025-11-11T11:53:12Z</time>
      </trkpt>
      <trkpt lat="45.70799" lon="4.70489">
        <ele>315.4</ele>
        <time>2025-11-11T11:53:13Z</time>
      </trkpt>
      <trkpt lat="45.70797" lon="4.70497">
        <ele>315.6</ele>
        <time>2025-11-11T11:53:14Z</time>
      </trkpt>
      <trkpt lat="45.70796" lon="4.70504">
        <ele>315.4</ele>
        <time>2025-11-11T11:53:15Z</time>
      </trkpt>
      <trkpt lat="45.70794" lon="4.70512">
        <ele>315.4</ele>
        <time>2025-11-11T11:53:16Z</time>
      </trkpt>
      <trkpt lat="45.70792" lon="4.70519">
        <ele>315.2</ele>
        <time>2025-11-11T11:53:17Z</time>
      </trkpt>
      <trkpt lat="45.70789" lon="4.70527">
        <ele>315.2</ele>
        <time>2025-11-11T11:53:18Z</time>
      </trkpt>
      <trkpt lat="45.70787" lon="4.70534">
        <ele>315</ele>
        <time>2025-11-11T11:53:19Z</time>
      </trkpt>
      <trkpt lat="45.70785" lon="4.70541">
        <ele>315</ele>
        <time>2025-11-11T11:53:20Z</time>
      </trkpt>
      <trkpt lat="45.70782" lon="4.70548">
        <ele>314.8</ele>
        <time>2025-11-11T11:53:21Z</time>
      </trkpt>
      <trkpt lat="45.7078" lon="4.70553">
        <ele>314.8</ele>
        <time>2025-11-11T11:53:22Z</time>
      </trkpt>
      <trkpt lat="45.70777" lon="4.70561">
        <ele>314.8</ele>
        <time>2025-11-11T11:53:23Z</time>
      </trkpt>
      <trkpt lat="45.70774" lon="4.70568">
        <ele>314.8</ele>
        <time>2025-11-11T11:53:24Z</time>
      </trkpt>
      <trkpt lat="45.70771" lon="4.70574">
        <ele>314.6</ele>
        <time>2025-11-11T11:53:25Z</time>
      </trkpt>
      <trkpt lat="45.70768" lon="4.70581">
        <ele>314.6</ele>
        <time>2025-11-11T11:53:26Z</time>
      </trkpt>
      <trkpt lat="45.70765" lon="4.70588">
        <ele>314.4</ele>
        <time>2025-11-11T11:53:27Z</time>
      </trkpt>
      <trkpt lat="45.70761" lon="4.70595">
        <ele>314.2</ele>
        <time>2025-11-11T11:53:28Z</time>
      </trkpt>
      <trkpt lat="45.70758" lon="4.70602">
        <ele>314</ele>
        <time>2025-11-11T11:53:29Z</time>
      </trkpt>
      <trkpt lat="45.70754" lon="4.70608">
        <ele>314</ele>
        <time>2025-11-11T11:53:30Z</time>
      </trkpt>
      <trkpt lat="45.7075" lon="4.70615">
        <ele>313.8</ele>
        <time>2025-11-11T11:53:31Z</time>
      </trkpt>
      <trkpt lat="45.70747" lon="4.70621">
        <ele>313.6</ele>
        <time>2025-11-11T11:53:32Z</time>
      </trkpt>
      <trkpt lat="45.70743" lon="4.70627">
        <ele>313.6</ele>
        <time>2025-11-11T11:53:33Z</time>
      </trkpt>
      <trkpt lat="45.70739" lon="4.70633">
        <ele>313.4</ele>
        <time>2025-11-11T11:53:34Z</time>
      </trkpt>
      <trkpt lat="45.70735" lon="4.7064">
        <ele>313.4</ele>
        <time>2025-11-11T11:53:35Z</time>
      </trkpt>
      <trkpt lat="45.70732" lon="4.70646">
        <ele>313.2</ele>
        <time>2025-11-11T11:53:36Z</time>
      </trkpt>
      <trkpt lat="45.70728" lon="4.70653">
        <ele>312.8</ele>
        <time>2025-11-11T11:53:37Z</time>
      </trkpt>
      <trkpt lat="45.70724" lon="4.7066">
        <ele>312.6</ele>
        <time>2025-11-11T11:53:38Z</time>
      </trkpt>
      <trkpt lat="45.7072" lon="4.70668">
        <ele>312</ele>
        <time>2025-11-11T11:53:39Z</time>
      </trkpt>
      <trkpt lat="45.70716" lon="4.70676">
        <ele>311.4</ele>
        <time>2025-11-11T11:53:40Z</time>
      </trkpt>
      <trkpt lat="45.70711" lon="4.70684">
        <ele>310.6</ele>
        <time>2025-11-11T11:53:41Z</time>
      </trkpt>
      <trkpt lat="45.70706" lon="4.70692">
        <ele>309.8</ele>
        <time>2025-11-11T11:53:42Z</time>
      </trkpt>
      <trkpt lat="45.70701" lon="4.707">
        <ele>309</ele>
        <time>2025-11-11T11:53:43Z</time>
      </trkpt>
      <trkpt lat="45.70695" lon="4.70708">
        <ele>308.2</ele>
        <time>2025-11-11T11:53:44Z</time>
      </trkpt>
      <trkpt lat="45.7069" lon="4.70715">
        <ele>307.6</ele>
        <time>2025-11-11T11:53:45Z</time>
      </trkpt>
      <trkpt lat="45.70685" lon="4.70722">
        <ele>307</ele>
        <time>2025-11-11T11:53:46Z</time>
      </trkpt>
      <trkpt lat="45.70679" lon="4.70729">
        <ele>306.6</ele>
        <time>2025-11-11T11:53:47Z</time>
      </trkpt>
      <trkpt lat="45.70674" lon="4.70736">
        <ele>306.4</ele>
        <time>2025-11-11T11:53:48Z</time>
      </trkpt>
      <trkpt lat="45.70669" lon="4.70743">
        <ele>306.2</ele>
        <time>2025-11-11T11:53:49Z</time>
      </trkpt>
      <trkpt lat="45.70663" lon="4.7075">
        <ele>306.2</ele>
        <time>2025-11-11T11:53:50Z</time>
      </trkpt>
      <trkpt lat="45.70657" lon="4.70757">
        <ele>306</ele>
        <time>2025-11-11T11:53:51Z</time>
      </trkpt>
      <trkpt lat="45.70652" lon="4.70764">
        <ele>306</ele>
        <time>2025-11-11T11:53:52Z</time>
      </trkpt>
      <trkpt lat="45.70647" lon="4.70771">
        <ele>306</ele>
        <time>2025-11-11T11:53:53Z</time>
      </trkpt>
      <trkpt lat="45.70642" lon="4.70779">
        <ele>305.8</ele>
        <time>2025-11-11T11:53:54Z</time>
      </trkpt>
      <trkpt lat="45.70637" lon="4.70786">
        <ele>305.6</ele>
        <time>2025-11-11T11:53:55Z</time>
      </trkpt>
      <trkpt lat="45.70631" lon="4.70794">
        <ele>305.4</ele>
        <time>2025-11-11T11:53:56Z</time>
      </trkpt>
      <trkpt lat="45.70626" lon="4.70801">
        <ele>305.2</ele>
        <time>2025-11-11T11:53:57Z</time>
      </trkpt>
      <trkpt lat="45.70622" lon="4.70808">
        <ele>305</ele>
        <time>2025-11-11T11:53:58Z</time>
      </trkpt>
      <trkpt lat="45.70617" lon="4.70815">
        <ele>305</ele>
        <time>2025-11-11T11:53:59Z</time>
      </trkpt>
      <trkpt lat="45.70612" lon="4.70823">
        <ele>305</ele>
        <time>2025-11-11T11:54:00Z</time>
      </trkpt>
      <trkpt lat="45.70607" lon="4.70829">
        <ele>305</ele>
        <time>2025-11-11T11:54:01Z</time>
      </trkpt>
      <trkpt lat="45.70603" lon="4.70836">
        <ele>304.8</ele>
        <time>2025-11-11T11:54:02Z</time>
      </trkpt>
      <trkpt lat="45.70598" lon="4.70842">
        <ele>304.8</ele>
        <time>2025-11-11T11:54:03Z</time>
      </trkpt>
      <trkpt lat="45.70593" lon="4.70849">
        <ele>304.8</ele>
        <time>2025-11-11T11:54:04Z</time>
      </trkpt>
      <trkpt lat="45.70589" lon="4.70854">
        <ele>304.8</ele>
        <time>2025-11-11T11:54:05Z</time>
      </trkpt>
      <trkpt lat="45.70584" lon="4.70862">
        <ele>304.6</ele>
        <time>2025-11-11T11:54:06Z</time>
      </trkpt>
      <trkpt lat="45.7058" lon="4.70869">
        <ele>304.6</ele>
        <time>2025-11-11T11:54:07Z</time>
      </trkpt>
      <trkpt lat="45.70576" lon="4.70875">
        <ele>304.6</ele>
        <time>2025-11-11T11:54:08Z</time>
      </trkpt>
      <trkpt lat="45.70572" lon="4.70882">
        <ele>304.4</ele>
        <time>2025-11-11T11:54:09Z</time>
      </trkpt>
      <trkpt lat="45.70568" lon="4.70888">
        <ele>304.4</ele>
        <time>2025-11-11T11:54:10Z</time>
      </trkpt>
      <trkpt lat="45.70564" lon="4.70895">
        <ele>304.2</ele>
        <time>2025-11-11T11:54:11Z</time>
      </trkpt>
      <trkpt lat="45.70561" lon="4.70901">
        <ele>304.2</ele>
        <time>2025-11-11T11:54:12Z</time>
      </trkpt>
      <trkpt lat="45.70557" lon="4.70909">
        <ele>304.2</ele>
        <time>2025-11-11T11:54:13Z</time>
      </trkpt>
      <trkpt lat="45.70555" lon="4.70916">
        <ele>304.2</ele>
        <time>2025-11-11T11:54:14Z</time>
      </trkpt>
      <trkpt lat="45.70553" lon="4.70924">
        <ele>304.2</ele>
        <time>2025-11-11T11:54:15Z</time>
      </trkpt>
      <trkpt lat="45.70551" lon="4.70932">
        <ele>304.2</ele>
        <time>2025-11-11T11:54:16Z</time>
      </trkpt>
      <trkpt lat="45.7055" lon="4.7094">
        <ele>304.2</ele>
        <time>2025-11-11T11:54:17Z</time>
      </trkpt>
      <trkpt lat="45.70549" lon="4.70948">
        <ele>304.2</ele>
        <time>2025-11-11T11:54:18Z</time>
      </trkpt>
      <trkpt lat="45.70548" lon="4.70957">
        <ele>304.2</ele>
        <time>2025-11-11T11:54:19Z</time>
      </trkpt>
      <trkpt lat="45.70547" lon="4.70965">
        <ele>304.2</ele>
        <time>2025-11-11T11:54:20Z</time>
      </trkpt>
      <trkpt lat="45.70546" lon="4.70973">
        <ele>304.2</ele>
        <time>2025-11-11T11:54:21Z</time>
      </trkpt>
      <trkpt lat="45.70545" lon="4.70981">
        <ele>304.2</ele>
        <time>2025-11-11T11:54:22Z</time>
      </trkpt>
      <trkpt lat="45.70544" lon="4.70989">
        <ele>304.4</ele>
        <time>2025-11-11T11:54:23Z</time>
      </trkpt>
      <trkpt lat="45.70543" lon="4.70997">
        <ele>304.4</ele>
        <time>2025-11-11T11:54:24Z</time>
      </trkpt>
      <trkpt lat="45.70541" lon="4.71005">
        <ele>304.4</ele>
        <time>2025-11-11T11:54:25Z</time>
      </trkpt>
      <trkpt lat="45.70541" lon="4.71012">
        <ele>304.6</ele>
        <time>2025-11-11T11:54:26Z</time>
      </trkpt>
      <trkpt lat="45.7054" lon="4.71021">
        <ele>304.6</ele>
        <time>2025-11-11T11:54:27Z</time>
      </trkpt>
      <trkpt lat="45.70539" lon="4.7103">
        <ele>304.6</ele>
        <time>2025-11-11T11:54:28Z</time>
      </trkpt>
      <trkpt lat="45.70539" lon="4.71038">
        <ele>304.8</ele>
        <time>2025-11-11T11:54:29Z</time>
      </trkpt>
      <trkpt lat="45.7054" lon="4.71046">
        <ele>304.8</ele>
        <time>2025-11-11T11:54:30Z</time>
      </trkpt>
      <trkpt lat="45.7054" lon="4.71054">
        <ele>304.8</ele>
        <time>2025-11-11T11:54:31Z</time>
      </trkpt>
      <trkpt lat="45.70541" lon="4.71062">
        <ele>304.8</ele>
        <time>2025-11-11T11:54:32Z</time>
      </trkpt>
      <trkpt lat="45.70543" lon="4.7107">
        <ele>304.8</ele>
        <time>2025-11-11T11:54:33Z</time>
      </trkpt>
      <trkpt lat="45.70544" lon="4.71078">
        <ele>304.8</ele>
        <time>2025-11-11T11:54:34Z</time>
      </trkpt>
      <trkpt lat="45.70546" lon="4.71086">
        <ele>304.8</ele>
        <time>2025-11-11T11:54:35Z</time>
      </trkpt>
      <trkpt lat="45.70547" lon="4.71094">
        <ele>305</ele>
        <time>2025-11-11T11:54:36Z</time>
      </trkpt>
      <trkpt lat="45.70548" lon="4.71102">
        <ele>305</ele>
        <time>2025-11-11T11:54:37Z</time>
      </trkpt>
      <trkpt lat="45.70548" lon="4.7111">
        <ele>305</ele>
        <time>2025-11-11T11:54:38Z</time>
      </trkpt>
      <trkpt lat="45.70548" lon="4.71119">
        <ele>305.2</ele>
        <time>2025-11-11T11:54:39Z</time>
      </trkpt>
      <trkpt lat="45.70548" lon="4.71127">
        <ele>305.2</ele>
        <time>2025-11-11T11:54:40Z</time>
      </trkpt>
      <trkpt lat="45.70548" lon="4.71134">
        <ele>305.4</ele>
        <time>2025-11-11T11:54:41Z</time>
      </trkpt>
      <trkpt lat="45.70547" lon="4.71142">
        <ele>305.6</ele>
        <time>2025-11-11T11:54:42Z</time>
      </trkpt>
      <trkpt lat="45.70546" lon="4.7115">
        <ele>305.8</ele>
        <time>2025-11-11T11:54:43Z</time>
      </trkpt>
      <trkpt lat="45.70545" lon="4.71158">
        <ele>306</ele>
        <time>2025-11-11T11:54:44Z</time>
      </trkpt>
      <trkpt lat="45.70544" lon="4.71166">
        <ele>306.2</ele>
        <time>2025-11-11T11:54:45Z</time>
      </trkpt>
      <trkpt lat="45.70543" lon="4.71174">
        <ele>306.4</ele>
        <time>2025-11-11T11:54:46Z</time>
      </trkpt>
      <trkpt lat="45.70541" lon="4.71182">
        <ele>306.4</ele>
        <time>2025-11-11T11:54:47Z</time>
      </trkpt>
      <trkpt lat="45.7054" lon="4.71189">
        <ele>306.4</ele>
        <time>2025-11-11T11:54:48Z</time>
      </trkpt>
      <trkpt lat="45.70538" lon="4.71199">
        <ele>306.4</ele>
        <time>2025-11-11T11:54:49Z</time>
      </trkpt>
      <trkpt lat="45.70536" lon="4.71207">
        <ele>306.4</ele>
        <time>2025-11-11T11:54:50Z</time>
      </trkpt>
      <trkpt lat="45.70535" lon="4.71214">
        <ele>306.6</ele>
        <time>2025-11-11T11:54:51Z</time>
      </trkpt>
      <trkpt lat="45.70533" lon="4.71222">
        <ele>306.6</ele>
        <time>2025-11-11T11:54:52Z</time>
      </trkpt>
      <trkpt lat="45.70532" lon="4.71229">
        <ele>306.6</ele>
        <time>2025-11-11T11:54:53Z</time>
      </trkpt>
      <trkpt lat="45.7053" lon="4.71237">
        <ele>306.8</ele>
        <time>2025-11-11T11:54:54Z</time>
      </trkpt>
      <trkpt lat="45.70528" lon="4.71244">
        <ele>307</ele>
        <time>2025-11-11T11:54:55Z</time>
      </trkpt>
      <trkpt lat="45.70526" lon="4.71251">
        <ele>307.2</ele>
        <time>2025-11-11T11:54:56Z</time>
      </trkpt>
      <trkpt lat="45.70524" lon="4.71258">
        <ele>307.6</ele>
        <time>2025-11-11T11:54:57Z</time>
      </trkpt>
      <trkpt lat="45.70522" lon="4.71265">
        <ele>307.8</ele>
        <time>2025-11-11T11:54:58Z</time>
      </trkpt>
      <trkpt lat="45.7052" lon="4.71272">
        <ele>308</ele>
        <time>2025-11-11T11:54:59Z</time>
      </trkpt>
      <trkpt lat="45.70518" lon="4.71279">
        <ele>308.2</ele>
        <time>2025-11-11T11:55:00Z</time>
      </trkpt>
      <trkpt lat="45.70516" lon="4.71286">
        <ele>308.6</ele>
        <time>2025-11-11T11:55:01Z</time>
      </trkpt>
      <trkpt lat="45.70514" lon="4.71293">
        <ele>309</ele>
        <time>2025-11-11T11:55:02Z</time>
      </trkpt>
      <trkpt lat="45.70512" lon="4.713">
        <ele>309.4</ele>
        <time>2025-11-11T11:55:03Z</time>
      </trkpt>
      <trkpt lat="45.7051" lon="4.71306">
        <ele>309.8</ele>
        <time>2025-11-11T11:55:04Z</time>
      </trkpt>
      <trkpt lat="45.70508" lon="4.71313">
        <ele>310</ele>
        <time>2025-11-11T11:55:05Z</time>
      </trkpt>
      <trkpt lat="45.70506" lon="4.71319">
        <ele>310.4</ele>
        <time>2025-11-11T11:55:06Z</time>
      </trkpt>
      <trkpt lat="45.70504" lon="4.71325">
        <ele>310.6</ele>
        <time>2025-11-11T11:55:07Z</time>
      </trkpt>
      <trkpt lat="45.70502" lon="4.71332">
        <ele>310.8</ele>
        <time>2025-11-11T11:55:08Z</time>
      </trkpt>
      <trkpt lat="45.70499" lon="4.71338">
        <ele>311</ele>
        <time>2025-11-11T11:55:09Z</time>
      </trkpt>
      <trkpt lat="45.70497" lon="4.71344">
        <ele>311.2</ele>
        <time>2025-11-11T11:55:10Z</time>
      </trkpt>
      <trkpt lat="45.70495" lon="4.7135">
        <ele>311.4</ele>
        <time>2025-11-11T11:55:11Z</time>
      </trkpt>
      <trkpt lat="45.70492" lon="4.71355">
        <ele>311.6</ele>
        <time>2025-11-11T11:55:12Z</time>
      </trkpt>
      <trkpt lat="45.7049" lon="4.71361">
        <ele>312</ele>
        <time>2025-11-11T11:55:13Z</time>
      </trkpt>
      <trkpt lat="45.70487" lon="4.71367">
        <ele>312.2</ele>
        <time>2025-11-11T11:55:14Z</time>
      </trkpt>
      <trkpt lat="45.70484" lon="4.71373">
        <ele>312.8</ele>
        <time>2025-11-11T11:55:15Z</time>
      </trkpt>
      <trkpt lat="45.70482" lon="4.71379">
        <ele>313.2</ele>
        <time>2025-11-11T11:55:16Z</time>
      </trkpt>
      <trkpt lat="45.7048" lon="4.71384">
        <ele>313.6</ele>
        <time>2025-11-11T11:55:17Z</time>
      </trkpt>
      <trkpt lat="45.70478" lon="4.7139">
        <ele>314.2</ele>
        <time>2025-11-11T11:55:18Z</time>
      </trkpt>
      <trkpt lat="45.70476" lon="4.71396">
        <ele>314.6</ele>
        <time>2025-11-11T11:55:19Z</time>
      </trkpt>
      <trkpt lat="45.70474" lon="4.71402">
        <ele>314.8</ele>
        <time>2025-11-11T11:55:20Z</time>
      </trkpt>
      <trkpt lat="45.70472" lon="4.71408">
        <ele>315.2</ele>
        <time>2025-11-11T11:55:21Z</time>
      </trkpt>
      <trkpt lat="45.7047" lon="4.71414">
        <ele>315.4</ele>
        <time>2025-11-11T11:55:22Z</time>
      </trkpt>
      <trkpt lat="45.70468" lon="4.7142">
        <ele>315.6</ele>
        <time>2025-11-11T11:55:23Z</time>
      </trkpt>
      <trkpt lat="45.70467" lon="4.71427">
        <ele>315.8</ele>
        <time>2025-11-11T11:55:24Z</time>
      </trkpt>
      <trkpt lat="45.70465" lon="4.71433">
        <ele>316</ele>
        <time>2025-11-11T11:55:25Z</time>
      </trkpt>
      <trkpt lat="45.70463" lon="4.71439">
        <ele>316</ele>
        <time>2025-11-11T11:55:26Z</time>
      </trkpt>
      <trkpt lat="45.70461" lon="4.71446">
        <ele>316.2</ele>
        <time>2025-11-11T11:55:27Z</time>
      </trkpt>
      <trkpt lat="45.70459" lon="4.71452">
        <ele>316.4</ele>
        <time>2025-11-11T11:55:28Z</time>
      </trkpt>
      <trkpt lat="45.70457" lon="4.71459">
        <ele>316.4</ele>
        <time>2025-11-11T11:55:29Z</time>
      </trkpt>
      <trkpt lat="45.70455" lon="4.71466">
        <ele>316.6</ele>
        <time>2025-11-11T11:55:30Z</time>
      </trkpt>
      <trkpt lat="45.70454" lon="4.71472">
        <ele>316.6</ele>
        <time>2025-11-11T11:55:31Z</time>
      </trkpt>
      <trkpt lat="45.70452" lon="4.7148">
        <ele>316.8</ele>
        <time>2025-11-11T11:55:32Z</time>
      </trkpt>
      <trkpt lat="45.7045" lon="4.71486">
        <ele>317</ele>
        <time>2025-11-11T11:55:33Z</time>
      </trkpt>
      <trkpt lat="45.70449" lon="4.71493">
        <ele>317.2</ele>
        <time>2025-11-11T11:55:34Z</time>
      </trkpt>
      <trkpt lat="45.70447" lon="4.715">
        <ele>317.2</ele>
        <time>2025-11-11T11:55:35Z</time>
      </trkpt>
      <trkpt lat="45.70445" lon="4.71507">
        <ele>317.4</ele>
        <time>2025-11-11T11:55:36Z</time>
      </trkpt>
      <trkpt lat="45.70444" lon="4.71514">
        <ele>317.6</ele>
        <time>2025-11-11T11:55:37Z</time>
      </trkpt>
      <trkpt lat="45.70442" lon="4.71521">
        <ele>317.8</ele>
        <time>2025-11-11T11:55:38Z</time>
      </trkpt>
      <trkpt lat="45.70441" lon="4.71527">
        <ele>318</ele>
        <time>2025-11-11T11:55:39Z</time>
      </trkpt>
      <trkpt lat="45.70439" lon="4.71534">
        <ele>318.2</ele>
        <time>2025-11-11T11:55:40Z</time>
      </trkpt>
      <trkpt lat="45.70437" lon="4.7154">
        <ele>318.4</ele>
        <time>2025-11-11T11:55:41Z</time>
      </trkpt>
      <trkpt lat="45.70435" lon="4.71547">
        <ele>318.6</ele>
        <time>2025-11-11T11:55:42Z</time>
      </trkpt>
      <trkpt lat="45.70434" lon="4.71553">
        <ele>318.6</ele>
        <time>2025-11-11T11:55:43Z</time>
      </trkpt>
      <trkpt lat="45.70432" lon="4.7156">
        <ele>318.8</ele>
        <time>2025-11-11T11:55:44Z</time>
      </trkpt>
      <trkpt lat="45.70431" lon="4.71567">
        <ele>319</ele>
        <time>2025-11-11T11:55:45Z</time>
      </trkpt>
      <trkpt lat="45.70429" lon="4.71574">
        <ele>319</ele>
        <time>2025-11-11T11:55:46Z</time>
      </trkpt>
      <trkpt lat="45.70428" lon="4.7158">
        <ele>319.2</ele>
        <time>2025-11-11T11:55:47Z</time>
      </trkpt>
      <trkpt lat="45.70427" lon="4.71587">
        <ele>319.4</ele>
        <time>2025-11-11T11:55:48Z</time>
      </trkpt>
      <trkpt lat="45.70425" lon="4.71595">
        <ele>319.6</ele>
        <time>2025-11-11T11:55:49Z</time>
      </trkpt>
      <trkpt lat="45.70424" lon="4.71602">
        <ele>319.6</ele>
        <time>2025-11-11T11:55:50Z</time>
      </trkpt>
      <trkpt lat="45.70423" lon="4.71609">
        <ele>319.8</ele>
        <time>2025-11-11T11:55:51Z</time>
      </trkpt>
      <trkpt lat="45.70422" lon="4.71617">
        <ele>320</ele>
        <time>2025-11-11T11:55:52Z</time>
      </trkpt>
      <trkpt lat="45.70422" lon="4.71624">
        <ele>320</ele>
        <time>2025-11-11T11:55:53Z</time>
      </trkpt>
      <trkpt lat="45.70421" lon="4.71632">
        <ele>320.2</ele>
        <time>2025-11-11T11:55:54Z</time>
      </trkpt>
      <trkpt lat="45.70421" lon="4.7164">
        <ele>320.2</ele>
        <time>2025-11-11T11:55:55Z</time>
      </trkpt>
      <trkpt lat="45.7042" lon="4.71648">
        <ele>320.2</ele>
        <time>2025-11-11T11:55:56Z</time>
      </trkpt>
      <trkpt lat="45.7042" lon="4.71656">
        <ele>320.2</ele>
        <time>2025-11-11T11:55:57Z</time>
      </trkpt>
      <trkpt lat="45.70419" lon="4.71665">
        <ele>320.2</ele>
        <time>2025-11-11T11:55:58Z</time>
      </trkpt>
      <trkpt lat="45.70418" lon="4.71673">
        <ele>320.2</ele>
        <time>2025-11-11T11:55:59Z</time>
      </trkpt>
      <trkpt lat="45.70418" lon="4.71681">
        <ele>320.2</ele>
        <time>2025-11-11T11:56:00Z</time>
      </trkpt>
      <trkpt lat="45.70417" lon="4.71689">
        <ele>320.4</ele>
        <time>2025-11-11T11:56:01Z</time>
      </trkpt>
      <trkpt lat="45.70416" lon="4.71697">
        <ele>320.4</ele>
        <time>2025-11-11T11:56:02Z</time>
      </trkpt>
      <trkpt lat="45.70415" lon="4.71706">
        <ele>320.4</ele>
        <time>2025-11-11T11:56:03Z</time>
      </trkpt>
      <trkpt lat="45.70414" lon="4.71714">
        <ele>320.4</ele>
        <time>2025-11-11T11:56:04Z</time>
      </trkpt>
      <trkpt lat="45.70413" lon="4.71722">
        <ele>320.4</ele>
        <time>2025-11-11T11:56:05Z</time>
      </trkpt>
      <trkpt lat="45.70412" lon="4.71731">
        <ele>320.4</ele>
        <time>2025-11-11T11:56:06Z</time>
      </trkpt>
      <trkpt lat="45.70412" lon="4.7174">
        <ele>320.4</ele>
        <time>2025-11-11T11:56:07Z</time>
      </trkpt>
      <trkpt lat="45.70411" lon="4.71749">
        <ele>320.2</ele>
        <time>2025-11-11T11:56:08Z</time>
      </trkpt>
      <trkpt lat="45.7041" lon="4.71758">
        <ele>320.2</ele>
        <time>2025-11-11T11:56:09Z</time>
      </trkpt>
      <trkpt lat="45.7041" lon="4.71767">
        <ele>320</ele>
        <time>2025-11-11T11:56:10Z</time>
      </trkpt>
      <trkpt lat="45.70409" lon="4.71776">
        <ele>319.8</ele>
        <time>2025-11-11T11:56:11Z</time>
      </trkpt>
      <trkpt lat="45.70408" lon="4.71786">
        <ele>319.4</ele>
        <time>2025-11-11T11:56:12Z</time>
      </trkpt>
      <trkpt lat="45.70407" lon="4.71796">
        <ele>319.2</ele>
        <time>2025-11-11T11:56:13Z</time>
      </trkpt>
      <trkpt lat="45.70406" lon="4.71805">
        <ele>319</ele>
        <time>2025-11-11T11:56:14Z</time>
      </trkpt>
      <trkpt lat="45.70405" lon="4.71815">
        <ele>318.6</ele>
        <time>2025-11-11T11:56:15Z</time>
      </trkpt>
      <trkpt lat="45.70405" lon="4.71826">
        <ele>318.2</ele>
        <time>2025-11-11T11:56:16Z</time>
      </trkpt>
      <trkpt lat="45.70404" lon="4.71836">
        <ele>317.6</ele>
        <time>2025-11-11T11:56:17Z</time>
      </trkpt>
      <trkpt lat="45.70403" lon="4.71847">
        <ele>317.2</ele>
        <time>2025-11-11T11:56:18Z</time>
      </trkpt>
      <trkpt lat="45.70402" lon="4.71857">
        <ele>316.6</ele>
        <time>2025-11-11T11:56:19Z</time>
      </trkpt>
      <trkpt lat="45.70401" lon="4.71868">
        <ele>316.2</ele>
        <time>2025-11-11T11:56:20Z</time>
      </trkpt>
      <trkpt lat="45.70401" lon="4.71878">
        <ele>315.8</ele>
        <time>2025-11-11T11:56:21Z</time>
      </trkpt>
      <trkpt lat="45.704" lon="4.71888">
        <ele>315.4</ele>
        <time>2025-11-11T11:56:22Z</time>
      </trkpt>
      <trkpt lat="45.70399" lon="4.71899">
        <ele>315</ele>
        <time>2025-11-11T11:56:23Z</time>
      </trkpt>
      <trkpt lat="45.70398" lon="4.71909">
        <ele>314.6</ele>
        <time>2025-11-11T11:56:24Z</time>
      </trkpt>
      <trkpt lat="45.70397" lon="4.71919">
        <ele>314.4</ele>
        <time>2025-11-11T11:56:25Z</time>
      </trkpt>
      <trkpt lat="45.70396" lon="4.71929">
        <ele>314.2</ele>
        <time>2025-11-11T11:56:26Z</time>
      </trkpt>
      <trkpt lat="45.70395" lon="4.71939">
        <ele>314</ele>
        <time>2025-11-11T11:56:27Z</time>
      </trkpt>
      <trkpt lat="45.70394" lon="4.71949">
        <ele>314</ele>
        <time>2025-11-11T11:56:28Z</time>
      </trkpt>
      <trkpt lat="45.70393" lon="4.7196">
        <ele>313.8</ele>
        <time>2025-11-11T11:56:29Z</time>
      </trkpt>
      <trkpt lat="45.70392" lon="4.7197">
        <ele>313.8</ele>
        <time>2025-11-11T11:56:30Z</time>
      </trkpt>
      <trkpt lat="45.7039" lon="4.71979">
        <ele>313.8</ele>
        <time>2025-11-11T11:56:31Z</time>
      </trkpt>
      <trkpt lat="45.70388" lon="4.71989">
        <ele>313.8</ele>
        <time>2025-11-11T11:56:32Z</time>
      </trkpt>
      <trkpt lat="45.70386" lon="4.71998">
        <ele>313.6</ele>
        <time>2025-11-11T11:56:33Z</time>
      </trkpt>
      <trkpt lat="45.70385" lon="4.72007">
        <ele>313.2</ele>
        <time>2025-11-11T11:56:34Z</time>
      </trkpt>
      <trkpt lat="45.70383" lon="4.72016">
        <ele>313</ele>
        <time>2025-11-11T11:56:35Z</time>
      </trkpt>
      <trkpt lat="45.70381" lon="4.72025">
        <ele>312.6</ele>
        <time>2025-11-11T11:56:36Z</time>
      </trkpt>
      <trkpt lat="45.70379" lon="4.72035">
        <ele>312.4</ele>
        <time>2025-11-11T11:56:37Z</time>
      </trkpt>
      <trkpt lat="45.70377" lon="4.72044">
        <ele>312.2</ele>
        <time>2025-11-11T11:56:38Z</time>
      </trkpt>
      <trkpt lat="45.70375" lon="4.72053">
        <ele>312.2</ele>
        <time>2025-11-11T11:56:39Z</time>
      </trkpt>
      <trkpt lat="45.70374" lon="4.72062">
        <ele>312.4</ele>
        <time>2025-11-11T11:56:40Z</time>
      </trkpt>
      <trkpt lat="45.70374" lon="4.72072">
        <ele>312.2</ele>
        <time>2025-11-11T11:56:41Z</time>
      </trkpt>
      <trkpt lat="45.70374" lon="4.72081">
        <ele>312.2</ele>
        <time>2025-11-11T11:56:42Z</time>
      </trkpt>
      <trkpt lat="45.70373" lon="4.7209">
        <ele>312.2</ele>
        <time>2025-11-11T11:56:43Z</time>
      </trkpt>
      <trkpt lat="45.70373" lon="4.721">
        <ele>312.2</ele>
        <time>2025-11-11T11:56:44Z</time>
      </trkpt>
      <trkpt lat="45.70373" lon="4.72109">
        <ele>312</ele>
        <time>2025-11-11T11:56:45Z</time>
      </trkpt>
      <trkpt lat="45.70372" lon="4.72118">
        <ele>312.2</ele>
        <time>2025-11-11T11:56:46Z</time>
      </trkpt>
      <trkpt lat="45.70372" lon="4.72127">
        <ele>312.2</ele>
        <time>2025-11-11T11:56:47Z</time>
      </trkpt>
      <trkpt lat="45.70372" lon="4.72135">
        <ele>312</ele>
        <time>2025-11-11T11:56:48Z</time>
      </trkpt>
      <trkpt lat="45.70372" lon="4.72144">
        <ele>312</ele>
        <time>2025-11-11T11:56:49Z</time>
      </trkpt>
      <trkpt lat="45.70372" lon="4.72153">
        <ele>312</ele>
        <time>2025-11-11T11:56:50Z</time>
      </trkpt>
      <trkpt lat="45.70372" lon="4.72162">
        <ele>312</ele>
        <time>2025-11-11T11:56:51Z</time>
      </trkpt>
      <trkpt lat="45.70371" lon="4.7217">
        <ele>312</ele>
        <time>2025-11-11T11:56:52Z</time>
      </trkpt>
      <trkpt lat="45.70372" lon="4.72179">
        <ele>312</ele>
        <time>2025-11-11T11:56:53Z</time>
      </trkpt>
      <trkpt lat="45.70372" lon="4.72188">
        <ele>312</ele>
        <time>2025-11-11T11:56:54Z</time>
      </trkpt>
      <trkpt lat="45.70372" lon="4.72196">
        <ele>312</ele>
        <time>2025-11-11T11:56:55Z</time>
      </trkpt>
      <trkpt lat="45.70372" lon="4.72205">
        <ele>312</ele>
        <time>2025-11-11T11:56:56Z</time>
      </trkpt>
      <trkpt lat="45.70372" lon="4.72213">
        <ele>312</ele>
        <time>2025-11-11T11:56:57Z</time>
      </trkpt>
      <trkpt lat="45.70372" lon="4.72222">
        <ele>312</ele>
        <time>2025-11-11T11:56:58Z</time>
      </trkpt>
      <trkpt lat="45.70372" lon="4.72231">
        <ele>312</ele>
        <time>2025-11-11T11:56:59Z</time>
      </trkpt>
      <trkpt lat="45.70372" lon="4.72239">
        <ele>312</ele>
        <time>2025-11-11T11:57:00Z</time>
      </trkpt>
      <trkpt lat="45.70371" lon="4.72248">
        <ele>312.2</ele>
        <time>2025-11-11T11:57:01Z</time>
      </trkpt>
      <trkpt lat="45.70371" lon="4.72257">
        <ele>312.2</ele>
        <time>2025-11-11T11:57:02Z</time>
      </trkpt>
      <trkpt lat="45.70371" lon="4.72266">
        <ele>312.4</ele>
        <time>2025-11-11T11:57:03Z</time>
      </trkpt>
      <trkpt lat="45.70371" lon="4.72275">
        <ele>312.4</ele>
        <time>2025-11-11T11:57:04Z</time>
      </trkpt>
      <trkpt lat="45.70371" lon="4.72284">
        <ele>312.6</ele>
        <time>2025-11-11T11:57:05Z</time>
      </trkpt>
      <trkpt lat="45.70372" lon="4.72293">
        <ele>312.4</ele>
        <time>2025-11-11T11:57:06Z</time>
      </trkpt>
      <trkpt lat="45.70372" lon="4.72302">
        <ele>312.4</ele>
        <time>2025-11-11T11:57:07Z</time>
      </trkpt>
      <trkpt lat="45.70372" lon="4.7231">
        <ele>312.2</ele>
        <time>2025-11-11T11:57:08Z</time>
      </trkpt>
      <trkpt lat="45.70373" lon="4.72319">
        <ele>311.8</ele>
        <time>2025-11-11T11:57:09Z</time>
      </trkpt>
      <trkpt lat="45.70373" lon="4.72328">
        <ele>311.6</ele>
        <time>2025-11-11T11:57:10Z</time>
      </trkpt>
      <trkpt lat="45.70374" lon="4.72336">
        <ele>311.4</ele>
        <time>2025-11-11T11:57:11Z</time>
      </trkpt>
      <trkpt lat="45.70374" lon="4.72345">
        <ele>311.2</ele>
        <time>2025-11-11T11:57:12Z</time>
      </trkpt>
      <trkpt lat="45.70374" lon="4.72353">
        <ele>311.2</ele>
        <time>2025-11-11T11:57:13Z</time>
      </trkpt>
      <trkpt lat="45.70375" lon="4.72362">
        <ele>311.4</ele>
        <time>2025-11-11T11:57:14Z</time>
      </trkpt>
      <trkpt lat="45.70376" lon="4.7237">
        <ele>311.6</ele>
        <time>2025-11-11T11:57:15Z</time>
      </trkpt>
      <trkpt lat="45.70377" lon="4.72379">
        <ele>311.8</ele>
        <time>2025-11-11T11:57:16Z</time>
      </trkpt>
      <trkpt lat="45.70379" lon="4.72388">
        <ele>312</ele>
        <time>2025-11-11T11:57:17Z</time>
      </trkpt>
      <trkpt lat="45.70379" lon="4.72396">
        <ele>312.2</ele>
        <time>2025-11-11T11:57:18Z</time>
      </trkpt>
      <trkpt lat="45.7038" lon="4.72405">
        <ele>312.2</ele>
        <time>2025-11-11T11:57:19Z</time>
      </trkpt>
      <trkpt lat="45.70382" lon="4.72414">
        <ele>312.2</ele>
        <time>2025-11-11T11:57:20Z</time>
      </trkpt>
      <trkpt lat="45.70383" lon="4.72423">
        <ele>312</ele>
        <time>2025-11-11T11:57:21Z</time>
      </trkpt>
      <trkpt lat="45.70385" lon="4.72432">
        <ele>311.8</ele>
        <time>2025-11-11T11:57:22Z</time>
      </trkpt>
      <trkpt lat="45.70386" lon="4.72441">
        <ele>311.6</ele>
        <time>2025-11-11T11:57:23Z</time>
      </trkpt>
      <trkpt lat="45.70387" lon="4.72449">
        <ele>311.4</ele>
        <time>2025-11-11T11:57:24Z</time>
      </trkpt>
      <trkpt lat="45.70389" lon="4.72458">
        <ele>311</ele>
        <time>2025-11-11T11:57:25Z</time>
      </trkpt>
      <trkpt lat="45.7039" lon="4.72467">
        <ele>310.6</ele>
        <time>2025-11-11T11:57:26Z</time>
      </trkpt>
      <trkpt lat="45.70391" lon="4.72476">
        <ele>310.4</ele>
        <time>2025-11-11T11:57:27Z</time>
      </trkpt>
      <trkpt lat="45.70393" lon="4.72485">
        <ele>310.2</ele>
        <time>2025-11-11T11:57:28Z</time>
      </trkpt>
      <trkpt lat="45.70394" lon="4.72494">
        <ele>310</ele>
        <time>2025-11-11T11:57:29Z</time>
      </trkpt>
      <trkpt lat="45.70396" lon="4.72502">
        <ele>310</ele>
        <time>2025-11-11T11:57:30Z</time>
      </trkpt>
      <trkpt lat="45.70398" lon="4.72511">
        <ele>309.8</ele>
        <time>2025-11-11T11:57:31Z</time>
      </trkpt>
      <trkpt lat="45.70399" lon="4.7252">
        <ele>309.8</ele>
        <time>2025-11-11T11:57:32Z</time>
      </trkpt>
      <trkpt lat="45.704" lon="4.72529">
        <ele>309.8</ele>
        <time>2025-11-11T11:57:33Z</time>
      </trkpt>
      <trkpt lat="45.70401" lon="4.72538">
        <ele>309.8</ele>
        <time>2025-11-11T11:57:34Z</time>
      </trkpt>
      <trkpt lat="45.70403" lon="4.72547">
        <ele>309.6</ele>
        <time>2025-11-11T11:57:35Z</time>
      </trkpt>
      <trkpt lat="45.70405" lon="4.72556">
        <ele>309.6</ele>
        <time>2025-11-11T11:57:36Z</time>
      </trkpt>
      <trkpt lat="45.70406" lon="4.72566">
        <ele>309.4</ele>
        <time>2025-11-11T11:57:37Z</time>
      </trkpt>
      <trkpt lat="45.70408" lon="4.72575">
        <ele>309.2</ele>
        <time>2025-11-11T11:57:38Z</time>
      </trkpt>
      <trkpt lat="45.7041" lon="4.72584">
        <ele>309</ele>
        <time>2025-11-11T11:57:39Z</time>
      </trkpt>
      <trkpt lat="45.70411" lon="4.72593">
        <ele>308.8</ele>
        <time>2025-11-11T11:57:40Z</time>
      </trkpt>
      <trkpt lat="45.70413" lon="4.72602">
        <ele>308.8</ele>
        <time>2025-11-11T11:57:41Z</time>
      </trkpt>
      <trkpt lat="45.70414" lon="4.72611">
        <ele>308.6</ele>
        <time>2025-11-11T11:57:42Z</time>
      </trkpt>
      <trkpt lat="45.70416" lon="4.7262">
        <ele>308.6</ele>
        <time>2025-11-11T11:57:43Z</time>
      </trkpt>
      <trkpt lat="45.70417" lon="4.72629">
        <ele>308.4</ele>
        <time>2025-11-11T11:57:44Z</time>
      </trkpt>
      <trkpt lat="45.70419" lon="4.72638">
        <ele>308.4</ele>
        <time>2025-11-11T11:57:45Z</time>
      </trkpt>
      <trkpt lat="45.7042" lon="4.72647">
        <ele>308.2</ele>
        <time>2025-11-11T11:57:46Z</time>
      </trkpt>
      <trkpt lat="45.70422" lon="4.72656">
        <ele>308</ele>
        <time>2025-11-11T11:57:47Z</time>
      </trkpt>
      <trkpt lat="45.70423" lon="4.72665">
        <ele>308</ele>
        <time>2025-11-11T11:57:48Z</time>
      </trkpt>
      <trkpt lat="45.70425" lon="4.72674">
        <ele>307.8</ele>
        <time>2025-11-11T11:57:49Z</time>
      </trkpt>
      <trkpt lat="45.70426" lon="4.72683">
        <ele>307.6</ele>
        <time>2025-11-11T11:57:50Z</time>
      </trkpt>
      <trkpt lat="45.70427" lon="4.72692">
        <ele>307.4</ele>
        <time>2025-11-11T11:57:51Z</time>
      </trkpt>
      <trkpt lat="45.70428" lon="4.72701">
        <ele>307.4</ele>
        <time>2025-11-11T11:57:52Z</time>
      </trkpt>
      <trkpt lat="45.7043" lon="4.7271">
        <ele>307.4</ele>
        <time>2025-11-11T11:57:53Z</time>
      </trkpt>
      <trkpt lat="45.70431" lon="4.72719">
        <ele>307.2</ele>
        <time>2025-11-11T11:57:54Z</time>
      </trkpt>
      <trkpt lat="45.70433" lon="4.72728">
        <ele>307.2</ele>
        <time>2025-11-11T11:57:55Z</time>
      </trkpt>
      <trkpt lat="45.70434" lon="4.72737">
        <ele>307.2</ele>
        <time>2025-11-11T11:57:56Z</time>
      </trkpt>
      <trkpt lat="45.70436" lon="4.72746">
        <ele>307.2</ele>
        <time>2025-11-11T11:57:57Z</time>
      </trkpt>
      <trkpt lat="45.70437" lon="4.72754">
        <ele>307</ele>
        <time>2025-11-11T11:57:58Z</time>
      </trkpt>
      <trkpt lat="45.70438" lon="4.72762">
        <ele>307</ele>
        <time>2025-11-11T11:57:59Z</time>
      </trkpt>
      <trkpt lat="45.70439" lon="4.7277">
        <ele>306.8</ele>
        <time>2025-11-11T11:58:00Z</time>
      </trkpt>
      <trkpt lat="45.7044" lon="4.72778">
        <ele>306.8</ele>
        <time>2025-11-11T11:58:01Z</time>
      </trkpt>
      <trkpt lat="45.7044" lon="4.72787">
        <ele>306.6</ele>
        <time>2025-11-11T11:58:02Z</time>
      </trkpt>
      <trkpt lat="45.70441" lon="4.72795">
        <ele>306.6</ele>
        <time>2025-11-11T11:58:03Z</time>
      </trkpt>
      <trkpt lat="45.7044" lon="4.72804">
        <ele>306.6</ele>
        <time>2025-11-11T11:58:04Z</time>
      </trkpt>
      <trkpt lat="45.70439" lon="4.72812">
        <ele>306.6</ele>
        <time>2025-11-11T11:58:05Z</time>
      </trkpt>
      <trkpt lat="45.70437" lon="4.7282">
        <ele>306.4</ele>
        <time>2025-11-11T11:58:06Z</time>
      </trkpt>
      <trkpt lat="45.70435" lon="4.72828">
        <ele>306.4</ele>
        <time>2025-11-11T11:58:07Z</time>
      </trkpt>
      <trkpt lat="45.70432" lon="4.72835">
        <ele>306.2</ele>
        <time>2025-11-11T11:58:08Z</time>
      </trkpt>
      <trkpt lat="45.70429" lon="4.72843">
        <ele>306.2</ele>
        <time>2025-11-11T11:58:09Z</time>
      </trkpt>
      <trkpt lat="45.70425" lon="4.7285">
        <ele>306.2</ele>
        <time>2025-11-11T11:58:10Z</time>
      </trkpt>
      <trkpt lat="45.70422" lon="4.72857">
        <ele>306</ele>
        <time>2025-11-11T11:58:11Z</time>
      </trkpt>
      <trkpt lat="45.70418" lon="4.72863">
        <ele>306</ele>
        <time>2025-11-11T11:58:12Z</time>
      </trkpt>
      <trkpt lat="45.70414" lon="4.7287">
        <ele>306</ele>
        <time>2025-11-11T11:58:13Z</time>
      </trkpt>
      <trkpt lat="45.70411" lon="4.72877">
        <ele>306.2</ele>
        <time>2025-11-11T11:58:14Z</time>
      </trkpt>
      <trkpt lat="45.70407" lon="4.72884">
        <ele>306.2</ele>
        <time>2025-11-11T11:58:15Z</time>
      </trkpt>
      <trkpt lat="45.70404" lon="4.72891">
        <ele>306.2</ele>
        <time>2025-11-11T11:58:16Z</time>
      </trkpt>
      <trkpt lat="45.704" lon="4.72897">
        <ele>306.2</ele>
        <time>2025-11-11T11:58:17Z</time>
      </trkpt>
      <trkpt lat="45.70397" lon="4.72904">
        <ele>306.2</ele>
        <time>2025-11-11T11:58:18Z</time>
      </trkpt>
      <trkpt lat="45.70393" lon="4.72911">
        <ele>306.2</ele>
        <time>2025-11-11T11:58:19Z</time>
      </trkpt>
      <trkpt lat="45.7039" lon="4.72918">
        <ele>306.2</ele>
        <time>2025-11-11T11:58:20Z</time>
      </trkpt>
      <trkpt lat="45.70386" lon="4.72925">
        <ele>306.2</ele>
        <time>2025-11-11T11:58:21Z</time>
      </trkpt>
      <trkpt lat="45.70383" lon="4.72932">
        <ele>306.2</ele>
        <time>2025-11-11T11:58:22Z</time>
      </trkpt>
      <trkpt lat="45.7038" lon="4.72939">
        <ele>306.4</ele>
        <time>2025-11-11T11:58:23Z</time>
      </trkpt>
      <trkpt lat="45.70376" lon="4.72946">
        <ele>306.4</ele>
        <time>2025-11-11T11:58:24Z</time>
      </trkpt>
      <trkpt lat="45.70373" lon="4.72954">
        <ele>306.2</ele>
        <time>2025-11-11T11:58:25Z</time>
      </trkpt>
      <trkpt lat="45.7037" lon="4.72961">
        <ele>306.4</ele>
        <time>2025-11-11T11:58:26Z</time>
      </trkpt>
      <trkpt lat="45.70367" lon="4.72968">
        <ele>306.4</ele>
        <time>2025-11-11T11:58:27Z</time>
      </trkpt>
      <trkpt lat="45.70364" lon="4.72975">
        <ele>306.4</ele>
        <time>2025-11-11T11:58:28Z</time>
      </trkpt>
      <trkpt lat="45.70361" lon="4.72982">
        <ele>306.4</ele>
        <time>2025-11-11T11:58:29Z</time>
      </trkpt>
      <trkpt lat="45.70358" lon="4.72989">
        <ele>306.6</ele>
        <time>2025-11-11T11:58:30Z</time>
      </trkpt>
      <trkpt lat="45.70355" lon="4.72997">
        <ele>306.6</ele>
        <time>2025-11-11T11:58:31Z</time>
      </trkpt>
      <trkpt lat="45.70352" lon="4.73004">
        <ele>306.6</ele>
        <time>2025-11-11T11:58:32Z</time>
      </trkpt>
      <trkpt lat="45.70349" lon="4.73011">
        <ele>306.6</ele>
        <time>2025-11-11T11:58:33Z</time>
      </trkpt>
      <trkpt lat="45.70347" lon="4.73019">
        <ele>306.6</ele>
        <time>2025-11-11T11:58:34Z</time>
      </trkpt>
      <trkpt lat="45.70344" lon="4.73026">
        <ele>306.6</ele>
        <time>2025-11-11T11:58:35Z</time>
      </trkpt>
      <trkpt lat="45.70341" lon="4.73033">
        <ele>306.6</ele>
        <time>2025-11-11T11:58:36Z</time>
      </trkpt>
      <trkpt lat="45.70339" lon="4.7304">
        <ele>306.6</ele>
        <time>2025-11-11T11:58:37Z</time>
      </trkpt>
      <trkpt lat="45.70336" lon="4.73047">
        <ele>306.6</ele>
        <time>2025-11-11T11:58:38Z</time>
      </trkpt>
      <trkpt lat="45.70334" lon="4.73053">
        <ele>306.6</ele>
        <time>2025-11-11T11:58:39Z</time>
      </trkpt>
      <trkpt lat="45.70333" lon="4.7306">
        <ele>306.6</ele>
        <time>2025-11-11T11:58:40Z</time>
      </trkpt>
      <trkpt lat="45.70331" lon="4.73066">
        <ele>306.6</ele>
        <time>2025-11-11T11:58:41Z</time>
      </trkpt>
      <trkpt lat="45.70329" lon="4.73072">
        <ele>306.6</ele>
        <time>2025-11-11T11:58:42Z</time>
      </trkpt>
      <trkpt lat="45.70328" lon="4.73078">
        <ele>306.8</ele>
        <time>2025-11-11T11:58:43Z</time>
      </trkpt>
      <trkpt lat="45.70327" lon="4.73083">
        <ele>307</ele>
        <time>2025-11-11T11:58:44Z</time>
      </trkpt>
      <trkpt lat="45.70327" lon="4.73088">
        <ele>307</ele>
        <time>2025-11-11T11:58:45Z</time>
      </trkpt>
      <trkpt lat="45.70327" lon="4.73093">
        <ele>307.2</ele>
        <time>2025-11-11T11:58:46Z</time>
      </trkpt>
      <trkpt lat="45.70328" lon="4.73097">
        <ele>307.4</ele>
        <time>2025-11-11T11:58:47Z</time>
      </trkpt>
      <trkpt lat="45.7033" lon="4.731">
        <ele>307.6</ele>
        <time>2025-11-11T11:58:48Z</time>
      </trkpt>
      <trkpt lat="45.70332" lon="4.73103">
        <ele>307.6</ele>
        <time>2025-11-11T11:58:49Z</time>
      </trkpt>
      <trkpt lat="45.70334" lon="4.73105">
        <ele>307.8</ele>
        <time>2025-11-11T11:58:50Z</time>
      </trkpt>
      <trkpt lat="45.70334" lon="4.73106">
        <ele>308</ele>
        <time>2025-11-11T11:58:51Z</time>
      </trkpt>
      <trkpt lat="45.70334" lon="4.73106">
        <ele>308</ele>
        <time>2025-11-11T11:58:52Z</time>
      </trkpt>
      <trkpt lat="45.70334" lon="4.73106">
        <ele>308.2</ele>
        <time>2025-11-11T11:58:53Z</time>
      </trkpt>
      <trkpt lat="45.70334" lon="4.73106">
        <ele>308.2</ele>
        <time>2025-11-11T11:58:54Z</time>
      </trkpt>
      <trkpt lat="45.70334" lon="4.73106">
        <ele>308.4</ele>
        <time>2025-11-11T11:58:55Z</time>
      </trkpt>
      <trkpt lat="45.70334" lon="4.73106">
        <ele>308.4</ele>
        <time>2025-11-11T11:58:56Z</time>
      </trkpt>
      <trkpt lat="45.70334" lon="4.73106">
        <ele>308.4</ele>
        <time>2025-11-11T11:58:57Z</time>
      </trkpt>
      <trkpt lat="45.70334" lon="4.73106">
        <ele>308.4</ele>
        <time>2025-11-11T11:58:58Z</time>
      </trkpt>
      <trkpt lat="45.70334" lon="4.73106">
        <ele>308.4</ele>
        <time>2025-11-11T11:58:59Z</time>
      </trkpt>
      <trkpt lat="45.70334" lon="4.73106">
        <ele>308.4</ele>
        <time>2025-11-11T11:59:00Z</time>
      </trkpt>
      <trkpt lat="45.70334" lon="4.73106">
        <ele>308.4</ele>
        <time>2025-11-11T11:59:01Z</time>
      </trkpt>
      <trkpt lat="45.70334" lon="4.73106">
        <ele>308.4</ele>
        <time>2025-11-11T11:59:02Z</time>
      </trkpt>
      <trkpt lat="45.70334" lon="4.73106">
        <ele>308.4</ele>
        <time>2025-11-11T11:59:03Z</time>
      </trkpt>
      <trkpt lat="45.70334" lon="4.73106">
        <ele>308.4</ele>
        <time>2025-11-11T11:59:04Z</time>
      </trkpt>
      <trkpt lat="45.70334" lon="4.73106">
        <ele>308.4</ele>
        <time>2025-11-11T11:59:05Z</time>
      </trkpt>
      <trkpt lat="45.70334" lon="4.73106">
        <ele>308.4</ele>
        <time>2025-11-11T11:59:06Z</time>
      </trkpt>
      <trkpt lat="45.70334" lon="4.73106">
        <ele>308.4</ele>
        <time>2025-11-11T11:59:07Z</time>
      </trkpt>
      <trkpt lat="45.70334" lon="4.73106">
        <ele>308.4</ele>
        <time>2025-11-11T11:59:08Z</time>
      </trkpt>
      <trkpt lat="45.70334" lon="4.73106">
        <ele>308.4</ele>
        <time>2025-11-11T11:59:09Z</time>
      </trkpt>
      <trkpt lat="45.70334" lon="4.73106">
        <ele>308.4</ele>
        <time>2025-11-11T11:59:10Z</time>
      </trkpt>
      <trkpt lat="45.70334" lon="4.73106">
        <ele>308.2</ele>
        <time>2025-11-11T11:59:11Z</time>
      </trkpt>
      <trkpt lat="45.70334" lon="4.73106">
        <ele>308.2</ele>
        <time>2025-11-11T11:59:12Z</time>
      </trkpt>
      <trkpt lat="45.70334" lon="4.73106">
        <ele>308.2</ele>
        <time>2025-11-11T11:59:13Z</time>
      </trkpt>
      <trkpt lat="45.70334" lon="4.73106">
        <ele>308.2</ele>
        <time>2025-11-11T11:59:14Z</time>
      </trkpt>
      <trkpt lat="45.70334" lon="4.73106">
        <ele>308.2</ele>
        <time>2025-11-11T11:59:15Z</time>
      </trkpt>
      <trkpt lat="45.70334" lon="4.73106">
        <ele>308.2</ele>
        <time>2025-11-11T11:59:16Z</time>
      </trkpt>
      <trkpt lat="45.70334" lon="4.73106">
        <ele>308.2</ele>
        <time>2025-11-11T11:59:17Z</time>
      </trkpt>
      <trkpt lat="45.70334" lon="4.73106">
        <ele>308.2</ele>
        <time>2025-11-11T11:59:18Z</time>
      </trkpt>
      <trkpt lat="45.70334" lon="4.73106">
        <ele>308.2</ele>
        <time>2025-11-11T11:59:19Z</time>
      </trkpt>
      <trkpt lat="45.70334" lon="4.73106">
        <ele>308.2</ele>
        <time>2025-11-11T11:59:20Z</time>
      </trkpt>
      <trkpt lat="45.70334" lon="4.73106">
        <ele>308.2</ele>
        <time>2025-11-11T11:59:21Z</time>
      </trkpt>
      <trkpt lat="45.70334" lon="4.73106">
        <ele>308.2</ele>
        <time>2025-11-11T11:59:22Z</time>
      </trkpt>
      <trkpt lat="45.70334" lon="4.73106">
        <ele>308.2</ele>
        <time>2025-11-11T11:59:23Z</time>
      </trkpt>
      <trkpt lat="45.70334" lon="4.73106">
        <ele>308.2</ele>
        <time>2025-11-11T11:59:24Z</time>
      </trkpt>
      <trkpt lat="45.70334" lon="4.73106">
        <ele>308.2</ele>
        <time>2025-11-11T11:59:25Z</time>
      </trkpt>
      <trkpt lat="45.70334" lon="4.73106">
        <ele>308.2</ele>
        <time>2025-11-11T11:59:26Z</time>
      </trkpt>
      <trkpt lat="45.70334" lon="4.73106">
        <ele>308.2</ele>
        <time>2025-11-11T11:59:27Z</time>
      </trkpt>
      <trkpt lat="45.70334" lon="4.73106">
        <ele>308.2</ele>
        <time>2025-11-11T11:59:28Z</time>
      </trkpt>
      <trkpt lat="45.70334" lon="4.73106">
        <ele>308.2</ele>
        <time>2025-11-11T11:59:29Z</time>
      </trkpt>
      <trkpt lat="45.70334" lon="4.73106">
        <ele>308.2</ele>
        <time>2025-11-11T11:59:30Z</time>
      </trkpt>
      <trkpt lat="45.70334" lon="4.73106">
        <ele>308.2</ele>
        <time>2025-11-11T11:59:31Z</time>
      </trkpt>
      <trkpt lat="45.70334" lon="4.73106">
        <ele>308.2</ele>
        <time>2025-11-11T11:59:32Z</time>
      </trkpt>
      <trkpt lat="45.70335" lon="4.73106">
        <ele>308.2</ele>
        <time>2025-11-11T11:59:33Z</time>
      </trkpt>
      <trkpt lat="45.70336" lon="4.73107">
        <ele>308</ele>
        <time>2025-11-11T11:59:34Z</time>
      </trkpt>
      <trkpt lat="45.70337" lon="4.73108">
        <ele>308</ele>
        <time>2025-11-11T11:59:35Z</time>
      </trkpt>
      <trkpt lat="45.70339" lon="4.73109">
        <ele>308</ele>
        <time>2025-11-11T11:59:36Z</time>
      </trkpt>
      <trkpt lat="45.70341" lon="4.73112">
        <ele>307.8</ele>
        <time>2025-11-11T11:59:37Z</time>
      </trkpt>
      <trkpt lat="45.70345" lon="4.73115">
        <ele>307.8</ele>
        <time>2025-11-11T11:59:38Z</time>
      </trkpt>
      <trkpt lat="45.70348" lon="4.7312">
        <ele>307.6</ele>
        <time>2025-11-11T11:59:39Z</time>
      </trkpt>
      <trkpt lat="45.70352" lon="4.73124">
        <ele>307.4</ele>
        <time>2025-11-11T11:59:40Z</time>
      </trkpt>
      <trkpt lat="45.70356" lon="4.73129">
        <ele>307.2</ele>
        <time>2025-11-11T11:59:41Z</time>
      </trkpt>
      <trkpt lat="45.7036" lon="4.73134">
        <ele>306.8</ele>
        <time>2025-11-11T11:59:42Z</time>
      </trkpt>
      <trkpt lat="45.70364" lon="4.7314">
        <ele>306.6</ele>
        <time>2025-11-11T11:59:43Z</time>
      </trkpt>
      <trkpt lat="45.70369" lon="4.73145">
        <ele>306.6</ele>
        <time>2025-11-11T11:59:44Z</time>
      </trkpt>
      <trkpt lat="45.70373" lon="4.7315">
        <ele>306.4</ele>
        <time>2025-11-11T11:59:45Z</time>
      </trkpt>
      <trkpt lat="45.70378" lon="4.73155">
        <ele>306.2</ele>
        <time>2025-11-11T11:59:46Z</time>
      </trkpt>
      <trkpt lat="45.70383" lon="4.73159">
        <ele>306.2</ele>
        <time>2025-11-11T11:59:47Z</time>
      </trkpt>
      <trkpt lat="45.70388" lon="4.73163">
        <ele>306.2</ele>
        <time>2025-11-11T11:59:48Z</time>
      </trkpt>
      <trkpt lat="45.70393" lon="4.73167">
        <ele>306.2</ele>
        <time>2025-11-11T11:59:49Z</time>
      </trkpt>
      <trkpt lat="45.70398" lon="4.73171">
        <ele>306.2</ele>
        <time>2025-11-11T11:59:50Z</time>
      </trkpt>
      <trkpt lat="45.70404" lon="4.73175">
        <ele>306.2</ele>
        <time>2025-11-11T11:59:51Z</time>
      </trkpt>
      <trkpt lat="45.70409" lon="4.73179">
        <ele>306.2</ele>
        <time>2025-11-11T11:59:52Z</time>
      </trkpt>
      <trkpt lat="45.70414" lon="4.73183">
        <ele>306.2</ele>
        <time>2025-11-11T11:59:53Z</time>
      </trkpt>
      <trkpt lat="45.7042" lon="4.73186">
        <ele>306.2</ele>
        <time>2025-11-11T11:59:54Z</time>
      </trkpt>
      <trkpt lat="45.70425" lon="4.7319">
        <ele>306.2</ele>
        <time>2025-11-11T11:59:55Z</time>
      </trkpt>
      <trkpt lat="45.70431" lon="4.73194">
        <ele>306.2</ele>
        <time>2025-11-11T11:59:56Z</time>
      </trkpt>
      <trkpt lat="45.70437" lon="4.73197">
        <ele>306.2</ele>
        <time>2025-11-11T11:59:57Z</time>
      </trkpt>
      <trkpt lat="45.70442" lon="4.73201">
        <ele>306.2</ele>
        <time>2025-11-11T11:59:58Z</time>
      </trkpt>
      <trkpt lat="45.70448" lon="4.73205">
        <ele>306.2</ele>
        <time>2025-11-11T11:59:59Z</time>
      </trkpt>
      <trkpt lat="45.70453" lon="4.73209">
        <ele>306.2</ele>
        <time>2025-11-11T12:00:00Z</time>
      </trkpt>
      <trkpt lat="45.70459" lon="4.73212">
        <ele>306</ele>
        <time>2025-11-11T12:00:01Z</time>
      </trkpt>
      <trkpt lat="45.70465" lon="4.73216">
        <ele>306</ele>
        <time>2025-11-11T12:00:02Z</time>
      </trkpt>
      <trkpt lat="45.7047" lon="4.7322">
        <ele>306</ele>
        <time>2025-11-11T12:00:03Z</time>
      </trkpt>
      <trkpt lat="45.70476" lon="4.73224">
        <ele>306</ele>
        <time>2025-11-11T12:00:04Z</time>
      </trkpt>
      <trkpt lat="45.70482" lon="4.73228">
        <ele>305.8</ele>
        <time>2025-11-11T12:00:05Z</time>
      </trkpt>
      <trkpt lat="45.70488" lon="4.73231">
        <ele>305.8</ele>
        <time>2025-11-11T12:00:06Z</time>
      </trkpt>
      <trkpt lat="45.70493" lon="4.73235">
        <ele>305.8</ele>
        <time>2025-11-11T12:00:07Z</time>
      </trkpt>
      <trkpt lat="45.70499" lon="4.73239">
        <ele>305.8</ele>
        <time>2025-11-11T12:00:08Z</time>
      </trkpt>
      <trkpt lat="45.70505" lon="4.73243">
        <ele>305.8</ele>
        <time>2025-11-11T12:00:09Z</time>
      </trkpt>
      <trkpt lat="45.7051" lon="4.73247">
        <ele>305.6</ele>
        <time>2025-11-11T12:00:10Z</time>
      </trkpt>
      <trkpt lat="45.70516" lon="4.73251">
        <ele>305.6</ele>
        <time>2025-11-11T12:00:11Z</time>
      </trkpt>
      <trkpt lat="45.70522" lon="4.73255">
        <ele>305.4</ele>
        <time>2025-11-11T12:00:12Z</time>
      </trkpt>
      <trkpt lat="45.70527" lon="4.73258">
        <ele>305.4</ele>
        <time>2025-11-11T12:00:13Z</time>
      </trkpt>
      <trkpt lat="45.70533" lon="4.73262">
        <ele>305.4</ele>
        <time>2025-11-11T12:00:14Z</time>
      </trkpt>
      <trkpt lat="45.70538" lon="4.73266">
        <ele>305.4</ele>
        <time>2025-11-11T12:00:15Z</time>
      </trkpt>
      <trkpt lat="45.70543" lon="4.73271">
        <ele>305.4</ele>
        <time>2025-11-11T12:00:16Z</time>
      </trkpt>
      <trkpt lat="45.70548" lon="4.73275">
        <ele>305.4</ele>
        <time>2025-11-11T12:00:17Z</time>
      </trkpt>
      <trkpt lat="45.70553" lon="4.73279">
        <ele>305.4</ele>
        <time>2025-11-11T12:00:18Z</time>
      </trkpt>
      <trkpt lat="45.70559" lon="4.73284">
        <ele>305.4</ele>
        <time>2025-11-11T12:00:19Z</time>
      </trkpt>
      <trkpt lat="45.70563" lon="4.73289">
        <ele>305.4</ele>
        <time>2025-11-11T12:00:20Z</time>
      </trkpt>
      <trkpt lat="45.70568" lon="4.73294">
        <ele>305.4</ele>
        <time>2025-11-11T12:00:21Z</time>
      </trkpt>
      <trkpt lat="45.70573" lon="4.73299">
        <ele>305.4</ele>
        <time>2025-11-11T12:00:22Z</time>
      </trkpt>
      <trkpt lat="45.70577" lon="4.73304">
        <ele>305.4</ele>
        <time>2025-11-11T12:00:23Z</time>
      </trkpt>
      <trkpt lat="45.70581" lon="4.73309">
        <ele>305.6</ele>
        <time>2025-11-11T12:00:24Z</time>
      </trkpt>
      <trkpt lat="45.70586" lon="4.73315">
        <ele>305.6</ele>
        <time>2025-11-11T12:00:25Z</time>
      </trkpt>
      <trkpt lat="45.7059" lon="4.7332">
        <ele>305.6</ele>
        <time>2025-11-11T12:00:26Z</time>
      </trkpt>
      <trkpt lat="45.70594" lon="4.73326">
        <ele>305.6</ele>
        <time>2025-11-11T12:00:27Z</time>
      </trkpt>
      <trkpt lat="45.70598" lon="4.73332">
        <ele>305.8</ele>
        <time>2025-11-11T12:00:28Z</time>
      </trkpt>
      <trkpt lat="45.70602" lon="4.73338">
        <ele>305.8</ele>
        <time>2025-11-11T12:00:29Z</time>
      </trkpt>
      <trkpt lat="45.70605" lon="4.73344">
        <ele>305.8</ele>
        <time>2025-11-11T12:00:30Z</time>
      </trkpt>
      <trkpt lat="45.70609" lon="4.7335">
        <ele>305.8</ele>
        <time>2025-11-11T12:00:31Z</time>
      </trkpt>
      <trkpt lat="45.70613" lon="4.73356">
        <ele>306</ele>
        <time>2025-11-11T12:00:32Z</time>
      </trkpt>
      <trkpt lat="45.70617" lon="4.73361">
        <ele>306.2</ele>
        <time>2025-11-11T12:00:33Z</time>
      </trkpt>
      <trkpt lat="45.7062" lon="4.73367">
        <ele>306.2</ele>
        <time>2025-11-11T12:00:34Z</time>
      </trkpt>
      <trkpt lat="45.70624" lon="4.73373">
        <ele>306.4</ele>
        <time>2025-11-11T12:00:35Z</time>
      </trkpt>
      <trkpt lat="45.70627" lon="4.73379">
        <ele>306.4</ele>
        <time>2025-11-11T12:00:36Z</time>
      </trkpt>
      <trkpt lat="45.70631" lon="4.73384">
        <ele>306.6</ele>
        <time>2025-11-11T12:00:37Z</time>
      </trkpt>
      <trkpt lat="45.70634" lon="4.7339">
        <ele>306.6</ele>
        <time>2025-11-11T12:00:38Z</time>
      </trkpt>
      <trkpt lat="45.70637" lon="4.73396">
        <ele>306.6</ele>
        <time>2025-11-11T12:00:39Z</time>
      </trkpt>
      <trkpt lat="45.70641" lon="4.73401">
        <ele>306.6</ele>
        <time>2025-11-11T12:00:40Z</time>
      </trkpt>
      <trkpt lat="45.70644" lon="4.73407">
        <ele>306.8</ele>
        <time>2025-11-11T12:00:41Z</time>
      </trkpt>
      <trkpt lat="45.70648" lon="4.73412">
        <ele>306.8</ele>
        <time>2025-11-11T12:00:42Z</time>
      </trkpt>
      <trkpt lat="45.70652" lon="4.73417">
        <ele>307</ele>
        <time>2025-11-11T12:00:43Z</time>
      </trkpt>
      <trkpt lat="45.70657" lon="4.73423">
        <ele>307.2</ele>
        <time>2025-11-11T12:00:44Z</time>
      </trkpt>
      <trkpt lat="45.7066" lon="4.73427">
        <ele>307.4</ele>
        <time>2025-11-11T12:00:45Z</time>
      </trkpt>
      <trkpt lat="45.70664" lon="4.73432">
        <ele>307.6</ele>
        <time>2025-11-11T12:00:46Z</time>
      </trkpt>
      <trkpt lat="45.70668" lon="4.73437">
        <ele>307.8</ele>
        <time>2025-11-11T12:00:47Z</time>
      </trkpt>
      <trkpt lat="45.70671" lon="4.73442">
        <ele>308</ele>
        <time>2025-11-11T12:00:48Z</time>
      </trkpt>
      <trkpt lat="45.70675" lon="4.73447">
        <ele>308.2</ele>
        <time>2025-11-11T12:00:49Z</time>
      </trkpt>
      <trkpt lat="45.70678" lon="4.73451">
        <ele>308.2</ele>
        <time>2025-11-11T12:00:50Z</time>
      </trkpt>
      <trkpt lat="45.70682" lon="4.73456">
        <ele>308.2</ele>
        <time>2025-11-11T12:00:51Z</time>
      </trkpt>
      <trkpt lat="45.70686" lon="4.7346">
        <ele>308.4</ele>
        <time>2025-11-11T12:00:52Z</time>
      </trkpt>
      <trkpt lat="45.70689" lon="4.73463">
        <ele>308.4</ele>
        <time>2025-11-11T12:00:53Z</time>
      </trkpt>
      <trkpt lat="45.70693" lon="4.73468">
        <ele>308.6</ele>
        <time>2025-11-11T12:00:54Z</time>
      </trkpt>
      <trkpt lat="45.70697" lon="4.73472">
        <ele>308.6</ele>
        <time>2025-11-11T12:00:55Z</time>
      </trkpt>
      <trkpt lat="45.70701" lon="4.73476">
        <ele>308.8</ele>
        <time>2025-11-11T12:00:56Z</time>
      </trkpt>
      <trkpt lat="45.70705" lon="4.73479">
        <ele>309</ele>
        <time>2025-11-11T12:00:57Z</time>
      </trkpt>
      <trkpt lat="45.70709" lon="4.73483">
        <ele>309</ele>
        <time>2025-11-11T12:00:58Z</time>
      </trkpt>
      <trkpt lat="45.70713" lon="4.73487">
        <ele>309.2</ele>
        <time>2025-11-11T12:00:59Z</time>
      </trkpt>
      <trkpt lat="45.70717" lon="4.73492">
        <ele>309.4</ele>
        <time>2025-11-11T12:01:00Z</time>
      </trkpt>
      <trkpt lat="45.70721" lon="4.73496">
        <ele>309.4</ele>
        <time>2025-11-11T12:01:01Z</time>
      </trkpt>
      <trkpt lat="45.70725" lon="4.735">
        <ele>309.6</ele>
        <time>2025-11-11T12:01:02Z</time>
      </trkpt>
      <trkpt lat="45.70729" lon="4.73504">
        <ele>309.6</ele>
        <time>2025-11-11T12:01:03Z</time>
      </trkpt>
      <trkpt lat="45.70733" lon="4.73509">
        <ele>309.6</ele>
        <time>2025-11-11T12:01:04Z</time>
      </trkpt>
      <trkpt lat="45.70737" lon="4.73513">
        <ele>309.6</ele>
        <time>2025-11-11T12:01:05Z</time>
      </trkpt>
      <trkpt lat="45.70741" lon="4.73518">
        <ele>309.6</ele>
        <time>2025-11-11T12:01:06Z</time>
      </trkpt>
      <trkpt lat="45.70745" lon="4.73522">
        <ele>309.6</ele>
        <time>2025-11-11T12:01:07Z</time>
      </trkpt>
      <trkpt lat="45.70749" lon="4.73527">
        <ele>309.6</ele>
        <time>2025-11-11T12:01:08Z</time>
      </trkpt>
      <trkpt lat="45.70753" lon="4.73531">
        <ele>309.6</ele>
        <time>2025-11-11T12:01:09Z</time>
      </trkpt>
      <trkpt lat="45.70757" lon="4.73535">
        <ele>309.8</ele>
        <time>2025-11-11T12:01:10Z</time>
      </trkpt>
      <trkpt lat="45.70761" lon="4.73539">
        <ele>309.8</ele>
        <time>2025-11-11T12:01:11Z</time>
      </trkpt>
      <trkpt lat="45.70765" lon="4.73543">
        <ele>309.8</ele>
        <time>2025-11-11T12:01:12Z</time>
      </trkpt>
      <trkpt lat="45.70769" lon="4.73547">
        <ele>310</ele>
        <time>2025-11-11T12:01:13Z</time>
      </trkpt>
      <trkpt lat="45.70773" lon="4.73551">
        <ele>310</ele>
        <time>2025-11-11T12:01:14Z</time>
      </trkpt>
      <trkpt lat="45.70777" lon="4.73555">
        <ele>310</ele>
        <time>2025-11-11T12:01:15Z</time>
      </trkpt>
      <trkpt lat="45.70781" lon="4.73559">
        <ele>310</ele>
        <time>2025-11-11T12:01:16Z</time>
      </trkpt>
      <trkpt lat="45.70785" lon="4.73563">
        <ele>310.2</ele>
        <time>2025-11-11T12:01:17Z</time>
      </trkpt>
      <trkpt lat="45.70789" lon="4.73566">
        <ele>310.2</ele>
        <time>2025-11-11T12:01:18Z</time>
      </trkpt>
      <trkpt lat="45.70793" lon="4.7357">
        <ele>310.4</ele>
        <time>2025-11-11T12:01:19Z</time>
      </trkpt>
      <trkpt lat="45.70797" lon="4.73574">
        <ele>310.4</ele>
        <time>2025-11-11T12:01:20Z</time>
      </trkpt>
      <trkpt lat="45.70802" lon="4.73578">
        <ele>310.6</ele>
        <time>2025-11-11T12:01:21Z</time>
      </trkpt>
      <trkpt lat="45.70806" lon="4.73582">
        <ele>310.8</ele>
        <time>2025-11-11T12:01:22Z</time>
      </trkpt>
      <trkpt lat="45.70811" lon="4.73586">
        <ele>310.8</ele>
        <time>2025-11-11T12:01:23Z</time>
      </trkpt>
      <trkpt lat="45.70815" lon="4.73591">
        <ele>310.8</ele>
        <time>2025-11-11T12:01:24Z</time>
      </trkpt>
      <trkpt lat="45.7082" lon="4.73595">
        <ele>310.8</ele>
        <time>2025-11-11T12:01:25Z</time>
      </trkpt>
      <trkpt lat="45.70825" lon="4.736">
        <ele>310.8</ele>
        <time>2025-11-11T12:01:26Z</time>
      </trkpt>
      <trkpt lat="45.70829" lon="4.73604">
        <ele>310.8</ele>
        <time>2025-11-11T12:01:27Z</time>
      </trkpt>
      <trkpt lat="45.70834" lon="4.73609">
        <ele>310.6</ele>
        <time>2025-11-11T12:01:28Z</time>
      </trkpt>
      <trkpt lat="45.70838" lon="4.73613">
        <ele>310.6</ele>
        <time>2025-11-11T12:01:29Z</time>
      </trkpt>
      <trkpt lat="45.70843" lon="4.73618">
        <ele>310.4</ele>
        <time>2025-11-11T12:01:30Z</time>
      </trkpt>
      <trkpt lat="45.70847" lon="4.73622">
        <ele>310.4</ele>
        <time>2025-11-11T12:01:31Z</time>
      </trkpt>
      <trkpt lat="45.70851" lon="4.73627">
        <ele>310.4</ele>
        <time>2025-11-11T12:01:32Z</time>
      </trkpt>
      <trkpt lat="45.70856" lon="4.73631">
        <ele>310.4</ele>
        <time>2025-11-11T12:01:33Z</time>
      </trkpt>
      <trkpt lat="45.7086" lon="4.73636">
        <ele>310.4</ele>
        <time>2025-11-11T12:01:34Z</time>
      </trkpt>
      <trkpt lat="45.70865" lon="4.73641">
        <ele>310.4</ele>
        <time>2025-11-11T12:01:35Z</time>
      </trkpt>
      <trkpt lat="45.70869" lon="4.73645">
        <ele>310.4</ele>
        <time>2025-11-11T12:01:36Z</time>
      </trkpt>
      <trkpt lat="45.70873" lon="4.73651">
        <ele>310.4</ele>
        <time>2025-11-11T12:01:37Z</time>
      </trkpt>
      <trkpt lat="45.70876" lon="4.73657">
        <ele>310.2</ele>
        <time>2025-11-11T12:01:38Z</time>
      </trkpt>
      <trkpt lat="45.70879" lon="4.73664">
        <ele>310.2</ele>
        <time>2025-11-11T12:01:39Z</time>
      </trkpt>
      <trkpt lat="45.70881" lon="4.73671">
        <ele>310.2</ele>
        <time>2025-11-11T12:01:40Z</time>
      </trkpt>
      <trkpt lat="45.70884" lon="4.73677">
        <ele>310.2</ele>
        <time>2025-11-11T12:01:41Z</time>
      </trkpt>
      <trkpt lat="45.70888" lon="4.73681">
        <ele>310.2</ele>
        <time>2025-11-11T12:01:42Z</time>
      </trkpt>
      <trkpt lat="45.70892" lon="4.73685">
        <ele>310.4</ele>
        <time>2025-11-11T12:01:43Z</time>
      </trkpt>
      <trkpt lat="45.70897" lon="4.73689">
        <ele>310.4</ele>
        <time>2025-11-11T12:01:44Z</time>
      </trkpt>
      <trkpt lat="45.70902" lon="4.73692">
        <ele>310.4</ele>
        <time>2025-11-11T12:01:45Z</time>
      </trkpt>
      <trkpt lat="45.70907" lon="4.73693">
        <ele>310.6</ele>
        <time>2025-11-11T12:01:46Z</time>
      </trkpt>
      <trkpt lat="45.70912" lon="4.73695">
        <ele>310.6</ele>
        <time>2025-11-11T12:01:47Z</time>
      </trkpt>
      <trkpt lat="45.70917" lon="4.73698">
        <ele>310.6</ele>
        <time>2025-11-11T12:01:48Z</time>
      </trkpt>
      <trkpt lat="45.70921" lon="4.73702">
        <ele>310.8</ele>
        <time>2025-11-11T12:01:49Z</time>
      </trkpt>
      <trkpt lat="45.70925" lon="4.73707">
        <ele>310.8</ele>
        <time>2025-11-11T12:01:50Z</time>
      </trkpt>
      <trkpt lat="45.70929" lon="4.73713">
        <ele>310.8</ele>
        <time>2025-11-11T12:01:51Z</time>
      </trkpt>
      <trkpt lat="45.70933" lon="4.73718">
        <ele>310.8</ele>
        <time>2025-11-11T12:01:52Z</time>
      </trkpt>
      <trkpt lat="45.70937" lon="4.73723">
        <ele>310.8</ele>
        <time>2025-11-11T12:01:53Z</time>
      </trkpt>
      <trkpt lat="45.70942" lon="4.73728">
        <ele>310.8</ele>
        <time>2025-11-11T12:01:54Z</time>
      </trkpt>
      <trkpt lat="45.70946" lon="4.73732">
        <ele>311</ele>
        <time>2025-11-11T12:01:55Z</time>
      </trkpt>
      <trkpt lat="45.7095" lon="4.73737">
        <ele>311</ele>
        <time>2025-11-11T12:01:56Z</time>
      </trkpt>
      <trkpt lat="45.70954" lon="4.73742">
        <ele>311.2</ele>
        <time>2025-11-11T12:01:57Z</time>
      </trkpt>
      <trkpt lat="45.70958" lon="4.73747">
        <ele>311.2</ele>
        <time>2025-11-11T12:01:58Z</time>
      </trkpt>
      <trkpt lat="45.70962" lon="4.73753">
        <ele>311.4</ele>
        <time>2025-11-11T12:01:59Z</time>
      </trkpt>
      <trkpt lat="45.70966" lon="4.73757">
        <ele>311.6</ele>
        <time>2025-11-11T12:02:00Z</time>
      </trkpt>
      <trkpt lat="45.7097" lon="4.73762">
        <ele>311.8</ele>
        <time>2025-11-11T12:02:01Z</time>
      </trkpt>
      <trkpt lat="45.70974" lon="4.73767">
        <ele>311.8</ele>
        <time>2025-11-11T12:02:02Z</time>
      </trkpt>
      <trkpt lat="45.70978" lon="4.73771">
        <ele>312</ele>
        <time>2025-11-11T12:02:03Z</time>
      </trkpt>
      <trkpt lat="45.70981" lon="4.73776">
        <ele>312.2</ele>
        <time>2025-11-11T12:02:04Z</time>
      </trkpt>
      <trkpt lat="45.70985" lon="4.73781">
        <ele>312.2</ele>
        <time>2025-11-11T12:02:05Z</time>
      </trkpt>
      <trkpt lat="45.70989" lon="4.73785">
        <ele>312.2</ele>
        <time>2025-11-11T12:02:06Z</time>
      </trkpt>
      <trkpt lat="45.70992" lon="4.7379">
        <ele>312.4</ele>
        <time>2025-11-11T12:02:07Z</time>
      </trkpt>
      <trkpt lat="45.70996" lon="4.73794">
        <ele>312.6</ele>
        <time>2025-11-11T12:02:08Z</time>
      </trkpt>
      <trkpt lat="45.71" lon="4.73798">
        <ele>312.8</ele>
        <time>2025-11-11T12:02:09Z</time>
      </trkpt>
      <trkpt lat="45.71004" lon="4.73802">
        <ele>313</ele>
        <time>2025-11-11T12:02:10Z</time>
      </trkpt>
      <trkpt lat="45.71008" lon="4.73806">
        <ele>313.2</ele>
        <time>2025-11-11T12:02:11Z</time>
      </trkpt>
      <trkpt lat="45.71012" lon="4.73809">
        <ele>313.2</ele>
        <time>2025-11-11T12:02:12Z</time>
      </trkpt>
      <trkpt lat="45.71016" lon="4.73813">
        <ele>313.4</ele>
        <time>2025-11-11T12:02:13Z</time>
      </trkpt>
      <trkpt lat="45.7102" lon="4.73816">
        <ele>313.4</ele>
        <time>2025-11-11T12:02:14Z</time>
      </trkpt>
      <trkpt lat="45.71023" lon="4.7382">
        <ele>313.6</ele>
        <time>2025-11-11T12:02:15Z</time>
      </trkpt>
      <trkpt lat="45.71027" lon="4.73824">
        <ele>313.8</ele>
        <time>2025-11-11T12:02:16Z</time>
      </trkpt>
      <trkpt lat="45.71031" lon="4.73829">
        <ele>313.8</ele>
        <time>2025-11-11T12:02:17Z</time>
      </trkpt>
      <trkpt lat="45.71035" lon="4.73833">
        <ele>314</ele>
        <time>2025-11-11T12:02:18Z</time>
      </trkpt>
      <trkpt lat="45.71038" lon="4.73837">
        <ele>314.2</ele>
        <time>2025-11-11T12:02:19Z</time>
      </trkpt>
      <trkpt lat="45.71043" lon="4.73841">
        <ele>314.2</ele>
        <time>2025-11-11T12:02:20Z</time>
      </trkpt>
      <trkpt lat="45.71046" lon="4.73845">
        <ele>314.4</ele>
        <time>2025-11-11T12:02:21Z</time>
      </trkpt>
      <trkpt lat="45.7105" lon="4.73849">
        <ele>314.6</ele>
        <time>2025-11-11T12:02:22Z</time>
      </trkpt>
      <trkpt lat="45.71054" lon="4.73854">
        <ele>314.6</ele>
        <time>2025-11-11T12:02:23Z</time>
      </trkpt>
      <trkpt lat="45.71058" lon="4.73858">
        <ele>314.8</ele>
        <time>2025-11-11T12:02:24Z</time>
      </trkpt>
      <trkpt lat="45.71062" lon="4.73862">
        <ele>315</ele>
        <time>2025-11-11T12:02:25Z</time>
      </trkpt>
      <trkpt lat="45.71066" lon="4.73865">
        <ele>315</ele>
        <time>2025-11-11T12:02:26Z</time>
      </trkpt>
      <trkpt lat="45.7107" lon="4.73869">
        <ele>315.2</ele>
        <time>2025-11-11T12:02:27Z</time>
      </trkpt>
      <trkpt lat="45.71073" lon="4.73873">
        <ele>315.4</ele>
        <time>2025-11-11T12:02:28Z</time>
      </trkpt>
      <trkpt lat="45.71077" lon="4.73877">
        <ele>315.4</ele>
        <time>2025-11-11T12:02:29Z</time>
      </trkpt>
      <trkpt lat="45.7108" lon="4.73881">
        <ele>315.4</ele>
        <time>2025-11-11T12:02:30Z</time>
      </trkpt>
      <trkpt lat="45.71084" lon="4.73885">
        <ele>315.4</ele>
        <time>2025-11-11T12:02:31Z</time>
      </trkpt>
      <trkpt lat="45.71087" lon="4.73889">
        <ele>315.6</ele>
        <time>2025-11-11T12:02:32Z</time>
      </trkpt>
      <trkpt lat="45.7109" lon="4.73894">
        <ele>315.8</ele>
        <time>2025-11-11T12:02:33Z</time>
      </trkpt>
      <trkpt lat="45.71093" lon="4.73899">
        <ele>316</ele>
        <time>2025-11-11T12:02:34Z</time>
      </trkpt>
      <trkpt lat="45.71097" lon="4.73904">
        <ele>316.2</ele>
        <time>2025-11-11T12:02:35Z</time>
      </trkpt>
      <trkpt lat="45.71101" lon="4.73907">
        <ele>316.4</ele>
        <time>2025-11-11T12:02:36Z</time>
      </trkpt>
      <trkpt lat="45.71105" lon="4.73909">
        <ele>316.4</ele>
        <time>2025-11-11T12:02:37Z</time>
      </trkpt>
      <trkpt lat="45.71109" lon="4.73911">
        <ele>316.6</ele>
        <time>2025-11-11T12:02:38Z</time>
      </trkpt>
      <trkpt lat="45.71114" lon="4.73913">
        <ele>316.8</ele>
        <time>2025-11-11T12:02:39Z</time>
      </trkpt>
      <trkpt lat="45.71119" lon="4.73915">
        <ele>316.8</ele>
        <time>2025-11-11T12:02:40Z</time>
      </trkpt>
      <trkpt lat="45.71123" lon="4.73917">
        <ele>317</ele>
        <time>2025-11-11T12:02:41Z</time>
      </trkpt>
      <trkpt lat="45.71128" lon="4.73921">
        <ele>317</ele>
        <time>2025-11-11T12:02:42Z</time>
      </trkpt>
      <trkpt lat="45.71132" lon="4.73925">
        <ele>317</ele>
        <time>2025-11-11T12:02:43Z</time>
      </trkpt>
      <trkpt lat="45.71136" lon="4.73929">
        <ele>317.2</ele>
        <time>2025-11-11T12:02:44Z</time>
      </trkpt>
      <trkpt lat="45.7114" lon="4.73933">
        <ele>317.2</ele>
        <time>2025-11-11T12:02:45Z</time>
      </trkpt>
      <trkpt lat="45.71144" lon="4.73937">
        <ele>317.4</ele>
        <time>2025-11-11T12:02:46Z</time>
      </trkpt>
      <trkpt lat="45.71148" lon="4.73941">
        <ele>317.4</ele>
        <time>2025-11-11T12:02:47Z</time>
      </trkpt>
      <trkpt lat="45.71152" lon="4.73944">
        <ele>317.6</ele>
        <time>2025-11-11T12:02:48Z</time>
      </trkpt>
      <trkpt lat="45.71156" lon="4.73948">
        <ele>317.6</ele>
        <time>2025-11-11T12:02:49Z</time>
      </trkpt>
      <trkpt lat="45.71161" lon="4.73951">
        <ele>317.8</ele>
        <time>2025-11-11T12:02:50Z</time>
      </trkpt>
      <trkpt lat="45.71165" lon="4.73954">
        <ele>317.8</ele>
        <time>2025-11-11T12:02:51Z</time>
      </trkpt>
      <trkpt lat="45.71169" lon="4.73958">
        <ele>318</ele>
        <time>2025-11-11T12:02:52Z</time>
      </trkpt>
      <trkpt lat="45.71172" lon="4.73964">
        <ele>318</ele>
        <time>2025-11-11T12:02:53Z</time>
      </trkpt>
      <trkpt lat="45.71173" lon="4.7397">
        <ele>318</ele>
        <time>2025-11-11T12:02:54Z</time>
      </trkpt>
      <trkpt lat="45.71172" lon="4.73977">
        <ele>318</ele>
        <time>2025-11-11T12:02:55Z</time>
      </trkpt>
      <trkpt lat="45.71172" lon="4.73984">
        <ele>317.8</ele>
        <time>2025-11-11T12:02:56Z</time>
      </trkpt>
      <trkpt lat="45.71171" lon="4.73991">
        <ele>317.8</ele>
        <time>2025-11-11T12:02:57Z</time>
      </trkpt>
      <trkpt lat="45.7117" lon="4.73998">
        <ele>317.8</ele>
        <time>2025-11-11T12:02:58Z</time>
      </trkpt>
      <trkpt lat="45.71169" lon="4.74005">
        <ele>317.8</ele>
        <time>2025-11-11T12:02:59Z</time>
      </trkpt>
      <trkpt lat="45.71169" lon="4.74012">
        <ele>317.8</ele>
        <time>2025-11-11T12:03:00Z</time>
      </trkpt>
      <trkpt lat="45.71168" lon="4.74019">
        <ele>317.8</ele>
        <time>2025-11-11T12:03:01Z</time>
      </trkpt>
      <trkpt lat="45.71167" lon="4.74025">
        <ele>317.8</ele>
        <time>2025-11-11T12:03:02Z</time>
      </trkpt>
      <trkpt lat="45.71166" lon="4.74035">
        <ele>317.8</ele>
        <time>2025-11-11T12:03:03Z</time>
      </trkpt>
      <trkpt lat="45.71165" lon="4.74042">
        <ele>317.6</ele>
        <time>2025-11-11T12:03:04Z</time>
      </trkpt>
      <trkpt lat="45.71164" lon="4.7405">
        <ele>317.6</ele>
        <time>2025-11-11T12:03:05Z</time>
      </trkpt>
      <trkpt lat="45.71164" lon="4.74058">
        <ele>317.4</ele>
        <time>2025-11-11T12:03:06Z</time>
      </trkpt>
      <trkpt lat="45.71163" lon="4.74066">
        <ele>317.4</ele>
        <time>2025-11-11T12:03:07Z</time>
      </trkpt>
      <trkpt lat="45.71162" lon="4.74074">
        <ele>317.4</ele>
        <time>2025-11-11T12:03:08Z</time>
      </trkpt>
      <trkpt lat="45.71162" lon="4.74082">
        <ele>317.4</ele>
        <time>2025-11-11T12:03:09Z</time>
      </trkpt>
      <trkpt lat="45.71162" lon="4.74091">
        <ele>317.2</ele>
        <time>2025-11-11T12:03:10Z</time>
      </trkpt>
      <trkpt lat="45.71164" lon="4.74099">
        <ele>317</ele>
        <time>2025-11-11T12:03:11Z</time>
      </trkpt>
      <trkpt lat="45.71165" lon="4.74108">
        <ele>316.8</ele>
        <time>2025-11-11T12:03:12Z</time>
      </trkpt>
      <trkpt lat="45.71167" lon="4.74117">
        <ele>316.4</ele>
        <time>2025-11-11T12:03:13Z</time>
      </trkpt>
      <trkpt lat="45.71169" lon="4.74125">
        <ele>316</ele>
        <time>2025-11-11T12:03:14Z</time>
      </trkpt>
      <trkpt lat="45.71171" lon="4.74134">
        <ele>315.8</ele>
        <time>2025-11-11T12:03:15Z</time>
      </trkpt>
      <trkpt lat="45.71172" lon="4.74144">
        <ele>315.4</ele>
        <time>2025-11-11T12:03:16Z</time>
      </trkpt>
      <trkpt lat="45.71174" lon="4.74153">
        <ele>315</ele>
        <time>2025-11-11T12:03:17Z</time>
      </trkpt>
      <trkpt lat="45.71175" lon="4.74163">
        <ele>314.8</ele>
        <time>2025-11-11T12:03:18Z</time>
      </trkpt>
      <trkpt lat="45.71177" lon="4.74172">
        <ele>314.6</ele>
        <time>2025-11-11T12:03:19Z</time>
      </trkpt>
      <trkpt lat="45.71179" lon="4.74182">
        <ele>314.4</ele>
        <time>2025-11-11T12:03:20Z</time>
      </trkpt>
      <trkpt lat="45.7118" lon="4.74192">
        <ele>314.4</ele>
        <time>2025-11-11T12:03:21Z</time>
      </trkpt>
      <trkpt lat="45.71182" lon="4.74201">
        <ele>314.2</ele>
        <time>2025-11-11T12:03:22Z</time>
      </trkpt>
      <trkpt lat="45.71184" lon="4.74211">
        <ele>314.2</ele>
        <time>2025-11-11T12:03:23Z</time>
      </trkpt>
      <trkpt lat="45.71185" lon="4.74221">
        <ele>314</ele>
        <time>2025-11-11T12:03:24Z</time>
      </trkpt>
      <trkpt lat="45.71187" lon="4.7423">
        <ele>313.8</ele>
        <time>2025-11-11T12:03:25Z</time>
      </trkpt>
      <trkpt lat="45.71188" lon="4.7424">
        <ele>313.8</ele>
        <time>2025-11-11T12:03:26Z</time>
      </trkpt>
      <trkpt lat="45.7119" lon="4.74249">
        <ele>313.6</ele>
        <time>2025-11-11T12:03:27Z</time>
      </trkpt>
      <trkpt lat="45.71192" lon="4.74259">
        <ele>313.4</ele>
        <time>2025-11-11T12:03:28Z</time>
      </trkpt>
      <trkpt lat="45.71194" lon="4.74268">
        <ele>313.2</ele>
        <time>2025-11-11T12:03:29Z</time>
      </trkpt>
      <trkpt lat="45.71197" lon="4.74277">
        <ele>313</ele>
        <time>2025-11-11T12:03:30Z</time>
      </trkpt>
      <trkpt lat="45.71199" lon="4.74286">
        <ele>312.8</ele>
        <time>2025-11-11T12:03:31Z</time>
      </trkpt>
      <trkpt lat="45.71202" lon="4.74294">
        <ele>312.6</ele>
        <time>2025-11-11T12:03:32Z</time>
      </trkpt>
      <trkpt lat="45.71205" lon="4.74302">
        <ele>312.6</ele>
        <time>2025-11-11T12:03:33Z</time>
      </trkpt>
      <trkpt lat="45.71207" lon="4.7431">
        <ele>312.8</ele>
        <time>2025-11-11T12:03:34Z</time>
      </trkpt>
      <trkpt lat="45.71209" lon="4.74318">
        <ele>313</ele>
        <time>2025-11-11T12:03:35Z</time>
      </trkpt>
      <trkpt lat="45.71211" lon="4.74326">
        <ele>313.4</ele>
        <time>2025-11-11T12:03:36Z</time>
      </trkpt>
      <trkpt lat="45.71213" lon="4.74333">
        <ele>313.6</ele>
        <time>2025-11-11T12:03:37Z</time>
      </trkpt>
      <trkpt lat="45.71216" lon="4.74341">
        <ele>313.6</ele>
        <time>2025-11-11T12:03:38Z</time>
      </trkpt>
      <trkpt lat="45.71218" lon="4.74349">
        <ele>313.8</ele>
        <time>2025-11-11T12:03:39Z</time>
      </trkpt>
      <trkpt lat="45.7122" lon="4.74356">
        <ele>313.8</ele>
        <time>2025-11-11T12:03:40Z</time>
      </trkpt>
      <trkpt lat="45.71221" lon="4.74363">
        <ele>314</ele>
        <time>2025-11-11T12:03:41Z</time>
      </trkpt>
      <trkpt lat="45.71222" lon="4.7437">
        <ele>314.2</ele>
        <time>2025-11-11T12:03:42Z</time>
      </trkpt>
      <trkpt lat="45.71224" lon="4.74377">
        <ele>314.4</ele>
        <time>2025-11-11T12:03:43Z</time>
      </trkpt>
      <trkpt lat="45.71225" lon="4.74384">
        <ele>314.6</ele>
        <time>2025-11-11T12:03:44Z</time>
      </trkpt>
      <trkpt lat="45.71225" lon="4.7439">
        <ele>314.8</ele>
        <time>2025-11-11T12:03:45Z</time>
      </trkpt>
      <trkpt lat="45.71226" lon="4.74397">
        <ele>314.8</ele>
        <time>2025-11-11T12:03:46Z</time>
      </trkpt>
      <trkpt lat="45.71226" lon="4.74404">
        <ele>315</ele>
        <time>2025-11-11T12:03:47Z</time>
      </trkpt>
      <trkpt lat="45.71226" lon="4.7441">
        <ele>315.4</ele>
        <time>2025-11-11T12:03:48Z</time>
      </trkpt>
      <trkpt lat="45.71226" lon="4.74417">
        <ele>315.6</ele>
        <time>2025-11-11T12:03:49Z</time>
      </trkpt>
      <trkpt lat="45.71225" lon="4.74423">
        <ele>315.8</ele>
        <time>2025-11-11T12:03:50Z</time>
      </trkpt>
      <trkpt lat="45.71225" lon="4.74429">
        <ele>316.2</ele>
        <time>2025-11-11T12:03:51Z</time>
      </trkpt>
      <trkpt lat="45.71224" lon="4.74435">
        <ele>316.4</ele>
        <time>2025-11-11T12:03:52Z</time>
      </trkpt>
      <trkpt lat="45.71224" lon="4.74442">
        <ele>316.8</ele>
        <time>2025-11-11T12:03:53Z</time>
      </trkpt>
      <trkpt lat="45.71224" lon="4.74449">
        <ele>317</ele>
        <time>2025-11-11T12:03:54Z</time>
      </trkpt>
      <trkpt lat="45.71224" lon="4.74456">
        <ele>317</ele>
        <time>2025-11-11T12:03:55Z</time>
      </trkpt>
      <trkpt lat="45.71224" lon="4.74463">
        <ele>317.2</ele>
        <time>2025-11-11T12:03:56Z</time>
      </trkpt>
      <trkpt lat="45.71224" lon="4.7447">
        <ele>317.2</ele>
        <time>2025-11-11T12:03:57Z</time>
      </trkpt>
      <trkpt lat="45.71224" lon="4.74477">
        <ele>317.4</ele>
        <time>2025-11-11T12:03:58Z</time>
      </trkpt>
      <trkpt lat="45.71224" lon="4.74484">
        <ele>317.4</ele>
        <time>2025-11-11T12:03:59Z</time>
      </trkpt>
      <trkpt lat="45.71224" lon="4.74491">
        <ele>317.6</ele>
        <time>2025-11-11T12:04:00Z</time>
      </trkpt>
      <trkpt lat="45.71223" lon="4.74497">
        <ele>317.8</ele>
        <time>2025-11-11T12:04:01Z</time>
      </trkpt>
      <trkpt lat="45.71222" lon="4.74504">
        <ele>318</ele>
        <time>2025-11-11T12:04:02Z</time>
      </trkpt>
      <trkpt lat="45.71221" lon="4.7451">
        <ele>318</ele>
        <time>2025-11-11T12:04:03Z</time>
      </trkpt>
      <trkpt lat="45.71221" lon="4.74517">
        <ele>318.2</ele>
        <time>2025-11-11T12:04:04Z</time>
      </trkpt>
      <trkpt lat="45.71219" lon="4.74523">
        <ele>318.2</ele>
        <time>2025-11-11T12:04:05Z</time>
      </trkpt>
      <trkpt lat="45.71218" lon="4.7453">
        <ele>318</ele>
        <time>2025-11-11T12:04:06Z</time>
      </trkpt>
      <trkpt lat="45.71216" lon="4.74538">
        <ele>318</ele>
        <time>2025-11-11T12:04:07Z</time>
      </trkpt>
      <trkpt lat="45.71215" lon="4.74545">
        <ele>317.6</ele>
        <time>2025-11-11T12:04:08Z</time>
      </trkpt>
      <trkpt lat="45.71213" lon="4.74552">
        <ele>317.4</ele>
        <time>2025-11-11T12:04:09Z</time>
      </trkpt>
      <trkpt lat="45.71212" lon="4.74557">
        <ele>317.2</ele>
        <time>2025-11-11T12:04:10Z</time>
      </trkpt>
      <trkpt lat="45.71211" lon="4.74563">
        <ele>317.2</ele>
        <time>2025-11-11T12:04:11Z</time>
      </trkpt>
      <trkpt lat="45.71209" lon="4.74568">
        <ele>317.2</ele>
        <time>2025-11-11T12:04:12Z</time>
      </trkpt>
      <trkpt lat="45.71207" lon="4.74575">
        <ele>317.2</ele>
        <time>2025-11-11T12:04:13Z</time>
      </trkpt>
      <trkpt lat="45.71206" lon="4.74582">
        <ele>317.2</ele>
        <time>2025-11-11T12:04:14Z</time>
      </trkpt>
      <trkpt lat="45.71205" lon="4.7459">
        <ele>317</ele>
        <time>2025-11-11T12:04:15Z</time>
      </trkpt>
      <trkpt lat="45.71204" lon="4.74598">
        <ele>316.8</ele>
        <time>2025-11-11T12:04:16Z</time>
      </trkpt>
      <trkpt lat="45.71203" lon="4.74606">
        <ele>316.6</ele>
        <time>2025-11-11T12:04:17Z</time>
      </trkpt>
      <trkpt lat="45.71203" lon="4.74614">
        <ele>316.4</ele>
        <time>2025-11-11T12:04:18Z</time>
      </trkpt>
      <trkpt lat="45.71202" lon="4.74622">
        <ele>316.2</ele>
        <time>2025-11-11T12:04:19Z</time>
      </trkpt>
      <trkpt lat="45.71202" lon="4.7463">
        <ele>316.2</ele>
        <time>2025-11-11T12:04:20Z</time>
      </trkpt>
      <trkpt lat="45.71202" lon="4.74638">
        <ele>316</ele>
        <time>2025-11-11T12:04:21Z</time>
      </trkpt>
      <trkpt lat="45.71202" lon="4.74646">
        <ele>316</ele>
        <time>2025-11-11T12:04:22Z</time>
      </trkpt>
      <trkpt lat="45.71202" lon="4.74653">
        <ele>316</ele>
        <time>2025-11-11T12:04:23Z</time>
      </trkpt>
      <trkpt lat="45.71202" lon="4.74661">
        <ele>316</ele>
        <time>2025-11-11T12:04:24Z</time>
      </trkpt>
      <trkpt lat="45.71201" lon="4.74669">
        <ele>315.8</ele>
        <time>2025-11-11T12:04:25Z</time>
      </trkpt>
      <trkpt lat="45.71201" lon="4.74677">
        <ele>315.8</ele>
        <time>2025-11-11T12:04:26Z</time>
      </trkpt>
      <trkpt lat="45.712" lon="4.74684">
        <ele>315.6</ele>
        <time>2025-11-11T12:04:27Z</time>
      </trkpt>
      <trkpt lat="45.712" lon="4.74691">
        <ele>315.6</ele>
        <time>2025-11-11T12:04:28Z</time>
      </trkpt>
      <trkpt lat="45.712" lon="4.74701">
        <ele>315.4</ele>
        <time>2025-11-11T12:04:29Z</time>
      </trkpt>
      <trkpt lat="45.71199" lon="4.7471">
        <ele>315.2</ele>
        <time>2025-11-11T12:04:30Z</time>
      </trkpt>
      <trkpt lat="45.71198" lon="4.74718">
        <ele>315</ele>
        <time>2025-11-11T12:04:31Z</time>
      </trkpt>
      <trkpt lat="45.71198" lon="4.74727">
        <ele>314.6</ele>
        <time>2025-11-11T12:04:32Z</time>
      </trkpt>
      <trkpt lat="45.71198" lon="4.74735">
        <ele>314.4</ele>
        <time>2025-11-11T12:04:33Z</time>
      </trkpt>
      <trkpt lat="45.71199" lon="4.74744">
        <ele>314.2</ele>
        <time>2025-11-11T12:04:34Z</time>
      </trkpt>
      <trkpt lat="45.71202" lon="4.74752">
        <ele>314</ele>
        <time>2025-11-11T12:04:35Z</time>
      </trkpt>
      <trkpt lat="45.71205" lon="4.74759">
        <ele>313.8</ele>
        <time>2025-11-11T12:04:36Z</time>
      </trkpt>
      <trkpt lat="45.71208" lon="4.74767">
        <ele>313.6</ele>
        <time>2025-11-11T12:04:37Z</time>
      </trkpt>
      <trkpt lat="45.71211" lon="4.74774">
        <ele>313.4</ele>
        <time>2025-11-11T12:04:38Z</time>
      </trkpt>
      <trkpt lat="45.71213" lon="4.74782">
        <ele>313.2</ele>
        <time>2025-11-11T12:04:39Z</time>
      </trkpt>
      <trkpt lat="45.71215" lon="4.7479">
        <ele>313</ele>
        <time>2025-11-11T12:04:40Z</time>
      </trkpt>
      <trkpt lat="45.71217" lon="4.74798">
        <ele>312.8</ele>
        <time>2025-11-11T12:04:41Z</time>
      </trkpt>
      <trkpt lat="45.7122" lon="4.74806">
        <ele>312.6</ele>
        <time>2025-11-11T12:04:42Z</time>
      </trkpt>
      <trkpt lat="45.71222" lon="4.74815">
        <ele>312.6</ele>
        <time>2025-11-11T12:04:43Z</time>
      </trkpt>
      <trkpt lat="45.71224" lon="4.74823">
        <ele>312.6</ele>
        <time>2025-11-11T12:04:44Z</time>
      </trkpt>
      <trkpt lat="45.71227" lon="4.74831">
        <ele>312.8</ele>
        <time>2025-11-11T12:04:45Z</time>
      </trkpt>
      <trkpt lat="45.7123" lon="4.74839">
        <ele>312.8</ele>
        <time>2025-11-11T12:04:46Z</time>
      </trkpt>
      <trkpt lat="45.71231" lon="4.74847">
        <ele>313</ele>
        <time>2025-11-11T12:04:47Z</time>
      </trkpt>
      <trkpt lat="45.71232" lon="4.74855">
        <ele>313</ele>
        <time>2025-11-11T12:04:48Z</time>
      </trkpt>
      <trkpt lat="45.71232" lon="4.74863">
        <ele>313</ele>
        <time>2025-11-11T12:04:49Z</time>
      </trkpt>
      <trkpt lat="45.71231" lon="4.74871">
        <ele>313</ele>
        <time>2025-11-11T12:04:50Z</time>
      </trkpt>
      <trkpt lat="45.7123" lon="4.74878">
        <ele>313</ele>
        <time>2025-11-11T12:04:51Z</time>
      </trkpt>
      <trkpt lat="45.71229" lon="4.74885">
        <ele>313.2</ele>
        <time>2025-11-11T12:04:52Z</time>
      </trkpt>
      <trkpt lat="45.71228" lon="4.74891">
        <ele>313.4</ele>
        <time>2025-11-11T12:04:53Z</time>
      </trkpt>
      <trkpt lat="45.71228" lon="4.74897">
        <ele>313.8</ele>
        <time>2025-11-11T12:04:54Z</time>
      </trkpt>
      <trkpt lat="45.71228" lon="4.74902">
        <ele>314.2</ele>
        <time>2025-11-11T12:04:55Z</time>
      </trkpt>
      <trkpt lat="45.71227" lon="4.74907">
        <ele>314.6</ele>
        <time>2025-11-11T12:04:56Z</time>
      </trkpt>
      <trkpt lat="45.71226" lon="4.74911">
        <ele>315</ele>
        <time>2025-11-11T12:04:57Z</time>
      </trkpt>
      <trkpt lat="45.71224" lon="4.74916">
        <ele>315.2</ele>
        <time>2025-11-11T12:04:58Z</time>
      </trkpt>
      <trkpt lat="45.71221" lon="4.74919">
        <ele>315.4</ele>
        <time>2025-11-11T12:04:59Z</time>
      </trkpt>
      <trkpt lat="45.71218" lon="4.74923">
        <ele>315.6</ele>
        <time>2025-11-11T12:05:00Z</time>
      </trkpt>
      <trkpt lat="45.71214" lon="4.74926">
        <ele>315.6</ele>
        <time>2025-11-11T12:05:01Z</time>
      </trkpt>
      <trkpt lat="45.71211" lon="4.7493">
        <ele>315.6</ele>
        <time>2025-11-11T12:05:02Z</time>
      </trkpt>
      <trkpt lat="45.71208" lon="4.74934">
        <ele>315.6</ele>
        <time>2025-11-11T12:05:03Z</time>
      </trkpt>
      <trkpt lat="45.71203" lon="4.74937">
        <ele>315.4</ele>
        <time>2025-11-11T12:05:04Z</time>
      </trkpt>
      <trkpt lat="45.71199" lon="4.74941">
        <ele>315.2</ele>
        <time>2025-11-11T12:05:05Z</time>
      </trkpt>
      <trkpt lat="45.71194" lon="4.74945">
        <ele>314.8</ele>
        <time>2025-11-11T12:05:06Z</time>
      </trkpt>
      <trkpt lat="45.71189" lon="4.74948">
        <ele>314.4</ele>
        <time>2025-11-11T12:05:07Z</time>
      </trkpt>
      <trkpt lat="45.71183" lon="4.74952">
        <ele>314</ele>
        <time>2025-11-11T12:05:08Z</time>
      </trkpt>
      <trkpt lat="45.71177" lon="4.74955">
        <ele>313.6</ele>
        <time>2025-11-11T12:05:09Z</time>
      </trkpt>
      <trkpt lat="45.71172" lon="4.74959">
        <ele>313.4</ele>
        <time>2025-11-11T12:05:10Z</time>
      </trkpt>
      <trkpt lat="45.71167" lon="4.74961">
        <ele>313.2</ele>
        <time>2025-11-11T12:05:11Z</time>
      </trkpt>
      <trkpt lat="45.7116" lon="4.74964">
        <ele>313</ele>
        <time>2025-11-11T12:05:12Z</time>
      </trkpt>
      <trkpt lat="45.71154" lon="4.74966">
        <ele>312.8</ele>
        <time>2025-11-11T12:05:13Z</time>
      </trkpt>
      <trkpt lat="45.71149" lon="4.74969">
        <ele>312.6</ele>
        <time>2025-11-11T12:05:14Z</time>
      </trkpt>
      <trkpt lat="45.71143" lon="4.74974">
        <ele>312.6</ele>
        <time>2025-11-11T12:05:15Z</time>
      </trkpt>
      <trkpt lat="45.7114" lon="4.74981">
        <ele>312.2</ele>
        <time>2025-11-11T12:05:16Z</time>
      </trkpt>
      <trkpt lat="45.71137" lon="4.74989">
        <ele>312</ele>
        <time>2025-11-11T12:05:17Z</time>
      </trkpt>
      <trkpt lat="45.71136" lon="4.74998">
        <ele>311.6</ele>
        <time>2025-11-11T12:05:18Z</time>
      </trkpt>
      <trkpt lat="45.71135" lon="4.75007">
        <ele>311.2</ele>
        <time>2025-11-11T12:05:19Z</time>
      </trkpt>
      <trkpt lat="45.71133" lon="4.75017">
        <ele>310.6</ele>
        <time>2025-11-11T12:05:20Z</time>
      </trkpt>
      <trkpt lat="45.71131" lon="4.75026">
        <ele>310</ele>
        <time>2025-11-11T12:05:21Z</time>
      </trkpt>
      <trkpt lat="45.71128" lon="4.75037">
        <ele>309.2</ele>
        <time>2025-11-11T12:05:22Z</time>
      </trkpt>
      <trkpt lat="45.71125" lon="4.75047">
        <ele>308.4</ele>
        <time>2025-11-11T12:05:23Z</time>
      </trkpt>
      <trkpt lat="45.71121" lon="4.75056">
        <ele>307.6</ele>
        <time>2025-11-11T12:05:24Z</time>
      </trkpt>
      <trkpt lat="45.71116" lon="4.75066">
        <ele>306.8</ele>
        <time>2025-11-11T12:05:25Z</time>
      </trkpt>
      <trkpt lat="45.71112" lon="4.75076">
        <ele>305.8</ele>
        <time>2025-11-11T12:05:26Z</time>
      </trkpt>
      <trkpt lat="45.71108" lon="4.75088">
        <ele>305</ele>
        <time>2025-11-11T12:05:27Z</time>
      </trkpt>
      <trkpt lat="45.71105" lon="4.75101">
        <ele>304</ele>
        <time>2025-11-11T12:05:28Z</time>
      </trkpt>
      <trkpt lat="45.71103" lon="4.75115">
        <ele>302.8</ele>
        <time>2025-11-11T12:05:29Z</time>
      </trkpt>
      <trkpt lat="45.71103" lon="4.7513">
        <ele>301.4</ele>
        <time>2025-11-11T12:05:30Z</time>
      </trkpt>
      <trkpt lat="45.71105" lon="4.75145">
        <ele>300</ele>
        <time>2025-11-11T12:05:31Z</time>
      </trkpt>
      <trkpt lat="45.71108" lon="4.7516">
        <ele>298.4</ele>
        <time>2025-11-11T12:05:32Z</time>
      </trkpt>
      <trkpt lat="45.71111" lon="4.75175">
        <ele>297.2</ele>
        <time>2025-11-11T12:05:33Z</time>
      </trkpt>
      <trkpt lat="45.71114" lon="4.75191">
        <ele>296.2</ele>
        <time>2025-11-11T12:05:34Z</time>
      </trkpt>
      <trkpt lat="45.71115" lon="4.75206">
        <ele>295.4</ele>
        <time>2025-11-11T12:05:35Z</time>
      </trkpt>
      <trkpt lat="45.71115" lon="4.7522">
        <ele>294.8</ele>
        <time>2025-11-11T12:05:36Z</time>
      </trkpt>
      <trkpt lat="45.71114" lon="4.75234">
        <ele>294.6</ele>
        <time>2025-11-11T12:05:37Z</time>
      </trkpt>
      <trkpt lat="45.71112" lon="4.75247">
        <ele>294.6</ele>
        <time>2025-11-11T12:05:38Z</time>
      </trkpt>
      <trkpt lat="45.71109" lon="4.75259">
        <ele>294.6</ele>
        <time>2025-11-11T12:05:39Z</time>
      </trkpt>
      <trkpt lat="45.71106" lon="4.75269">
        <ele>295</ele>
        <time>2025-11-11T12:05:40Z</time>
      </trkpt>
      <trkpt lat="45.71102" lon="4.75277">
        <ele>295.6</ele>
        <time>2025-11-11T12:05:41Z</time>
      </trkpt>
      <trkpt lat="45.71099" lon="4.75285">
        <ele>296.6</ele>
        <time>2025-11-11T12:05:42Z</time>
      </trkpt>
      <trkpt lat="45.71096" lon="4.75291">
        <ele>297.6</ele>
        <time>2025-11-11T12:05:43Z</time>
      </trkpt>
      <trkpt lat="45.71094" lon="4.75297">
        <ele>298.8</ele>
        <time>2025-11-11T12:05:44Z</time>
      </trkpt>
      <trkpt lat="45.71092" lon="4.75303">
        <ele>299.8</ele>
        <time>2025-11-11T12:05:45Z</time>
      </trkpt>
      <trkpt lat="45.7109" lon="4.75308">
        <ele>300.6</ele>
        <time>2025-11-11T12:05:46Z</time>
      </trkpt>
      <trkpt lat="45.71088" lon="4.75313">
        <ele>301.6</ele>
        <time>2025-11-11T12:05:47Z</time>
      </trkpt>
      <trkpt lat="45.71086" lon="4.75318">
        <ele>302.4</ele>
        <time>2025-11-11T12:05:48Z</time>
      </trkpt>
      <trkpt lat="45.71085" lon="4.75322">
        <ele>303.2</ele>
        <time>2025-11-11T12:05:49Z</time>
      </trkpt>
      <trkpt lat="45.71084" lon="4.75327">
        <ele>304.2</ele>
        <time>2025-11-11T12:05:50Z</time>
      </trkpt>
      <trkpt lat="45.71082" lon="4.75331">
        <ele>305</ele>
        <time>2025-11-11T12:05:51Z</time>
      </trkpt>
      <trkpt lat="45.7108" lon="4.75335">
        <ele>305.6</ele>
        <time>2025-11-11T12:05:52Z</time>
      </trkpt>
      <trkpt lat="45.71079" lon="4.7534">
        <ele>306.4</ele>
        <time>2025-11-11T12:05:53Z</time>
      </trkpt>
      <trkpt lat="45.71078" lon="4.75344">
        <ele>307</ele>
        <time>2025-11-11T12:05:54Z</time>
      </trkpt>
      <trkpt lat="45.71077" lon="4.75349">
        <ele>307.6</ele>
        <time>2025-11-11T12:05:55Z</time>
      </trkpt>
      <trkpt lat="45.71076" lon="4.75354">
        <ele>308.2</ele>
        <time>2025-11-11T12:05:56Z</time>
      </trkpt>
      <trkpt lat="45.71075" lon="4.75359">
        <ele>308.6</ele>
        <time>2025-11-11T12:05:57Z</time>
      </trkpt>
      <trkpt lat="45.71074" lon="4.75364">
        <ele>309.2</ele>
        <time>2025-11-11T12:05:58Z</time>
      </trkpt>
      <trkpt lat="45.71072" lon="4.75369">
        <ele>309.6</ele>
        <time>2025-11-11T12:05:59Z</time>
      </trkpt>
      <trkpt lat="45.7107" lon="4.75374">
        <ele>310</ele>
        <time>2025-11-11T12:06:00Z</time>
      </trkpt>
      <trkpt lat="45.71069" lon="4.7538">
        <ele>310.4</ele>
        <time>2025-11-11T12:06:01Z</time>
      </trkpt>
      <trkpt lat="45.71067" lon="4.75385">
        <ele>310.6</ele>
        <time>2025-11-11T12:06:02Z</time>
      </trkpt>
      <trkpt lat="45.71065" lon="4.75391">
        <ele>310.8</ele>
        <time>2025-11-11T12:06:03Z</time>
      </trkpt>
      <trkpt lat="45.71063" lon="4.75396">
        <ele>311.2</ele>
        <time>2025-11-11T12:06:04Z</time>
      </trkpt>
      <trkpt lat="45.71062" lon="4.75402">
        <ele>311.4</ele>
        <time>2025-11-11T12:06:05Z</time>
      </trkpt>
      <trkpt lat="45.71061" lon="4.75407">
        <ele>311.6</ele>
        <time>2025-11-11T12:06:06Z</time>
      </trkpt>
      <trkpt lat="45.71059" lon="4.75413">
        <ele>311.8</ele>
        <time>2025-11-11T12:06:07Z</time>
      </trkpt>
      <trkpt lat="45.71058" lon="4.75418">
        <ele>312</ele>
        <time>2025-11-11T12:06:08Z</time>
      </trkpt>
      <trkpt lat="45.71057" lon="4.75423">
        <ele>312.2</ele>
        <time>2025-11-11T12:06:09Z</time>
      </trkpt>
      <trkpt lat="45.71056" lon="4.75429">
        <ele>312.2</ele>
        <time>2025-11-11T12:06:10Z</time>
      </trkpt>
      <trkpt lat="45.71056" lon="4.75435">
        <ele>312.2</ele>
        <time>2025-11-11T12:06:11Z</time>
      </trkpt>
      <trkpt lat="45.71056" lon="4.75442">
        <ele>312</ele>
        <time>2025-11-11T12:06:12Z</time>
      </trkpt>
      <trkpt lat="45.71056" lon="4.75449">
        <ele>311.8</ele>
        <time>2025-11-11T12:06:13Z</time>
      </trkpt>
      <trkpt lat="45.71056" lon="4.75457">
        <ele>311.6</ele>
        <time>2025-11-11T12:06:14Z</time>
      </trkpt>
      <trkpt lat="45.71056" lon="4.75464">
        <ele>311.4</ele>
        <time>2025-11-11T12:06:15Z</time>
      </trkpt>
      <trkpt lat="45.71056" lon="4.75471">
        <ele>311.2</ele>
        <time>2025-11-11T12:06:16Z</time>
      </trkpt>
      <trkpt lat="45.71055" lon="4.75478">
        <ele>311.2</ele>
        <time>2025-11-11T12:06:17Z</time>
      </trkpt>
      <trkpt lat="45.71055" lon="4.75485">
        <ele>311.2</ele>
        <time>2025-11-11T12:06:18Z</time>
      </trkpt>
      <trkpt lat="45.71055" lon="4.75492">
        <ele>311.2</ele>
        <time>2025-11-11T12:06:19Z</time>
      </trkpt>
      <trkpt lat="45.71056" lon="4.75499">
        <ele>311.2</ele>
        <time>2025-11-11T12:06:20Z</time>
      </trkpt>
      <trkpt lat="45.71056" lon="4.75507">
        <ele>311</ele>
        <time>2025-11-11T12:06:21Z</time>
      </trkpt>
      <trkpt lat="45.71056" lon="4.75514">
        <ele>311</ele>
        <time>2025-11-11T12:06:22Z</time>
      </trkpt>
      <trkpt lat="45.71056" lon="4.75521">
        <ele>311</ele>
        <time>2025-11-11T12:06:23Z</time>
      </trkpt>
      <trkpt lat="45.71057" lon="4.75527">
        <ele>311</ele>
        <time>2025-11-11T12:06:24Z</time>
      </trkpt>
      <trkpt lat="45.71057" lon="4.75533">
        <ele>311.2</ele>
        <time>2025-11-11T12:06:25Z</time>
      </trkpt>
      <trkpt lat="45.71059" lon="4.75538">
        <ele>311.2</ele>
        <time>2025-11-11T12:06:26Z</time>
      </trkpt>
      <trkpt lat="45.71061" lon="4.7554">
        <ele>311.6</ele>
        <time>2025-11-11T12:06:27Z</time>
      </trkpt>
      <trkpt lat="45.71064" lon="4.75541">
        <ele>311.8</ele>
        <time>2025-11-11T12:06:28Z</time>
      </trkpt>
      <trkpt lat="45.71067" lon="4.75541">
        <ele>312.2</ele>
        <time>2025-11-11T12:06:29Z</time>
      </trkpt>
      <trkpt lat="45.71071" lon="4.75541">
        <ele>312.6</ele>
        <time>2025-11-11T12:06:30Z</time>
      </trkpt>
      <trkpt lat="45.71073" lon="4.75543">
        <ele>313</ele>
        <time>2025-11-11T12:06:31Z</time>
      </trkpt>
      <trkpt lat="45.71075" lon="4.75545">
        <ele>313.2</ele>
        <time>2025-11-11T12:06:32Z</time>
      </trkpt>
      <trkpt lat="45.71076" lon="4.75549">
        <ele>313.4</ele>
        <time>2025-11-11T12:06:33Z</time>
      </trkpt>
      <trkpt lat="45.71076" lon="4.75552">
        <ele>313.6</ele>
        <time>2025-11-11T12:06:34Z</time>
      </trkpt>
      <trkpt lat="45.71077" lon="4.75554">
        <ele>313.8</ele>
        <time>2025-11-11T12:06:35Z</time>
      </trkpt>
      <trkpt lat="45.71077" lon="4.75555">
        <ele>313.8</ele>
        <time>2025-11-11T12:06:36Z</time>
      </trkpt>
      <trkpt lat="45.71077" lon="4.75555">
        <ele>314</ele>
        <time>2025-11-11T12:06:37Z</time>
      </trkpt>
      <trkpt lat="45.71077" lon="4.75555">
        <ele>314.2</ele>
        <time>2025-11-11T12:06:38Z</time>
      </trkpt>
      <trkpt lat="45.71077" lon="4.75555">
        <ele>314.2</ele>
        <time>2025-11-11T12:06:39Z</time>
      </trkpt>
      <trkpt lat="45.71077" lon="4.75555">
        <ele>314.2</ele>
        <time>2025-11-11T12:06:40Z</time>
      </trkpt>
      <trkpt lat="45.71077" lon="4.75555">
        <ele>314.2</ele>
        <time>2025-11-11T12:06:41Z</time>
      </trkpt>
      <trkpt lat="45.71077" lon="4.75555">
        <ele>314.2</ele>
        <time>2025-11-11T12:06:42Z</time>
      </trkpt>
      <trkpt lat="45.71077" lon="4.75555">
        <ele>314.2</ele>
        <time>2025-11-11T12:06:43Z</time>
      </trkpt>
      <trkpt lat="45.71077" lon="4.75555">
        <ele>314.2</ele>
        <time>2025-11-11T12:06:44Z</time>
      </trkpt>
      <trkpt lat="45.71077" lon="4.75555">
        <ele>314.2</ele>
        <time>2025-11-11T12:06:45Z</time>
      </trkpt>
      <trkpt lat="45.71077" lon="4.75555">
        <ele>314.2</ele>
        <time>2025-11-11T12:06:46Z</time>
      </trkpt>
      <trkpt lat="45.71077" lon="4.75555">
        <ele>314.4</ele>
        <time>2025-11-11T12:06:47Z</time>
      </trkpt>
      <trkpt lat="45.71077" lon="4.75555">
        <ele>314.2</ele>
        <time>2025-11-11T12:06:48Z</time>
      </trkpt>
    </trkseg>
  </trk>
</gpx>